<?xml version="1.0" encoding="UTF-8" standalone="no" ?>
<gpx xmlns="http://www.topografix.com/GPX/1/1" xmlns:xsi="http://www.w3.org/2001/XMLSchema-instance" xsi:schemaLocation="http://www.topografix.com/GPX/1/1 http://www.topografix.com/GPX/1/1/gpx.xsd" version="1.1" creator="VisuGPX - https://www.visugpx.com">
  <metadata>
    <name>CARCASSONNE le 14.07.2019 - ACFC</name>
    <desc><![CDATA[Parcours au départ de la plaine de Mayrevieille en direction de PENNAUTIER et VILLEMOUSTAUSSOU. Sans aucune difficulté et relativement plat. Peut se faire en randonnée.]]></desc>
  </metadata>
  <trk>
    <name><![CDATA[TrailRunning]]></name>
    <trkseg>
      <trkpt lat="43.20281" lon="2.334">
        <ele>108</ele>
        <time>2019-07-14T06:04:59.000Z</time>
      </trkpt>
      <trkpt lat="43.20281" lon="2.33399">
        <ele>107.9</ele>
        <time>2019-07-14T06:05:00.000Z</time>
      </trkpt>
      <trkpt lat="43.20281" lon="2.33399">
        <ele>107.9</ele>
        <time>2019-07-14T06:05:01.000Z</time>
      </trkpt>
      <trkpt lat="43.20282" lon="2.33399">
        <ele>107.9</ele>
        <time>2019-07-14T06:05:02.000Z</time>
      </trkpt>
      <trkpt lat="43.20282" lon="2.33398">
        <ele>107.9</ele>
        <time>2019-07-14T06:05:03.000Z</time>
      </trkpt>
      <trkpt lat="43.20283" lon="2.33399">
        <ele>107.9</ele>
        <time>2019-07-14T06:05:04.000Z</time>
      </trkpt>
      <trkpt lat="43.20284" lon="2.33399">
        <ele>107.9</ele>
        <time>2019-07-14T06:05:05.000Z</time>
      </trkpt>
      <trkpt lat="43.20285" lon="2.33399">
        <ele>107.9</ele>
        <time>2019-07-14T06:05:06.000Z</time>
      </trkpt>
      <trkpt lat="43.20286" lon="2.334">
        <ele>108</ele>
        <time>2019-07-14T06:05:07.000Z</time>
      </trkpt>
      <trkpt lat="43.20286" lon="2.33401">
        <ele>108</ele>
        <time>2019-07-14T06:05:08.000Z</time>
      </trkpt>
      <trkpt lat="43.20287" lon="2.33401">
        <ele>108</ele>
        <time>2019-07-14T06:05:09.000Z</time>
      </trkpt>
      <trkpt lat="43.20288" lon="2.33402">
        <ele>108</ele>
        <time>2019-07-14T06:05:10.000Z</time>
      </trkpt>
      <trkpt lat="43.20289" lon="2.33403">
        <ele>108.1</ele>
        <time>2019-07-14T06:05:11.000Z</time>
      </trkpt>
      <trkpt lat="43.2029" lon="2.33403">
        <ele>108.1</ele>
        <time>2019-07-14T06:05:12.000Z</time>
      </trkpt>
      <trkpt lat="43.2029" lon="2.33404">
        <ele>108.1</ele>
        <time>2019-07-14T06:05:13.000Z</time>
      </trkpt>
      <trkpt lat="43.20291" lon="2.33404">
        <ele>108.1</ele>
        <time>2019-07-14T06:05:14.000Z</time>
      </trkpt>
      <trkpt lat="43.20291" lon="2.33405">
        <ele>108.1</ele>
        <time>2019-07-14T06:05:15.000Z</time>
      </trkpt>
      <trkpt lat="43.20292" lon="2.33405">
        <ele>108.1</ele>
        <time>2019-07-14T06:05:16.000Z</time>
      </trkpt>
      <trkpt lat="43.20292" lon="2.33405">
        <ele>108.2</ele>
        <time>2019-07-14T06:05:17.000Z</time>
      </trkpt>
      <trkpt lat="43.20292" lon="2.33405">
        <ele>108.2</ele>
        <time>2019-07-14T06:05:18.000Z</time>
      </trkpt>
      <trkpt lat="43.20292" lon="2.33405">
        <ele>108.2</ele>
        <time>2019-07-14T06:05:19.000Z</time>
      </trkpt>
      <trkpt lat="43.20292" lon="2.33406">
        <ele>108.2</ele>
        <time>2019-07-14T06:05:20.000Z</time>
      </trkpt>
      <trkpt lat="43.20293" lon="2.33406">
        <ele>108.2</ele>
        <time>2019-07-14T06:05:21.000Z</time>
      </trkpt>
      <trkpt lat="43.20293" lon="2.33407">
        <ele>108.2</ele>
        <time>2019-07-14T06:05:22.000Z</time>
      </trkpt>
      <trkpt lat="43.20294" lon="2.33408">
        <ele>108.2</ele>
        <time>2019-07-14T06:05:23.000Z</time>
      </trkpt>
      <trkpt lat="43.20295" lon="2.33409">
        <ele>108.3</ele>
        <time>2019-07-14T06:05:24.000Z</time>
      </trkpt>
      <trkpt lat="43.20296" lon="2.33411">
        <ele>108.4</ele>
        <time>2019-07-14T06:05:25.000Z</time>
      </trkpt>
      <trkpt lat="43.20297" lon="2.33412">
        <ele>108.4</ele>
        <time>2019-07-14T06:05:26.000Z</time>
      </trkpt>
      <trkpt lat="43.20299" lon="2.33414">
        <ele>108.5</ele>
        <time>2019-07-14T06:05:27.000Z</time>
      </trkpt>
      <trkpt lat="43.203" lon="2.33417">
        <ele>108.6</ele>
        <time>2019-07-14T06:05:28.000Z</time>
      </trkpt>
      <trkpt lat="43.20302" lon="2.33419">
        <ele>108.6</ele>
        <time>2019-07-14T06:05:29.000Z</time>
      </trkpt>
      <trkpt lat="43.20303" lon="2.33421">
        <ele>108.6</ele>
        <time>2019-07-14T06:05:30.000Z</time>
      </trkpt>
      <trkpt lat="43.20304" lon="2.33424">
        <ele>108.6</ele>
        <time>2019-07-14T06:05:31.000Z</time>
      </trkpt>
      <trkpt lat="43.20306" lon="2.33426">
        <ele>108.6</ele>
        <time>2019-07-14T06:05:32.000Z</time>
      </trkpt>
      <trkpt lat="43.20307" lon="2.33428">
        <ele>108.6</ele>
        <time>2019-07-14T06:05:33.000Z</time>
      </trkpt>
      <trkpt lat="43.20308" lon="2.3343">
        <ele>108.6</ele>
        <time>2019-07-14T06:05:34.000Z</time>
      </trkpt>
      <trkpt lat="43.20308" lon="2.33432">
        <ele>108.6</ele>
        <time>2019-07-14T06:05:35.000Z</time>
      </trkpt>
      <trkpt lat="43.20309" lon="2.33434">
        <ele>108.6</ele>
        <time>2019-07-14T06:05:36.000Z</time>
      </trkpt>
      <trkpt lat="43.2031" lon="2.33437">
        <ele>108.6</ele>
        <time>2019-07-14T06:05:37.000Z</time>
      </trkpt>
      <trkpt lat="43.2031" lon="2.33439">
        <ele>108.6</ele>
        <time>2019-07-14T06:05:38.000Z</time>
      </trkpt>
      <trkpt lat="43.20311" lon="2.33441">
        <ele>108.6</ele>
        <time>2019-07-14T06:05:39.000Z</time>
      </trkpt>
      <trkpt lat="43.20311" lon="2.33443">
        <ele>108.6</ele>
        <time>2019-07-14T06:05:40.000Z</time>
      </trkpt>
      <trkpt lat="43.20312" lon="2.33446">
        <ele>108.6</ele>
        <time>2019-07-14T06:05:41.000Z</time>
      </trkpt>
      <trkpt lat="43.20312" lon="2.33448">
        <ele>108.6</ele>
        <time>2019-07-14T06:05:42.000Z</time>
      </trkpt>
      <trkpt lat="43.20313" lon="2.33451">
        <ele>108.5</ele>
        <time>2019-07-14T06:05:43.000Z</time>
      </trkpt>
      <trkpt lat="43.20313" lon="2.33453">
        <ele>108.5</ele>
        <time>2019-07-14T06:05:44.000Z</time>
      </trkpt>
      <trkpt lat="43.20313" lon="2.33455">
        <ele>108.5</ele>
        <time>2019-07-14T06:05:45.000Z</time>
      </trkpt>
      <trkpt lat="43.20312" lon="2.33457">
        <ele>108.5</ele>
        <time>2019-07-14T06:05:46.000Z</time>
      </trkpt>
      <trkpt lat="43.20312" lon="2.33458">
        <ele>108.5</ele>
        <time>2019-07-14T06:05:47.000Z</time>
      </trkpt>
      <trkpt lat="43.20311" lon="2.3346">
        <ele>108.5</ele>
        <time>2019-07-14T06:05:48.000Z</time>
      </trkpt>
      <trkpt lat="43.2031" lon="2.33461">
        <ele>108.5</ele>
        <time>2019-07-14T06:05:49.000Z</time>
      </trkpt>
      <trkpt lat="43.20309" lon="2.33461">
        <ele>108.5</ele>
        <time>2019-07-14T06:05:50.000Z</time>
      </trkpt>
      <trkpt lat="43.20309" lon="2.33462">
        <ele>108.5</ele>
        <time>2019-07-14T06:05:51.000Z</time>
      </trkpt>
      <trkpt lat="43.20308" lon="2.33462">
        <ele>108.5</ele>
        <time>2019-07-14T06:05:52.000Z</time>
      </trkpt>
      <trkpt lat="43.20308" lon="2.33462">
        <ele>108.5</ele>
        <time>2019-07-14T06:05:53.000Z</time>
      </trkpt>
      <trkpt lat="43.20308" lon="2.33462">
        <ele>108.5</ele>
        <time>2019-07-14T06:05:54.000Z</time>
      </trkpt>
      <trkpt lat="43.20309" lon="2.33462">
        <ele>108.5</ele>
        <time>2019-07-14T06:05:55.000Z</time>
      </trkpt>
      <trkpt lat="43.20309" lon="2.33461">
        <ele>108.5</ele>
        <time>2019-07-14T06:05:56.000Z</time>
      </trkpt>
      <trkpt lat="43.2031" lon="2.33461">
        <ele>108.5</ele>
        <time>2019-07-14T06:05:57.000Z</time>
      </trkpt>
      <trkpt lat="43.20311" lon="2.3346">
        <ele>108.5</ele>
        <time>2019-07-14T06:05:58.000Z</time>
      </trkpt>
      <trkpt lat="43.20311" lon="2.3346">
        <ele>108.5</ele>
        <time>2019-07-14T06:05:59.000Z</time>
      </trkpt>
      <trkpt lat="43.20311" lon="2.3346">
        <ele>108.5</ele>
        <time>2019-07-14T06:06:00.000Z</time>
      </trkpt>
      <trkpt lat="43.20311" lon="2.3346">
        <ele>108.5</ele>
        <time>2019-07-14T06:06:01.000Z</time>
      </trkpt>
      <trkpt lat="43.20311" lon="2.3346">
        <ele>108.5</ele>
        <time>2019-07-14T06:06:02.000Z</time>
      </trkpt>
      <trkpt lat="43.20312" lon="2.3346">
        <ele>108.5</ele>
        <time>2019-07-14T06:06:03.000Z</time>
      </trkpt>
      <trkpt lat="43.20312" lon="2.33459">
        <ele>108.5</ele>
        <time>2019-07-14T06:06:04.000Z</time>
      </trkpt>
      <trkpt lat="43.20313" lon="2.33458">
        <ele>108.5</ele>
        <time>2019-07-14T06:06:05.000Z</time>
      </trkpt>
      <trkpt lat="43.20314" lon="2.33457">
        <ele>108.5</ele>
        <time>2019-07-14T06:06:06.000Z</time>
      </trkpt>
      <trkpt lat="43.20315" lon="2.33456">
        <ele>108.5</ele>
        <time>2019-07-14T06:06:07.000Z</time>
      </trkpt>
      <trkpt lat="43.20317" lon="2.33455">
        <ele>108.5</ele>
        <time>2019-07-14T06:06:08.000Z</time>
      </trkpt>
      <trkpt lat="43.20318" lon="2.33453">
        <ele>108.5</ele>
        <time>2019-07-14T06:06:09.000Z</time>
      </trkpt>
      <trkpt lat="43.20319" lon="2.33452">
        <ele>108.6</ele>
        <time>2019-07-14T06:06:10.000Z</time>
      </trkpt>
      <trkpt lat="43.20321" lon="2.3345">
        <ele>108.6</ele>
        <time>2019-07-14T06:06:11.000Z</time>
      </trkpt>
      <trkpt lat="43.20322" lon="2.33449">
        <ele>108.6</ele>
        <time>2019-07-14T06:06:12.000Z</time>
      </trkpt>
      <trkpt lat="43.20323" lon="2.33447">
        <ele>108.6</ele>
        <time>2019-07-14T06:06:13.000Z</time>
      </trkpt>
      <trkpt lat="43.20325" lon="2.33446">
        <ele>108.6</ele>
        <time>2019-07-14T06:06:14.000Z</time>
      </trkpt>
      <trkpt lat="43.20326" lon="2.33444">
        <ele>108.6</ele>
        <time>2019-07-14T06:06:15.000Z</time>
      </trkpt>
      <trkpt lat="43.20327" lon="2.33442">
        <ele>108.7</ele>
        <time>2019-07-14T06:06:16.000Z</time>
      </trkpt>
      <trkpt lat="43.20329" lon="2.33441">
        <ele>108.7</ele>
        <time>2019-07-14T06:06:17.000Z</time>
      </trkpt>
      <trkpt lat="43.2033" lon="2.33439">
        <ele>108.7</ele>
        <time>2019-07-14T06:06:18.000Z</time>
      </trkpt>
      <trkpt lat="43.20331" lon="2.33437">
        <ele>108.7</ele>
        <time>2019-07-14T06:06:19.000Z</time>
      </trkpt>
      <trkpt lat="43.20333" lon="2.33436">
        <ele>108.8</ele>
        <time>2019-07-14T06:06:20.000Z</time>
      </trkpt>
      <trkpt lat="43.20334" lon="2.33434">
        <ele>108.8</ele>
        <time>2019-07-14T06:06:21.000Z</time>
      </trkpt>
      <trkpt lat="43.20336" lon="2.33432">
        <ele>108.8</ele>
        <time>2019-07-14T06:06:22.000Z</time>
      </trkpt>
      <trkpt lat="43.20338" lon="2.3343">
        <ele>108.8</ele>
        <time>2019-07-14T06:06:23.000Z</time>
      </trkpt>
      <trkpt lat="43.20339" lon="2.33428">
        <ele>108.8</ele>
        <time>2019-07-14T06:06:24.000Z</time>
      </trkpt>
      <trkpt lat="43.20341" lon="2.33427">
        <ele>108.8</ele>
        <time>2019-07-14T06:06:25.000Z</time>
      </trkpt>
      <trkpt lat="43.20343" lon="2.33425">
        <ele>108.8</ele>
        <time>2019-07-14T06:06:26.000Z</time>
      </trkpt>
      <trkpt lat="43.20344" lon="2.33423">
        <ele>108.8</ele>
        <time>2019-07-14T06:06:27.000Z</time>
      </trkpt>
      <trkpt lat="43.20346" lon="2.33421">
        <ele>108.8</ele>
        <time>2019-07-14T06:06:28.000Z</time>
      </trkpt>
      <trkpt lat="43.20348" lon="2.33419">
        <ele>108.8</ele>
        <time>2019-07-14T06:06:29.000Z</time>
      </trkpt>
      <trkpt lat="43.20349" lon="2.33417">
        <ele>108.8</ele>
        <time>2019-07-14T06:06:30.000Z</time>
      </trkpt>
      <trkpt lat="43.20351" lon="2.33415">
        <ele>108.7</ele>
        <time>2019-07-14T06:06:31.000Z</time>
      </trkpt>
      <trkpt lat="43.20353" lon="2.33413">
        <ele>108.6</ele>
        <time>2019-07-14T06:06:32.000Z</time>
      </trkpt>
      <trkpt lat="43.20355" lon="2.33411">
        <ele>108.5</ele>
        <time>2019-07-14T06:06:33.000Z</time>
      </trkpt>
      <trkpt lat="43.20356" lon="2.33409">
        <ele>108.5</ele>
        <time>2019-07-14T06:06:34.000Z</time>
      </trkpt>
      <trkpt lat="43.20358" lon="2.33407">
        <ele>108.4</ele>
        <time>2019-07-14T06:06:35.000Z</time>
      </trkpt>
      <trkpt lat="43.2036" lon="2.33405">
        <ele>108.3</ele>
        <time>2019-07-14T06:06:36.000Z</time>
      </trkpt>
      <trkpt lat="43.20361" lon="2.33402">
        <ele>108.2</ele>
        <time>2019-07-14T06:06:37.000Z</time>
      </trkpt>
      <trkpt lat="43.20363" lon="2.334">
        <ele>108.1</ele>
        <time>2019-07-14T06:06:38.000Z</time>
      </trkpt>
      <trkpt lat="43.20365" lon="2.33398">
        <ele>108.1</ele>
        <time>2019-07-14T06:06:39.000Z</time>
      </trkpt>
      <trkpt lat="43.20367" lon="2.33396">
        <ele>108</ele>
        <time>2019-07-14T06:06:40.000Z</time>
      </trkpt>
      <trkpt lat="43.20368" lon="2.33394">
        <ele>108</ele>
        <time>2019-07-14T06:06:41.000Z</time>
      </trkpt>
      <trkpt lat="43.2037" lon="2.33392">
        <ele>107.9</ele>
        <time>2019-07-14T06:06:42.000Z</time>
      </trkpt>
      <trkpt lat="43.20372" lon="2.3339">
        <ele>107.8</ele>
        <time>2019-07-14T06:06:43.000Z</time>
      </trkpt>
      <trkpt lat="43.20374" lon="2.33388">
        <ele>107.8</ele>
        <time>2019-07-14T06:06:44.000Z</time>
      </trkpt>
      <trkpt lat="43.20375" lon="2.33386">
        <ele>107.8</ele>
        <time>2019-07-14T06:06:45.000Z</time>
      </trkpt>
      <trkpt lat="43.20377" lon="2.33384">
        <ele>107.7</ele>
        <time>2019-07-14T06:06:46.000Z</time>
      </trkpt>
      <trkpt lat="43.20379" lon="2.33383">
        <ele>107.7</ele>
        <time>2019-07-14T06:06:47.000Z</time>
      </trkpt>
      <trkpt lat="43.20381" lon="2.33381">
        <ele>107.7</ele>
        <time>2019-07-14T06:06:48.000Z</time>
      </trkpt>
      <trkpt lat="43.20383" lon="2.33379">
        <ele>107.7</ele>
        <time>2019-07-14T06:06:49.000Z</time>
      </trkpt>
      <trkpt lat="43.20384" lon="2.33378">
        <ele>107.7</ele>
        <time>2019-07-14T06:06:50.000Z</time>
      </trkpt>
      <trkpt lat="43.20386" lon="2.33376">
        <ele>107.7</ele>
        <time>2019-07-14T06:06:51.000Z</time>
      </trkpt>
      <trkpt lat="43.20388" lon="2.33375">
        <ele>107.7</ele>
        <time>2019-07-14T06:06:52.000Z</time>
      </trkpt>
      <trkpt lat="43.2039" lon="2.33374">
        <ele>107.7</ele>
        <time>2019-07-14T06:06:53.000Z</time>
      </trkpt>
      <trkpt lat="43.20392" lon="2.33372">
        <ele>107.7</ele>
        <time>2019-07-14T06:06:54.000Z</time>
      </trkpt>
      <trkpt lat="43.20394" lon="2.33371">
        <ele>107.7</ele>
        <time>2019-07-14T06:06:55.000Z</time>
      </trkpt>
      <trkpt lat="43.20395" lon="2.33369">
        <ele>107.7</ele>
        <time>2019-07-14T06:06:56.000Z</time>
      </trkpt>
      <trkpt lat="43.20397" lon="2.33367">
        <ele>107.7</ele>
        <time>2019-07-14T06:06:57.000Z</time>
      </trkpt>
      <trkpt lat="43.20399" lon="2.33365">
        <ele>107.7</ele>
        <time>2019-07-14T06:06:58.000Z</time>
      </trkpt>
      <trkpt lat="43.204" lon="2.33363">
        <ele>107.7</ele>
        <time>2019-07-14T06:06:59.000Z</time>
      </trkpt>
      <trkpt lat="43.20402" lon="2.33361">
        <ele>107.7</ele>
        <time>2019-07-14T06:07:00.000Z</time>
      </trkpt>
      <trkpt lat="43.20404" lon="2.33358">
        <ele>107.7</ele>
        <time>2019-07-14T06:07:01.000Z</time>
      </trkpt>
      <trkpt lat="43.20405" lon="2.33356">
        <ele>107.7</ele>
        <time>2019-07-14T06:07:02.000Z</time>
      </trkpt>
      <trkpt lat="43.20407" lon="2.33354">
        <ele>107.8</ele>
        <time>2019-07-14T06:07:03.000Z</time>
      </trkpt>
      <trkpt lat="43.20408" lon="2.33351">
        <ele>107.8</ele>
        <time>2019-07-14T06:07:04.000Z</time>
      </trkpt>
      <trkpt lat="43.2041" lon="2.33349">
        <ele>107.8</ele>
        <time>2019-07-14T06:07:05.000Z</time>
      </trkpt>
      <trkpt lat="43.20411" lon="2.33347">
        <ele>107.8</ele>
        <time>2019-07-14T06:07:06.000Z</time>
      </trkpt>
      <trkpt lat="43.20412" lon="2.33344">
        <ele>107.9</ele>
        <time>2019-07-14T06:07:07.000Z</time>
      </trkpt>
      <trkpt lat="43.20414" lon="2.33342">
        <ele>107.9</ele>
        <time>2019-07-14T06:07:08.000Z</time>
      </trkpt>
      <trkpt lat="43.20415" lon="2.3334">
        <ele>108</ele>
        <time>2019-07-14T06:07:09.000Z</time>
      </trkpt>
      <trkpt lat="43.20417" lon="2.33338">
        <ele>108</ele>
        <time>2019-07-14T06:07:10.000Z</time>
      </trkpt>
      <trkpt lat="43.20418" lon="2.33336">
        <ele>108</ele>
        <time>2019-07-14T06:07:11.000Z</time>
      </trkpt>
      <trkpt lat="43.2042" lon="2.33333">
        <ele>108.1</ele>
        <time>2019-07-14T06:07:12.000Z</time>
      </trkpt>
      <trkpt lat="43.20422" lon="2.33331">
        <ele>108.2</ele>
        <time>2019-07-14T06:07:13.000Z</time>
      </trkpt>
      <trkpt lat="43.20423" lon="2.33329">
        <ele>108.4</ele>
        <time>2019-07-14T06:07:14.000Z</time>
      </trkpt>
      <trkpt lat="43.20425" lon="2.33326">
        <ele>108.6</ele>
        <time>2019-07-14T06:07:15.000Z</time>
      </trkpt>
      <trkpt lat="43.20427" lon="2.33324">
        <ele>108.8</ele>
        <time>2019-07-14T06:07:16.000Z</time>
      </trkpt>
      <trkpt lat="43.20428" lon="2.33321">
        <ele>109</ele>
        <time>2019-07-14T06:07:17.000Z</time>
      </trkpt>
      <trkpt lat="43.20429" lon="2.33319">
        <ele>109.2</ele>
        <time>2019-07-14T06:07:18.000Z</time>
      </trkpt>
      <trkpt lat="43.20431" lon="2.33316">
        <ele>109.4</ele>
        <time>2019-07-14T06:07:19.000Z</time>
      </trkpt>
      <trkpt lat="43.20432" lon="2.33313">
        <ele>109.6</ele>
        <time>2019-07-14T06:07:20.000Z</time>
      </trkpt>
      <trkpt lat="43.20432" lon="2.33309">
        <ele>109.8</ele>
        <time>2019-07-14T06:07:21.000Z</time>
      </trkpt>
      <trkpt lat="43.20433" lon="2.33306">
        <ele>110</ele>
        <time>2019-07-14T06:07:22.000Z</time>
      </trkpt>
      <trkpt lat="43.20433" lon="2.33303">
        <ele>110.2</ele>
        <time>2019-07-14T06:07:23.000Z</time>
      </trkpt>
      <trkpt lat="43.20433" lon="2.333">
        <ele>110.3</ele>
        <time>2019-07-14T06:07:24.000Z</time>
      </trkpt>
      <trkpt lat="43.20433" lon="2.33296">
        <ele>110.5</ele>
        <time>2019-07-14T06:07:25.000Z</time>
      </trkpt>
      <trkpt lat="43.20433" lon="2.33294">
        <ele>110.7</ele>
        <time>2019-07-14T06:07:26.000Z</time>
      </trkpt>
      <trkpt lat="43.20433" lon="2.33291">
        <ele>110.8</ele>
        <time>2019-07-14T06:07:27.000Z</time>
      </trkpt>
      <trkpt lat="43.20432" lon="2.33289">
        <ele>111</ele>
        <time>2019-07-14T06:07:28.000Z</time>
      </trkpt>
      <trkpt lat="43.20432" lon="2.33287">
        <ele>111</ele>
        <time>2019-07-14T06:07:29.000Z</time>
      </trkpt>
      <trkpt lat="43.20432" lon="2.33286">
        <ele>111.1</ele>
        <time>2019-07-14T06:07:30.000Z</time>
      </trkpt>
      <trkpt lat="43.20431" lon="2.33284">
        <ele>111.2</ele>
        <time>2019-07-14T06:07:31.000Z</time>
      </trkpt>
      <trkpt lat="43.20431" lon="2.33283">
        <ele>111.2</ele>
        <time>2019-07-14T06:07:32.000Z</time>
      </trkpt>
      <trkpt lat="43.20431" lon="2.33283">
        <ele>111.3</ele>
        <time>2019-07-14T06:07:33.000Z</time>
      </trkpt>
      <trkpt lat="43.2043" lon="2.33282">
        <ele>111.3</ele>
        <time>2019-07-14T06:07:34.000Z</time>
      </trkpt>
      <trkpt lat="43.2043" lon="2.33281">
        <ele>111.4</ele>
        <time>2019-07-14T06:07:35.000Z</time>
      </trkpt>
      <trkpt lat="43.2043" lon="2.3328">
        <ele>111.4</ele>
        <time>2019-07-14T06:07:36.000Z</time>
      </trkpt>
      <trkpt lat="43.2043" lon="2.33278">
        <ele>111.5</ele>
        <time>2019-07-14T06:07:37.000Z</time>
      </trkpt>
      <trkpt lat="43.20431" lon="2.33277">
        <ele>111.6</ele>
        <time>2019-07-14T06:07:38.000Z</time>
      </trkpt>
      <trkpt lat="43.20431" lon="2.33275">
        <ele>111.7</ele>
        <time>2019-07-14T06:07:39.000Z</time>
      </trkpt>
      <trkpt lat="43.20431" lon="2.33273">
        <ele>111.9</ele>
        <time>2019-07-14T06:07:40.000Z</time>
      </trkpt>
      <trkpt lat="43.20432" lon="2.33271">
        <ele>112</ele>
        <time>2019-07-14T06:07:41.000Z</time>
      </trkpt>
      <trkpt lat="43.20433" lon="2.33269">
        <ele>112.1</ele>
        <time>2019-07-14T06:07:42.000Z</time>
      </trkpt>
      <trkpt lat="43.20434" lon="2.33267">
        <ele>112.3</ele>
        <time>2019-07-14T06:07:43.000Z</time>
      </trkpt>
      <trkpt lat="43.20435" lon="2.33265">
        <ele>112.4</ele>
        <time>2019-07-14T06:07:44.000Z</time>
      </trkpt>
      <trkpt lat="43.20436" lon="2.33263">
        <ele>112.5</ele>
        <time>2019-07-14T06:07:45.000Z</time>
      </trkpt>
      <trkpt lat="43.20438" lon="2.33261">
        <ele>112.6</ele>
        <time>2019-07-14T06:07:46.000Z</time>
      </trkpt>
      <trkpt lat="43.20439" lon="2.33259">
        <ele>112.8</ele>
        <time>2019-07-14T06:07:47.000Z</time>
      </trkpt>
      <trkpt lat="43.2044" lon="2.33257">
        <ele>112.9</ele>
        <time>2019-07-14T06:07:48.000Z</time>
      </trkpt>
      <trkpt lat="43.20442" lon="2.33255">
        <ele>113</ele>
        <time>2019-07-14T06:07:49.000Z</time>
      </trkpt>
      <trkpt lat="43.20443" lon="2.33254">
        <ele>113.1</ele>
        <time>2019-07-14T06:07:50.000Z</time>
      </trkpt>
      <trkpt lat="43.20444" lon="2.33252">
        <ele>113.2</ele>
        <time>2019-07-14T06:07:51.000Z</time>
      </trkpt>
      <trkpt lat="43.20446" lon="2.33251">
        <ele>113.3</ele>
        <time>2019-07-14T06:07:52.000Z</time>
      </trkpt>
      <trkpt lat="43.20447" lon="2.33249">
        <ele>113.4</ele>
        <time>2019-07-14T06:07:53.000Z</time>
      </trkpt>
      <trkpt lat="43.20449" lon="2.33248">
        <ele>113.4</ele>
        <time>2019-07-14T06:07:54.000Z</time>
      </trkpt>
      <trkpt lat="43.2045" lon="2.33247">
        <ele>113.5</ele>
        <time>2019-07-14T06:07:55.000Z</time>
      </trkpt>
      <trkpt lat="43.20452" lon="2.33245">
        <ele>113.6</ele>
        <time>2019-07-14T06:07:56.000Z</time>
      </trkpt>
      <trkpt lat="43.20454" lon="2.33244">
        <ele>113.6</ele>
        <time>2019-07-14T06:07:57.000Z</time>
      </trkpt>
      <trkpt lat="43.20456" lon="2.33242">
        <ele>113.7</ele>
        <time>2019-07-14T06:07:58.000Z</time>
      </trkpt>
      <trkpt lat="43.20458" lon="2.33241">
        <ele>113.7</ele>
        <time>2019-07-14T06:07:59.000Z</time>
      </trkpt>
      <trkpt lat="43.2046" lon="2.33239">
        <ele>113.8</ele>
        <time>2019-07-14T06:08:00.000Z</time>
      </trkpt>
      <trkpt lat="43.20462" lon="2.33237">
        <ele>113.8</ele>
        <time>2019-07-14T06:08:01.000Z</time>
      </trkpt>
      <trkpt lat="43.20464" lon="2.33235">
        <ele>113.9</ele>
        <time>2019-07-14T06:08:02.000Z</time>
      </trkpt>
      <trkpt lat="43.20466" lon="2.33233">
        <ele>113.9</ele>
        <time>2019-07-14T06:08:03.000Z</time>
      </trkpt>
      <trkpt lat="43.20468" lon="2.33231">
        <ele>114</ele>
        <time>2019-07-14T06:08:04.000Z</time>
      </trkpt>
      <trkpt lat="43.20469" lon="2.33228">
        <ele>114</ele>
        <time>2019-07-14T06:08:05.000Z</time>
      </trkpt>
      <trkpt lat="43.20471" lon="2.33226">
        <ele>114.1</ele>
        <time>2019-07-14T06:08:06.000Z</time>
      </trkpt>
      <trkpt lat="43.20472" lon="2.33224">
        <ele>114.1</ele>
        <time>2019-07-14T06:08:07.000Z</time>
      </trkpt>
      <trkpt lat="43.20473" lon="2.33221">
        <ele>114.1</ele>
        <time>2019-07-14T06:08:08.000Z</time>
      </trkpt>
      <trkpt lat="43.20474" lon="2.33218">
        <ele>114.2</ele>
        <time>2019-07-14T06:08:09.000Z</time>
      </trkpt>
      <trkpt lat="43.20475" lon="2.33215">
        <ele>114.2</ele>
        <time>2019-07-14T06:08:10.000Z</time>
      </trkpt>
      <trkpt lat="43.20476" lon="2.33212">
        <ele>114.2</ele>
        <time>2019-07-14T06:08:11.000Z</time>
      </trkpt>
      <trkpt lat="43.20477" lon="2.3321">
        <ele>114.3</ele>
        <time>2019-07-14T06:08:12.000Z</time>
      </trkpt>
      <trkpt lat="43.20478" lon="2.33207">
        <ele>114.3</ele>
        <time>2019-07-14T06:08:13.000Z</time>
      </trkpt>
      <trkpt lat="43.20478" lon="2.33204">
        <ele>114.3</ele>
        <time>2019-07-14T06:08:14.000Z</time>
      </trkpt>
      <trkpt lat="43.20479" lon="2.33201">
        <ele>114.3</ele>
        <time>2019-07-14T06:08:15.000Z</time>
      </trkpt>
      <trkpt lat="43.20479" lon="2.33198">
        <ele>114.4</ele>
        <time>2019-07-14T06:08:16.000Z</time>
      </trkpt>
      <trkpt lat="43.2048" lon="2.33195">
        <ele>114.4</ele>
        <time>2019-07-14T06:08:17.000Z</time>
      </trkpt>
      <trkpt lat="43.20481" lon="2.33192">
        <ele>114.4</ele>
        <time>2019-07-14T06:08:18.000Z</time>
      </trkpt>
      <trkpt lat="43.20481" lon="2.3319">
        <ele>114.4</ele>
        <time>2019-07-14T06:08:19.000Z</time>
      </trkpt>
      <trkpt lat="43.20482" lon="2.33187">
        <ele>114.4</ele>
        <time>2019-07-14T06:08:20.000Z</time>
      </trkpt>
      <trkpt lat="43.20482" lon="2.33184">
        <ele>114.5</ele>
        <time>2019-07-14T06:08:21.000Z</time>
      </trkpt>
      <trkpt lat="43.20483" lon="2.33182">
        <ele>114.5</ele>
        <time>2019-07-14T06:08:22.000Z</time>
      </trkpt>
      <trkpt lat="43.20484" lon="2.33179">
        <ele>114.5</ele>
        <time>2019-07-14T06:08:23.000Z</time>
      </trkpt>
      <trkpt lat="43.20484" lon="2.33176">
        <ele>114.5</ele>
        <time>2019-07-14T06:08:24.000Z</time>
      </trkpt>
      <trkpt lat="43.20485" lon="2.33173">
        <ele>114.5</ele>
        <time>2019-07-14T06:08:25.000Z</time>
      </trkpt>
      <trkpt lat="43.20486" lon="2.33171">
        <ele>114.5</ele>
        <time>2019-07-14T06:08:26.000Z</time>
      </trkpt>
      <trkpt lat="43.20487" lon="2.33168">
        <ele>114.5</ele>
        <time>2019-07-14T06:08:27.000Z</time>
      </trkpt>
      <trkpt lat="43.20487" lon="2.33165">
        <ele>114.5</ele>
        <time>2019-07-14T06:08:28.000Z</time>
      </trkpt>
      <trkpt lat="43.20488" lon="2.33162">
        <ele>114.4</ele>
        <time>2019-07-14T06:08:29.000Z</time>
      </trkpt>
      <trkpt lat="43.20488" lon="2.33159">
        <ele>114.4</ele>
        <time>2019-07-14T06:08:30.000Z</time>
      </trkpt>
      <trkpt lat="43.20489" lon="2.33156">
        <ele>114.4</ele>
        <time>2019-07-14T06:08:31.000Z</time>
      </trkpt>
      <trkpt lat="43.20489" lon="2.33153">
        <ele>114.3</ele>
        <time>2019-07-14T06:08:32.000Z</time>
      </trkpt>
      <trkpt lat="43.2049" lon="2.3315">
        <ele>114.3</ele>
        <time>2019-07-14T06:08:33.000Z</time>
      </trkpt>
      <trkpt lat="43.2049" lon="2.33147">
        <ele>114.3</ele>
        <time>2019-07-14T06:08:34.000Z</time>
      </trkpt>
      <trkpt lat="43.20491" lon="2.33144">
        <ele>114.2</ele>
        <time>2019-07-14T06:08:35.000Z</time>
      </trkpt>
      <trkpt lat="43.20492" lon="2.33142">
        <ele>114.2</ele>
        <time>2019-07-14T06:08:36.000Z</time>
      </trkpt>
      <trkpt lat="43.20493" lon="2.33139">
        <ele>114.2</ele>
        <time>2019-07-14T06:08:37.000Z</time>
      </trkpt>
      <trkpt lat="43.20494" lon="2.33137">
        <ele>114.1</ele>
        <time>2019-07-14T06:08:38.000Z</time>
      </trkpt>
      <trkpt lat="43.20496" lon="2.33135">
        <ele>114.1</ele>
        <time>2019-07-14T06:08:39.000Z</time>
      </trkpt>
      <trkpt lat="43.20498" lon="2.33133">
        <ele>114.1</ele>
        <time>2019-07-14T06:08:40.000Z</time>
      </trkpt>
      <trkpt lat="43.20499" lon="2.33131">
        <ele>114</ele>
        <time>2019-07-14T06:08:41.000Z</time>
      </trkpt>
      <trkpt lat="43.20501" lon="2.33129">
        <ele>114</ele>
        <time>2019-07-14T06:08:42.000Z</time>
      </trkpt>
      <trkpt lat="43.20503" lon="2.33127">
        <ele>113.9</ele>
        <time>2019-07-14T06:08:43.000Z</time>
      </trkpt>
      <trkpt lat="43.20505" lon="2.33125">
        <ele>113.9</ele>
        <time>2019-07-14T06:08:44.000Z</time>
      </trkpt>
      <trkpt lat="43.20506" lon="2.33123">
        <ele>113.9</ele>
        <time>2019-07-14T06:08:45.000Z</time>
      </trkpt>
      <trkpt lat="43.20508" lon="2.33121">
        <ele>113.8</ele>
        <time>2019-07-14T06:08:46.000Z</time>
      </trkpt>
      <trkpt lat="43.20509" lon="2.33119">
        <ele>113.8</ele>
        <time>2019-07-14T06:08:47.000Z</time>
      </trkpt>
      <trkpt lat="43.20511" lon="2.33117">
        <ele>113.8</ele>
        <time>2019-07-14T06:08:48.000Z</time>
      </trkpt>
      <trkpt lat="43.20512" lon="2.33115">
        <ele>113.8</ele>
        <time>2019-07-14T06:08:49.000Z</time>
      </trkpt>
      <trkpt lat="43.20513" lon="2.33112">
        <ele>113.7</ele>
        <time>2019-07-14T06:08:50.000Z</time>
      </trkpt>
      <trkpt lat="43.20514" lon="2.3311">
        <ele>113.7</ele>
        <time>2019-07-14T06:08:51.000Z</time>
      </trkpt>
      <trkpt lat="43.20515" lon="2.33107">
        <ele>113.7</ele>
        <time>2019-07-14T06:08:52.000Z</time>
      </trkpt>
      <trkpt lat="43.20516" lon="2.33105">
        <ele>113.7</ele>
        <time>2019-07-14T06:08:53.000Z</time>
      </trkpt>
      <trkpt lat="43.20517" lon="2.33102">
        <ele>113.7</ele>
        <time>2019-07-14T06:08:54.000Z</time>
      </trkpt>
      <trkpt lat="43.20519" lon="2.331">
        <ele>113.7</ele>
        <time>2019-07-14T06:08:55.000Z</time>
      </trkpt>
      <trkpt lat="43.2052" lon="2.33098">
        <ele>113.7</ele>
        <time>2019-07-14T06:08:56.000Z</time>
      </trkpt>
      <trkpt lat="43.20521" lon="2.33095">
        <ele>113.7</ele>
        <time>2019-07-14T06:08:57.000Z</time>
      </trkpt>
      <trkpt lat="43.20523" lon="2.33093">
        <ele>113.7</ele>
        <time>2019-07-14T06:08:58.000Z</time>
      </trkpt>
      <trkpt lat="43.20524" lon="2.3309">
        <ele>113.7</ele>
        <time>2019-07-14T06:08:59.000Z</time>
      </trkpt>
      <trkpt lat="43.20526" lon="2.33088">
        <ele>113.7</ele>
        <time>2019-07-14T06:09:00.000Z</time>
      </trkpt>
      <trkpt lat="43.20527" lon="2.33086">
        <ele>113.7</ele>
        <time>2019-07-14T06:09:01.000Z</time>
      </trkpt>
      <trkpt lat="43.20529" lon="2.33083">
        <ele>113.7</ele>
        <time>2019-07-14T06:09:02.000Z</time>
      </trkpt>
      <trkpt lat="43.2053" lon="2.33081">
        <ele>113.7</ele>
        <time>2019-07-14T06:09:03.000Z</time>
      </trkpt>
      <trkpt lat="43.20531" lon="2.33079">
        <ele>113.7</ele>
        <time>2019-07-14T06:09:04.000Z</time>
      </trkpt>
      <trkpt lat="43.20532" lon="2.33076">
        <ele>113.7</ele>
        <time>2019-07-14T06:09:05.000Z</time>
      </trkpt>
      <trkpt lat="43.20533" lon="2.33074">
        <ele>113.7</ele>
        <time>2019-07-14T06:09:06.000Z</time>
      </trkpt>
      <trkpt lat="43.20534" lon="2.33072">
        <ele>113.7</ele>
        <time>2019-07-14T06:09:07.000Z</time>
      </trkpt>
      <trkpt lat="43.20536" lon="2.33069">
        <ele>113.7</ele>
        <time>2019-07-14T06:09:08.000Z</time>
      </trkpt>
      <trkpt lat="43.20537" lon="2.33067">
        <ele>113.7</ele>
        <time>2019-07-14T06:09:09.000Z</time>
      </trkpt>
      <trkpt lat="43.20538" lon="2.33064">
        <ele>113.8</ele>
        <time>2019-07-14T06:09:10.000Z</time>
      </trkpt>
      <trkpt lat="43.20539" lon="2.33062">
        <ele>113.8</ele>
        <time>2019-07-14T06:09:11.000Z</time>
      </trkpt>
      <trkpt lat="43.2054" lon="2.3306">
        <ele>113.8</ele>
        <time>2019-07-14T06:09:12.000Z</time>
      </trkpt>
      <trkpt lat="43.20542" lon="2.33057">
        <ele>113.8</ele>
        <time>2019-07-14T06:09:13.000Z</time>
      </trkpt>
      <trkpt lat="43.20543" lon="2.33055">
        <ele>113.8</ele>
        <time>2019-07-14T06:09:14.000Z</time>
      </trkpt>
      <trkpt lat="43.20544" lon="2.33052">
        <ele>113.9</ele>
        <time>2019-07-14T06:09:15.000Z</time>
      </trkpt>
      <trkpt lat="43.20546" lon="2.3305">
        <ele>113.9</ele>
        <time>2019-07-14T06:09:16.000Z</time>
      </trkpt>
      <trkpt lat="43.20547" lon="2.33047">
        <ele>113.9</ele>
        <time>2019-07-14T06:09:17.000Z</time>
      </trkpt>
      <trkpt lat="43.20549" lon="2.33044">
        <ele>114</ele>
        <time>2019-07-14T06:09:18.000Z</time>
      </trkpt>
      <trkpt lat="43.2055" lon="2.33042">
        <ele>114</ele>
        <time>2019-07-14T06:09:19.000Z</time>
      </trkpt>
      <trkpt lat="43.20551" lon="2.33039">
        <ele>114</ele>
        <time>2019-07-14T06:09:20.000Z</time>
      </trkpt>
      <trkpt lat="43.20553" lon="2.33037">
        <ele>114.1</ele>
        <time>2019-07-14T06:09:21.000Z</time>
      </trkpt>
      <trkpt lat="43.20554" lon="2.33034">
        <ele>114.1</ele>
        <time>2019-07-14T06:09:22.000Z</time>
      </trkpt>
      <trkpt lat="43.20556" lon="2.33032">
        <ele>114.2</ele>
        <time>2019-07-14T06:09:23.000Z</time>
      </trkpt>
      <trkpt lat="43.20558" lon="2.33029">
        <ele>114.2</ele>
        <time>2019-07-14T06:09:24.000Z</time>
      </trkpt>
      <trkpt lat="43.20559" lon="2.33027">
        <ele>114.3</ele>
        <time>2019-07-14T06:09:25.000Z</time>
      </trkpt>
      <trkpt lat="43.20561" lon="2.33025">
        <ele>114.3</ele>
        <time>2019-07-14T06:09:26.000Z</time>
      </trkpt>
      <trkpt lat="43.20563" lon="2.33023">
        <ele>114.3</ele>
        <time>2019-07-14T06:09:27.000Z</time>
      </trkpt>
      <trkpt lat="43.20565" lon="2.33022">
        <ele>114.4</ele>
        <time>2019-07-14T06:09:28.000Z</time>
      </trkpt>
      <trkpt lat="43.20567" lon="2.3302">
        <ele>114.4</ele>
        <time>2019-07-14T06:09:29.000Z</time>
      </trkpt>
      <trkpt lat="43.20569" lon="2.33019">
        <ele>114.5</ele>
        <time>2019-07-14T06:09:30.000Z</time>
      </trkpt>
      <trkpt lat="43.20571" lon="2.33018">
        <ele>114.5</ele>
        <time>2019-07-14T06:09:31.000Z</time>
      </trkpt>
      <trkpt lat="43.20573" lon="2.33017">
        <ele>114.5</ele>
        <time>2019-07-14T06:09:32.000Z</time>
      </trkpt>
      <trkpt lat="43.20576" lon="2.33016">
        <ele>114.6</ele>
        <time>2019-07-14T06:09:33.000Z</time>
      </trkpt>
      <trkpt lat="43.20578" lon="2.33015">
        <ele>114.6</ele>
        <time>2019-07-14T06:09:34.000Z</time>
      </trkpt>
      <trkpt lat="43.2058" lon="2.33014">
        <ele>114.6</ele>
        <time>2019-07-14T06:09:35.000Z</time>
      </trkpt>
      <trkpt lat="43.20583" lon="2.33014">
        <ele>114.7</ele>
        <time>2019-07-14T06:09:36.000Z</time>
      </trkpt>
      <trkpt lat="43.20585" lon="2.33013">
        <ele>114.7</ele>
        <time>2019-07-14T06:09:37.000Z</time>
      </trkpt>
      <trkpt lat="43.20588" lon="2.33013">
        <ele>114.7</ele>
        <time>2019-07-14T06:09:38.000Z</time>
      </trkpt>
      <trkpt lat="43.2059" lon="2.33012">
        <ele>114.6</ele>
        <time>2019-07-14T06:09:39.000Z</time>
      </trkpt>
      <trkpt lat="43.20592" lon="2.33012">
        <ele>114.6</ele>
        <time>2019-07-14T06:09:40.000Z</time>
      </trkpt>
      <trkpt lat="43.20595" lon="2.33012">
        <ele>114.6</ele>
        <time>2019-07-14T06:09:41.000Z</time>
      </trkpt>
      <trkpt lat="43.20597" lon="2.33012">
        <ele>114.6</ele>
        <time>2019-07-14T06:09:42.000Z</time>
      </trkpt>
      <trkpt lat="43.206" lon="2.33012">
        <ele>114.6</ele>
        <time>2019-07-14T06:09:43.000Z</time>
      </trkpt>
      <trkpt lat="43.20602" lon="2.33012">
        <ele>114.6</ele>
        <time>2019-07-14T06:09:44.000Z</time>
      </trkpt>
      <trkpt lat="43.20604" lon="2.33012">
        <ele>114.5</ele>
        <time>2019-07-14T06:09:45.000Z</time>
      </trkpt>
      <trkpt lat="43.20607" lon="2.33012">
        <ele>114.5</ele>
        <time>2019-07-14T06:09:46.000Z</time>
      </trkpt>
      <trkpt lat="43.20609" lon="2.33013">
        <ele>114.5</ele>
        <time>2019-07-14T06:09:47.000Z</time>
      </trkpt>
      <trkpt lat="43.20612" lon="2.33013">
        <ele>114.5</ele>
        <time>2019-07-14T06:09:48.000Z</time>
      </trkpt>
      <trkpt lat="43.20614" lon="2.33013">
        <ele>114.4</ele>
        <time>2019-07-14T06:09:49.000Z</time>
      </trkpt>
      <trkpt lat="43.20616" lon="2.33013">
        <ele>114.4</ele>
        <time>2019-07-14T06:09:50.000Z</time>
      </trkpt>
      <trkpt lat="43.20619" lon="2.33014">
        <ele>114.4</ele>
        <time>2019-07-14T06:09:51.000Z</time>
      </trkpt>
      <trkpt lat="43.20621" lon="2.33014">
        <ele>114.4</ele>
        <time>2019-07-14T06:09:52.000Z</time>
      </trkpt>
      <trkpt lat="43.20623" lon="2.33014">
        <ele>114.3</ele>
        <time>2019-07-14T06:09:53.000Z</time>
      </trkpt>
      <trkpt lat="43.20626" lon="2.33015">
        <ele>114.3</ele>
        <time>2019-07-14T06:09:54.000Z</time>
      </trkpt>
      <trkpt lat="43.20628" lon="2.33015">
        <ele>114.3</ele>
        <time>2019-07-14T06:09:55.000Z</time>
      </trkpt>
      <trkpt lat="43.2063" lon="2.33015">
        <ele>114.3</ele>
        <time>2019-07-14T06:09:56.000Z</time>
      </trkpt>
      <trkpt lat="43.20633" lon="2.33016">
        <ele>114.3</ele>
        <time>2019-07-14T06:09:57.000Z</time>
      </trkpt>
      <trkpt lat="43.20635" lon="2.33016">
        <ele>114.2</ele>
        <time>2019-07-14T06:09:58.000Z</time>
      </trkpt>
      <trkpt lat="43.20637" lon="2.33017">
        <ele>114.2</ele>
        <time>2019-07-14T06:09:59.000Z</time>
      </trkpt>
      <trkpt lat="43.20639" lon="2.33017">
        <ele>114.2</ele>
        <time>2019-07-14T06:10:00.000Z</time>
      </trkpt>
      <trkpt lat="43.20642" lon="2.33017">
        <ele>114.2</ele>
        <time>2019-07-14T06:10:01.000Z</time>
      </trkpt>
      <trkpt lat="43.20644" lon="2.33017">
        <ele>114.2</ele>
        <time>2019-07-14T06:10:02.000Z</time>
      </trkpt>
      <trkpt lat="43.20646" lon="2.33018">
        <ele>114.1</ele>
        <time>2019-07-14T06:10:03.000Z</time>
      </trkpt>
      <trkpt lat="43.20649" lon="2.33018">
        <ele>114.1</ele>
        <time>2019-07-14T06:10:04.000Z</time>
      </trkpt>
      <trkpt lat="43.20651" lon="2.33018">
        <ele>114.1</ele>
        <time>2019-07-14T06:10:05.000Z</time>
      </trkpt>
      <trkpt lat="43.20653" lon="2.33019">
        <ele>114.1</ele>
        <time>2019-07-14T06:10:06.000Z</time>
      </trkpt>
      <trkpt lat="43.20656" lon="2.33019">
        <ele>114.1</ele>
        <time>2019-07-14T06:10:07.000Z</time>
      </trkpt>
      <trkpt lat="43.20658" lon="2.33019">
        <ele>114.1</ele>
        <time>2019-07-14T06:10:08.000Z</time>
      </trkpt>
      <trkpt lat="43.2066" lon="2.33019">
        <ele>114</ele>
        <time>2019-07-14T06:10:09.000Z</time>
      </trkpt>
      <trkpt lat="43.20663" lon="2.3302">
        <ele>114</ele>
        <time>2019-07-14T06:10:10.000Z</time>
      </trkpt>
      <trkpt lat="43.20665" lon="2.3302">
        <ele>114</ele>
        <time>2019-07-14T06:10:11.000Z</time>
      </trkpt>
      <trkpt lat="43.20667" lon="2.3302">
        <ele>114</ele>
        <time>2019-07-14T06:10:12.000Z</time>
      </trkpt>
      <trkpt lat="43.20669" lon="2.3302">
        <ele>114</ele>
        <time>2019-07-14T06:10:13.000Z</time>
      </trkpt>
      <trkpt lat="43.20672" lon="2.33021">
        <ele>114</ele>
        <time>2019-07-14T06:10:14.000Z</time>
      </trkpt>
      <trkpt lat="43.20674" lon="2.33021">
        <ele>113.9</ele>
        <time>2019-07-14T06:10:15.000Z</time>
      </trkpt>
      <trkpt lat="43.20677" lon="2.33021">
        <ele>113.9</ele>
        <time>2019-07-14T06:10:16.000Z</time>
      </trkpt>
      <trkpt lat="43.20679" lon="2.33021">
        <ele>113.9</ele>
        <time>2019-07-14T06:10:17.000Z</time>
      </trkpt>
      <trkpt lat="43.20681" lon="2.33022">
        <ele>113.9</ele>
        <time>2019-07-14T06:10:18.000Z</time>
      </trkpt>
      <trkpt lat="43.20684" lon="2.33022">
        <ele>113.8</ele>
        <time>2019-07-14T06:10:19.000Z</time>
      </trkpt>
      <trkpt lat="43.20686" lon="2.33022">
        <ele>113.8</ele>
        <time>2019-07-14T06:10:20.000Z</time>
      </trkpt>
      <trkpt lat="43.20689" lon="2.33022">
        <ele>113.8</ele>
        <time>2019-07-14T06:10:21.000Z</time>
      </trkpt>
      <trkpt lat="43.20691" lon="2.33022">
        <ele>113.8</ele>
        <time>2019-07-14T06:10:22.000Z</time>
      </trkpt>
      <trkpt lat="43.20694" lon="2.33023">
        <ele>113.8</ele>
        <time>2019-07-14T06:10:23.000Z</time>
      </trkpt>
      <trkpt lat="43.20696" lon="2.33023">
        <ele>113.7</ele>
        <time>2019-07-14T06:10:24.000Z</time>
      </trkpt>
      <trkpt lat="43.20699" lon="2.33023">
        <ele>113.7</ele>
        <time>2019-07-14T06:10:25.000Z</time>
      </trkpt>
      <trkpt lat="43.20701" lon="2.33023">
        <ele>113.7</ele>
        <time>2019-07-14T06:10:26.000Z</time>
      </trkpt>
      <trkpt lat="43.20704" lon="2.33024">
        <ele>113.7</ele>
        <time>2019-07-14T06:10:27.000Z</time>
      </trkpt>
      <trkpt lat="43.20706" lon="2.33024">
        <ele>113.7</ele>
        <time>2019-07-14T06:10:28.000Z</time>
      </trkpt>
      <trkpt lat="43.20709" lon="2.33024">
        <ele>113.6</ele>
        <time>2019-07-14T06:10:29.000Z</time>
      </trkpt>
      <trkpt lat="43.20712" lon="2.33024">
        <ele>113.6</ele>
        <time>2019-07-14T06:10:30.000Z</time>
      </trkpt>
      <trkpt lat="43.20714" lon="2.33025">
        <ele>113.6</ele>
        <time>2019-07-14T06:10:31.000Z</time>
      </trkpt>
      <trkpt lat="43.20717" lon="2.33025">
        <ele>113.6</ele>
        <time>2019-07-14T06:10:32.000Z</time>
      </trkpt>
      <trkpt lat="43.2072" lon="2.33025">
        <ele>113.6</ele>
        <time>2019-07-14T06:10:33.000Z</time>
      </trkpt>
      <trkpt lat="43.20723" lon="2.33025">
        <ele>113.5</ele>
        <time>2019-07-14T06:10:34.000Z</time>
      </trkpt>
      <trkpt lat="43.20725" lon="2.33026">
        <ele>113.5</ele>
        <time>2019-07-14T06:10:35.000Z</time>
      </trkpt>
      <trkpt lat="43.20728" lon="2.33026">
        <ele>113.5</ele>
        <time>2019-07-14T06:10:36.000Z</time>
      </trkpt>
      <trkpt lat="43.20731" lon="2.33026">
        <ele>113.5</ele>
        <time>2019-07-14T06:10:37.000Z</time>
      </trkpt>
      <trkpt lat="43.20733" lon="2.33027">
        <ele>113.5</ele>
        <time>2019-07-14T06:10:38.000Z</time>
      </trkpt>
      <trkpt lat="43.20736" lon="2.33027">
        <ele>113.4</ele>
        <time>2019-07-14T06:10:39.000Z</time>
      </trkpt>
      <trkpt lat="43.20739" lon="2.33027">
        <ele>113.4</ele>
        <time>2019-07-14T06:10:40.000Z</time>
      </trkpt>
      <trkpt lat="43.20742" lon="2.33027">
        <ele>113.4</ele>
        <time>2019-07-14T06:10:41.000Z</time>
      </trkpt>
      <trkpt lat="43.20744" lon="2.33027">
        <ele>113.4</ele>
        <time>2019-07-14T06:10:42.000Z</time>
      </trkpt>
      <trkpt lat="43.20747" lon="2.33028">
        <ele>113.4</ele>
        <time>2019-07-14T06:10:43.000Z</time>
      </trkpt>
      <trkpt lat="43.2075" lon="2.33028">
        <ele>113.3</ele>
        <time>2019-07-14T06:10:44.000Z</time>
      </trkpt>
      <trkpt lat="43.20752" lon="2.33028">
        <ele>113.3</ele>
        <time>2019-07-14T06:10:45.000Z</time>
      </trkpt>
      <trkpt lat="43.20755" lon="2.33028">
        <ele>113.3</ele>
        <time>2019-07-14T06:10:46.000Z</time>
      </trkpt>
      <trkpt lat="43.20758" lon="2.33028">
        <ele>113.2</ele>
        <time>2019-07-14T06:10:47.000Z</time>
      </trkpt>
      <trkpt lat="43.2076" lon="2.33028">
        <ele>113.2</ele>
        <time>2019-07-14T06:10:48.000Z</time>
      </trkpt>
      <trkpt lat="43.20763" lon="2.33028">
        <ele>113.1</ele>
        <time>2019-07-14T06:10:49.000Z</time>
      </trkpt>
      <trkpt lat="43.20765" lon="2.33029">
        <ele>113.1</ele>
        <time>2019-07-14T06:10:50.000Z</time>
      </trkpt>
      <trkpt lat="43.20768" lon="2.33029">
        <ele>113.1</ele>
        <time>2019-07-14T06:10:51.000Z</time>
      </trkpt>
      <trkpt lat="43.2077" lon="2.33029">
        <ele>113</ele>
        <time>2019-07-14T06:10:52.000Z</time>
      </trkpt>
      <trkpt lat="43.20773" lon="2.33029">
        <ele>113</ele>
        <time>2019-07-14T06:10:53.000Z</time>
      </trkpt>
      <trkpt lat="43.20776" lon="2.33029">
        <ele>112.9</ele>
        <time>2019-07-14T06:10:54.000Z</time>
      </trkpt>
      <trkpt lat="43.20778" lon="2.33029">
        <ele>112.9</ele>
        <time>2019-07-14T06:10:55.000Z</time>
      </trkpt>
      <trkpt lat="43.20781" lon="2.33029">
        <ele>112.9</ele>
        <time>2019-07-14T06:10:56.000Z</time>
      </trkpt>
      <trkpt lat="43.20783" lon="2.33029">
        <ele>112.8</ele>
        <time>2019-07-14T06:10:57.000Z</time>
      </trkpt>
      <trkpt lat="43.20786" lon="2.33029">
        <ele>112.8</ele>
        <time>2019-07-14T06:10:58.000Z</time>
      </trkpt>
      <trkpt lat="43.20788" lon="2.33029">
        <ele>112.7</ele>
        <time>2019-07-14T06:10:59.000Z</time>
      </trkpt>
      <trkpt lat="43.20791" lon="2.33029">
        <ele>112.7</ele>
        <time>2019-07-14T06:11:00.000Z</time>
      </trkpt>
      <trkpt lat="43.20793" lon="2.33029">
        <ele>112.6</ele>
        <time>2019-07-14T06:11:01.000Z</time>
      </trkpt>
      <trkpt lat="43.20796" lon="2.3303">
        <ele>112.6</ele>
        <time>2019-07-14T06:11:02.000Z</time>
      </trkpt>
      <trkpt lat="43.20798" lon="2.3303">
        <ele>112.6</ele>
        <time>2019-07-14T06:11:03.000Z</time>
      </trkpt>
      <trkpt lat="43.20801" lon="2.3303">
        <ele>112.5</ele>
        <time>2019-07-14T06:11:04.000Z</time>
      </trkpt>
      <trkpt lat="43.20803" lon="2.3303">
        <ele>112.5</ele>
        <time>2019-07-14T06:11:05.000Z</time>
      </trkpt>
      <trkpt lat="43.20806" lon="2.3303">
        <ele>112.4</ele>
        <time>2019-07-14T06:11:06.000Z</time>
      </trkpt>
      <trkpt lat="43.20808" lon="2.3303">
        <ele>112.4</ele>
        <time>2019-07-14T06:11:07.000Z</time>
      </trkpt>
      <trkpt lat="43.20811" lon="2.3303">
        <ele>112.4</ele>
        <time>2019-07-14T06:11:08.000Z</time>
      </trkpt>
      <trkpt lat="43.20813" lon="2.3303">
        <ele>112.3</ele>
        <time>2019-07-14T06:11:09.000Z</time>
      </trkpt>
      <trkpt lat="43.20816" lon="2.3303">
        <ele>112.3</ele>
        <time>2019-07-14T06:11:10.000Z</time>
      </trkpt>
      <trkpt lat="43.20818" lon="2.3303">
        <ele>112.2</ele>
        <time>2019-07-14T06:11:11.000Z</time>
      </trkpt>
      <trkpt lat="43.20821" lon="2.33031">
        <ele>112.2</ele>
        <time>2019-07-14T06:11:12.000Z</time>
      </trkpt>
      <trkpt lat="43.20823" lon="2.33031">
        <ele>112.2</ele>
        <time>2019-07-14T06:11:13.000Z</time>
      </trkpt>
      <trkpt lat="43.20826" lon="2.33031">
        <ele>112.1</ele>
        <time>2019-07-14T06:11:14.000Z</time>
      </trkpt>
      <trkpt lat="43.20828" lon="2.33031">
        <ele>112.1</ele>
        <time>2019-07-14T06:11:15.000Z</time>
      </trkpt>
      <trkpt lat="43.2083" lon="2.33031">
        <ele>112</ele>
        <time>2019-07-14T06:11:16.000Z</time>
      </trkpt>
      <trkpt lat="43.20833" lon="2.33031">
        <ele>112</ele>
        <time>2019-07-14T06:11:17.000Z</time>
      </trkpt>
      <trkpt lat="43.20835" lon="2.33031">
        <ele>112</ele>
        <time>2019-07-14T06:11:18.000Z</time>
      </trkpt>
      <trkpt lat="43.20838" lon="2.33031">
        <ele>112</ele>
        <time>2019-07-14T06:11:19.000Z</time>
      </trkpt>
      <trkpt lat="43.20841" lon="2.33031">
        <ele>112</ele>
        <time>2019-07-14T06:11:20.000Z</time>
      </trkpt>
      <trkpt lat="43.20843" lon="2.33031">
        <ele>112</ele>
        <time>2019-07-14T06:11:21.000Z</time>
      </trkpt>
      <trkpt lat="43.20846" lon="2.33031">
        <ele>112</ele>
        <time>2019-07-14T06:11:22.000Z</time>
      </trkpt>
      <trkpt lat="43.20848" lon="2.33031">
        <ele>112</ele>
        <time>2019-07-14T06:11:23.000Z</time>
      </trkpt>
      <trkpt lat="43.2085" lon="2.33032">
        <ele>112</ele>
        <time>2019-07-14T06:11:24.000Z</time>
      </trkpt>
      <trkpt lat="43.20853" lon="2.33032">
        <ele>111.9</ele>
        <time>2019-07-14T06:11:25.000Z</time>
      </trkpt>
      <trkpt lat="43.20855" lon="2.33033">
        <ele>111.9</ele>
        <time>2019-07-14T06:11:26.000Z</time>
      </trkpt>
      <trkpt lat="43.20857" lon="2.33033">
        <ele>111.9</ele>
        <time>2019-07-14T06:11:27.000Z</time>
      </trkpt>
      <trkpt lat="43.20859" lon="2.33034">
        <ele>111.9</ele>
        <time>2019-07-14T06:11:28.000Z</time>
      </trkpt>
      <trkpt lat="43.20861" lon="2.33034">
        <ele>111.9</ele>
        <time>2019-07-14T06:11:29.000Z</time>
      </trkpt>
      <trkpt lat="43.20863" lon="2.33034">
        <ele>111.9</ele>
        <time>2019-07-14T06:11:30.000Z</time>
      </trkpt>
      <trkpt lat="43.20865" lon="2.33033">
        <ele>111.9</ele>
        <time>2019-07-14T06:11:31.000Z</time>
      </trkpt>
      <trkpt lat="43.20867" lon="2.33033">
        <ele>111.9</ele>
        <time>2019-07-14T06:11:32.000Z</time>
      </trkpt>
      <trkpt lat="43.2087" lon="2.33033">
        <ele>111.9</ele>
        <time>2019-07-14T06:11:33.000Z</time>
      </trkpt>
      <trkpt lat="43.20872" lon="2.33032">
        <ele>111.9</ele>
        <time>2019-07-14T06:11:34.000Z</time>
      </trkpt>
      <trkpt lat="43.20875" lon="2.33032">
        <ele>111.9</ele>
        <time>2019-07-14T06:11:35.000Z</time>
      </trkpt>
      <trkpt lat="43.20877" lon="2.33032">
        <ele>111.9</ele>
        <time>2019-07-14T06:11:36.000Z</time>
      </trkpt>
      <trkpt lat="43.2088" lon="2.33032">
        <ele>111.9</ele>
        <time>2019-07-14T06:11:37.000Z</time>
      </trkpt>
      <trkpt lat="43.20883" lon="2.33033">
        <ele>111.9</ele>
        <time>2019-07-14T06:11:38.000Z</time>
      </trkpt>
      <trkpt lat="43.20886" lon="2.33033">
        <ele>111.9</ele>
        <time>2019-07-14T06:11:39.000Z</time>
      </trkpt>
      <trkpt lat="43.20888" lon="2.33033">
        <ele>111.9</ele>
        <time>2019-07-14T06:11:40.000Z</time>
      </trkpt>
      <trkpt lat="43.20891" lon="2.33033">
        <ele>111.9</ele>
        <time>2019-07-14T06:11:41.000Z</time>
      </trkpt>
      <trkpt lat="43.20894" lon="2.33034">
        <ele>111.9</ele>
        <time>2019-07-14T06:11:42.000Z</time>
      </trkpt>
      <trkpt lat="43.20896" lon="2.33034">
        <ele>111.9</ele>
        <time>2019-07-14T06:11:43.000Z</time>
      </trkpt>
      <trkpt lat="43.20899" lon="2.33034">
        <ele>111.9</ele>
        <time>2019-07-14T06:11:44.000Z</time>
      </trkpt>
      <trkpt lat="43.20901" lon="2.33034">
        <ele>111.8</ele>
        <time>2019-07-14T06:11:45.000Z</time>
      </trkpt>
      <trkpt lat="43.20904" lon="2.33034">
        <ele>111.8</ele>
        <time>2019-07-14T06:11:46.000Z</time>
      </trkpt>
      <trkpt lat="43.20907" lon="2.33034">
        <ele>111.8</ele>
        <time>2019-07-14T06:11:47.000Z</time>
      </trkpt>
      <trkpt lat="43.20909" lon="2.33035">
        <ele>111.8</ele>
        <time>2019-07-14T06:11:48.000Z</time>
      </trkpt>
      <trkpt lat="43.20912" lon="2.33035">
        <ele>111.8</ele>
        <time>2019-07-14T06:11:49.000Z</time>
      </trkpt>
      <trkpt lat="43.20914" lon="2.33035">
        <ele>111.8</ele>
        <time>2019-07-14T06:11:50.000Z</time>
      </trkpt>
      <trkpt lat="43.20917" lon="2.33035">
        <ele>111.8</ele>
        <time>2019-07-14T06:11:51.000Z</time>
      </trkpt>
      <trkpt lat="43.2092" lon="2.33036">
        <ele>111.8</ele>
        <time>2019-07-14T06:11:52.000Z</time>
      </trkpt>
      <trkpt lat="43.20922" lon="2.33036">
        <ele>111.8</ele>
        <time>2019-07-14T06:11:53.000Z</time>
      </trkpt>
      <trkpt lat="43.20925" lon="2.33036">
        <ele>111.8</ele>
        <time>2019-07-14T06:11:54.000Z</time>
      </trkpt>
      <trkpt lat="43.20928" lon="2.33037">
        <ele>111.8</ele>
        <time>2019-07-14T06:11:55.000Z</time>
      </trkpt>
      <trkpt lat="43.2093" lon="2.33037">
        <ele>111.8</ele>
        <time>2019-07-14T06:11:56.000Z</time>
      </trkpt>
      <trkpt lat="43.20933" lon="2.33037">
        <ele>111.8</ele>
        <time>2019-07-14T06:11:57.000Z</time>
      </trkpt>
      <trkpt lat="43.20935" lon="2.33037">
        <ele>111.8</ele>
        <time>2019-07-14T06:11:58.000Z</time>
      </trkpt>
      <trkpt lat="43.20938" lon="2.33038">
        <ele>111.8</ele>
        <time>2019-07-14T06:11:59.000Z</time>
      </trkpt>
      <trkpt lat="43.20941" lon="2.33038">
        <ele>111.8</ele>
        <time>2019-07-14T06:12:00.000Z</time>
      </trkpt>
      <trkpt lat="43.20943" lon="2.33038">
        <ele>111.8</ele>
        <time>2019-07-14T06:12:01.000Z</time>
      </trkpt>
      <trkpt lat="43.20946" lon="2.33039">
        <ele>111.8</ele>
        <time>2019-07-14T06:12:02.000Z</time>
      </trkpt>
      <trkpt lat="43.20949" lon="2.33039">
        <ele>111.8</ele>
        <time>2019-07-14T06:12:03.000Z</time>
      </trkpt>
      <trkpt lat="43.20951" lon="2.33039">
        <ele>111.8</ele>
        <time>2019-07-14T06:12:04.000Z</time>
      </trkpt>
      <trkpt lat="43.20954" lon="2.3304">
        <ele>111.7</ele>
        <time>2019-07-14T06:12:05.000Z</time>
      </trkpt>
      <trkpt lat="43.20956" lon="2.3304">
        <ele>111.7</ele>
        <time>2019-07-14T06:12:06.000Z</time>
      </trkpt>
      <trkpt lat="43.20959" lon="2.33041">
        <ele>111.7</ele>
        <time>2019-07-14T06:12:07.000Z</time>
      </trkpt>
      <trkpt lat="43.20961" lon="2.33041">
        <ele>111.7</ele>
        <time>2019-07-14T06:12:08.000Z</time>
      </trkpt>
      <trkpt lat="43.20964" lon="2.33041">
        <ele>111.7</ele>
        <time>2019-07-14T06:12:09.000Z</time>
      </trkpt>
      <trkpt lat="43.20967" lon="2.33042">
        <ele>111.7</ele>
        <time>2019-07-14T06:12:10.000Z</time>
      </trkpt>
      <trkpt lat="43.20969" lon="2.33042">
        <ele>111.7</ele>
        <time>2019-07-14T06:12:11.000Z</time>
      </trkpt>
      <trkpt lat="43.20972" lon="2.33042">
        <ele>111.7</ele>
        <time>2019-07-14T06:12:12.000Z</time>
      </trkpt>
      <trkpt lat="43.20974" lon="2.33043">
        <ele>111.7</ele>
        <time>2019-07-14T06:12:13.000Z</time>
      </trkpt>
      <trkpt lat="43.20976" lon="2.33043">
        <ele>111.7</ele>
        <time>2019-07-14T06:12:14.000Z</time>
      </trkpt>
      <trkpt lat="43.20979" lon="2.33043">
        <ele>111.6</ele>
        <time>2019-07-14T06:12:15.000Z</time>
      </trkpt>
      <trkpt lat="43.20981" lon="2.33044">
        <ele>111.6</ele>
        <time>2019-07-14T06:12:16.000Z</time>
      </trkpt>
      <trkpt lat="43.20984" lon="2.33044">
        <ele>111.6</ele>
        <time>2019-07-14T06:12:17.000Z</time>
      </trkpt>
      <trkpt lat="43.20986" lon="2.33044">
        <ele>111.6</ele>
        <time>2019-07-14T06:12:18.000Z</time>
      </trkpt>
      <trkpt lat="43.20989" lon="2.33045">
        <ele>111.6</ele>
        <time>2019-07-14T06:12:19.000Z</time>
      </trkpt>
      <trkpt lat="43.20991" lon="2.33045">
        <ele>111.6</ele>
        <time>2019-07-14T06:12:20.000Z</time>
      </trkpt>
      <trkpt lat="43.20993" lon="2.33045">
        <ele>111.6</ele>
        <time>2019-07-14T06:12:21.000Z</time>
      </trkpt>
      <trkpt lat="43.20996" lon="2.33045">
        <ele>111.6</ele>
        <time>2019-07-14T06:12:22.000Z</time>
      </trkpt>
      <trkpt lat="43.20999" lon="2.33045">
        <ele>111.5</ele>
        <time>2019-07-14T06:12:23.000Z</time>
      </trkpt>
      <trkpt lat="43.21001" lon="2.33045">
        <ele>111.6</ele>
        <time>2019-07-14T06:12:24.000Z</time>
      </trkpt>
      <trkpt lat="43.21004" lon="2.33045">
        <ele>111.7</ele>
        <time>2019-07-14T06:12:25.000Z</time>
      </trkpt>
      <trkpt lat="43.21007" lon="2.33045">
        <ele>111.8</ele>
        <time>2019-07-14T06:12:26.000Z</time>
      </trkpt>
      <trkpt lat="43.21009" lon="2.33045">
        <ele>111.9</ele>
        <time>2019-07-14T06:12:27.000Z</time>
      </trkpt>
      <trkpt lat="43.21012" lon="2.33045">
        <ele>112</ele>
        <time>2019-07-14T06:12:28.000Z</time>
      </trkpt>
      <trkpt lat="43.21015" lon="2.33045">
        <ele>112.1</ele>
        <time>2019-07-14T06:12:29.000Z</time>
      </trkpt>
      <trkpt lat="43.21017" lon="2.33045">
        <ele>112.2</ele>
        <time>2019-07-14T06:12:30.000Z</time>
      </trkpt>
      <trkpt lat="43.2102" lon="2.33045">
        <ele>112.3</ele>
        <time>2019-07-14T06:12:31.000Z</time>
      </trkpt>
      <trkpt lat="43.21023" lon="2.33045">
        <ele>112.4</ele>
        <time>2019-07-14T06:12:32.000Z</time>
      </trkpt>
      <trkpt lat="43.21025" lon="2.33045">
        <ele>112.5</ele>
        <time>2019-07-14T06:12:33.000Z</time>
      </trkpt>
      <trkpt lat="43.21028" lon="2.33045">
        <ele>112.6</ele>
        <time>2019-07-14T06:12:34.000Z</time>
      </trkpt>
      <trkpt lat="43.21031" lon="2.33045">
        <ele>112.7</ele>
        <time>2019-07-14T06:12:35.000Z</time>
      </trkpt>
      <trkpt lat="43.21033" lon="2.33045">
        <ele>112.7</ele>
        <time>2019-07-14T06:12:36.000Z</time>
      </trkpt>
      <trkpt lat="43.21036" lon="2.33046">
        <ele>112.8</ele>
        <time>2019-07-14T06:12:37.000Z</time>
      </trkpt>
      <trkpt lat="43.21039" lon="2.33046">
        <ele>112.9</ele>
        <time>2019-07-14T06:12:38.000Z</time>
      </trkpt>
      <trkpt lat="43.21041" lon="2.33046">
        <ele>113</ele>
        <time>2019-07-14T06:12:39.000Z</time>
      </trkpt>
      <trkpt lat="43.21044" lon="2.33046">
        <ele>113.1</ele>
        <time>2019-07-14T06:12:40.000Z</time>
      </trkpt>
      <trkpt lat="43.21047" lon="2.33046">
        <ele>113.2</ele>
        <time>2019-07-14T06:12:41.000Z</time>
      </trkpt>
      <trkpt lat="43.21049" lon="2.33046">
        <ele>113.3</ele>
        <time>2019-07-14T06:12:42.000Z</time>
      </trkpt>
      <trkpt lat="43.21052" lon="2.33047">
        <ele>113.4</ele>
        <time>2019-07-14T06:12:43.000Z</time>
      </trkpt>
      <trkpt lat="43.21054" lon="2.33047">
        <ele>113.5</ele>
        <time>2019-07-14T06:12:44.000Z</time>
      </trkpt>
      <trkpt lat="43.21057" lon="2.33047">
        <ele>113.6</ele>
        <time>2019-07-14T06:12:45.000Z</time>
      </trkpt>
      <trkpt lat="43.21059" lon="2.33047">
        <ele>113.7</ele>
        <time>2019-07-14T06:12:46.000Z</time>
      </trkpt>
      <trkpt lat="43.21062" lon="2.33048">
        <ele>113.8</ele>
        <time>2019-07-14T06:12:47.000Z</time>
      </trkpt>
      <trkpt lat="43.21064" lon="2.33048">
        <ele>113.9</ele>
        <time>2019-07-14T06:12:48.000Z</time>
      </trkpt>
      <trkpt lat="43.21067" lon="2.33048">
        <ele>114</ele>
        <time>2019-07-14T06:12:49.000Z</time>
      </trkpt>
      <trkpt lat="43.21069" lon="2.33049">
        <ele>114.1</ele>
        <time>2019-07-14T06:12:50.000Z</time>
      </trkpt>
      <trkpt lat="43.21072" lon="2.33049">
        <ele>114.2</ele>
        <time>2019-07-14T06:12:51.000Z</time>
      </trkpt>
      <trkpt lat="43.21074" lon="2.33049">
        <ele>114.3</ele>
        <time>2019-07-14T06:12:52.000Z</time>
      </trkpt>
      <trkpt lat="43.21077" lon="2.3305">
        <ele>114.3</ele>
        <time>2019-07-14T06:12:53.000Z</time>
      </trkpt>
      <trkpt lat="43.21079" lon="2.3305">
        <ele>114.4</ele>
        <time>2019-07-14T06:12:54.000Z</time>
      </trkpt>
      <trkpt lat="43.21081" lon="2.3305">
        <ele>114.5</ele>
        <time>2019-07-14T06:12:55.000Z</time>
      </trkpt>
      <trkpt lat="43.21084" lon="2.3305">
        <ele>114.6</ele>
        <time>2019-07-14T06:12:56.000Z</time>
      </trkpt>
      <trkpt lat="43.21086" lon="2.33051">
        <ele>114.7</ele>
        <time>2019-07-14T06:12:57.000Z</time>
      </trkpt>
      <trkpt lat="43.21089" lon="2.33051">
        <ele>114.7</ele>
        <time>2019-07-14T06:12:58.000Z</time>
      </trkpt>
      <trkpt lat="43.21091" lon="2.33051">
        <ele>114.8</ele>
        <time>2019-07-14T06:12:59.000Z</time>
      </trkpt>
      <trkpt lat="43.21094" lon="2.33052">
        <ele>114.9</ele>
        <time>2019-07-14T06:13:00.000Z</time>
      </trkpt>
      <trkpt lat="43.21096" lon="2.33052">
        <ele>114.9</ele>
        <time>2019-07-14T06:13:01.000Z</time>
      </trkpt>
      <trkpt lat="43.21099" lon="2.33052">
        <ele>115</ele>
        <time>2019-07-14T06:13:02.000Z</time>
      </trkpt>
      <trkpt lat="43.21101" lon="2.33052">
        <ele>115.1</ele>
        <time>2019-07-14T06:13:03.000Z</time>
      </trkpt>
      <trkpt lat="43.21104" lon="2.33052">
        <ele>115.1</ele>
        <time>2019-07-14T06:13:04.000Z</time>
      </trkpt>
      <trkpt lat="43.21106" lon="2.33051">
        <ele>115.2</ele>
        <time>2019-07-14T06:13:05.000Z</time>
      </trkpt>
      <trkpt lat="43.21109" lon="2.33051">
        <ele>115.2</ele>
        <time>2019-07-14T06:13:06.000Z</time>
      </trkpt>
      <trkpt lat="43.21111" lon="2.33051">
        <ele>115.3</ele>
        <time>2019-07-14T06:13:07.000Z</time>
      </trkpt>
      <trkpt lat="43.21113" lon="2.33051">
        <ele>115.3</ele>
        <time>2019-07-14T06:13:08.000Z</time>
      </trkpt>
      <trkpt lat="43.21116" lon="2.3305">
        <ele>115.4</ele>
        <time>2019-07-14T06:13:09.000Z</time>
      </trkpt>
      <trkpt lat="43.21118" lon="2.3305">
        <ele>115.4</ele>
        <time>2019-07-14T06:13:10.000Z</time>
      </trkpt>
      <trkpt lat="43.2112" lon="2.3305">
        <ele>115.5</ele>
        <time>2019-07-14T06:13:11.000Z</time>
      </trkpt>
      <trkpt lat="43.21122" lon="2.3305">
        <ele>115.5</ele>
        <time>2019-07-14T06:13:12.000Z</time>
      </trkpt>
      <trkpt lat="43.21124" lon="2.3305">
        <ele>115.6</ele>
        <time>2019-07-14T06:13:13.000Z</time>
      </trkpt>
      <trkpt lat="43.21126" lon="2.33051">
        <ele>115.6</ele>
        <time>2019-07-14T06:13:14.000Z</time>
      </trkpt>
      <trkpt lat="43.21128" lon="2.33051">
        <ele>115.7</ele>
        <time>2019-07-14T06:13:15.000Z</time>
      </trkpt>
      <trkpt lat="43.2113" lon="2.33052">
        <ele>115.7</ele>
        <time>2019-07-14T06:13:16.000Z</time>
      </trkpt>
      <trkpt lat="43.21132" lon="2.33052">
        <ele>115.8</ele>
        <time>2019-07-14T06:13:17.000Z</time>
      </trkpt>
      <trkpt lat="43.21135" lon="2.33052">
        <ele>115.9</ele>
        <time>2019-07-14T06:13:18.000Z</time>
      </trkpt>
      <trkpt lat="43.21137" lon="2.33053">
        <ele>115.9</ele>
        <time>2019-07-14T06:13:19.000Z</time>
      </trkpt>
      <trkpt lat="43.21139" lon="2.33053">
        <ele>116</ele>
        <time>2019-07-14T06:13:20.000Z</time>
      </trkpt>
      <trkpt lat="43.21141" lon="2.33053">
        <ele>116</ele>
        <time>2019-07-14T06:13:21.000Z</time>
      </trkpt>
      <trkpt lat="43.21144" lon="2.33053">
        <ele>116.1</ele>
        <time>2019-07-14T06:13:22.000Z</time>
      </trkpt>
      <trkpt lat="43.21146" lon="2.33052">
        <ele>116.1</ele>
        <time>2019-07-14T06:13:23.000Z</time>
      </trkpt>
      <trkpt lat="43.21149" lon="2.33052">
        <ele>116.2</ele>
        <time>2019-07-14T06:13:24.000Z</time>
      </trkpt>
      <trkpt lat="43.21151" lon="2.33053">
        <ele>116.3</ele>
        <time>2019-07-14T06:13:25.000Z</time>
      </trkpt>
      <trkpt lat="43.21153" lon="2.33053">
        <ele>116.3</ele>
        <time>2019-07-14T06:13:26.000Z</time>
      </trkpt>
      <trkpt lat="43.21156" lon="2.33054">
        <ele>116.4</ele>
        <time>2019-07-14T06:13:27.000Z</time>
      </trkpt>
      <trkpt lat="43.21158" lon="2.33055">
        <ele>116.4</ele>
        <time>2019-07-14T06:13:28.000Z</time>
      </trkpt>
      <trkpt lat="43.2116" lon="2.33056">
        <ele>116.5</ele>
        <time>2019-07-14T06:13:29.000Z</time>
      </trkpt>
      <trkpt lat="43.21161" lon="2.33057">
        <ele>116.6</ele>
        <time>2019-07-14T06:13:30.000Z</time>
      </trkpt>
      <trkpt lat="43.21163" lon="2.33059">
        <ele>116.6</ele>
        <time>2019-07-14T06:13:31.000Z</time>
      </trkpt>
      <trkpt lat="43.21165" lon="2.3306">
        <ele>116.7</ele>
        <time>2019-07-14T06:13:32.000Z</time>
      </trkpt>
      <trkpt lat="43.21166" lon="2.33062">
        <ele>116.7</ele>
        <time>2019-07-14T06:13:33.000Z</time>
      </trkpt>
      <trkpt lat="43.21167" lon="2.33063">
        <ele>116.8</ele>
        <time>2019-07-14T06:13:34.000Z</time>
      </trkpt>
      <trkpt lat="43.21168" lon="2.33065">
        <ele>116.8</ele>
        <time>2019-07-14T06:13:35.000Z</time>
      </trkpt>
      <trkpt lat="43.21169" lon="2.33066">
        <ele>116.8</ele>
        <time>2019-07-14T06:13:36.000Z</time>
      </trkpt>
      <trkpt lat="43.2117" lon="2.33066">
        <ele>116.8</ele>
        <time>2019-07-14T06:13:37.000Z</time>
      </trkpt>
      <trkpt lat="43.21171" lon="2.33066">
        <ele>116.8</ele>
        <time>2019-07-14T06:13:38.000Z</time>
      </trkpt>
      <trkpt lat="43.21172" lon="2.33065">
        <ele>116.8</ele>
        <time>2019-07-14T06:13:39.000Z</time>
      </trkpt>
      <trkpt lat="43.21172" lon="2.33063">
        <ele>116.8</ele>
        <time>2019-07-14T06:13:40.000Z</time>
      </trkpt>
      <trkpt lat="43.21173" lon="2.3306">
        <ele>116.7</ele>
        <time>2019-07-14T06:13:41.000Z</time>
      </trkpt>
      <trkpt lat="43.21173" lon="2.33059">
        <ele>116.7</ele>
        <time>2019-07-14T06:13:42.000Z</time>
      </trkpt>
      <trkpt lat="43.21174" lon="2.33058">
        <ele>116.7</ele>
        <time>2019-07-14T06:13:43.000Z</time>
      </trkpt>
      <trkpt lat="43.21175" lon="2.33059">
        <ele>116.7</ele>
        <time>2019-07-14T06:13:44.000Z</time>
      </trkpt>
      <trkpt lat="43.21176" lon="2.33061">
        <ele>116.7</ele>
        <time>2019-07-14T06:13:45.000Z</time>
      </trkpt>
      <trkpt lat="43.21177" lon="2.33064">
        <ele>116.8</ele>
        <time>2019-07-14T06:13:46.000Z</time>
      </trkpt>
      <trkpt lat="43.21177" lon="2.33067">
        <ele>116.8</ele>
        <time>2019-07-14T06:13:47.000Z</time>
      </trkpt>
      <trkpt lat="43.21177" lon="2.33069">
        <ele>116.8</ele>
        <time>2019-07-14T06:13:48.000Z</time>
      </trkpt>
      <trkpt lat="43.21177" lon="2.3307">
        <ele>116.8</ele>
        <time>2019-07-14T06:13:49.000Z</time>
      </trkpt>
      <trkpt lat="43.21177" lon="2.33071">
        <ele>116.8</ele>
        <time>2019-07-14T06:13:50.000Z</time>
      </trkpt>
      <trkpt lat="43.21176" lon="2.33072">
        <ele>116.8</ele>
        <time>2019-07-14T06:13:51.000Z</time>
      </trkpt>
      <trkpt lat="43.21176" lon="2.33073">
        <ele>116.8</ele>
        <time>2019-07-14T06:13:52.000Z</time>
      </trkpt>
      <trkpt lat="43.21175" lon="2.33075">
        <ele>116.8</ele>
        <time>2019-07-14T06:13:53.000Z</time>
      </trkpt>
      <trkpt lat="43.21175" lon="2.33077">
        <ele>116.9</ele>
        <time>2019-07-14T06:13:54.000Z</time>
      </trkpt>
      <trkpt lat="43.21175" lon="2.33079">
        <ele>116.9</ele>
        <time>2019-07-14T06:13:55.000Z</time>
      </trkpt>
      <trkpt lat="43.21175" lon="2.33082">
        <ele>116.9</ele>
        <time>2019-07-14T06:13:56.000Z</time>
      </trkpt>
      <trkpt lat="43.21174" lon="2.33085">
        <ele>116.9</ele>
        <time>2019-07-14T06:13:57.000Z</time>
      </trkpt>
      <trkpt lat="43.21174" lon="2.33088">
        <ele>116.9</ele>
        <time>2019-07-14T06:13:58.000Z</time>
      </trkpt>
      <trkpt lat="43.21174" lon="2.33091">
        <ele>117</ele>
        <time>2019-07-14T06:13:59.000Z</time>
      </trkpt>
      <trkpt lat="43.21174" lon="2.33094">
        <ele>117</ele>
        <time>2019-07-14T06:14:00.000Z</time>
      </trkpt>
      <trkpt lat="43.21174" lon="2.33098">
        <ele>117</ele>
        <time>2019-07-14T06:14:01.000Z</time>
      </trkpt>
      <trkpt lat="43.21173" lon="2.33101">
        <ele>117.1</ele>
        <time>2019-07-14T06:14:02.000Z</time>
      </trkpt>
      <trkpt lat="43.21173" lon="2.33105">
        <ele>117.1</ele>
        <time>2019-07-14T06:14:03.000Z</time>
      </trkpt>
      <trkpt lat="43.21173" lon="2.33108">
        <ele>117.1</ele>
        <time>2019-07-14T06:14:04.000Z</time>
      </trkpt>
      <trkpt lat="43.21172" lon="2.33112">
        <ele>117.2</ele>
        <time>2019-07-14T06:14:05.000Z</time>
      </trkpt>
      <trkpt lat="43.21172" lon="2.33115">
        <ele>117.2</ele>
        <time>2019-07-14T06:14:06.000Z</time>
      </trkpt>
      <trkpt lat="43.21171" lon="2.33119">
        <ele>117.3</ele>
        <time>2019-07-14T06:14:07.000Z</time>
      </trkpt>
      <trkpt lat="43.2117" lon="2.33122">
        <ele>117.3</ele>
        <time>2019-07-14T06:14:08.000Z</time>
      </trkpt>
      <trkpt lat="43.2117" lon="2.33125">
        <ele>117.4</ele>
        <time>2019-07-14T06:14:09.000Z</time>
      </trkpt>
      <trkpt lat="43.21169" lon="2.33128">
        <ele>117.5</ele>
        <time>2019-07-14T06:14:10.000Z</time>
      </trkpt>
      <trkpt lat="43.21168" lon="2.33131">
        <ele>117.5</ele>
        <time>2019-07-14T06:14:11.000Z</time>
      </trkpt>
      <trkpt lat="43.21167" lon="2.33134">
        <ele>117.6</ele>
        <time>2019-07-14T06:14:12.000Z</time>
      </trkpt>
      <trkpt lat="43.21167" lon="2.33137">
        <ele>117.6</ele>
        <time>2019-07-14T06:14:13.000Z</time>
      </trkpt>
      <trkpt lat="43.21166" lon="2.3314">
        <ele>117.7</ele>
        <time>2019-07-14T06:14:14.000Z</time>
      </trkpt>
      <trkpt lat="43.21166" lon="2.33143">
        <ele>117.7</ele>
        <time>2019-07-14T06:14:15.000Z</time>
      </trkpt>
      <trkpt lat="43.21166" lon="2.33146">
        <ele>117.7</ele>
        <time>2019-07-14T06:14:16.000Z</time>
      </trkpt>
      <trkpt lat="43.21166" lon="2.33149">
        <ele>117.8</ele>
        <time>2019-07-14T06:14:17.000Z</time>
      </trkpt>
      <trkpt lat="43.21167" lon="2.33152">
        <ele>117.8</ele>
        <time>2019-07-14T06:14:18.000Z</time>
      </trkpt>
      <trkpt lat="43.21168" lon="2.33154">
        <ele>117.8</ele>
        <time>2019-07-14T06:14:19.000Z</time>
      </trkpt>
      <trkpt lat="43.2117" lon="2.33156">
        <ele>117.7</ele>
        <time>2019-07-14T06:14:20.000Z</time>
      </trkpt>
      <trkpt lat="43.21172" lon="2.33158">
        <ele>117.6</ele>
        <time>2019-07-14T06:14:21.000Z</time>
      </trkpt>
      <trkpt lat="43.21174" lon="2.33159">
        <ele>117.5</ele>
        <time>2019-07-14T06:14:22.000Z</time>
      </trkpt>
      <trkpt lat="43.21176" lon="2.33159">
        <ele>117.4</ele>
        <time>2019-07-14T06:14:23.000Z</time>
      </trkpt>
      <trkpt lat="43.21178" lon="2.33159">
        <ele>117.3</ele>
        <time>2019-07-14T06:14:24.000Z</time>
      </trkpt>
      <trkpt lat="43.2118" lon="2.33159">
        <ele>117.1</ele>
        <time>2019-07-14T06:14:25.000Z</time>
      </trkpt>
      <trkpt lat="43.21182" lon="2.33159">
        <ele>117</ele>
        <time>2019-07-14T06:14:26.000Z</time>
      </trkpt>
      <trkpt lat="43.21184" lon="2.33159">
        <ele>116.9</ele>
        <time>2019-07-14T06:14:27.000Z</time>
      </trkpt>
      <trkpt lat="43.21186" lon="2.33158">
        <ele>116.8</ele>
        <time>2019-07-14T06:14:28.000Z</time>
      </trkpt>
      <trkpt lat="43.21188" lon="2.33158">
        <ele>116.7</ele>
        <time>2019-07-14T06:14:29.000Z</time>
      </trkpt>
      <trkpt lat="43.21191" lon="2.33158">
        <ele>116.6</ele>
        <time>2019-07-14T06:14:30.000Z</time>
      </trkpt>
      <trkpt lat="43.21193" lon="2.33158">
        <ele>116.5</ele>
        <time>2019-07-14T06:14:31.000Z</time>
      </trkpt>
      <trkpt lat="43.21195" lon="2.33158">
        <ele>116.3</ele>
        <time>2019-07-14T06:14:32.000Z</time>
      </trkpt>
      <trkpt lat="43.21198" lon="2.33158">
        <ele>116.2</ele>
        <time>2019-07-14T06:14:33.000Z</time>
      </trkpt>
      <trkpt lat="43.21201" lon="2.33158">
        <ele>116</ele>
        <time>2019-07-14T06:14:34.000Z</time>
      </trkpt>
      <trkpt lat="43.21203" lon="2.33159">
        <ele>115.9</ele>
        <time>2019-07-14T06:14:35.000Z</time>
      </trkpt>
      <trkpt lat="43.21206" lon="2.33159">
        <ele>115.7</ele>
        <time>2019-07-14T06:14:36.000Z</time>
      </trkpt>
      <trkpt lat="43.21208" lon="2.3316">
        <ele>115.6</ele>
        <time>2019-07-14T06:14:37.000Z</time>
      </trkpt>
      <trkpt lat="43.21211" lon="2.33161">
        <ele>115.4</ele>
        <time>2019-07-14T06:14:38.000Z</time>
      </trkpt>
      <trkpt lat="43.21213" lon="2.33162">
        <ele>115.3</ele>
        <time>2019-07-14T06:14:39.000Z</time>
      </trkpt>
      <trkpt lat="43.21216" lon="2.33163">
        <ele>115.1</ele>
        <time>2019-07-14T06:14:40.000Z</time>
      </trkpt>
      <trkpt lat="43.21218" lon="2.33164">
        <ele>115</ele>
        <time>2019-07-14T06:14:41.000Z</time>
      </trkpt>
      <trkpt lat="43.2122" lon="2.33166">
        <ele>114.8</ele>
        <time>2019-07-14T06:14:42.000Z</time>
      </trkpt>
      <trkpt lat="43.21223" lon="2.33169">
        <ele>114.6</ele>
        <time>2019-07-14T06:14:43.000Z</time>
      </trkpt>
      <trkpt lat="43.21225" lon="2.33171">
        <ele>114.4</ele>
        <time>2019-07-14T06:14:44.000Z</time>
      </trkpt>
      <trkpt lat="43.21228" lon="2.33175">
        <ele>114.2</ele>
        <time>2019-07-14T06:14:45.000Z</time>
      </trkpt>
      <trkpt lat="43.2123" lon="2.33178">
        <ele>113.9</ele>
        <time>2019-07-14T06:14:46.000Z</time>
      </trkpt>
      <trkpt lat="43.21232" lon="2.33181">
        <ele>113.7</ele>
        <time>2019-07-14T06:14:47.000Z</time>
      </trkpt>
      <trkpt lat="43.21234" lon="2.33184">
        <ele>113.5</ele>
        <time>2019-07-14T06:14:48.000Z</time>
      </trkpt>
      <trkpt lat="43.21236" lon="2.33188">
        <ele>113.3</ele>
        <time>2019-07-14T06:14:49.000Z</time>
      </trkpt>
      <trkpt lat="43.21238" lon="2.33191">
        <ele>113.1</ele>
        <time>2019-07-14T06:14:50.000Z</time>
      </trkpt>
      <trkpt lat="43.2124" lon="2.33194">
        <ele>112.8</ele>
        <time>2019-07-14T06:14:51.000Z</time>
      </trkpt>
      <trkpt lat="43.21241" lon="2.33197">
        <ele>112.6</ele>
        <time>2019-07-14T06:14:52.000Z</time>
      </trkpt>
      <trkpt lat="43.21243" lon="2.33201">
        <ele>112.4</ele>
        <time>2019-07-14T06:14:53.000Z</time>
      </trkpt>
      <trkpt lat="43.21245" lon="2.33204">
        <ele>112.1</ele>
        <time>2019-07-14T06:14:54.000Z</time>
      </trkpt>
      <trkpt lat="43.21246" lon="2.33207">
        <ele>111.9</ele>
        <time>2019-07-14T06:14:55.000Z</time>
      </trkpt>
      <trkpt lat="43.21248" lon="2.3321">
        <ele>111.6</ele>
        <time>2019-07-14T06:14:56.000Z</time>
      </trkpt>
      <trkpt lat="43.2125" lon="2.33213">
        <ele>111.3</ele>
        <time>2019-07-14T06:14:57.000Z</time>
      </trkpt>
      <trkpt lat="43.21252" lon="2.33216">
        <ele>111.2</ele>
        <time>2019-07-14T06:14:58.000Z</time>
      </trkpt>
      <trkpt lat="43.21254" lon="2.33219">
        <ele>111</ele>
        <time>2019-07-14T06:14:59.000Z</time>
      </trkpt>
      <trkpt lat="43.21256" lon="2.33222">
        <ele>110.8</ele>
        <time>2019-07-14T06:15:00.000Z</time>
      </trkpt>
      <trkpt lat="43.21257" lon="2.33225">
        <ele>110.7</ele>
        <time>2019-07-14T06:15:01.000Z</time>
      </trkpt>
      <trkpt lat="43.21259" lon="2.33228">
        <ele>110.5</ele>
        <time>2019-07-14T06:15:02.000Z</time>
      </trkpt>
      <trkpt lat="43.21261" lon="2.33231">
        <ele>110.3</ele>
        <time>2019-07-14T06:15:03.000Z</time>
      </trkpt>
      <trkpt lat="43.21263" lon="2.33234">
        <ele>110.2</ele>
        <time>2019-07-14T06:15:04.000Z</time>
      </trkpt>
      <trkpt lat="43.21265" lon="2.33237">
        <ele>110</ele>
        <time>2019-07-14T06:15:05.000Z</time>
      </trkpt>
      <trkpt lat="43.21267" lon="2.3324">
        <ele>109.9</ele>
        <time>2019-07-14T06:15:06.000Z</time>
      </trkpt>
      <trkpt lat="43.21268" lon="2.33243">
        <ele>109.8</ele>
        <time>2019-07-14T06:15:07.000Z</time>
      </trkpt>
      <trkpt lat="43.2127" lon="2.33246">
        <ele>109.6</ele>
        <time>2019-07-14T06:15:08.000Z</time>
      </trkpt>
      <trkpt lat="43.21272" lon="2.33249">
        <ele>109.5</ele>
        <time>2019-07-14T06:15:09.000Z</time>
      </trkpt>
      <trkpt lat="43.21273" lon="2.33252">
        <ele>109.5</ele>
        <time>2019-07-14T06:15:10.000Z</time>
      </trkpt>
      <trkpt lat="43.21275" lon="2.33255">
        <ele>109.5</ele>
        <time>2019-07-14T06:15:11.000Z</time>
      </trkpt>
      <trkpt lat="43.21276" lon="2.33258">
        <ele>109.6</ele>
        <time>2019-07-14T06:15:12.000Z</time>
      </trkpt>
      <trkpt lat="43.21278" lon="2.33261">
        <ele>109.6</ele>
        <time>2019-07-14T06:15:13.000Z</time>
      </trkpt>
      <trkpt lat="43.21279" lon="2.33264">
        <ele>109.6</ele>
        <time>2019-07-14T06:15:14.000Z</time>
      </trkpt>
      <trkpt lat="43.21281" lon="2.33267">
        <ele>109.7</ele>
        <time>2019-07-14T06:15:15.000Z</time>
      </trkpt>
      <trkpt lat="43.21282" lon="2.33271">
        <ele>109.7</ele>
        <time>2019-07-14T06:15:16.000Z</time>
      </trkpt>
      <trkpt lat="43.21283" lon="2.33274">
        <ele>109.7</ele>
        <time>2019-07-14T06:15:17.000Z</time>
      </trkpt>
      <trkpt lat="43.21285" lon="2.33277">
        <ele>109.7</ele>
        <time>2019-07-14T06:15:18.000Z</time>
      </trkpt>
      <trkpt lat="43.21286" lon="2.3328">
        <ele>109.7</ele>
        <time>2019-07-14T06:15:19.000Z</time>
      </trkpt>
      <trkpt lat="43.21288" lon="2.33283">
        <ele>109.7</ele>
        <time>2019-07-14T06:15:20.000Z</time>
      </trkpt>
      <trkpt lat="43.21289" lon="2.33286">
        <ele>109.7</ele>
        <time>2019-07-14T06:15:21.000Z</time>
      </trkpt>
      <trkpt lat="43.2129" lon="2.33289">
        <ele>109.7</ele>
        <time>2019-07-14T06:15:22.000Z</time>
      </trkpt>
      <trkpt lat="43.21292" lon="2.33292">
        <ele>109.7</ele>
        <time>2019-07-14T06:15:23.000Z</time>
      </trkpt>
      <trkpt lat="43.21293" lon="2.33295">
        <ele>109.7</ele>
        <time>2019-07-14T06:15:24.000Z</time>
      </trkpt>
      <trkpt lat="43.21295" lon="2.33297">
        <ele>109.7</ele>
        <time>2019-07-14T06:15:25.000Z</time>
      </trkpt>
      <trkpt lat="43.21296" lon="2.333">
        <ele>109.7</ele>
        <time>2019-07-14T06:15:26.000Z</time>
      </trkpt>
      <trkpt lat="43.21298" lon="2.33303">
        <ele>109.7</ele>
        <time>2019-07-14T06:15:27.000Z</time>
      </trkpt>
      <trkpt lat="43.21299" lon="2.33306">
        <ele>109.6</ele>
        <time>2019-07-14T06:15:28.000Z</time>
      </trkpt>
      <trkpt lat="43.21301" lon="2.33309">
        <ele>109.6</ele>
        <time>2019-07-14T06:15:29.000Z</time>
      </trkpt>
      <trkpt lat="43.21302" lon="2.33312">
        <ele>109.6</ele>
        <time>2019-07-14T06:15:30.000Z</time>
      </trkpt>
      <trkpt lat="43.21303" lon="2.33316">
        <ele>109.6</ele>
        <time>2019-07-14T06:15:31.000Z</time>
      </trkpt>
      <trkpt lat="43.21305" lon="2.33319">
        <ele>109.5</ele>
        <time>2019-07-14T06:15:32.000Z</time>
      </trkpt>
      <trkpt lat="43.21306" lon="2.33322">
        <ele>109.5</ele>
        <time>2019-07-14T06:15:33.000Z</time>
      </trkpt>
      <trkpt lat="43.21307" lon="2.33326">
        <ele>109.5</ele>
        <time>2019-07-14T06:15:34.000Z</time>
      </trkpt>
      <trkpt lat="43.21308" lon="2.33329">
        <ele>109.5</ele>
        <time>2019-07-14T06:15:35.000Z</time>
      </trkpt>
      <trkpt lat="43.21309" lon="2.33333">
        <ele>109.5</ele>
        <time>2019-07-14T06:15:36.000Z</time>
      </trkpt>
      <trkpt lat="43.2131" lon="2.33337">
        <ele>109.5</ele>
        <time>2019-07-14T06:15:37.000Z</time>
      </trkpt>
      <trkpt lat="43.2131" lon="2.33341">
        <ele>109.4</ele>
        <time>2019-07-14T06:15:38.000Z</time>
      </trkpt>
      <trkpt lat="43.21311" lon="2.33345">
        <ele>109.4</ele>
        <time>2019-07-14T06:15:39.000Z</time>
      </trkpt>
      <trkpt lat="43.21312" lon="2.33349">
        <ele>109.4</ele>
        <time>2019-07-14T06:15:40.000Z</time>
      </trkpt>
      <trkpt lat="43.21312" lon="2.33352">
        <ele>109.4</ele>
        <time>2019-07-14T06:15:41.000Z</time>
      </trkpt>
      <trkpt lat="43.21313" lon="2.33356">
        <ele>109.5</ele>
        <time>2019-07-14T06:15:42.000Z</time>
      </trkpt>
      <trkpt lat="43.21313" lon="2.3336">
        <ele>109.5</ele>
        <time>2019-07-14T06:15:43.000Z</time>
      </trkpt>
      <trkpt lat="43.21313" lon="2.33364">
        <ele>109.5</ele>
        <time>2019-07-14T06:15:44.000Z</time>
      </trkpt>
      <trkpt lat="43.21313" lon="2.33368">
        <ele>109.5</ele>
        <time>2019-07-14T06:15:45.000Z</time>
      </trkpt>
      <trkpt lat="43.21313" lon="2.33372">
        <ele>109.6</ele>
        <time>2019-07-14T06:15:46.000Z</time>
      </trkpt>
      <trkpt lat="43.21313" lon="2.33376">
        <ele>109.6</ele>
        <time>2019-07-14T06:15:47.000Z</time>
      </trkpt>
      <trkpt lat="43.21312" lon="2.33379">
        <ele>109.7</ele>
        <time>2019-07-14T06:15:48.000Z</time>
      </trkpt>
      <trkpt lat="43.21312" lon="2.33383">
        <ele>109.7</ele>
        <time>2019-07-14T06:15:49.000Z</time>
      </trkpt>
      <trkpt lat="43.21311" lon="2.33387">
        <ele>109.8</ele>
        <time>2019-07-14T06:15:50.000Z</time>
      </trkpt>
      <trkpt lat="43.21311" lon="2.3339">
        <ele>109.9</ele>
        <time>2019-07-14T06:15:51.000Z</time>
      </trkpt>
      <trkpt lat="43.2131" lon="2.33394">
        <ele>109.9</ele>
        <time>2019-07-14T06:15:52.000Z</time>
      </trkpt>
      <trkpt lat="43.21309" lon="2.33398">
        <ele>110</ele>
        <time>2019-07-14T06:15:53.000Z</time>
      </trkpt>
      <trkpt lat="43.21308" lon="2.33401">
        <ele>110.1</ele>
        <time>2019-07-14T06:15:54.000Z</time>
      </trkpt>
      <trkpt lat="43.21307" lon="2.33405">
        <ele>110.1</ele>
        <time>2019-07-14T06:15:55.000Z</time>
      </trkpt>
      <trkpt lat="43.21306" lon="2.33408">
        <ele>110.2</ele>
        <time>2019-07-14T06:15:56.000Z</time>
      </trkpt>
      <trkpt lat="43.21305" lon="2.33412">
        <ele>110.3</ele>
        <time>2019-07-14T06:15:57.000Z</time>
      </trkpt>
      <trkpt lat="43.21304" lon="2.33415">
        <ele>110.4</ele>
        <time>2019-07-14T06:15:58.000Z</time>
      </trkpt>
      <trkpt lat="43.21303" lon="2.33418">
        <ele>110.5</ele>
        <time>2019-07-14T06:15:59.000Z</time>
      </trkpt>
      <trkpt lat="43.21302" lon="2.33422">
        <ele>110.5</ele>
        <time>2019-07-14T06:16:00.000Z</time>
      </trkpt>
      <trkpt lat="43.21301" lon="2.33425">
        <ele>110.6</ele>
        <time>2019-07-14T06:16:01.000Z</time>
      </trkpt>
      <trkpt lat="43.21299" lon="2.33428">
        <ele>110.7</ele>
        <time>2019-07-14T06:16:02.000Z</time>
      </trkpt>
      <trkpt lat="43.21298" lon="2.33431">
        <ele>110.7</ele>
        <time>2019-07-14T06:16:03.000Z</time>
      </trkpt>
      <trkpt lat="43.21297" lon="2.33434">
        <ele>110.8</ele>
        <time>2019-07-14T06:16:04.000Z</time>
      </trkpt>
      <trkpt lat="43.21295" lon="2.33438">
        <ele>110.8</ele>
        <time>2019-07-14T06:16:05.000Z</time>
      </trkpt>
      <trkpt lat="43.21294" lon="2.33441">
        <ele>110.9</ele>
        <time>2019-07-14T06:16:06.000Z</time>
      </trkpt>
      <trkpt lat="43.21293" lon="2.33444">
        <ele>111</ele>
        <time>2019-07-14T06:16:07.000Z</time>
      </trkpt>
      <trkpt lat="43.21292" lon="2.33447">
        <ele>111</ele>
        <time>2019-07-14T06:16:08.000Z</time>
      </trkpt>
      <trkpt lat="43.2129" lon="2.3345">
        <ele>111.1</ele>
        <time>2019-07-14T06:16:09.000Z</time>
      </trkpt>
      <trkpt lat="43.21289" lon="2.33453">
        <ele>111.1</ele>
        <time>2019-07-14T06:16:10.000Z</time>
      </trkpt>
      <trkpt lat="43.21288" lon="2.33456">
        <ele>111.1</ele>
        <time>2019-07-14T06:16:11.000Z</time>
      </trkpt>
      <trkpt lat="43.21287" lon="2.33459">
        <ele>111.2</ele>
        <time>2019-07-14T06:16:12.000Z</time>
      </trkpt>
      <trkpt lat="43.21286" lon="2.33462">
        <ele>111.2</ele>
        <time>2019-07-14T06:16:13.000Z</time>
      </trkpt>
      <trkpt lat="43.21285" lon="2.33466">
        <ele>111.2</ele>
        <time>2019-07-14T06:16:14.000Z</time>
      </trkpt>
      <trkpt lat="43.21284" lon="2.33469">
        <ele>111.3</ele>
        <time>2019-07-14T06:16:15.000Z</time>
      </trkpt>
      <trkpt lat="43.21283" lon="2.33472">
        <ele>111.3</ele>
        <time>2019-07-14T06:16:16.000Z</time>
      </trkpt>
      <trkpt lat="43.21282" lon="2.33475">
        <ele>111.3</ele>
        <time>2019-07-14T06:16:17.000Z</time>
      </trkpt>
      <trkpt lat="43.21281" lon="2.33478">
        <ele>111.3</ele>
        <time>2019-07-14T06:16:18.000Z</time>
      </trkpt>
      <trkpt lat="43.2128" lon="2.33481">
        <ele>111.3</ele>
        <time>2019-07-14T06:16:19.000Z</time>
      </trkpt>
      <trkpt lat="43.2128" lon="2.33484">
        <ele>111.3</ele>
        <time>2019-07-14T06:16:20.000Z</time>
      </trkpt>
      <trkpt lat="43.21279" lon="2.33488">
        <ele>111.4</ele>
        <time>2019-07-14T06:16:21.000Z</time>
      </trkpt>
      <trkpt lat="43.21278" lon="2.33491">
        <ele>111.4</ele>
        <time>2019-07-14T06:16:22.000Z</time>
      </trkpt>
      <trkpt lat="43.21277" lon="2.33494">
        <ele>111.4</ele>
        <time>2019-07-14T06:16:23.000Z</time>
      </trkpt>
      <trkpt lat="43.21277" lon="2.33497">
        <ele>111.4</ele>
        <time>2019-07-14T06:16:24.000Z</time>
      </trkpt>
      <trkpt lat="43.21276" lon="2.335">
        <ele>111.4</ele>
        <time>2019-07-14T06:16:25.000Z</time>
      </trkpt>
      <trkpt lat="43.21275" lon="2.33503">
        <ele>111.5</ele>
        <time>2019-07-14T06:16:26.000Z</time>
      </trkpt>
      <trkpt lat="43.21274" lon="2.33506">
        <ele>111.6</ele>
        <time>2019-07-14T06:16:27.000Z</time>
      </trkpt>
      <trkpt lat="43.21273" lon="2.33509">
        <ele>111.7</ele>
        <time>2019-07-14T06:16:28.000Z</time>
      </trkpt>
      <trkpt lat="43.21273" lon="2.33513">
        <ele>111.8</ele>
        <time>2019-07-14T06:16:29.000Z</time>
      </trkpt>
      <trkpt lat="43.21272" lon="2.33516">
        <ele>111.9</ele>
        <time>2019-07-14T06:16:30.000Z</time>
      </trkpt>
      <trkpt lat="43.21271" lon="2.33519">
        <ele>111.9</ele>
        <time>2019-07-14T06:16:31.000Z</time>
      </trkpt>
      <trkpt lat="43.2127" lon="2.33522">
        <ele>112</ele>
        <time>2019-07-14T06:16:32.000Z</time>
      </trkpt>
      <trkpt lat="43.21269" lon="2.33525">
        <ele>112.1</ele>
        <time>2019-07-14T06:16:33.000Z</time>
      </trkpt>
      <trkpt lat="43.21268" lon="2.33528">
        <ele>112.2</ele>
        <time>2019-07-14T06:16:34.000Z</time>
      </trkpt>
      <trkpt lat="43.21267" lon="2.33531">
        <ele>112.3</ele>
        <time>2019-07-14T06:16:35.000Z</time>
      </trkpt>
      <trkpt lat="43.21266" lon="2.33534">
        <ele>112.4</ele>
        <time>2019-07-14T06:16:36.000Z</time>
      </trkpt>
      <trkpt lat="43.21265" lon="2.33537">
        <ele>112.5</ele>
        <time>2019-07-14T06:16:37.000Z</time>
      </trkpt>
      <trkpt lat="43.21265" lon="2.3354">
        <ele>112.6</ele>
        <time>2019-07-14T06:16:38.000Z</time>
      </trkpt>
      <trkpt lat="43.21264" lon="2.33543">
        <ele>112.7</ele>
        <time>2019-07-14T06:16:39.000Z</time>
      </trkpt>
      <trkpt lat="43.21263" lon="2.33546">
        <ele>112.8</ele>
        <time>2019-07-14T06:16:40.000Z</time>
      </trkpt>
      <trkpt lat="43.21263" lon="2.33549">
        <ele>112.9</ele>
        <time>2019-07-14T06:16:41.000Z</time>
      </trkpt>
      <trkpt lat="43.21262" lon="2.33552">
        <ele>113</ele>
        <time>2019-07-14T06:16:42.000Z</time>
      </trkpt>
      <trkpt lat="43.21262" lon="2.33555">
        <ele>113</ele>
        <time>2019-07-14T06:16:43.000Z</time>
      </trkpt>
      <trkpt lat="43.21262" lon="2.33557">
        <ele>113.1</ele>
        <time>2019-07-14T06:16:44.000Z</time>
      </trkpt>
      <trkpt lat="43.21263" lon="2.3356">
        <ele>113.1</ele>
        <time>2019-07-14T06:16:45.000Z</time>
      </trkpt>
      <trkpt lat="43.21263" lon="2.33562">
        <ele>113.2</ele>
        <time>2019-07-14T06:16:46.000Z</time>
      </trkpt>
      <trkpt lat="43.21264" lon="2.33565">
        <ele>113.2</ele>
        <time>2019-07-14T06:16:47.000Z</time>
      </trkpt>
      <trkpt lat="43.21265" lon="2.33567">
        <ele>113.2</ele>
        <time>2019-07-14T06:16:48.000Z</time>
      </trkpt>
      <trkpt lat="43.21267" lon="2.33569">
        <ele>113.3</ele>
        <time>2019-07-14T06:16:49.000Z</time>
      </trkpt>
      <trkpt lat="43.21269" lon="2.33571">
        <ele>113.3</ele>
        <time>2019-07-14T06:16:50.000Z</time>
      </trkpt>
      <trkpt lat="43.21271" lon="2.33573">
        <ele>113.3</ele>
        <time>2019-07-14T06:16:51.000Z</time>
      </trkpt>
      <trkpt lat="43.21273" lon="2.33574">
        <ele>113.2</ele>
        <time>2019-07-14T06:16:52.000Z</time>
      </trkpt>
      <trkpt lat="43.21275" lon="2.33575">
        <ele>113.2</ele>
        <time>2019-07-14T06:16:53.000Z</time>
      </trkpt>
      <trkpt lat="43.21278" lon="2.33576">
        <ele>113.2</ele>
        <time>2019-07-14T06:16:54.000Z</time>
      </trkpt>
      <trkpt lat="43.2128" lon="2.33577">
        <ele>113.1</ele>
        <time>2019-07-14T06:16:55.000Z</time>
      </trkpt>
      <trkpt lat="43.21283" lon="2.33578">
        <ele>113.1</ele>
        <time>2019-07-14T06:16:56.000Z</time>
      </trkpt>
      <trkpt lat="43.21285" lon="2.33579">
        <ele>113</ele>
        <time>2019-07-14T06:16:57.000Z</time>
      </trkpt>
      <trkpt lat="43.21288" lon="2.3358">
        <ele>113</ele>
        <time>2019-07-14T06:16:58.000Z</time>
      </trkpt>
      <trkpt lat="43.2129" lon="2.33581">
        <ele>113</ele>
        <time>2019-07-14T06:16:59.000Z</time>
      </trkpt>
      <trkpt lat="43.21293" lon="2.33583">
        <ele>113</ele>
        <time>2019-07-14T06:17:00.000Z</time>
      </trkpt>
      <trkpt lat="43.21295" lon="2.33584">
        <ele>112.9</ele>
        <time>2019-07-14T06:17:01.000Z</time>
      </trkpt>
      <trkpt lat="43.21297" lon="2.33586">
        <ele>112.9</ele>
        <time>2019-07-14T06:17:02.000Z</time>
      </trkpt>
      <trkpt lat="43.21299" lon="2.33587">
        <ele>112.8</ele>
        <time>2019-07-14T06:17:03.000Z</time>
      </trkpt>
      <trkpt lat="43.21301" lon="2.33589">
        <ele>112.7</ele>
        <time>2019-07-14T06:17:04.000Z</time>
      </trkpt>
      <trkpt lat="43.21304" lon="2.33591">
        <ele>112.7</ele>
        <time>2019-07-14T06:17:05.000Z</time>
      </trkpt>
      <trkpt lat="43.21306" lon="2.33592">
        <ele>112.6</ele>
        <time>2019-07-14T06:17:06.000Z</time>
      </trkpt>
      <trkpt lat="43.21308" lon="2.33594">
        <ele>112.6</ele>
        <time>2019-07-14T06:17:07.000Z</time>
      </trkpt>
      <trkpt lat="43.21311" lon="2.33595">
        <ele>112.5</ele>
        <time>2019-07-14T06:17:08.000Z</time>
      </trkpt>
      <trkpt lat="43.21313" lon="2.33597">
        <ele>112.4</ele>
        <time>2019-07-14T06:17:09.000Z</time>
      </trkpt>
      <trkpt lat="43.21316" lon="2.33598">
        <ele>112.4</ele>
        <time>2019-07-14T06:17:10.000Z</time>
      </trkpt>
      <trkpt lat="43.21318" lon="2.336">
        <ele>112.3</ele>
        <time>2019-07-14T06:17:11.000Z</time>
      </trkpt>
      <trkpt lat="43.21321" lon="2.33601">
        <ele>112.3</ele>
        <time>2019-07-14T06:17:12.000Z</time>
      </trkpt>
      <trkpt lat="43.21323" lon="2.33602">
        <ele>112.2</ele>
        <time>2019-07-14T06:17:13.000Z</time>
      </trkpt>
      <trkpt lat="43.21325" lon="2.33604">
        <ele>112.2</ele>
        <time>2019-07-14T06:17:14.000Z</time>
      </trkpt>
      <trkpt lat="43.21328" lon="2.33605">
        <ele>112.1</ele>
        <time>2019-07-14T06:17:15.000Z</time>
      </trkpt>
      <trkpt lat="43.2133" lon="2.33606">
        <ele>112.1</ele>
        <time>2019-07-14T06:17:16.000Z</time>
      </trkpt>
      <trkpt lat="43.21332" lon="2.33608">
        <ele>112</ele>
        <time>2019-07-14T06:17:17.000Z</time>
      </trkpt>
      <trkpt lat="43.21334" lon="2.33609">
        <ele>112</ele>
        <time>2019-07-14T06:17:18.000Z</time>
      </trkpt>
      <trkpt lat="43.21336" lon="2.33611">
        <ele>111.9</ele>
        <time>2019-07-14T06:17:19.000Z</time>
      </trkpt>
      <trkpt lat="43.21338" lon="2.33612">
        <ele>111.8</ele>
        <time>2019-07-14T06:17:20.000Z</time>
      </trkpt>
      <trkpt lat="43.21341" lon="2.33614">
        <ele>111.7</ele>
        <time>2019-07-14T06:17:21.000Z</time>
      </trkpt>
      <trkpt lat="43.21343" lon="2.33615">
        <ele>111.6</ele>
        <time>2019-07-14T06:17:22.000Z</time>
      </trkpt>
      <trkpt lat="43.21346" lon="2.33617">
        <ele>111.5</ele>
        <time>2019-07-14T06:17:23.000Z</time>
      </trkpt>
      <trkpt lat="43.21348" lon="2.33619">
        <ele>111.4</ele>
        <time>2019-07-14T06:17:24.000Z</time>
      </trkpt>
      <trkpt lat="43.21351" lon="2.33621">
        <ele>111.3</ele>
        <time>2019-07-14T06:17:25.000Z</time>
      </trkpt>
      <trkpt lat="43.21353" lon="2.33622">
        <ele>111.3</ele>
        <time>2019-07-14T06:17:26.000Z</time>
      </trkpt>
      <trkpt lat="43.21356" lon="2.33624">
        <ele>111.2</ele>
        <time>2019-07-14T06:17:27.000Z</time>
      </trkpt>
      <trkpt lat="43.21358" lon="2.33625">
        <ele>111.1</ele>
        <time>2019-07-14T06:17:28.000Z</time>
      </trkpt>
      <trkpt lat="43.2136" lon="2.33626">
        <ele>111.1</ele>
        <time>2019-07-14T06:17:29.000Z</time>
      </trkpt>
      <trkpt lat="43.21362" lon="2.33627">
        <ele>111</ele>
        <time>2019-07-14T06:17:30.000Z</time>
      </trkpt>
      <trkpt lat="43.21364" lon="2.33628">
        <ele>110.9</ele>
        <time>2019-07-14T06:17:31.000Z</time>
      </trkpt>
      <trkpt lat="43.21367" lon="2.3363">
        <ele>110.8</ele>
        <time>2019-07-14T06:17:32.000Z</time>
      </trkpt>
      <trkpt lat="43.21369" lon="2.33631">
        <ele>110.8</ele>
        <time>2019-07-14T06:17:33.000Z</time>
      </trkpt>
      <trkpt lat="43.21371" lon="2.33632">
        <ele>110.7</ele>
        <time>2019-07-14T06:17:34.000Z</time>
      </trkpt>
      <trkpt lat="43.21374" lon="2.33634">
        <ele>110.6</ele>
        <time>2019-07-14T06:17:35.000Z</time>
      </trkpt>
      <trkpt lat="43.21376" lon="2.33635">
        <ele>110.6</ele>
        <time>2019-07-14T06:17:36.000Z</time>
      </trkpt>
      <trkpt lat="43.21379" lon="2.33637">
        <ele>110.5</ele>
        <time>2019-07-14T06:17:37.000Z</time>
      </trkpt>
      <trkpt lat="43.21381" lon="2.33638">
        <ele>110.5</ele>
        <time>2019-07-14T06:17:38.000Z</time>
      </trkpt>
      <trkpt lat="43.21384" lon="2.3364">
        <ele>110.4</ele>
        <time>2019-07-14T06:17:39.000Z</time>
      </trkpt>
      <trkpt lat="43.21386" lon="2.33641">
        <ele>110.3</ele>
        <time>2019-07-14T06:17:40.000Z</time>
      </trkpt>
      <trkpt lat="43.21389" lon="2.33643">
        <ele>110.3</ele>
        <time>2019-07-14T06:17:41.000Z</time>
      </trkpt>
      <trkpt lat="43.21391" lon="2.33644">
        <ele>110.2</ele>
        <time>2019-07-14T06:17:42.000Z</time>
      </trkpt>
      <trkpt lat="43.21394" lon="2.33646">
        <ele>110.2</ele>
        <time>2019-07-14T06:17:43.000Z</time>
      </trkpt>
      <trkpt lat="43.21396" lon="2.33647">
        <ele>110.1</ele>
        <time>2019-07-14T06:17:44.000Z</time>
      </trkpt>
      <trkpt lat="43.21399" lon="2.33649">
        <ele>110.1</ele>
        <time>2019-07-14T06:17:45.000Z</time>
      </trkpt>
      <trkpt lat="43.21402" lon="2.3365">
        <ele>110</ele>
        <time>2019-07-14T06:17:46.000Z</time>
      </trkpt>
      <trkpt lat="43.21405" lon="2.33652">
        <ele>110</ele>
        <time>2019-07-14T06:17:47.000Z</time>
      </trkpt>
      <trkpt lat="43.21408" lon="2.33654">
        <ele>109.9</ele>
        <time>2019-07-14T06:17:48.000Z</time>
      </trkpt>
      <trkpt lat="43.2141" lon="2.33655">
        <ele>109.9</ele>
        <time>2019-07-14T06:17:49.000Z</time>
      </trkpt>
      <trkpt lat="43.21413" lon="2.33657">
        <ele>109.9</ele>
        <time>2019-07-14T06:17:50.000Z</time>
      </trkpt>
      <trkpt lat="43.21416" lon="2.33658">
        <ele>109.8</ele>
        <time>2019-07-14T06:17:51.000Z</time>
      </trkpt>
      <trkpt lat="43.21419" lon="2.3366">
        <ele>109.8</ele>
        <time>2019-07-14T06:17:52.000Z</time>
      </trkpt>
      <trkpt lat="43.21422" lon="2.33661">
        <ele>109.8</ele>
        <time>2019-07-14T06:17:53.000Z</time>
      </trkpt>
      <trkpt lat="43.21424" lon="2.33663">
        <ele>109.7</ele>
        <time>2019-07-14T06:17:54.000Z</time>
      </trkpt>
      <trkpt lat="43.21427" lon="2.33664">
        <ele>109.7</ele>
        <time>2019-07-14T06:17:55.000Z</time>
      </trkpt>
      <trkpt lat="43.21429" lon="2.33665">
        <ele>109.7</ele>
        <time>2019-07-14T06:17:56.000Z</time>
      </trkpt>
      <trkpt lat="43.21431" lon="2.33667">
        <ele>109.6</ele>
        <time>2019-07-14T06:17:57.000Z</time>
      </trkpt>
      <trkpt lat="43.21434" lon="2.33668">
        <ele>109.6</ele>
        <time>2019-07-14T06:17:58.000Z</time>
      </trkpt>
      <trkpt lat="43.21436" lon="2.33669">
        <ele>109.6</ele>
        <time>2019-07-14T06:17:59.000Z</time>
      </trkpt>
      <trkpt lat="43.21438" lon="2.33671">
        <ele>109.5</ele>
        <time>2019-07-14T06:18:00.000Z</time>
      </trkpt>
      <trkpt lat="43.21441" lon="2.33672">
        <ele>109.5</ele>
        <time>2019-07-14T06:18:01.000Z</time>
      </trkpt>
      <trkpt lat="43.21443" lon="2.33674">
        <ele>109.5</ele>
        <time>2019-07-14T06:18:02.000Z</time>
      </trkpt>
      <trkpt lat="43.21445" lon="2.33675">
        <ele>109.4</ele>
        <time>2019-07-14T06:18:03.000Z</time>
      </trkpt>
      <trkpt lat="43.21448" lon="2.33677">
        <ele>109.4</ele>
        <time>2019-07-14T06:18:04.000Z</time>
      </trkpt>
      <trkpt lat="43.2145" lon="2.33678">
        <ele>109.4</ele>
        <time>2019-07-14T06:18:05.000Z</time>
      </trkpt>
      <trkpt lat="43.21453" lon="2.3368">
        <ele>109.3</ele>
        <time>2019-07-14T06:18:06.000Z</time>
      </trkpt>
      <trkpt lat="43.21455" lon="2.33681">
        <ele>109.3</ele>
        <time>2019-07-14T06:18:07.000Z</time>
      </trkpt>
      <trkpt lat="43.21458" lon="2.33683">
        <ele>109.3</ele>
        <time>2019-07-14T06:18:08.000Z</time>
      </trkpt>
      <trkpt lat="43.2146" lon="2.33684">
        <ele>109.3</ele>
        <time>2019-07-14T06:18:09.000Z</time>
      </trkpt>
      <trkpt lat="43.21463" lon="2.33686">
        <ele>109.3</ele>
        <time>2019-07-14T06:18:10.000Z</time>
      </trkpt>
      <trkpt lat="43.21465" lon="2.33687">
        <ele>109.3</ele>
        <time>2019-07-14T06:18:11.000Z</time>
      </trkpt>
      <trkpt lat="43.21468" lon="2.33689">
        <ele>109.3</ele>
        <time>2019-07-14T06:18:12.000Z</time>
      </trkpt>
      <trkpt lat="43.2147" lon="2.3369">
        <ele>109.3</ele>
        <time>2019-07-14T06:18:13.000Z</time>
      </trkpt>
      <trkpt lat="43.21473" lon="2.33691">
        <ele>109.2</ele>
        <time>2019-07-14T06:18:14.000Z</time>
      </trkpt>
      <trkpt lat="43.21476" lon="2.33693">
        <ele>109.3</ele>
        <time>2019-07-14T06:18:15.000Z</time>
      </trkpt>
      <trkpt lat="43.21478" lon="2.33694">
        <ele>109.2</ele>
        <time>2019-07-14T06:18:16.000Z</time>
      </trkpt>
      <trkpt lat="43.21481" lon="2.33695">
        <ele>109.3</ele>
        <time>2019-07-14T06:18:17.000Z</time>
      </trkpt>
      <trkpt lat="43.21483" lon="2.33697">
        <ele>109.3</ele>
        <time>2019-07-14T06:18:18.000Z</time>
      </trkpt>
      <trkpt lat="43.21486" lon="2.33698">
        <ele>109.3</ele>
        <time>2019-07-14T06:18:19.000Z</time>
      </trkpt>
      <trkpt lat="43.21489" lon="2.33699">
        <ele>109.3</ele>
        <time>2019-07-14T06:18:20.000Z</time>
      </trkpt>
      <trkpt lat="43.21491" lon="2.337">
        <ele>109.3</ele>
        <time>2019-07-14T06:18:21.000Z</time>
      </trkpt>
      <trkpt lat="43.21494" lon="2.33701">
        <ele>109.3</ele>
        <time>2019-07-14T06:18:22.000Z</time>
      </trkpt>
      <trkpt lat="43.21497" lon="2.33702">
        <ele>109.3</ele>
        <time>2019-07-14T06:18:23.000Z</time>
      </trkpt>
      <trkpt lat="43.21499" lon="2.33704">
        <ele>109.3</ele>
        <time>2019-07-14T06:18:24.000Z</time>
      </trkpt>
      <trkpt lat="43.21502" lon="2.33705">
        <ele>109.4</ele>
        <time>2019-07-14T06:18:25.000Z</time>
      </trkpt>
      <trkpt lat="43.21505" lon="2.33706">
        <ele>109.4</ele>
        <time>2019-07-14T06:18:26.000Z</time>
      </trkpt>
      <trkpt lat="43.21507" lon="2.33708">
        <ele>109.5</ele>
        <time>2019-07-14T06:18:27.000Z</time>
      </trkpt>
      <trkpt lat="43.2151" lon="2.3371">
        <ele>109.5</ele>
        <time>2019-07-14T06:18:28.000Z</time>
      </trkpt>
      <trkpt lat="43.21513" lon="2.33711">
        <ele>109.6</ele>
        <time>2019-07-14T06:18:29.000Z</time>
      </trkpt>
      <trkpt lat="43.21515" lon="2.33713">
        <ele>109.6</ele>
        <time>2019-07-14T06:18:30.000Z</time>
      </trkpt>
      <trkpt lat="43.21518" lon="2.33715">
        <ele>109.7</ele>
        <time>2019-07-14T06:18:31.000Z</time>
      </trkpt>
      <trkpt lat="43.21521" lon="2.33716">
        <ele>109.7</ele>
        <time>2019-07-14T06:18:32.000Z</time>
      </trkpt>
      <trkpt lat="43.21523" lon="2.33718">
        <ele>109.8</ele>
        <time>2019-07-14T06:18:33.000Z</time>
      </trkpt>
      <trkpt lat="43.21526" lon="2.33719">
        <ele>109.8</ele>
        <time>2019-07-14T06:18:34.000Z</time>
      </trkpt>
      <trkpt lat="43.21529" lon="2.33721">
        <ele>109.8</ele>
        <time>2019-07-14T06:18:35.000Z</time>
      </trkpt>
      <trkpt lat="43.21532" lon="2.33722">
        <ele>109.9</ele>
        <time>2019-07-14T06:18:36.000Z</time>
      </trkpt>
      <trkpt lat="43.21534" lon="2.33723">
        <ele>109.9</ele>
        <time>2019-07-14T06:18:37.000Z</time>
      </trkpt>
      <trkpt lat="43.21536" lon="2.33724">
        <ele>109.9</ele>
        <time>2019-07-14T06:18:38.000Z</time>
      </trkpt>
      <trkpt lat="43.21539" lon="2.33725">
        <ele>109.9</ele>
        <time>2019-07-14T06:18:39.000Z</time>
      </trkpt>
      <trkpt lat="43.21541" lon="2.33726">
        <ele>109.9</ele>
        <time>2019-07-14T06:18:40.000Z</time>
      </trkpt>
      <trkpt lat="43.21543" lon="2.33727">
        <ele>109.9</ele>
        <time>2019-07-14T06:18:41.000Z</time>
      </trkpt>
      <trkpt lat="43.21545" lon="2.33728">
        <ele>109.9</ele>
        <time>2019-07-14T06:18:42.000Z</time>
      </trkpt>
      <trkpt lat="43.21546" lon="2.33728">
        <ele>109.9</ele>
        <time>2019-07-14T06:18:43.000Z</time>
      </trkpt>
      <trkpt lat="43.21548" lon="2.33729">
        <ele>109.9</ele>
        <time>2019-07-14T06:18:44.000Z</time>
      </trkpt>
      <trkpt lat="43.21551" lon="2.33729">
        <ele>110</ele>
        <time>2019-07-14T06:18:45.000Z</time>
      </trkpt>
      <trkpt lat="43.21553" lon="2.3373">
        <ele>110</ele>
        <time>2019-07-14T06:18:46.000Z</time>
      </trkpt>
      <trkpt lat="43.21555" lon="2.33731">
        <ele>110</ele>
        <time>2019-07-14T06:18:47.000Z</time>
      </trkpt>
      <trkpt lat="43.21557" lon="2.33732">
        <ele>110</ele>
        <time>2019-07-14T06:18:48.000Z</time>
      </trkpt>
      <trkpt lat="43.21559" lon="2.33733">
        <ele>110</ele>
        <time>2019-07-14T06:18:49.000Z</time>
      </trkpt>
      <trkpt lat="43.21561" lon="2.33734">
        <ele>110</ele>
        <time>2019-07-14T06:18:50.000Z</time>
      </trkpt>
      <trkpt lat="43.21563" lon="2.33735">
        <ele>110</ele>
        <time>2019-07-14T06:18:51.000Z</time>
      </trkpt>
      <trkpt lat="43.21566" lon="2.33736">
        <ele>110</ele>
        <time>2019-07-14T06:18:52.000Z</time>
      </trkpt>
      <trkpt lat="43.21568" lon="2.33736">
        <ele>109.9</ele>
        <time>2019-07-14T06:18:53.000Z</time>
      </trkpt>
      <trkpt lat="43.21571" lon="2.33735">
        <ele>109.9</ele>
        <time>2019-07-14T06:18:54.000Z</time>
      </trkpt>
      <trkpt lat="43.21574" lon="2.33734">
        <ele>109.9</ele>
        <time>2019-07-14T06:18:55.000Z</time>
      </trkpt>
      <trkpt lat="43.21576" lon="2.33733">
        <ele>109.8</ele>
        <time>2019-07-14T06:18:56.000Z</time>
      </trkpt>
      <trkpt lat="43.21578" lon="2.33732">
        <ele>109.8</ele>
        <time>2019-07-14T06:18:57.000Z</time>
      </trkpt>
      <trkpt lat="43.21579" lon="2.33731">
        <ele>109.8</ele>
        <time>2019-07-14T06:18:58.000Z</time>
      </trkpt>
      <trkpt lat="43.21581" lon="2.3373">
        <ele>109.8</ele>
        <time>2019-07-14T06:18:59.000Z</time>
      </trkpt>
      <trkpt lat="43.21582" lon="2.33729">
        <ele>109.8</ele>
        <time>2019-07-14T06:19:00.000Z</time>
      </trkpt>
      <trkpt lat="43.21582" lon="2.33729">
        <ele>109.7</ele>
        <time>2019-07-14T06:19:01.000Z</time>
      </trkpt>
      <trkpt lat="43.21583" lon="2.33728">
        <ele>109.7</ele>
        <time>2019-07-14T06:19:02.000Z</time>
      </trkpt>
      <trkpt lat="43.21584" lon="2.33728">
        <ele>109.7</ele>
        <time>2019-07-14T06:19:03.000Z</time>
      </trkpt>
      <trkpt lat="43.21585" lon="2.33729">
        <ele>109.7</ele>
        <time>2019-07-14T06:19:04.000Z</time>
      </trkpt>
      <trkpt lat="43.21587" lon="2.33731">
        <ele>109.7</ele>
        <time>2019-07-14T06:19:05.000Z</time>
      </trkpt>
      <trkpt lat="43.21588" lon="2.33733">
        <ele>109.8</ele>
        <time>2019-07-14T06:19:06.000Z</time>
      </trkpt>
      <trkpt lat="43.2159" lon="2.33736">
        <ele>109.8</ele>
        <time>2019-07-14T06:19:07.000Z</time>
      </trkpt>
      <trkpt lat="43.21591" lon="2.33738">
        <ele>109.8</ele>
        <time>2019-07-14T06:19:08.000Z</time>
      </trkpt>
      <trkpt lat="43.21592" lon="2.3374">
        <ele>109.8</ele>
        <time>2019-07-14T06:19:09.000Z</time>
      </trkpt>
      <trkpt lat="43.21593" lon="2.33742">
        <ele>109.8</ele>
        <time>2019-07-14T06:19:10.000Z</time>
      </trkpt>
      <trkpt lat="43.21594" lon="2.33744">
        <ele>109.8</ele>
        <time>2019-07-14T06:19:11.000Z</time>
      </trkpt>
      <trkpt lat="43.21595" lon="2.33747">
        <ele>109.8</ele>
        <time>2019-07-14T06:19:12.000Z</time>
      </trkpt>
      <trkpt lat="43.21596" lon="2.33749">
        <ele>109.8</ele>
        <time>2019-07-14T06:19:13.000Z</time>
      </trkpt>
      <trkpt lat="43.21597" lon="2.33751">
        <ele>109.9</ele>
        <time>2019-07-14T06:19:14.000Z</time>
      </trkpt>
      <trkpt lat="43.21598" lon="2.33754">
        <ele>109.9</ele>
        <time>2019-07-14T06:19:15.000Z</time>
      </trkpt>
      <trkpt lat="43.21599" lon="2.33757">
        <ele>109.9</ele>
        <time>2019-07-14T06:19:16.000Z</time>
      </trkpt>
      <trkpt lat="43.216" lon="2.33759">
        <ele>109.9</ele>
        <time>2019-07-14T06:19:17.000Z</time>
      </trkpt>
      <trkpt lat="43.21601" lon="2.33762">
        <ele>110</ele>
        <time>2019-07-14T06:19:18.000Z</time>
      </trkpt>
      <trkpt lat="43.21602" lon="2.33764">
        <ele>110</ele>
        <time>2019-07-14T06:19:19.000Z</time>
      </trkpt>
      <trkpt lat="43.21602" lon="2.33766">
        <ele>110</ele>
        <time>2019-07-14T06:19:20.000Z</time>
      </trkpt>
      <trkpt lat="43.21602" lon="2.33768">
        <ele>110</ele>
        <time>2019-07-14T06:19:21.000Z</time>
      </trkpt>
      <trkpt lat="43.21602" lon="2.33769">
        <ele>110.1</ele>
        <time>2019-07-14T06:19:22.000Z</time>
      </trkpt>
      <trkpt lat="43.21602" lon="2.3377">
        <ele>110.1</ele>
        <time>2019-07-14T06:19:23.000Z</time>
      </trkpt>
      <trkpt lat="43.21603" lon="2.33769">
        <ele>110</ele>
        <time>2019-07-14T06:19:24.000Z</time>
      </trkpt>
      <trkpt lat="43.21604" lon="2.33767">
        <ele>110</ele>
        <time>2019-07-14T06:19:25.000Z</time>
      </trkpt>
      <trkpt lat="43.21606" lon="2.33765">
        <ele>109.9</ele>
        <time>2019-07-14T06:19:26.000Z</time>
      </trkpt>
      <trkpt lat="43.21608" lon="2.33762">
        <ele>109.9</ele>
        <time>2019-07-14T06:19:27.000Z</time>
      </trkpt>
      <trkpt lat="43.21609" lon="2.33759">
        <ele>109.8</ele>
        <time>2019-07-14T06:19:28.000Z</time>
      </trkpt>
      <trkpt lat="43.2161" lon="2.33756">
        <ele>109.8</ele>
        <time>2019-07-14T06:19:29.000Z</time>
      </trkpt>
      <trkpt lat="43.21611" lon="2.33754">
        <ele>109.7</ele>
        <time>2019-07-14T06:19:30.000Z</time>
      </trkpt>
      <trkpt lat="43.21612" lon="2.33751">
        <ele>109.7</ele>
        <time>2019-07-14T06:19:31.000Z</time>
      </trkpt>
      <trkpt lat="43.21613" lon="2.33748">
        <ele>109.6</ele>
        <time>2019-07-14T06:19:32.000Z</time>
      </trkpt>
      <trkpt lat="43.21614" lon="2.33746">
        <ele>109.6</ele>
        <time>2019-07-14T06:19:33.000Z</time>
      </trkpt>
      <trkpt lat="43.21615" lon="2.33744">
        <ele>109.6</ele>
        <time>2019-07-14T06:19:34.000Z</time>
      </trkpt>
      <trkpt lat="43.21616" lon="2.33741">
        <ele>109.5</ele>
        <time>2019-07-14T06:19:35.000Z</time>
      </trkpt>
      <trkpt lat="43.21618" lon="2.33739">
        <ele>109.5</ele>
        <time>2019-07-14T06:19:36.000Z</time>
      </trkpt>
      <trkpt lat="43.21619" lon="2.33738">
        <ele>109.5</ele>
        <time>2019-07-14T06:19:37.000Z</time>
      </trkpt>
      <trkpt lat="43.21621" lon="2.33736">
        <ele>109.5</ele>
        <time>2019-07-14T06:19:38.000Z</time>
      </trkpt>
      <trkpt lat="43.21622" lon="2.33734">
        <ele>109.4</ele>
        <time>2019-07-14T06:19:39.000Z</time>
      </trkpt>
      <trkpt lat="43.21624" lon="2.33733">
        <ele>109.4</ele>
        <time>2019-07-14T06:19:40.000Z</time>
      </trkpt>
      <trkpt lat="43.21626" lon="2.33732">
        <ele>109.4</ele>
        <time>2019-07-14T06:19:41.000Z</time>
      </trkpt>
      <trkpt lat="43.21627" lon="2.3373">
        <ele>109.4</ele>
        <time>2019-07-14T06:19:42.000Z</time>
      </trkpt>
      <trkpt lat="43.21628" lon="2.33729">
        <ele>109.3</ele>
        <time>2019-07-14T06:19:43.000Z</time>
      </trkpt>
      <trkpt lat="43.2163" lon="2.33728">
        <ele>109.3</ele>
        <time>2019-07-14T06:19:44.000Z</time>
      </trkpt>
      <trkpt lat="43.21631" lon="2.33726">
        <ele>109.3</ele>
        <time>2019-07-14T06:19:45.000Z</time>
      </trkpt>
      <trkpt lat="43.21632" lon="2.33725">
        <ele>109.3</ele>
        <time>2019-07-14T06:19:46.000Z</time>
      </trkpt>
      <trkpt lat="43.21633" lon="2.33724">
        <ele>109.3</ele>
        <time>2019-07-14T06:19:47.000Z</time>
      </trkpt>
      <trkpt lat="43.21634" lon="2.33723">
        <ele>109.3</ele>
        <time>2019-07-14T06:19:48.000Z</time>
      </trkpt>
      <trkpt lat="43.21636" lon="2.33722">
        <ele>109.2</ele>
        <time>2019-07-14T06:19:49.000Z</time>
      </trkpt>
      <trkpt lat="43.21637" lon="2.33721">
        <ele>109.2</ele>
        <time>2019-07-14T06:19:50.000Z</time>
      </trkpt>
      <trkpt lat="43.21639" lon="2.3372">
        <ele>109.2</ele>
        <time>2019-07-14T06:19:51.000Z</time>
      </trkpt>
      <trkpt lat="43.21641" lon="2.33719">
        <ele>109.2</ele>
        <time>2019-07-14T06:19:52.000Z</time>
      </trkpt>
      <trkpt lat="43.21642" lon="2.33718">
        <ele>109.2</ele>
        <time>2019-07-14T06:19:53.000Z</time>
      </trkpt>
      <trkpt lat="43.21644" lon="2.33717">
        <ele>109.2</ele>
        <time>2019-07-14T06:19:54.000Z</time>
      </trkpt>
      <trkpt lat="43.21646" lon="2.33716">
        <ele>109.1</ele>
        <time>2019-07-14T06:19:55.000Z</time>
      </trkpt>
      <trkpt lat="43.21648" lon="2.33715">
        <ele>109.1</ele>
        <time>2019-07-14T06:19:56.000Z</time>
      </trkpt>
      <trkpt lat="43.2165" lon="2.33713">
        <ele>109.1</ele>
        <time>2019-07-14T06:19:57.000Z</time>
      </trkpt>
      <trkpt lat="43.21652" lon="2.33712">
        <ele>109.1</ele>
        <time>2019-07-14T06:19:58.000Z</time>
      </trkpt>
      <trkpt lat="43.21654" lon="2.3371">
        <ele>109.1</ele>
        <time>2019-07-14T06:19:59.000Z</time>
      </trkpt>
      <trkpt lat="43.21655" lon="2.33708">
        <ele>109.1</ele>
        <time>2019-07-14T06:20:00.000Z</time>
      </trkpt>
      <trkpt lat="43.21657" lon="2.33706">
        <ele>109.1</ele>
        <time>2019-07-14T06:20:01.000Z</time>
      </trkpt>
      <trkpt lat="43.21659" lon="2.33704">
        <ele>109</ele>
        <time>2019-07-14T06:20:02.000Z</time>
      </trkpt>
      <trkpt lat="43.2166" lon="2.33702">
        <ele>109</ele>
        <time>2019-07-14T06:20:03.000Z</time>
      </trkpt>
      <trkpt lat="43.21662" lon="2.337">
        <ele>109</ele>
        <time>2019-07-14T06:20:04.000Z</time>
      </trkpt>
      <trkpt lat="43.21663" lon="2.33698">
        <ele>109</ele>
        <time>2019-07-14T06:20:05.000Z</time>
      </trkpt>
      <trkpt lat="43.21665" lon="2.33695">
        <ele>109</ele>
        <time>2019-07-14T06:20:06.000Z</time>
      </trkpt>
      <trkpt lat="43.21666" lon="2.33693">
        <ele>109</ele>
        <time>2019-07-14T06:20:07.000Z</time>
      </trkpt>
      <trkpt lat="43.21668" lon="2.33691">
        <ele>109</ele>
        <time>2019-07-14T06:20:08.000Z</time>
      </trkpt>
      <trkpt lat="43.21669" lon="2.33688">
        <ele>109</ele>
        <time>2019-07-14T06:20:09.000Z</time>
      </trkpt>
      <trkpt lat="43.2167" lon="2.33686">
        <ele>109</ele>
        <time>2019-07-14T06:20:10.000Z</time>
      </trkpt>
      <trkpt lat="43.21672" lon="2.33683">
        <ele>109</ele>
        <time>2019-07-14T06:20:11.000Z</time>
      </trkpt>
      <trkpt lat="43.21673" lon="2.33681">
        <ele>109</ele>
        <time>2019-07-14T06:20:12.000Z</time>
      </trkpt>
      <trkpt lat="43.21674" lon="2.33679">
        <ele>109</ele>
        <time>2019-07-14T06:20:13.000Z</time>
      </trkpt>
      <trkpt lat="43.21676" lon="2.33676">
        <ele>109</ele>
        <time>2019-07-14T06:20:14.000Z</time>
      </trkpt>
      <trkpt lat="43.21677" lon="2.33673">
        <ele>109</ele>
        <time>2019-07-14T06:20:15.000Z</time>
      </trkpt>
      <trkpt lat="43.21678" lon="2.33671">
        <ele>109</ele>
        <time>2019-07-14T06:20:16.000Z</time>
      </trkpt>
      <trkpt lat="43.21679" lon="2.33668">
        <ele>109</ele>
        <time>2019-07-14T06:20:17.000Z</time>
      </trkpt>
      <trkpt lat="43.21681" lon="2.33666">
        <ele>109</ele>
        <time>2019-07-14T06:20:18.000Z</time>
      </trkpt>
      <trkpt lat="43.21682" lon="2.33663">
        <ele>109</ele>
        <time>2019-07-14T06:20:19.000Z</time>
      </trkpt>
      <trkpt lat="43.21683" lon="2.3366">
        <ele>109</ele>
        <time>2019-07-14T06:20:20.000Z</time>
      </trkpt>
      <trkpt lat="43.21684" lon="2.33657">
        <ele>108.9</ele>
        <time>2019-07-14T06:20:21.000Z</time>
      </trkpt>
      <trkpt lat="43.21685" lon="2.33654">
        <ele>108.9</ele>
        <time>2019-07-14T06:20:22.000Z</time>
      </trkpt>
      <trkpt lat="43.21686" lon="2.33651">
        <ele>108.9</ele>
        <time>2019-07-14T06:20:23.000Z</time>
      </trkpt>
      <trkpt lat="43.21687" lon="2.33648">
        <ele>108.9</ele>
        <time>2019-07-14T06:20:24.000Z</time>
      </trkpt>
      <trkpt lat="43.21688" lon="2.33645">
        <ele>108.9</ele>
        <time>2019-07-14T06:20:25.000Z</time>
      </trkpt>
      <trkpt lat="43.21689" lon="2.33642">
        <ele>108.9</ele>
        <time>2019-07-14T06:20:26.000Z</time>
      </trkpt>
      <trkpt lat="43.21689" lon="2.33639">
        <ele>108.8</ele>
        <time>2019-07-14T06:20:27.000Z</time>
      </trkpt>
      <trkpt lat="43.2169" lon="2.33636">
        <ele>108.8</ele>
        <time>2019-07-14T06:20:28.000Z</time>
      </trkpt>
      <trkpt lat="43.21691" lon="2.33632">
        <ele>108.8</ele>
        <time>2019-07-14T06:20:29.000Z</time>
      </trkpt>
      <trkpt lat="43.21692" lon="2.33629">
        <ele>108.8</ele>
        <time>2019-07-14T06:20:30.000Z</time>
      </trkpt>
      <trkpt lat="43.21692" lon="2.33626">
        <ele>108.8</ele>
        <time>2019-07-14T06:20:31.000Z</time>
      </trkpt>
      <trkpt lat="43.21693" lon="2.33622">
        <ele>108.8</ele>
        <time>2019-07-14T06:20:32.000Z</time>
      </trkpt>
      <trkpt lat="43.21694" lon="2.33619">
        <ele>108.8</ele>
        <time>2019-07-14T06:20:33.000Z</time>
      </trkpt>
      <trkpt lat="43.21695" lon="2.33616">
        <ele>108.8</ele>
        <time>2019-07-14T06:20:34.000Z</time>
      </trkpt>
      <trkpt lat="43.21695" lon="2.33613">
        <ele>108.8</ele>
        <time>2019-07-14T06:20:35.000Z</time>
      </trkpt>
      <trkpt lat="43.21696" lon="2.33609">
        <ele>108.8</ele>
        <time>2019-07-14T06:20:36.000Z</time>
      </trkpt>
      <trkpt lat="43.21697" lon="2.33606">
        <ele>108.8</ele>
        <time>2019-07-14T06:20:37.000Z</time>
      </trkpt>
      <trkpt lat="43.21698" lon="2.33603">
        <ele>108.8</ele>
        <time>2019-07-14T06:20:38.000Z</time>
      </trkpt>
      <trkpt lat="43.21698" lon="2.336">
        <ele>108.8</ele>
        <time>2019-07-14T06:20:39.000Z</time>
      </trkpt>
      <trkpt lat="43.21699" lon="2.33597">
        <ele>108.8</ele>
        <time>2019-07-14T06:20:40.000Z</time>
      </trkpt>
      <trkpt lat="43.217" lon="2.33594">
        <ele>108.8</ele>
        <time>2019-07-14T06:20:41.000Z</time>
      </trkpt>
      <trkpt lat="43.21701" lon="2.33591">
        <ele>108.8</ele>
        <time>2019-07-14T06:20:42.000Z</time>
      </trkpt>
      <trkpt lat="43.21701" lon="2.33587">
        <ele>108.8</ele>
        <time>2019-07-14T06:20:43.000Z</time>
      </trkpt>
      <trkpt lat="43.21702" lon="2.33584">
        <ele>108.9</ele>
        <time>2019-07-14T06:20:44.000Z</time>
      </trkpt>
      <trkpt lat="43.21703" lon="2.33581">
        <ele>108.9</ele>
        <time>2019-07-14T06:20:45.000Z</time>
      </trkpt>
      <trkpt lat="43.21704" lon="2.33578">
        <ele>109</ele>
        <time>2019-07-14T06:20:46.000Z</time>
      </trkpt>
      <trkpt lat="43.21705" lon="2.33575">
        <ele>109</ele>
        <time>2019-07-14T06:20:47.000Z</time>
      </trkpt>
      <trkpt lat="43.21705" lon="2.33572">
        <ele>109.1</ele>
        <time>2019-07-14T06:20:48.000Z</time>
      </trkpt>
      <trkpt lat="43.21706" lon="2.33568">
        <ele>109.1</ele>
        <time>2019-07-14T06:20:49.000Z</time>
      </trkpt>
      <trkpt lat="43.21707" lon="2.33565">
        <ele>109.2</ele>
        <time>2019-07-14T06:20:50.000Z</time>
      </trkpt>
      <trkpt lat="43.21708" lon="2.33562">
        <ele>109.2</ele>
        <time>2019-07-14T06:20:51.000Z</time>
      </trkpt>
      <trkpt lat="43.21708" lon="2.33559">
        <ele>109.3</ele>
        <time>2019-07-14T06:20:52.000Z</time>
      </trkpt>
      <trkpt lat="43.21709" lon="2.33555">
        <ele>109.4</ele>
        <time>2019-07-14T06:20:53.000Z</time>
      </trkpt>
      <trkpt lat="43.2171" lon="2.33552">
        <ele>109.4</ele>
        <time>2019-07-14T06:20:54.000Z</time>
      </trkpt>
      <trkpt lat="43.21711" lon="2.33548">
        <ele>109.5</ele>
        <time>2019-07-14T06:20:55.000Z</time>
      </trkpt>
      <trkpt lat="43.21712" lon="2.33545">
        <ele>109.5</ele>
        <time>2019-07-14T06:20:56.000Z</time>
      </trkpt>
      <trkpt lat="43.21712" lon="2.33541">
        <ele>109.6</ele>
        <time>2019-07-14T06:20:57.000Z</time>
      </trkpt>
      <trkpt lat="43.21713" lon="2.33538">
        <ele>109.6</ele>
        <time>2019-07-14T06:20:58.000Z</time>
      </trkpt>
      <trkpt lat="43.21714" lon="2.33534">
        <ele>109.6</ele>
        <time>2019-07-14T06:20:59.000Z</time>
      </trkpt>
      <trkpt lat="43.21715" lon="2.33531">
        <ele>109.7</ele>
        <time>2019-07-14T06:21:00.000Z</time>
      </trkpt>
      <trkpt lat="43.21715" lon="2.33527">
        <ele>109.7</ele>
        <time>2019-07-14T06:21:01.000Z</time>
      </trkpt>
      <trkpt lat="43.21716" lon="2.33523">
        <ele>109.8</ele>
        <time>2019-07-14T06:21:02.000Z</time>
      </trkpt>
      <trkpt lat="43.21717" lon="2.3352">
        <ele>109.8</ele>
        <time>2019-07-14T06:21:03.000Z</time>
      </trkpt>
      <trkpt lat="43.21718" lon="2.33516">
        <ele>109.8</ele>
        <time>2019-07-14T06:21:04.000Z</time>
      </trkpt>
      <trkpt lat="43.21718" lon="2.33513">
        <ele>109.9</ele>
        <time>2019-07-14T06:21:05.000Z</time>
      </trkpt>
      <trkpt lat="43.21719" lon="2.33509">
        <ele>109.9</ele>
        <time>2019-07-14T06:21:06.000Z</time>
      </trkpt>
      <trkpt lat="43.2172" lon="2.33506">
        <ele>109.9</ele>
        <time>2019-07-14T06:21:07.000Z</time>
      </trkpt>
      <trkpt lat="43.21721" lon="2.33502">
        <ele>110</ele>
        <time>2019-07-14T06:21:08.000Z</time>
      </trkpt>
      <trkpt lat="43.21721" lon="2.33499">
        <ele>110</ele>
        <time>2019-07-14T06:21:09.000Z</time>
      </trkpt>
      <trkpt lat="43.21722" lon="2.33496">
        <ele>109.9</ele>
        <time>2019-07-14T06:21:10.000Z</time>
      </trkpt>
      <trkpt lat="43.21723" lon="2.33492">
        <ele>109.8</ele>
        <time>2019-07-14T06:21:11.000Z</time>
      </trkpt>
      <trkpt lat="43.21723" lon="2.33489">
        <ele>109.7</ele>
        <time>2019-07-14T06:21:12.000Z</time>
      </trkpt>
      <trkpt lat="43.21724" lon="2.33486">
        <ele>109.6</ele>
        <time>2019-07-14T06:21:13.000Z</time>
      </trkpt>
      <trkpt lat="43.21725" lon="2.33482">
        <ele>109.5</ele>
        <time>2019-07-14T06:21:14.000Z</time>
      </trkpt>
      <trkpt lat="43.21726" lon="2.33479">
        <ele>109.4</ele>
        <time>2019-07-14T06:21:15.000Z</time>
      </trkpt>
      <trkpt lat="43.21727" lon="2.33476">
        <ele>109.3</ele>
        <time>2019-07-14T06:21:16.000Z</time>
      </trkpt>
      <trkpt lat="43.21728" lon="2.33472">
        <ele>109.2</ele>
        <time>2019-07-14T06:21:17.000Z</time>
      </trkpt>
      <trkpt lat="43.21729" lon="2.33469">
        <ele>109.1</ele>
        <time>2019-07-14T06:21:18.000Z</time>
      </trkpt>
      <trkpt lat="43.2173" lon="2.33466">
        <ele>109</ele>
        <time>2019-07-14T06:21:19.000Z</time>
      </trkpt>
      <trkpt lat="43.21731" lon="2.33462">
        <ele>108.8</ele>
        <time>2019-07-14T06:21:20.000Z</time>
      </trkpt>
      <trkpt lat="43.21732" lon="2.33459">
        <ele>108.7</ele>
        <time>2019-07-14T06:21:21.000Z</time>
      </trkpt>
      <trkpt lat="43.21733" lon="2.33455">
        <ele>108.6</ele>
        <time>2019-07-14T06:21:22.000Z</time>
      </trkpt>
      <trkpt lat="43.21734" lon="2.33452">
        <ele>108.5</ele>
        <time>2019-07-14T06:21:23.000Z</time>
      </trkpt>
      <trkpt lat="43.21735" lon="2.33448">
        <ele>108.4</ele>
        <time>2019-07-14T06:21:24.000Z</time>
      </trkpt>
      <trkpt lat="43.21736" lon="2.33444">
        <ele>108.2</ele>
        <time>2019-07-14T06:21:25.000Z</time>
      </trkpt>
      <trkpt lat="43.21736" lon="2.33441">
        <ele>108.1</ele>
        <time>2019-07-14T06:21:26.000Z</time>
      </trkpt>
      <trkpt lat="43.21737" lon="2.33437">
        <ele>108</ele>
        <time>2019-07-14T06:21:27.000Z</time>
      </trkpt>
      <trkpt lat="43.21738" lon="2.33433">
        <ele>107.8</ele>
        <time>2019-07-14T06:21:28.000Z</time>
      </trkpt>
      <trkpt lat="43.21739" lon="2.33429">
        <ele>107.7</ele>
        <time>2019-07-14T06:21:29.000Z</time>
      </trkpt>
      <trkpt lat="43.2174" lon="2.33426">
        <ele>107.5</ele>
        <time>2019-07-14T06:21:30.000Z</time>
      </trkpt>
      <trkpt lat="43.21741" lon="2.33422">
        <ele>107.4</ele>
        <time>2019-07-14T06:21:31.000Z</time>
      </trkpt>
      <trkpt lat="43.21742" lon="2.33419">
        <ele>107.2</ele>
        <time>2019-07-14T06:21:32.000Z</time>
      </trkpt>
      <trkpt lat="43.21743" lon="2.33415">
        <ele>107.2</ele>
        <time>2019-07-14T06:21:33.000Z</time>
      </trkpt>
      <trkpt lat="43.21745" lon="2.33412">
        <ele>107.2</ele>
        <time>2019-07-14T06:21:34.000Z</time>
      </trkpt>
      <trkpt lat="43.21746" lon="2.33408">
        <ele>107.3</ele>
        <time>2019-07-14T06:21:35.000Z</time>
      </trkpt>
      <trkpt lat="43.21747" lon="2.33405">
        <ele>107.3</ele>
        <time>2019-07-14T06:21:36.000Z</time>
      </trkpt>
      <trkpt lat="43.21748" lon="2.33402">
        <ele>107.4</ele>
        <time>2019-07-14T06:21:37.000Z</time>
      </trkpt>
      <trkpt lat="43.2175" lon="2.33399">
        <ele>107.4</ele>
        <time>2019-07-14T06:21:38.000Z</time>
      </trkpt>
      <trkpt lat="43.21751" lon="2.33395">
        <ele>107.5</ele>
        <time>2019-07-14T06:21:39.000Z</time>
      </trkpt>
      <trkpt lat="43.21752" lon="2.33392">
        <ele>107.6</ele>
        <time>2019-07-14T06:21:40.000Z</time>
      </trkpt>
      <trkpt lat="43.21753" lon="2.33389">
        <ele>107.7</ele>
        <time>2019-07-14T06:21:41.000Z</time>
      </trkpt>
      <trkpt lat="43.21755" lon="2.33386">
        <ele>107.7</ele>
        <time>2019-07-14T06:21:42.000Z</time>
      </trkpt>
      <trkpt lat="43.21756" lon="2.33382">
        <ele>107.8</ele>
        <time>2019-07-14T06:21:43.000Z</time>
      </trkpt>
      <trkpt lat="43.21757" lon="2.33379">
        <ele>107.9</ele>
        <time>2019-07-14T06:21:44.000Z</time>
      </trkpt>
      <trkpt lat="43.21758" lon="2.33376">
        <ele>107.9</ele>
        <time>2019-07-14T06:21:45.000Z</time>
      </trkpt>
      <trkpt lat="43.21759" lon="2.33373">
        <ele>108</ele>
        <time>2019-07-14T06:21:46.000Z</time>
      </trkpt>
      <trkpt lat="43.2176" lon="2.3337">
        <ele>108</ele>
        <time>2019-07-14T06:21:47.000Z</time>
      </trkpt>
      <trkpt lat="43.21762" lon="2.33366">
        <ele>108.1</ele>
        <time>2019-07-14T06:21:48.000Z</time>
      </trkpt>
      <trkpt lat="43.21763" lon="2.33363">
        <ele>108.1</ele>
        <time>2019-07-14T06:21:49.000Z</time>
      </trkpt>
      <trkpt lat="43.21764" lon="2.3336">
        <ele>108.2</ele>
        <time>2019-07-14T06:21:50.000Z</time>
      </trkpt>
      <trkpt lat="43.21765" lon="2.33357">
        <ele>108.2</ele>
        <time>2019-07-14T06:21:51.000Z</time>
      </trkpt>
      <trkpt lat="43.21766" lon="2.33354">
        <ele>108.3</ele>
        <time>2019-07-14T06:21:52.000Z</time>
      </trkpt>
      <trkpt lat="43.21767" lon="2.3335">
        <ele>108.3</ele>
        <time>2019-07-14T06:21:53.000Z</time>
      </trkpt>
      <trkpt lat="43.21768" lon="2.33347">
        <ele>108.3</ele>
        <time>2019-07-14T06:21:54.000Z</time>
      </trkpt>
      <trkpt lat="43.21769" lon="2.33344">
        <ele>108.4</ele>
        <time>2019-07-14T06:21:55.000Z</time>
      </trkpt>
      <trkpt lat="43.2177" lon="2.33341">
        <ele>108.4</ele>
        <time>2019-07-14T06:21:56.000Z</time>
      </trkpt>
      <trkpt lat="43.21771" lon="2.33337">
        <ele>108.4</ele>
        <time>2019-07-14T06:21:57.000Z</time>
      </trkpt>
      <trkpt lat="43.21772" lon="2.33334">
        <ele>108.5</ele>
        <time>2019-07-14T06:21:58.000Z</time>
      </trkpt>
      <trkpt lat="43.21773" lon="2.33331">
        <ele>108.4</ele>
        <time>2019-07-14T06:21:59.000Z</time>
      </trkpt>
      <trkpt lat="43.21774" lon="2.33327">
        <ele>108.4</ele>
        <time>2019-07-14T06:22:00.000Z</time>
      </trkpt>
      <trkpt lat="43.21775" lon="2.33324">
        <ele>108.4</ele>
        <time>2019-07-14T06:22:01.000Z</time>
      </trkpt>
      <trkpt lat="43.21776" lon="2.33321">
        <ele>108.4</ele>
        <time>2019-07-14T06:22:02.000Z</time>
      </trkpt>
      <trkpt lat="43.21777" lon="2.33317">
        <ele>108.4</ele>
        <time>2019-07-14T06:22:03.000Z</time>
      </trkpt>
      <trkpt lat="43.21777" lon="2.33314">
        <ele>108.3</ele>
        <time>2019-07-14T06:22:04.000Z</time>
      </trkpt>
      <trkpt lat="43.21778" lon="2.3331">
        <ele>108.3</ele>
        <time>2019-07-14T06:22:05.000Z</time>
      </trkpt>
      <trkpt lat="43.21779" lon="2.33307">
        <ele>108.3</ele>
        <time>2019-07-14T06:22:06.000Z</time>
      </trkpt>
      <trkpt lat="43.2178" lon="2.33304">
        <ele>108.3</ele>
        <time>2019-07-14T06:22:07.000Z</time>
      </trkpt>
      <trkpt lat="43.21781" lon="2.333">
        <ele>108.3</ele>
        <time>2019-07-14T06:22:08.000Z</time>
      </trkpt>
      <trkpt lat="43.21782" lon="2.33297">
        <ele>108.3</ele>
        <time>2019-07-14T06:22:09.000Z</time>
      </trkpt>
      <trkpt lat="43.21783" lon="2.33294">
        <ele>108.3</ele>
        <time>2019-07-14T06:22:10.000Z</time>
      </trkpt>
      <trkpt lat="43.21783" lon="2.3329">
        <ele>108.3</ele>
        <time>2019-07-14T06:22:11.000Z</time>
      </trkpt>
      <trkpt lat="43.21784" lon="2.33287">
        <ele>108.3</ele>
        <time>2019-07-14T06:22:12.000Z</time>
      </trkpt>
      <trkpt lat="43.21785" lon="2.33284">
        <ele>108.3</ele>
        <time>2019-07-14T06:22:13.000Z</time>
      </trkpt>
      <trkpt lat="43.21786" lon="2.33281">
        <ele>108.3</ele>
        <time>2019-07-14T06:22:14.000Z</time>
      </trkpt>
      <trkpt lat="43.21787" lon="2.33277">
        <ele>108.3</ele>
        <time>2019-07-14T06:22:15.000Z</time>
      </trkpt>
      <trkpt lat="43.21788" lon="2.33274">
        <ele>108.3</ele>
        <time>2019-07-14T06:22:16.000Z</time>
      </trkpt>
      <trkpt lat="43.21789" lon="2.33271">
        <ele>108.4</ele>
        <time>2019-07-14T06:22:17.000Z</time>
      </trkpt>
      <trkpt lat="43.21789" lon="2.33267">
        <ele>108.4</ele>
        <time>2019-07-14T06:22:18.000Z</time>
      </trkpt>
      <trkpt lat="43.2179" lon="2.33264">
        <ele>108.4</ele>
        <time>2019-07-14T06:22:19.000Z</time>
      </trkpt>
      <trkpt lat="43.21791" lon="2.33261">
        <ele>108.4</ele>
        <time>2019-07-14T06:22:20.000Z</time>
      </trkpt>
      <trkpt lat="43.21792" lon="2.33258">
        <ele>108.5</ele>
        <time>2019-07-14T06:22:21.000Z</time>
      </trkpt>
      <trkpt lat="43.21793" lon="2.33255">
        <ele>108.5</ele>
        <time>2019-07-14T06:22:22.000Z</time>
      </trkpt>
      <trkpt lat="43.21794" lon="2.33252">
        <ele>108.5</ele>
        <time>2019-07-14T06:22:23.000Z</time>
      </trkpt>
      <trkpt lat="43.21795" lon="2.33248">
        <ele>108.5</ele>
        <time>2019-07-14T06:22:24.000Z</time>
      </trkpt>
      <trkpt lat="43.21796" lon="2.33245">
        <ele>108.6</ele>
        <time>2019-07-14T06:22:25.000Z</time>
      </trkpt>
      <trkpt lat="43.21797" lon="2.33242">
        <ele>108.6</ele>
        <time>2019-07-14T06:22:26.000Z</time>
      </trkpt>
      <trkpt lat="43.21798" lon="2.33239">
        <ele>108.6</ele>
        <time>2019-07-14T06:22:27.000Z</time>
      </trkpt>
      <trkpt lat="43.21799" lon="2.33236">
        <ele>108.7</ele>
        <time>2019-07-14T06:22:28.000Z</time>
      </trkpt>
      <trkpt lat="43.21799" lon="2.33233">
        <ele>108.7</ele>
        <time>2019-07-14T06:22:29.000Z</time>
      </trkpt>
      <trkpt lat="43.218" lon="2.3323">
        <ele>108.7</ele>
        <time>2019-07-14T06:22:30.000Z</time>
      </trkpt>
      <trkpt lat="43.21801" lon="2.33227">
        <ele>108.8</ele>
        <time>2019-07-14T06:22:31.000Z</time>
      </trkpt>
      <trkpt lat="43.21802" lon="2.33224">
        <ele>108.8</ele>
        <time>2019-07-14T06:22:32.000Z</time>
      </trkpt>
      <trkpt lat="43.21803" lon="2.33221">
        <ele>108.9</ele>
        <time>2019-07-14T06:22:33.000Z</time>
      </trkpt>
      <trkpt lat="43.21804" lon="2.33219">
        <ele>108.9</ele>
        <time>2019-07-14T06:22:34.000Z</time>
      </trkpt>
      <trkpt lat="43.21805" lon="2.33216">
        <ele>108.9</ele>
        <time>2019-07-14T06:22:35.000Z</time>
      </trkpt>
      <trkpt lat="43.21806" lon="2.33213">
        <ele>109</ele>
        <time>2019-07-14T06:22:36.000Z</time>
      </trkpt>
      <trkpt lat="43.21807" lon="2.3321">
        <ele>109</ele>
        <time>2019-07-14T06:22:37.000Z</time>
      </trkpt>
      <trkpt lat="43.21809" lon="2.33207">
        <ele>109.1</ele>
        <time>2019-07-14T06:22:38.000Z</time>
      </trkpt>
      <trkpt lat="43.2181" lon="2.33204">
        <ele>109.1</ele>
        <time>2019-07-14T06:22:39.000Z</time>
      </trkpt>
      <trkpt lat="43.21811" lon="2.33201">
        <ele>109.2</ele>
        <time>2019-07-14T06:22:40.000Z</time>
      </trkpt>
      <trkpt lat="43.21812" lon="2.33198">
        <ele>109.2</ele>
        <time>2019-07-14T06:22:41.000Z</time>
      </trkpt>
      <trkpt lat="43.21813" lon="2.33195">
        <ele>109.3</ele>
        <time>2019-07-14T06:22:42.000Z</time>
      </trkpt>
      <trkpt lat="43.21814" lon="2.33192">
        <ele>109.3</ele>
        <time>2019-07-14T06:22:43.000Z</time>
      </trkpt>
      <trkpt lat="43.21815" lon="2.33189">
        <ele>109.4</ele>
        <time>2019-07-14T06:22:44.000Z</time>
      </trkpt>
      <trkpt lat="43.21816" lon="2.33186">
        <ele>109.4</ele>
        <time>2019-07-14T06:22:45.000Z</time>
      </trkpt>
      <trkpt lat="43.21817" lon="2.33183">
        <ele>109.5</ele>
        <time>2019-07-14T06:22:46.000Z</time>
      </trkpt>
      <trkpt lat="43.21819" lon="2.3318">
        <ele>109.5</ele>
        <time>2019-07-14T06:22:47.000Z</time>
      </trkpt>
      <trkpt lat="43.2182" lon="2.33177">
        <ele>109.6</ele>
        <time>2019-07-14T06:22:48.000Z</time>
      </trkpt>
      <trkpt lat="43.21821" lon="2.33174">
        <ele>109.6</ele>
        <time>2019-07-14T06:22:49.000Z</time>
      </trkpt>
      <trkpt lat="43.21822" lon="2.33171">
        <ele>109.7</ele>
        <time>2019-07-14T06:22:50.000Z</time>
      </trkpt>
      <trkpt lat="43.21824" lon="2.33168">
        <ele>109.8</ele>
        <time>2019-07-14T06:22:51.000Z</time>
      </trkpt>
      <trkpt lat="43.21825" lon="2.33165">
        <ele>109.8</ele>
        <time>2019-07-14T06:22:52.000Z</time>
      </trkpt>
      <trkpt lat="43.21826" lon="2.33162">
        <ele>109.8</ele>
        <time>2019-07-14T06:22:53.000Z</time>
      </trkpt>
      <trkpt lat="43.21828" lon="2.33159">
        <ele>109.9</ele>
        <time>2019-07-14T06:22:54.000Z</time>
      </trkpt>
      <trkpt lat="43.21829" lon="2.33156">
        <ele>109.9</ele>
        <time>2019-07-14T06:22:55.000Z</time>
      </trkpt>
      <trkpt lat="43.2183" lon="2.33153">
        <ele>109.9</ele>
        <time>2019-07-14T06:22:56.000Z</time>
      </trkpt>
      <trkpt lat="43.21832" lon="2.3315">
        <ele>110</ele>
        <time>2019-07-14T06:22:57.000Z</time>
      </trkpt>
      <trkpt lat="43.21833" lon="2.33147">
        <ele>110</ele>
        <time>2019-07-14T06:22:58.000Z</time>
      </trkpt>
      <trkpt lat="43.21835" lon="2.33144">
        <ele>110</ele>
        <time>2019-07-14T06:22:59.000Z</time>
      </trkpt>
      <trkpt lat="43.21836" lon="2.33142">
        <ele>110</ele>
        <time>2019-07-14T06:23:00.000Z</time>
      </trkpt>
      <trkpt lat="43.21838" lon="2.33139">
        <ele>110.1</ele>
        <time>2019-07-14T06:23:01.000Z</time>
      </trkpt>
      <trkpt lat="43.21839" lon="2.33136">
        <ele>110.1</ele>
        <time>2019-07-14T06:23:02.000Z</time>
      </trkpt>
      <trkpt lat="43.21841" lon="2.33133">
        <ele>110.1</ele>
        <time>2019-07-14T06:23:03.000Z</time>
      </trkpt>
      <trkpt lat="43.21842" lon="2.33131">
        <ele>110.2</ele>
        <time>2019-07-14T06:23:04.000Z</time>
      </trkpt>
      <trkpt lat="43.21844" lon="2.33128">
        <ele>110.2</ele>
        <time>2019-07-14T06:23:05.000Z</time>
      </trkpt>
      <trkpt lat="43.21846" lon="2.33125">
        <ele>110.2</ele>
        <time>2019-07-14T06:23:06.000Z</time>
      </trkpt>
      <trkpt lat="43.21847" lon="2.33123">
        <ele>110.3</ele>
        <time>2019-07-14T06:23:07.000Z</time>
      </trkpt>
      <trkpt lat="43.21849" lon="2.3312">
        <ele>110.3</ele>
        <time>2019-07-14T06:23:08.000Z</time>
      </trkpt>
      <trkpt lat="43.21851" lon="2.33117">
        <ele>110.3</ele>
        <time>2019-07-14T06:23:09.000Z</time>
      </trkpt>
      <trkpt lat="43.21853" lon="2.33115">
        <ele>110.4</ele>
        <time>2019-07-14T06:23:10.000Z</time>
      </trkpt>
      <trkpt lat="43.21855" lon="2.33112">
        <ele>110.4</ele>
        <time>2019-07-14T06:23:11.000Z</time>
      </trkpt>
      <trkpt lat="43.21856" lon="2.3311">
        <ele>110.5</ele>
        <time>2019-07-14T06:23:12.000Z</time>
      </trkpt>
      <trkpt lat="43.21858" lon="2.33107">
        <ele>110.5</ele>
        <time>2019-07-14T06:23:13.000Z</time>
      </trkpt>
      <trkpt lat="43.2186" lon="2.33105">
        <ele>110.6</ele>
        <time>2019-07-14T06:23:14.000Z</time>
      </trkpt>
      <trkpt lat="43.21862" lon="2.33103">
        <ele>110.6</ele>
        <time>2019-07-14T06:23:15.000Z</time>
      </trkpt>
      <trkpt lat="43.21864" lon="2.331">
        <ele>110.7</ele>
        <time>2019-07-14T06:23:16.000Z</time>
      </trkpt>
      <trkpt lat="43.21866" lon="2.33098">
        <ele>110.7</ele>
        <time>2019-07-14T06:23:17.000Z</time>
      </trkpt>
      <trkpt lat="43.21868" lon="2.33096">
        <ele>110.8</ele>
        <time>2019-07-14T06:23:18.000Z</time>
      </trkpt>
      <trkpt lat="43.2187" lon="2.33093">
        <ele>110.8</ele>
        <time>2019-07-14T06:23:19.000Z</time>
      </trkpt>
      <trkpt lat="43.21872" lon="2.33091">
        <ele>110.9</ele>
        <time>2019-07-14T06:23:20.000Z</time>
      </trkpt>
      <trkpt lat="43.21874" lon="2.33089">
        <ele>110.9</ele>
        <time>2019-07-14T06:23:21.000Z</time>
      </trkpt>
      <trkpt lat="43.21876" lon="2.33086">
        <ele>111</ele>
        <time>2019-07-14T06:23:22.000Z</time>
      </trkpt>
      <trkpt lat="43.21878" lon="2.33084">
        <ele>111.1</ele>
        <time>2019-07-14T06:23:23.000Z</time>
      </trkpt>
      <trkpt lat="43.2188" lon="2.33082">
        <ele>111.1</ele>
        <time>2019-07-14T06:23:24.000Z</time>
      </trkpt>
      <trkpt lat="43.21882" lon="2.3308">
        <ele>111.1</ele>
        <time>2019-07-14T06:23:25.000Z</time>
      </trkpt>
      <trkpt lat="43.21884" lon="2.33078">
        <ele>111.1</ele>
        <time>2019-07-14T06:23:26.000Z</time>
      </trkpt>
      <trkpt lat="43.21886" lon="2.33076">
        <ele>111.1</ele>
        <time>2019-07-14T06:23:27.000Z</time>
      </trkpt>
      <trkpt lat="43.21888" lon="2.33074">
        <ele>111.2</ele>
        <time>2019-07-14T06:23:28.000Z</time>
      </trkpt>
      <trkpt lat="43.2189" lon="2.33072">
        <ele>111.2</ele>
        <time>2019-07-14T06:23:29.000Z</time>
      </trkpt>
      <trkpt lat="43.21892" lon="2.3307">
        <ele>111.2</ele>
        <time>2019-07-14T06:23:30.000Z</time>
      </trkpt>
      <trkpt lat="43.21894" lon="2.33068">
        <ele>111.2</ele>
        <time>2019-07-14T06:23:31.000Z</time>
      </trkpt>
      <trkpt lat="43.21896" lon="2.33066">
        <ele>111.2</ele>
        <time>2019-07-14T06:23:32.000Z</time>
      </trkpt>
      <trkpt lat="43.21898" lon="2.33064">
        <ele>111.3</ele>
        <time>2019-07-14T06:23:33.000Z</time>
      </trkpt>
      <trkpt lat="43.219" lon="2.33062">
        <ele>111.3</ele>
        <time>2019-07-14T06:23:34.000Z</time>
      </trkpt>
      <trkpt lat="43.21902" lon="2.3306">
        <ele>111.3</ele>
        <time>2019-07-14T06:23:35.000Z</time>
      </trkpt>
      <trkpt lat="43.21904" lon="2.33058">
        <ele>111.3</ele>
        <time>2019-07-14T06:23:36.000Z</time>
      </trkpt>
      <trkpt lat="43.21906" lon="2.33056">
        <ele>111.4</ele>
        <time>2019-07-14T06:23:37.000Z</time>
      </trkpt>
      <trkpt lat="43.21908" lon="2.33054">
        <ele>111.4</ele>
        <time>2019-07-14T06:23:38.000Z</time>
      </trkpt>
      <trkpt lat="43.2191" lon="2.33052">
        <ele>111.4</ele>
        <time>2019-07-14T06:23:39.000Z</time>
      </trkpt>
      <trkpt lat="43.21912" lon="2.33051">
        <ele>111.5</ele>
        <time>2019-07-14T06:23:40.000Z</time>
      </trkpt>
      <trkpt lat="43.21915" lon="2.33049">
        <ele>111.5</ele>
        <time>2019-07-14T06:23:41.000Z</time>
      </trkpt>
      <trkpt lat="43.21917" lon="2.33047">
        <ele>111.6</ele>
        <time>2019-07-14T06:23:42.000Z</time>
      </trkpt>
      <trkpt lat="43.21919" lon="2.33045">
        <ele>111.5</ele>
        <time>2019-07-14T06:23:43.000Z</time>
      </trkpt>
      <trkpt lat="43.21922" lon="2.33043">
        <ele>111.5</ele>
        <time>2019-07-14T06:23:44.000Z</time>
      </trkpt>
      <trkpt lat="43.21924" lon="2.33041">
        <ele>111.4</ele>
        <time>2019-07-14T06:23:45.000Z</time>
      </trkpt>
      <trkpt lat="43.21927" lon="2.33039">
        <ele>111.4</ele>
        <time>2019-07-14T06:23:46.000Z</time>
      </trkpt>
      <trkpt lat="43.21929" lon="2.33037">
        <ele>111.3</ele>
        <time>2019-07-14T06:23:47.000Z</time>
      </trkpt>
      <trkpt lat="43.21932" lon="2.33035">
        <ele>111.3</ele>
        <time>2019-07-14T06:23:48.000Z</time>
      </trkpt>
      <trkpt lat="43.21934" lon="2.33033">
        <ele>111.2</ele>
        <time>2019-07-14T06:23:49.000Z</time>
      </trkpt>
      <trkpt lat="43.21937" lon="2.33031">
        <ele>111.2</ele>
        <time>2019-07-14T06:23:50.000Z</time>
      </trkpt>
      <trkpt lat="43.21939" lon="2.33029">
        <ele>111.2</ele>
        <time>2019-07-14T06:23:51.000Z</time>
      </trkpt>
      <trkpt lat="43.21941" lon="2.33026">
        <ele>111.1</ele>
        <time>2019-07-14T06:23:52.000Z</time>
      </trkpt>
      <trkpt lat="43.21944" lon="2.33024">
        <ele>111.1</ele>
        <time>2019-07-14T06:23:53.000Z</time>
      </trkpt>
      <trkpt lat="43.21946" lon="2.33021">
        <ele>111.1</ele>
        <time>2019-07-14T06:23:54.000Z</time>
      </trkpt>
      <trkpt lat="43.21948" lon="2.33018">
        <ele>111.1</ele>
        <time>2019-07-14T06:23:55.000Z</time>
      </trkpt>
      <trkpt lat="43.2195" lon="2.33016">
        <ele>111</ele>
        <time>2019-07-14T06:23:56.000Z</time>
      </trkpt>
      <trkpt lat="43.21952" lon="2.33013">
        <ele>111</ele>
        <time>2019-07-14T06:23:57.000Z</time>
      </trkpt>
      <trkpt lat="43.21954" lon="2.33011">
        <ele>111</ele>
        <time>2019-07-14T06:23:58.000Z</time>
      </trkpt>
      <trkpt lat="43.21956" lon="2.33008">
        <ele>111</ele>
        <time>2019-07-14T06:23:59.000Z</time>
      </trkpt>
      <trkpt lat="43.21958" lon="2.33006">
        <ele>111</ele>
        <time>2019-07-14T06:24:00.000Z</time>
      </trkpt>
      <trkpt lat="43.21961" lon="2.33004">
        <ele>111</ele>
        <time>2019-07-14T06:24:01.000Z</time>
      </trkpt>
      <trkpt lat="43.21963" lon="2.33002">
        <ele>111</ele>
        <time>2019-07-14T06:24:02.000Z</time>
      </trkpt>
      <trkpt lat="43.21965" lon="2.33">
        <ele>111</ele>
        <time>2019-07-14T06:24:03.000Z</time>
      </trkpt>
      <trkpt lat="43.21967" lon="2.32998">
        <ele>111</ele>
        <time>2019-07-14T06:24:04.000Z</time>
      </trkpt>
      <trkpt lat="43.2197" lon="2.32996">
        <ele>111</ele>
        <time>2019-07-14T06:24:05.000Z</time>
      </trkpt>
      <trkpt lat="43.21972" lon="2.32995">
        <ele>110.9</ele>
        <time>2019-07-14T06:24:06.000Z</time>
      </trkpt>
      <trkpt lat="43.21974" lon="2.32993">
        <ele>110.9</ele>
        <time>2019-07-14T06:24:07.000Z</time>
      </trkpt>
      <trkpt lat="43.21976" lon="2.32991">
        <ele>110.9</ele>
        <time>2019-07-14T06:24:08.000Z</time>
      </trkpt>
      <trkpt lat="43.21978" lon="2.32989">
        <ele>110.9</ele>
        <time>2019-07-14T06:24:09.000Z</time>
      </trkpt>
      <trkpt lat="43.21981" lon="2.32987">
        <ele>110.9</ele>
        <time>2019-07-14T06:24:10.000Z</time>
      </trkpt>
      <trkpt lat="43.21983" lon="2.32985">
        <ele>110.9</ele>
        <time>2019-07-14T06:24:11.000Z</time>
      </trkpt>
      <trkpt lat="43.21985" lon="2.32983">
        <ele>110.9</ele>
        <time>2019-07-14T06:24:12.000Z</time>
      </trkpt>
      <trkpt lat="43.21987" lon="2.3298">
        <ele>110.9</ele>
        <time>2019-07-14T06:24:13.000Z</time>
      </trkpt>
      <trkpt lat="43.21989" lon="2.32978">
        <ele>110.9</ele>
        <time>2019-07-14T06:24:14.000Z</time>
      </trkpt>
      <trkpt lat="43.21991" lon="2.32976">
        <ele>110.9</ele>
        <time>2019-07-14T06:24:15.000Z</time>
      </trkpt>
      <trkpt lat="43.21993" lon="2.32974">
        <ele>110.9</ele>
        <time>2019-07-14T06:24:16.000Z</time>
      </trkpt>
      <trkpt lat="43.21995" lon="2.32972">
        <ele>110.9</ele>
        <time>2019-07-14T06:24:17.000Z</time>
      </trkpt>
      <trkpt lat="43.21997" lon="2.3297">
        <ele>111</ele>
        <time>2019-07-14T06:24:18.000Z</time>
      </trkpt>
      <trkpt lat="43.21999" lon="2.32968">
        <ele>111</ele>
        <time>2019-07-14T06:24:19.000Z</time>
      </trkpt>
      <trkpt lat="43.22001" lon="2.32966">
        <ele>111</ele>
        <time>2019-07-14T06:24:20.000Z</time>
      </trkpt>
      <trkpt lat="43.22003" lon="2.32964">
        <ele>110.9</ele>
        <time>2019-07-14T06:24:21.000Z</time>
      </trkpt>
      <trkpt lat="43.22005" lon="2.32962">
        <ele>110.9</ele>
        <time>2019-07-14T06:24:22.000Z</time>
      </trkpt>
      <trkpt lat="43.22007" lon="2.3296">
        <ele>110.8</ele>
        <time>2019-07-14T06:24:23.000Z</time>
      </trkpt>
      <trkpt lat="43.22009" lon="2.32957">
        <ele>110.8</ele>
        <time>2019-07-14T06:24:24.000Z</time>
      </trkpt>
      <trkpt lat="43.22011" lon="2.32955">
        <ele>110.7</ele>
        <time>2019-07-14T06:24:25.000Z</time>
      </trkpt>
      <trkpt lat="43.22013" lon="2.32953">
        <ele>110.7</ele>
        <time>2019-07-14T06:24:26.000Z</time>
      </trkpt>
      <trkpt lat="43.22015" lon="2.3295">
        <ele>110.6</ele>
        <time>2019-07-14T06:24:27.000Z</time>
      </trkpt>
      <trkpt lat="43.22017" lon="2.32948">
        <ele>110.6</ele>
        <time>2019-07-14T06:24:28.000Z</time>
      </trkpt>
      <trkpt lat="43.22019" lon="2.32946">
        <ele>110.6</ele>
        <time>2019-07-14T06:24:29.000Z</time>
      </trkpt>
      <trkpt lat="43.22021" lon="2.32944">
        <ele>110.5</ele>
        <time>2019-07-14T06:24:30.000Z</time>
      </trkpt>
      <trkpt lat="43.22022" lon="2.32941">
        <ele>110.5</ele>
        <time>2019-07-14T06:24:31.000Z</time>
      </trkpt>
      <trkpt lat="43.22024" lon="2.32939">
        <ele>110.4</ele>
        <time>2019-07-14T06:24:32.000Z</time>
      </trkpt>
      <trkpt lat="43.22026" lon="2.32937">
        <ele>110.4</ele>
        <time>2019-07-14T06:24:33.000Z</time>
      </trkpt>
      <trkpt lat="43.22028" lon="2.32935">
        <ele>110.3</ele>
        <time>2019-07-14T06:24:34.000Z</time>
      </trkpt>
      <trkpt lat="43.22029" lon="2.32934">
        <ele>110.3</ele>
        <time>2019-07-14T06:24:35.000Z</time>
      </trkpt>
      <trkpt lat="43.22031" lon="2.32932">
        <ele>110.3</ele>
        <time>2019-07-14T06:24:36.000Z</time>
      </trkpt>
      <trkpt lat="43.22032" lon="2.3293">
        <ele>110.2</ele>
        <time>2019-07-14T06:24:37.000Z</time>
      </trkpt>
      <trkpt lat="43.22033" lon="2.32929">
        <ele>110.2</ele>
        <time>2019-07-14T06:24:38.000Z</time>
      </trkpt>
      <trkpt lat="43.22035" lon="2.32928">
        <ele>110.2</ele>
        <time>2019-07-14T06:24:39.000Z</time>
      </trkpt>
      <trkpt lat="43.22035" lon="2.32927">
        <ele>110.2</ele>
        <time>2019-07-14T06:24:40.000Z</time>
      </trkpt>
      <trkpt lat="43.22036" lon="2.32927">
        <ele>110.1</ele>
        <time>2019-07-14T06:24:41.000Z</time>
      </trkpt>
      <trkpt lat="43.22037" lon="2.32926">
        <ele>110.1</ele>
        <time>2019-07-14T06:24:42.000Z</time>
      </trkpt>
      <trkpt lat="43.22038" lon="2.32926">
        <ele>110.1</ele>
        <time>2019-07-14T06:24:43.000Z</time>
      </trkpt>
      <trkpt lat="43.22038" lon="2.32925">
        <ele>110.1</ele>
        <time>2019-07-14T06:24:44.000Z</time>
      </trkpt>
      <trkpt lat="43.22039" lon="2.32925">
        <ele>110.1</ele>
        <time>2019-07-14T06:24:45.000Z</time>
      </trkpt>
      <trkpt lat="43.2204" lon="2.32924">
        <ele>110</ele>
        <time>2019-07-14T06:24:46.000Z</time>
      </trkpt>
      <trkpt lat="43.2204" lon="2.32924">
        <ele>110</ele>
        <time>2019-07-14T06:24:47.000Z</time>
      </trkpt>
      <trkpt lat="43.22041" lon="2.32923">
        <ele>110</ele>
        <time>2019-07-14T06:24:48.000Z</time>
      </trkpt>
      <trkpt lat="43.22042" lon="2.32923">
        <ele>110</ele>
        <time>2019-07-14T06:24:49.000Z</time>
      </trkpt>
      <trkpt lat="43.22043" lon="2.32922">
        <ele>110</ele>
        <time>2019-07-14T06:24:50.000Z</time>
      </trkpt>
      <trkpt lat="43.22043" lon="2.32921">
        <ele>110</ele>
        <time>2019-07-14T06:24:51.000Z</time>
      </trkpt>
      <trkpt lat="43.22044" lon="2.3292">
        <ele>109.9</ele>
        <time>2019-07-14T06:24:52.000Z</time>
      </trkpt>
      <trkpt lat="43.22045" lon="2.32919">
        <ele>109.9</ele>
        <time>2019-07-14T06:24:53.000Z</time>
      </trkpt>
      <trkpt lat="43.22046" lon="2.32918">
        <ele>109.9</ele>
        <time>2019-07-14T06:24:54.000Z</time>
      </trkpt>
      <trkpt lat="43.22047" lon="2.32917">
        <ele>109.9</ele>
        <time>2019-07-14T06:24:55.000Z</time>
      </trkpt>
      <trkpt lat="43.22047" lon="2.32916">
        <ele>109.9</ele>
        <time>2019-07-14T06:24:56.000Z</time>
      </trkpt>
      <trkpt lat="43.22048" lon="2.32916">
        <ele>109.8</ele>
        <time>2019-07-14T06:24:57.000Z</time>
      </trkpt>
      <trkpt lat="43.22049" lon="2.32915">
        <ele>109.8</ele>
        <time>2019-07-14T06:24:58.000Z</time>
      </trkpt>
      <trkpt lat="43.2205" lon="2.32914">
        <ele>109.8</ele>
        <time>2019-07-14T06:24:59.000Z</time>
      </trkpt>
      <trkpt lat="43.2205" lon="2.32913">
        <ele>109.8</ele>
        <time>2019-07-14T06:25:00.000Z</time>
      </trkpt>
      <trkpt lat="43.22051" lon="2.32913">
        <ele>109.8</ele>
        <time>2019-07-14T06:25:01.000Z</time>
      </trkpt>
      <trkpt lat="43.22051" lon="2.32912">
        <ele>109.8</ele>
        <time>2019-07-14T06:25:02.000Z</time>
      </trkpt>
      <trkpt lat="43.22052" lon="2.32911">
        <ele>109.8</ele>
        <time>2019-07-14T06:25:03.000Z</time>
      </trkpt>
      <trkpt lat="43.22052" lon="2.32911">
        <ele>109.8</ele>
        <time>2019-07-14T06:25:04.000Z</time>
      </trkpt>
      <trkpt lat="43.22053" lon="2.3291">
        <ele>109.8</ele>
        <time>2019-07-14T06:25:05.000Z</time>
      </trkpt>
      <trkpt lat="43.22053" lon="2.3291">
        <ele>109.8</ele>
        <time>2019-07-14T06:25:06.000Z</time>
      </trkpt>
      <trkpt lat="43.22053" lon="2.32909">
        <ele>109.8</ele>
        <time>2019-07-14T06:25:07.000Z</time>
      </trkpt>
      <trkpt lat="43.22054" lon="2.32909">
        <ele>109.8</ele>
        <time>2019-07-14T06:25:08.000Z</time>
      </trkpt>
      <trkpt lat="43.22055" lon="2.32908">
        <ele>109.8</ele>
        <time>2019-07-14T06:25:09.000Z</time>
      </trkpt>
      <trkpt lat="43.22055" lon="2.32907">
        <ele>109.8</ele>
        <time>2019-07-14T06:25:10.000Z</time>
      </trkpt>
      <trkpt lat="43.22056" lon="2.32906">
        <ele>109.7</ele>
        <time>2019-07-14T06:25:11.000Z</time>
      </trkpt>
      <trkpt lat="43.22057" lon="2.32905">
        <ele>109.7</ele>
        <time>2019-07-14T06:25:12.000Z</time>
      </trkpt>
      <trkpt lat="43.22057" lon="2.32904">
        <ele>109.7</ele>
        <time>2019-07-14T06:25:13.000Z</time>
      </trkpt>
      <trkpt lat="43.22058" lon="2.32903">
        <ele>109.7</ele>
        <time>2019-07-14T06:25:14.000Z</time>
      </trkpt>
      <trkpt lat="43.22059" lon="2.32902">
        <ele>109.7</ele>
        <time>2019-07-14T06:25:15.000Z</time>
      </trkpt>
      <trkpt lat="43.22059" lon="2.32901">
        <ele>109.7</ele>
        <time>2019-07-14T06:25:16.000Z</time>
      </trkpt>
      <trkpt lat="43.2206" lon="2.329">
        <ele>109.7</ele>
        <time>2019-07-14T06:25:17.000Z</time>
      </trkpt>
      <trkpt lat="43.22061" lon="2.32899">
        <ele>109.7</ele>
        <time>2019-07-14T06:25:18.000Z</time>
      </trkpt>
      <trkpt lat="43.22062" lon="2.32898">
        <ele>109.7</ele>
        <time>2019-07-14T06:25:19.000Z</time>
      </trkpt>
      <trkpt lat="43.22063" lon="2.32897">
        <ele>109.7</ele>
        <time>2019-07-14T06:25:20.000Z</time>
      </trkpt>
      <trkpt lat="43.22064" lon="2.32896">
        <ele>109.7</ele>
        <time>2019-07-14T06:25:21.000Z</time>
      </trkpt>
      <trkpt lat="43.22065" lon="2.32895">
        <ele>109.7</ele>
        <time>2019-07-14T06:25:22.000Z</time>
      </trkpt>
      <trkpt lat="43.22066" lon="2.32894">
        <ele>109.7</ele>
        <time>2019-07-14T06:25:23.000Z</time>
      </trkpt>
      <trkpt lat="43.22067" lon="2.32893">
        <ele>109.7</ele>
        <time>2019-07-14T06:25:24.000Z</time>
      </trkpt>
      <trkpt lat="43.22068" lon="2.32892">
        <ele>109.7</ele>
        <time>2019-07-14T06:25:25.000Z</time>
      </trkpt>
      <trkpt lat="43.22069" lon="2.32891">
        <ele>109.8</ele>
        <time>2019-07-14T06:25:26.000Z</time>
      </trkpt>
      <trkpt lat="43.2207" lon="2.3289">
        <ele>109.8</ele>
        <time>2019-07-14T06:25:27.000Z</time>
      </trkpt>
      <trkpt lat="43.2207" lon="2.32888">
        <ele>109.8</ele>
        <time>2019-07-14T06:25:28.000Z</time>
      </trkpt>
      <trkpt lat="43.22071" lon="2.32887">
        <ele>109.8</ele>
        <time>2019-07-14T06:25:29.000Z</time>
      </trkpt>
      <trkpt lat="43.22073" lon="2.32886">
        <ele>109.8</ele>
        <time>2019-07-14T06:25:30.000Z</time>
      </trkpt>
      <trkpt lat="43.22074" lon="2.32885">
        <ele>109.8</ele>
        <time>2019-07-14T06:25:31.000Z</time>
      </trkpt>
      <trkpt lat="43.22075" lon="2.32884">
        <ele>109.8</ele>
        <time>2019-07-14T06:25:32.000Z</time>
      </trkpt>
      <trkpt lat="43.22076" lon="2.32882">
        <ele>109.9</ele>
        <time>2019-07-14T06:25:33.000Z</time>
      </trkpt>
      <trkpt lat="43.22078" lon="2.32881">
        <ele>109.9</ele>
        <time>2019-07-14T06:25:34.000Z</time>
      </trkpt>
      <trkpt lat="43.2208" lon="2.3288">
        <ele>109.9</ele>
        <time>2019-07-14T06:25:35.000Z</time>
      </trkpt>
      <trkpt lat="43.22082" lon="2.32879">
        <ele>109.9</ele>
        <time>2019-07-14T06:25:36.000Z</time>
      </trkpt>
      <trkpt lat="43.22084" lon="2.32878">
        <ele>109.9</ele>
        <time>2019-07-14T06:25:37.000Z</time>
      </trkpt>
      <trkpt lat="43.22086" lon="2.32878">
        <ele>109.8</ele>
        <time>2019-07-14T06:25:38.000Z</time>
      </trkpt>
      <trkpt lat="43.22088" lon="2.32877">
        <ele>109.7</ele>
        <time>2019-07-14T06:25:39.000Z</time>
      </trkpt>
      <trkpt lat="43.2209" lon="2.32876">
        <ele>109.6</ele>
        <time>2019-07-14T06:25:40.000Z</time>
      </trkpt>
      <trkpt lat="43.22093" lon="2.32875">
        <ele>109.4</ele>
        <time>2019-07-14T06:25:41.000Z</time>
      </trkpt>
      <trkpt lat="43.22095" lon="2.32874">
        <ele>109.3</ele>
        <time>2019-07-14T06:25:42.000Z</time>
      </trkpt>
      <trkpt lat="43.22098" lon="2.32873">
        <ele>109.2</ele>
        <time>2019-07-14T06:25:43.000Z</time>
      </trkpt>
      <trkpt lat="43.221" lon="2.32872">
        <ele>109</ele>
        <time>2019-07-14T06:25:44.000Z</time>
      </trkpt>
      <trkpt lat="43.22103" lon="2.32871">
        <ele>108.9</ele>
        <time>2019-07-14T06:25:45.000Z</time>
      </trkpt>
      <trkpt lat="43.22105" lon="2.3287">
        <ele>108.8</ele>
        <time>2019-07-14T06:25:46.000Z</time>
      </trkpt>
      <trkpt lat="43.22108" lon="2.32869">
        <ele>108.6</ele>
        <time>2019-07-14T06:25:47.000Z</time>
      </trkpt>
      <trkpt lat="43.22111" lon="2.32868">
        <ele>108.5</ele>
        <time>2019-07-14T06:25:48.000Z</time>
      </trkpt>
      <trkpt lat="43.22113" lon="2.32867">
        <ele>108.3</ele>
        <time>2019-07-14T06:25:49.000Z</time>
      </trkpt>
      <trkpt lat="43.22116" lon="2.32866">
        <ele>108.2</ele>
        <time>2019-07-14T06:25:50.000Z</time>
      </trkpt>
      <trkpt lat="43.22119" lon="2.32866">
        <ele>108</ele>
        <time>2019-07-14T06:25:51.000Z</time>
      </trkpt>
      <trkpt lat="43.22121" lon="2.32866">
        <ele>107.9</ele>
        <time>2019-07-14T06:25:52.000Z</time>
      </trkpt>
      <trkpt lat="43.22124" lon="2.32866">
        <ele>107.7</ele>
        <time>2019-07-14T06:25:53.000Z</time>
      </trkpt>
      <trkpt lat="43.22127" lon="2.32867">
        <ele>107.5</ele>
        <time>2019-07-14T06:25:54.000Z</time>
      </trkpt>
      <trkpt lat="43.22129" lon="2.32868">
        <ele>107.3</ele>
        <time>2019-07-14T06:25:55.000Z</time>
      </trkpt>
      <trkpt lat="43.22132" lon="2.3287">
        <ele>107.1</ele>
        <time>2019-07-14T06:25:56.000Z</time>
      </trkpt>
      <trkpt lat="43.22135" lon="2.32871">
        <ele>107</ele>
        <time>2019-07-14T06:25:57.000Z</time>
      </trkpt>
      <trkpt lat="43.22137" lon="2.32872">
        <ele>106.8</ele>
        <time>2019-07-14T06:25:58.000Z</time>
      </trkpt>
      <trkpt lat="43.22139" lon="2.32873">
        <ele>106.7</ele>
        <time>2019-07-14T06:25:59.000Z</time>
      </trkpt>
      <trkpt lat="43.22142" lon="2.32874">
        <ele>106.5</ele>
        <time>2019-07-14T06:26:00.000Z</time>
      </trkpt>
      <trkpt lat="43.22144" lon="2.32876">
        <ele>106.4</ele>
        <time>2019-07-14T06:26:01.000Z</time>
      </trkpt>
      <trkpt lat="43.22146" lon="2.32877">
        <ele>106.2</ele>
        <time>2019-07-14T06:26:02.000Z</time>
      </trkpt>
      <trkpt lat="43.22148" lon="2.32878">
        <ele>106.1</ele>
        <time>2019-07-14T06:26:03.000Z</time>
      </trkpt>
      <trkpt lat="43.22151" lon="2.32879">
        <ele>105.9</ele>
        <time>2019-07-14T06:26:04.000Z</time>
      </trkpt>
      <trkpt lat="43.22153" lon="2.32881">
        <ele>105.8</ele>
        <time>2019-07-14T06:26:05.000Z</time>
      </trkpt>
      <trkpt lat="43.22155" lon="2.32882">
        <ele>105.7</ele>
        <time>2019-07-14T06:26:06.000Z</time>
      </trkpt>
      <trkpt lat="43.22157" lon="2.32884">
        <ele>105.5</ele>
        <time>2019-07-14T06:26:07.000Z</time>
      </trkpt>
      <trkpt lat="43.2216" lon="2.32885">
        <ele>105.4</ele>
        <time>2019-07-14T06:26:08.000Z</time>
      </trkpt>
      <trkpt lat="43.22162" lon="2.32887">
        <ele>105.3</ele>
        <time>2019-07-14T06:26:09.000Z</time>
      </trkpt>
      <trkpt lat="43.22164" lon="2.32888">
        <ele>105.1</ele>
        <time>2019-07-14T06:26:10.000Z</time>
      </trkpt>
      <trkpt lat="43.22167" lon="2.3289">
        <ele>105</ele>
        <time>2019-07-14T06:26:11.000Z</time>
      </trkpt>
      <trkpt lat="43.22169" lon="2.32891">
        <ele>105</ele>
        <time>2019-07-14T06:26:12.000Z</time>
      </trkpt>
      <trkpt lat="43.22171" lon="2.32893">
        <ele>105</ele>
        <time>2019-07-14T06:26:13.000Z</time>
      </trkpt>
      <trkpt lat="43.22173" lon="2.32894">
        <ele>105</ele>
        <time>2019-07-14T06:26:14.000Z</time>
      </trkpt>
      <trkpt lat="43.22176" lon="2.32896">
        <ele>105</ele>
        <time>2019-07-14T06:26:15.000Z</time>
      </trkpt>
      <trkpt lat="43.22178" lon="2.32897">
        <ele>105</ele>
        <time>2019-07-14T06:26:16.000Z</time>
      </trkpt>
      <trkpt lat="43.2218" lon="2.32898">
        <ele>105</ele>
        <time>2019-07-14T06:26:17.000Z</time>
      </trkpt>
      <trkpt lat="43.22182" lon="2.32899">
        <ele>105</ele>
        <time>2019-07-14T06:26:18.000Z</time>
      </trkpt>
      <trkpt lat="43.22184" lon="2.329">
        <ele>105</ele>
        <time>2019-07-14T06:26:19.000Z</time>
      </trkpt>
      <trkpt lat="43.22186" lon="2.32901">
        <ele>105</ele>
        <time>2019-07-14T06:26:20.000Z</time>
      </trkpt>
      <trkpt lat="43.22188" lon="2.32902">
        <ele>105</ele>
        <time>2019-07-14T06:26:21.000Z</time>
      </trkpt>
      <trkpt lat="43.2219" lon="2.32903">
        <ele>105</ele>
        <time>2019-07-14T06:26:22.000Z</time>
      </trkpt>
      <trkpt lat="43.22192" lon="2.32904">
        <ele>105</ele>
        <time>2019-07-14T06:26:23.000Z</time>
      </trkpt>
      <trkpt lat="43.22194" lon="2.32905">
        <ele>105</ele>
        <time>2019-07-14T06:26:24.000Z</time>
      </trkpt>
      <trkpt lat="43.22196" lon="2.32906">
        <ele>105</ele>
        <time>2019-07-14T06:26:25.000Z</time>
      </trkpt>
      <trkpt lat="43.22198" lon="2.32906">
        <ele>105</ele>
        <time>2019-07-14T06:26:26.000Z</time>
      </trkpt>
      <trkpt lat="43.22201" lon="2.32907">
        <ele>105</ele>
        <time>2019-07-14T06:26:27.000Z</time>
      </trkpt>
      <trkpt lat="43.22203" lon="2.32908">
        <ele>105</ele>
        <time>2019-07-14T06:26:28.000Z</time>
      </trkpt>
      <trkpt lat="43.22205" lon="2.3291">
        <ele>105</ele>
        <time>2019-07-14T06:26:29.000Z</time>
      </trkpt>
      <trkpt lat="43.22207" lon="2.32911">
        <ele>105</ele>
        <time>2019-07-14T06:26:30.000Z</time>
      </trkpt>
      <trkpt lat="43.2221" lon="2.32912">
        <ele>105</ele>
        <time>2019-07-14T06:26:31.000Z</time>
      </trkpt>
      <trkpt lat="43.22212" lon="2.32914">
        <ele>105</ele>
        <time>2019-07-14T06:26:32.000Z</time>
      </trkpt>
      <trkpt lat="43.22215" lon="2.32915">
        <ele>105</ele>
        <time>2019-07-14T06:26:33.000Z</time>
      </trkpt>
      <trkpt lat="43.22217" lon="2.32917">
        <ele>105</ele>
        <time>2019-07-14T06:26:34.000Z</time>
      </trkpt>
      <trkpt lat="43.2222" lon="2.32918">
        <ele>105</ele>
        <time>2019-07-14T06:26:35.000Z</time>
      </trkpt>
      <trkpt lat="43.22222" lon="2.3292">
        <ele>105</ele>
        <time>2019-07-14T06:26:36.000Z</time>
      </trkpt>
      <trkpt lat="43.22224" lon="2.32921">
        <ele>105</ele>
        <time>2019-07-14T06:26:37.000Z</time>
      </trkpt>
      <trkpt lat="43.22227" lon="2.32923">
        <ele>105.1</ele>
        <time>2019-07-14T06:26:38.000Z</time>
      </trkpt>
      <trkpt lat="43.22229" lon="2.32924">
        <ele>105.1</ele>
        <time>2019-07-14T06:26:39.000Z</time>
      </trkpt>
      <trkpt lat="43.22232" lon="2.32926">
        <ele>105.1</ele>
        <time>2019-07-14T06:26:40.000Z</time>
      </trkpt>
      <trkpt lat="43.22234" lon="2.32927">
        <ele>105.1</ele>
        <time>2019-07-14T06:26:41.000Z</time>
      </trkpt>
      <trkpt lat="43.22236" lon="2.32928">
        <ele>105.1</ele>
        <time>2019-07-14T06:26:42.000Z</time>
      </trkpt>
      <trkpt lat="43.22239" lon="2.3293">
        <ele>105.1</ele>
        <time>2019-07-14T06:26:43.000Z</time>
      </trkpt>
      <trkpt lat="43.22241" lon="2.32931">
        <ele>105.2</ele>
        <time>2019-07-14T06:26:44.000Z</time>
      </trkpt>
      <trkpt lat="43.22243" lon="2.32932">
        <ele>105.2</ele>
        <time>2019-07-14T06:26:45.000Z</time>
      </trkpt>
      <trkpt lat="43.22246" lon="2.32934">
        <ele>105.2</ele>
        <time>2019-07-14T06:26:46.000Z</time>
      </trkpt>
      <trkpt lat="43.22248" lon="2.32935">
        <ele>105.2</ele>
        <time>2019-07-14T06:26:47.000Z</time>
      </trkpt>
      <trkpt lat="43.2225" lon="2.32936">
        <ele>105.2</ele>
        <time>2019-07-14T06:26:48.000Z</time>
      </trkpt>
      <trkpt lat="43.22252" lon="2.32937">
        <ele>105.2</ele>
        <time>2019-07-14T06:26:49.000Z</time>
      </trkpt>
      <trkpt lat="43.22254" lon="2.32938">
        <ele>105.2</ele>
        <time>2019-07-14T06:26:50.000Z</time>
      </trkpt>
      <trkpt lat="43.22256" lon="2.3294">
        <ele>105.2</ele>
        <time>2019-07-14T06:26:51.000Z</time>
      </trkpt>
      <trkpt lat="43.22258" lon="2.32941">
        <ele>105.2</ele>
        <time>2019-07-14T06:26:52.000Z</time>
      </trkpt>
      <trkpt lat="43.2226" lon="2.32942">
        <ele>105.3</ele>
        <time>2019-07-14T06:26:53.000Z</time>
      </trkpt>
      <trkpt lat="43.22262" lon="2.32943">
        <ele>105.3</ele>
        <time>2019-07-14T06:26:54.000Z</time>
      </trkpt>
      <trkpt lat="43.22264" lon="2.32944">
        <ele>105.3</ele>
        <time>2019-07-14T06:26:55.000Z</time>
      </trkpt>
      <trkpt lat="43.22266" lon="2.32945">
        <ele>105.3</ele>
        <time>2019-07-14T06:26:56.000Z</time>
      </trkpt>
      <trkpt lat="43.22268" lon="2.32946">
        <ele>105.3</ele>
        <time>2019-07-14T06:26:57.000Z</time>
      </trkpt>
      <trkpt lat="43.2227" lon="2.32947">
        <ele>105.3</ele>
        <time>2019-07-14T06:26:58.000Z</time>
      </trkpt>
      <trkpt lat="43.22272" lon="2.32948">
        <ele>105.3</ele>
        <time>2019-07-14T06:26:59.000Z</time>
      </trkpt>
      <trkpt lat="43.22275" lon="2.32949">
        <ele>105.3</ele>
        <time>2019-07-14T06:27:00.000Z</time>
      </trkpt>
      <trkpt lat="43.22277" lon="2.3295">
        <ele>105.3</ele>
        <time>2019-07-14T06:27:01.000Z</time>
      </trkpt>
      <trkpt lat="43.2228" lon="2.32951">
        <ele>105.4</ele>
        <time>2019-07-14T06:27:02.000Z</time>
      </trkpt>
      <trkpt lat="43.22282" lon="2.32953">
        <ele>105.4</ele>
        <time>2019-07-14T06:27:03.000Z</time>
      </trkpt>
      <trkpt lat="43.22285" lon="2.32954">
        <ele>105.4</ele>
        <time>2019-07-14T06:27:04.000Z</time>
      </trkpt>
      <trkpt lat="43.22288" lon="2.32955">
        <ele>105.4</ele>
        <time>2019-07-14T06:27:05.000Z</time>
      </trkpt>
      <trkpt lat="43.2229" lon="2.32957">
        <ele>105.5</ele>
        <time>2019-07-14T06:27:06.000Z</time>
      </trkpt>
      <trkpt lat="43.22293" lon="2.32958">
        <ele>105.5</ele>
        <time>2019-07-14T06:27:07.000Z</time>
      </trkpt>
      <trkpt lat="43.22296" lon="2.3296">
        <ele>105.5</ele>
        <time>2019-07-14T06:27:08.000Z</time>
      </trkpt>
      <trkpt lat="43.22298" lon="2.32961">
        <ele>105.6</ele>
        <time>2019-07-14T06:27:09.000Z</time>
      </trkpt>
      <trkpt lat="43.22301" lon="2.32963">
        <ele>105.6</ele>
        <time>2019-07-14T06:27:10.000Z</time>
      </trkpt>
      <trkpt lat="43.22304" lon="2.32964">
        <ele>105.7</ele>
        <time>2019-07-14T06:27:11.000Z</time>
      </trkpt>
      <trkpt lat="43.22306" lon="2.32966">
        <ele>105.7</ele>
        <time>2019-07-14T06:27:12.000Z</time>
      </trkpt>
      <trkpt lat="43.22309" lon="2.32967">
        <ele>105.8</ele>
        <time>2019-07-14T06:27:13.000Z</time>
      </trkpt>
      <trkpt lat="43.22311" lon="2.32969">
        <ele>105.8</ele>
        <time>2019-07-14T06:27:14.000Z</time>
      </trkpt>
      <trkpt lat="43.22313" lon="2.3297">
        <ele>105.9</ele>
        <time>2019-07-14T06:27:15.000Z</time>
      </trkpt>
      <trkpt lat="43.22315" lon="2.32972">
        <ele>105.9</ele>
        <time>2019-07-14T06:27:16.000Z</time>
      </trkpt>
      <trkpt lat="43.22317" lon="2.32973">
        <ele>106</ele>
        <time>2019-07-14T06:27:17.000Z</time>
      </trkpt>
      <trkpt lat="43.22319" lon="2.32974">
        <ele>106</ele>
        <time>2019-07-14T06:27:18.000Z</time>
      </trkpt>
      <trkpt lat="43.22321" lon="2.32976">
        <ele>106.1</ele>
        <time>2019-07-14T06:27:19.000Z</time>
      </trkpt>
      <trkpt lat="43.22323" lon="2.32977">
        <ele>106.1</ele>
        <time>2019-07-14T06:27:20.000Z</time>
      </trkpt>
      <trkpt lat="43.22326" lon="2.32978">
        <ele>106.2</ele>
        <time>2019-07-14T06:27:21.000Z</time>
      </trkpt>
      <trkpt lat="43.22328" lon="2.32979">
        <ele>106.2</ele>
        <time>2019-07-14T06:27:22.000Z</time>
      </trkpt>
      <trkpt lat="43.22331" lon="2.3298">
        <ele>106.3</ele>
        <time>2019-07-14T06:27:23.000Z</time>
      </trkpt>
      <trkpt lat="43.22333" lon="2.32981">
        <ele>106.3</ele>
        <time>2019-07-14T06:27:24.000Z</time>
      </trkpt>
      <trkpt lat="43.22336" lon="2.32983">
        <ele>106.4</ele>
        <time>2019-07-14T06:27:25.000Z</time>
      </trkpt>
      <trkpt lat="43.22339" lon="2.32984">
        <ele>106.5</ele>
        <time>2019-07-14T06:27:26.000Z</time>
      </trkpt>
      <trkpt lat="43.22341" lon="2.32985">
        <ele>106.6</ele>
        <time>2019-07-14T06:27:27.000Z</time>
      </trkpt>
      <trkpt lat="43.22344" lon="2.32987">
        <ele>106.7</ele>
        <time>2019-07-14T06:27:28.000Z</time>
      </trkpt>
      <trkpt lat="43.22346" lon="2.32989">
        <ele>106.8</ele>
        <time>2019-07-14T06:27:29.000Z</time>
      </trkpt>
      <trkpt lat="43.22347" lon="2.32991">
        <ele>106.9</ele>
        <time>2019-07-14T06:27:30.000Z</time>
      </trkpt>
      <trkpt lat="43.22349" lon="2.32994">
        <ele>107</ele>
        <time>2019-07-14T06:27:31.000Z</time>
      </trkpt>
      <trkpt lat="43.2235" lon="2.32997">
        <ele>107.1</ele>
        <time>2019-07-14T06:27:32.000Z</time>
      </trkpt>
      <trkpt lat="43.22351" lon="2.33">
        <ele>107.2</ele>
        <time>2019-07-14T06:27:33.000Z</time>
      </trkpt>
      <trkpt lat="43.22351" lon="2.33003">
        <ele>107.2</ele>
        <time>2019-07-14T06:27:34.000Z</time>
      </trkpt>
      <trkpt lat="43.22352" lon="2.33007">
        <ele>107.3</ele>
        <time>2019-07-14T06:27:35.000Z</time>
      </trkpt>
      <trkpt lat="43.22352" lon="2.33011">
        <ele>107.3</ele>
        <time>2019-07-14T06:27:36.000Z</time>
      </trkpt>
      <trkpt lat="43.22352" lon="2.33014">
        <ele>107.3</ele>
        <time>2019-07-14T06:27:37.000Z</time>
      </trkpt>
      <trkpt lat="43.22353" lon="2.33018">
        <ele>107.4</ele>
        <time>2019-07-14T06:27:38.000Z</time>
      </trkpt>
      <trkpt lat="43.22354" lon="2.33021">
        <ele>107.4</ele>
        <time>2019-07-14T06:27:39.000Z</time>
      </trkpt>
      <trkpt lat="43.22355" lon="2.33024">
        <ele>107.5</ele>
        <time>2019-07-14T06:27:40.000Z</time>
      </trkpt>
      <trkpt lat="43.22356" lon="2.33027">
        <ele>107.5</ele>
        <time>2019-07-14T06:27:41.000Z</time>
      </trkpt>
      <trkpt lat="43.22357" lon="2.33029">
        <ele>107.6</ele>
        <time>2019-07-14T06:27:42.000Z</time>
      </trkpt>
      <trkpt lat="43.22358" lon="2.33032">
        <ele>107.6</ele>
        <time>2019-07-14T06:27:43.000Z</time>
      </trkpt>
      <trkpt lat="43.2236" lon="2.33034">
        <ele>107.7</ele>
        <time>2019-07-14T06:27:44.000Z</time>
      </trkpt>
      <trkpt lat="43.22361" lon="2.33036">
        <ele>107.8</ele>
        <time>2019-07-14T06:27:45.000Z</time>
      </trkpt>
      <trkpt lat="43.22363" lon="2.33038">
        <ele>107.8</ele>
        <time>2019-07-14T06:27:46.000Z</time>
      </trkpt>
      <trkpt lat="43.22365" lon="2.33039">
        <ele>107.9</ele>
        <time>2019-07-14T06:27:47.000Z</time>
      </trkpt>
      <trkpt lat="43.22367" lon="2.33041">
        <ele>108</ele>
        <time>2019-07-14T06:27:48.000Z</time>
      </trkpt>
      <trkpt lat="43.22369" lon="2.33042">
        <ele>108.1</ele>
        <time>2019-07-14T06:27:49.000Z</time>
      </trkpt>
      <trkpt lat="43.22371" lon="2.33044">
        <ele>108.2</ele>
        <time>2019-07-14T06:27:50.000Z</time>
      </trkpt>
      <trkpt lat="43.22373" lon="2.33045">
        <ele>108.2</ele>
        <time>2019-07-14T06:27:51.000Z</time>
      </trkpt>
      <trkpt lat="43.22375" lon="2.33046">
        <ele>108.3</ele>
        <time>2019-07-14T06:27:52.000Z</time>
      </trkpt>
      <trkpt lat="43.22377" lon="2.33047">
        <ele>108.4</ele>
        <time>2019-07-14T06:27:53.000Z</time>
      </trkpt>
      <trkpt lat="43.2238" lon="2.33048">
        <ele>108.5</ele>
        <time>2019-07-14T06:27:54.000Z</time>
      </trkpt>
      <trkpt lat="43.22382" lon="2.33049">
        <ele>108.6</ele>
        <time>2019-07-14T06:27:55.000Z</time>
      </trkpt>
      <trkpt lat="43.22384" lon="2.3305">
        <ele>108.7</ele>
        <time>2019-07-14T06:27:56.000Z</time>
      </trkpt>
      <trkpt lat="43.22386" lon="2.3305">
        <ele>108.8</ele>
        <time>2019-07-14T06:27:57.000Z</time>
      </trkpt>
      <trkpt lat="43.22389" lon="2.33051">
        <ele>108.9</ele>
        <time>2019-07-14T06:27:58.000Z</time>
      </trkpt>
      <trkpt lat="43.22391" lon="2.33052">
        <ele>109</ele>
        <time>2019-07-14T06:27:59.000Z</time>
      </trkpt>
      <trkpt lat="43.22393" lon="2.33053">
        <ele>109.1</ele>
        <time>2019-07-14T06:28:00.000Z</time>
      </trkpt>
      <trkpt lat="43.22395" lon="2.33054">
        <ele>109.2</ele>
        <time>2019-07-14T06:28:01.000Z</time>
      </trkpt>
      <trkpt lat="43.22398" lon="2.33054">
        <ele>109.3</ele>
        <time>2019-07-14T06:28:02.000Z</time>
      </trkpt>
      <trkpt lat="43.224" lon="2.33055">
        <ele>109.4</ele>
        <time>2019-07-14T06:28:03.000Z</time>
      </trkpt>
      <trkpt lat="43.22402" lon="2.33056">
        <ele>109.5</ele>
        <time>2019-07-14T06:28:04.000Z</time>
      </trkpt>
      <trkpt lat="43.22404" lon="2.33057">
        <ele>109.6</ele>
        <time>2019-07-14T06:28:05.000Z</time>
      </trkpt>
      <trkpt lat="43.22406" lon="2.33058">
        <ele>109.7</ele>
        <time>2019-07-14T06:28:06.000Z</time>
      </trkpt>
      <trkpt lat="43.22408" lon="2.33059">
        <ele>109.8</ele>
        <time>2019-07-14T06:28:07.000Z</time>
      </trkpt>
      <trkpt lat="43.2241" lon="2.3306">
        <ele>109.9</ele>
        <time>2019-07-14T06:28:08.000Z</time>
      </trkpt>
      <trkpt lat="43.22412" lon="2.33062">
        <ele>110.1</ele>
        <time>2019-07-14T06:28:09.000Z</time>
      </trkpt>
      <trkpt lat="43.22414" lon="2.33063">
        <ele>110.2</ele>
        <time>2019-07-14T06:28:10.000Z</time>
      </trkpt>
      <trkpt lat="43.22416" lon="2.33065">
        <ele>110.3</ele>
        <time>2019-07-14T06:28:11.000Z</time>
      </trkpt>
      <trkpt lat="43.22418" lon="2.33067">
        <ele>110.4</ele>
        <time>2019-07-14T06:28:12.000Z</time>
      </trkpt>
      <trkpt lat="43.2242" lon="2.33069">
        <ele>110.5</ele>
        <time>2019-07-14T06:28:13.000Z</time>
      </trkpt>
      <trkpt lat="43.22422" lon="2.3307">
        <ele>110.5</ele>
        <time>2019-07-14T06:28:14.000Z</time>
      </trkpt>
      <trkpt lat="43.22424" lon="2.33072">
        <ele>110.6</ele>
        <time>2019-07-14T06:28:15.000Z</time>
      </trkpt>
      <trkpt lat="43.22425" lon="2.33075">
        <ele>110.7</ele>
        <time>2019-07-14T06:28:16.000Z</time>
      </trkpt>
      <trkpt lat="43.22427" lon="2.33077">
        <ele>110.7</ele>
        <time>2019-07-14T06:28:17.000Z</time>
      </trkpt>
      <trkpt lat="43.22429" lon="2.33079">
        <ele>110.8</ele>
        <time>2019-07-14T06:28:18.000Z</time>
      </trkpt>
      <trkpt lat="43.2243" lon="2.33081">
        <ele>110.9</ele>
        <time>2019-07-14T06:28:19.000Z</time>
      </trkpt>
      <trkpt lat="43.22432" lon="2.33083">
        <ele>111</ele>
        <time>2019-07-14T06:28:20.000Z</time>
      </trkpt>
      <trkpt lat="43.22433" lon="2.33085">
        <ele>111.1</ele>
        <time>2019-07-14T06:28:21.000Z</time>
      </trkpt>
      <trkpt lat="43.22435" lon="2.33087">
        <ele>111.2</ele>
        <time>2019-07-14T06:28:22.000Z</time>
      </trkpt>
      <trkpt lat="43.22437" lon="2.33089">
        <ele>111.3</ele>
        <time>2019-07-14T06:28:23.000Z</time>
      </trkpt>
      <trkpt lat="43.22439" lon="2.3309">
        <ele>111.4</ele>
        <time>2019-07-14T06:28:24.000Z</time>
      </trkpt>
      <trkpt lat="43.2244" lon="2.33092">
        <ele>111.4</ele>
        <time>2019-07-14T06:28:25.000Z</time>
      </trkpt>
      <trkpt lat="43.22442" lon="2.33093">
        <ele>111.5</ele>
        <time>2019-07-14T06:28:26.000Z</time>
      </trkpt>
      <trkpt lat="43.22444" lon="2.33094">
        <ele>111.5</ele>
        <time>2019-07-14T06:28:27.000Z</time>
      </trkpt>
      <trkpt lat="43.22446" lon="2.33095">
        <ele>111.6</ele>
        <time>2019-07-14T06:28:28.000Z</time>
      </trkpt>
      <trkpt lat="43.22448" lon="2.33096">
        <ele>111.6</ele>
        <time>2019-07-14T06:28:29.000Z</time>
      </trkpt>
      <trkpt lat="43.2245" lon="2.33096">
        <ele>111.7</ele>
        <time>2019-07-14T06:28:30.000Z</time>
      </trkpt>
      <trkpt lat="43.22452" lon="2.33097">
        <ele>111.7</ele>
        <time>2019-07-14T06:28:31.000Z</time>
      </trkpt>
      <trkpt lat="43.22454" lon="2.33099">
        <ele>111.8</ele>
        <time>2019-07-14T06:28:32.000Z</time>
      </trkpt>
      <trkpt lat="43.22456" lon="2.331">
        <ele>111.9</ele>
        <time>2019-07-14T06:28:33.000Z</time>
      </trkpt>
      <trkpt lat="43.22458" lon="2.33102">
        <ele>112</ele>
        <time>2019-07-14T06:28:34.000Z</time>
      </trkpt>
      <trkpt lat="43.2246" lon="2.33103">
        <ele>112.1</ele>
        <time>2019-07-14T06:28:35.000Z</time>
      </trkpt>
      <trkpt lat="43.22462" lon="2.33105">
        <ele>112.2</ele>
        <time>2019-07-14T06:28:36.000Z</time>
      </trkpt>
      <trkpt lat="43.22463" lon="2.33106">
        <ele>112.2</ele>
        <time>2019-07-14T06:28:37.000Z</time>
      </trkpt>
      <trkpt lat="43.22465" lon="2.33107">
        <ele>112.3</ele>
        <time>2019-07-14T06:28:38.000Z</time>
      </trkpt>
      <trkpt lat="43.22467" lon="2.33107">
        <ele>112.3</ele>
        <time>2019-07-14T06:28:39.000Z</time>
      </trkpt>
      <trkpt lat="43.22469" lon="2.33107">
        <ele>112.3</ele>
        <time>2019-07-14T06:28:40.000Z</time>
      </trkpt>
      <trkpt lat="43.22471" lon="2.33106">
        <ele>112.2</ele>
        <time>2019-07-14T06:28:41.000Z</time>
      </trkpt>
      <trkpt lat="43.22472" lon="2.33104">
        <ele>112.1</ele>
        <time>2019-07-14T06:28:42.000Z</time>
      </trkpt>
      <trkpt lat="43.22474" lon="2.33102">
        <ele>112</ele>
        <time>2019-07-14T06:28:43.000Z</time>
      </trkpt>
      <trkpt lat="43.22476" lon="2.33099">
        <ele>111.9</ele>
        <time>2019-07-14T06:28:44.000Z</time>
      </trkpt>
      <trkpt lat="43.22477" lon="2.33096">
        <ele>111.7</ele>
        <time>2019-07-14T06:28:45.000Z</time>
      </trkpt>
      <trkpt lat="43.22479" lon="2.33093">
        <ele>111.5</ele>
        <time>2019-07-14T06:28:46.000Z</time>
      </trkpt>
      <trkpt lat="43.2248" lon="2.33089">
        <ele>111.3</ele>
        <time>2019-07-14T06:28:47.000Z</time>
      </trkpt>
      <trkpt lat="43.22481" lon="2.33086">
        <ele>111.2</ele>
        <time>2019-07-14T06:28:48.000Z</time>
      </trkpt>
      <trkpt lat="43.22482" lon="2.33083">
        <ele>111</ele>
        <time>2019-07-14T06:28:49.000Z</time>
      </trkpt>
      <trkpt lat="43.22483" lon="2.33079">
        <ele>110.8</ele>
        <time>2019-07-14T06:28:50.000Z</time>
      </trkpt>
      <trkpt lat="43.22484" lon="2.33076">
        <ele>110.6</ele>
        <time>2019-07-14T06:28:51.000Z</time>
      </trkpt>
      <trkpt lat="43.22485" lon="2.33073">
        <ele>110.4</ele>
        <time>2019-07-14T06:28:52.000Z</time>
      </trkpt>
      <trkpt lat="43.22485" lon="2.33069">
        <ele>110.2</ele>
        <time>2019-07-14T06:28:53.000Z</time>
      </trkpt>
      <trkpt lat="43.22486" lon="2.33066">
        <ele>110</ele>
        <time>2019-07-14T06:28:54.000Z</time>
      </trkpt>
      <trkpt lat="43.22486" lon="2.33062">
        <ele>109.8</ele>
        <time>2019-07-14T06:28:55.000Z</time>
      </trkpt>
      <trkpt lat="43.22487" lon="2.33059">
        <ele>109.6</ele>
        <time>2019-07-14T06:28:56.000Z</time>
      </trkpt>
      <trkpt lat="43.22487" lon="2.33055">
        <ele>109.4</ele>
        <time>2019-07-14T06:28:57.000Z</time>
      </trkpt>
      <trkpt lat="43.22488" lon="2.33051">
        <ele>109.2</ele>
        <time>2019-07-14T06:28:58.000Z</time>
      </trkpt>
      <trkpt lat="43.22489" lon="2.33048">
        <ele>109</ele>
        <time>2019-07-14T06:28:59.000Z</time>
      </trkpt>
      <trkpt lat="43.22489" lon="2.33044">
        <ele>108.8</ele>
        <time>2019-07-14T06:29:00.000Z</time>
      </trkpt>
      <trkpt lat="43.2249" lon="2.33041">
        <ele>108.6</ele>
        <time>2019-07-14T06:29:01.000Z</time>
      </trkpt>
      <trkpt lat="43.22491" lon="2.33038">
        <ele>108.4</ele>
        <time>2019-07-14T06:29:02.000Z</time>
      </trkpt>
      <trkpt lat="43.22493" lon="2.33036">
        <ele>108.3</ele>
        <time>2019-07-14T06:29:03.000Z</time>
      </trkpt>
      <trkpt lat="43.22494" lon="2.33035">
        <ele>108.2</ele>
        <time>2019-07-14T06:29:04.000Z</time>
      </trkpt>
      <trkpt lat="43.22496" lon="2.33035">
        <ele>108.2</ele>
        <time>2019-07-14T06:29:05.000Z</time>
      </trkpt>
      <trkpt lat="43.22498" lon="2.33036">
        <ele>108.2</ele>
        <time>2019-07-14T06:29:06.000Z</time>
      </trkpt>
      <trkpt lat="43.22501" lon="2.33038">
        <ele>108.2</ele>
        <time>2019-07-14T06:29:07.000Z</time>
      </trkpt>
      <trkpt lat="43.22503" lon="2.33039">
        <ele>108.3</ele>
        <time>2019-07-14T06:29:08.000Z</time>
      </trkpt>
      <trkpt lat="43.22504" lon="2.33041">
        <ele>108.4</ele>
        <time>2019-07-14T06:29:09.000Z</time>
      </trkpt>
      <trkpt lat="43.22506" lon="2.33043">
        <ele>108.5</ele>
        <time>2019-07-14T06:29:10.000Z</time>
      </trkpt>
      <trkpt lat="43.22508" lon="2.33046">
        <ele>108.6</ele>
        <time>2019-07-14T06:29:11.000Z</time>
      </trkpt>
      <trkpt lat="43.2251" lon="2.33048">
        <ele>108.7</ele>
        <time>2019-07-14T06:29:12.000Z</time>
      </trkpt>
      <trkpt lat="43.22512" lon="2.3305">
        <ele>108.9</ele>
        <time>2019-07-14T06:29:13.000Z</time>
      </trkpt>
      <trkpt lat="43.22515" lon="2.33053">
        <ele>109</ele>
        <time>2019-07-14T06:29:14.000Z</time>
      </trkpt>
      <trkpt lat="43.22517" lon="2.33055">
        <ele>109.1</ele>
        <time>2019-07-14T06:29:15.000Z</time>
      </trkpt>
      <trkpt lat="43.22519" lon="2.33057">
        <ele>109.2</ele>
        <time>2019-07-14T06:29:16.000Z</time>
      </trkpt>
      <trkpt lat="43.22521" lon="2.3306">
        <ele>109.3</ele>
        <time>2019-07-14T06:29:17.000Z</time>
      </trkpt>
      <trkpt lat="43.22524" lon="2.33062">
        <ele>109.4</ele>
        <time>2019-07-14T06:29:18.000Z</time>
      </trkpt>
      <trkpt lat="43.22526" lon="2.33064">
        <ele>109.5</ele>
        <time>2019-07-14T06:29:19.000Z</time>
      </trkpt>
      <trkpt lat="43.22528" lon="2.33066">
        <ele>109.7</ele>
        <time>2019-07-14T06:29:20.000Z</time>
      </trkpt>
      <trkpt lat="43.2253" lon="2.33069">
        <ele>109.8</ele>
        <time>2019-07-14T06:29:21.000Z</time>
      </trkpt>
      <trkpt lat="43.22532" lon="2.33071">
        <ele>109.9</ele>
        <time>2019-07-14T06:29:22.000Z</time>
      </trkpt>
      <trkpt lat="43.22534" lon="2.33073">
        <ele>110</ele>
        <time>2019-07-14T06:29:23.000Z</time>
      </trkpt>
      <trkpt lat="43.22535" lon="2.33075">
        <ele>110.1</ele>
        <time>2019-07-14T06:29:24.000Z</time>
      </trkpt>
      <trkpt lat="43.22537" lon="2.33077">
        <ele>110.2</ele>
        <time>2019-07-14T06:29:25.000Z</time>
      </trkpt>
      <trkpt lat="43.22539" lon="2.33079">
        <ele>110.3</ele>
        <time>2019-07-14T06:29:26.000Z</time>
      </trkpt>
      <trkpt lat="43.22541" lon="2.33081">
        <ele>110.4</ele>
        <time>2019-07-14T06:29:27.000Z</time>
      </trkpt>
      <trkpt lat="43.22543" lon="2.33083">
        <ele>110.5</ele>
        <time>2019-07-14T06:29:28.000Z</time>
      </trkpt>
      <trkpt lat="43.22545" lon="2.33085">
        <ele>110.5</ele>
        <time>2019-07-14T06:29:29.000Z</time>
      </trkpt>
      <trkpt lat="43.22547" lon="2.33087">
        <ele>110.6</ele>
        <time>2019-07-14T06:29:30.000Z</time>
      </trkpt>
      <trkpt lat="43.22548" lon="2.33089">
        <ele>110.7</ele>
        <time>2019-07-14T06:29:31.000Z</time>
      </trkpt>
      <trkpt lat="43.2255" lon="2.33091">
        <ele>110.8</ele>
        <time>2019-07-14T06:29:32.000Z</time>
      </trkpt>
      <trkpt lat="43.22552" lon="2.33093">
        <ele>110.9</ele>
        <time>2019-07-14T06:29:33.000Z</time>
      </trkpt>
      <trkpt lat="43.22554" lon="2.33095">
        <ele>111</ele>
        <time>2019-07-14T06:29:34.000Z</time>
      </trkpt>
      <trkpt lat="43.22556" lon="2.33097">
        <ele>111</ele>
        <time>2019-07-14T06:29:35.000Z</time>
      </trkpt>
      <trkpt lat="43.22558" lon="2.33099">
        <ele>111.1</ele>
        <time>2019-07-14T06:29:36.000Z</time>
      </trkpt>
      <trkpt lat="43.2256" lon="2.33101">
        <ele>111.2</ele>
        <time>2019-07-14T06:29:37.000Z</time>
      </trkpt>
      <trkpt lat="43.22562" lon="2.33103">
        <ele>111.3</ele>
        <time>2019-07-14T06:29:38.000Z</time>
      </trkpt>
      <trkpt lat="43.22563" lon="2.33105">
        <ele>111.4</ele>
        <time>2019-07-14T06:29:39.000Z</time>
      </trkpt>
      <trkpt lat="43.22565" lon="2.33107">
        <ele>111.4</ele>
        <time>2019-07-14T06:29:40.000Z</time>
      </trkpt>
      <trkpt lat="43.22567" lon="2.3311">
        <ele>111.5</ele>
        <time>2019-07-14T06:29:41.000Z</time>
      </trkpt>
      <trkpt lat="43.22569" lon="2.33112">
        <ele>111.6</ele>
        <time>2019-07-14T06:29:42.000Z</time>
      </trkpt>
      <trkpt lat="43.22571" lon="2.33114">
        <ele>111.7</ele>
        <time>2019-07-14T06:29:43.000Z</time>
      </trkpt>
      <trkpt lat="43.22572" lon="2.33116">
        <ele>111.8</ele>
        <time>2019-07-14T06:29:44.000Z</time>
      </trkpt>
      <trkpt lat="43.22574" lon="2.33118">
        <ele>111.8</ele>
        <time>2019-07-14T06:29:45.000Z</time>
      </trkpt>
      <trkpt lat="43.22576" lon="2.33121">
        <ele>111.9</ele>
        <time>2019-07-14T06:29:46.000Z</time>
      </trkpt>
      <trkpt lat="43.22578" lon="2.33123">
        <ele>112</ele>
        <time>2019-07-14T06:29:47.000Z</time>
      </trkpt>
      <trkpt lat="43.2258" lon="2.33125">
        <ele>112</ele>
        <time>2019-07-14T06:29:48.000Z</time>
      </trkpt>
      <trkpt lat="43.22582" lon="2.33126">
        <ele>112.1</ele>
        <time>2019-07-14T06:29:49.000Z</time>
      </trkpt>
      <trkpt lat="43.22584" lon="2.33128">
        <ele>112.1</ele>
        <time>2019-07-14T06:29:50.000Z</time>
      </trkpt>
      <trkpt lat="43.22586" lon="2.3313">
        <ele>112.2</ele>
        <time>2019-07-14T06:29:51.000Z</time>
      </trkpt>
      <trkpt lat="43.22588" lon="2.33131">
        <ele>112.2</ele>
        <time>2019-07-14T06:29:52.000Z</time>
      </trkpt>
      <trkpt lat="43.2259" lon="2.33132">
        <ele>112.2</ele>
        <time>2019-07-14T06:29:53.000Z</time>
      </trkpt>
      <trkpt lat="43.22592" lon="2.33133">
        <ele>112.3</ele>
        <time>2019-07-14T06:29:54.000Z</time>
      </trkpt>
      <trkpt lat="43.22595" lon="2.33134">
        <ele>112.3</ele>
        <time>2019-07-14T06:29:55.000Z</time>
      </trkpt>
      <trkpt lat="43.22597" lon="2.33136">
        <ele>112.3</ele>
        <time>2019-07-14T06:29:56.000Z</time>
      </trkpt>
      <trkpt lat="43.22599" lon="2.33137">
        <ele>112.3</ele>
        <time>2019-07-14T06:29:57.000Z</time>
      </trkpt>
      <trkpt lat="43.22602" lon="2.33138">
        <ele>112.3</ele>
        <time>2019-07-14T06:29:58.000Z</time>
      </trkpt>
      <trkpt lat="43.22604" lon="2.33139">
        <ele>112.4</ele>
        <time>2019-07-14T06:29:59.000Z</time>
      </trkpt>
      <trkpt lat="43.22606" lon="2.33141">
        <ele>112.4</ele>
        <time>2019-07-14T06:30:00.000Z</time>
      </trkpt>
      <trkpt lat="43.22609" lon="2.33142">
        <ele>112.4</ele>
        <time>2019-07-14T06:30:01.000Z</time>
      </trkpt>
      <trkpt lat="43.22611" lon="2.33144">
        <ele>112.4</ele>
        <time>2019-07-14T06:30:02.000Z</time>
      </trkpt>
      <trkpt lat="43.22613" lon="2.33146">
        <ele>112.5</ele>
        <time>2019-07-14T06:30:03.000Z</time>
      </trkpt>
      <trkpt lat="43.22615" lon="2.33148">
        <ele>112.5</ele>
        <time>2019-07-14T06:30:04.000Z</time>
      </trkpt>
      <trkpt lat="43.22617" lon="2.3315">
        <ele>112.6</ele>
        <time>2019-07-14T06:30:05.000Z</time>
      </trkpt>
      <trkpt lat="43.22619" lon="2.33153">
        <ele>112.6</ele>
        <time>2019-07-14T06:30:06.000Z</time>
      </trkpt>
      <trkpt lat="43.22621" lon="2.33155">
        <ele>112.7</ele>
        <time>2019-07-14T06:30:07.000Z</time>
      </trkpt>
      <trkpt lat="43.22623" lon="2.33158">
        <ele>112.7</ele>
        <time>2019-07-14T06:30:08.000Z</time>
      </trkpt>
      <trkpt lat="43.22625" lon="2.3316">
        <ele>112.8</ele>
        <time>2019-07-14T06:30:09.000Z</time>
      </trkpt>
      <trkpt lat="43.22627" lon="2.33163">
        <ele>112.8</ele>
        <time>2019-07-14T06:30:10.000Z</time>
      </trkpt>
      <trkpt lat="43.22629" lon="2.33165">
        <ele>112.9</ele>
        <time>2019-07-14T06:30:11.000Z</time>
      </trkpt>
      <trkpt lat="43.2263" lon="2.33168">
        <ele>112.9</ele>
        <time>2019-07-14T06:30:12.000Z</time>
      </trkpt>
      <trkpt lat="43.22632" lon="2.33169">
        <ele>112.8</ele>
        <time>2019-07-14T06:30:13.000Z</time>
      </trkpt>
      <trkpt lat="43.22634" lon="2.33171">
        <ele>112.7</ele>
        <time>2019-07-14T06:30:14.000Z</time>
      </trkpt>
      <trkpt lat="43.22636" lon="2.33172">
        <ele>112.7</ele>
        <time>2019-07-14T06:30:15.000Z</time>
      </trkpt>
      <trkpt lat="43.22638" lon="2.33173">
        <ele>112.6</ele>
        <time>2019-07-14T06:30:16.000Z</time>
      </trkpt>
      <trkpt lat="43.2264" lon="2.33174">
        <ele>112.6</ele>
        <time>2019-07-14T06:30:17.000Z</time>
      </trkpt>
      <trkpt lat="43.22642" lon="2.33174">
        <ele>112.5</ele>
        <time>2019-07-14T06:30:18.000Z</time>
      </trkpt>
      <trkpt lat="43.22644" lon="2.33174">
        <ele>112.4</ele>
        <time>2019-07-14T06:30:19.000Z</time>
      </trkpt>
      <trkpt lat="43.22646" lon="2.33174">
        <ele>112.4</ele>
        <time>2019-07-14T06:30:20.000Z</time>
      </trkpt>
      <trkpt lat="43.22648" lon="2.33174">
        <ele>112.3</ele>
        <time>2019-07-14T06:30:21.000Z</time>
      </trkpt>
      <trkpt lat="43.22651" lon="2.33174">
        <ele>112.3</ele>
        <time>2019-07-14T06:30:22.000Z</time>
      </trkpt>
      <trkpt lat="43.22653" lon="2.33173">
        <ele>112.2</ele>
        <time>2019-07-14T06:30:23.000Z</time>
      </trkpt>
      <trkpt lat="43.22656" lon="2.33172">
        <ele>112.2</ele>
        <time>2019-07-14T06:30:24.000Z</time>
      </trkpt>
      <trkpt lat="43.22658" lon="2.33171">
        <ele>112.1</ele>
        <time>2019-07-14T06:30:25.000Z</time>
      </trkpt>
      <trkpt lat="43.22661" lon="2.3317">
        <ele>112.1</ele>
        <time>2019-07-14T06:30:26.000Z</time>
      </trkpt>
      <trkpt lat="43.22663" lon="2.33168">
        <ele>112</ele>
        <time>2019-07-14T06:30:27.000Z</time>
      </trkpt>
      <trkpt lat="43.22666" lon="2.33167">
        <ele>112</ele>
        <time>2019-07-14T06:30:28.000Z</time>
      </trkpt>
      <trkpt lat="43.22669" lon="2.33165">
        <ele>111.8</ele>
        <time>2019-07-14T06:30:29.000Z</time>
      </trkpt>
      <trkpt lat="43.22671" lon="2.33163">
        <ele>111.5</ele>
        <time>2019-07-14T06:30:30.000Z</time>
      </trkpt>
      <trkpt lat="43.22674" lon="2.33161">
        <ele>111.3</ele>
        <time>2019-07-14T06:30:31.000Z</time>
      </trkpt>
      <trkpt lat="43.22677" lon="2.33159">
        <ele>111</ele>
        <time>2019-07-14T06:30:32.000Z</time>
      </trkpt>
      <trkpt lat="43.22679" lon="2.33156">
        <ele>110.7</ele>
        <time>2019-07-14T06:30:33.000Z</time>
      </trkpt>
      <trkpt lat="43.22681" lon="2.33154">
        <ele>110.5</ele>
        <time>2019-07-14T06:30:34.000Z</time>
      </trkpt>
      <trkpt lat="43.22683" lon="2.33151">
        <ele>110.3</ele>
        <time>2019-07-14T06:30:35.000Z</time>
      </trkpt>
      <trkpt lat="43.22685" lon="2.33149">
        <ele>110.1</ele>
        <time>2019-07-14T06:30:36.000Z</time>
      </trkpt>
      <trkpt lat="43.22686" lon="2.33147">
        <ele>110</ele>
        <time>2019-07-14T06:30:37.000Z</time>
      </trkpt>
      <trkpt lat="43.22687" lon="2.33144">
        <ele>109.8</ele>
        <time>2019-07-14T06:30:38.000Z</time>
      </trkpt>
      <trkpt lat="43.22687" lon="2.33142">
        <ele>109.7</ele>
        <time>2019-07-14T06:30:39.000Z</time>
      </trkpt>
      <trkpt lat="43.22688" lon="2.3314">
        <ele>109.7</ele>
        <time>2019-07-14T06:30:40.000Z</time>
      </trkpt>
      <trkpt lat="43.22688" lon="2.33138">
        <ele>109.6</ele>
        <time>2019-07-14T06:30:41.000Z</time>
      </trkpt>
      <trkpt lat="43.22689" lon="2.33137">
        <ele>109.5</ele>
        <time>2019-07-14T06:30:42.000Z</time>
      </trkpt>
      <trkpt lat="43.22689" lon="2.33135">
        <ele>109.5</ele>
        <time>2019-07-14T06:30:43.000Z</time>
      </trkpt>
      <trkpt lat="43.2269" lon="2.33133">
        <ele>109.4</ele>
        <time>2019-07-14T06:30:44.000Z</time>
      </trkpt>
      <trkpt lat="43.22691" lon="2.33132">
        <ele>109.3</ele>
        <time>2019-07-14T06:30:45.000Z</time>
      </trkpt>
      <trkpt lat="43.22692" lon="2.33131">
        <ele>109.2</ele>
        <time>2019-07-14T06:30:46.000Z</time>
      </trkpt>
      <trkpt lat="43.22694" lon="2.3313">
        <ele>109</ele>
        <time>2019-07-14T06:30:47.000Z</time>
      </trkpt>
      <trkpt lat="43.22695" lon="2.33129">
        <ele>108.8</ele>
        <time>2019-07-14T06:30:48.000Z</time>
      </trkpt>
      <trkpt lat="43.22697" lon="2.33128">
        <ele>108.7</ele>
        <time>2019-07-14T06:30:49.000Z</time>
      </trkpt>
      <trkpt lat="43.227" lon="2.33128">
        <ele>108.5</ele>
        <time>2019-07-14T06:30:50.000Z</time>
      </trkpt>
      <trkpt lat="43.22702" lon="2.33127">
        <ele>108.3</ele>
        <time>2019-07-14T06:30:51.000Z</time>
      </trkpt>
      <trkpt lat="43.22705" lon="2.33127">
        <ele>108.1</ele>
        <time>2019-07-14T06:30:52.000Z</time>
      </trkpt>
      <trkpt lat="43.22707" lon="2.33126">
        <ele>107.9</ele>
        <time>2019-07-14T06:30:53.000Z</time>
      </trkpt>
      <trkpt lat="43.2271" lon="2.33126">
        <ele>107.7</ele>
        <time>2019-07-14T06:30:54.000Z</time>
      </trkpt>
      <trkpt lat="43.22712" lon="2.33125">
        <ele>107.5</ele>
        <time>2019-07-14T06:30:55.000Z</time>
      </trkpt>
      <trkpt lat="43.22715" lon="2.33125">
        <ele>107.3</ele>
        <time>2019-07-14T06:30:56.000Z</time>
      </trkpt>
      <trkpt lat="43.22717" lon="2.33125">
        <ele>107.1</ele>
        <time>2019-07-14T06:30:57.000Z</time>
      </trkpt>
      <trkpt lat="43.2272" lon="2.33125">
        <ele>106.9</ele>
        <time>2019-07-14T06:30:58.000Z</time>
      </trkpt>
      <trkpt lat="43.22722" lon="2.33124">
        <ele>106.7</ele>
        <time>2019-07-14T06:30:59.000Z</time>
      </trkpt>
      <trkpt lat="43.22725" lon="2.33124">
        <ele>106.5</ele>
        <time>2019-07-14T06:31:00.000Z</time>
      </trkpt>
      <trkpt lat="43.22727" lon="2.33124">
        <ele>106.3</ele>
        <time>2019-07-14T06:31:01.000Z</time>
      </trkpt>
      <trkpt lat="43.2273" lon="2.33124">
        <ele>106.1</ele>
        <time>2019-07-14T06:31:02.000Z</time>
      </trkpt>
      <trkpt lat="43.22733" lon="2.33125">
        <ele>105.8</ele>
        <time>2019-07-14T06:31:03.000Z</time>
      </trkpt>
      <trkpt lat="43.22735" lon="2.33125">
        <ele>105.6</ele>
        <time>2019-07-14T06:31:04.000Z</time>
      </trkpt>
      <trkpt lat="43.22738" lon="2.33125">
        <ele>105.4</ele>
        <time>2019-07-14T06:31:05.000Z</time>
      </trkpt>
      <trkpt lat="43.22741" lon="2.33125">
        <ele>105.2</ele>
        <time>2019-07-14T06:31:06.000Z</time>
      </trkpt>
      <trkpt lat="43.22744" lon="2.33126">
        <ele>105</ele>
        <time>2019-07-14T06:31:07.000Z</time>
      </trkpt>
      <trkpt lat="43.22746" lon="2.33126">
        <ele>104.8</ele>
        <time>2019-07-14T06:31:08.000Z</time>
      </trkpt>
      <trkpt lat="43.22749" lon="2.33126">
        <ele>104.6</ele>
        <time>2019-07-14T06:31:09.000Z</time>
      </trkpt>
      <trkpt lat="43.22752" lon="2.33127">
        <ele>104.5</ele>
        <time>2019-07-14T06:31:10.000Z</time>
      </trkpt>
      <trkpt lat="43.22754" lon="2.33127">
        <ele>104.4</ele>
        <time>2019-07-14T06:31:11.000Z</time>
      </trkpt>
      <trkpt lat="43.22757" lon="2.33128">
        <ele>104.4</ele>
        <time>2019-07-14T06:31:12.000Z</time>
      </trkpt>
      <trkpt lat="43.2276" lon="2.33128">
        <ele>104.4</ele>
        <time>2019-07-14T06:31:13.000Z</time>
      </trkpt>
      <trkpt lat="43.22763" lon="2.33129">
        <ele>104.3</ele>
        <time>2019-07-14T06:31:14.000Z</time>
      </trkpt>
      <trkpt lat="43.22765" lon="2.33129">
        <ele>104.3</ele>
        <time>2019-07-14T06:31:15.000Z</time>
      </trkpt>
      <trkpt lat="43.22768" lon="2.3313">
        <ele>104.2</ele>
        <time>2019-07-14T06:31:16.000Z</time>
      </trkpt>
      <trkpt lat="43.22771" lon="2.3313">
        <ele>104.2</ele>
        <time>2019-07-14T06:31:17.000Z</time>
      </trkpt>
      <trkpt lat="43.22774" lon="2.33131">
        <ele>104.1</ele>
        <time>2019-07-14T06:31:18.000Z</time>
      </trkpt>
      <trkpt lat="43.22776" lon="2.33131">
        <ele>104.1</ele>
        <time>2019-07-14T06:31:19.000Z</time>
      </trkpt>
      <trkpt lat="43.22779" lon="2.33131">
        <ele>104</ele>
        <time>2019-07-14T06:31:20.000Z</time>
      </trkpt>
      <trkpt lat="43.22782" lon="2.33132">
        <ele>104</ele>
        <time>2019-07-14T06:31:21.000Z</time>
      </trkpt>
      <trkpt lat="43.22784" lon="2.33132">
        <ele>103.9</ele>
        <time>2019-07-14T06:31:22.000Z</time>
      </trkpt>
      <trkpt lat="43.22787" lon="2.33132">
        <ele>103.9</ele>
        <time>2019-07-14T06:31:23.000Z</time>
      </trkpt>
      <trkpt lat="43.2279" lon="2.33133">
        <ele>103.8</ele>
        <time>2019-07-14T06:31:24.000Z</time>
      </trkpt>
      <trkpt lat="43.22792" lon="2.33133">
        <ele>103.8</ele>
        <time>2019-07-14T06:31:25.000Z</time>
      </trkpt>
      <trkpt lat="43.22795" lon="2.33133">
        <ele>103.7</ele>
        <time>2019-07-14T06:31:26.000Z</time>
      </trkpt>
      <trkpt lat="43.22797" lon="2.33133">
        <ele>103.7</ele>
        <time>2019-07-14T06:31:27.000Z</time>
      </trkpt>
      <trkpt lat="43.228" lon="2.33133">
        <ele>103.6</ele>
        <time>2019-07-14T06:31:28.000Z</time>
      </trkpt>
      <trkpt lat="43.22803" lon="2.33133">
        <ele>103.6</ele>
        <time>2019-07-14T06:31:29.000Z</time>
      </trkpt>
      <trkpt lat="43.22805" lon="2.33133">
        <ele>103.5</ele>
        <time>2019-07-14T06:31:30.000Z</time>
      </trkpt>
      <trkpt lat="43.22808" lon="2.33133">
        <ele>103.5</ele>
        <time>2019-07-14T06:31:31.000Z</time>
      </trkpt>
      <trkpt lat="43.22811" lon="2.33133">
        <ele>103.4</ele>
        <time>2019-07-14T06:31:32.000Z</time>
      </trkpt>
      <trkpt lat="43.22813" lon="2.33133">
        <ele>103.4</ele>
        <time>2019-07-14T06:31:33.000Z</time>
      </trkpt>
      <trkpt lat="43.22816" lon="2.33133">
        <ele>103.3</ele>
        <time>2019-07-14T06:31:34.000Z</time>
      </trkpt>
      <trkpt lat="43.22819" lon="2.33133">
        <ele>103.3</ele>
        <time>2019-07-14T06:31:35.000Z</time>
      </trkpt>
      <trkpt lat="43.22821" lon="2.33132">
        <ele>103.2</ele>
        <time>2019-07-14T06:31:36.000Z</time>
      </trkpt>
      <trkpt lat="43.22824" lon="2.33132">
        <ele>103.2</ele>
        <time>2019-07-14T06:31:37.000Z</time>
      </trkpt>
      <trkpt lat="43.22826" lon="2.33132">
        <ele>103.1</ele>
        <time>2019-07-14T06:31:38.000Z</time>
      </trkpt>
      <trkpt lat="43.22829" lon="2.33131">
        <ele>103.1</ele>
        <time>2019-07-14T06:31:39.000Z</time>
      </trkpt>
      <trkpt lat="43.22832" lon="2.33131">
        <ele>103</ele>
        <time>2019-07-14T06:31:40.000Z</time>
      </trkpt>
      <trkpt lat="43.22834" lon="2.33131">
        <ele>102.9</ele>
        <time>2019-07-14T06:31:41.000Z</time>
      </trkpt>
      <trkpt lat="43.22837" lon="2.33131">
        <ele>102.8</ele>
        <time>2019-07-14T06:31:42.000Z</time>
      </trkpt>
      <trkpt lat="43.2284" lon="2.3313">
        <ele>102.7</ele>
        <time>2019-07-14T06:31:43.000Z</time>
      </trkpt>
      <trkpt lat="43.22842" lon="2.3313">
        <ele>102.6</ele>
        <time>2019-07-14T06:31:44.000Z</time>
      </trkpt>
      <trkpt lat="43.22845" lon="2.3313">
        <ele>102.4</ele>
        <time>2019-07-14T06:31:45.000Z</time>
      </trkpt>
      <trkpt lat="43.22848" lon="2.3313">
        <ele>102.3</ele>
        <time>2019-07-14T06:31:46.000Z</time>
      </trkpt>
      <trkpt lat="43.2285" lon="2.3313">
        <ele>102.2</ele>
        <time>2019-07-14T06:31:47.000Z</time>
      </trkpt>
      <trkpt lat="43.22853" lon="2.3313">
        <ele>102.1</ele>
        <time>2019-07-14T06:31:48.000Z</time>
      </trkpt>
      <trkpt lat="43.22856" lon="2.33131">
        <ele>101.9</ele>
        <time>2019-07-14T06:31:49.000Z</time>
      </trkpt>
      <trkpt lat="43.22858" lon="2.33131">
        <ele>101.8</ele>
        <time>2019-07-14T06:31:50.000Z</time>
      </trkpt>
      <trkpt lat="43.22861" lon="2.33131">
        <ele>101.7</ele>
        <time>2019-07-14T06:31:51.000Z</time>
      </trkpt>
      <trkpt lat="43.22864" lon="2.33132">
        <ele>101.5</ele>
        <time>2019-07-14T06:31:52.000Z</time>
      </trkpt>
      <trkpt lat="43.22866" lon="2.33132">
        <ele>101.4</ele>
        <time>2019-07-14T06:31:53.000Z</time>
      </trkpt>
      <trkpt lat="43.22869" lon="2.33132">
        <ele>101.3</ele>
        <time>2019-07-14T06:31:54.000Z</time>
      </trkpt>
      <trkpt lat="43.22872" lon="2.33132">
        <ele>101.2</ele>
        <time>2019-07-14T06:31:55.000Z</time>
      </trkpt>
      <trkpt lat="43.22874" lon="2.33133">
        <ele>101</ele>
        <time>2019-07-14T06:31:56.000Z</time>
      </trkpt>
      <trkpt lat="43.22877" lon="2.33133">
        <ele>100.9</ele>
        <time>2019-07-14T06:31:57.000Z</time>
      </trkpt>
      <trkpt lat="43.22879" lon="2.33133">
        <ele>100.8</ele>
        <time>2019-07-14T06:31:58.000Z</time>
      </trkpt>
      <trkpt lat="43.22882" lon="2.33133">
        <ele>100.7</ele>
        <time>2019-07-14T06:31:59.000Z</time>
      </trkpt>
      <trkpt lat="43.22884" lon="2.33132">
        <ele>100.6</ele>
        <time>2019-07-14T06:32:00.000Z</time>
      </trkpt>
      <trkpt lat="43.22887" lon="2.33132">
        <ele>100.4</ele>
        <time>2019-07-14T06:32:01.000Z</time>
      </trkpt>
      <trkpt lat="43.22889" lon="2.33131">
        <ele>100.3</ele>
        <time>2019-07-14T06:32:02.000Z</time>
      </trkpt>
      <trkpt lat="43.22891" lon="2.3313">
        <ele>100.2</ele>
        <time>2019-07-14T06:32:03.000Z</time>
      </trkpt>
      <trkpt lat="43.22894" lon="2.33129">
        <ele>100.1</ele>
        <time>2019-07-14T06:32:04.000Z</time>
      </trkpt>
      <trkpt lat="43.22896" lon="2.33128">
        <ele>100</ele>
        <time>2019-07-14T06:32:05.000Z</time>
      </trkpt>
      <trkpt lat="43.22898" lon="2.33127">
        <ele>99.9</ele>
        <time>2019-07-14T06:32:06.000Z</time>
      </trkpt>
      <trkpt lat="43.22901" lon="2.33126">
        <ele>99.8</ele>
        <time>2019-07-14T06:32:07.000Z</time>
      </trkpt>
      <trkpt lat="43.22903" lon="2.33124">
        <ele>99.6</ele>
        <time>2019-07-14T06:32:08.000Z</time>
      </trkpt>
      <trkpt lat="43.22906" lon="2.33122">
        <ele>99.5</ele>
        <time>2019-07-14T06:32:09.000Z</time>
      </trkpt>
      <trkpt lat="43.22908" lon="2.3312">
        <ele>99.4</ele>
        <time>2019-07-14T06:32:10.000Z</time>
      </trkpt>
      <trkpt lat="43.22911" lon="2.33118">
        <ele>99.3</ele>
        <time>2019-07-14T06:32:11.000Z</time>
      </trkpt>
      <trkpt lat="43.22913" lon="2.33116">
        <ele>99.2</ele>
        <time>2019-07-14T06:32:12.000Z</time>
      </trkpt>
      <trkpt lat="43.22915" lon="2.33113">
        <ele>99.1</ele>
        <time>2019-07-14T06:32:13.000Z</time>
      </trkpt>
      <trkpt lat="43.22917" lon="2.3311">
        <ele>99</ele>
        <time>2019-07-14T06:32:14.000Z</time>
      </trkpt>
      <trkpt lat="43.22919" lon="2.33107">
        <ele>99</ele>
        <time>2019-07-14T06:32:15.000Z</time>
      </trkpt>
      <trkpt lat="43.2292" lon="2.33104">
        <ele>99</ele>
        <time>2019-07-14T06:32:16.000Z</time>
      </trkpt>
      <trkpt lat="43.22922" lon="2.33101">
        <ele>98.9</ele>
        <time>2019-07-14T06:32:17.000Z</time>
      </trkpt>
      <trkpt lat="43.22923" lon="2.33098">
        <ele>98.9</ele>
        <time>2019-07-14T06:32:18.000Z</time>
      </trkpt>
      <trkpt lat="43.22925" lon="2.33095">
        <ele>98.9</ele>
        <time>2019-07-14T06:32:19.000Z</time>
      </trkpt>
      <trkpt lat="43.22926" lon="2.33092">
        <ele>98.9</ele>
        <time>2019-07-14T06:32:20.000Z</time>
      </trkpt>
      <trkpt lat="43.22928" lon="2.33089">
        <ele>98.9</ele>
        <time>2019-07-14T06:32:21.000Z</time>
      </trkpt>
      <trkpt lat="43.22929" lon="2.33086">
        <ele>98.9</ele>
        <time>2019-07-14T06:32:22.000Z</time>
      </trkpt>
      <trkpt lat="43.2293" lon="2.33083">
        <ele>98.8</ele>
        <time>2019-07-14T06:32:23.000Z</time>
      </trkpt>
      <trkpt lat="43.22931" lon="2.33079">
        <ele>98.9</ele>
        <time>2019-07-14T06:32:24.000Z</time>
      </trkpt>
      <trkpt lat="43.22932" lon="2.33076">
        <ele>98.9</ele>
        <time>2019-07-14T06:32:25.000Z</time>
      </trkpt>
      <trkpt lat="43.22933" lon="2.33073">
        <ele>98.9</ele>
        <time>2019-07-14T06:32:26.000Z</time>
      </trkpt>
      <trkpt lat="43.22934" lon="2.3307">
        <ele>99</ele>
        <time>2019-07-14T06:32:27.000Z</time>
      </trkpt>
      <trkpt lat="43.22935" lon="2.33067">
        <ele>99</ele>
        <time>2019-07-14T06:32:28.000Z</time>
      </trkpt>
      <trkpt lat="43.22936" lon="2.33063">
        <ele>99</ele>
        <time>2019-07-14T06:32:29.000Z</time>
      </trkpt>
      <trkpt lat="43.22937" lon="2.3306">
        <ele>99</ele>
        <time>2019-07-14T06:32:30.000Z</time>
      </trkpt>
      <trkpt lat="43.22938" lon="2.33057">
        <ele>99.1</ele>
        <time>2019-07-14T06:32:31.000Z</time>
      </trkpt>
      <trkpt lat="43.22939" lon="2.33054">
        <ele>99.1</ele>
        <time>2019-07-14T06:32:32.000Z</time>
      </trkpt>
      <trkpt lat="43.22939" lon="2.3305">
        <ele>99.1</ele>
        <time>2019-07-14T06:32:33.000Z</time>
      </trkpt>
      <trkpt lat="43.2294" lon="2.33047">
        <ele>99.2</ele>
        <time>2019-07-14T06:32:34.000Z</time>
      </trkpt>
      <trkpt lat="43.22941" lon="2.33044">
        <ele>99.2</ele>
        <time>2019-07-14T06:32:35.000Z</time>
      </trkpt>
      <trkpt lat="43.22941" lon="2.3304">
        <ele>99.2</ele>
        <time>2019-07-14T06:32:36.000Z</time>
      </trkpt>
      <trkpt lat="43.22942" lon="2.33037">
        <ele>99.3</ele>
        <time>2019-07-14T06:32:37.000Z</time>
      </trkpt>
      <trkpt lat="43.22942" lon="2.33034">
        <ele>99.3</ele>
        <time>2019-07-14T06:32:38.000Z</time>
      </trkpt>
      <trkpt lat="43.22943" lon="2.3303">
        <ele>99.3</ele>
        <time>2019-07-14T06:32:39.000Z</time>
      </trkpt>
      <trkpt lat="43.22943" lon="2.33027">
        <ele>99.4</ele>
        <time>2019-07-14T06:32:40.000Z</time>
      </trkpt>
      <trkpt lat="43.22944" lon="2.33024">
        <ele>99.4</ele>
        <time>2019-07-14T06:32:41.000Z</time>
      </trkpt>
      <trkpt lat="43.22944" lon="2.3302">
        <ele>99.4</ele>
        <time>2019-07-14T06:32:42.000Z</time>
      </trkpt>
      <trkpt lat="43.22944" lon="2.33017">
        <ele>99.5</ele>
        <time>2019-07-14T06:32:43.000Z</time>
      </trkpt>
      <trkpt lat="43.22945" lon="2.33014">
        <ele>99.5</ele>
        <time>2019-07-14T06:32:44.000Z</time>
      </trkpt>
      <trkpt lat="43.22945" lon="2.3301">
        <ele>99.5</ele>
        <time>2019-07-14T06:32:45.000Z</time>
      </trkpt>
      <trkpt lat="43.22946" lon="2.33007">
        <ele>99.6</ele>
        <time>2019-07-14T06:32:46.000Z</time>
      </trkpt>
      <trkpt lat="43.22947" lon="2.33003">
        <ele>99.6</ele>
        <time>2019-07-14T06:32:47.000Z</time>
      </trkpt>
      <trkpt lat="43.22947" lon="2.33">
        <ele>99.6</ele>
        <time>2019-07-14T06:32:48.000Z</time>
      </trkpt>
      <trkpt lat="43.22948" lon="2.32996">
        <ele>99.7</ele>
        <time>2019-07-14T06:32:49.000Z</time>
      </trkpt>
      <trkpt lat="43.22948" lon="2.32993">
        <ele>99.7</ele>
        <time>2019-07-14T06:32:50.000Z</time>
      </trkpt>
      <trkpt lat="43.22949" lon="2.3299">
        <ele>99.8</ele>
        <time>2019-07-14T06:32:51.000Z</time>
      </trkpt>
      <trkpt lat="43.2295" lon="2.32986">
        <ele>99.8</ele>
        <time>2019-07-14T06:32:52.000Z</time>
      </trkpt>
      <trkpt lat="43.22951" lon="2.32983">
        <ele>99.8</ele>
        <time>2019-07-14T06:32:53.000Z</time>
      </trkpt>
      <trkpt lat="43.22952" lon="2.32979">
        <ele>99.9</ele>
        <time>2019-07-14T06:32:54.000Z</time>
      </trkpt>
      <trkpt lat="43.22953" lon="2.32976">
        <ele>99.9</ele>
        <time>2019-07-14T06:32:55.000Z</time>
      </trkpt>
      <trkpt lat="43.22954" lon="2.32972">
        <ele>99.9</ele>
        <time>2019-07-14T06:32:56.000Z</time>
      </trkpt>
      <trkpt lat="43.22954" lon="2.32969">
        <ele>100</ele>
        <time>2019-07-14T06:32:57.000Z</time>
      </trkpt>
      <trkpt lat="43.22955" lon="2.32965">
        <ele>100</ele>
        <time>2019-07-14T06:32:58.000Z</time>
      </trkpt>
      <trkpt lat="43.22956" lon="2.32962">
        <ele>100</ele>
        <time>2019-07-14T06:32:59.000Z</time>
      </trkpt>
      <trkpt lat="43.22957" lon="2.32958">
        <ele>100</ele>
        <time>2019-07-14T06:33:00.000Z</time>
      </trkpt>
      <trkpt lat="43.22958" lon="2.32955">
        <ele>100</ele>
        <time>2019-07-14T06:33:01.000Z</time>
      </trkpt>
      <trkpt lat="43.22959" lon="2.32952">
        <ele>100.1</ele>
        <time>2019-07-14T06:33:02.000Z</time>
      </trkpt>
      <trkpt lat="43.2296" lon="2.32948">
        <ele>100.1</ele>
        <time>2019-07-14T06:33:03.000Z</time>
      </trkpt>
      <trkpt lat="43.22961" lon="2.32945">
        <ele>100.1</ele>
        <time>2019-07-14T06:33:04.000Z</time>
      </trkpt>
      <trkpt lat="43.22962" lon="2.32941">
        <ele>100.1</ele>
        <time>2019-07-14T06:33:05.000Z</time>
      </trkpt>
      <trkpt lat="43.22962" lon="2.32938">
        <ele>100.1</ele>
        <time>2019-07-14T06:33:06.000Z</time>
      </trkpt>
      <trkpt lat="43.22963" lon="2.32934">
        <ele>100.1</ele>
        <time>2019-07-14T06:33:07.000Z</time>
      </trkpt>
      <trkpt lat="43.22964" lon="2.32931">
        <ele>100.2</ele>
        <time>2019-07-14T06:33:08.000Z</time>
      </trkpt>
      <trkpt lat="43.22964" lon="2.32927">
        <ele>100.2</ele>
        <time>2019-07-14T06:33:09.000Z</time>
      </trkpt>
      <trkpt lat="43.22965" lon="2.32924">
        <ele>100.2</ele>
        <time>2019-07-14T06:33:10.000Z</time>
      </trkpt>
      <trkpt lat="43.22965" lon="2.32921">
        <ele>100.2</ele>
        <time>2019-07-14T06:33:11.000Z</time>
      </trkpt>
      <trkpt lat="43.22966" lon="2.32917">
        <ele>100.2</ele>
        <time>2019-07-14T06:33:12.000Z</time>
      </trkpt>
      <trkpt lat="43.22966" lon="2.32914">
        <ele>100.2</ele>
        <time>2019-07-14T06:33:13.000Z</time>
      </trkpt>
      <trkpt lat="43.22967" lon="2.3291">
        <ele>100.2</ele>
        <time>2019-07-14T06:33:14.000Z</time>
      </trkpt>
      <trkpt lat="43.22967" lon="2.32907">
        <ele>100.3</ele>
        <time>2019-07-14T06:33:15.000Z</time>
      </trkpt>
      <trkpt lat="43.22967" lon="2.32903">
        <ele>100.3</ele>
        <time>2019-07-14T06:33:16.000Z</time>
      </trkpt>
      <trkpt lat="43.22968" lon="2.329">
        <ele>100.3</ele>
        <time>2019-07-14T06:33:17.000Z</time>
      </trkpt>
      <trkpt lat="43.22968" lon="2.32896">
        <ele>100.3</ele>
        <time>2019-07-14T06:33:18.000Z</time>
      </trkpt>
      <trkpt lat="43.22969" lon="2.32893">
        <ele>100.3</ele>
        <time>2019-07-14T06:33:19.000Z</time>
      </trkpt>
      <trkpt lat="43.22969" lon="2.3289">
        <ele>100.3</ele>
        <time>2019-07-14T06:33:20.000Z</time>
      </trkpt>
      <trkpt lat="43.2297" lon="2.32886">
        <ele>100.3</ele>
        <time>2019-07-14T06:33:21.000Z</time>
      </trkpt>
      <trkpt lat="43.2297" lon="2.32883">
        <ele>100.3</ele>
        <time>2019-07-14T06:33:22.000Z</time>
      </trkpt>
      <trkpt lat="43.22971" lon="2.3288">
        <ele>100.3</ele>
        <time>2019-07-14T06:33:23.000Z</time>
      </trkpt>
      <trkpt lat="43.22971" lon="2.32876">
        <ele>100.4</ele>
        <time>2019-07-14T06:33:24.000Z</time>
      </trkpt>
      <trkpt lat="43.22972" lon="2.32873">
        <ele>100.4</ele>
        <time>2019-07-14T06:33:25.000Z</time>
      </trkpt>
      <trkpt lat="43.22972" lon="2.3287">
        <ele>100.4</ele>
        <time>2019-07-14T06:33:26.000Z</time>
      </trkpt>
      <trkpt lat="43.22973" lon="2.32866">
        <ele>100.4</ele>
        <time>2019-07-14T06:33:27.000Z</time>
      </trkpt>
      <trkpt lat="43.22973" lon="2.32863">
        <ele>100.4</ele>
        <time>2019-07-14T06:33:28.000Z</time>
      </trkpt>
      <trkpt lat="43.22974" lon="2.3286">
        <ele>100.4</ele>
        <time>2019-07-14T06:33:29.000Z</time>
      </trkpt>
      <trkpt lat="43.22974" lon="2.32856">
        <ele>100.4</ele>
        <time>2019-07-14T06:33:30.000Z</time>
      </trkpt>
      <trkpt lat="43.22975" lon="2.32853">
        <ele>100.5</ele>
        <time>2019-07-14T06:33:31.000Z</time>
      </trkpt>
      <trkpt lat="43.22975" lon="2.32849">
        <ele>100.5</ele>
        <time>2019-07-14T06:33:32.000Z</time>
      </trkpt>
      <trkpt lat="43.22976" lon="2.32846">
        <ele>100.5</ele>
        <time>2019-07-14T06:33:33.000Z</time>
      </trkpt>
      <trkpt lat="43.22977" lon="2.32843">
        <ele>100.5</ele>
        <time>2019-07-14T06:33:34.000Z</time>
      </trkpt>
      <trkpt lat="43.22978" lon="2.32841">
        <ele>100.5</ele>
        <time>2019-07-14T06:33:35.000Z</time>
      </trkpt>
      <trkpt lat="43.2298" lon="2.3284">
        <ele>100.4</ele>
        <time>2019-07-14T06:33:36.000Z</time>
      </trkpt>
      <trkpt lat="43.22983" lon="2.32839">
        <ele>100.4</ele>
        <time>2019-07-14T06:33:37.000Z</time>
      </trkpt>
      <trkpt lat="43.22985" lon="2.32839">
        <ele>100.3</ele>
        <time>2019-07-14T06:33:38.000Z</time>
      </trkpt>
      <trkpt lat="43.22988" lon="2.32839">
        <ele>100.2</ele>
        <time>2019-07-14T06:33:39.000Z</time>
      </trkpt>
      <trkpt lat="43.22991" lon="2.32841">
        <ele>100.2</ele>
        <time>2019-07-14T06:33:40.000Z</time>
      </trkpt>
      <trkpt lat="43.22993" lon="2.32843">
        <ele>100.1</ele>
        <time>2019-07-14T06:33:41.000Z</time>
      </trkpt>
      <trkpt lat="43.22995" lon="2.32846">
        <ele>100</ele>
        <time>2019-07-14T06:33:42.000Z</time>
      </trkpt>
      <trkpt lat="43.22996" lon="2.32849">
        <ele>99.9</ele>
        <time>2019-07-14T06:33:43.000Z</time>
      </trkpt>
      <trkpt lat="43.22998" lon="2.32852">
        <ele>99.8</ele>
        <time>2019-07-14T06:33:44.000Z</time>
      </trkpt>
      <trkpt lat="43.23" lon="2.32855">
        <ele>99.7</ele>
        <time>2019-07-14T06:33:45.000Z</time>
      </trkpt>
      <trkpt lat="43.23001" lon="2.32858">
        <ele>99.7</ele>
        <time>2019-07-14T06:33:46.000Z</time>
      </trkpt>
      <trkpt lat="43.23003" lon="2.32861">
        <ele>99.6</ele>
        <time>2019-07-14T06:33:47.000Z</time>
      </trkpt>
      <trkpt lat="43.23005" lon="2.32864">
        <ele>99.6</ele>
        <time>2019-07-14T06:33:48.000Z</time>
      </trkpt>
      <trkpt lat="43.23006" lon="2.32866">
        <ele>99.5</ele>
        <time>2019-07-14T06:33:49.000Z</time>
      </trkpt>
      <trkpt lat="43.23008" lon="2.32869">
        <ele>99.5</ele>
        <time>2019-07-14T06:33:50.000Z</time>
      </trkpt>
      <trkpt lat="43.2301" lon="2.32871">
        <ele>99.4</ele>
        <time>2019-07-14T06:33:51.000Z</time>
      </trkpt>
      <trkpt lat="43.23012" lon="2.32874">
        <ele>99.4</ele>
        <time>2019-07-14T06:33:52.000Z</time>
      </trkpt>
      <trkpt lat="43.23014" lon="2.32876">
        <ele>99.3</ele>
        <time>2019-07-14T06:33:53.000Z</time>
      </trkpt>
      <trkpt lat="43.23016" lon="2.32878">
        <ele>99.3</ele>
        <time>2019-07-14T06:33:54.000Z</time>
      </trkpt>
      <trkpt lat="43.23017" lon="2.32881">
        <ele>99.3</ele>
        <time>2019-07-14T06:33:55.000Z</time>
      </trkpt>
      <trkpt lat="43.23019" lon="2.32883">
        <ele>99.2</ele>
        <time>2019-07-14T06:33:56.000Z</time>
      </trkpt>
      <trkpt lat="43.23021" lon="2.32886">
        <ele>99.2</ele>
        <time>2019-07-14T06:33:57.000Z</time>
      </trkpt>
      <trkpt lat="43.23023" lon="2.32888">
        <ele>99.2</ele>
        <time>2019-07-14T06:33:58.000Z</time>
      </trkpt>
      <trkpt lat="43.23025" lon="2.3289">
        <ele>99.1</ele>
        <time>2019-07-14T06:33:59.000Z</time>
      </trkpt>
      <trkpt lat="43.23027" lon="2.32893">
        <ele>99.1</ele>
        <time>2019-07-14T06:34:00.000Z</time>
      </trkpt>
      <trkpt lat="43.23028" lon="2.32895">
        <ele>99.1</ele>
        <time>2019-07-14T06:34:01.000Z</time>
      </trkpt>
      <trkpt lat="43.2303" lon="2.32897">
        <ele>99.1</ele>
        <time>2019-07-14T06:34:02.000Z</time>
      </trkpt>
      <trkpt lat="43.23032" lon="2.32899">
        <ele>99</ele>
        <time>2019-07-14T06:34:03.000Z</time>
      </trkpt>
      <trkpt lat="43.23034" lon="2.32902">
        <ele>99</ele>
        <time>2019-07-14T06:34:04.000Z</time>
      </trkpt>
      <trkpt lat="43.23036" lon="2.32904">
        <ele>99</ele>
        <time>2019-07-14T06:34:05.000Z</time>
      </trkpt>
      <trkpt lat="43.23037" lon="2.32906">
        <ele>99</ele>
        <time>2019-07-14T06:34:06.000Z</time>
      </trkpt>
      <trkpt lat="43.23039" lon="2.32909">
        <ele>99</ele>
        <time>2019-07-14T06:34:07.000Z</time>
      </trkpt>
      <trkpt lat="43.23041" lon="2.32911">
        <ele>99</ele>
        <time>2019-07-14T06:34:08.000Z</time>
      </trkpt>
      <trkpt lat="43.23043" lon="2.32913">
        <ele>99</ele>
        <time>2019-07-14T06:34:09.000Z</time>
      </trkpt>
      <trkpt lat="43.23044" lon="2.32915">
        <ele>99</ele>
        <time>2019-07-14T06:34:10.000Z</time>
      </trkpt>
      <trkpt lat="43.23046" lon="2.32917">
        <ele>99</ele>
        <time>2019-07-14T06:34:11.000Z</time>
      </trkpt>
      <trkpt lat="43.23048" lon="2.3292">
        <ele>99</ele>
        <time>2019-07-14T06:34:12.000Z</time>
      </trkpt>
      <trkpt lat="43.23049" lon="2.32922">
        <ele>99</ele>
        <time>2019-07-14T06:34:13.000Z</time>
      </trkpt>
      <trkpt lat="43.23051" lon="2.32924">
        <ele>99.1</ele>
        <time>2019-07-14T06:34:14.000Z</time>
      </trkpt>
      <trkpt lat="43.23053" lon="2.32926">
        <ele>99.1</ele>
        <time>2019-07-14T06:34:15.000Z</time>
      </trkpt>
      <trkpt lat="43.23054" lon="2.32928">
        <ele>99.1</ele>
        <time>2019-07-14T06:34:16.000Z</time>
      </trkpt>
      <trkpt lat="43.23056" lon="2.32931">
        <ele>99.1</ele>
        <time>2019-07-14T06:34:17.000Z</time>
      </trkpt>
      <trkpt lat="43.23058" lon="2.32933">
        <ele>99.1</ele>
        <time>2019-07-14T06:34:18.000Z</time>
      </trkpt>
      <trkpt lat="43.23059" lon="2.32935">
        <ele>99.2</ele>
        <time>2019-07-14T06:34:19.000Z</time>
      </trkpt>
      <trkpt lat="43.23061" lon="2.32937">
        <ele>99.2</ele>
        <time>2019-07-14T06:34:20.000Z</time>
      </trkpt>
      <trkpt lat="43.23063" lon="2.32939">
        <ele>99.2</ele>
        <time>2019-07-14T06:34:21.000Z</time>
      </trkpt>
      <trkpt lat="43.23065" lon="2.32941">
        <ele>99.2</ele>
        <time>2019-07-14T06:34:22.000Z</time>
      </trkpt>
      <trkpt lat="43.23066" lon="2.32943">
        <ele>99.3</ele>
        <time>2019-07-14T06:34:23.000Z</time>
      </trkpt>
      <trkpt lat="43.23068" lon="2.32946">
        <ele>99.3</ele>
        <time>2019-07-14T06:34:24.000Z</time>
      </trkpt>
      <trkpt lat="43.2307" lon="2.32948">
        <ele>99.3</ele>
        <time>2019-07-14T06:34:25.000Z</time>
      </trkpt>
      <trkpt lat="43.23072" lon="2.3295">
        <ele>99.3</ele>
        <time>2019-07-14T06:34:26.000Z</time>
      </trkpt>
      <trkpt lat="43.23074" lon="2.32952">
        <ele>99.4</ele>
        <time>2019-07-14T06:34:27.000Z</time>
      </trkpt>
      <trkpt lat="43.23076" lon="2.32954">
        <ele>99.4</ele>
        <time>2019-07-14T06:34:28.000Z</time>
      </trkpt>
      <trkpt lat="43.23077" lon="2.32957">
        <ele>99.4</ele>
        <time>2019-07-14T06:34:29.000Z</time>
      </trkpt>
      <trkpt lat="43.23079" lon="2.32959">
        <ele>99.5</ele>
        <time>2019-07-14T06:34:30.000Z</time>
      </trkpt>
      <trkpt lat="43.23081" lon="2.32961">
        <ele>99.5</ele>
        <time>2019-07-14T06:34:31.000Z</time>
      </trkpt>
      <trkpt lat="43.23082" lon="2.32964">
        <ele>99.6</ele>
        <time>2019-07-14T06:34:32.000Z</time>
      </trkpt>
      <trkpt lat="43.23084" lon="2.32966">
        <ele>99.6</ele>
        <time>2019-07-14T06:34:33.000Z</time>
      </trkpt>
      <trkpt lat="43.23085" lon="2.32969">
        <ele>99.6</ele>
        <time>2019-07-14T06:34:34.000Z</time>
      </trkpt>
      <trkpt lat="43.23087" lon="2.32971">
        <ele>99.6</ele>
        <time>2019-07-14T06:34:35.000Z</time>
      </trkpt>
      <trkpt lat="43.23088" lon="2.32973">
        <ele>99.7</ele>
        <time>2019-07-14T06:34:36.000Z</time>
      </trkpt>
      <trkpt lat="43.23089" lon="2.32975">
        <ele>99.7</ele>
        <time>2019-07-14T06:34:37.000Z</time>
      </trkpt>
      <trkpt lat="43.2309" lon="2.32977">
        <ele>99.7</ele>
        <time>2019-07-14T06:34:38.000Z</time>
      </trkpt>
      <trkpt lat="43.23091" lon="2.32978">
        <ele>99.7</ele>
        <time>2019-07-14T06:34:39.000Z</time>
      </trkpt>
      <trkpt lat="43.23092" lon="2.32979">
        <ele>99.7</ele>
        <time>2019-07-14T06:34:40.000Z</time>
      </trkpt>
      <trkpt lat="43.23093" lon="2.32979">
        <ele>99.7</ele>
        <time>2019-07-14T06:34:41.000Z</time>
      </trkpt>
      <trkpt lat="43.23094" lon="2.32979">
        <ele>99.7</ele>
        <time>2019-07-14T06:34:42.000Z</time>
      </trkpt>
      <trkpt lat="43.23095" lon="2.32979">
        <ele>99.7</ele>
        <time>2019-07-14T06:34:43.000Z</time>
      </trkpt>
      <trkpt lat="43.23095" lon="2.32978">
        <ele>99.7</ele>
        <time>2019-07-14T06:34:44.000Z</time>
      </trkpt>
      <trkpt lat="43.23096" lon="2.32978">
        <ele>99.7</ele>
        <time>2019-07-14T06:34:45.000Z</time>
      </trkpt>
      <trkpt lat="43.23097" lon="2.32978">
        <ele>99.7</ele>
        <time>2019-07-14T06:34:46.000Z</time>
      </trkpt>
      <trkpt lat="43.23097" lon="2.32977">
        <ele>99.7</ele>
        <time>2019-07-14T06:34:47.000Z</time>
      </trkpt>
      <trkpt lat="43.23098" lon="2.32977">
        <ele>99.6</ele>
        <time>2019-07-14T06:34:48.000Z</time>
      </trkpt>
      <trkpt lat="43.23099" lon="2.32977">
        <ele>99.6</ele>
        <time>2019-07-14T06:34:49.000Z</time>
      </trkpt>
      <trkpt lat="43.23099" lon="2.32978">
        <ele>99.6</ele>
        <time>2019-07-14T06:34:50.000Z</time>
      </trkpt>
      <trkpt lat="43.231" lon="2.32978">
        <ele>99.6</ele>
        <time>2019-07-14T06:34:51.000Z</time>
      </trkpt>
      <trkpt lat="43.23101" lon="2.32979">
        <ele>99.6</ele>
        <time>2019-07-14T06:34:52.000Z</time>
      </trkpt>
      <trkpt lat="43.23101" lon="2.32979">
        <ele>99.6</ele>
        <time>2019-07-14T06:34:53.000Z</time>
      </trkpt>
      <trkpt lat="43.23102" lon="2.3298">
        <ele>99.6</ele>
        <time>2019-07-14T06:34:54.000Z</time>
      </trkpt>
      <trkpt lat="43.23103" lon="2.32981">
        <ele>99.6</ele>
        <time>2019-07-14T06:34:55.000Z</time>
      </trkpt>
      <trkpt lat="43.23104" lon="2.32982">
        <ele>99.6</ele>
        <time>2019-07-14T06:34:56.000Z</time>
      </trkpt>
      <trkpt lat="43.23105" lon="2.32982">
        <ele>99.6</ele>
        <time>2019-07-14T06:34:57.000Z</time>
      </trkpt>
      <trkpt lat="43.23106" lon="2.32983">
        <ele>99.6</ele>
        <time>2019-07-14T06:34:58.000Z</time>
      </trkpt>
      <trkpt lat="43.23107" lon="2.32983">
        <ele>99.6</ele>
        <time>2019-07-14T06:34:59.000Z</time>
      </trkpt>
      <trkpt lat="43.23107" lon="2.32984">
        <ele>99.6</ele>
        <time>2019-07-14T06:35:00.000Z</time>
      </trkpt>
      <trkpt lat="43.23108" lon="2.32984">
        <ele>99.6</ele>
        <time>2019-07-14T06:35:01.000Z</time>
      </trkpt>
      <trkpt lat="43.23109" lon="2.32984">
        <ele>99.6</ele>
        <time>2019-07-14T06:35:02.000Z</time>
      </trkpt>
      <trkpt lat="43.2311" lon="2.32983">
        <ele>99.6</ele>
        <time>2019-07-14T06:35:03.000Z</time>
      </trkpt>
      <trkpt lat="43.23111" lon="2.32982">
        <ele>99.6</ele>
        <time>2019-07-14T06:35:04.000Z</time>
      </trkpt>
      <trkpt lat="43.23112" lon="2.32981">
        <ele>99.6</ele>
        <time>2019-07-14T06:35:05.000Z</time>
      </trkpt>
      <trkpt lat="43.23113" lon="2.3298">
        <ele>99.6</ele>
        <time>2019-07-14T06:35:06.000Z</time>
      </trkpt>
      <trkpt lat="43.23113" lon="2.32978">
        <ele>99.6</ele>
        <time>2019-07-14T06:35:07.000Z</time>
      </trkpt>
      <trkpt lat="43.23114" lon="2.32977">
        <ele>99.6</ele>
        <time>2019-07-14T06:35:08.000Z</time>
      </trkpt>
      <trkpt lat="43.23115" lon="2.32975">
        <ele>99.5</ele>
        <time>2019-07-14T06:35:09.000Z</time>
      </trkpt>
      <trkpt lat="43.23116" lon="2.32974">
        <ele>99.5</ele>
        <time>2019-07-14T06:35:10.000Z</time>
      </trkpt>
      <trkpt lat="43.23117" lon="2.32973">
        <ele>99.5</ele>
        <time>2019-07-14T06:35:11.000Z</time>
      </trkpt>
      <trkpt lat="43.23118" lon="2.32972">
        <ele>99.5</ele>
        <time>2019-07-14T06:35:12.000Z</time>
      </trkpt>
      <trkpt lat="43.23119" lon="2.32971">
        <ele>99.5</ele>
        <time>2019-07-14T06:35:13.000Z</time>
      </trkpt>
      <trkpt lat="43.2312" lon="2.3297">
        <ele>99.5</ele>
        <time>2019-07-14T06:35:14.000Z</time>
      </trkpt>
      <trkpt lat="43.23121" lon="2.32969">
        <ele>99.5</ele>
        <time>2019-07-14T06:35:15.000Z</time>
      </trkpt>
      <trkpt lat="43.23122" lon="2.32968">
        <ele>99.5</ele>
        <time>2019-07-14T06:35:16.000Z</time>
      </trkpt>
      <trkpt lat="43.23123" lon="2.32967">
        <ele>99.5</ele>
        <time>2019-07-14T06:35:17.000Z</time>
      </trkpt>
      <trkpt lat="43.23124" lon="2.32966">
        <ele>99.5</ele>
        <time>2019-07-14T06:35:18.000Z</time>
      </trkpt>
      <trkpt lat="43.23126" lon="2.32965">
        <ele>99.5</ele>
        <time>2019-07-14T06:35:19.000Z</time>
      </trkpt>
      <trkpt lat="43.23127" lon="2.32963">
        <ele>99.5</ele>
        <time>2019-07-14T06:35:20.000Z</time>
      </trkpt>
      <trkpt lat="43.23129" lon="2.32961">
        <ele>99.5</ele>
        <time>2019-07-14T06:35:21.000Z</time>
      </trkpt>
      <trkpt lat="43.2313" lon="2.32959">
        <ele>99.5</ele>
        <time>2019-07-14T06:35:22.000Z</time>
      </trkpt>
      <trkpt lat="43.23131" lon="2.32957">
        <ele>99.5</ele>
        <time>2019-07-14T06:35:23.000Z</time>
      </trkpt>
      <trkpt lat="43.23132" lon="2.32955">
        <ele>99.5</ele>
        <time>2019-07-14T06:35:24.000Z</time>
      </trkpt>
      <trkpt lat="43.23133" lon="2.32952">
        <ele>99.5</ele>
        <time>2019-07-14T06:35:25.000Z</time>
      </trkpt>
      <trkpt lat="43.23134" lon="2.3295">
        <ele>99.5</ele>
        <time>2019-07-14T06:35:26.000Z</time>
      </trkpt>
      <trkpt lat="43.23134" lon="2.32947">
        <ele>99.5</ele>
        <time>2019-07-14T06:35:27.000Z</time>
      </trkpt>
      <trkpt lat="43.23134" lon="2.32944">
        <ele>99.5</ele>
        <time>2019-07-14T06:35:28.000Z</time>
      </trkpt>
      <trkpt lat="43.23134" lon="2.32941">
        <ele>99.5</ele>
        <time>2019-07-14T06:35:29.000Z</time>
      </trkpt>
      <trkpt lat="43.23134" lon="2.32938">
        <ele>99.6</ele>
        <time>2019-07-14T06:35:30.000Z</time>
      </trkpt>
      <trkpt lat="43.23134" lon="2.32934">
        <ele>99.6</ele>
        <time>2019-07-14T06:35:31.000Z</time>
      </trkpt>
      <trkpt lat="43.23133" lon="2.32931">
        <ele>99.6</ele>
        <time>2019-07-14T06:35:32.000Z</time>
      </trkpt>
      <trkpt lat="43.23133" lon="2.32928">
        <ele>99.6</ele>
        <time>2019-07-14T06:35:33.000Z</time>
      </trkpt>
      <trkpt lat="43.23133" lon="2.32924">
        <ele>99.6</ele>
        <time>2019-07-14T06:35:34.000Z</time>
      </trkpt>
      <trkpt lat="43.23133" lon="2.32921">
        <ele>99.6</ele>
        <time>2019-07-14T06:35:35.000Z</time>
      </trkpt>
      <trkpt lat="43.23134" lon="2.32918">
        <ele>99.6</ele>
        <time>2019-07-14T06:35:36.000Z</time>
      </trkpt>
      <trkpt lat="43.23134" lon="2.32915">
        <ele>99.6</ele>
        <time>2019-07-14T06:35:37.000Z</time>
      </trkpt>
      <trkpt lat="43.23135" lon="2.32912">
        <ele>99.5</ele>
        <time>2019-07-14T06:35:38.000Z</time>
      </trkpt>
      <trkpt lat="43.23136" lon="2.32909">
        <ele>99.5</ele>
        <time>2019-07-14T06:35:39.000Z</time>
      </trkpt>
      <trkpt lat="43.23136" lon="2.32905">
        <ele>99.4</ele>
        <time>2019-07-14T06:35:40.000Z</time>
      </trkpt>
      <trkpt lat="43.23137" lon="2.32902">
        <ele>99.4</ele>
        <time>2019-07-14T06:35:41.000Z</time>
      </trkpt>
      <trkpt lat="43.23138" lon="2.32899">
        <ele>99.3</ele>
        <time>2019-07-14T06:35:42.000Z</time>
      </trkpt>
      <trkpt lat="43.23139" lon="2.32896">
        <ele>99.2</ele>
        <time>2019-07-14T06:35:43.000Z</time>
      </trkpt>
      <trkpt lat="43.2314" lon="2.32892">
        <ele>99.2</ele>
        <time>2019-07-14T06:35:44.000Z</time>
      </trkpt>
      <trkpt lat="43.23141" lon="2.32889">
        <ele>99.1</ele>
        <time>2019-07-14T06:35:45.000Z</time>
      </trkpt>
      <trkpt lat="43.23142" lon="2.32886">
        <ele>99.1</ele>
        <time>2019-07-14T06:35:46.000Z</time>
      </trkpt>
      <trkpt lat="43.23142" lon="2.32882">
        <ele>99</ele>
        <time>2019-07-14T06:35:47.000Z</time>
      </trkpt>
      <trkpt lat="43.23143" lon="2.32879">
        <ele>98.9</ele>
        <time>2019-07-14T06:35:48.000Z</time>
      </trkpt>
      <trkpt lat="43.23144" lon="2.32876">
        <ele>98.9</ele>
        <time>2019-07-14T06:35:49.000Z</time>
      </trkpt>
      <trkpt lat="43.23145" lon="2.32872">
        <ele>98.8</ele>
        <time>2019-07-14T06:35:50.000Z</time>
      </trkpt>
      <trkpt lat="43.23146" lon="2.32869">
        <ele>98.7</ele>
        <time>2019-07-14T06:35:51.000Z</time>
      </trkpt>
      <trkpt lat="43.23147" lon="2.32866">
        <ele>98.7</ele>
        <time>2019-07-14T06:35:52.000Z</time>
      </trkpt>
      <trkpt lat="43.23148" lon="2.32862">
        <ele>98.6</ele>
        <time>2019-07-14T06:35:53.000Z</time>
      </trkpt>
      <trkpt lat="43.23149" lon="2.32859">
        <ele>98.5</ele>
        <time>2019-07-14T06:35:54.000Z</time>
      </trkpt>
      <trkpt lat="43.23149" lon="2.32856">
        <ele>98.5</ele>
        <time>2019-07-14T06:35:55.000Z</time>
      </trkpt>
      <trkpt lat="43.2315" lon="2.32852">
        <ele>98.4</ele>
        <time>2019-07-14T06:35:56.000Z</time>
      </trkpt>
      <trkpt lat="43.23151" lon="2.32849">
        <ele>98.3</ele>
        <time>2019-07-14T06:35:57.000Z</time>
      </trkpt>
      <trkpt lat="43.23152" lon="2.32846">
        <ele>98.3</ele>
        <time>2019-07-14T06:35:58.000Z</time>
      </trkpt>
      <trkpt lat="43.23153" lon="2.32842">
        <ele>98.2</ele>
        <time>2019-07-14T06:35:59.000Z</time>
      </trkpt>
      <trkpt lat="43.23154" lon="2.32839">
        <ele>98.1</ele>
        <time>2019-07-14T06:36:00.000Z</time>
      </trkpt>
      <trkpt lat="43.23154" lon="2.32836">
        <ele>98.1</ele>
        <time>2019-07-14T06:36:01.000Z</time>
      </trkpt>
      <trkpt lat="43.23155" lon="2.32833">
        <ele>98</ele>
        <time>2019-07-14T06:36:02.000Z</time>
      </trkpt>
      <trkpt lat="43.23156" lon="2.3283">
        <ele>98</ele>
        <time>2019-07-14T06:36:03.000Z</time>
      </trkpt>
      <trkpt lat="43.23157" lon="2.32827">
        <ele>98</ele>
        <time>2019-07-14T06:36:04.000Z</time>
      </trkpt>
      <trkpt lat="43.23157" lon="2.32824">
        <ele>98</ele>
        <time>2019-07-14T06:36:05.000Z</time>
      </trkpt>
      <trkpt lat="43.23158" lon="2.32821">
        <ele>98</ele>
        <time>2019-07-14T06:36:06.000Z</time>
      </trkpt>
      <trkpt lat="43.23159" lon="2.32818">
        <ele>98</ele>
        <time>2019-07-14T06:36:07.000Z</time>
      </trkpt>
      <trkpt lat="43.2316" lon="2.32815">
        <ele>98</ele>
        <time>2019-07-14T06:36:08.000Z</time>
      </trkpt>
      <trkpt lat="43.2316" lon="2.32812">
        <ele>98</ele>
        <time>2019-07-14T06:36:09.000Z</time>
      </trkpt>
      <trkpt lat="43.23161" lon="2.3281">
        <ele>98</ele>
        <time>2019-07-14T06:36:10.000Z</time>
      </trkpt>
      <trkpt lat="43.23162" lon="2.32807">
        <ele>98</ele>
        <time>2019-07-14T06:36:11.000Z</time>
      </trkpt>
      <trkpt lat="43.23162" lon="2.32805">
        <ele>98</ele>
        <time>2019-07-14T06:36:12.000Z</time>
      </trkpt>
      <trkpt lat="43.23163" lon="2.32802">
        <ele>98</ele>
        <time>2019-07-14T06:36:13.000Z</time>
      </trkpt>
      <trkpt lat="43.23164" lon="2.328">
        <ele>98</ele>
        <time>2019-07-14T06:36:14.000Z</time>
      </trkpt>
      <trkpt lat="43.23164" lon="2.32798">
        <ele>98</ele>
        <time>2019-07-14T06:36:15.000Z</time>
      </trkpt>
      <trkpt lat="43.23165" lon="2.32795">
        <ele>98</ele>
        <time>2019-07-14T06:36:16.000Z</time>
      </trkpt>
      <trkpt lat="43.23165" lon="2.32793">
        <ele>98</ele>
        <time>2019-07-14T06:36:17.000Z</time>
      </trkpt>
      <trkpt lat="43.23166" lon="2.32791">
        <ele>98</ele>
        <time>2019-07-14T06:36:18.000Z</time>
      </trkpt>
      <trkpt lat="43.23166" lon="2.32789">
        <ele>98</ele>
        <time>2019-07-14T06:36:19.000Z</time>
      </trkpt>
      <trkpt lat="43.23166" lon="2.32787">
        <ele>98</ele>
        <time>2019-07-14T06:36:20.000Z</time>
      </trkpt>
      <trkpt lat="43.23167" lon="2.32785">
        <ele>98</ele>
        <time>2019-07-14T06:36:21.000Z</time>
      </trkpt>
      <trkpt lat="43.23167" lon="2.32783">
        <ele>98</ele>
        <time>2019-07-14T06:36:22.000Z</time>
      </trkpt>
      <trkpt lat="43.23167" lon="2.32781">
        <ele>98</ele>
        <time>2019-07-14T06:36:23.000Z</time>
      </trkpt>
      <trkpt lat="43.23167" lon="2.3278">
        <ele>98</ele>
        <time>2019-07-14T06:36:24.000Z</time>
      </trkpt>
      <trkpt lat="43.23167" lon="2.32778">
        <ele>98</ele>
        <time>2019-07-14T06:36:25.000Z</time>
      </trkpt>
      <trkpt lat="43.23167" lon="2.32776">
        <ele>98</ele>
        <time>2019-07-14T06:36:26.000Z</time>
      </trkpt>
      <trkpt lat="43.23167" lon="2.32775">
        <ele>98</ele>
        <time>2019-07-14T06:36:27.000Z</time>
      </trkpt>
      <trkpt lat="43.23167" lon="2.32773">
        <ele>98</ele>
        <time>2019-07-14T06:36:28.000Z</time>
      </trkpt>
      <trkpt lat="43.23167" lon="2.32772">
        <ele>98</ele>
        <time>2019-07-14T06:36:29.000Z</time>
      </trkpt>
      <trkpt lat="43.23167" lon="2.32771">
        <ele>98</ele>
        <time>2019-07-14T06:36:30.000Z</time>
      </trkpt>
      <trkpt lat="43.23167" lon="2.3277">
        <ele>98</ele>
        <time>2019-07-14T06:36:31.000Z</time>
      </trkpt>
      <trkpt lat="43.23168" lon="2.32769">
        <ele>98</ele>
        <time>2019-07-14T06:36:32.000Z</time>
      </trkpt>
      <trkpt lat="43.23168" lon="2.32768">
        <ele>98</ele>
        <time>2019-07-14T06:36:33.000Z</time>
      </trkpt>
      <trkpt lat="43.23168" lon="2.32767">
        <ele>98</ele>
        <time>2019-07-14T06:36:34.000Z</time>
      </trkpt>
      <trkpt lat="43.23168" lon="2.32766">
        <ele>98</ele>
        <time>2019-07-14T06:36:35.000Z</time>
      </trkpt>
      <trkpt lat="43.23168" lon="2.32765">
        <ele>98</ele>
        <time>2019-07-14T06:36:36.000Z</time>
      </trkpt>
      <trkpt lat="43.23168" lon="2.32765">
        <ele>98</ele>
        <time>2019-07-14T06:36:37.000Z</time>
      </trkpt>
      <trkpt lat="43.23168" lon="2.32765">
        <ele>98</ele>
        <time>2019-07-14T06:36:38.000Z</time>
      </trkpt>
      <trkpt lat="43.23168" lon="2.32764">
        <ele>98</ele>
        <time>2019-07-14T06:36:39.000Z</time>
      </trkpt>
      <trkpt lat="43.23169" lon="2.32764">
        <ele>98</ele>
        <time>2019-07-14T06:36:40.000Z</time>
      </trkpt>
      <trkpt lat="43.23169" lon="2.32764">
        <ele>98</ele>
        <time>2019-07-14T06:36:41.000Z</time>
      </trkpt>
      <trkpt lat="43.23169" lon="2.32764">
        <ele>98</ele>
        <time>2019-07-14T06:36:42.000Z</time>
      </trkpt>
      <trkpt lat="43.23169" lon="2.32764">
        <ele>98</ele>
        <time>2019-07-14T06:36:43.000Z</time>
      </trkpt>
      <trkpt lat="43.23169" lon="2.32764">
        <ele>98</ele>
        <time>2019-07-14T06:36:44.000Z</time>
      </trkpt>
      <trkpt lat="43.2317" lon="2.32764">
        <ele>98.1</ele>
        <time>2019-07-14T06:36:45.000Z</time>
      </trkpt>
      <trkpt lat="43.2317" lon="2.32764">
        <ele>98.1</ele>
        <time>2019-07-14T06:36:46.000Z</time>
      </trkpt>
      <trkpt lat="43.2317" lon="2.32764">
        <ele>98.1</ele>
        <time>2019-07-14T06:36:47.000Z</time>
      </trkpt>
      <trkpt lat="43.2317" lon="2.32763">
        <ele>98.1</ele>
        <time>2019-07-14T06:36:48.000Z</time>
      </trkpt>
      <trkpt lat="43.2317" lon="2.32763">
        <ele>98.1</ele>
        <time>2019-07-14T06:36:49.000Z</time>
      </trkpt>
      <trkpt lat="43.2317" lon="2.32763">
        <ele>98.1</ele>
        <time>2019-07-14T06:36:50.000Z</time>
      </trkpt>
      <trkpt lat="43.2317" lon="2.32763">
        <ele>98.1</ele>
        <time>2019-07-14T06:36:51.000Z</time>
      </trkpt>
      <trkpt lat="43.2317" lon="2.32763">
        <ele>98.1</ele>
        <time>2019-07-14T06:36:52.000Z</time>
      </trkpt>
      <trkpt lat="43.2317" lon="2.32763">
        <ele>98.1</ele>
        <time>2019-07-14T06:36:53.000Z</time>
      </trkpt>
      <trkpt lat="43.2317" lon="2.32763">
        <ele>98.1</ele>
        <time>2019-07-14T06:36:54.000Z</time>
      </trkpt>
      <trkpt lat="43.2317" lon="2.32763">
        <ele>98.1</ele>
        <time>2019-07-14T06:36:55.000Z</time>
      </trkpt>
      <trkpt lat="43.2317" lon="2.32763">
        <ele>98.1</ele>
        <time>2019-07-14T06:36:56.000Z</time>
      </trkpt>
      <trkpt lat="43.2317" lon="2.32763">
        <ele>98.1</ele>
        <time>2019-07-14T06:36:57.000Z</time>
      </trkpt>
      <trkpt lat="43.2317" lon="2.32763">
        <ele>98.1</ele>
        <time>2019-07-14T06:36:58.000Z</time>
      </trkpt>
      <trkpt lat="43.2317" lon="2.32763">
        <ele>98.1</ele>
        <time>2019-07-14T06:36:59.000Z</time>
      </trkpt>
      <trkpt lat="43.2317" lon="2.32763">
        <ele>98.1</ele>
        <time>2019-07-14T06:37:00.000Z</time>
      </trkpt>
      <trkpt lat="43.2317" lon="2.32763">
        <ele>98.1</ele>
        <time>2019-07-14T06:37:01.000Z</time>
      </trkpt>
      <trkpt lat="43.2317" lon="2.32763">
        <ele>98.1</ele>
        <time>2019-07-14T06:37:02.000Z</time>
      </trkpt>
      <trkpt lat="43.2317" lon="2.32763">
        <ele>98.1</ele>
        <time>2019-07-14T06:37:03.000Z</time>
      </trkpt>
      <trkpt lat="43.2317" lon="2.32763">
        <ele>98.1</ele>
        <time>2019-07-14T06:37:04.000Z</time>
      </trkpt>
      <trkpt lat="43.2317" lon="2.32763">
        <ele>98.1</ele>
        <time>2019-07-14T06:37:05.000Z</time>
      </trkpt>
      <trkpt lat="43.2317" lon="2.32763">
        <ele>98.1</ele>
        <time>2019-07-14T06:37:06.000Z</time>
      </trkpt>
      <trkpt lat="43.2317" lon="2.32763">
        <ele>98.1</ele>
        <time>2019-07-14T06:37:07.000Z</time>
      </trkpt>
      <trkpt lat="43.2317" lon="2.32763">
        <ele>98.1</ele>
        <time>2019-07-14T06:37:08.000Z</time>
      </trkpt>
      <trkpt lat="43.2317" lon="2.32763">
        <ele>98.1</ele>
        <time>2019-07-14T06:37:09.000Z</time>
      </trkpt>
      <trkpt lat="43.2317" lon="2.32763">
        <ele>98.1</ele>
        <time>2019-07-14T06:37:10.000Z</time>
      </trkpt>
      <trkpt lat="43.2317" lon="2.32763">
        <ele>98.1</ele>
        <time>2019-07-14T06:37:11.000Z</time>
      </trkpt>
      <trkpt lat="43.2317" lon="2.32764">
        <ele>98.1</ele>
        <time>2019-07-14T06:37:12.000Z</time>
      </trkpt>
      <trkpt lat="43.2317" lon="2.32764">
        <ele>98.1</ele>
        <time>2019-07-14T06:37:13.000Z</time>
      </trkpt>
      <trkpt lat="43.2317" lon="2.32764">
        <ele>98.1</ele>
        <time>2019-07-14T06:37:14.000Z</time>
      </trkpt>
      <trkpt lat="43.2317" lon="2.32764">
        <ele>98.1</ele>
        <time>2019-07-14T06:37:15.000Z</time>
      </trkpt>
      <trkpt lat="43.2317" lon="2.32764">
        <ele>98.1</ele>
        <time>2019-07-14T06:37:16.000Z</time>
      </trkpt>
      <trkpt lat="43.2317" lon="2.32764">
        <ele>98.1</ele>
        <time>2019-07-14T06:37:17.000Z</time>
      </trkpt>
      <trkpt lat="43.2317" lon="2.32764">
        <ele>98.1</ele>
        <time>2019-07-14T06:37:18.000Z</time>
      </trkpt>
      <trkpt lat="43.23171" lon="2.32764">
        <ele>98.1</ele>
        <time>2019-07-14T06:37:19.000Z</time>
      </trkpt>
      <trkpt lat="43.23171" lon="2.32764">
        <ele>98.1</ele>
        <time>2019-07-14T06:37:20.000Z</time>
      </trkpt>
      <trkpt lat="43.23172" lon="2.32764">
        <ele>98.1</ele>
        <time>2019-07-14T06:37:21.000Z</time>
      </trkpt>
      <trkpt lat="43.23173" lon="2.32764">
        <ele>98.1</ele>
        <time>2019-07-14T06:37:22.000Z</time>
      </trkpt>
      <trkpt lat="43.23174" lon="2.32764">
        <ele>98.1</ele>
        <time>2019-07-14T06:37:23.000Z</time>
      </trkpt>
      <trkpt lat="43.23174" lon="2.32765">
        <ele>98.1</ele>
        <time>2019-07-14T06:37:24.000Z</time>
      </trkpt>
      <trkpt lat="43.23175" lon="2.32765">
        <ele>98.2</ele>
        <time>2019-07-14T06:37:25.000Z</time>
      </trkpt>
      <trkpt lat="43.23176" lon="2.32766">
        <ele>98.2</ele>
        <time>2019-07-14T06:37:26.000Z</time>
      </trkpt>
      <trkpt lat="43.23176" lon="2.32767">
        <ele>98.2</ele>
        <time>2019-07-14T06:37:27.000Z</time>
      </trkpt>
      <trkpt lat="43.23176" lon="2.32768">
        <ele>98.2</ele>
        <time>2019-07-14T06:37:28.000Z</time>
      </trkpt>
      <trkpt lat="43.23176" lon="2.32768">
        <ele>98.2</ele>
        <time>2019-07-14T06:37:29.000Z</time>
      </trkpt>
      <trkpt lat="43.23176" lon="2.32769">
        <ele>98.2</ele>
        <time>2019-07-14T06:37:30.000Z</time>
      </trkpt>
      <trkpt lat="43.23176" lon="2.3277">
        <ele>98.2</ele>
        <time>2019-07-14T06:37:31.000Z</time>
      </trkpt>
      <trkpt lat="43.23177" lon="2.32771">
        <ele>98.2</ele>
        <time>2019-07-14T06:37:32.000Z</time>
      </trkpt>
      <trkpt lat="43.23177" lon="2.32772">
        <ele>98.2</ele>
        <time>2019-07-14T06:37:33.000Z</time>
      </trkpt>
      <trkpt lat="43.23177" lon="2.32773">
        <ele>98.2</ele>
        <time>2019-07-14T06:37:34.000Z</time>
      </trkpt>
      <trkpt lat="43.23178" lon="2.32773">
        <ele>98.2</ele>
        <time>2019-07-14T06:37:35.000Z</time>
      </trkpt>
      <trkpt lat="43.23178" lon="2.32774">
        <ele>98.3</ele>
        <time>2019-07-14T06:37:36.000Z</time>
      </trkpt>
      <trkpt lat="43.23179" lon="2.32775">
        <ele>98.3</ele>
        <time>2019-07-14T06:37:37.000Z</time>
      </trkpt>
      <trkpt lat="43.2318" lon="2.32776">
        <ele>98.3</ele>
        <time>2019-07-14T06:37:38.000Z</time>
      </trkpt>
      <trkpt lat="43.2318" lon="2.32777">
        <ele>98.3</ele>
        <time>2019-07-14T06:37:39.000Z</time>
      </trkpt>
      <trkpt lat="43.23181" lon="2.32778">
        <ele>98.3</ele>
        <time>2019-07-14T06:37:40.000Z</time>
      </trkpt>
      <trkpt lat="43.23182" lon="2.3278">
        <ele>98.4</ele>
        <time>2019-07-14T06:37:41.000Z</time>
      </trkpt>
      <trkpt lat="43.23182" lon="2.32781">
        <ele>98.4</ele>
        <time>2019-07-14T06:37:42.000Z</time>
      </trkpt>
      <trkpt lat="43.23183" lon="2.32782">
        <ele>98.4</ele>
        <time>2019-07-14T06:37:43.000Z</time>
      </trkpt>
      <trkpt lat="43.23184" lon="2.32783">
        <ele>98.4</ele>
        <time>2019-07-14T06:37:44.000Z</time>
      </trkpt>
      <trkpt lat="43.23184" lon="2.32784">
        <ele>98.5</ele>
        <time>2019-07-14T06:37:45.000Z</time>
      </trkpt>
      <trkpt lat="43.23185" lon="2.32786">
        <ele>98.5</ele>
        <time>2019-07-14T06:37:46.000Z</time>
      </trkpt>
      <trkpt lat="43.23185" lon="2.32787">
        <ele>98.5</ele>
        <time>2019-07-14T06:37:47.000Z</time>
      </trkpt>
      <trkpt lat="43.23186" lon="2.32789">
        <ele>98.5</ele>
        <time>2019-07-14T06:37:48.000Z</time>
      </trkpt>
      <trkpt lat="43.23186" lon="2.3279">
        <ele>98.6</ele>
        <time>2019-07-14T06:37:49.000Z</time>
      </trkpt>
      <trkpt lat="43.23187" lon="2.32791">
        <ele>98.6</ele>
        <time>2019-07-14T06:37:50.000Z</time>
      </trkpt>
      <trkpt lat="43.23187" lon="2.32793">
        <ele>98.6</ele>
        <time>2019-07-14T06:37:51.000Z</time>
      </trkpt>
      <trkpt lat="43.23187" lon="2.32794">
        <ele>98.6</ele>
        <time>2019-07-14T06:37:52.000Z</time>
      </trkpt>
      <trkpt lat="43.23188" lon="2.32795">
        <ele>98.7</ele>
        <time>2019-07-14T06:37:53.000Z</time>
      </trkpt>
      <trkpt lat="43.23188" lon="2.32797">
        <ele>98.7</ele>
        <time>2019-07-14T06:37:54.000Z</time>
      </trkpt>
      <trkpt lat="43.23188" lon="2.32798">
        <ele>98.7</ele>
        <time>2019-07-14T06:37:55.000Z</time>
      </trkpt>
      <trkpt lat="43.23189" lon="2.32799">
        <ele>98.7</ele>
        <time>2019-07-14T06:37:56.000Z</time>
      </trkpt>
      <trkpt lat="43.23189" lon="2.32801">
        <ele>98.7</ele>
        <time>2019-07-14T06:37:57.000Z</time>
      </trkpt>
      <trkpt lat="43.23189" lon="2.32802">
        <ele>98.8</ele>
        <time>2019-07-14T06:37:58.000Z</time>
      </trkpt>
      <trkpt lat="43.23189" lon="2.32803">
        <ele>98.8</ele>
        <time>2019-07-14T06:37:59.000Z</time>
      </trkpt>
      <trkpt lat="43.2319" lon="2.32804">
        <ele>98.8</ele>
        <time>2019-07-14T06:38:00.000Z</time>
      </trkpt>
      <trkpt lat="43.2319" lon="2.32805">
        <ele>98.8</ele>
        <time>2019-07-14T06:38:01.000Z</time>
      </trkpt>
      <trkpt lat="43.23191" lon="2.32807">
        <ele>98.9</ele>
        <time>2019-07-14T06:38:02.000Z</time>
      </trkpt>
      <trkpt lat="43.23191" lon="2.32808">
        <ele>98.9</ele>
        <time>2019-07-14T06:38:03.000Z</time>
      </trkpt>
      <trkpt lat="43.23192" lon="2.32809">
        <ele>98.9</ele>
        <time>2019-07-14T06:38:04.000Z</time>
      </trkpt>
      <trkpt lat="43.23193" lon="2.32811">
        <ele>99</ele>
        <time>2019-07-14T06:38:05.000Z</time>
      </trkpt>
      <trkpt lat="43.23193" lon="2.32812">
        <ele>99</ele>
        <time>2019-07-14T06:38:06.000Z</time>
      </trkpt>
      <trkpt lat="43.23194" lon="2.32813">
        <ele>99.1</ele>
        <time>2019-07-14T06:38:07.000Z</time>
      </trkpt>
      <trkpt lat="43.23194" lon="2.32815">
        <ele>99.1</ele>
        <time>2019-07-14T06:38:08.000Z</time>
      </trkpt>
      <trkpt lat="43.23195" lon="2.32816">
        <ele>99.1</ele>
        <time>2019-07-14T06:38:09.000Z</time>
      </trkpt>
      <trkpt lat="43.23195" lon="2.32817">
        <ele>99.2</ele>
        <time>2019-07-14T06:38:10.000Z</time>
      </trkpt>
      <trkpt lat="43.23196" lon="2.32817">
        <ele>99.2</ele>
        <time>2019-07-14T06:38:11.000Z</time>
      </trkpt>
      <trkpt lat="43.23196" lon="2.32818">
        <ele>99.2</ele>
        <time>2019-07-14T06:38:12.000Z</time>
      </trkpt>
      <trkpt lat="43.23196" lon="2.3282">
        <ele>99.2</ele>
        <time>2019-07-14T06:38:13.000Z</time>
      </trkpt>
      <trkpt lat="43.23196" lon="2.32821">
        <ele>99.3</ele>
        <time>2019-07-14T06:38:14.000Z</time>
      </trkpt>
      <trkpt lat="43.23196" lon="2.32823">
        <ele>99.3</ele>
        <time>2019-07-14T06:38:15.000Z</time>
      </trkpt>
      <trkpt lat="43.23197" lon="2.32825">
        <ele>99.3</ele>
        <time>2019-07-14T06:38:16.000Z</time>
      </trkpt>
      <trkpt lat="43.23197" lon="2.32827">
        <ele>99.4</ele>
        <time>2019-07-14T06:38:17.000Z</time>
      </trkpt>
      <trkpt lat="43.23197" lon="2.32829">
        <ele>99.4</ele>
        <time>2019-07-14T06:38:18.000Z</time>
      </trkpt>
      <trkpt lat="43.23197" lon="2.3283">
        <ele>99.4</ele>
        <time>2019-07-14T06:38:19.000Z</time>
      </trkpt>
      <trkpt lat="43.23197" lon="2.32832">
        <ele>99.4</ele>
        <time>2019-07-14T06:38:20.000Z</time>
      </trkpt>
      <trkpt lat="43.23197" lon="2.32834">
        <ele>99.5</ele>
        <time>2019-07-14T06:38:21.000Z</time>
      </trkpt>
      <trkpt lat="43.23197" lon="2.32835">
        <ele>99.5</ele>
        <time>2019-07-14T06:38:22.000Z</time>
      </trkpt>
      <trkpt lat="43.23198" lon="2.32837">
        <ele>99.5</ele>
        <time>2019-07-14T06:38:23.000Z</time>
      </trkpt>
      <trkpt lat="43.23198" lon="2.32838">
        <ele>99.6</ele>
        <time>2019-07-14T06:38:24.000Z</time>
      </trkpt>
      <trkpt lat="43.23198" lon="2.3284">
        <ele>99.6</ele>
        <time>2019-07-14T06:38:25.000Z</time>
      </trkpt>
      <trkpt lat="43.23199" lon="2.32841">
        <ele>99.7</ele>
        <time>2019-07-14T06:38:26.000Z</time>
      </trkpt>
      <trkpt lat="43.23199" lon="2.32843">
        <ele>99.7</ele>
        <time>2019-07-14T06:38:27.000Z</time>
      </trkpt>
      <trkpt lat="43.232" lon="2.32844">
        <ele>99.7</ele>
        <time>2019-07-14T06:38:28.000Z</time>
      </trkpt>
      <trkpt lat="43.232" lon="2.32845">
        <ele>99.8</ele>
        <time>2019-07-14T06:38:29.000Z</time>
      </trkpt>
      <trkpt lat="43.23201" lon="2.32847">
        <ele>99.8</ele>
        <time>2019-07-14T06:38:30.000Z</time>
      </trkpt>
      <trkpt lat="43.23202" lon="2.32848">
        <ele>99.9</ele>
        <time>2019-07-14T06:38:31.000Z</time>
      </trkpt>
      <trkpt lat="43.23202" lon="2.3285">
        <ele>99.9</ele>
        <time>2019-07-14T06:38:32.000Z</time>
      </trkpt>
      <trkpt lat="43.23203" lon="2.32851">
        <ele>100</ele>
        <time>2019-07-14T06:38:33.000Z</time>
      </trkpt>
      <trkpt lat="43.23203" lon="2.32852">
        <ele>100</ele>
        <time>2019-07-14T06:38:34.000Z</time>
      </trkpt>
      <trkpt lat="43.23204" lon="2.32854">
        <ele>100.1</ele>
        <time>2019-07-14T06:38:35.000Z</time>
      </trkpt>
      <trkpt lat="43.23205" lon="2.32855">
        <ele>100.1</ele>
        <time>2019-07-14T06:38:36.000Z</time>
      </trkpt>
      <trkpt lat="43.23205" lon="2.32856">
        <ele>100.2</ele>
        <time>2019-07-14T06:38:37.000Z</time>
      </trkpt>
      <trkpt lat="43.23206" lon="2.32858">
        <ele>100.2</ele>
        <time>2019-07-14T06:38:38.000Z</time>
      </trkpt>
      <trkpt lat="43.23206" lon="2.32859">
        <ele>100.2</ele>
        <time>2019-07-14T06:38:39.000Z</time>
      </trkpt>
      <trkpt lat="43.23207" lon="2.32861">
        <ele>100.3</ele>
        <time>2019-07-14T06:38:40.000Z</time>
      </trkpt>
      <trkpt lat="43.23207" lon="2.32862">
        <ele>100.3</ele>
        <time>2019-07-14T06:38:41.000Z</time>
      </trkpt>
      <trkpt lat="43.23207" lon="2.32864">
        <ele>100.3</ele>
        <time>2019-07-14T06:38:42.000Z</time>
      </trkpt>
      <trkpt lat="43.23208" lon="2.32865">
        <ele>100.4</ele>
        <time>2019-07-14T06:38:43.000Z</time>
      </trkpt>
      <trkpt lat="43.23208" lon="2.32867">
        <ele>100.4</ele>
        <time>2019-07-14T06:38:44.000Z</time>
      </trkpt>
      <trkpt lat="43.23208" lon="2.32869">
        <ele>100.4</ele>
        <time>2019-07-14T06:38:45.000Z</time>
      </trkpt>
      <trkpt lat="43.23209" lon="2.3287">
        <ele>100.5</ele>
        <time>2019-07-14T06:38:46.000Z</time>
      </trkpt>
      <trkpt lat="43.2321" lon="2.32872">
        <ele>100.5</ele>
        <time>2019-07-14T06:38:47.000Z</time>
      </trkpt>
      <trkpt lat="43.23211" lon="2.32874">
        <ele>100.6</ele>
        <time>2019-07-14T06:38:48.000Z</time>
      </trkpt>
      <trkpt lat="43.23212" lon="2.32876">
        <ele>100.6</ele>
        <time>2019-07-14T06:38:49.000Z</time>
      </trkpt>
      <trkpt lat="43.23213" lon="2.32878">
        <ele>100.7</ele>
        <time>2019-07-14T06:38:50.000Z</time>
      </trkpt>
      <trkpt lat="43.23215" lon="2.3288">
        <ele>100.8</ele>
        <time>2019-07-14T06:38:51.000Z</time>
      </trkpt>
      <trkpt lat="43.23217" lon="2.32882">
        <ele>100.9</ele>
        <time>2019-07-14T06:38:52.000Z</time>
      </trkpt>
      <trkpt lat="43.23219" lon="2.32885">
        <ele>101</ele>
        <time>2019-07-14T06:38:53.000Z</time>
      </trkpt>
      <trkpt lat="43.23221" lon="2.32887">
        <ele>101</ele>
        <time>2019-07-14T06:38:54.000Z</time>
      </trkpt>
      <trkpt lat="43.23223" lon="2.32889">
        <ele>101.1</ele>
        <time>2019-07-14T06:38:55.000Z</time>
      </trkpt>
      <trkpt lat="43.23225" lon="2.32891">
        <ele>101.2</ele>
        <time>2019-07-14T06:38:56.000Z</time>
      </trkpt>
      <trkpt lat="43.23227" lon="2.32893">
        <ele>101.3</ele>
        <time>2019-07-14T06:38:57.000Z</time>
      </trkpt>
      <trkpt lat="43.23228" lon="2.32895">
        <ele>101.3</ele>
        <time>2019-07-14T06:38:58.000Z</time>
      </trkpt>
      <trkpt lat="43.2323" lon="2.32897">
        <ele>101.4</ele>
        <time>2019-07-14T06:38:59.000Z</time>
      </trkpt>
      <trkpt lat="43.23232" lon="2.32899">
        <ele>101.5</ele>
        <time>2019-07-14T06:39:00.000Z</time>
      </trkpt>
      <trkpt lat="43.23234" lon="2.32901">
        <ele>101.5</ele>
        <time>2019-07-14T06:39:01.000Z</time>
      </trkpt>
      <trkpt lat="43.23236" lon="2.32903">
        <ele>101.6</ele>
        <time>2019-07-14T06:39:02.000Z</time>
      </trkpt>
      <trkpt lat="43.23238" lon="2.32905">
        <ele>101.7</ele>
        <time>2019-07-14T06:39:03.000Z</time>
      </trkpt>
      <trkpt lat="43.23239" lon="2.32907">
        <ele>101.7</ele>
        <time>2019-07-14T06:39:04.000Z</time>
      </trkpt>
      <trkpt lat="43.23241" lon="2.32909">
        <ele>101.8</ele>
        <time>2019-07-14T06:39:05.000Z</time>
      </trkpt>
      <trkpt lat="43.23243" lon="2.32911">
        <ele>101.8</ele>
        <time>2019-07-14T06:39:06.000Z</time>
      </trkpt>
      <trkpt lat="43.23245" lon="2.32913">
        <ele>101.9</ele>
        <time>2019-07-14T06:39:07.000Z</time>
      </trkpt>
      <trkpt lat="43.23247" lon="2.32915">
        <ele>101.9</ele>
        <time>2019-07-14T06:39:08.000Z</time>
      </trkpt>
      <trkpt lat="43.23248" lon="2.32917">
        <ele>101.9</ele>
        <time>2019-07-14T06:39:09.000Z</time>
      </trkpt>
      <trkpt lat="43.2325" lon="2.32919">
        <ele>101.9</ele>
        <time>2019-07-14T06:39:10.000Z</time>
      </trkpt>
      <trkpt lat="43.23252" lon="2.32921">
        <ele>102</ele>
        <time>2019-07-14T06:39:11.000Z</time>
      </trkpt>
      <trkpt lat="43.23254" lon="2.32923">
        <ele>102</ele>
        <time>2019-07-14T06:39:12.000Z</time>
      </trkpt>
      <trkpt lat="43.23255" lon="2.32925">
        <ele>102</ele>
        <time>2019-07-14T06:39:13.000Z</time>
      </trkpt>
      <trkpt lat="43.23257" lon="2.32928">
        <ele>102</ele>
        <time>2019-07-14T06:39:14.000Z</time>
      </trkpt>
      <trkpt lat="43.23259" lon="2.3293">
        <ele>102</ele>
        <time>2019-07-14T06:39:15.000Z</time>
      </trkpt>
      <trkpt lat="43.23261" lon="2.32932">
        <ele>102</ele>
        <time>2019-07-14T06:39:16.000Z</time>
      </trkpt>
      <trkpt lat="43.23262" lon="2.32934">
        <ele>101.9</ele>
        <time>2019-07-14T06:39:17.000Z</time>
      </trkpt>
      <trkpt lat="43.23264" lon="2.32936">
        <ele>101.9</ele>
        <time>2019-07-14T06:39:18.000Z</time>
      </trkpt>
      <trkpt lat="43.23266" lon="2.32938">
        <ele>101.9</ele>
        <time>2019-07-14T06:39:19.000Z</time>
      </trkpt>
      <trkpt lat="43.23268" lon="2.3294">
        <ele>101.9</ele>
        <time>2019-07-14T06:39:20.000Z</time>
      </trkpt>
      <trkpt lat="43.23269" lon="2.32943">
        <ele>101.9</ele>
        <time>2019-07-14T06:39:21.000Z</time>
      </trkpt>
      <trkpt lat="43.23271" lon="2.32945">
        <ele>101.8</ele>
        <time>2019-07-14T06:39:22.000Z</time>
      </trkpt>
      <trkpt lat="43.23273" lon="2.32947">
        <ele>101.8</ele>
        <time>2019-07-14T06:39:23.000Z</time>
      </trkpt>
      <trkpt lat="43.23275" lon="2.3295">
        <ele>101.7</ele>
        <time>2019-07-14T06:39:24.000Z</time>
      </trkpt>
      <trkpt lat="43.23276" lon="2.32952">
        <ele>101.7</ele>
        <time>2019-07-14T06:39:25.000Z</time>
      </trkpt>
      <trkpt lat="43.23278" lon="2.32954">
        <ele>101.7</ele>
        <time>2019-07-14T06:39:26.000Z</time>
      </trkpt>
      <trkpt lat="43.2328" lon="2.32956">
        <ele>101.6</ele>
        <time>2019-07-14T06:39:27.000Z</time>
      </trkpt>
      <trkpt lat="43.23282" lon="2.32959">
        <ele>101.6</ele>
        <time>2019-07-14T06:39:28.000Z</time>
      </trkpt>
      <trkpt lat="43.23284" lon="2.32961">
        <ele>101.5</ele>
        <time>2019-07-14T06:39:29.000Z</time>
      </trkpt>
      <trkpt lat="43.23286" lon="2.32963">
        <ele>101.5</ele>
        <time>2019-07-14T06:39:30.000Z</time>
      </trkpt>
      <trkpt lat="43.23288" lon="2.32966">
        <ele>101.4</ele>
        <time>2019-07-14T06:39:31.000Z</time>
      </trkpt>
      <trkpt lat="43.2329" lon="2.32968">
        <ele>101.3</ele>
        <time>2019-07-14T06:39:32.000Z</time>
      </trkpt>
      <trkpt lat="43.23292" lon="2.3297">
        <ele>101.3</ele>
        <time>2019-07-14T06:39:33.000Z</time>
      </trkpt>
      <trkpt lat="43.23294" lon="2.32973">
        <ele>101.2</ele>
        <time>2019-07-14T06:39:34.000Z</time>
      </trkpt>
      <trkpt lat="43.23296" lon="2.32975">
        <ele>101.1</ele>
        <time>2019-07-14T06:39:35.000Z</time>
      </trkpt>
      <trkpt lat="43.23298" lon="2.32978">
        <ele>101</ele>
        <time>2019-07-14T06:39:36.000Z</time>
      </trkpt>
      <trkpt lat="43.233" lon="2.3298">
        <ele>100.9</ele>
        <time>2019-07-14T06:39:37.000Z</time>
      </trkpt>
      <trkpt lat="43.23301" lon="2.32983">
        <ele>100.8</ele>
        <time>2019-07-14T06:39:38.000Z</time>
      </trkpt>
      <trkpt lat="43.23303" lon="2.32985">
        <ele>100.7</ele>
        <time>2019-07-14T06:39:39.000Z</time>
      </trkpt>
      <trkpt lat="43.23305" lon="2.32988">
        <ele>100.6</ele>
        <time>2019-07-14T06:39:40.000Z</time>
      </trkpt>
      <trkpt lat="43.23306" lon="2.3299">
        <ele>100.5</ele>
        <time>2019-07-14T06:39:41.000Z</time>
      </trkpt>
      <trkpt lat="43.23308" lon="2.32993">
        <ele>100.3</ele>
        <time>2019-07-14T06:39:42.000Z</time>
      </trkpt>
      <trkpt lat="43.2331" lon="2.32996">
        <ele>100.2</ele>
        <time>2019-07-14T06:39:43.000Z</time>
      </trkpt>
      <trkpt lat="43.23311" lon="2.32998">
        <ele>100.1</ele>
        <time>2019-07-14T06:39:44.000Z</time>
      </trkpt>
      <trkpt lat="43.23313" lon="2.33001">
        <ele>100</ele>
        <time>2019-07-14T06:39:45.000Z</time>
      </trkpt>
      <trkpt lat="43.23315" lon="2.33003">
        <ele>99.9</ele>
        <time>2019-07-14T06:39:46.000Z</time>
      </trkpt>
      <trkpt lat="43.23317" lon="2.33005">
        <ele>99.8</ele>
        <time>2019-07-14T06:39:47.000Z</time>
      </trkpt>
      <trkpt lat="43.23319" lon="2.33008">
        <ele>99.8</ele>
        <time>2019-07-14T06:39:48.000Z</time>
      </trkpt>
      <trkpt lat="43.23321" lon="2.3301">
        <ele>99.7</ele>
        <time>2019-07-14T06:39:49.000Z</time>
      </trkpt>
      <trkpt lat="43.23322" lon="2.33013">
        <ele>99.7</ele>
        <time>2019-07-14T06:39:50.000Z</time>
      </trkpt>
      <trkpt lat="43.23324" lon="2.33015">
        <ele>99.6</ele>
        <time>2019-07-14T06:39:51.000Z</time>
      </trkpt>
      <trkpt lat="43.23326" lon="2.33017">
        <ele>99.5</ele>
        <time>2019-07-14T06:39:52.000Z</time>
      </trkpt>
      <trkpt lat="43.23328" lon="2.3302">
        <ele>99.5</ele>
        <time>2019-07-14T06:39:53.000Z</time>
      </trkpt>
      <trkpt lat="43.2333" lon="2.33022">
        <ele>99.4</ele>
        <time>2019-07-14T06:39:54.000Z</time>
      </trkpt>
      <trkpt lat="43.23331" lon="2.33024">
        <ele>99.4</ele>
        <time>2019-07-14T06:39:55.000Z</time>
      </trkpt>
      <trkpt lat="43.23333" lon="2.33027">
        <ele>99.4</ele>
        <time>2019-07-14T06:39:56.000Z</time>
      </trkpt>
      <trkpt lat="43.23335" lon="2.33029">
        <ele>99.3</ele>
        <time>2019-07-14T06:39:57.000Z</time>
      </trkpt>
      <trkpt lat="43.23336" lon="2.33031">
        <ele>99.3</ele>
        <time>2019-07-14T06:39:58.000Z</time>
      </trkpt>
      <trkpt lat="43.23338" lon="2.33034">
        <ele>99.3</ele>
        <time>2019-07-14T06:39:59.000Z</time>
      </trkpt>
      <trkpt lat="43.2334" lon="2.33036">
        <ele>99.3</ele>
        <time>2019-07-14T06:40:00.000Z</time>
      </trkpt>
      <trkpt lat="43.23341" lon="2.33038">
        <ele>99.3</ele>
        <time>2019-07-14T06:40:01.000Z</time>
      </trkpt>
      <trkpt lat="43.23343" lon="2.33041">
        <ele>99.3</ele>
        <time>2019-07-14T06:40:02.000Z</time>
      </trkpt>
      <trkpt lat="43.23345" lon="2.33043">
        <ele>99.2</ele>
        <time>2019-07-14T06:40:03.000Z</time>
      </trkpt>
      <trkpt lat="43.23346" lon="2.33046">
        <ele>99.2</ele>
        <time>2019-07-14T06:40:04.000Z</time>
      </trkpt>
      <trkpt lat="43.23348" lon="2.33048">
        <ele>99.2</ele>
        <time>2019-07-14T06:40:05.000Z</time>
      </trkpt>
      <trkpt lat="43.2335" lon="2.3305">
        <ele>99.1</ele>
        <time>2019-07-14T06:40:06.000Z</time>
      </trkpt>
      <trkpt lat="43.23351" lon="2.33053">
        <ele>99.1</ele>
        <time>2019-07-14T06:40:07.000Z</time>
      </trkpt>
      <trkpt lat="43.23353" lon="2.33055">
        <ele>99.1</ele>
        <time>2019-07-14T06:40:08.000Z</time>
      </trkpt>
      <trkpt lat="43.23354" lon="2.33057">
        <ele>99</ele>
        <time>2019-07-14T06:40:09.000Z</time>
      </trkpt>
      <trkpt lat="43.23356" lon="2.3306">
        <ele>99</ele>
        <time>2019-07-14T06:40:10.000Z</time>
      </trkpt>
      <trkpt lat="43.23358" lon="2.33062">
        <ele>98.9</ele>
        <time>2019-07-14T06:40:11.000Z</time>
      </trkpt>
      <trkpt lat="43.23359" lon="2.33065">
        <ele>98.9</ele>
        <time>2019-07-14T06:40:12.000Z</time>
      </trkpt>
      <trkpt lat="43.23361" lon="2.33067">
        <ele>98.9</ele>
        <time>2019-07-14T06:40:13.000Z</time>
      </trkpt>
      <trkpt lat="43.23363" lon="2.3307">
        <ele>98.8</ele>
        <time>2019-07-14T06:40:14.000Z</time>
      </trkpt>
      <trkpt lat="43.23364" lon="2.33072">
        <ele>98.7</ele>
        <time>2019-07-14T06:40:15.000Z</time>
      </trkpt>
      <trkpt lat="43.23366" lon="2.33074">
        <ele>98.7</ele>
        <time>2019-07-14T06:40:16.000Z</time>
      </trkpt>
      <trkpt lat="43.23368" lon="2.33077">
        <ele>98.6</ele>
        <time>2019-07-14T06:40:17.000Z</time>
      </trkpt>
      <trkpt lat="43.2337" lon="2.33079">
        <ele>98.6</ele>
        <time>2019-07-14T06:40:18.000Z</time>
      </trkpt>
      <trkpt lat="43.23372" lon="2.33082">
        <ele>98.5</ele>
        <time>2019-07-14T06:40:19.000Z</time>
      </trkpt>
      <trkpt lat="43.23373" lon="2.33084">
        <ele>98.5</ele>
        <time>2019-07-14T06:40:20.000Z</time>
      </trkpt>
      <trkpt lat="43.23375" lon="2.33087">
        <ele>98.5</ele>
        <time>2019-07-14T06:40:21.000Z</time>
      </trkpt>
      <trkpt lat="43.23377" lon="2.33089">
        <ele>98.6</ele>
        <time>2019-07-14T06:40:22.000Z</time>
      </trkpt>
      <trkpt lat="43.23379" lon="2.33092">
        <ele>98.6</ele>
        <time>2019-07-14T06:40:23.000Z</time>
      </trkpt>
      <trkpt lat="43.23381" lon="2.33094">
        <ele>98.6</ele>
        <time>2019-07-14T06:40:24.000Z</time>
      </trkpt>
      <trkpt lat="43.23383" lon="2.33097">
        <ele>98.7</ele>
        <time>2019-07-14T06:40:25.000Z</time>
      </trkpt>
      <trkpt lat="43.23385" lon="2.33099">
        <ele>98.7</ele>
        <time>2019-07-14T06:40:26.000Z</time>
      </trkpt>
      <trkpt lat="43.23387" lon="2.33102">
        <ele>98.7</ele>
        <time>2019-07-14T06:40:27.000Z</time>
      </trkpt>
      <trkpt lat="43.23389" lon="2.33104">
        <ele>98.8</ele>
        <time>2019-07-14T06:40:28.000Z</time>
      </trkpt>
      <trkpt lat="43.23391" lon="2.33107">
        <ele>98.8</ele>
        <time>2019-07-14T06:40:29.000Z</time>
      </trkpt>
      <trkpt lat="43.23393" lon="2.33109">
        <ele>98.8</ele>
        <time>2019-07-14T06:40:30.000Z</time>
      </trkpt>
      <trkpt lat="43.23394" lon="2.33112">
        <ele>98.8</ele>
        <time>2019-07-14T06:40:31.000Z</time>
      </trkpt>
      <trkpt lat="43.23396" lon="2.33114">
        <ele>98.8</ele>
        <time>2019-07-14T06:40:32.000Z</time>
      </trkpt>
      <trkpt lat="43.23398" lon="2.33117">
        <ele>98.9</ele>
        <time>2019-07-14T06:40:33.000Z</time>
      </trkpt>
      <trkpt lat="43.234" lon="2.33119">
        <ele>98.9</ele>
        <time>2019-07-14T06:40:34.000Z</time>
      </trkpt>
      <trkpt lat="43.23401" lon="2.33122">
        <ele>98.9</ele>
        <time>2019-07-14T06:40:35.000Z</time>
      </trkpt>
      <trkpt lat="43.23403" lon="2.33124">
        <ele>98.9</ele>
        <time>2019-07-14T06:40:36.000Z</time>
      </trkpt>
      <trkpt lat="43.23404" lon="2.33127">
        <ele>98.9</ele>
        <time>2019-07-14T06:40:37.000Z</time>
      </trkpt>
      <trkpt lat="43.23406" lon="2.33129">
        <ele>98.9</ele>
        <time>2019-07-14T06:40:38.000Z</time>
      </trkpt>
      <trkpt lat="43.23408" lon="2.33132">
        <ele>99</ele>
        <time>2019-07-14T06:40:39.000Z</time>
      </trkpt>
      <trkpt lat="43.23409" lon="2.33134">
        <ele>99</ele>
        <time>2019-07-14T06:40:40.000Z</time>
      </trkpt>
      <trkpt lat="43.23411" lon="2.33136">
        <ele>99</ele>
        <time>2019-07-14T06:40:41.000Z</time>
      </trkpt>
      <trkpt lat="43.23412" lon="2.33139">
        <ele>99</ele>
        <time>2019-07-14T06:40:42.000Z</time>
      </trkpt>
      <trkpt lat="43.23414" lon="2.33141">
        <ele>99</ele>
        <time>2019-07-14T06:40:43.000Z</time>
      </trkpt>
      <trkpt lat="43.23416" lon="2.33144">
        <ele>99</ele>
        <time>2019-07-14T06:40:44.000Z</time>
      </trkpt>
      <trkpt lat="43.23417" lon="2.33146">
        <ele>99</ele>
        <time>2019-07-14T06:40:45.000Z</time>
      </trkpt>
      <trkpt lat="43.23419" lon="2.33148">
        <ele>99</ele>
        <time>2019-07-14T06:40:46.000Z</time>
      </trkpt>
      <trkpt lat="43.23421" lon="2.33151">
        <ele>99</ele>
        <time>2019-07-14T06:40:47.000Z</time>
      </trkpt>
      <trkpt lat="43.23423" lon="2.33153">
        <ele>98.9</ele>
        <time>2019-07-14T06:40:48.000Z</time>
      </trkpt>
      <trkpt lat="43.23424" lon="2.33156">
        <ele>98.9</ele>
        <time>2019-07-14T06:40:49.000Z</time>
      </trkpt>
      <trkpt lat="43.23426" lon="2.33158">
        <ele>98.9</ele>
        <time>2019-07-14T06:40:50.000Z</time>
      </trkpt>
      <trkpt lat="43.23428" lon="2.33161">
        <ele>98.9</ele>
        <time>2019-07-14T06:40:51.000Z</time>
      </trkpt>
      <trkpt lat="43.2343" lon="2.33163">
        <ele>98.9</ele>
        <time>2019-07-14T06:40:52.000Z</time>
      </trkpt>
      <trkpt lat="43.23431" lon="2.33165">
        <ele>98.8</ele>
        <time>2019-07-14T06:40:53.000Z</time>
      </trkpt>
      <trkpt lat="43.23433" lon="2.33168">
        <ele>98.8</ele>
        <time>2019-07-14T06:40:54.000Z</time>
      </trkpt>
      <trkpt lat="43.23435" lon="2.3317">
        <ele>98.8</ele>
        <time>2019-07-14T06:40:55.000Z</time>
      </trkpt>
      <trkpt lat="43.23437" lon="2.33173">
        <ele>98.8</ele>
        <time>2019-07-14T06:40:56.000Z</time>
      </trkpt>
      <trkpt lat="43.23438" lon="2.33175">
        <ele>98.8</ele>
        <time>2019-07-14T06:40:57.000Z</time>
      </trkpt>
      <trkpt lat="43.2344" lon="2.33178">
        <ele>98.8</ele>
        <time>2019-07-14T06:40:58.000Z</time>
      </trkpt>
      <trkpt lat="43.23442" lon="2.3318">
        <ele>98.8</ele>
        <time>2019-07-14T06:40:59.000Z</time>
      </trkpt>
      <trkpt lat="43.23443" lon="2.33182">
        <ele>98.8</ele>
        <time>2019-07-14T06:41:00.000Z</time>
      </trkpt>
      <trkpt lat="43.23445" lon="2.33185">
        <ele>98.8</ele>
        <time>2019-07-14T06:41:01.000Z</time>
      </trkpt>
      <trkpt lat="43.23446" lon="2.33187">
        <ele>98.8</ele>
        <time>2019-07-14T06:41:02.000Z</time>
      </trkpt>
      <trkpt lat="43.23448" lon="2.3319">
        <ele>98.9</ele>
        <time>2019-07-14T06:41:03.000Z</time>
      </trkpt>
      <trkpt lat="43.2345" lon="2.33192">
        <ele>98.9</ele>
        <time>2019-07-14T06:41:04.000Z</time>
      </trkpt>
      <trkpt lat="43.23451" lon="2.33195">
        <ele>98.9</ele>
        <time>2019-07-14T06:41:05.000Z</time>
      </trkpt>
      <trkpt lat="43.23453" lon="2.33197">
        <ele>99</ele>
        <time>2019-07-14T06:41:06.000Z</time>
      </trkpt>
      <trkpt lat="43.23455" lon="2.332">
        <ele>99</ele>
        <time>2019-07-14T06:41:07.000Z</time>
      </trkpt>
      <trkpt lat="43.23456" lon="2.33202">
        <ele>99.1</ele>
        <time>2019-07-14T06:41:08.000Z</time>
      </trkpt>
      <trkpt lat="43.23458" lon="2.33204">
        <ele>99.2</ele>
        <time>2019-07-14T06:41:09.000Z</time>
      </trkpt>
      <trkpt lat="43.23459" lon="2.33207">
        <ele>99.2</ele>
        <time>2019-07-14T06:41:10.000Z</time>
      </trkpt>
      <trkpt lat="43.23461" lon="2.33209">
        <ele>99.3</ele>
        <time>2019-07-14T06:41:11.000Z</time>
      </trkpt>
      <trkpt lat="43.23462" lon="2.33212">
        <ele>99.4</ele>
        <time>2019-07-14T06:41:12.000Z</time>
      </trkpt>
      <trkpt lat="43.23464" lon="2.33214">
        <ele>99.5</ele>
        <time>2019-07-14T06:41:13.000Z</time>
      </trkpt>
      <trkpt lat="43.23466" lon="2.33217">
        <ele>99.6</ele>
        <time>2019-07-14T06:41:14.000Z</time>
      </trkpt>
      <trkpt lat="43.23467" lon="2.33219">
        <ele>99.7</ele>
        <time>2019-07-14T06:41:15.000Z</time>
      </trkpt>
      <trkpt lat="43.23469" lon="2.33222">
        <ele>99.8</ele>
        <time>2019-07-14T06:41:16.000Z</time>
      </trkpt>
      <trkpt lat="43.2347" lon="2.33224">
        <ele>99.9</ele>
        <time>2019-07-14T06:41:17.000Z</time>
      </trkpt>
      <trkpt lat="43.23472" lon="2.33227">
        <ele>100</ele>
        <time>2019-07-14T06:41:18.000Z</time>
      </trkpt>
      <trkpt lat="43.23474" lon="2.33229">
        <ele>100.1</ele>
        <time>2019-07-14T06:41:19.000Z</time>
      </trkpt>
      <trkpt lat="43.23475" lon="2.33232">
        <ele>100.3</ele>
        <time>2019-07-14T06:41:20.000Z</time>
      </trkpt>
      <trkpt lat="43.23477" lon="2.33234">
        <ele>100.4</ele>
        <time>2019-07-14T06:41:21.000Z</time>
      </trkpt>
      <trkpt lat="43.23478" lon="2.33237">
        <ele>100.5</ele>
        <time>2019-07-14T06:41:22.000Z</time>
      </trkpt>
      <trkpt lat="43.2348" lon="2.3324">
        <ele>100.7</ele>
        <time>2019-07-14T06:41:23.000Z</time>
      </trkpt>
      <trkpt lat="43.23482" lon="2.33242">
        <ele>100.8</ele>
        <time>2019-07-14T06:41:24.000Z</time>
      </trkpt>
      <trkpt lat="43.23483" lon="2.33245">
        <ele>101</ele>
        <time>2019-07-14T06:41:25.000Z</time>
      </trkpt>
      <trkpt lat="43.23485" lon="2.33247">
        <ele>101.2</ele>
        <time>2019-07-14T06:41:26.000Z</time>
      </trkpt>
      <trkpt lat="43.23486" lon="2.3325">
        <ele>101.3</ele>
        <time>2019-07-14T06:41:27.000Z</time>
      </trkpt>
      <trkpt lat="43.23488" lon="2.33253">
        <ele>101.4</ele>
        <time>2019-07-14T06:41:28.000Z</time>
      </trkpt>
      <trkpt lat="43.23489" lon="2.33255">
        <ele>101.6</ele>
        <time>2019-07-14T06:41:29.000Z</time>
      </trkpt>
      <trkpt lat="43.23491" lon="2.33258">
        <ele>101.7</ele>
        <time>2019-07-14T06:41:30.000Z</time>
      </trkpt>
      <trkpt lat="43.23492" lon="2.33261">
        <ele>101.8</ele>
        <time>2019-07-14T06:41:31.000Z</time>
      </trkpt>
      <trkpt lat="43.23494" lon="2.33264">
        <ele>101.9</ele>
        <time>2019-07-14T06:41:32.000Z</time>
      </trkpt>
      <trkpt lat="43.23495" lon="2.33266">
        <ele>102</ele>
        <time>2019-07-14T06:41:33.000Z</time>
      </trkpt>
      <trkpt lat="43.23497" lon="2.33269">
        <ele>102.1</ele>
        <time>2019-07-14T06:41:34.000Z</time>
      </trkpt>
      <trkpt lat="43.23498" lon="2.33272">
        <ele>102.2</ele>
        <time>2019-07-14T06:41:35.000Z</time>
      </trkpt>
      <trkpt lat="43.23499" lon="2.33275">
        <ele>102.3</ele>
        <time>2019-07-14T06:41:36.000Z</time>
      </trkpt>
      <trkpt lat="43.23501" lon="2.33277">
        <ele>102.4</ele>
        <time>2019-07-14T06:41:37.000Z</time>
      </trkpt>
      <trkpt lat="43.23502" lon="2.3328">
        <ele>102.5</ele>
        <time>2019-07-14T06:41:38.000Z</time>
      </trkpt>
      <trkpt lat="43.23503" lon="2.33283">
        <ele>102.6</ele>
        <time>2019-07-14T06:41:39.000Z</time>
      </trkpt>
      <trkpt lat="43.23504" lon="2.33286">
        <ele>102.7</ele>
        <time>2019-07-14T06:41:40.000Z</time>
      </trkpt>
      <trkpt lat="43.23505" lon="2.33289">
        <ele>102.8</ele>
        <time>2019-07-14T06:41:41.000Z</time>
      </trkpt>
      <trkpt lat="43.23506" lon="2.33292">
        <ele>102.9</ele>
        <time>2019-07-14T06:41:42.000Z</time>
      </trkpt>
      <trkpt lat="43.23507" lon="2.33295">
        <ele>103</ele>
        <time>2019-07-14T06:41:43.000Z</time>
      </trkpt>
      <trkpt lat="43.23508" lon="2.33297">
        <ele>103.1</ele>
        <time>2019-07-14T06:41:44.000Z</time>
      </trkpt>
      <trkpt lat="43.23509" lon="2.333">
        <ele>103.2</ele>
        <time>2019-07-14T06:41:45.000Z</time>
      </trkpt>
      <trkpt lat="43.2351" lon="2.33303">
        <ele>103.3</ele>
        <time>2019-07-14T06:41:46.000Z</time>
      </trkpt>
      <trkpt lat="43.23511" lon="2.33306">
        <ele>103.4</ele>
        <time>2019-07-14T06:41:47.000Z</time>
      </trkpt>
      <trkpt lat="43.23512" lon="2.33309">
        <ele>103.5</ele>
        <time>2019-07-14T06:41:48.000Z</time>
      </trkpt>
      <trkpt lat="43.23512" lon="2.33312">
        <ele>103.6</ele>
        <time>2019-07-14T06:41:49.000Z</time>
      </trkpt>
      <trkpt lat="43.23513" lon="2.33315">
        <ele>103.7</ele>
        <time>2019-07-14T06:41:50.000Z</time>
      </trkpt>
      <trkpt lat="43.23514" lon="2.33317">
        <ele>103.8</ele>
        <time>2019-07-14T06:41:51.000Z</time>
      </trkpt>
      <trkpt lat="43.23514" lon="2.3332">
        <ele>103.9</ele>
        <time>2019-07-14T06:41:52.000Z</time>
      </trkpt>
      <trkpt lat="43.23515" lon="2.33323">
        <ele>104.1</ele>
        <time>2019-07-14T06:41:53.000Z</time>
      </trkpt>
      <trkpt lat="43.23516" lon="2.33326">
        <ele>104.2</ele>
        <time>2019-07-14T06:41:54.000Z</time>
      </trkpt>
      <trkpt lat="43.23516" lon="2.33329">
        <ele>104.3</ele>
        <time>2019-07-14T06:41:55.000Z</time>
      </trkpt>
      <trkpt lat="43.23517" lon="2.33331">
        <ele>104.4</ele>
        <time>2019-07-14T06:41:56.000Z</time>
      </trkpt>
      <trkpt lat="43.23518" lon="2.33334">
        <ele>104.5</ele>
        <time>2019-07-14T06:41:57.000Z</time>
      </trkpt>
      <trkpt lat="43.23519" lon="2.33337">
        <ele>104.5</ele>
        <time>2019-07-14T06:41:58.000Z</time>
      </trkpt>
      <trkpt lat="43.23519" lon="2.33339">
        <ele>104.4</ele>
        <time>2019-07-14T06:41:59.000Z</time>
      </trkpt>
      <trkpt lat="43.2352" lon="2.33342">
        <ele>104.4</ele>
        <time>2019-07-14T06:42:00.000Z</time>
      </trkpt>
      <trkpt lat="43.2352" lon="2.33345">
        <ele>104.4</ele>
        <time>2019-07-14T06:42:01.000Z</time>
      </trkpt>
      <trkpt lat="43.23521" lon="2.33348">
        <ele>104.4</ele>
        <time>2019-07-14T06:42:02.000Z</time>
      </trkpt>
      <trkpt lat="43.23522" lon="2.33351">
        <ele>104.3</ele>
        <time>2019-07-14T06:42:03.000Z</time>
      </trkpt>
      <trkpt lat="43.23522" lon="2.33354">
        <ele>104.3</ele>
        <time>2019-07-14T06:42:04.000Z</time>
      </trkpt>
      <trkpt lat="43.23523" lon="2.33357">
        <ele>104.3</ele>
        <time>2019-07-14T06:42:05.000Z</time>
      </trkpt>
      <trkpt lat="43.23524" lon="2.3336">
        <ele>104.2</ele>
        <time>2019-07-14T06:42:06.000Z</time>
      </trkpt>
      <trkpt lat="43.23524" lon="2.33364">
        <ele>104.2</ele>
        <time>2019-07-14T06:42:07.000Z</time>
      </trkpt>
      <trkpt lat="43.23525" lon="2.33367">
        <ele>104.2</ele>
        <time>2019-07-14T06:42:08.000Z</time>
      </trkpt>
      <trkpt lat="43.23526" lon="2.3337">
        <ele>104.2</ele>
        <time>2019-07-14T06:42:09.000Z</time>
      </trkpt>
      <trkpt lat="43.23527" lon="2.33373">
        <ele>104.2</ele>
        <time>2019-07-14T06:42:10.000Z</time>
      </trkpt>
      <trkpt lat="43.23528" lon="2.33376">
        <ele>104.2</ele>
        <time>2019-07-14T06:42:11.000Z</time>
      </trkpt>
      <trkpt lat="43.23529" lon="2.33379">
        <ele>104.2</ele>
        <time>2019-07-14T06:42:12.000Z</time>
      </trkpt>
      <trkpt lat="43.23531" lon="2.33381">
        <ele>104.2</ele>
        <time>2019-07-14T06:42:13.000Z</time>
      </trkpt>
      <trkpt lat="43.23532" lon="2.33384">
        <ele>104.2</ele>
        <time>2019-07-14T06:42:14.000Z</time>
      </trkpt>
      <trkpt lat="43.23533" lon="2.33386">
        <ele>104.3</ele>
        <time>2019-07-14T06:42:15.000Z</time>
      </trkpt>
      <trkpt lat="43.23535" lon="2.33388">
        <ele>104.3</ele>
        <time>2019-07-14T06:42:16.000Z</time>
      </trkpt>
      <trkpt lat="43.23536" lon="2.3339">
        <ele>104.4</ele>
        <time>2019-07-14T06:42:17.000Z</time>
      </trkpt>
      <trkpt lat="43.23538" lon="2.33392">
        <ele>104.4</ele>
        <time>2019-07-14T06:42:18.000Z</time>
      </trkpt>
      <trkpt lat="43.23539" lon="2.33393">
        <ele>104.5</ele>
        <time>2019-07-14T06:42:19.000Z</time>
      </trkpt>
      <trkpt lat="43.2354" lon="2.33395">
        <ele>104.5</ele>
        <time>2019-07-14T06:42:20.000Z</time>
      </trkpt>
      <trkpt lat="43.23541" lon="2.33396">
        <ele>104.6</ele>
        <time>2019-07-14T06:42:21.000Z</time>
      </trkpt>
      <trkpt lat="43.23542" lon="2.33397">
        <ele>104.6</ele>
        <time>2019-07-14T06:42:22.000Z</time>
      </trkpt>
      <trkpt lat="43.23543" lon="2.33398">
        <ele>104.6</ele>
        <time>2019-07-14T06:42:23.000Z</time>
      </trkpt>
      <trkpt lat="43.23544" lon="2.33399">
        <ele>104.7</ele>
        <time>2019-07-14T06:42:24.000Z</time>
      </trkpt>
      <trkpt lat="43.23544" lon="2.334">
        <ele>104.7</ele>
        <time>2019-07-14T06:42:25.000Z</time>
      </trkpt>
      <trkpt lat="43.23544" lon="2.334">
        <ele>104.7</ele>
        <time>2019-07-14T06:42:26.000Z</time>
      </trkpt>
      <trkpt lat="43.23545" lon="2.33401">
        <ele>104.7</ele>
        <time>2019-07-14T06:42:27.000Z</time>
      </trkpt>
      <trkpt lat="43.23545" lon="2.33401">
        <ele>104.7</ele>
        <time>2019-07-14T06:42:28.000Z</time>
      </trkpt>
      <trkpt lat="43.23545" lon="2.33402">
        <ele>104.7</ele>
        <time>2019-07-14T06:42:29.000Z</time>
      </trkpt>
      <trkpt lat="43.23545" lon="2.33402">
        <ele>104.7</ele>
        <time>2019-07-14T06:42:30.000Z</time>
      </trkpt>
      <trkpt lat="43.23545" lon="2.33402">
        <ele>104.7</ele>
        <time>2019-07-14T06:42:31.000Z</time>
      </trkpt>
      <trkpt lat="43.23545" lon="2.33402">
        <ele>104.7</ele>
        <time>2019-07-14T06:42:32.000Z</time>
      </trkpt>
      <trkpt lat="43.23545" lon="2.33402">
        <ele>104.7</ele>
        <time>2019-07-14T06:42:33.000Z</time>
      </trkpt>
      <trkpt lat="43.23545" lon="2.33402">
        <ele>104.7</ele>
        <time>2019-07-14T06:42:34.000Z</time>
      </trkpt>
      <trkpt lat="43.23545" lon="2.33402">
        <ele>104.7</ele>
        <time>2019-07-14T06:42:35.000Z</time>
      </trkpt>
      <trkpt lat="43.23545" lon="2.33402">
        <ele>104.7</ele>
        <time>2019-07-14T06:42:36.000Z</time>
      </trkpt>
      <trkpt lat="43.23545" lon="2.33402">
        <ele>104.7</ele>
        <time>2019-07-14T06:42:37.000Z</time>
      </trkpt>
      <trkpt lat="43.23545" lon="2.33402">
        <ele>104.7</ele>
        <time>2019-07-14T06:42:38.000Z</time>
      </trkpt>
      <trkpt lat="43.23545" lon="2.33402">
        <ele>104.7</ele>
        <time>2019-07-14T06:42:39.000Z</time>
      </trkpt>
      <trkpt lat="43.23545" lon="2.33402">
        <ele>104.7</ele>
        <time>2019-07-14T06:42:40.000Z</time>
      </trkpt>
      <trkpt lat="43.23545" lon="2.33402">
        <ele>104.7</ele>
        <time>2019-07-14T06:42:41.000Z</time>
      </trkpt>
      <trkpt lat="43.23545" lon="2.33402">
        <ele>104.7</ele>
        <time>2019-07-14T06:42:42.000Z</time>
      </trkpt>
      <trkpt lat="43.23545" lon="2.33402">
        <ele>104.7</ele>
        <time>2019-07-14T06:42:43.000Z</time>
      </trkpt>
      <trkpt lat="43.23545" lon="2.33402">
        <ele>104.7</ele>
        <time>2019-07-14T06:42:44.000Z</time>
      </trkpt>
      <trkpt lat="43.23545" lon="2.33402">
        <ele>104.7</ele>
        <time>2019-07-14T06:42:45.000Z</time>
      </trkpt>
      <trkpt lat="43.23545" lon="2.33402">
        <ele>104.7</ele>
        <time>2019-07-14T06:42:46.000Z</time>
      </trkpt>
      <trkpt lat="43.23546" lon="2.33402">
        <ele>104.8</ele>
        <time>2019-07-14T06:42:47.000Z</time>
      </trkpt>
      <trkpt lat="43.23547" lon="2.33402">
        <ele>104.8</ele>
        <time>2019-07-14T06:42:48.000Z</time>
      </trkpt>
      <trkpt lat="43.23548" lon="2.33403">
        <ele>104.9</ele>
        <time>2019-07-14T06:42:49.000Z</time>
      </trkpt>
      <trkpt lat="43.2355" lon="2.33403">
        <ele>105</ele>
        <time>2019-07-14T06:42:50.000Z</time>
      </trkpt>
      <trkpt lat="43.23551" lon="2.33403">
        <ele>105.1</ele>
        <time>2019-07-14T06:42:51.000Z</time>
      </trkpt>
      <trkpt lat="43.23552" lon="2.33404">
        <ele>105.2</ele>
        <time>2019-07-14T06:42:52.000Z</time>
      </trkpt>
      <trkpt lat="43.23554" lon="2.33404">
        <ele>105.3</ele>
        <time>2019-07-14T06:42:53.000Z</time>
      </trkpt>
      <trkpt lat="43.23556" lon="2.33405">
        <ele>105.4</ele>
        <time>2019-07-14T06:42:54.000Z</time>
      </trkpt>
      <trkpt lat="43.23558" lon="2.33405">
        <ele>105.5</ele>
        <time>2019-07-14T06:42:55.000Z</time>
      </trkpt>
      <trkpt lat="43.23559" lon="2.33406">
        <ele>105.6</ele>
        <time>2019-07-14T06:42:56.000Z</time>
      </trkpt>
      <trkpt lat="43.23561" lon="2.33406">
        <ele>105.8</ele>
        <time>2019-07-14T06:42:57.000Z</time>
      </trkpt>
      <trkpt lat="43.23563" lon="2.33407">
        <ele>105.9</ele>
        <time>2019-07-14T06:42:58.000Z</time>
      </trkpt>
      <trkpt lat="43.23565" lon="2.33407">
        <ele>106</ele>
        <time>2019-07-14T06:42:59.000Z</time>
      </trkpt>
      <trkpt lat="43.23567" lon="2.33408">
        <ele>106.1</ele>
        <time>2019-07-14T06:43:00.000Z</time>
      </trkpt>
      <trkpt lat="43.23569" lon="2.33408">
        <ele>106.3</ele>
        <time>2019-07-14T06:43:01.000Z</time>
      </trkpt>
      <trkpt lat="43.23571" lon="2.33409">
        <ele>106.4</ele>
        <time>2019-07-14T06:43:02.000Z</time>
      </trkpt>
      <trkpt lat="43.23573" lon="2.33409">
        <ele>106.5</ele>
        <time>2019-07-14T06:43:03.000Z</time>
      </trkpt>
      <trkpt lat="43.23575" lon="2.3341">
        <ele>106.7</ele>
        <time>2019-07-14T06:43:04.000Z</time>
      </trkpt>
      <trkpt lat="43.23577" lon="2.3341">
        <ele>106.8</ele>
        <time>2019-07-14T06:43:05.000Z</time>
      </trkpt>
      <trkpt lat="43.23579" lon="2.33411">
        <ele>106.9</ele>
        <time>2019-07-14T06:43:06.000Z</time>
      </trkpt>
      <trkpt lat="43.23581" lon="2.33411">
        <ele>107</ele>
        <time>2019-07-14T06:43:07.000Z</time>
      </trkpt>
      <trkpt lat="43.23583" lon="2.33412">
        <ele>107.2</ele>
        <time>2019-07-14T06:43:08.000Z</time>
      </trkpt>
      <trkpt lat="43.23585" lon="2.33412">
        <ele>107.2</ele>
        <time>2019-07-14T06:43:09.000Z</time>
      </trkpt>
      <trkpt lat="43.23587" lon="2.33412">
        <ele>107.3</ele>
        <time>2019-07-14T06:43:10.000Z</time>
      </trkpt>
      <trkpt lat="43.23588" lon="2.33413">
        <ele>107.3</ele>
        <time>2019-07-14T06:43:11.000Z</time>
      </trkpt>
      <trkpt lat="43.2359" lon="2.33413">
        <ele>107.4</ele>
        <time>2019-07-14T06:43:12.000Z</time>
      </trkpt>
      <trkpt lat="43.23591" lon="2.33413">
        <ele>107.4</ele>
        <time>2019-07-14T06:43:13.000Z</time>
      </trkpt>
      <trkpt lat="43.23592" lon="2.33413">
        <ele>107.4</ele>
        <time>2019-07-14T06:43:14.000Z</time>
      </trkpt>
      <trkpt lat="43.23594" lon="2.33413">
        <ele>107.5</ele>
        <time>2019-07-14T06:43:15.000Z</time>
      </trkpt>
      <trkpt lat="43.23595" lon="2.33413">
        <ele>107.5</ele>
        <time>2019-07-14T06:43:16.000Z</time>
      </trkpt>
      <trkpt lat="43.23595" lon="2.33413">
        <ele>107.6</ele>
        <time>2019-07-14T06:43:17.000Z</time>
      </trkpt>
      <trkpt lat="43.23596" lon="2.33413">
        <ele>107.6</ele>
        <time>2019-07-14T06:43:18.000Z</time>
      </trkpt>
      <trkpt lat="43.23597" lon="2.33413">
        <ele>107.6</ele>
        <time>2019-07-14T06:43:19.000Z</time>
      </trkpt>
      <trkpt lat="43.23598" lon="2.33413">
        <ele>107.6</ele>
        <time>2019-07-14T06:43:20.000Z</time>
      </trkpt>
      <trkpt lat="43.23598" lon="2.33412">
        <ele>107.7</ele>
        <time>2019-07-14T06:43:21.000Z</time>
      </trkpt>
      <trkpt lat="43.23598" lon="2.33412">
        <ele>107.7</ele>
        <time>2019-07-14T06:43:22.000Z</time>
      </trkpt>
      <trkpt lat="43.23599" lon="2.33412">
        <ele>107.7</ele>
        <time>2019-07-14T06:43:23.000Z</time>
      </trkpt>
      <trkpt lat="43.23599" lon="2.33412">
        <ele>107.7</ele>
        <time>2019-07-14T06:43:24.000Z</time>
      </trkpt>
      <trkpt lat="43.23599" lon="2.33412">
        <ele>107.7</ele>
        <time>2019-07-14T06:43:25.000Z</time>
      </trkpt>
      <trkpt lat="43.23599" lon="2.33412">
        <ele>107.7</ele>
        <time>2019-07-14T06:43:26.000Z</time>
      </trkpt>
      <trkpt lat="43.23599" lon="2.33412">
        <ele>107.7</ele>
        <time>2019-07-14T06:43:27.000Z</time>
      </trkpt>
      <trkpt lat="43.23599" lon="2.33412">
        <ele>107.7</ele>
        <time>2019-07-14T06:43:28.000Z</time>
      </trkpt>
      <trkpt lat="43.23599" lon="2.33412">
        <ele>107.7</ele>
        <time>2019-07-14T06:43:29.000Z</time>
      </trkpt>
      <trkpt lat="43.23599" lon="2.33412">
        <ele>107.7</ele>
        <time>2019-07-14T06:43:30.000Z</time>
      </trkpt>
      <trkpt lat="43.23599" lon="2.33412">
        <ele>107.7</ele>
        <time>2019-07-14T06:43:31.000Z</time>
      </trkpt>
      <trkpt lat="43.23599" lon="2.33412">
        <ele>107.7</ele>
        <time>2019-07-14T06:43:32.000Z</time>
      </trkpt>
      <trkpt lat="43.23599" lon="2.33412">
        <ele>107.7</ele>
        <time>2019-07-14T06:43:33.000Z</time>
      </trkpt>
      <trkpt lat="43.23599" lon="2.33412">
        <ele>107.7</ele>
        <time>2019-07-14T06:43:34.000Z</time>
      </trkpt>
      <trkpt lat="43.23599" lon="2.33412">
        <ele>107.7</ele>
        <time>2019-07-14T06:43:35.000Z</time>
      </trkpt>
      <trkpt lat="43.23599" lon="2.33412">
        <ele>107.7</ele>
        <time>2019-07-14T06:43:36.000Z</time>
      </trkpt>
      <trkpt lat="43.23599" lon="2.33412">
        <ele>107.7</ele>
        <time>2019-07-14T06:43:37.000Z</time>
      </trkpt>
      <trkpt lat="43.23599" lon="2.33412">
        <ele>107.7</ele>
        <time>2019-07-14T06:43:38.000Z</time>
      </trkpt>
      <trkpt lat="43.23599" lon="2.33412">
        <ele>107.7</ele>
        <time>2019-07-14T06:43:39.000Z</time>
      </trkpt>
      <trkpt lat="43.23599" lon="2.33412">
        <ele>107.7</ele>
        <time>2019-07-14T06:43:40.000Z</time>
      </trkpt>
      <trkpt lat="43.23599" lon="2.33412">
        <ele>107.7</ele>
        <time>2019-07-14T06:43:41.000Z</time>
      </trkpt>
      <trkpt lat="43.23599" lon="2.33412">
        <ele>107.7</ele>
        <time>2019-07-14T06:43:42.000Z</time>
      </trkpt>
      <trkpt lat="43.23599" lon="2.33412">
        <ele>107.7</ele>
        <time>2019-07-14T06:43:43.000Z</time>
      </trkpt>
      <trkpt lat="43.23599" lon="2.33412">
        <ele>107.7</ele>
        <time>2019-07-14T06:43:44.000Z</time>
      </trkpt>
      <trkpt lat="43.23599" lon="2.33412">
        <ele>107.7</ele>
        <time>2019-07-14T06:43:45.000Z</time>
      </trkpt>
      <trkpt lat="43.23599" lon="2.33412">
        <ele>107.7</ele>
        <time>2019-07-14T06:43:46.000Z</time>
      </trkpt>
      <trkpt lat="43.23599" lon="2.33412">
        <ele>107.7</ele>
        <time>2019-07-14T06:43:47.000Z</time>
      </trkpt>
      <trkpt lat="43.23599" lon="2.33412">
        <ele>107.7</ele>
        <time>2019-07-14T06:43:48.000Z</time>
      </trkpt>
      <trkpt lat="43.23599" lon="2.33412">
        <ele>107.7</ele>
        <time>2019-07-14T06:43:49.000Z</time>
      </trkpt>
      <trkpt lat="43.23599" lon="2.33413">
        <ele>107.7</ele>
        <time>2019-07-14T06:43:50.000Z</time>
      </trkpt>
      <trkpt lat="43.23599" lon="2.33413">
        <ele>107.7</ele>
        <time>2019-07-14T06:43:51.000Z</time>
      </trkpt>
      <trkpt lat="43.23599" lon="2.33413">
        <ele>107.7</ele>
        <time>2019-07-14T06:43:52.000Z</time>
      </trkpt>
      <trkpt lat="43.23599" lon="2.33414">
        <ele>107.7</ele>
        <time>2019-07-14T06:43:53.000Z</time>
      </trkpt>
      <trkpt lat="43.23599" lon="2.33415">
        <ele>107.6</ele>
        <time>2019-07-14T06:43:54.000Z</time>
      </trkpt>
      <trkpt lat="43.236" lon="2.33416">
        <ele>107.6</ele>
        <time>2019-07-14T06:43:55.000Z</time>
      </trkpt>
      <trkpt lat="43.236" lon="2.33417">
        <ele>107.6</ele>
        <time>2019-07-14T06:43:56.000Z</time>
      </trkpt>
      <trkpt lat="43.236" lon="2.33418">
        <ele>107.6</ele>
        <time>2019-07-14T06:43:57.000Z</time>
      </trkpt>
      <trkpt lat="43.23599" lon="2.3342">
        <ele>107.5</ele>
        <time>2019-07-14T06:43:58.000Z</time>
      </trkpt>
      <trkpt lat="43.23599" lon="2.33421">
        <ele>107.5</ele>
        <time>2019-07-14T06:43:59.000Z</time>
      </trkpt>
      <trkpt lat="43.23599" lon="2.33422">
        <ele>107.5</ele>
        <time>2019-07-14T06:44:00.000Z</time>
      </trkpt>
      <trkpt lat="43.23598" lon="2.33423">
        <ele>107.5</ele>
        <time>2019-07-14T06:44:01.000Z</time>
      </trkpt>
      <trkpt lat="43.23598" lon="2.33425">
        <ele>107.4</ele>
        <time>2019-07-14T06:44:02.000Z</time>
      </trkpt>
      <trkpt lat="43.23598" lon="2.33426">
        <ele>107.4</ele>
        <time>2019-07-14T06:44:03.000Z</time>
      </trkpt>
      <trkpt lat="43.23597" lon="2.33427">
        <ele>107.4</ele>
        <time>2019-07-14T06:44:04.000Z</time>
      </trkpt>
      <trkpt lat="43.23597" lon="2.33429">
        <ele>107.4</ele>
        <time>2019-07-14T06:44:05.000Z</time>
      </trkpt>
      <trkpt lat="43.23597" lon="2.3343">
        <ele>107.3</ele>
        <time>2019-07-14T06:44:06.000Z</time>
      </trkpt>
      <trkpt lat="43.23596" lon="2.33431">
        <ele>107.3</ele>
        <time>2019-07-14T06:44:07.000Z</time>
      </trkpt>
      <trkpt lat="43.23596" lon="2.33432">
        <ele>107.3</ele>
        <time>2019-07-14T06:44:08.000Z</time>
      </trkpt>
      <trkpt lat="43.23596" lon="2.33433">
        <ele>107.3</ele>
        <time>2019-07-14T06:44:09.000Z</time>
      </trkpt>
      <trkpt lat="43.23595" lon="2.33435">
        <ele>107.3</ele>
        <time>2019-07-14T06:44:10.000Z</time>
      </trkpt>
      <trkpt lat="43.23595" lon="2.33436">
        <ele>107.2</ele>
        <time>2019-07-14T06:44:11.000Z</time>
      </trkpt>
      <trkpt lat="43.23595" lon="2.33437">
        <ele>107.2</ele>
        <time>2019-07-14T06:44:12.000Z</time>
      </trkpt>
      <trkpt lat="43.23595" lon="2.33438">
        <ele>107.2</ele>
        <time>2019-07-14T06:44:13.000Z</time>
      </trkpt>
      <trkpt lat="43.23594" lon="2.3344">
        <ele>107.2</ele>
        <time>2019-07-14T06:44:14.000Z</time>
      </trkpt>
      <trkpt lat="43.23594" lon="2.33441">
        <ele>107.1</ele>
        <time>2019-07-14T06:44:15.000Z</time>
      </trkpt>
      <trkpt lat="43.23594" lon="2.33442">
        <ele>107.1</ele>
        <time>2019-07-14T06:44:16.000Z</time>
      </trkpt>
      <trkpt lat="43.23593" lon="2.33444">
        <ele>107.1</ele>
        <time>2019-07-14T06:44:17.000Z</time>
      </trkpt>
      <trkpt lat="43.23593" lon="2.33445">
        <ele>107</ele>
        <time>2019-07-14T06:44:18.000Z</time>
      </trkpt>
      <trkpt lat="43.23593" lon="2.33446">
        <ele>107</ele>
        <time>2019-07-14T06:44:19.000Z</time>
      </trkpt>
      <trkpt lat="43.23592" lon="2.33448">
        <ele>107</ele>
        <time>2019-07-14T06:44:20.000Z</time>
      </trkpt>
      <trkpt lat="43.23592" lon="2.33449">
        <ele>107</ele>
        <time>2019-07-14T06:44:21.000Z</time>
      </trkpt>
      <trkpt lat="43.23592" lon="2.3345">
        <ele>106.9</ele>
        <time>2019-07-14T06:44:22.000Z</time>
      </trkpt>
      <trkpt lat="43.23591" lon="2.33452">
        <ele>106.9</ele>
        <time>2019-07-14T06:44:23.000Z</time>
      </trkpt>
      <trkpt lat="43.23591" lon="2.33453">
        <ele>106.9</ele>
        <time>2019-07-14T06:44:24.000Z</time>
      </trkpt>
      <trkpt lat="43.23591" lon="2.33455">
        <ele>106.8</ele>
        <time>2019-07-14T06:44:25.000Z</time>
      </trkpt>
      <trkpt lat="43.2359" lon="2.33456">
        <ele>106.8</ele>
        <time>2019-07-14T06:44:26.000Z</time>
      </trkpt>
      <trkpt lat="43.2359" lon="2.33458">
        <ele>106.8</ele>
        <time>2019-07-14T06:44:27.000Z</time>
      </trkpt>
      <trkpt lat="43.23589" lon="2.33459">
        <ele>106.7</ele>
        <time>2019-07-14T06:44:28.000Z</time>
      </trkpt>
      <trkpt lat="43.23589" lon="2.33461">
        <ele>106.7</ele>
        <time>2019-07-14T06:44:29.000Z</time>
      </trkpt>
      <trkpt lat="43.23589" lon="2.33462">
        <ele>106.7</ele>
        <time>2019-07-14T06:44:30.000Z</time>
      </trkpt>
      <trkpt lat="43.23588" lon="2.33464">
        <ele>106.6</ele>
        <time>2019-07-14T06:44:31.000Z</time>
      </trkpt>
      <trkpt lat="43.23588" lon="2.33465">
        <ele>106.6</ele>
        <time>2019-07-14T06:44:32.000Z</time>
      </trkpt>
      <trkpt lat="43.23588" lon="2.33467">
        <ele>106.6</ele>
        <time>2019-07-14T06:44:33.000Z</time>
      </trkpt>
      <trkpt lat="43.23587" lon="2.33468">
        <ele>106.6</ele>
        <time>2019-07-14T06:44:34.000Z</time>
      </trkpt>
      <trkpt lat="43.23587" lon="2.3347">
        <ele>106.5</ele>
        <time>2019-07-14T06:44:35.000Z</time>
      </trkpt>
      <trkpt lat="43.23587" lon="2.33471">
        <ele>106.5</ele>
        <time>2019-07-14T06:44:36.000Z</time>
      </trkpt>
      <trkpt lat="43.23586" lon="2.33473">
        <ele>106.5</ele>
        <time>2019-07-14T06:44:37.000Z</time>
      </trkpt>
      <trkpt lat="43.23586" lon="2.33474">
        <ele>106.4</ele>
        <time>2019-07-14T06:44:38.000Z</time>
      </trkpt>
      <trkpt lat="43.23585" lon="2.33476">
        <ele>106.4</ele>
        <time>2019-07-14T06:44:39.000Z</time>
      </trkpt>
      <trkpt lat="43.23585" lon="2.33477">
        <ele>106.4</ele>
        <time>2019-07-14T06:44:40.000Z</time>
      </trkpt>
      <trkpt lat="43.23585" lon="2.33479">
        <ele>106.3</ele>
        <time>2019-07-14T06:44:41.000Z</time>
      </trkpt>
      <trkpt lat="43.23584" lon="2.3348">
        <ele>106.3</ele>
        <time>2019-07-14T06:44:42.000Z</time>
      </trkpt>
      <trkpt lat="43.23584" lon="2.33482">
        <ele>106.2</ele>
        <time>2019-07-14T06:44:43.000Z</time>
      </trkpt>
      <trkpt lat="43.23584" lon="2.33483">
        <ele>106.2</ele>
        <time>2019-07-14T06:44:44.000Z</time>
      </trkpt>
      <trkpt lat="43.23583" lon="2.33485">
        <ele>106.2</ele>
        <time>2019-07-14T06:44:45.000Z</time>
      </trkpt>
      <trkpt lat="43.23583" lon="2.33486">
        <ele>106.1</ele>
        <time>2019-07-14T06:44:46.000Z</time>
      </trkpt>
      <trkpt lat="43.23583" lon="2.33488">
        <ele>106.1</ele>
        <time>2019-07-14T06:44:47.000Z</time>
      </trkpt>
      <trkpt lat="43.23582" lon="2.33489">
        <ele>106.1</ele>
        <time>2019-07-14T06:44:48.000Z</time>
      </trkpt>
      <trkpt lat="43.23582" lon="2.33491">
        <ele>106</ele>
        <time>2019-07-14T06:44:49.000Z</time>
      </trkpt>
      <trkpt lat="43.23582" lon="2.33492">
        <ele>106</ele>
        <time>2019-07-14T06:44:50.000Z</time>
      </trkpt>
      <trkpt lat="43.23581" lon="2.33494">
        <ele>106</ele>
        <time>2019-07-14T06:44:51.000Z</time>
      </trkpt>
      <trkpt lat="43.23581" lon="2.33495">
        <ele>105.9</ele>
        <time>2019-07-14T06:44:52.000Z</time>
      </trkpt>
      <trkpt lat="43.23581" lon="2.33497">
        <ele>105.9</ele>
        <time>2019-07-14T06:44:53.000Z</time>
      </trkpt>
      <trkpt lat="43.2358" lon="2.33498">
        <ele>105.8</ele>
        <time>2019-07-14T06:44:54.000Z</time>
      </trkpt>
      <trkpt lat="43.2358" lon="2.335">
        <ele>105.8</ele>
        <time>2019-07-14T06:44:55.000Z</time>
      </trkpt>
      <trkpt lat="43.2358" lon="2.33501">
        <ele>105.8</ele>
        <time>2019-07-14T06:44:56.000Z</time>
      </trkpt>
      <trkpt lat="43.23579" lon="2.33502">
        <ele>105.8</ele>
        <time>2019-07-14T06:44:57.000Z</time>
      </trkpt>
      <trkpt lat="43.23579" lon="2.33504">
        <ele>105.8</ele>
        <time>2019-07-14T06:44:58.000Z</time>
      </trkpt>
      <trkpt lat="43.23579" lon="2.33505">
        <ele>105.8</ele>
        <time>2019-07-14T06:44:59.000Z</time>
      </trkpt>
      <trkpt lat="43.23578" lon="2.33507">
        <ele>105.8</ele>
        <time>2019-07-14T06:45:00.000Z</time>
      </trkpt>
      <trkpt lat="43.23578" lon="2.33508">
        <ele>105.8</ele>
        <time>2019-07-14T06:45:01.000Z</time>
      </trkpt>
      <trkpt lat="43.23578" lon="2.3351">
        <ele>105.8</ele>
        <time>2019-07-14T06:45:02.000Z</time>
      </trkpt>
      <trkpt lat="43.23578" lon="2.33511">
        <ele>105.8</ele>
        <time>2019-07-14T06:45:03.000Z</time>
      </trkpt>
      <trkpt lat="43.23577" lon="2.33512">
        <ele>105.8</ele>
        <time>2019-07-14T06:45:04.000Z</time>
      </trkpt>
      <trkpt lat="43.23577" lon="2.33514">
        <ele>105.8</ele>
        <time>2019-07-14T06:45:05.000Z</time>
      </trkpt>
      <trkpt lat="43.23577" lon="2.33515">
        <ele>105.8</ele>
        <time>2019-07-14T06:45:06.000Z</time>
      </trkpt>
      <trkpt lat="43.23576" lon="2.33516">
        <ele>105.8</ele>
        <time>2019-07-14T06:45:07.000Z</time>
      </trkpt>
      <trkpt lat="43.23576" lon="2.33518">
        <ele>105.8</ele>
        <time>2019-07-14T06:45:08.000Z</time>
      </trkpt>
      <trkpt lat="43.23576" lon="2.33519">
        <ele>105.8</ele>
        <time>2019-07-14T06:45:09.000Z</time>
      </trkpt>
      <trkpt lat="43.23576" lon="2.3352">
        <ele>105.7</ele>
        <time>2019-07-14T06:45:10.000Z</time>
      </trkpt>
      <trkpt lat="43.23575" lon="2.33522">
        <ele>105.7</ele>
        <time>2019-07-14T06:45:11.000Z</time>
      </trkpt>
      <trkpt lat="43.23575" lon="2.33523">
        <ele>105.7</ele>
        <time>2019-07-14T06:45:12.000Z</time>
      </trkpt>
      <trkpt lat="43.23575" lon="2.33524">
        <ele>105.7</ele>
        <time>2019-07-14T06:45:13.000Z</time>
      </trkpt>
      <trkpt lat="43.23574" lon="2.33525">
        <ele>105.7</ele>
        <time>2019-07-14T06:45:14.000Z</time>
      </trkpt>
      <trkpt lat="43.23574" lon="2.33527">
        <ele>105.7</ele>
        <time>2019-07-14T06:45:15.000Z</time>
      </trkpt>
      <trkpt lat="43.23574" lon="2.33528">
        <ele>105.7</ele>
        <time>2019-07-14T06:45:16.000Z</time>
      </trkpt>
      <trkpt lat="43.23573" lon="2.33529">
        <ele>105.7</ele>
        <time>2019-07-14T06:45:17.000Z</time>
      </trkpt>
      <trkpt lat="43.23573" lon="2.33531">
        <ele>105.7</ele>
        <time>2019-07-14T06:45:18.000Z</time>
      </trkpt>
      <trkpt lat="43.23573" lon="2.33532">
        <ele>105.7</ele>
        <time>2019-07-14T06:45:19.000Z</time>
      </trkpt>
      <trkpt lat="43.23572" lon="2.33533">
        <ele>105.7</ele>
        <time>2019-07-14T06:45:20.000Z</time>
      </trkpt>
      <trkpt lat="43.23572" lon="2.33534">
        <ele>105.7</ele>
        <time>2019-07-14T06:45:21.000Z</time>
      </trkpt>
      <trkpt lat="43.23572" lon="2.33536">
        <ele>105.7</ele>
        <time>2019-07-14T06:45:22.000Z</time>
      </trkpt>
      <trkpt lat="43.23571" lon="2.33537">
        <ele>105.7</ele>
        <time>2019-07-14T06:45:23.000Z</time>
      </trkpt>
      <trkpt lat="43.23571" lon="2.33538">
        <ele>105.6</ele>
        <time>2019-07-14T06:45:24.000Z</time>
      </trkpt>
      <trkpt lat="43.23571" lon="2.33539">
        <ele>105.6</ele>
        <time>2019-07-14T06:45:25.000Z</time>
      </trkpt>
      <trkpt lat="43.2357" lon="2.33541">
        <ele>105.6</ele>
        <time>2019-07-14T06:45:26.000Z</time>
      </trkpt>
      <trkpt lat="43.2357" lon="2.33542">
        <ele>105.6</ele>
        <time>2019-07-14T06:45:27.000Z</time>
      </trkpt>
      <trkpt lat="43.2357" lon="2.33543">
        <ele>105.6</ele>
        <time>2019-07-14T06:45:28.000Z</time>
      </trkpt>
      <trkpt lat="43.23569" lon="2.33544">
        <ele>105.6</ele>
        <time>2019-07-14T06:45:29.000Z</time>
      </trkpt>
      <trkpt lat="43.23569" lon="2.33546">
        <ele>105.6</ele>
        <time>2019-07-14T06:45:30.000Z</time>
      </trkpt>
      <trkpt lat="43.23568" lon="2.33547">
        <ele>105.6</ele>
        <time>2019-07-14T06:45:31.000Z</time>
      </trkpt>
      <trkpt lat="43.23568" lon="2.33548">
        <ele>105.5</ele>
        <time>2019-07-14T06:45:32.000Z</time>
      </trkpt>
      <trkpt lat="43.23568" lon="2.3355">
        <ele>105.5</ele>
        <time>2019-07-14T06:45:33.000Z</time>
      </trkpt>
      <trkpt lat="43.23567" lon="2.33551">
        <ele>105.5</ele>
        <time>2019-07-14T06:45:34.000Z</time>
      </trkpt>
      <trkpt lat="43.23567" lon="2.33552">
        <ele>105.5</ele>
        <time>2019-07-14T06:45:35.000Z</time>
      </trkpt>
      <trkpt lat="43.23566" lon="2.33553">
        <ele>105.5</ele>
        <time>2019-07-14T06:45:36.000Z</time>
      </trkpt>
      <trkpt lat="43.23566" lon="2.33555">
        <ele>105.5</ele>
        <time>2019-07-14T06:45:37.000Z</time>
      </trkpt>
      <trkpt lat="43.23566" lon="2.33556">
        <ele>105.5</ele>
        <time>2019-07-14T06:45:38.000Z</time>
      </trkpt>
      <trkpt lat="43.23565" lon="2.33557">
        <ele>105.4</ele>
        <time>2019-07-14T06:45:39.000Z</time>
      </trkpt>
      <trkpt lat="43.23565" lon="2.33559">
        <ele>105.4</ele>
        <time>2019-07-14T06:45:40.000Z</time>
      </trkpt>
      <trkpt lat="43.23564" lon="2.3356">
        <ele>105.4</ele>
        <time>2019-07-14T06:45:41.000Z</time>
      </trkpt>
      <trkpt lat="43.23564" lon="2.33561">
        <ele>105.4</ele>
        <time>2019-07-14T06:45:42.000Z</time>
      </trkpt>
      <trkpt lat="43.23564" lon="2.33563">
        <ele>105.4</ele>
        <time>2019-07-14T06:45:43.000Z</time>
      </trkpt>
      <trkpt lat="43.23563" lon="2.33564">
        <ele>105.4</ele>
        <time>2019-07-14T06:45:44.000Z</time>
      </trkpt>
      <trkpt lat="43.23563" lon="2.33565">
        <ele>105.4</ele>
        <time>2019-07-14T06:45:45.000Z</time>
      </trkpt>
      <trkpt lat="43.23563" lon="2.33566">
        <ele>105.4</ele>
        <time>2019-07-14T06:45:46.000Z</time>
      </trkpt>
      <trkpt lat="43.23562" lon="2.33568">
        <ele>105.3</ele>
        <time>2019-07-14T06:45:47.000Z</time>
      </trkpt>
      <trkpt lat="43.23562" lon="2.33569">
        <ele>105.3</ele>
        <time>2019-07-14T06:45:48.000Z</time>
      </trkpt>
      <trkpt lat="43.23562" lon="2.3357">
        <ele>105.3</ele>
        <time>2019-07-14T06:45:49.000Z</time>
      </trkpt>
      <trkpt lat="43.23561" lon="2.33572">
        <ele>105.3</ele>
        <time>2019-07-14T06:45:50.000Z</time>
      </trkpt>
      <trkpt lat="43.23561" lon="2.33573">
        <ele>105.3</ele>
        <time>2019-07-14T06:45:51.000Z</time>
      </trkpt>
      <trkpt lat="43.23561" lon="2.33574">
        <ele>105.3</ele>
        <time>2019-07-14T06:45:52.000Z</time>
      </trkpt>
      <trkpt lat="43.23561" lon="2.33576">
        <ele>105.3</ele>
        <time>2019-07-14T06:45:53.000Z</time>
      </trkpt>
      <trkpt lat="43.2356" lon="2.33577">
        <ele>105.3</ele>
        <time>2019-07-14T06:45:54.000Z</time>
      </trkpt>
      <trkpt lat="43.2356" lon="2.33578">
        <ele>105.3</ele>
        <time>2019-07-14T06:45:55.000Z</time>
      </trkpt>
      <trkpt lat="43.2356" lon="2.33579">
        <ele>105.3</ele>
        <time>2019-07-14T06:45:56.000Z</time>
      </trkpt>
      <trkpt lat="43.23559" lon="2.33581">
        <ele>105.2</ele>
        <time>2019-07-14T06:45:57.000Z</time>
      </trkpt>
      <trkpt lat="43.23559" lon="2.33582">
        <ele>105.2</ele>
        <time>2019-07-14T06:45:58.000Z</time>
      </trkpt>
      <trkpt lat="43.23558" lon="2.33583">
        <ele>105.2</ele>
        <time>2019-07-14T06:45:59.000Z</time>
      </trkpt>
      <trkpt lat="43.23558" lon="2.33585">
        <ele>105.1</ele>
        <time>2019-07-14T06:46:00.000Z</time>
      </trkpt>
      <trkpt lat="43.23557" lon="2.33586">
        <ele>105.1</ele>
        <time>2019-07-14T06:46:01.000Z</time>
      </trkpt>
      <trkpt lat="43.23557" lon="2.33587">
        <ele>105</ele>
        <time>2019-07-14T06:46:02.000Z</time>
      </trkpt>
      <trkpt lat="43.23556" lon="2.33589">
        <ele>105</ele>
        <time>2019-07-14T06:46:03.000Z</time>
      </trkpt>
      <trkpt lat="43.23556" lon="2.3359">
        <ele>104.9</ele>
        <time>2019-07-14T06:46:04.000Z</time>
      </trkpt>
      <trkpt lat="43.23555" lon="2.33591">
        <ele>104.9</ele>
        <time>2019-07-14T06:46:05.000Z</time>
      </trkpt>
      <trkpt lat="43.23555" lon="2.33593">
        <ele>104.8</ele>
        <time>2019-07-14T06:46:06.000Z</time>
      </trkpt>
      <trkpt lat="43.23554" lon="2.33594">
        <ele>104.8</ele>
        <time>2019-07-14T06:46:07.000Z</time>
      </trkpt>
      <trkpt lat="43.23554" lon="2.33596">
        <ele>104.8</ele>
        <time>2019-07-14T06:46:08.000Z</time>
      </trkpt>
      <trkpt lat="43.23554" lon="2.33597">
        <ele>104.7</ele>
        <time>2019-07-14T06:46:09.000Z</time>
      </trkpt>
      <trkpt lat="43.23554" lon="2.33599">
        <ele>104.7</ele>
        <time>2019-07-14T06:46:10.000Z</time>
      </trkpt>
      <trkpt lat="43.23554" lon="2.336">
        <ele>104.7</ele>
        <time>2019-07-14T06:46:11.000Z</time>
      </trkpt>
      <trkpt lat="43.23553" lon="2.33601">
        <ele>104.6</ele>
        <time>2019-07-14T06:46:12.000Z</time>
      </trkpt>
      <trkpt lat="43.23553" lon="2.33603">
        <ele>104.6</ele>
        <time>2019-07-14T06:46:13.000Z</time>
      </trkpt>
      <trkpt lat="43.23553" lon="2.33604">
        <ele>104.6</ele>
        <time>2019-07-14T06:46:14.000Z</time>
      </trkpt>
      <trkpt lat="43.23553" lon="2.33605">
        <ele>104.6</ele>
        <time>2019-07-14T06:46:15.000Z</time>
      </trkpt>
      <trkpt lat="43.23553" lon="2.33606">
        <ele>104.5</ele>
        <time>2019-07-14T06:46:16.000Z</time>
      </trkpt>
      <trkpt lat="43.23553" lon="2.33607">
        <ele>104.5</ele>
        <time>2019-07-14T06:46:17.000Z</time>
      </trkpt>
      <trkpt lat="43.23553" lon="2.33608">
        <ele>104.5</ele>
        <time>2019-07-14T06:46:18.000Z</time>
      </trkpt>
      <trkpt lat="43.23552" lon="2.3361">
        <ele>104.5</ele>
        <time>2019-07-14T06:46:19.000Z</time>
      </trkpt>
      <trkpt lat="43.23552" lon="2.33611">
        <ele>104.4</ele>
        <time>2019-07-14T06:46:20.000Z</time>
      </trkpt>
      <trkpt lat="43.23552" lon="2.33612">
        <ele>104.4</ele>
        <time>2019-07-14T06:46:21.000Z</time>
      </trkpt>
      <trkpt lat="43.23552" lon="2.33614">
        <ele>104.4</ele>
        <time>2019-07-14T06:46:22.000Z</time>
      </trkpt>
      <trkpt lat="43.23551" lon="2.33615">
        <ele>104.3</ele>
        <time>2019-07-14T06:46:23.000Z</time>
      </trkpt>
      <trkpt lat="43.23551" lon="2.33617">
        <ele>104.3</ele>
        <time>2019-07-14T06:46:24.000Z</time>
      </trkpt>
      <trkpt lat="43.23551" lon="2.33618">
        <ele>104.2</ele>
        <time>2019-07-14T06:46:25.000Z</time>
      </trkpt>
      <trkpt lat="43.2355" lon="2.3362">
        <ele>104.2</ele>
        <time>2019-07-14T06:46:26.000Z</time>
      </trkpt>
      <trkpt lat="43.2355" lon="2.33622">
        <ele>104.1</ele>
        <time>2019-07-14T06:46:27.000Z</time>
      </trkpt>
      <trkpt lat="43.23549" lon="2.33624">
        <ele>104.1</ele>
        <time>2019-07-14T06:46:28.000Z</time>
      </trkpt>
      <trkpt lat="43.23549" lon="2.33627">
        <ele>104</ele>
        <time>2019-07-14T06:46:29.000Z</time>
      </trkpt>
      <trkpt lat="43.23548" lon="2.33629">
        <ele>103.9</ele>
        <time>2019-07-14T06:46:30.000Z</time>
      </trkpt>
      <trkpt lat="43.23547" lon="2.33632">
        <ele>103.8</ele>
        <time>2019-07-14T06:46:31.000Z</time>
      </trkpt>
      <trkpt lat="43.23546" lon="2.33635">
        <ele>103.7</ele>
        <time>2019-07-14T06:46:32.000Z</time>
      </trkpt>
      <trkpt lat="43.23545" lon="2.33637">
        <ele>103.6</ele>
        <time>2019-07-14T06:46:33.000Z</time>
      </trkpt>
      <trkpt lat="43.23544" lon="2.3364">
        <ele>103.5</ele>
        <time>2019-07-14T06:46:34.000Z</time>
      </trkpt>
      <trkpt lat="43.23543" lon="2.33643">
        <ele>103.4</ele>
        <time>2019-07-14T06:46:35.000Z</time>
      </trkpt>
      <trkpt lat="43.23542" lon="2.33646">
        <ele>103.3</ele>
        <time>2019-07-14T06:46:36.000Z</time>
      </trkpt>
      <trkpt lat="43.23541" lon="2.33649">
        <ele>103.2</ele>
        <time>2019-07-14T06:46:37.000Z</time>
      </trkpt>
      <trkpt lat="43.23541" lon="2.33651">
        <ele>103.1</ele>
        <time>2019-07-14T06:46:38.000Z</time>
      </trkpt>
      <trkpt lat="43.2354" lon="2.33654">
        <ele>103</ele>
        <time>2019-07-14T06:46:39.000Z</time>
      </trkpt>
      <trkpt lat="43.23539" lon="2.33657">
        <ele>102.9</ele>
        <time>2019-07-14T06:46:40.000Z</time>
      </trkpt>
      <trkpt lat="43.23538" lon="2.33659">
        <ele>102.9</ele>
        <time>2019-07-14T06:46:41.000Z</time>
      </trkpt>
      <trkpt lat="43.23538" lon="2.33662">
        <ele>102.8</ele>
        <time>2019-07-14T06:46:42.000Z</time>
      </trkpt>
      <trkpt lat="43.23537" lon="2.33665">
        <ele>102.7</ele>
        <time>2019-07-14T06:46:43.000Z</time>
      </trkpt>
      <trkpt lat="43.23537" lon="2.33667">
        <ele>102.6</ele>
        <time>2019-07-14T06:46:44.000Z</time>
      </trkpt>
      <trkpt lat="43.23536" lon="2.3367">
        <ele>102.6</ele>
        <time>2019-07-14T06:46:45.000Z</time>
      </trkpt>
      <trkpt lat="43.23536" lon="2.33673">
        <ele>102.5</ele>
        <time>2019-07-14T06:46:46.000Z</time>
      </trkpt>
      <trkpt lat="43.23535" lon="2.33676">
        <ele>102.4</ele>
        <time>2019-07-14T06:46:47.000Z</time>
      </trkpt>
      <trkpt lat="43.23535" lon="2.33679">
        <ele>102.4</ele>
        <time>2019-07-14T06:46:48.000Z</time>
      </trkpt>
      <trkpt lat="43.23535" lon="2.33682">
        <ele>102.3</ele>
        <time>2019-07-14T06:46:49.000Z</time>
      </trkpt>
      <trkpt lat="43.23535" lon="2.33685">
        <ele>102.3</ele>
        <time>2019-07-14T06:46:50.000Z</time>
      </trkpt>
      <trkpt lat="43.23535" lon="2.33688">
        <ele>102.2</ele>
        <time>2019-07-14T06:46:51.000Z</time>
      </trkpt>
      <trkpt lat="43.23535" lon="2.33691">
        <ele>102.2</ele>
        <time>2019-07-14T06:46:52.000Z</time>
      </trkpt>
      <trkpt lat="43.23535" lon="2.33694">
        <ele>102.2</ele>
        <time>2019-07-14T06:46:53.000Z</time>
      </trkpt>
      <trkpt lat="43.23536" lon="2.33697">
        <ele>102.2</ele>
        <time>2019-07-14T06:46:54.000Z</time>
      </trkpt>
      <trkpt lat="43.23536" lon="2.33701">
        <ele>102.2</ele>
        <time>2019-07-14T06:46:55.000Z</time>
      </trkpt>
      <trkpt lat="43.23537" lon="2.33704">
        <ele>102.2</ele>
        <time>2019-07-14T06:46:56.000Z</time>
      </trkpt>
      <trkpt lat="43.23537" lon="2.33707">
        <ele>102.2</ele>
        <time>2019-07-14T06:46:57.000Z</time>
      </trkpt>
      <trkpt lat="43.23538" lon="2.3371">
        <ele>102.2</ele>
        <time>2019-07-14T06:46:58.000Z</time>
      </trkpt>
      <trkpt lat="43.23539" lon="2.33713">
        <ele>102.2</ele>
        <time>2019-07-14T06:46:59.000Z</time>
      </trkpt>
      <trkpt lat="43.23539" lon="2.33717">
        <ele>102.2</ele>
        <time>2019-07-14T06:47:00.000Z</time>
      </trkpt>
      <trkpt lat="43.2354" lon="2.3372">
        <ele>102.2</ele>
        <time>2019-07-14T06:47:01.000Z</time>
      </trkpt>
      <trkpt lat="43.2354" lon="2.33723">
        <ele>102.2</ele>
        <time>2019-07-14T06:47:02.000Z</time>
      </trkpt>
      <trkpt lat="43.23541" lon="2.33726">
        <ele>102.2</ele>
        <time>2019-07-14T06:47:03.000Z</time>
      </trkpt>
      <trkpt lat="43.23541" lon="2.3373">
        <ele>102.2</ele>
        <time>2019-07-14T06:47:04.000Z</time>
      </trkpt>
      <trkpt lat="43.23541" lon="2.33733">
        <ele>102.2</ele>
        <time>2019-07-14T06:47:05.000Z</time>
      </trkpt>
      <trkpt lat="43.23542" lon="2.33736">
        <ele>102.2</ele>
        <time>2019-07-14T06:47:06.000Z</time>
      </trkpt>
      <trkpt lat="43.23542" lon="2.33739">
        <ele>102.1</ele>
        <time>2019-07-14T06:47:07.000Z</time>
      </trkpt>
      <trkpt lat="43.23542" lon="2.33743">
        <ele>102.1</ele>
        <time>2019-07-14T06:47:08.000Z</time>
      </trkpt>
      <trkpt lat="43.23543" lon="2.33746">
        <ele>102.1</ele>
        <time>2019-07-14T06:47:09.000Z</time>
      </trkpt>
      <trkpt lat="43.23543" lon="2.33749">
        <ele>102.1</ele>
        <time>2019-07-14T06:47:10.000Z</time>
      </trkpt>
      <trkpt lat="43.23543" lon="2.33752">
        <ele>102.1</ele>
        <time>2019-07-14T06:47:11.000Z</time>
      </trkpt>
      <trkpt lat="43.23544" lon="2.33756">
        <ele>102.1</ele>
        <time>2019-07-14T06:47:12.000Z</time>
      </trkpt>
      <trkpt lat="43.23544" lon="2.33759">
        <ele>102.1</ele>
        <time>2019-07-14T06:47:13.000Z</time>
      </trkpt>
      <trkpt lat="43.23544" lon="2.33762">
        <ele>102.1</ele>
        <time>2019-07-14T06:47:14.000Z</time>
      </trkpt>
      <trkpt lat="43.23545" lon="2.33765">
        <ele>102.1</ele>
        <time>2019-07-14T06:47:15.000Z</time>
      </trkpt>
      <trkpt lat="43.23545" lon="2.33768">
        <ele>102.1</ele>
        <time>2019-07-14T06:47:16.000Z</time>
      </trkpt>
      <trkpt lat="43.23545" lon="2.33772">
        <ele>102.2</ele>
        <time>2019-07-14T06:47:17.000Z</time>
      </trkpt>
      <trkpt lat="43.23546" lon="2.33775">
        <ele>102.2</ele>
        <time>2019-07-14T06:47:18.000Z</time>
      </trkpt>
      <trkpt lat="43.23546" lon="2.33778">
        <ele>102.2</ele>
        <time>2019-07-14T06:47:19.000Z</time>
      </trkpt>
      <trkpt lat="43.23547" lon="2.33781">
        <ele>102.2</ele>
        <time>2019-07-14T06:47:20.000Z</time>
      </trkpt>
      <trkpt lat="43.23547" lon="2.33784">
        <ele>102.2</ele>
        <time>2019-07-14T06:47:21.000Z</time>
      </trkpt>
      <trkpt lat="43.23547" lon="2.33788">
        <ele>102.2</ele>
        <time>2019-07-14T06:47:22.000Z</time>
      </trkpt>
      <trkpt lat="43.23547" lon="2.33791">
        <ele>102.2</ele>
        <time>2019-07-14T06:47:23.000Z</time>
      </trkpt>
      <trkpt lat="43.23548" lon="2.33794">
        <ele>102.2</ele>
        <time>2019-07-14T06:47:24.000Z</time>
      </trkpt>
      <trkpt lat="43.23548" lon="2.33797">
        <ele>102.2</ele>
        <time>2019-07-14T06:47:25.000Z</time>
      </trkpt>
      <trkpt lat="43.23548" lon="2.33801">
        <ele>102.2</ele>
        <time>2019-07-14T06:47:26.000Z</time>
      </trkpt>
      <trkpt lat="43.23549" lon="2.33804">
        <ele>102.2</ele>
        <time>2019-07-14T06:47:27.000Z</time>
      </trkpt>
      <trkpt lat="43.23549" lon="2.33807">
        <ele>102.2</ele>
        <time>2019-07-14T06:47:28.000Z</time>
      </trkpt>
      <trkpt lat="43.23549" lon="2.33811">
        <ele>102.2</ele>
        <time>2019-07-14T06:47:29.000Z</time>
      </trkpt>
      <trkpt lat="43.23549" lon="2.33814">
        <ele>102.2</ele>
        <time>2019-07-14T06:47:30.000Z</time>
      </trkpt>
      <trkpt lat="43.23549" lon="2.33817">
        <ele>102.2</ele>
        <time>2019-07-14T06:47:31.000Z</time>
      </trkpt>
      <trkpt lat="43.23549" lon="2.33821">
        <ele>102.2</ele>
        <time>2019-07-14T06:47:32.000Z</time>
      </trkpt>
      <trkpt lat="43.2355" lon="2.33824">
        <ele>102.2</ele>
        <time>2019-07-14T06:47:33.000Z</time>
      </trkpt>
      <trkpt lat="43.2355" lon="2.33827">
        <ele>102.2</ele>
        <time>2019-07-14T06:47:34.000Z</time>
      </trkpt>
      <trkpt lat="43.2355" lon="2.3383">
        <ele>102.2</ele>
        <time>2019-07-14T06:47:35.000Z</time>
      </trkpt>
      <trkpt lat="43.2355" lon="2.33834">
        <ele>102.2</ele>
        <time>2019-07-14T06:47:36.000Z</time>
      </trkpt>
      <trkpt lat="43.2355" lon="2.33837">
        <ele>102.1</ele>
        <time>2019-07-14T06:47:37.000Z</time>
      </trkpt>
      <trkpt lat="43.2355" lon="2.3384">
        <ele>102</ele>
        <time>2019-07-14T06:47:38.000Z</time>
      </trkpt>
      <trkpt lat="43.2355" lon="2.33844">
        <ele>101.9</ele>
        <time>2019-07-14T06:47:39.000Z</time>
      </trkpt>
      <trkpt lat="43.2355" lon="2.33847">
        <ele>101.8</ele>
        <time>2019-07-14T06:47:40.000Z</time>
      </trkpt>
      <trkpt lat="43.2355" lon="2.3385">
        <ele>101.7</ele>
        <time>2019-07-14T06:47:41.000Z</time>
      </trkpt>
      <trkpt lat="43.2355" lon="2.33853">
        <ele>101.7</ele>
        <time>2019-07-14T06:47:42.000Z</time>
      </trkpt>
      <trkpt lat="43.2355" lon="2.33857">
        <ele>101.6</ele>
        <time>2019-07-14T06:47:43.000Z</time>
      </trkpt>
      <trkpt lat="43.2355" lon="2.3386">
        <ele>101.5</ele>
        <time>2019-07-14T06:47:44.000Z</time>
      </trkpt>
      <trkpt lat="43.2355" lon="2.33863">
        <ele>101.4</ele>
        <time>2019-07-14T06:47:45.000Z</time>
      </trkpt>
      <trkpt lat="43.2355" lon="2.33866">
        <ele>101.3</ele>
        <time>2019-07-14T06:47:46.000Z</time>
      </trkpt>
      <trkpt lat="43.23549" lon="2.3387">
        <ele>101.2</ele>
        <time>2019-07-14T06:47:47.000Z</time>
      </trkpt>
      <trkpt lat="43.23549" lon="2.33873">
        <ele>101.1</ele>
        <time>2019-07-14T06:47:48.000Z</time>
      </trkpt>
      <trkpt lat="43.23549" lon="2.33876">
        <ele>101</ele>
        <time>2019-07-14T06:47:49.000Z</time>
      </trkpt>
      <trkpt lat="43.23549" lon="2.33879">
        <ele>100.9</ele>
        <time>2019-07-14T06:47:50.000Z</time>
      </trkpt>
      <trkpt lat="43.23549" lon="2.33882">
        <ele>100.8</ele>
        <time>2019-07-14T06:47:51.000Z</time>
      </trkpt>
      <trkpt lat="43.23549" lon="2.33886">
        <ele>100.7</ele>
        <time>2019-07-14T06:47:52.000Z</time>
      </trkpt>
      <trkpt lat="43.23549" lon="2.33889">
        <ele>100.6</ele>
        <time>2019-07-14T06:47:53.000Z</time>
      </trkpt>
      <trkpt lat="43.23548" lon="2.33892">
        <ele>100.5</ele>
        <time>2019-07-14T06:47:54.000Z</time>
      </trkpt>
      <trkpt lat="43.23548" lon="2.33895">
        <ele>100.4</ele>
        <time>2019-07-14T06:47:55.000Z</time>
      </trkpt>
      <trkpt lat="43.23548" lon="2.33899">
        <ele>100.3</ele>
        <time>2019-07-14T06:47:56.000Z</time>
      </trkpt>
      <trkpt lat="43.23548" lon="2.33902">
        <ele>100.3</ele>
        <time>2019-07-14T06:47:57.000Z</time>
      </trkpt>
      <trkpt lat="43.23548" lon="2.33905">
        <ele>100.2</ele>
        <time>2019-07-14T06:47:58.000Z</time>
      </trkpt>
      <trkpt lat="43.23547" lon="2.33908">
        <ele>100.1</ele>
        <time>2019-07-14T06:47:59.000Z</time>
      </trkpt>
      <trkpt lat="43.23547" lon="2.33912">
        <ele>100</ele>
        <time>2019-07-14T06:48:00.000Z</time>
      </trkpt>
      <trkpt lat="43.23547" lon="2.33915">
        <ele>99.9</ele>
        <time>2019-07-14T06:48:01.000Z</time>
      </trkpt>
      <trkpt lat="43.23547" lon="2.33918">
        <ele>99.8</ele>
        <time>2019-07-14T06:48:02.000Z</time>
      </trkpt>
      <trkpt lat="43.23546" lon="2.33921">
        <ele>99.7</ele>
        <time>2019-07-14T06:48:03.000Z</time>
      </trkpt>
      <trkpt lat="43.23546" lon="2.33925">
        <ele>99.7</ele>
        <time>2019-07-14T06:48:04.000Z</time>
      </trkpt>
      <trkpt lat="43.23546" lon="2.33928">
        <ele>99.7</ele>
        <time>2019-07-14T06:48:05.000Z</time>
      </trkpt>
      <trkpt lat="43.23546" lon="2.33931">
        <ele>99.6</ele>
        <time>2019-07-14T06:48:06.000Z</time>
      </trkpt>
      <trkpt lat="43.23545" lon="2.33935">
        <ele>99.6</ele>
        <time>2019-07-14T06:48:07.000Z</time>
      </trkpt>
      <trkpt lat="43.23545" lon="2.33938">
        <ele>99.5</ele>
        <time>2019-07-14T06:48:08.000Z</time>
      </trkpt>
      <trkpt lat="43.23545" lon="2.33941">
        <ele>99.5</ele>
        <time>2019-07-14T06:48:09.000Z</time>
      </trkpt>
      <trkpt lat="43.23545" lon="2.33945">
        <ele>99.5</ele>
        <time>2019-07-14T06:48:10.000Z</time>
      </trkpt>
      <trkpt lat="43.23544" lon="2.33948">
        <ele>99.4</ele>
        <time>2019-07-14T06:48:11.000Z</time>
      </trkpt>
      <trkpt lat="43.23544" lon="2.33951">
        <ele>99.4</ele>
        <time>2019-07-14T06:48:12.000Z</time>
      </trkpt>
      <trkpt lat="43.23544" lon="2.33955">
        <ele>99.4</ele>
        <time>2019-07-14T06:48:13.000Z</time>
      </trkpt>
      <trkpt lat="43.23544" lon="2.33958">
        <ele>99.3</ele>
        <time>2019-07-14T06:48:14.000Z</time>
      </trkpt>
      <trkpt lat="43.23543" lon="2.33961">
        <ele>99.3</ele>
        <time>2019-07-14T06:48:15.000Z</time>
      </trkpt>
      <trkpt lat="43.23543" lon="2.33965">
        <ele>99.3</ele>
        <time>2019-07-14T06:48:16.000Z</time>
      </trkpt>
      <trkpt lat="43.23543" lon="2.33968">
        <ele>99.2</ele>
        <time>2019-07-14T06:48:17.000Z</time>
      </trkpt>
      <trkpt lat="43.23543" lon="2.33971">
        <ele>99.2</ele>
        <time>2019-07-14T06:48:18.000Z</time>
      </trkpt>
      <trkpt lat="43.23542" lon="2.33974">
        <ele>99.2</ele>
        <time>2019-07-14T06:48:19.000Z</time>
      </trkpt>
      <trkpt lat="43.23542" lon="2.33978">
        <ele>99.1</ele>
        <time>2019-07-14T06:48:20.000Z</time>
      </trkpt>
      <trkpt lat="43.23542" lon="2.33981">
        <ele>99.1</ele>
        <time>2019-07-14T06:48:21.000Z</time>
      </trkpt>
      <trkpt lat="43.23542" lon="2.33984">
        <ele>99.1</ele>
        <time>2019-07-14T06:48:22.000Z</time>
      </trkpt>
      <trkpt lat="43.23541" lon="2.33987">
        <ele>99.1</ele>
        <time>2019-07-14T06:48:23.000Z</time>
      </trkpt>
      <trkpt lat="43.23541" lon="2.33991">
        <ele>99</ele>
        <time>2019-07-14T06:48:24.000Z</time>
      </trkpt>
      <trkpt lat="43.23541" lon="2.33994">
        <ele>99</ele>
        <time>2019-07-14T06:48:25.000Z</time>
      </trkpt>
      <trkpt lat="43.23541" lon="2.33997">
        <ele>99</ele>
        <time>2019-07-14T06:48:26.000Z</time>
      </trkpt>
      <trkpt lat="43.23541" lon="2.34">
        <ele>99</ele>
        <time>2019-07-14T06:48:27.000Z</time>
      </trkpt>
      <trkpt lat="43.2354" lon="2.34003">
        <ele>99</ele>
        <time>2019-07-14T06:48:28.000Z</time>
      </trkpt>
      <trkpt lat="43.2354" lon="2.34006">
        <ele>99</ele>
        <time>2019-07-14T06:48:29.000Z</time>
      </trkpt>
      <trkpt lat="43.2354" lon="2.34009">
        <ele>99</ele>
        <time>2019-07-14T06:48:30.000Z</time>
      </trkpt>
      <trkpt lat="43.2354" lon="2.34012">
        <ele>99</ele>
        <time>2019-07-14T06:48:31.000Z</time>
      </trkpt>
      <trkpt lat="43.2354" lon="2.34015">
        <ele>99</ele>
        <time>2019-07-14T06:48:32.000Z</time>
      </trkpt>
      <trkpt lat="43.2354" lon="2.34018">
        <ele>99.1</ele>
        <time>2019-07-14T06:48:33.000Z</time>
      </trkpt>
      <trkpt lat="43.2354" lon="2.34021">
        <ele>99.1</ele>
        <time>2019-07-14T06:48:34.000Z</time>
      </trkpt>
      <trkpt lat="43.2354" lon="2.34024">
        <ele>99.1</ele>
        <time>2019-07-14T06:48:35.000Z</time>
      </trkpt>
      <trkpt lat="43.2354" lon="2.34027">
        <ele>99.1</ele>
        <time>2019-07-14T06:48:36.000Z</time>
      </trkpt>
      <trkpt lat="43.2354" lon="2.3403">
        <ele>99.1</ele>
        <time>2019-07-14T06:48:37.000Z</time>
      </trkpt>
      <trkpt lat="43.2354" lon="2.34033">
        <ele>99.2</ele>
        <time>2019-07-14T06:48:38.000Z</time>
      </trkpt>
      <trkpt lat="43.2354" lon="2.34036">
        <ele>99.2</ele>
        <time>2019-07-14T06:48:39.000Z</time>
      </trkpt>
      <trkpt lat="43.23541" lon="2.34038">
        <ele>99.2</ele>
        <time>2019-07-14T06:48:40.000Z</time>
      </trkpt>
      <trkpt lat="43.23541" lon="2.34041">
        <ele>99.2</ele>
        <time>2019-07-14T06:48:41.000Z</time>
      </trkpt>
      <trkpt lat="43.23542" lon="2.34044">
        <ele>99.3</ele>
        <time>2019-07-14T06:48:42.000Z</time>
      </trkpt>
      <trkpt lat="43.23542" lon="2.34047">
        <ele>99.3</ele>
        <time>2019-07-14T06:48:43.000Z</time>
      </trkpt>
      <trkpt lat="43.23543" lon="2.34049">
        <ele>99.3</ele>
        <time>2019-07-14T06:48:44.000Z</time>
      </trkpt>
      <trkpt lat="43.23543" lon="2.34052">
        <ele>99.4</ele>
        <time>2019-07-14T06:48:45.000Z</time>
      </trkpt>
      <trkpt lat="43.23544" lon="2.34054">
        <ele>99.4</ele>
        <time>2019-07-14T06:48:46.000Z</time>
      </trkpt>
      <trkpt lat="43.23544" lon="2.34056">
        <ele>99.4</ele>
        <time>2019-07-14T06:48:47.000Z</time>
      </trkpt>
      <trkpt lat="43.23545" lon="2.34058">
        <ele>99.4</ele>
        <time>2019-07-14T06:48:48.000Z</time>
      </trkpt>
      <trkpt lat="43.23545" lon="2.34059">
        <ele>99.5</ele>
        <time>2019-07-14T06:48:49.000Z</time>
      </trkpt>
      <trkpt lat="43.23546" lon="2.3406">
        <ele>99.5</ele>
        <time>2019-07-14T06:48:50.000Z</time>
      </trkpt>
      <trkpt lat="43.23546" lon="2.34061">
        <ele>99.5</ele>
        <time>2019-07-14T06:48:51.000Z</time>
      </trkpt>
      <trkpt lat="43.23546" lon="2.34062">
        <ele>99.5</ele>
        <time>2019-07-14T06:48:52.000Z</time>
      </trkpt>
      <trkpt lat="43.23547" lon="2.34063">
        <ele>99.5</ele>
        <time>2019-07-14T06:48:53.000Z</time>
      </trkpt>
      <trkpt lat="43.23547" lon="2.34065">
        <ele>99.6</ele>
        <time>2019-07-14T06:48:54.000Z</time>
      </trkpt>
      <trkpt lat="43.23548" lon="2.34066">
        <ele>99.6</ele>
        <time>2019-07-14T06:48:55.000Z</time>
      </trkpt>
      <trkpt lat="43.23549" lon="2.34068">
        <ele>99.6</ele>
        <time>2019-07-14T06:48:56.000Z</time>
      </trkpt>
      <trkpt lat="43.23549" lon="2.34071">
        <ele>99.7</ele>
        <time>2019-07-14T06:48:57.000Z</time>
      </trkpt>
      <trkpt lat="43.2355" lon="2.34073">
        <ele>99.7</ele>
        <time>2019-07-14T06:48:58.000Z</time>
      </trkpt>
      <trkpt lat="43.23551" lon="2.34076">
        <ele>99.8</ele>
        <time>2019-07-14T06:48:59.000Z</time>
      </trkpt>
      <trkpt lat="43.23551" lon="2.34079">
        <ele>99.8</ele>
        <time>2019-07-14T06:49:00.000Z</time>
      </trkpt>
      <trkpt lat="43.23551" lon="2.34082">
        <ele>99.8</ele>
        <time>2019-07-14T06:49:01.000Z</time>
      </trkpt>
      <trkpt lat="43.23551" lon="2.34085">
        <ele>99.9</ele>
        <time>2019-07-14T06:49:02.000Z</time>
      </trkpt>
      <trkpt lat="43.23552" lon="2.34088">
        <ele>99.9</ele>
        <time>2019-07-14T06:49:03.000Z</time>
      </trkpt>
      <trkpt lat="43.23552" lon="2.34092">
        <ele>99.9</ele>
        <time>2019-07-14T06:49:04.000Z</time>
      </trkpt>
      <trkpt lat="43.23552" lon="2.34095">
        <ele>99.9</ele>
        <time>2019-07-14T06:49:05.000Z</time>
      </trkpt>
      <trkpt lat="43.23552" lon="2.34098">
        <ele>100</ele>
        <time>2019-07-14T06:49:06.000Z</time>
      </trkpt>
      <trkpt lat="43.23552" lon="2.341">
        <ele>100</ele>
        <time>2019-07-14T06:49:07.000Z</time>
      </trkpt>
      <trkpt lat="43.23552" lon="2.34103">
        <ele>100</ele>
        <time>2019-07-14T06:49:08.000Z</time>
      </trkpt>
      <trkpt lat="43.23552" lon="2.34106">
        <ele>100</ele>
        <time>2019-07-14T06:49:09.000Z</time>
      </trkpt>
      <trkpt lat="43.23552" lon="2.34109">
        <ele>100</ele>
        <time>2019-07-14T06:49:10.000Z</time>
      </trkpt>
      <trkpt lat="43.23552" lon="2.34111">
        <ele>100.1</ele>
        <time>2019-07-14T06:49:11.000Z</time>
      </trkpt>
      <trkpt lat="43.23551" lon="2.34114">
        <ele>100.1</ele>
        <time>2019-07-14T06:49:12.000Z</time>
      </trkpt>
      <trkpt lat="43.23551" lon="2.34117">
        <ele>100.1</ele>
        <time>2019-07-14T06:49:13.000Z</time>
      </trkpt>
      <trkpt lat="43.23551" lon="2.3412">
        <ele>100.1</ele>
        <time>2019-07-14T06:49:14.000Z</time>
      </trkpt>
      <trkpt lat="43.23551" lon="2.34122">
        <ele>100.1</ele>
        <time>2019-07-14T06:49:15.000Z</time>
      </trkpt>
      <trkpt lat="43.23551" lon="2.34125">
        <ele>100.2</ele>
        <time>2019-07-14T06:49:16.000Z</time>
      </trkpt>
      <trkpt lat="43.23551" lon="2.34128">
        <ele>100.2</ele>
        <time>2019-07-14T06:49:17.000Z</time>
      </trkpt>
      <trkpt lat="43.23551" lon="2.34131">
        <ele>100.2</ele>
        <time>2019-07-14T06:49:18.000Z</time>
      </trkpt>
      <trkpt lat="43.23551" lon="2.34134">
        <ele>100.2</ele>
        <time>2019-07-14T06:49:19.000Z</time>
      </trkpt>
      <trkpt lat="43.23551" lon="2.34137">
        <ele>100.2</ele>
        <time>2019-07-14T06:49:20.000Z</time>
      </trkpt>
      <trkpt lat="43.23551" lon="2.3414">
        <ele>100.3</ele>
        <time>2019-07-14T06:49:21.000Z</time>
      </trkpt>
      <trkpt lat="43.23551" lon="2.34143">
        <ele>100.3</ele>
        <time>2019-07-14T06:49:22.000Z</time>
      </trkpt>
      <trkpt lat="43.23551" lon="2.34145">
        <ele>100.3</ele>
        <time>2019-07-14T06:49:23.000Z</time>
      </trkpt>
      <trkpt lat="43.23551" lon="2.34148">
        <ele>100.3</ele>
        <time>2019-07-14T06:49:24.000Z</time>
      </trkpt>
      <trkpt lat="43.23551" lon="2.3415">
        <ele>100.3</ele>
        <time>2019-07-14T06:49:25.000Z</time>
      </trkpt>
      <trkpt lat="43.23551" lon="2.34151">
        <ele>100.3</ele>
        <time>2019-07-14T06:49:26.000Z</time>
      </trkpt>
      <trkpt lat="43.23551" lon="2.34152">
        <ele>100.3</ele>
        <time>2019-07-14T06:49:27.000Z</time>
      </trkpt>
      <trkpt lat="43.23551" lon="2.34153">
        <ele>100.3</ele>
        <time>2019-07-14T06:49:28.000Z</time>
      </trkpt>
      <trkpt lat="43.23551" lon="2.34153">
        <ele>100.3</ele>
        <time>2019-07-14T06:49:29.000Z</time>
      </trkpt>
      <trkpt lat="43.23551" lon="2.34155">
        <ele>100.4</ele>
        <time>2019-07-14T06:49:30.000Z</time>
      </trkpt>
      <trkpt lat="43.23551" lon="2.34156">
        <ele>100.4</ele>
        <time>2019-07-14T06:49:31.000Z</time>
      </trkpt>
      <trkpt lat="43.23551" lon="2.34157">
        <ele>100.4</ele>
        <time>2019-07-14T06:49:32.000Z</time>
      </trkpt>
      <trkpt lat="43.23552" lon="2.34159">
        <ele>100.4</ele>
        <time>2019-07-14T06:49:33.000Z</time>
      </trkpt>
      <trkpt lat="43.23552" lon="2.34162">
        <ele>100.4</ele>
        <time>2019-07-14T06:49:34.000Z</time>
      </trkpt>
      <trkpt lat="43.23552" lon="2.34164">
        <ele>100.5</ele>
        <time>2019-07-14T06:49:35.000Z</time>
      </trkpt>
      <trkpt lat="43.23552" lon="2.34167">
        <ele>100.5</ele>
        <time>2019-07-14T06:49:36.000Z</time>
      </trkpt>
      <trkpt lat="43.23552" lon="2.34169">
        <ele>100.4</ele>
        <time>2019-07-14T06:49:37.000Z</time>
      </trkpt>
      <trkpt lat="43.23552" lon="2.34172">
        <ele>100.4</ele>
        <time>2019-07-14T06:49:38.000Z</time>
      </trkpt>
      <trkpt lat="43.23552" lon="2.34175">
        <ele>100.4</ele>
        <time>2019-07-14T06:49:39.000Z</time>
      </trkpt>
      <trkpt lat="43.23552" lon="2.34178">
        <ele>100.3</ele>
        <time>2019-07-14T06:49:40.000Z</time>
      </trkpt>
      <trkpt lat="43.23551" lon="2.3418">
        <ele>100.3</ele>
        <time>2019-07-14T06:49:41.000Z</time>
      </trkpt>
      <trkpt lat="43.23551" lon="2.34183">
        <ele>100.3</ele>
        <time>2019-07-14T06:49:42.000Z</time>
      </trkpt>
      <trkpt lat="43.23551" lon="2.34185">
        <ele>100.2</ele>
        <time>2019-07-14T06:49:43.000Z</time>
      </trkpt>
      <trkpt lat="43.23551" lon="2.34187">
        <ele>100.2</ele>
        <time>2019-07-14T06:49:44.000Z</time>
      </trkpt>
      <trkpt lat="43.23551" lon="2.34189">
        <ele>100.2</ele>
        <time>2019-07-14T06:49:45.000Z</time>
      </trkpt>
      <trkpt lat="43.23551" lon="2.34191">
        <ele>100.1</ele>
        <time>2019-07-14T06:49:46.000Z</time>
      </trkpt>
      <trkpt lat="43.2355" lon="2.34193">
        <ele>100.1</ele>
        <time>2019-07-14T06:49:47.000Z</time>
      </trkpt>
      <trkpt lat="43.2355" lon="2.34194">
        <ele>100.1</ele>
        <time>2019-07-14T06:49:48.000Z</time>
      </trkpt>
      <trkpt lat="43.2355" lon="2.34196">
        <ele>100</ele>
        <time>2019-07-14T06:49:49.000Z</time>
      </trkpt>
      <trkpt lat="43.2355" lon="2.34198">
        <ele>100</ele>
        <time>2019-07-14T06:49:50.000Z</time>
      </trkpt>
      <trkpt lat="43.23549" lon="2.342">
        <ele>100</ele>
        <time>2019-07-14T06:49:51.000Z</time>
      </trkpt>
      <trkpt lat="43.23549" lon="2.34202">
        <ele>99.9</ele>
        <time>2019-07-14T06:49:52.000Z</time>
      </trkpt>
      <trkpt lat="43.23549" lon="2.34204">
        <ele>99.9</ele>
        <time>2019-07-14T06:49:53.000Z</time>
      </trkpt>
      <trkpt lat="43.23549" lon="2.34207">
        <ele>99.9</ele>
        <time>2019-07-14T06:49:54.000Z</time>
      </trkpt>
      <trkpt lat="43.23549" lon="2.34209">
        <ele>99.8</ele>
        <time>2019-07-14T06:49:55.000Z</time>
      </trkpt>
      <trkpt lat="43.23548" lon="2.34212">
        <ele>99.8</ele>
        <time>2019-07-14T06:49:56.000Z</time>
      </trkpt>
      <trkpt lat="43.23548" lon="2.34215">
        <ele>99.7</ele>
        <time>2019-07-14T06:49:57.000Z</time>
      </trkpt>
      <trkpt lat="43.23548" lon="2.34218">
        <ele>99.7</ele>
        <time>2019-07-14T06:49:58.000Z</time>
      </trkpt>
      <trkpt lat="43.23548" lon="2.34221">
        <ele>99.7</ele>
        <time>2019-07-14T06:49:59.000Z</time>
      </trkpt>
      <trkpt lat="43.23548" lon="2.34225">
        <ele>99.6</ele>
        <time>2019-07-14T06:50:00.000Z</time>
      </trkpt>
      <trkpt lat="43.23548" lon="2.34228">
        <ele>99.6</ele>
        <time>2019-07-14T06:50:01.000Z</time>
      </trkpt>
      <trkpt lat="43.23548" lon="2.34231">
        <ele>99.5</ele>
        <time>2019-07-14T06:50:02.000Z</time>
      </trkpt>
      <trkpt lat="43.23548" lon="2.34234">
        <ele>99.5</ele>
        <time>2019-07-14T06:50:03.000Z</time>
      </trkpt>
      <trkpt lat="43.23548" lon="2.34237">
        <ele>99.5</ele>
        <time>2019-07-14T06:50:04.000Z</time>
      </trkpt>
      <trkpt lat="43.23548" lon="2.3424">
        <ele>99.4</ele>
        <time>2019-07-14T06:50:05.000Z</time>
      </trkpt>
      <trkpt lat="43.23548" lon="2.34243">
        <ele>99.4</ele>
        <time>2019-07-14T06:50:06.000Z</time>
      </trkpt>
      <trkpt lat="43.23548" lon="2.34246">
        <ele>99.3</ele>
        <time>2019-07-14T06:50:07.000Z</time>
      </trkpt>
      <trkpt lat="43.23548" lon="2.34249">
        <ele>99.3</ele>
        <time>2019-07-14T06:50:08.000Z</time>
      </trkpt>
      <trkpt lat="43.23548" lon="2.34252">
        <ele>99.3</ele>
        <time>2019-07-14T06:50:09.000Z</time>
      </trkpt>
      <trkpt lat="43.23548" lon="2.34255">
        <ele>99.3</ele>
        <time>2019-07-14T06:50:10.000Z</time>
      </trkpt>
      <trkpt lat="43.23548" lon="2.34258">
        <ele>99.3</ele>
        <time>2019-07-14T06:50:11.000Z</time>
      </trkpt>
      <trkpt lat="43.23548" lon="2.34261">
        <ele>99.3</ele>
        <time>2019-07-14T06:50:12.000Z</time>
      </trkpt>
      <trkpt lat="43.23548" lon="2.34264">
        <ele>99.3</ele>
        <time>2019-07-14T06:50:13.000Z</time>
      </trkpt>
      <trkpt lat="43.23548" lon="2.34267">
        <ele>99.3</ele>
        <time>2019-07-14T06:50:14.000Z</time>
      </trkpt>
      <trkpt lat="43.23548" lon="2.3427">
        <ele>99.3</ele>
        <time>2019-07-14T06:50:15.000Z</time>
      </trkpt>
      <trkpt lat="43.23548" lon="2.34273">
        <ele>99.3</ele>
        <time>2019-07-14T06:50:16.000Z</time>
      </trkpt>
      <trkpt lat="43.23547" lon="2.34277">
        <ele>99.3</ele>
        <time>2019-07-14T06:50:17.000Z</time>
      </trkpt>
      <trkpt lat="43.23547" lon="2.3428">
        <ele>99.3</ele>
        <time>2019-07-14T06:50:18.000Z</time>
      </trkpt>
      <trkpt lat="43.23547" lon="2.34283">
        <ele>99.3</ele>
        <time>2019-07-14T06:50:19.000Z</time>
      </trkpt>
      <trkpt lat="43.23547" lon="2.34286">
        <ele>99.3</ele>
        <time>2019-07-14T06:50:20.000Z</time>
      </trkpt>
      <trkpt lat="43.23547" lon="2.34289">
        <ele>99.3</ele>
        <time>2019-07-14T06:50:21.000Z</time>
      </trkpt>
      <trkpt lat="43.23547" lon="2.34292">
        <ele>99.3</ele>
        <time>2019-07-14T06:50:22.000Z</time>
      </trkpt>
      <trkpt lat="43.23547" lon="2.34295">
        <ele>99.3</ele>
        <time>2019-07-14T06:50:23.000Z</time>
      </trkpt>
      <trkpt lat="43.23547" lon="2.34298">
        <ele>99.3</ele>
        <time>2019-07-14T06:50:24.000Z</time>
      </trkpt>
      <trkpt lat="43.23547" lon="2.34301">
        <ele>99.3</ele>
        <time>2019-07-14T06:50:25.000Z</time>
      </trkpt>
      <trkpt lat="43.23547" lon="2.34305">
        <ele>99.3</ele>
        <time>2019-07-14T06:50:26.000Z</time>
      </trkpt>
      <trkpt lat="43.23547" lon="2.34308">
        <ele>99.3</ele>
        <time>2019-07-14T06:50:27.000Z</time>
      </trkpt>
      <trkpt lat="43.23547" lon="2.34311">
        <ele>99.3</ele>
        <time>2019-07-14T06:50:28.000Z</time>
      </trkpt>
      <trkpt lat="43.23547" lon="2.34314">
        <ele>99.3</ele>
        <time>2019-07-14T06:50:29.000Z</time>
      </trkpt>
      <trkpt lat="43.23547" lon="2.34317">
        <ele>99.3</ele>
        <time>2019-07-14T06:50:30.000Z</time>
      </trkpt>
      <trkpt lat="43.23547" lon="2.3432">
        <ele>99.2</ele>
        <time>2019-07-14T06:50:31.000Z</time>
      </trkpt>
      <trkpt lat="43.23547" lon="2.34324">
        <ele>99.2</ele>
        <time>2019-07-14T06:50:32.000Z</time>
      </trkpt>
      <trkpt lat="43.23547" lon="2.34327">
        <ele>99.2</ele>
        <time>2019-07-14T06:50:33.000Z</time>
      </trkpt>
      <trkpt lat="43.23547" lon="2.3433">
        <ele>99.2</ele>
        <time>2019-07-14T06:50:34.000Z</time>
      </trkpt>
      <trkpt lat="43.23547" lon="2.34333">
        <ele>99.2</ele>
        <time>2019-07-14T06:50:35.000Z</time>
      </trkpt>
      <trkpt lat="43.23547" lon="2.34336">
        <ele>99.2</ele>
        <time>2019-07-14T06:50:36.000Z</time>
      </trkpt>
      <trkpt lat="43.23547" lon="2.3434">
        <ele>99.2</ele>
        <time>2019-07-14T06:50:37.000Z</time>
      </trkpt>
      <trkpt lat="43.23547" lon="2.34343">
        <ele>99.1</ele>
        <time>2019-07-14T06:50:38.000Z</time>
      </trkpt>
      <trkpt lat="43.23547" lon="2.34346">
        <ele>99.1</ele>
        <time>2019-07-14T06:50:39.000Z</time>
      </trkpt>
      <trkpt lat="43.23547" lon="2.34349">
        <ele>99</ele>
        <time>2019-07-14T06:50:40.000Z</time>
      </trkpt>
      <trkpt lat="43.23546" lon="2.34352">
        <ele>99</ele>
        <time>2019-07-14T06:50:41.000Z</time>
      </trkpt>
      <trkpt lat="43.23546" lon="2.34355">
        <ele>99</ele>
        <time>2019-07-14T06:50:42.000Z</time>
      </trkpt>
      <trkpt lat="43.23546" lon="2.34358">
        <ele>98.9</ele>
        <time>2019-07-14T06:50:43.000Z</time>
      </trkpt>
      <trkpt lat="43.23546" lon="2.34362">
        <ele>98.9</ele>
        <time>2019-07-14T06:50:44.000Z</time>
      </trkpt>
      <trkpt lat="43.23546" lon="2.34365">
        <ele>98.8</ele>
        <time>2019-07-14T06:50:45.000Z</time>
      </trkpt>
      <trkpt lat="43.23546" lon="2.34368">
        <ele>98.8</ele>
        <time>2019-07-14T06:50:46.000Z</time>
      </trkpt>
      <trkpt lat="43.23546" lon="2.34371">
        <ele>98.8</ele>
        <time>2019-07-14T06:50:47.000Z</time>
      </trkpt>
      <trkpt lat="43.23546" lon="2.34374">
        <ele>98.7</ele>
        <time>2019-07-14T06:50:48.000Z</time>
      </trkpt>
      <trkpt lat="43.23546" lon="2.34377">
        <ele>98.7</ele>
        <time>2019-07-14T06:50:49.000Z</time>
      </trkpt>
      <trkpt lat="43.23546" lon="2.3438">
        <ele>98.7</ele>
        <time>2019-07-14T06:50:50.000Z</time>
      </trkpt>
      <trkpt lat="43.23546" lon="2.34383">
        <ele>98.6</ele>
        <time>2019-07-14T06:50:51.000Z</time>
      </trkpt>
      <trkpt lat="43.23546" lon="2.34387">
        <ele>98.6</ele>
        <time>2019-07-14T06:50:52.000Z</time>
      </trkpt>
      <trkpt lat="43.23546" lon="2.3439">
        <ele>98.5</ele>
        <time>2019-07-14T06:50:53.000Z</time>
      </trkpt>
      <trkpt lat="43.23546" lon="2.34393">
        <ele>98.5</ele>
        <time>2019-07-14T06:50:54.000Z</time>
      </trkpt>
      <trkpt lat="43.23546" lon="2.34396">
        <ele>98.5</ele>
        <time>2019-07-14T06:50:55.000Z</time>
      </trkpt>
      <trkpt lat="43.23546" lon="2.34399">
        <ele>98.4</ele>
        <time>2019-07-14T06:50:56.000Z</time>
      </trkpt>
      <trkpt lat="43.23546" lon="2.34402">
        <ele>98.4</ele>
        <time>2019-07-14T06:50:57.000Z</time>
      </trkpt>
      <trkpt lat="43.23546" lon="2.34405">
        <ele>98.3</ele>
        <time>2019-07-14T06:50:58.000Z</time>
      </trkpt>
      <trkpt lat="43.23546" lon="2.34408">
        <ele>98.3</ele>
        <time>2019-07-14T06:50:59.000Z</time>
      </trkpt>
      <trkpt lat="43.23546" lon="2.34411">
        <ele>98.3</ele>
        <time>2019-07-14T06:51:00.000Z</time>
      </trkpt>
      <trkpt lat="43.23546" lon="2.34414">
        <ele>98.2</ele>
        <time>2019-07-14T06:51:01.000Z</time>
      </trkpt>
      <trkpt lat="43.23546" lon="2.34417">
        <ele>98.2</ele>
        <time>2019-07-14T06:51:02.000Z</time>
      </trkpt>
      <trkpt lat="43.23546" lon="2.3442">
        <ele>98.2</ele>
        <time>2019-07-14T06:51:03.000Z</time>
      </trkpt>
      <trkpt lat="43.23546" lon="2.34423">
        <ele>98.1</ele>
        <time>2019-07-14T06:51:04.000Z</time>
      </trkpt>
      <trkpt lat="43.23546" lon="2.34427">
        <ele>98.1</ele>
        <time>2019-07-14T06:51:05.000Z</time>
      </trkpt>
      <trkpt lat="43.23546" lon="2.3443">
        <ele>98</ele>
        <time>2019-07-14T06:51:06.000Z</time>
      </trkpt>
      <trkpt lat="43.23546" lon="2.34433">
        <ele>98</ele>
        <time>2019-07-14T06:51:07.000Z</time>
      </trkpt>
      <trkpt lat="43.23546" lon="2.34436">
        <ele>97.9</ele>
        <time>2019-07-14T06:51:08.000Z</time>
      </trkpt>
      <trkpt lat="43.23545" lon="2.34439">
        <ele>97.9</ele>
        <time>2019-07-14T06:51:09.000Z</time>
      </trkpt>
      <trkpt lat="43.23545" lon="2.34442">
        <ele>97.8</ele>
        <time>2019-07-14T06:51:10.000Z</time>
      </trkpt>
      <trkpt lat="43.23545" lon="2.34445">
        <ele>97.8</ele>
        <time>2019-07-14T06:51:11.000Z</time>
      </trkpt>
      <trkpt lat="43.23545" lon="2.34448">
        <ele>97.8</ele>
        <time>2019-07-14T06:51:12.000Z</time>
      </trkpt>
      <trkpt lat="43.23545" lon="2.34451">
        <ele>97.7</ele>
        <time>2019-07-14T06:51:13.000Z</time>
      </trkpt>
      <trkpt lat="43.23545" lon="2.34455">
        <ele>97.7</ele>
        <time>2019-07-14T06:51:14.000Z</time>
      </trkpt>
      <trkpt lat="43.23545" lon="2.34458">
        <ele>97.6</ele>
        <time>2019-07-14T06:51:15.000Z</time>
      </trkpt>
      <trkpt lat="43.23545" lon="2.34461">
        <ele>97.6</ele>
        <time>2019-07-14T06:51:16.000Z</time>
      </trkpt>
      <trkpt lat="43.23545" lon="2.34464">
        <ele>97.5</ele>
        <time>2019-07-14T06:51:17.000Z</time>
      </trkpt>
      <trkpt lat="43.23545" lon="2.34467">
        <ele>97.5</ele>
        <time>2019-07-14T06:51:18.000Z</time>
      </trkpt>
      <trkpt lat="43.23545" lon="2.3447">
        <ele>97.5</ele>
        <time>2019-07-14T06:51:19.000Z</time>
      </trkpt>
      <trkpt lat="43.23545" lon="2.34473">
        <ele>97.4</ele>
        <time>2019-07-14T06:51:20.000Z</time>
      </trkpt>
      <trkpt lat="43.23545" lon="2.34477">
        <ele>97.4</ele>
        <time>2019-07-14T06:51:21.000Z</time>
      </trkpt>
      <trkpt lat="43.23545" lon="2.34479">
        <ele>97.3</ele>
        <time>2019-07-14T06:51:22.000Z</time>
      </trkpt>
      <trkpt lat="43.23545" lon="2.34482">
        <ele>97.3</ele>
        <time>2019-07-14T06:51:23.000Z</time>
      </trkpt>
      <trkpt lat="43.23545" lon="2.34485">
        <ele>97.3</ele>
        <time>2019-07-14T06:51:24.000Z</time>
      </trkpt>
      <trkpt lat="43.23545" lon="2.34487">
        <ele>97.2</ele>
        <time>2019-07-14T06:51:25.000Z</time>
      </trkpt>
      <trkpt lat="43.23544" lon="2.34489">
        <ele>97.2</ele>
        <time>2019-07-14T06:51:26.000Z</time>
      </trkpt>
      <trkpt lat="43.23544" lon="2.34491">
        <ele>97.2</ele>
        <time>2019-07-14T06:51:27.000Z</time>
      </trkpt>
      <trkpt lat="43.23544" lon="2.34493">
        <ele>97.1</ele>
        <time>2019-07-14T06:51:28.000Z</time>
      </trkpt>
      <trkpt lat="43.23544" lon="2.34495">
        <ele>97.1</ele>
        <time>2019-07-14T06:51:29.000Z</time>
      </trkpt>
      <trkpt lat="43.23543" lon="2.34496">
        <ele>97.1</ele>
        <time>2019-07-14T06:51:30.000Z</time>
      </trkpt>
      <trkpt lat="43.23543" lon="2.34498">
        <ele>97.1</ele>
        <time>2019-07-14T06:51:31.000Z</time>
      </trkpt>
      <trkpt lat="43.23543" lon="2.34499">
        <ele>97</ele>
        <time>2019-07-14T06:51:32.000Z</time>
      </trkpt>
      <trkpt lat="43.23542" lon="2.34501">
        <ele>97</ele>
        <time>2019-07-14T06:51:33.000Z</time>
      </trkpt>
      <trkpt lat="43.23541" lon="2.34502">
        <ele>97</ele>
        <time>2019-07-14T06:51:34.000Z</time>
      </trkpt>
      <trkpt lat="43.2354" lon="2.34503">
        <ele>97</ele>
        <time>2019-07-14T06:51:35.000Z</time>
      </trkpt>
      <trkpt lat="43.23539" lon="2.34504">
        <ele>97</ele>
        <time>2019-07-14T06:51:36.000Z</time>
      </trkpt>
      <trkpt lat="43.23538" lon="2.34505">
        <ele>97</ele>
        <time>2019-07-14T06:51:37.000Z</time>
      </trkpt>
      <trkpt lat="43.23536" lon="2.34505">
        <ele>96.9</ele>
        <time>2019-07-14T06:51:38.000Z</time>
      </trkpt>
      <trkpt lat="43.23534" lon="2.34506">
        <ele>96.9</ele>
        <time>2019-07-14T06:51:39.000Z</time>
      </trkpt>
      <trkpt lat="43.23532" lon="2.34505">
        <ele>96.8</ele>
        <time>2019-07-14T06:51:40.000Z</time>
      </trkpt>
      <trkpt lat="43.23529" lon="2.34505">
        <ele>96.8</ele>
        <time>2019-07-14T06:51:41.000Z</time>
      </trkpt>
      <trkpt lat="43.23527" lon="2.34505">
        <ele>96.7</ele>
        <time>2019-07-14T06:51:42.000Z</time>
      </trkpt>
      <trkpt lat="43.23526" lon="2.34505">
        <ele>96.7</ele>
        <time>2019-07-14T06:51:43.000Z</time>
      </trkpt>
      <trkpt lat="43.23525" lon="2.34505">
        <ele>96.7</ele>
        <time>2019-07-14T06:51:44.000Z</time>
      </trkpt>
      <trkpt lat="43.23524" lon="2.34505">
        <ele>96.7</ele>
        <time>2019-07-14T06:51:45.000Z</time>
      </trkpt>
      <trkpt lat="43.23523" lon="2.34505">
        <ele>96.6</ele>
        <time>2019-07-14T06:51:46.000Z</time>
      </trkpt>
      <trkpt lat="43.23522" lon="2.34505">
        <ele>96.6</ele>
        <time>2019-07-14T06:51:47.000Z</time>
      </trkpt>
      <trkpt lat="43.23521" lon="2.34505">
        <ele>96.6</ele>
        <time>2019-07-14T06:51:48.000Z</time>
      </trkpt>
      <trkpt lat="43.2352" lon="2.34505">
        <ele>96.6</ele>
        <time>2019-07-14T06:51:49.000Z</time>
      </trkpt>
      <trkpt lat="43.23519" lon="2.34505">
        <ele>96.5</ele>
        <time>2019-07-14T06:51:50.000Z</time>
      </trkpt>
      <trkpt lat="43.23518" lon="2.34505">
        <ele>96.5</ele>
        <time>2019-07-14T06:51:51.000Z</time>
      </trkpt>
      <trkpt lat="43.23516" lon="2.34504">
        <ele>96.5</ele>
        <time>2019-07-14T06:51:52.000Z</time>
      </trkpt>
      <trkpt lat="43.23514" lon="2.34504">
        <ele>96.4</ele>
        <time>2019-07-14T06:51:53.000Z</time>
      </trkpt>
      <trkpt lat="43.23512" lon="2.34504">
        <ele>96.4</ele>
        <time>2019-07-14T06:51:54.000Z</time>
      </trkpt>
      <trkpt lat="43.2351" lon="2.34504">
        <ele>96.3</ele>
        <time>2019-07-14T06:51:55.000Z</time>
      </trkpt>
      <trkpt lat="43.23508" lon="2.34505">
        <ele>96.3</ele>
        <time>2019-07-14T06:51:56.000Z</time>
      </trkpt>
      <trkpt lat="43.23507" lon="2.34506">
        <ele>96.3</ele>
        <time>2019-07-14T06:51:57.000Z</time>
      </trkpt>
      <trkpt lat="43.23506" lon="2.34508">
        <ele>96.3</ele>
        <time>2019-07-14T06:51:58.000Z</time>
      </trkpt>
      <trkpt lat="43.23506" lon="2.3451">
        <ele>96.4</ele>
        <time>2019-07-14T06:51:59.000Z</time>
      </trkpt>
      <trkpt lat="43.23506" lon="2.34513">
        <ele>96.4</ele>
        <time>2019-07-14T06:52:00.000Z</time>
      </trkpt>
      <trkpt lat="43.23507" lon="2.34515">
        <ele>96.5</ele>
        <time>2019-07-14T06:52:01.000Z</time>
      </trkpt>
      <trkpt lat="43.23508" lon="2.34518">
        <ele>96.6</ele>
        <time>2019-07-14T06:52:02.000Z</time>
      </trkpt>
      <trkpt lat="43.23509" lon="2.34522">
        <ele>96.7</ele>
        <time>2019-07-14T06:52:03.000Z</time>
      </trkpt>
      <trkpt lat="43.2351" lon="2.34525">
        <ele>96.8</ele>
        <time>2019-07-14T06:52:04.000Z</time>
      </trkpt>
      <trkpt lat="43.23511" lon="2.34528">
        <ele>96.9</ele>
        <time>2019-07-14T06:52:05.000Z</time>
      </trkpt>
      <trkpt lat="43.23513" lon="2.34531">
        <ele>96.9</ele>
        <time>2019-07-14T06:52:06.000Z</time>
      </trkpt>
      <trkpt lat="43.23514" lon="2.34534">
        <ele>97</ele>
        <time>2019-07-14T06:52:07.000Z</time>
      </trkpt>
      <trkpt lat="43.23515" lon="2.34537">
        <ele>97.1</ele>
        <time>2019-07-14T06:52:08.000Z</time>
      </trkpt>
      <trkpt lat="43.23517" lon="2.3454">
        <ele>97.2</ele>
        <time>2019-07-14T06:52:09.000Z</time>
      </trkpt>
      <trkpt lat="43.23518" lon="2.34543">
        <ele>97.2</ele>
        <time>2019-07-14T06:52:10.000Z</time>
      </trkpt>
      <trkpt lat="43.2352" lon="2.34546">
        <ele>97.3</ele>
        <time>2019-07-14T06:52:11.000Z</time>
      </trkpt>
      <trkpt lat="43.23521" lon="2.34548">
        <ele>97.4</ele>
        <time>2019-07-14T06:52:12.000Z</time>
      </trkpt>
      <trkpt lat="43.23523" lon="2.34551">
        <ele>97.4</ele>
        <time>2019-07-14T06:52:13.000Z</time>
      </trkpt>
      <trkpt lat="43.23524" lon="2.34554">
        <ele>97.5</ele>
        <time>2019-07-14T06:52:14.000Z</time>
      </trkpt>
      <trkpt lat="43.23526" lon="2.34556">
        <ele>97.5</ele>
        <time>2019-07-14T06:52:15.000Z</time>
      </trkpt>
      <trkpt lat="43.23527" lon="2.34559">
        <ele>97.6</ele>
        <time>2019-07-14T06:52:16.000Z</time>
      </trkpt>
      <trkpt lat="43.23529" lon="2.34561">
        <ele>97.7</ele>
        <time>2019-07-14T06:52:17.000Z</time>
      </trkpt>
      <trkpt lat="43.2353" lon="2.34564">
        <ele>97.7</ele>
        <time>2019-07-14T06:52:18.000Z</time>
      </trkpt>
      <trkpt lat="43.23532" lon="2.34567">
        <ele>97.8</ele>
        <time>2019-07-14T06:52:19.000Z</time>
      </trkpt>
      <trkpt lat="43.23533" lon="2.34569">
        <ele>97.8</ele>
        <time>2019-07-14T06:52:20.000Z</time>
      </trkpt>
      <trkpt lat="43.23535" lon="2.34572">
        <ele>97.8</ele>
        <time>2019-07-14T06:52:21.000Z</time>
      </trkpt>
      <trkpt lat="43.23536" lon="2.34575">
        <ele>97.9</ele>
        <time>2019-07-14T06:52:22.000Z</time>
      </trkpt>
      <trkpt lat="43.23537" lon="2.34577">
        <ele>97.9</ele>
        <time>2019-07-14T06:52:23.000Z</time>
      </trkpt>
      <trkpt lat="43.23539" lon="2.3458">
        <ele>98</ele>
        <time>2019-07-14T06:52:24.000Z</time>
      </trkpt>
      <trkpt lat="43.2354" lon="2.34583">
        <ele>98</ele>
        <time>2019-07-14T06:52:25.000Z</time>
      </trkpt>
      <trkpt lat="43.23541" lon="2.34586">
        <ele>98</ele>
        <time>2019-07-14T06:52:26.000Z</time>
      </trkpt>
      <trkpt lat="43.23542" lon="2.34589">
        <ele>98</ele>
        <time>2019-07-14T06:52:27.000Z</time>
      </trkpt>
      <trkpt lat="43.23543" lon="2.34592">
        <ele>98</ele>
        <time>2019-07-14T06:52:28.000Z</time>
      </trkpt>
      <trkpt lat="43.23544" lon="2.34595">
        <ele>98.1</ele>
        <time>2019-07-14T06:52:29.000Z</time>
      </trkpt>
      <trkpt lat="43.23545" lon="2.34598">
        <ele>98.1</ele>
        <time>2019-07-14T06:52:30.000Z</time>
      </trkpt>
      <trkpt lat="43.23546" lon="2.34601">
        <ele>98.1</ele>
        <time>2019-07-14T06:52:31.000Z</time>
      </trkpt>
      <trkpt lat="43.23546" lon="2.34604">
        <ele>98.1</ele>
        <time>2019-07-14T06:52:32.000Z</time>
      </trkpt>
      <trkpt lat="43.23547" lon="2.34607">
        <ele>98.1</ele>
        <time>2019-07-14T06:52:33.000Z</time>
      </trkpt>
      <trkpt lat="43.23548" lon="2.3461">
        <ele>98.1</ele>
        <time>2019-07-14T06:52:34.000Z</time>
      </trkpt>
      <trkpt lat="43.23549" lon="2.34613">
        <ele>98.1</ele>
        <time>2019-07-14T06:52:35.000Z</time>
      </trkpt>
      <trkpt lat="43.23549" lon="2.34616">
        <ele>98.2</ele>
        <time>2019-07-14T06:52:36.000Z</time>
      </trkpt>
      <trkpt lat="43.2355" lon="2.34619">
        <ele>98.2</ele>
        <time>2019-07-14T06:52:37.000Z</time>
      </trkpt>
      <trkpt lat="43.23551" lon="2.34621">
        <ele>98.2</ele>
        <time>2019-07-14T06:52:38.000Z</time>
      </trkpt>
      <trkpt lat="43.23552" lon="2.34624">
        <ele>98.2</ele>
        <time>2019-07-14T06:52:39.000Z</time>
      </trkpt>
      <trkpt lat="43.23553" lon="2.34626">
        <ele>98.2</ele>
        <time>2019-07-14T06:52:40.000Z</time>
      </trkpt>
      <trkpt lat="43.23555" lon="2.34628">
        <ele>98.2</ele>
        <time>2019-07-14T06:52:41.000Z</time>
      </trkpt>
      <trkpt lat="43.23556" lon="2.34629">
        <ele>98.2</ele>
        <time>2019-07-14T06:52:42.000Z</time>
      </trkpt>
      <trkpt lat="43.23557" lon="2.34631">
        <ele>98.2</ele>
        <time>2019-07-14T06:52:43.000Z</time>
      </trkpt>
      <trkpt lat="43.23559" lon="2.34631">
        <ele>98.2</ele>
        <time>2019-07-14T06:52:44.000Z</time>
      </trkpt>
      <trkpt lat="43.23561" lon="2.34631">
        <ele>98.2</ele>
        <time>2019-07-14T06:52:45.000Z</time>
      </trkpt>
      <trkpt lat="43.23562" lon="2.34631">
        <ele>98.1</ele>
        <time>2019-07-14T06:52:46.000Z</time>
      </trkpt>
      <trkpt lat="43.23564" lon="2.3463">
        <ele>98.1</ele>
        <time>2019-07-14T06:52:47.000Z</time>
      </trkpt>
      <trkpt lat="43.23566" lon="2.34629">
        <ele>98.1</ele>
        <time>2019-07-14T06:52:48.000Z</time>
      </trkpt>
      <trkpt lat="43.23568" lon="2.34628">
        <ele>98.1</ele>
        <time>2019-07-14T06:52:49.000Z</time>
      </trkpt>
      <trkpt lat="43.2357" lon="2.34626">
        <ele>98.1</ele>
        <time>2019-07-14T06:52:50.000Z</time>
      </trkpt>
      <trkpt lat="43.23572" lon="2.34625">
        <ele>98.1</ele>
        <time>2019-07-14T06:52:51.000Z</time>
      </trkpt>
      <trkpt lat="43.23574" lon="2.34623">
        <ele>98.1</ele>
        <time>2019-07-14T06:52:52.000Z</time>
      </trkpt>
      <trkpt lat="43.23577" lon="2.34621">
        <ele>98</ele>
        <time>2019-07-14T06:52:53.000Z</time>
      </trkpt>
      <trkpt lat="43.23579" lon="2.34619">
        <ele>98</ele>
        <time>2019-07-14T06:52:54.000Z</time>
      </trkpt>
      <trkpt lat="43.23581" lon="2.34618">
        <ele>98</ele>
        <time>2019-07-14T06:52:55.000Z</time>
      </trkpt>
      <trkpt lat="43.23583" lon="2.34616">
        <ele>98</ele>
        <time>2019-07-14T06:52:56.000Z</time>
      </trkpt>
      <trkpt lat="43.23585" lon="2.34614">
        <ele>98.1</ele>
        <time>2019-07-14T06:52:57.000Z</time>
      </trkpt>
      <trkpt lat="43.23587" lon="2.34612">
        <ele>98.1</ele>
        <time>2019-07-14T06:52:58.000Z</time>
      </trkpt>
      <trkpt lat="43.2359" lon="2.3461">
        <ele>98.2</ele>
        <time>2019-07-14T06:52:59.000Z</time>
      </trkpt>
      <trkpt lat="43.23592" lon="2.34608">
        <ele>98.2</ele>
        <time>2019-07-14T06:53:00.000Z</time>
      </trkpt>
      <trkpt lat="43.23594" lon="2.34607">
        <ele>98.3</ele>
        <time>2019-07-14T06:53:01.000Z</time>
      </trkpt>
      <trkpt lat="43.23596" lon="2.34605">
        <ele>98.4</ele>
        <time>2019-07-14T06:53:02.000Z</time>
      </trkpt>
      <trkpt lat="43.23599" lon="2.34603">
        <ele>98.4</ele>
        <time>2019-07-14T06:53:03.000Z</time>
      </trkpt>
      <trkpt lat="43.23601" lon="2.34601">
        <ele>98.5</ele>
        <time>2019-07-14T06:53:04.000Z</time>
      </trkpt>
      <trkpt lat="43.23603" lon="2.34599">
        <ele>98.5</ele>
        <time>2019-07-14T06:53:05.000Z</time>
      </trkpt>
      <trkpt lat="43.23605" lon="2.34598">
        <ele>98.6</ele>
        <time>2019-07-14T06:53:06.000Z</time>
      </trkpt>
      <trkpt lat="43.23607" lon="2.34596">
        <ele>98.6</ele>
        <time>2019-07-14T06:53:07.000Z</time>
      </trkpt>
      <trkpt lat="43.2361" lon="2.34594">
        <ele>98.7</ele>
        <time>2019-07-14T06:53:08.000Z</time>
      </trkpt>
      <trkpt lat="43.23612" lon="2.34593">
        <ele>98.7</ele>
        <time>2019-07-14T06:53:09.000Z</time>
      </trkpt>
      <trkpt lat="43.23614" lon="2.34591">
        <ele>98.8</ele>
        <time>2019-07-14T06:53:10.000Z</time>
      </trkpt>
      <trkpt lat="43.23616" lon="2.3459">
        <ele>98.8</ele>
        <time>2019-07-14T06:53:11.000Z</time>
      </trkpt>
      <trkpt lat="43.23618" lon="2.34588">
        <ele>98.9</ele>
        <time>2019-07-14T06:53:12.000Z</time>
      </trkpt>
      <trkpt lat="43.2362" lon="2.34587">
        <ele>98.9</ele>
        <time>2019-07-14T06:53:13.000Z</time>
      </trkpt>
      <trkpt lat="43.23622" lon="2.34585">
        <ele>98.9</ele>
        <time>2019-07-14T06:53:14.000Z</time>
      </trkpt>
      <trkpt lat="43.23624" lon="2.34584">
        <ele>99</ele>
        <time>2019-07-14T06:53:15.000Z</time>
      </trkpt>
      <trkpt lat="43.23626" lon="2.34582">
        <ele>99</ele>
        <time>2019-07-14T06:53:16.000Z</time>
      </trkpt>
      <trkpt lat="43.23628" lon="2.34581">
        <ele>99.1</ele>
        <time>2019-07-14T06:53:17.000Z</time>
      </trkpt>
      <trkpt lat="43.2363" lon="2.3458">
        <ele>99.2</ele>
        <time>2019-07-14T06:53:18.000Z</time>
      </trkpt>
      <trkpt lat="43.23633" lon="2.34578">
        <ele>99.2</ele>
        <time>2019-07-14T06:53:19.000Z</time>
      </trkpt>
      <trkpt lat="43.23635" lon="2.34577">
        <ele>99.3</ele>
        <time>2019-07-14T06:53:20.000Z</time>
      </trkpt>
      <trkpt lat="43.23637" lon="2.34575">
        <ele>99.3</ele>
        <time>2019-07-14T06:53:21.000Z</time>
      </trkpt>
      <trkpt lat="43.23639" lon="2.34574">
        <ele>99.4</ele>
        <time>2019-07-14T06:53:22.000Z</time>
      </trkpt>
      <trkpt lat="43.23641" lon="2.34572">
        <ele>99.5</ele>
        <time>2019-07-14T06:53:23.000Z</time>
      </trkpt>
      <trkpt lat="43.23643" lon="2.3457">
        <ele>99.5</ele>
        <time>2019-07-14T06:53:24.000Z</time>
      </trkpt>
      <trkpt lat="43.23645" lon="2.34569">
        <ele>99.6</ele>
        <time>2019-07-14T06:53:25.000Z</time>
      </trkpt>
      <trkpt lat="43.23647" lon="2.34567">
        <ele>99.7</ele>
        <time>2019-07-14T06:53:26.000Z</time>
      </trkpt>
      <trkpt lat="43.23649" lon="2.34565">
        <ele>99.8</ele>
        <time>2019-07-14T06:53:27.000Z</time>
      </trkpt>
      <trkpt lat="43.23652" lon="2.34564">
        <ele>99.8</ele>
        <time>2019-07-14T06:53:28.000Z</time>
      </trkpt>
      <trkpt lat="43.23654" lon="2.34562">
        <ele>99.9</ele>
        <time>2019-07-14T06:53:29.000Z</time>
      </trkpt>
      <trkpt lat="43.23656" lon="2.3456">
        <ele>100</ele>
        <time>2019-07-14T06:53:30.000Z</time>
      </trkpt>
      <trkpt lat="43.23658" lon="2.34558">
        <ele>100.1</ele>
        <time>2019-07-14T06:53:31.000Z</time>
      </trkpt>
      <trkpt lat="43.2366" lon="2.34557">
        <ele>100.1</ele>
        <time>2019-07-14T06:53:32.000Z</time>
      </trkpt>
      <trkpt lat="43.23663" lon="2.34555">
        <ele>100.2</ele>
        <time>2019-07-14T06:53:33.000Z</time>
      </trkpt>
      <trkpt lat="43.23665" lon="2.34553">
        <ele>100.3</ele>
        <time>2019-07-14T06:53:34.000Z</time>
      </trkpt>
      <trkpt lat="43.23667" lon="2.34552">
        <ele>100.4</ele>
        <time>2019-07-14T06:53:35.000Z</time>
      </trkpt>
      <trkpt lat="43.23669" lon="2.3455">
        <ele>100.6</ele>
        <time>2019-07-14T06:53:36.000Z</time>
      </trkpt>
      <trkpt lat="43.23671" lon="2.34548">
        <ele>100.7</ele>
        <time>2019-07-14T06:53:37.000Z</time>
      </trkpt>
      <trkpt lat="43.23674" lon="2.34547">
        <ele>100.9</ele>
        <time>2019-07-14T06:53:38.000Z</time>
      </trkpt>
      <trkpt lat="43.23676" lon="2.34545">
        <ele>101.1</ele>
        <time>2019-07-14T06:53:39.000Z</time>
      </trkpt>
      <trkpt lat="43.23678" lon="2.34544">
        <ele>101.2</ele>
        <time>2019-07-14T06:53:40.000Z</time>
      </trkpt>
      <trkpt lat="43.2368" lon="2.34542">
        <ele>101.4</ele>
        <time>2019-07-14T06:53:41.000Z</time>
      </trkpt>
      <trkpt lat="43.23682" lon="2.34541">
        <ele>101.5</ele>
        <time>2019-07-14T06:53:42.000Z</time>
      </trkpt>
      <trkpt lat="43.23685" lon="2.34539">
        <ele>101.7</ele>
        <time>2019-07-14T06:53:43.000Z</time>
      </trkpt>
      <trkpt lat="43.23687" lon="2.34538">
        <ele>101.8</ele>
        <time>2019-07-14T06:53:44.000Z</time>
      </trkpt>
      <trkpt lat="43.23689" lon="2.34536">
        <ele>102</ele>
        <time>2019-07-14T06:53:45.000Z</time>
      </trkpt>
      <trkpt lat="43.23691" lon="2.34535">
        <ele>102.2</ele>
        <time>2019-07-14T06:53:46.000Z</time>
      </trkpt>
      <trkpt lat="43.23693" lon="2.34533">
        <ele>102.3</ele>
        <time>2019-07-14T06:53:47.000Z</time>
      </trkpt>
      <trkpt lat="43.23695" lon="2.34531">
        <ele>102.5</ele>
        <time>2019-07-14T06:53:48.000Z</time>
      </trkpt>
      <trkpt lat="43.23698" lon="2.34529">
        <ele>102.6</ele>
        <time>2019-07-14T06:53:49.000Z</time>
      </trkpt>
      <trkpt lat="43.237" lon="2.34527">
        <ele>102.8</ele>
        <time>2019-07-14T06:53:50.000Z</time>
      </trkpt>
      <trkpt lat="43.23702" lon="2.34525">
        <ele>103</ele>
        <time>2019-07-14T06:53:51.000Z</time>
      </trkpt>
      <trkpt lat="43.23704" lon="2.34523">
        <ele>103.1</ele>
        <time>2019-07-14T06:53:52.000Z</time>
      </trkpt>
      <trkpt lat="43.23707" lon="2.34521">
        <ele>103.3</ele>
        <time>2019-07-14T06:53:53.000Z</time>
      </trkpt>
      <trkpt lat="43.23709" lon="2.34519">
        <ele>103.4</ele>
        <time>2019-07-14T06:53:54.000Z</time>
      </trkpt>
      <trkpt lat="43.23711" lon="2.34518">
        <ele>103.6</ele>
        <time>2019-07-14T06:53:55.000Z</time>
      </trkpt>
      <trkpt lat="43.23714" lon="2.34516">
        <ele>103.7</ele>
        <time>2019-07-14T06:53:56.000Z</time>
      </trkpt>
      <trkpt lat="43.23716" lon="2.34514">
        <ele>103.9</ele>
        <time>2019-07-14T06:53:57.000Z</time>
      </trkpt>
      <trkpt lat="43.23718" lon="2.34513">
        <ele>104</ele>
        <time>2019-07-14T06:53:58.000Z</time>
      </trkpt>
      <trkpt lat="43.2372" lon="2.34511">
        <ele>104.1</ele>
        <time>2019-07-14T06:53:59.000Z</time>
      </trkpt>
      <trkpt lat="43.23721" lon="2.3451">
        <ele>104.2</ele>
        <time>2019-07-14T06:54:00.000Z</time>
      </trkpt>
      <trkpt lat="43.23722" lon="2.34509">
        <ele>104.3</ele>
        <time>2019-07-14T06:54:01.000Z</time>
      </trkpt>
      <trkpt lat="43.23723" lon="2.34508">
        <ele>104.3</ele>
        <time>2019-07-14T06:54:02.000Z</time>
      </trkpt>
      <trkpt lat="43.23723" lon="2.34508">
        <ele>104.4</ele>
        <time>2019-07-14T06:54:03.000Z</time>
      </trkpt>
      <trkpt lat="43.23724" lon="2.34508">
        <ele>104.4</ele>
        <time>2019-07-14T06:54:04.000Z</time>
      </trkpt>
      <trkpt lat="43.23724" lon="2.34508">
        <ele>104.4</ele>
        <time>2019-07-14T06:54:05.000Z</time>
      </trkpt>
      <trkpt lat="43.23724" lon="2.34508">
        <ele>104.4</ele>
        <time>2019-07-14T06:54:06.000Z</time>
      </trkpt>
      <trkpt lat="43.23724" lon="2.34507">
        <ele>104.4</ele>
        <time>2019-07-14T06:54:07.000Z</time>
      </trkpt>
      <trkpt lat="43.23724" lon="2.34507">
        <ele>104.4</ele>
        <time>2019-07-14T06:54:08.000Z</time>
      </trkpt>
      <trkpt lat="43.23724" lon="2.34507">
        <ele>104.4</ele>
        <time>2019-07-14T06:54:09.000Z</time>
      </trkpt>
      <trkpt lat="43.23724" lon="2.34507">
        <ele>104.4</ele>
        <time>2019-07-14T06:54:10.000Z</time>
      </trkpt>
      <trkpt lat="43.23725" lon="2.34507">
        <ele>104.5</ele>
        <time>2019-07-14T06:54:11.000Z</time>
      </trkpt>
      <trkpt lat="43.23725" lon="2.34507">
        <ele>104.5</ele>
        <time>2019-07-14T06:54:12.000Z</time>
      </trkpt>
      <trkpt lat="43.23726" lon="2.34506">
        <ele>104.5</ele>
        <time>2019-07-14T06:54:13.000Z</time>
      </trkpt>
      <trkpt lat="43.23727" lon="2.34506">
        <ele>104.6</ele>
        <time>2019-07-14T06:54:14.000Z</time>
      </trkpt>
      <trkpt lat="43.23727" lon="2.34505">
        <ele>104.6</ele>
        <time>2019-07-14T06:54:15.000Z</time>
      </trkpt>
      <trkpt lat="43.23728" lon="2.34505">
        <ele>104.7</ele>
        <time>2019-07-14T06:54:16.000Z</time>
      </trkpt>
      <trkpt lat="43.23729" lon="2.34504">
        <ele>104.7</ele>
        <time>2019-07-14T06:54:17.000Z</time>
      </trkpt>
      <trkpt lat="43.2373" lon="2.34504">
        <ele>104.8</ele>
        <time>2019-07-14T06:54:18.000Z</time>
      </trkpt>
      <trkpt lat="43.23731" lon="2.34503">
        <ele>104.9</ele>
        <time>2019-07-14T06:54:19.000Z</time>
      </trkpt>
      <trkpt lat="43.23732" lon="2.34503">
        <ele>104.9</ele>
        <time>2019-07-14T06:54:20.000Z</time>
      </trkpt>
      <trkpt lat="43.23734" lon="2.34502">
        <ele>105</ele>
        <time>2019-07-14T06:54:21.000Z</time>
      </trkpt>
      <trkpt lat="43.23735" lon="2.34502">
        <ele>105.1</ele>
        <time>2019-07-14T06:54:22.000Z</time>
      </trkpt>
      <trkpt lat="43.23736" lon="2.34501">
        <ele>105.2</ele>
        <time>2019-07-14T06:54:23.000Z</time>
      </trkpt>
      <trkpt lat="43.23737" lon="2.34501">
        <ele>105.2</ele>
        <time>2019-07-14T06:54:24.000Z</time>
      </trkpt>
      <trkpt lat="43.23739" lon="2.34501">
        <ele>105.3</ele>
        <time>2019-07-14T06:54:25.000Z</time>
      </trkpt>
      <trkpt lat="43.2374" lon="2.34501">
        <ele>105.4</ele>
        <time>2019-07-14T06:54:26.000Z</time>
      </trkpt>
      <trkpt lat="43.23742" lon="2.34501">
        <ele>105.5</ele>
        <time>2019-07-14T06:54:27.000Z</time>
      </trkpt>
      <trkpt lat="43.23743" lon="2.345">
        <ele>105.6</ele>
        <time>2019-07-14T06:54:28.000Z</time>
      </trkpt>
      <trkpt lat="43.23745" lon="2.345">
        <ele>105.7</ele>
        <time>2019-07-14T06:54:29.000Z</time>
      </trkpt>
      <trkpt lat="43.23747" lon="2.345">
        <ele>105.8</ele>
        <time>2019-07-14T06:54:30.000Z</time>
      </trkpt>
      <trkpt lat="43.23749" lon="2.345">
        <ele>105.9</ele>
        <time>2019-07-14T06:54:31.000Z</time>
      </trkpt>
      <trkpt lat="43.2375" lon="2.34501">
        <ele>106</ele>
        <time>2019-07-14T06:54:32.000Z</time>
      </trkpt>
      <trkpt lat="43.23752" lon="2.34501">
        <ele>106.1</ele>
        <time>2019-07-14T06:54:33.000Z</time>
      </trkpt>
      <trkpt lat="43.23754" lon="2.34501">
        <ele>106.2</ele>
        <time>2019-07-14T06:54:34.000Z</time>
      </trkpt>
      <trkpt lat="43.23756" lon="2.34501">
        <ele>106.3</ele>
        <time>2019-07-14T06:54:35.000Z</time>
      </trkpt>
      <trkpt lat="43.23758" lon="2.34501">
        <ele>106.4</ele>
        <time>2019-07-14T06:54:36.000Z</time>
      </trkpt>
      <trkpt lat="43.2376" lon="2.34501">
        <ele>106.5</ele>
        <time>2019-07-14T06:54:37.000Z</time>
      </trkpt>
      <trkpt lat="43.23762" lon="2.34501">
        <ele>106.6</ele>
        <time>2019-07-14T06:54:38.000Z</time>
      </trkpt>
      <trkpt lat="43.23764" lon="2.34502">
        <ele>106.7</ele>
        <time>2019-07-14T06:54:39.000Z</time>
      </trkpt>
      <trkpt lat="43.23765" lon="2.34502">
        <ele>106.7</ele>
        <time>2019-07-14T06:54:40.000Z</time>
      </trkpt>
      <trkpt lat="43.23767" lon="2.34502">
        <ele>106.8</ele>
        <time>2019-07-14T06:54:41.000Z</time>
      </trkpt>
      <trkpt lat="43.23769" lon="2.34502">
        <ele>106.9</ele>
        <time>2019-07-14T06:54:42.000Z</time>
      </trkpt>
      <trkpt lat="43.23771" lon="2.34502">
        <ele>107</ele>
        <time>2019-07-14T06:54:43.000Z</time>
      </trkpt>
      <trkpt lat="43.23773" lon="2.34502">
        <ele>107.1</ele>
        <time>2019-07-14T06:54:44.000Z</time>
      </trkpt>
      <trkpt lat="43.23775" lon="2.34502">
        <ele>107.2</ele>
        <time>2019-07-14T06:54:45.000Z</time>
      </trkpt>
      <trkpt lat="43.23777" lon="2.34502">
        <ele>107.3</ele>
        <time>2019-07-14T06:54:46.000Z</time>
      </trkpt>
      <trkpt lat="43.23778" lon="2.34503">
        <ele>107.4</ele>
        <time>2019-07-14T06:54:47.000Z</time>
      </trkpt>
      <trkpt lat="43.2378" lon="2.34503">
        <ele>107.4</ele>
        <time>2019-07-14T06:54:48.000Z</time>
      </trkpt>
      <trkpt lat="43.23782" lon="2.34503">
        <ele>107.5</ele>
        <time>2019-07-14T06:54:49.000Z</time>
      </trkpt>
      <trkpt lat="43.23784" lon="2.34503">
        <ele>107.6</ele>
        <time>2019-07-14T06:54:50.000Z</time>
      </trkpt>
      <trkpt lat="43.23786" lon="2.34503">
        <ele>107.7</ele>
        <time>2019-07-14T06:54:51.000Z</time>
      </trkpt>
      <trkpt lat="43.23788" lon="2.34504">
        <ele>107.8</ele>
        <time>2019-07-14T06:54:52.000Z</time>
      </trkpt>
      <trkpt lat="43.23789" lon="2.34504">
        <ele>107.9</ele>
        <time>2019-07-14T06:54:53.000Z</time>
      </trkpt>
      <trkpt lat="43.23791" lon="2.34504">
        <ele>108</ele>
        <time>2019-07-14T06:54:54.000Z</time>
      </trkpt>
      <trkpt lat="43.23793" lon="2.34505">
        <ele>108.1</ele>
        <time>2019-07-14T06:54:55.000Z</time>
      </trkpt>
      <trkpt lat="43.23795" lon="2.34505">
        <ele>108.2</ele>
        <time>2019-07-14T06:54:56.000Z</time>
      </trkpt>
      <trkpt lat="43.23797" lon="2.34506">
        <ele>108.3</ele>
        <time>2019-07-14T06:54:57.000Z</time>
      </trkpt>
      <trkpt lat="43.23799" lon="2.34506">
        <ele>108.4</ele>
        <time>2019-07-14T06:54:58.000Z</time>
      </trkpt>
      <trkpt lat="43.23801" lon="2.34507">
        <ele>108.5</ele>
        <time>2019-07-14T06:54:59.000Z</time>
      </trkpt>
      <trkpt lat="43.23803" lon="2.34507">
        <ele>108.6</ele>
        <time>2019-07-14T06:55:00.000Z</time>
      </trkpt>
      <trkpt lat="43.23805" lon="2.34508">
        <ele>108.7</ele>
        <time>2019-07-14T06:55:01.000Z</time>
      </trkpt>
      <trkpt lat="43.23807" lon="2.34508">
        <ele>108.8</ele>
        <time>2019-07-14T06:55:02.000Z</time>
      </trkpt>
      <trkpt lat="43.23809" lon="2.34508">
        <ele>108.8</ele>
        <time>2019-07-14T06:55:03.000Z</time>
      </trkpt>
      <trkpt lat="43.23811" lon="2.34509">
        <ele>108.9</ele>
        <time>2019-07-14T06:55:04.000Z</time>
      </trkpt>
      <trkpt lat="43.23813" lon="2.34509">
        <ele>109</ele>
        <time>2019-07-14T06:55:05.000Z</time>
      </trkpt>
      <trkpt lat="43.23815" lon="2.34509">
        <ele>109.1</ele>
        <time>2019-07-14T06:55:06.000Z</time>
      </trkpt>
      <trkpt lat="43.23817" lon="2.3451">
        <ele>109.2</ele>
        <time>2019-07-14T06:55:07.000Z</time>
      </trkpt>
      <trkpt lat="43.23818" lon="2.3451">
        <ele>109.3</ele>
        <time>2019-07-14T06:55:08.000Z</time>
      </trkpt>
      <trkpt lat="43.2382" lon="2.3451">
        <ele>109.4</ele>
        <time>2019-07-14T06:55:09.000Z</time>
      </trkpt>
      <trkpt lat="43.23822" lon="2.3451">
        <ele>109.5</ele>
        <time>2019-07-14T06:55:10.000Z</time>
      </trkpt>
      <trkpt lat="43.23824" lon="2.3451">
        <ele>109.6</ele>
        <time>2019-07-14T06:55:11.000Z</time>
      </trkpt>
      <trkpt lat="43.23826" lon="2.3451">
        <ele>109.7</ele>
        <time>2019-07-14T06:55:12.000Z</time>
      </trkpt>
      <trkpt lat="43.23828" lon="2.3451">
        <ele>109.8</ele>
        <time>2019-07-14T06:55:13.000Z</time>
      </trkpt>
      <trkpt lat="43.23831" lon="2.3451">
        <ele>109.9</ele>
        <time>2019-07-14T06:55:14.000Z</time>
      </trkpt>
      <trkpt lat="43.23833" lon="2.34511">
        <ele>110</ele>
        <time>2019-07-14T06:55:15.000Z</time>
      </trkpt>
      <trkpt lat="43.23835" lon="2.34511">
        <ele>109.9</ele>
        <time>2019-07-14T06:55:16.000Z</time>
      </trkpt>
      <trkpt lat="43.23838" lon="2.34511">
        <ele>109.9</ele>
        <time>2019-07-14T06:55:17.000Z</time>
      </trkpt>
      <trkpt lat="43.2384" lon="2.34511">
        <ele>109.8</ele>
        <time>2019-07-14T06:55:18.000Z</time>
      </trkpt>
      <trkpt lat="43.23843" lon="2.34511">
        <ele>109.8</ele>
        <time>2019-07-14T06:55:19.000Z</time>
      </trkpt>
      <trkpt lat="43.23845" lon="2.34511">
        <ele>109.7</ele>
        <time>2019-07-14T06:55:20.000Z</time>
      </trkpt>
      <trkpt lat="43.23847" lon="2.34512">
        <ele>109.6</ele>
        <time>2019-07-14T06:55:21.000Z</time>
      </trkpt>
      <trkpt lat="43.2385" lon="2.34512">
        <ele>109.6</ele>
        <time>2019-07-14T06:55:22.000Z</time>
      </trkpt>
      <trkpt lat="43.23853" lon="2.34512">
        <ele>109.5</ele>
        <time>2019-07-14T06:55:23.000Z</time>
      </trkpt>
      <trkpt lat="43.23855" lon="2.34512">
        <ele>109.4</ele>
        <time>2019-07-14T06:55:24.000Z</time>
      </trkpt>
      <trkpt lat="43.23858" lon="2.34512">
        <ele>109.4</ele>
        <time>2019-07-14T06:55:25.000Z</time>
      </trkpt>
      <trkpt lat="43.23861" lon="2.34512">
        <ele>109.3</ele>
        <time>2019-07-14T06:55:26.000Z</time>
      </trkpt>
      <trkpt lat="43.23863" lon="2.34511">
        <ele>109.2</ele>
        <time>2019-07-14T06:55:27.000Z</time>
      </trkpt>
      <trkpt lat="43.23866" lon="2.3451">
        <ele>109.2</ele>
        <time>2019-07-14T06:55:28.000Z</time>
      </trkpt>
      <trkpt lat="43.23868" lon="2.3451">
        <ele>109.1</ele>
        <time>2019-07-14T06:55:29.000Z</time>
      </trkpt>
      <trkpt lat="43.2387" lon="2.34508">
        <ele>109.1</ele>
        <time>2019-07-14T06:55:30.000Z</time>
      </trkpt>
      <trkpt lat="43.23871" lon="2.34507">
        <ele>109.1</ele>
        <time>2019-07-14T06:55:31.000Z</time>
      </trkpt>
      <trkpt lat="43.23873" lon="2.34506">
        <ele>109</ele>
        <time>2019-07-14T06:55:32.000Z</time>
      </trkpt>
      <trkpt lat="43.23874" lon="2.34504">
        <ele>109</ele>
        <time>2019-07-14T06:55:33.000Z</time>
      </trkpt>
      <trkpt lat="43.23875" lon="2.34502">
        <ele>109</ele>
        <time>2019-07-14T06:55:34.000Z</time>
      </trkpt>
      <trkpt lat="43.23876" lon="2.345">
        <ele>109</ele>
        <time>2019-07-14T06:55:35.000Z</time>
      </trkpt>
      <trkpt lat="43.23877" lon="2.34498">
        <ele>109</ele>
        <time>2019-07-14T06:55:36.000Z</time>
      </trkpt>
      <trkpt lat="43.23878" lon="2.34496">
        <ele>109</ele>
        <time>2019-07-14T06:55:37.000Z</time>
      </trkpt>
      <trkpt lat="43.23879" lon="2.34494">
        <ele>109</ele>
        <time>2019-07-14T06:55:38.000Z</time>
      </trkpt>
      <trkpt lat="43.23879" lon="2.34493">
        <ele>109</ele>
        <time>2019-07-14T06:55:39.000Z</time>
      </trkpt>
      <trkpt lat="43.2388" lon="2.34491">
        <ele>109.1</ele>
        <time>2019-07-14T06:55:40.000Z</time>
      </trkpt>
      <trkpt lat="43.2388" lon="2.34491">
        <ele>109.1</ele>
        <time>2019-07-14T06:55:41.000Z</time>
      </trkpt>
      <trkpt lat="43.2388" lon="2.3449">
        <ele>109.1</ele>
        <time>2019-07-14T06:55:42.000Z</time>
      </trkpt>
      <trkpt lat="43.2388" lon="2.34489">
        <ele>109.1</ele>
        <time>2019-07-14T06:55:43.000Z</time>
      </trkpt>
      <trkpt lat="43.2388" lon="2.34488">
        <ele>109.1</ele>
        <time>2019-07-14T06:55:44.000Z</time>
      </trkpt>
      <trkpt lat="43.2388" lon="2.34487">
        <ele>109.1</ele>
        <time>2019-07-14T06:55:45.000Z</time>
      </trkpt>
      <trkpt lat="43.2388" lon="2.34487">
        <ele>109.1</ele>
        <time>2019-07-14T06:55:46.000Z</time>
      </trkpt>
      <trkpt lat="43.2388" lon="2.34486">
        <ele>109.2</ele>
        <time>2019-07-14T06:55:47.000Z</time>
      </trkpt>
      <trkpt lat="43.2388" lon="2.34485">
        <ele>109.2</ele>
        <time>2019-07-14T06:55:48.000Z</time>
      </trkpt>
      <trkpt lat="43.2388" lon="2.34484">
        <ele>109.2</ele>
        <time>2019-07-14T06:55:49.000Z</time>
      </trkpt>
      <trkpt lat="43.2388" lon="2.34483">
        <ele>109.2</ele>
        <time>2019-07-14T06:55:50.000Z</time>
      </trkpt>
      <trkpt lat="43.2388" lon="2.34482">
        <ele>109.2</ele>
        <time>2019-07-14T06:55:51.000Z</time>
      </trkpt>
      <trkpt lat="43.2388" lon="2.34482">
        <ele>109.2</ele>
        <time>2019-07-14T06:55:52.000Z</time>
      </trkpt>
      <trkpt lat="43.2388" lon="2.34482">
        <ele>109.2</ele>
        <time>2019-07-14T06:55:53.000Z</time>
      </trkpt>
      <trkpt lat="43.2388" lon="2.34481">
        <ele>109.2</ele>
        <time>2019-07-14T06:55:54.000Z</time>
      </trkpt>
      <trkpt lat="43.2388" lon="2.34481">
        <ele>109.2</ele>
        <time>2019-07-14T06:55:55.000Z</time>
      </trkpt>
      <trkpt lat="43.2388" lon="2.34481">
        <ele>109.2</ele>
        <time>2019-07-14T06:55:56.000Z</time>
      </trkpt>
      <trkpt lat="43.2388" lon="2.34481">
        <ele>109.2</ele>
        <time>2019-07-14T06:55:57.000Z</time>
      </trkpt>
      <trkpt lat="43.2388" lon="2.34481">
        <ele>109.2</ele>
        <time>2019-07-14T06:55:58.000Z</time>
      </trkpt>
      <trkpt lat="43.2388" lon="2.34481">
        <ele>109.2</ele>
        <time>2019-07-14T06:55:59.000Z</time>
      </trkpt>
      <trkpt lat="43.2388" lon="2.34481">
        <ele>109.2</ele>
        <time>2019-07-14T06:56:00.000Z</time>
      </trkpt>
      <trkpt lat="43.2388" lon="2.34481">
        <ele>109.2</ele>
        <time>2019-07-14T06:56:01.000Z</time>
      </trkpt>
      <trkpt lat="43.2388" lon="2.34481">
        <ele>109.2</ele>
        <time>2019-07-14T06:56:02.000Z</time>
      </trkpt>
      <trkpt lat="43.2388" lon="2.34481">
        <ele>109.2</ele>
        <time>2019-07-14T06:56:03.000Z</time>
      </trkpt>
      <trkpt lat="43.2388" lon="2.34481">
        <ele>109.2</ele>
        <time>2019-07-14T06:56:04.000Z</time>
      </trkpt>
      <trkpt lat="43.2388" lon="2.34481">
        <ele>109.2</ele>
        <time>2019-07-14T06:56:05.000Z</time>
      </trkpt>
      <trkpt lat="43.2388" lon="2.34481">
        <ele>109.2</ele>
        <time>2019-07-14T06:56:06.000Z</time>
      </trkpt>
      <trkpt lat="43.2388" lon="2.34481">
        <ele>109.2</ele>
        <time>2019-07-14T06:56:07.000Z</time>
      </trkpt>
      <trkpt lat="43.2388" lon="2.34481">
        <ele>109.2</ele>
        <time>2019-07-14T06:56:08.000Z</time>
      </trkpt>
      <trkpt lat="43.2388" lon="2.3448">
        <ele>109.2</ele>
        <time>2019-07-14T06:56:09.000Z</time>
      </trkpt>
      <trkpt lat="43.23881" lon="2.3448">
        <ele>109.2</ele>
        <time>2019-07-14T06:56:10.000Z</time>
      </trkpt>
      <trkpt lat="43.23881" lon="2.34479">
        <ele>109.2</ele>
        <time>2019-07-14T06:56:11.000Z</time>
      </trkpt>
      <trkpt lat="43.23882" lon="2.34478">
        <ele>109.2</ele>
        <time>2019-07-14T06:56:12.000Z</time>
      </trkpt>
      <trkpt lat="43.23883" lon="2.34477">
        <ele>109.3</ele>
        <time>2019-07-14T06:56:13.000Z</time>
      </trkpt>
      <trkpt lat="43.23883" lon="2.34476">
        <ele>109.3</ele>
        <time>2019-07-14T06:56:14.000Z</time>
      </trkpt>
      <trkpt lat="43.23884" lon="2.34475">
        <ele>109.3</ele>
        <time>2019-07-14T06:56:15.000Z</time>
      </trkpt>
      <trkpt lat="43.23884" lon="2.34474">
        <ele>109.3</ele>
        <time>2019-07-14T06:56:16.000Z</time>
      </trkpt>
      <trkpt lat="43.23885" lon="2.34473">
        <ele>109.3</ele>
        <time>2019-07-14T06:56:17.000Z</time>
      </trkpt>
      <trkpt lat="43.23885" lon="2.34472">
        <ele>109.3</ele>
        <time>2019-07-14T06:56:18.000Z</time>
      </trkpt>
      <trkpt lat="43.23885" lon="2.3447">
        <ele>109.3</ele>
        <time>2019-07-14T06:56:19.000Z</time>
      </trkpt>
      <trkpt lat="43.23885" lon="2.34469">
        <ele>109.4</ele>
        <time>2019-07-14T06:56:20.000Z</time>
      </trkpt>
      <trkpt lat="43.23885" lon="2.34468">
        <ele>109.4</ele>
        <time>2019-07-14T06:56:21.000Z</time>
      </trkpt>
      <trkpt lat="43.23886" lon="2.34467">
        <ele>109.4</ele>
        <time>2019-07-14T06:56:22.000Z</time>
      </trkpt>
      <trkpt lat="43.23886" lon="2.34465">
        <ele>109.4</ele>
        <time>2019-07-14T06:56:23.000Z</time>
      </trkpt>
      <trkpt lat="43.23886" lon="2.34464">
        <ele>109.4</ele>
        <time>2019-07-14T06:56:24.000Z</time>
      </trkpt>
      <trkpt lat="43.23887" lon="2.34462">
        <ele>109.5</ele>
        <time>2019-07-14T06:56:25.000Z</time>
      </trkpt>
      <trkpt lat="43.23887" lon="2.34461">
        <ele>109.5</ele>
        <time>2019-07-14T06:56:26.000Z</time>
      </trkpt>
      <trkpt lat="43.23888" lon="2.34459">
        <ele>109.5</ele>
        <time>2019-07-14T06:56:27.000Z</time>
      </trkpt>
      <trkpt lat="43.23889" lon="2.34458">
        <ele>109.5</ele>
        <time>2019-07-14T06:56:28.000Z</time>
      </trkpt>
      <trkpt lat="43.23889" lon="2.34457">
        <ele>109.5</ele>
        <time>2019-07-14T06:56:29.000Z</time>
      </trkpt>
      <trkpt lat="43.2389" lon="2.34456">
        <ele>109.5</ele>
        <time>2019-07-14T06:56:30.000Z</time>
      </trkpt>
      <trkpt lat="43.2389" lon="2.34455">
        <ele>109.6</ele>
        <time>2019-07-14T06:56:31.000Z</time>
      </trkpt>
      <trkpt lat="43.2389" lon="2.34454">
        <ele>109.6</ele>
        <time>2019-07-14T06:56:32.000Z</time>
      </trkpt>
      <trkpt lat="43.23891" lon="2.34453">
        <ele>109.6</ele>
        <time>2019-07-14T06:56:33.000Z</time>
      </trkpt>
      <trkpt lat="43.23891" lon="2.34452">
        <ele>109.6</ele>
        <time>2019-07-14T06:56:34.000Z</time>
      </trkpt>
      <trkpt lat="43.23891" lon="2.34451">
        <ele>109.6</ele>
        <time>2019-07-14T06:56:35.000Z</time>
      </trkpt>
      <trkpt lat="43.23891" lon="2.34451">
        <ele>109.6</ele>
        <time>2019-07-14T06:56:36.000Z</time>
      </trkpt>
      <trkpt lat="43.23891" lon="2.34451">
        <ele>109.6</ele>
        <time>2019-07-14T06:56:37.000Z</time>
      </trkpt>
      <trkpt lat="43.23891" lon="2.34451">
        <ele>109.6</ele>
        <time>2019-07-14T06:56:38.000Z</time>
      </trkpt>
      <trkpt lat="43.23891" lon="2.34451">
        <ele>109.6</ele>
        <time>2019-07-14T06:56:39.000Z</time>
      </trkpt>
      <trkpt lat="43.23891" lon="2.34451">
        <ele>109.6</ele>
        <time>2019-07-14T06:56:40.000Z</time>
      </trkpt>
      <trkpt lat="43.23891" lon="2.34451">
        <ele>109.6</ele>
        <time>2019-07-14T06:56:41.000Z</time>
      </trkpt>
      <trkpt lat="43.23892" lon="2.34451">
        <ele>109.6</ele>
        <time>2019-07-14T06:56:42.000Z</time>
      </trkpt>
      <trkpt lat="43.23892" lon="2.34451">
        <ele>109.6</ele>
        <time>2019-07-14T06:56:43.000Z</time>
      </trkpt>
      <trkpt lat="43.23893" lon="2.34452">
        <ele>109.6</ele>
        <time>2019-07-14T06:56:44.000Z</time>
      </trkpt>
      <trkpt lat="43.23893" lon="2.34453">
        <ele>109.5</ele>
        <time>2019-07-14T06:56:45.000Z</time>
      </trkpt>
      <trkpt lat="43.23893" lon="2.34454">
        <ele>109.5</ele>
        <time>2019-07-14T06:56:46.000Z</time>
      </trkpt>
      <trkpt lat="43.23893" lon="2.34455">
        <ele>109.5</ele>
        <time>2019-07-14T06:56:47.000Z</time>
      </trkpt>
      <trkpt lat="43.23892" lon="2.34456">
        <ele>109.5</ele>
        <time>2019-07-14T06:56:48.000Z</time>
      </trkpt>
      <trkpt lat="43.23892" lon="2.34456">
        <ele>109.5</ele>
        <time>2019-07-14T06:56:49.000Z</time>
      </trkpt>
      <trkpt lat="43.23892" lon="2.34457">
        <ele>109.5</ele>
        <time>2019-07-14T06:56:50.000Z</time>
      </trkpt>
      <trkpt lat="43.23892" lon="2.34457">
        <ele>109.5</ele>
        <time>2019-07-14T06:56:51.000Z</time>
      </trkpt>
      <trkpt lat="43.23892" lon="2.34457">
        <ele>109.5</ele>
        <time>2019-07-14T06:56:52.000Z</time>
      </trkpt>
      <trkpt lat="43.23892" lon="2.34457">
        <ele>109.5</ele>
        <time>2019-07-14T06:56:53.000Z</time>
      </trkpt>
      <trkpt lat="43.23892" lon="2.34457">
        <ele>109.5</ele>
        <time>2019-07-14T06:56:54.000Z</time>
      </trkpt>
      <trkpt lat="43.23892" lon="2.34457">
        <ele>109.5</ele>
        <time>2019-07-14T06:56:55.000Z</time>
      </trkpt>
      <trkpt lat="43.23892" lon="2.34457">
        <ele>109.5</ele>
        <time>2019-07-14T06:56:56.000Z</time>
      </trkpt>
      <trkpt lat="43.23892" lon="2.34457">
        <ele>109.5</ele>
        <time>2019-07-14T06:56:57.000Z</time>
      </trkpt>
      <trkpt lat="43.23892" lon="2.34457">
        <ele>109.5</ele>
        <time>2019-07-14T06:56:58.000Z</time>
      </trkpt>
      <trkpt lat="43.23892" lon="2.34457">
        <ele>109.5</ele>
        <time>2019-07-14T06:56:59.000Z</time>
      </trkpt>
      <trkpt lat="43.23892" lon="2.34457">
        <ele>109.5</ele>
        <time>2019-07-14T06:57:00.000Z</time>
      </trkpt>
      <trkpt lat="43.23892" lon="2.34457">
        <ele>109.5</ele>
        <time>2019-07-14T06:57:01.000Z</time>
      </trkpt>
      <trkpt lat="43.23892" lon="2.34457">
        <ele>109.5</ele>
        <time>2019-07-14T06:57:02.000Z</time>
      </trkpt>
      <trkpt lat="43.23892" lon="2.34457">
        <ele>109.5</ele>
        <time>2019-07-14T06:57:03.000Z</time>
      </trkpt>
      <trkpt lat="43.23892" lon="2.34457">
        <ele>109.5</ele>
        <time>2019-07-14T06:57:04.000Z</time>
      </trkpt>
      <trkpt lat="43.23892" lon="2.34457">
        <ele>109.5</ele>
        <time>2019-07-14T06:57:05.000Z</time>
      </trkpt>
      <trkpt lat="43.23892" lon="2.34457">
        <ele>109.5</ele>
        <time>2019-07-14T06:57:06.000Z</time>
      </trkpt>
      <trkpt lat="43.23892" lon="2.34457">
        <ele>109.5</ele>
        <time>2019-07-14T06:57:07.000Z</time>
      </trkpt>
      <trkpt lat="43.23892" lon="2.34457">
        <ele>109.5</ele>
        <time>2019-07-14T06:57:08.000Z</time>
      </trkpt>
      <trkpt lat="43.23892" lon="2.34458">
        <ele>109.5</ele>
        <time>2019-07-14T06:57:09.000Z</time>
      </trkpt>
      <trkpt lat="43.23891" lon="2.34459">
        <ele>109.5</ele>
        <time>2019-07-14T06:57:10.000Z</time>
      </trkpt>
      <trkpt lat="43.23891" lon="2.3446">
        <ele>109.4</ele>
        <time>2019-07-14T06:57:11.000Z</time>
      </trkpt>
      <trkpt lat="43.2389" lon="2.34461">
        <ele>109.4</ele>
        <time>2019-07-14T06:57:12.000Z</time>
      </trkpt>
      <trkpt lat="43.2389" lon="2.34462">
        <ele>109.4</ele>
        <time>2019-07-14T06:57:13.000Z</time>
      </trkpt>
      <trkpt lat="43.2389" lon="2.34463">
        <ele>109.4</ele>
        <time>2019-07-14T06:57:14.000Z</time>
      </trkpt>
      <trkpt lat="43.2389" lon="2.34464">
        <ele>109.4</ele>
        <time>2019-07-14T06:57:15.000Z</time>
      </trkpt>
      <trkpt lat="43.2389" lon="2.34465">
        <ele>109.4</ele>
        <time>2019-07-14T06:57:16.000Z</time>
      </trkpt>
      <trkpt lat="43.2389" lon="2.34466">
        <ele>109.3</ele>
        <time>2019-07-14T06:57:17.000Z</time>
      </trkpt>
      <trkpt lat="43.2389" lon="2.34466">
        <ele>109.3</ele>
        <time>2019-07-14T06:57:18.000Z</time>
      </trkpt>
      <trkpt lat="43.2389" lon="2.34467">
        <ele>109.3</ele>
        <time>2019-07-14T06:57:19.000Z</time>
      </trkpt>
      <trkpt lat="43.2389" lon="2.34468">
        <ele>109.3</ele>
        <time>2019-07-14T06:57:20.000Z</time>
      </trkpt>
      <trkpt lat="43.2389" lon="2.34469">
        <ele>109.3</ele>
        <time>2019-07-14T06:57:21.000Z</time>
      </trkpt>
      <trkpt lat="43.2389" lon="2.3447">
        <ele>109.2</ele>
        <time>2019-07-14T06:57:22.000Z</time>
      </trkpt>
      <trkpt lat="43.2389" lon="2.3447">
        <ele>109.2</ele>
        <time>2019-07-14T06:57:23.000Z</time>
      </trkpt>
      <trkpt lat="43.23891" lon="2.34471">
        <ele>109.2</ele>
        <time>2019-07-14T06:57:24.000Z</time>
      </trkpt>
      <trkpt lat="43.23891" lon="2.34472">
        <ele>109.2</ele>
        <time>2019-07-14T06:57:25.000Z</time>
      </trkpt>
      <trkpt lat="43.23891" lon="2.34473">
        <ele>109.2</ele>
        <time>2019-07-14T06:57:26.000Z</time>
      </trkpt>
      <trkpt lat="43.23891" lon="2.34474">
        <ele>109.2</ele>
        <time>2019-07-14T06:57:27.000Z</time>
      </trkpt>
      <trkpt lat="43.23891" lon="2.34474">
        <ele>109.1</ele>
        <time>2019-07-14T06:57:28.000Z</time>
      </trkpt>
      <trkpt lat="43.23891" lon="2.34475">
        <ele>109.1</ele>
        <time>2019-07-14T06:57:29.000Z</time>
      </trkpt>
      <trkpt lat="43.2389" lon="2.34476">
        <ele>109.1</ele>
        <time>2019-07-14T06:57:30.000Z</time>
      </trkpt>
      <trkpt lat="43.2389" lon="2.34477">
        <ele>109.1</ele>
        <time>2019-07-14T06:57:31.000Z</time>
      </trkpt>
      <trkpt lat="43.2389" lon="2.34478">
        <ele>109.1</ele>
        <time>2019-07-14T06:57:32.000Z</time>
      </trkpt>
      <trkpt lat="43.2389" lon="2.34479">
        <ele>109.1</ele>
        <time>2019-07-14T06:57:33.000Z</time>
      </trkpt>
      <trkpt lat="43.23889" lon="2.3448">
        <ele>109</ele>
        <time>2019-07-14T06:57:34.000Z</time>
      </trkpt>
      <trkpt lat="43.23889" lon="2.34482">
        <ele>109</ele>
        <time>2019-07-14T06:57:35.000Z</time>
      </trkpt>
      <trkpt lat="43.23889" lon="2.34483">
        <ele>109</ele>
        <time>2019-07-14T06:57:36.000Z</time>
      </trkpt>
      <trkpt lat="43.23888" lon="2.34484">
        <ele>109</ele>
        <time>2019-07-14T06:57:37.000Z</time>
      </trkpt>
      <trkpt lat="43.23888" lon="2.34486">
        <ele>109</ele>
        <time>2019-07-14T06:57:38.000Z</time>
      </trkpt>
      <trkpt lat="43.23887" lon="2.34487">
        <ele>109</ele>
        <time>2019-07-14T06:57:39.000Z</time>
      </trkpt>
      <trkpt lat="43.23887" lon="2.34489">
        <ele>108.9</ele>
        <time>2019-07-14T06:57:40.000Z</time>
      </trkpt>
      <trkpt lat="43.23886" lon="2.34491">
        <ele>108.9</ele>
        <time>2019-07-14T06:57:41.000Z</time>
      </trkpt>
      <trkpt lat="43.23886" lon="2.34493">
        <ele>108.9</ele>
        <time>2019-07-14T06:57:42.000Z</time>
      </trkpt>
      <trkpt lat="43.23885" lon="2.34494">
        <ele>108.9</ele>
        <time>2019-07-14T06:57:43.000Z</time>
      </trkpt>
      <trkpt lat="43.23885" lon="2.34497">
        <ele>108.8</ele>
        <time>2019-07-14T06:57:44.000Z</time>
      </trkpt>
      <trkpt lat="43.23884" lon="2.34499">
        <ele>108.8</ele>
        <time>2019-07-14T06:57:45.000Z</time>
      </trkpt>
      <trkpt lat="43.23883" lon="2.34501">
        <ele>108.8</ele>
        <time>2019-07-14T06:57:46.000Z</time>
      </trkpt>
      <trkpt lat="43.23882" lon="2.34503">
        <ele>108.8</ele>
        <time>2019-07-14T06:57:47.000Z</time>
      </trkpt>
      <trkpt lat="43.2388" lon="2.34505">
        <ele>108.8</ele>
        <time>2019-07-14T06:57:48.000Z</time>
      </trkpt>
      <trkpt lat="43.23879" lon="2.34507">
        <ele>108.9</ele>
        <time>2019-07-14T06:57:49.000Z</time>
      </trkpt>
      <trkpt lat="43.23877" lon="2.34509">
        <ele>108.9</ele>
        <time>2019-07-14T06:57:50.000Z</time>
      </trkpt>
      <trkpt lat="43.23875" lon="2.34511">
        <ele>108.9</ele>
        <time>2019-07-14T06:57:51.000Z</time>
      </trkpt>
      <trkpt lat="43.23872" lon="2.34513">
        <ele>109</ele>
        <time>2019-07-14T06:57:52.000Z</time>
      </trkpt>
      <trkpt lat="43.2387" lon="2.34513">
        <ele>109</ele>
        <time>2019-07-14T06:57:53.000Z</time>
      </trkpt>
      <trkpt lat="43.23868" lon="2.34513">
        <ele>109.1</ele>
        <time>2019-07-14T06:57:54.000Z</time>
      </trkpt>
      <trkpt lat="43.23865" lon="2.34513">
        <ele>109.2</ele>
        <time>2019-07-14T06:57:55.000Z</time>
      </trkpt>
      <trkpt lat="43.23863" lon="2.34513">
        <ele>109.2</ele>
        <time>2019-07-14T06:57:56.000Z</time>
      </trkpt>
      <trkpt lat="43.23861" lon="2.34513">
        <ele>109.3</ele>
        <time>2019-07-14T06:57:57.000Z</time>
      </trkpt>
      <trkpt lat="43.23859" lon="2.34513">
        <ele>109.3</ele>
        <time>2019-07-14T06:57:58.000Z</time>
      </trkpt>
      <trkpt lat="43.23857" lon="2.34513">
        <ele>109.4</ele>
        <time>2019-07-14T06:57:59.000Z</time>
      </trkpt>
      <trkpt lat="43.23855" lon="2.34513">
        <ele>109.4</ele>
        <time>2019-07-14T06:58:00.000Z</time>
      </trkpt>
      <trkpt lat="43.23853" lon="2.34512">
        <ele>109.5</ele>
        <time>2019-07-14T06:58:01.000Z</time>
      </trkpt>
      <trkpt lat="43.23851" lon="2.34512">
        <ele>109.5</ele>
        <time>2019-07-14T06:58:02.000Z</time>
      </trkpt>
      <trkpt lat="43.23849" lon="2.34512">
        <ele>109.6</ele>
        <time>2019-07-14T06:58:03.000Z</time>
      </trkpt>
      <trkpt lat="43.23847" lon="2.34512">
        <ele>109.6</ele>
        <time>2019-07-14T06:58:04.000Z</time>
      </trkpt>
      <trkpt lat="43.23845" lon="2.34511">
        <ele>109.7</ele>
        <time>2019-07-14T06:58:05.000Z</time>
      </trkpt>
      <trkpt lat="43.23843" lon="2.34511">
        <ele>109.7</ele>
        <time>2019-07-14T06:58:06.000Z</time>
      </trkpt>
      <trkpt lat="43.23841" lon="2.3451">
        <ele>109.8</ele>
        <time>2019-07-14T06:58:07.000Z</time>
      </trkpt>
      <trkpt lat="43.23839" lon="2.3451">
        <ele>109.8</ele>
        <time>2019-07-14T06:58:08.000Z</time>
      </trkpt>
      <trkpt lat="43.23837" lon="2.34509">
        <ele>109.9</ele>
        <time>2019-07-14T06:58:09.000Z</time>
      </trkpt>
      <trkpt lat="43.23835" lon="2.34508">
        <ele>110</ele>
        <time>2019-07-14T06:58:10.000Z</time>
      </trkpt>
      <trkpt lat="43.23833" lon="2.34508">
        <ele>110</ele>
        <time>2019-07-14T06:58:11.000Z</time>
      </trkpt>
      <trkpt lat="43.23831" lon="2.34507">
        <ele>109.9</ele>
        <time>2019-07-14T06:58:12.000Z</time>
      </trkpt>
      <trkpt lat="43.23828" lon="2.34507">
        <ele>109.8</ele>
        <time>2019-07-14T06:58:13.000Z</time>
      </trkpt>
      <trkpt lat="43.23826" lon="2.34507">
        <ele>109.6</ele>
        <time>2019-07-14T06:58:14.000Z</time>
      </trkpt>
      <trkpt lat="43.23824" lon="2.34506">
        <ele>109.5</ele>
        <time>2019-07-14T06:58:15.000Z</time>
      </trkpt>
      <trkpt lat="43.23821" lon="2.34506">
        <ele>109.4</ele>
        <time>2019-07-14T06:58:16.000Z</time>
      </trkpt>
      <trkpt lat="43.23819" lon="2.34506">
        <ele>109.3</ele>
        <time>2019-07-14T06:58:17.000Z</time>
      </trkpt>
      <trkpt lat="43.23816" lon="2.34506">
        <ele>109.2</ele>
        <time>2019-07-14T06:58:18.000Z</time>
      </trkpt>
      <trkpt lat="43.23814" lon="2.34506">
        <ele>109.1</ele>
        <time>2019-07-14T06:58:19.000Z</time>
      </trkpt>
      <trkpt lat="43.23811" lon="2.34505">
        <ele>108.9</ele>
        <time>2019-07-14T06:58:20.000Z</time>
      </trkpt>
      <trkpt lat="43.23809" lon="2.34505">
        <ele>108.8</ele>
        <time>2019-07-14T06:58:21.000Z</time>
      </trkpt>
      <trkpt lat="43.23806" lon="2.34505">
        <ele>108.7</ele>
        <time>2019-07-14T06:58:22.000Z</time>
      </trkpt>
      <trkpt lat="43.23803" lon="2.34505">
        <ele>108.5</ele>
        <time>2019-07-14T06:58:23.000Z</time>
      </trkpt>
      <trkpt lat="43.238" lon="2.34505">
        <ele>108.4</ele>
        <time>2019-07-14T06:58:24.000Z</time>
      </trkpt>
      <trkpt lat="43.23798" lon="2.34505">
        <ele>108.3</ele>
        <time>2019-07-14T06:58:25.000Z</time>
      </trkpt>
      <trkpt lat="43.23795" lon="2.34505">
        <ele>108.2</ele>
        <time>2019-07-14T06:58:26.000Z</time>
      </trkpt>
      <trkpt lat="43.23792" lon="2.34505">
        <ele>108</ele>
        <time>2019-07-14T06:58:27.000Z</time>
      </trkpt>
      <trkpt lat="43.23789" lon="2.34505">
        <ele>107.9</ele>
        <time>2019-07-14T06:58:28.000Z</time>
      </trkpt>
      <trkpt lat="43.23787" lon="2.34505">
        <ele>107.8</ele>
        <time>2019-07-14T06:58:29.000Z</time>
      </trkpt>
      <trkpt lat="43.23784" lon="2.34505">
        <ele>107.6</ele>
        <time>2019-07-14T06:58:30.000Z</time>
      </trkpt>
      <trkpt lat="43.23781" lon="2.34505">
        <ele>107.5</ele>
        <time>2019-07-14T06:58:31.000Z</time>
      </trkpt>
      <trkpt lat="43.23779" lon="2.34505">
        <ele>107.4</ele>
        <time>2019-07-14T06:58:32.000Z</time>
      </trkpt>
      <trkpt lat="43.23776" lon="2.34504">
        <ele>107.2</ele>
        <time>2019-07-14T06:58:33.000Z</time>
      </trkpt>
      <trkpt lat="43.23773" lon="2.34504">
        <ele>107.1</ele>
        <time>2019-07-14T06:58:34.000Z</time>
      </trkpt>
      <trkpt lat="43.23771" lon="2.34504">
        <ele>107</ele>
        <time>2019-07-14T06:58:35.000Z</time>
      </trkpt>
      <trkpt lat="43.23768" lon="2.34503">
        <ele>106.9</ele>
        <time>2019-07-14T06:58:36.000Z</time>
      </trkpt>
      <trkpt lat="43.23766" lon="2.34503">
        <ele>106.8</ele>
        <time>2019-07-14T06:58:37.000Z</time>
      </trkpt>
      <trkpt lat="43.23764" lon="2.34502">
        <ele>106.7</ele>
        <time>2019-07-14T06:58:38.000Z</time>
      </trkpt>
      <trkpt lat="43.23761" lon="2.34502">
        <ele>106.5</ele>
        <time>2019-07-14T06:58:39.000Z</time>
      </trkpt>
      <trkpt lat="43.23759" lon="2.34501">
        <ele>106.4</ele>
        <time>2019-07-14T06:58:40.000Z</time>
      </trkpt>
      <trkpt lat="43.23756" lon="2.34501">
        <ele>106.3</ele>
        <time>2019-07-14T06:58:41.000Z</time>
      </trkpt>
      <trkpt lat="43.23754" lon="2.34501">
        <ele>106.2</ele>
        <time>2019-07-14T06:58:42.000Z</time>
      </trkpt>
      <trkpt lat="43.23752" lon="2.345">
        <ele>106.1</ele>
        <time>2019-07-14T06:58:43.000Z</time>
      </trkpt>
      <trkpt lat="43.23749" lon="2.345">
        <ele>106</ele>
        <time>2019-07-14T06:58:44.000Z</time>
      </trkpt>
      <trkpt lat="43.23747" lon="2.345">
        <ele>105.8</ele>
        <time>2019-07-14T06:58:45.000Z</time>
      </trkpt>
      <trkpt lat="43.23744" lon="2.34501">
        <ele>105.7</ele>
        <time>2019-07-14T06:58:46.000Z</time>
      </trkpt>
      <trkpt lat="43.23742" lon="2.34501">
        <ele>105.5</ele>
        <time>2019-07-14T06:58:47.000Z</time>
      </trkpt>
      <trkpt lat="43.2374" lon="2.34501">
        <ele>105.4</ele>
        <time>2019-07-14T06:58:48.000Z</time>
      </trkpt>
      <trkpt lat="43.23738" lon="2.34502">
        <ele>105.3</ele>
        <time>2019-07-14T06:58:49.000Z</time>
      </trkpt>
      <trkpt lat="43.23736" lon="2.34502">
        <ele>105.1</ele>
        <time>2019-07-14T06:58:50.000Z</time>
      </trkpt>
      <trkpt lat="43.23733" lon="2.34503">
        <ele>105</ele>
        <time>2019-07-14T06:58:51.000Z</time>
      </trkpt>
      <trkpt lat="43.23732" lon="2.34504">
        <ele>104.9</ele>
        <time>2019-07-14T06:58:52.000Z</time>
      </trkpt>
      <trkpt lat="43.2373" lon="2.34505">
        <ele>104.8</ele>
        <time>2019-07-14T06:58:53.000Z</time>
      </trkpt>
      <trkpt lat="43.23728" lon="2.34505">
        <ele>104.6</ele>
        <time>2019-07-14T06:58:54.000Z</time>
      </trkpt>
      <trkpt lat="43.23726" lon="2.34507">
        <ele>104.5</ele>
        <time>2019-07-14T06:58:55.000Z</time>
      </trkpt>
      <trkpt lat="43.23724" lon="2.34508">
        <ele>104.4</ele>
        <time>2019-07-14T06:58:56.000Z</time>
      </trkpt>
      <trkpt lat="43.23722" lon="2.34509">
        <ele>104.3</ele>
        <time>2019-07-14T06:58:57.000Z</time>
      </trkpt>
      <trkpt lat="43.2372" lon="2.34511">
        <ele>104.2</ele>
        <time>2019-07-14T06:58:58.000Z</time>
      </trkpt>
      <trkpt lat="43.23718" lon="2.34512">
        <ele>104</ele>
        <time>2019-07-14T06:58:59.000Z</time>
      </trkpt>
      <trkpt lat="43.23716" lon="2.34514">
        <ele>103.9</ele>
        <time>2019-07-14T06:59:00.000Z</time>
      </trkpt>
      <trkpt lat="43.23713" lon="2.34516">
        <ele>103.7</ele>
        <time>2019-07-14T06:59:01.000Z</time>
      </trkpt>
      <trkpt lat="43.23711" lon="2.34518">
        <ele>103.6</ele>
        <time>2019-07-14T06:59:02.000Z</time>
      </trkpt>
      <trkpt lat="43.23709" lon="2.34521">
        <ele>103.4</ele>
        <time>2019-07-14T06:59:03.000Z</time>
      </trkpt>
      <trkpt lat="43.23706" lon="2.34523">
        <ele>103.2</ele>
        <time>2019-07-14T06:59:04.000Z</time>
      </trkpt>
      <trkpt lat="43.23704" lon="2.34525">
        <ele>103.1</ele>
        <time>2019-07-14T06:59:05.000Z</time>
      </trkpt>
      <trkpt lat="43.23701" lon="2.34527">
        <ele>102.9</ele>
        <time>2019-07-14T06:59:06.000Z</time>
      </trkpt>
      <trkpt lat="43.23699" lon="2.34529">
        <ele>102.7</ele>
        <time>2019-07-14T06:59:07.000Z</time>
      </trkpt>
      <trkpt lat="43.23697" lon="2.3453">
        <ele>102.6</ele>
        <time>2019-07-14T06:59:08.000Z</time>
      </trkpt>
      <trkpt lat="43.23694" lon="2.34532">
        <ele>102.4</ele>
        <time>2019-07-14T06:59:09.000Z</time>
      </trkpt>
      <trkpt lat="43.23692" lon="2.34534">
        <ele>102.2</ele>
        <time>2019-07-14T06:59:10.000Z</time>
      </trkpt>
      <trkpt lat="43.2369" lon="2.34535">
        <ele>102.1</ele>
        <time>2019-07-14T06:59:11.000Z</time>
      </trkpt>
      <trkpt lat="43.23687" lon="2.34537">
        <ele>101.9</ele>
        <time>2019-07-14T06:59:12.000Z</time>
      </trkpt>
      <trkpt lat="43.23685" lon="2.34539">
        <ele>101.8</ele>
        <time>2019-07-14T06:59:13.000Z</time>
      </trkpt>
      <trkpt lat="43.23683" lon="2.3454">
        <ele>101.6</ele>
        <time>2019-07-14T06:59:14.000Z</time>
      </trkpt>
      <trkpt lat="43.23681" lon="2.34542">
        <ele>101.4</ele>
        <time>2019-07-14T06:59:15.000Z</time>
      </trkpt>
      <trkpt lat="43.23679" lon="2.34543">
        <ele>101.3</ele>
        <time>2019-07-14T06:59:16.000Z</time>
      </trkpt>
      <trkpt lat="43.23676" lon="2.34545">
        <ele>101.1</ele>
        <time>2019-07-14T06:59:17.000Z</time>
      </trkpt>
      <trkpt lat="43.23674" lon="2.34547">
        <ele>100.9</ele>
        <time>2019-07-14T06:59:18.000Z</time>
      </trkpt>
      <trkpt lat="43.23672" lon="2.34548">
        <ele>100.8</ele>
        <time>2019-07-14T06:59:19.000Z</time>
      </trkpt>
      <trkpt lat="43.2367" lon="2.3455">
        <ele>100.6</ele>
        <time>2019-07-14T06:59:20.000Z</time>
      </trkpt>
      <trkpt lat="43.23668" lon="2.34552">
        <ele>100.5</ele>
        <time>2019-07-14T06:59:21.000Z</time>
      </trkpt>
      <trkpt lat="43.23666" lon="2.34553">
        <ele>100.3</ele>
        <time>2019-07-14T06:59:22.000Z</time>
      </trkpt>
      <trkpt lat="43.23664" lon="2.34555">
        <ele>100.3</ele>
        <time>2019-07-14T06:59:23.000Z</time>
      </trkpt>
      <trkpt lat="43.23662" lon="2.34557">
        <ele>100.2</ele>
        <time>2019-07-14T06:59:24.000Z</time>
      </trkpt>
      <trkpt lat="43.23661" lon="2.34559">
        <ele>100.1</ele>
        <time>2019-07-14T06:59:25.000Z</time>
      </trkpt>
      <trkpt lat="43.23659" lon="2.34562">
        <ele>100.1</ele>
        <time>2019-07-14T06:59:26.000Z</time>
      </trkpt>
      <trkpt lat="43.23658" lon="2.34564">
        <ele>100</ele>
        <time>2019-07-14T06:59:27.000Z</time>
      </trkpt>
      <trkpt lat="43.23657" lon="2.34567">
        <ele>99.9</ele>
        <time>2019-07-14T06:59:28.000Z</time>
      </trkpt>
      <trkpt lat="43.23657" lon="2.34571">
        <ele>99.9</ele>
        <time>2019-07-14T06:59:29.000Z</time>
      </trkpt>
      <trkpt lat="43.23657" lon="2.34574">
        <ele>99.9</ele>
        <time>2019-07-14T06:59:30.000Z</time>
      </trkpt>
      <trkpt lat="43.23657" lon="2.34577">
        <ele>99.8</ele>
        <time>2019-07-14T06:59:31.000Z</time>
      </trkpt>
      <trkpt lat="43.23658" lon="2.34581">
        <ele>99.8</ele>
        <time>2019-07-14T06:59:32.000Z</time>
      </trkpt>
      <trkpt lat="43.23658" lon="2.34584">
        <ele>99.8</ele>
        <time>2019-07-14T06:59:33.000Z</time>
      </trkpt>
      <trkpt lat="43.23658" lon="2.34588">
        <ele>99.8</ele>
        <time>2019-07-14T06:59:34.000Z</time>
      </trkpt>
      <trkpt lat="43.23658" lon="2.34591">
        <ele>99.9</ele>
        <time>2019-07-14T06:59:35.000Z</time>
      </trkpt>
      <trkpt lat="43.23658" lon="2.34595">
        <ele>99.9</ele>
        <time>2019-07-14T06:59:36.000Z</time>
      </trkpt>
      <trkpt lat="43.23659" lon="2.34599">
        <ele>100</ele>
        <time>2019-07-14T06:59:37.000Z</time>
      </trkpt>
      <trkpt lat="43.23659" lon="2.34602">
        <ele>100</ele>
        <time>2019-07-14T06:59:38.000Z</time>
      </trkpt>
      <trkpt lat="43.23659" lon="2.34606">
        <ele>100</ele>
        <time>2019-07-14T06:59:39.000Z</time>
      </trkpt>
      <trkpt lat="43.23659" lon="2.34609">
        <ele>100.1</ele>
        <time>2019-07-14T06:59:40.000Z</time>
      </trkpt>
      <trkpt lat="43.23659" lon="2.34613">
        <ele>100.1</ele>
        <time>2019-07-14T06:59:41.000Z</time>
      </trkpt>
      <trkpt lat="43.23659" lon="2.34616">
        <ele>100.2</ele>
        <time>2019-07-14T06:59:42.000Z</time>
      </trkpt>
      <trkpt lat="43.23659" lon="2.34619">
        <ele>100.2</ele>
        <time>2019-07-14T06:59:43.000Z</time>
      </trkpt>
      <trkpt lat="43.23659" lon="2.34623">
        <ele>100.2</ele>
        <time>2019-07-14T06:59:44.000Z</time>
      </trkpt>
      <trkpt lat="43.23659" lon="2.34626">
        <ele>100.3</ele>
        <time>2019-07-14T06:59:45.000Z</time>
      </trkpt>
      <trkpt lat="43.23659" lon="2.3463">
        <ele>100.3</ele>
        <time>2019-07-14T06:59:46.000Z</time>
      </trkpt>
      <trkpt lat="43.23659" lon="2.34633">
        <ele>100.4</ele>
        <time>2019-07-14T06:59:47.000Z</time>
      </trkpt>
      <trkpt lat="43.23659" lon="2.34637">
        <ele>100.4</ele>
        <time>2019-07-14T06:59:48.000Z</time>
      </trkpt>
      <trkpt lat="43.23659" lon="2.3464">
        <ele>100.4</ele>
        <time>2019-07-14T06:59:49.000Z</time>
      </trkpt>
      <trkpt lat="43.23659" lon="2.34643">
        <ele>100.5</ele>
        <time>2019-07-14T06:59:50.000Z</time>
      </trkpt>
      <trkpt lat="43.23659" lon="2.34647">
        <ele>100.5</ele>
        <time>2019-07-14T06:59:51.000Z</time>
      </trkpt>
      <trkpt lat="43.23659" lon="2.3465">
        <ele>100.5</ele>
        <time>2019-07-14T06:59:52.000Z</time>
      </trkpt>
      <trkpt lat="43.23659" lon="2.34654">
        <ele>100.6</ele>
        <time>2019-07-14T06:59:53.000Z</time>
      </trkpt>
      <trkpt lat="43.23659" lon="2.34657">
        <ele>100.6</ele>
        <time>2019-07-14T06:59:54.000Z</time>
      </trkpt>
      <trkpt lat="43.23659" lon="2.3466">
        <ele>100.6</ele>
        <time>2019-07-14T06:59:55.000Z</time>
      </trkpt>
      <trkpt lat="43.23659" lon="2.34664">
        <ele>100.7</ele>
        <time>2019-07-14T06:59:56.000Z</time>
      </trkpt>
      <trkpt lat="43.23658" lon="2.34667">
        <ele>100.7</ele>
        <time>2019-07-14T06:59:57.000Z</time>
      </trkpt>
      <trkpt lat="43.23658" lon="2.34671">
        <ele>100.8</ele>
        <time>2019-07-14T06:59:58.000Z</time>
      </trkpt>
      <trkpt lat="43.23658" lon="2.34674">
        <ele>100.8</ele>
        <time>2019-07-14T06:59:59.000Z</time>
      </trkpt>
      <trkpt lat="43.23658" lon="2.34677">
        <ele>100.9</ele>
        <time>2019-07-14T07:00:00.000Z</time>
      </trkpt>
      <trkpt lat="43.23658" lon="2.34681">
        <ele>101</ele>
        <time>2019-07-14T07:00:01.000Z</time>
      </trkpt>
      <trkpt lat="43.23658" lon="2.34684">
        <ele>101</ele>
        <time>2019-07-14T07:00:02.000Z</time>
      </trkpt>
      <trkpt lat="43.23658" lon="2.34688">
        <ele>101.1</ele>
        <time>2019-07-14T07:00:03.000Z</time>
      </trkpt>
      <trkpt lat="43.23657" lon="2.34691">
        <ele>101.1</ele>
        <time>2019-07-14T07:00:04.000Z</time>
      </trkpt>
      <trkpt lat="43.23657" lon="2.34694">
        <ele>101.2</ele>
        <time>2019-07-14T07:00:05.000Z</time>
      </trkpt>
      <trkpt lat="43.23657" lon="2.34698">
        <ele>101.3</ele>
        <time>2019-07-14T07:00:06.000Z</time>
      </trkpt>
      <trkpt lat="43.23657" lon="2.34701">
        <ele>101.3</ele>
        <time>2019-07-14T07:00:07.000Z</time>
      </trkpt>
      <trkpt lat="43.23657" lon="2.34705">
        <ele>101.4</ele>
        <time>2019-07-14T07:00:08.000Z</time>
      </trkpt>
      <trkpt lat="43.23657" lon="2.34708">
        <ele>101.5</ele>
        <time>2019-07-14T07:00:09.000Z</time>
      </trkpt>
      <trkpt lat="43.23657" lon="2.34711">
        <ele>101.5</ele>
        <time>2019-07-14T07:00:10.000Z</time>
      </trkpt>
      <trkpt lat="43.23657" lon="2.34715">
        <ele>101.6</ele>
        <time>2019-07-14T07:00:11.000Z</time>
      </trkpt>
      <trkpt lat="43.23656" lon="2.34718">
        <ele>101.6</ele>
        <time>2019-07-14T07:00:12.000Z</time>
      </trkpt>
      <trkpt lat="43.23656" lon="2.34722">
        <ele>101.7</ele>
        <time>2019-07-14T07:00:13.000Z</time>
      </trkpt>
      <trkpt lat="43.23656" lon="2.34725">
        <ele>101.8</ele>
        <time>2019-07-14T07:00:14.000Z</time>
      </trkpt>
      <trkpt lat="43.23656" lon="2.34729">
        <ele>101.8</ele>
        <time>2019-07-14T07:00:15.000Z</time>
      </trkpt>
      <trkpt lat="43.23656" lon="2.34732">
        <ele>101.9</ele>
        <time>2019-07-14T07:00:16.000Z</time>
      </trkpt>
      <trkpt lat="43.23656" lon="2.34735">
        <ele>101.9</ele>
        <time>2019-07-14T07:00:17.000Z</time>
      </trkpt>
      <trkpt lat="43.23656" lon="2.34739">
        <ele>102</ele>
        <time>2019-07-14T07:00:18.000Z</time>
      </trkpt>
      <trkpt lat="43.23656" lon="2.34742">
        <ele>102.1</ele>
        <time>2019-07-14T07:00:19.000Z</time>
      </trkpt>
      <trkpt lat="43.23656" lon="2.34746">
        <ele>102.1</ele>
        <time>2019-07-14T07:00:20.000Z</time>
      </trkpt>
      <trkpt lat="43.23656" lon="2.34749">
        <ele>102.2</ele>
        <time>2019-07-14T07:00:21.000Z</time>
      </trkpt>
      <trkpt lat="43.23656" lon="2.34753">
        <ele>102.2</ele>
        <time>2019-07-14T07:00:22.000Z</time>
      </trkpt>
      <trkpt lat="43.23656" lon="2.34756">
        <ele>102.2</ele>
        <time>2019-07-14T07:00:23.000Z</time>
      </trkpt>
      <trkpt lat="43.23655" lon="2.3476">
        <ele>102.2</ele>
        <time>2019-07-14T07:00:24.000Z</time>
      </trkpt>
      <trkpt lat="43.23655" lon="2.34763">
        <ele>102.2</ele>
        <time>2019-07-14T07:00:25.000Z</time>
      </trkpt>
      <trkpt lat="43.23655" lon="2.34767">
        <ele>102.2</ele>
        <time>2019-07-14T07:00:26.000Z</time>
      </trkpt>
      <trkpt lat="43.23655" lon="2.3477">
        <ele>102.2</ele>
        <time>2019-07-14T07:00:27.000Z</time>
      </trkpt>
      <trkpt lat="43.23655" lon="2.34774">
        <ele>102.2</ele>
        <time>2019-07-14T07:00:28.000Z</time>
      </trkpt>
      <trkpt lat="43.23655" lon="2.34777">
        <ele>102.1</ele>
        <time>2019-07-14T07:00:29.000Z</time>
      </trkpt>
      <trkpt lat="43.23655" lon="2.3478">
        <ele>102.1</ele>
        <time>2019-07-14T07:00:30.000Z</time>
      </trkpt>
      <trkpt lat="43.23654" lon="2.34784">
        <ele>102.1</ele>
        <time>2019-07-14T07:00:31.000Z</time>
      </trkpt>
      <trkpt lat="43.23654" lon="2.34787">
        <ele>102.1</ele>
        <time>2019-07-14T07:00:32.000Z</time>
      </trkpt>
      <trkpt lat="43.23654" lon="2.34791">
        <ele>102.1</ele>
        <time>2019-07-14T07:00:33.000Z</time>
      </trkpt>
      <trkpt lat="43.23654" lon="2.34794">
        <ele>102.1</ele>
        <time>2019-07-14T07:00:34.000Z</time>
      </trkpt>
      <trkpt lat="43.23654" lon="2.34798">
        <ele>102.1</ele>
        <time>2019-07-14T07:00:35.000Z</time>
      </trkpt>
      <trkpt lat="43.23653" lon="2.34801">
        <ele>102</ele>
        <time>2019-07-14T07:00:36.000Z</time>
      </trkpt>
      <trkpt lat="43.23653" lon="2.34804">
        <ele>102</ele>
        <time>2019-07-14T07:00:37.000Z</time>
      </trkpt>
      <trkpt lat="43.23653" lon="2.34808">
        <ele>102</ele>
        <time>2019-07-14T07:00:38.000Z</time>
      </trkpt>
      <trkpt lat="43.23653" lon="2.34811">
        <ele>102</ele>
        <time>2019-07-14T07:00:39.000Z</time>
      </trkpt>
      <trkpt lat="43.23653" lon="2.34814">
        <ele>102</ele>
        <time>2019-07-14T07:00:40.000Z</time>
      </trkpt>
      <trkpt lat="43.23652" lon="2.34817">
        <ele>102</ele>
        <time>2019-07-14T07:00:41.000Z</time>
      </trkpt>
      <trkpt lat="43.23652" lon="2.34821">
        <ele>101.9</ele>
        <time>2019-07-14T07:00:42.000Z</time>
      </trkpt>
      <trkpt lat="43.23652" lon="2.34824">
        <ele>101.9</ele>
        <time>2019-07-14T07:00:43.000Z</time>
      </trkpt>
      <trkpt lat="43.23651" lon="2.34827">
        <ele>101.9</ele>
        <time>2019-07-14T07:00:44.000Z</time>
      </trkpt>
      <trkpt lat="43.23651" lon="2.3483">
        <ele>101.9</ele>
        <time>2019-07-14T07:00:45.000Z</time>
      </trkpt>
      <trkpt lat="43.2365" lon="2.34833">
        <ele>101.8</ele>
        <time>2019-07-14T07:00:46.000Z</time>
      </trkpt>
      <trkpt lat="43.23649" lon="2.34836">
        <ele>101.7</ele>
        <time>2019-07-14T07:00:47.000Z</time>
      </trkpt>
      <trkpt lat="43.23649" lon="2.34839">
        <ele>101.6</ele>
        <time>2019-07-14T07:00:48.000Z</time>
      </trkpt>
      <trkpt lat="43.23648" lon="2.34842">
        <ele>101.5</ele>
        <time>2019-07-14T07:00:49.000Z</time>
      </trkpt>
      <trkpt lat="43.23646" lon="2.34845">
        <ele>101.3</ele>
        <time>2019-07-14T07:00:50.000Z</time>
      </trkpt>
      <trkpt lat="43.23645" lon="2.34847">
        <ele>101.2</ele>
        <time>2019-07-14T07:00:51.000Z</time>
      </trkpt>
      <trkpt lat="43.23643" lon="2.34849">
        <ele>101</ele>
        <time>2019-07-14T07:00:52.000Z</time>
      </trkpt>
      <trkpt lat="43.2364" lon="2.3485">
        <ele>100.8</ele>
        <time>2019-07-14T07:00:53.000Z</time>
      </trkpt>
      <trkpt lat="43.23638" lon="2.34852">
        <ele>100.7</ele>
        <time>2019-07-14T07:00:54.000Z</time>
      </trkpt>
      <trkpt lat="43.23636" lon="2.34853">
        <ele>100.5</ele>
        <time>2019-07-14T07:00:55.000Z</time>
      </trkpt>
      <trkpt lat="43.23635" lon="2.34855">
        <ele>100.4</ele>
        <time>2019-07-14T07:00:56.000Z</time>
      </trkpt>
      <trkpt lat="43.23633" lon="2.34858">
        <ele>100.2</ele>
        <time>2019-07-14T07:00:57.000Z</time>
      </trkpt>
      <trkpt lat="43.23632" lon="2.34861">
        <ele>100.1</ele>
        <time>2019-07-14T07:00:58.000Z</time>
      </trkpt>
      <trkpt lat="43.23632" lon="2.34864">
        <ele>100.1</ele>
        <time>2019-07-14T07:00:59.000Z</time>
      </trkpt>
      <trkpt lat="43.23632" lon="2.34867">
        <ele>100</ele>
        <time>2019-07-14T07:01:00.000Z</time>
      </trkpt>
      <trkpt lat="43.23633" lon="2.3487">
        <ele>100</ele>
        <time>2019-07-14T07:01:01.000Z</time>
      </trkpt>
      <trkpt lat="43.23634" lon="2.34873">
        <ele>100.1</ele>
        <time>2019-07-14T07:01:02.000Z</time>
      </trkpt>
      <trkpt lat="43.23635" lon="2.34876">
        <ele>100.1</ele>
        <time>2019-07-14T07:01:03.000Z</time>
      </trkpt>
      <trkpt lat="43.23636" lon="2.34879">
        <ele>100.1</ele>
        <time>2019-07-14T07:01:04.000Z</time>
      </trkpt>
      <trkpt lat="43.23637" lon="2.34882">
        <ele>100.1</ele>
        <time>2019-07-14T07:01:05.000Z</time>
      </trkpt>
      <trkpt lat="43.23638" lon="2.34885">
        <ele>100.1</ele>
        <time>2019-07-14T07:01:06.000Z</time>
      </trkpt>
      <trkpt lat="43.23639" lon="2.34888">
        <ele>100.1</ele>
        <time>2019-07-14T07:01:07.000Z</time>
      </trkpt>
      <trkpt lat="43.23639" lon="2.34891">
        <ele>100.1</ele>
        <time>2019-07-14T07:01:08.000Z</time>
      </trkpt>
      <trkpt lat="43.2364" lon="2.34894">
        <ele>100.1</ele>
        <time>2019-07-14T07:01:09.000Z</time>
      </trkpt>
      <trkpt lat="43.23641" lon="2.34898">
        <ele>100.1</ele>
        <time>2019-07-14T07:01:10.000Z</time>
      </trkpt>
      <trkpt lat="43.23642" lon="2.34901">
        <ele>100.1</ele>
        <time>2019-07-14T07:01:11.000Z</time>
      </trkpt>
      <trkpt lat="43.23643" lon="2.34904">
        <ele>100.1</ele>
        <time>2019-07-14T07:01:12.000Z</time>
      </trkpt>
      <trkpt lat="43.23644" lon="2.34907">
        <ele>100.1</ele>
        <time>2019-07-14T07:01:13.000Z</time>
      </trkpt>
      <trkpt lat="43.23645" lon="2.3491">
        <ele>100.1</ele>
        <time>2019-07-14T07:01:14.000Z</time>
      </trkpt>
      <trkpt lat="43.23645" lon="2.34913">
        <ele>100</ele>
        <time>2019-07-14T07:01:15.000Z</time>
      </trkpt>
      <trkpt lat="43.23646" lon="2.34916">
        <ele>100</ele>
        <time>2019-07-14T07:01:16.000Z</time>
      </trkpt>
      <trkpt lat="43.23647" lon="2.3492">
        <ele>100</ele>
        <time>2019-07-14T07:01:17.000Z</time>
      </trkpt>
      <trkpt lat="43.23648" lon="2.34923">
        <ele>99.9</ele>
        <time>2019-07-14T07:01:18.000Z</time>
      </trkpt>
      <trkpt lat="43.23649" lon="2.34926">
        <ele>99.9</ele>
        <time>2019-07-14T07:01:19.000Z</time>
      </trkpt>
      <trkpt lat="43.2365" lon="2.34929">
        <ele>99.8</ele>
        <time>2019-07-14T07:01:20.000Z</time>
      </trkpt>
      <trkpt lat="43.2365" lon="2.34932">
        <ele>99.8</ele>
        <time>2019-07-14T07:01:21.000Z</time>
      </trkpt>
      <trkpt lat="43.23651" lon="2.34935">
        <ele>99.7</ele>
        <time>2019-07-14T07:01:22.000Z</time>
      </trkpt>
      <trkpt lat="43.23652" lon="2.34938">
        <ele>99.7</ele>
        <time>2019-07-14T07:01:23.000Z</time>
      </trkpt>
      <trkpt lat="43.23653" lon="2.34941">
        <ele>99.6</ele>
        <time>2019-07-14T07:01:24.000Z</time>
      </trkpt>
      <trkpt lat="43.23653" lon="2.34944">
        <ele>99.5</ele>
        <time>2019-07-14T07:01:25.000Z</time>
      </trkpt>
      <trkpt lat="43.23654" lon="2.34947">
        <ele>99.5</ele>
        <time>2019-07-14T07:01:26.000Z</time>
      </trkpt>
      <trkpt lat="43.23655" lon="2.3495">
        <ele>99.4</ele>
        <time>2019-07-14T07:01:27.000Z</time>
      </trkpt>
      <trkpt lat="43.23656" lon="2.34953">
        <ele>99.3</ele>
        <time>2019-07-14T07:01:28.000Z</time>
      </trkpt>
      <trkpt lat="43.23656" lon="2.34957">
        <ele>99.2</ele>
        <time>2019-07-14T07:01:29.000Z</time>
      </trkpt>
      <trkpt lat="43.23657" lon="2.3496">
        <ele>99.2</ele>
        <time>2019-07-14T07:01:30.000Z</time>
      </trkpt>
      <trkpt lat="43.23658" lon="2.34963">
        <ele>99.1</ele>
        <time>2019-07-14T07:01:31.000Z</time>
      </trkpt>
      <trkpt lat="43.23659" lon="2.34966">
        <ele>99</ele>
        <time>2019-07-14T07:01:32.000Z</time>
      </trkpt>
      <trkpt lat="43.2366" lon="2.34969">
        <ele>98.9</ele>
        <time>2019-07-14T07:01:33.000Z</time>
      </trkpt>
      <trkpt lat="43.2366" lon="2.34972">
        <ele>98.8</ele>
        <time>2019-07-14T07:01:34.000Z</time>
      </trkpt>
      <trkpt lat="43.23661" lon="2.34976">
        <ele>98.8</ele>
        <time>2019-07-14T07:01:35.000Z</time>
      </trkpt>
      <trkpt lat="43.23662" lon="2.34979">
        <ele>98.7</ele>
        <time>2019-07-14T07:01:36.000Z</time>
      </trkpt>
      <trkpt lat="43.23663" lon="2.34982">
        <ele>98.6</ele>
        <time>2019-07-14T07:01:37.000Z</time>
      </trkpt>
      <trkpt lat="43.23663" lon="2.34985">
        <ele>98.5</ele>
        <time>2019-07-14T07:01:38.000Z</time>
      </trkpt>
      <trkpt lat="43.23664" lon="2.34989">
        <ele>98.4</ele>
        <time>2019-07-14T07:01:39.000Z</time>
      </trkpt>
      <trkpt lat="43.23665" lon="2.34992">
        <ele>98.3</ele>
        <time>2019-07-14T07:01:40.000Z</time>
      </trkpt>
      <trkpt lat="43.23666" lon="2.34995">
        <ele>98.2</ele>
        <time>2019-07-14T07:01:41.000Z</time>
      </trkpt>
      <trkpt lat="43.23666" lon="2.34999">
        <ele>98</ele>
        <time>2019-07-14T07:01:42.000Z</time>
      </trkpt>
      <trkpt lat="43.23667" lon="2.35002">
        <ele>98</ele>
        <time>2019-07-14T07:01:43.000Z</time>
      </trkpt>
      <trkpt lat="43.23668" lon="2.35006">
        <ele>98.1</ele>
        <time>2019-07-14T07:01:44.000Z</time>
      </trkpt>
      <trkpt lat="43.23668" lon="2.35009">
        <ele>98.1</ele>
        <time>2019-07-14T07:01:45.000Z</time>
      </trkpt>
      <trkpt lat="43.23669" lon="2.35013">
        <ele>98.2</ele>
        <time>2019-07-14T07:01:46.000Z</time>
      </trkpt>
      <trkpt lat="43.2367" lon="2.35016">
        <ele>98.2</ele>
        <time>2019-07-14T07:01:47.000Z</time>
      </trkpt>
      <trkpt lat="43.23671" lon="2.35019">
        <ele>98.3</ele>
        <time>2019-07-14T07:01:48.000Z</time>
      </trkpt>
      <trkpt lat="43.23671" lon="2.35023">
        <ele>98.4</ele>
        <time>2019-07-14T07:01:49.000Z</time>
      </trkpt>
      <trkpt lat="43.23672" lon="2.35026">
        <ele>98.4</ele>
        <time>2019-07-14T07:01:50.000Z</time>
      </trkpt>
      <trkpt lat="43.23673" lon="2.3503">
        <ele>98.4</ele>
        <time>2019-07-14T07:01:51.000Z</time>
      </trkpt>
      <trkpt lat="43.23673" lon="2.35033">
        <ele>98.5</ele>
        <time>2019-07-14T07:01:52.000Z</time>
      </trkpt>
      <trkpt lat="43.23674" lon="2.35037">
        <ele>98.5</ele>
        <time>2019-07-14T07:01:53.000Z</time>
      </trkpt>
      <trkpt lat="43.23675" lon="2.3504">
        <ele>98.6</ele>
        <time>2019-07-14T07:01:54.000Z</time>
      </trkpt>
      <trkpt lat="43.23675" lon="2.35044">
        <ele>98.6</ele>
        <time>2019-07-14T07:01:55.000Z</time>
      </trkpt>
      <trkpt lat="43.23676" lon="2.35047">
        <ele>98.7</ele>
        <time>2019-07-14T07:01:56.000Z</time>
      </trkpt>
      <trkpt lat="43.23677" lon="2.35051">
        <ele>98.7</ele>
        <time>2019-07-14T07:01:57.000Z</time>
      </trkpt>
      <trkpt lat="43.23678" lon="2.35054">
        <ele>98.7</ele>
        <time>2019-07-14T07:01:58.000Z</time>
      </trkpt>
      <trkpt lat="43.23678" lon="2.35057">
        <ele>98.8</ele>
        <time>2019-07-14T07:01:59.000Z</time>
      </trkpt>
      <trkpt lat="43.23679" lon="2.35061">
        <ele>98.8</ele>
        <time>2019-07-14T07:02:00.000Z</time>
      </trkpt>
      <trkpt lat="43.2368" lon="2.35064">
        <ele>98.9</ele>
        <time>2019-07-14T07:02:01.000Z</time>
      </trkpt>
      <trkpt lat="43.23681" lon="2.35067">
        <ele>98.9</ele>
        <time>2019-07-14T07:02:02.000Z</time>
      </trkpt>
      <trkpt lat="43.23682" lon="2.35071">
        <ele>99</ele>
        <time>2019-07-14T07:02:03.000Z</time>
      </trkpt>
      <trkpt lat="43.23682" lon="2.35074">
        <ele>99</ele>
        <time>2019-07-14T07:02:04.000Z</time>
      </trkpt>
      <trkpt lat="43.23683" lon="2.35077">
        <ele>99</ele>
        <time>2019-07-14T07:02:05.000Z</time>
      </trkpt>
      <trkpt lat="43.23684" lon="2.3508">
        <ele>99.1</ele>
        <time>2019-07-14T07:02:06.000Z</time>
      </trkpt>
      <trkpt lat="43.23685" lon="2.35084">
        <ele>99.1</ele>
        <time>2019-07-14T07:02:07.000Z</time>
      </trkpt>
      <trkpt lat="43.23686" lon="2.35087">
        <ele>99</ele>
        <time>2019-07-14T07:02:08.000Z</time>
      </trkpt>
      <trkpt lat="43.23687" lon="2.3509">
        <ele>99</ele>
        <time>2019-07-14T07:02:09.000Z</time>
      </trkpt>
      <trkpt lat="43.23687" lon="2.35093">
        <ele>98.9</ele>
        <time>2019-07-14T07:02:10.000Z</time>
      </trkpt>
      <trkpt lat="43.23688" lon="2.35097">
        <ele>98.9</ele>
        <time>2019-07-14T07:02:11.000Z</time>
      </trkpt>
      <trkpt lat="43.23689" lon="2.351">
        <ele>98.9</ele>
        <time>2019-07-14T07:02:12.000Z</time>
      </trkpt>
      <trkpt lat="43.2369" lon="2.35103">
        <ele>98.8</ele>
        <time>2019-07-14T07:02:13.000Z</time>
      </trkpt>
      <trkpt lat="43.23691" lon="2.35106">
        <ele>98.8</ele>
        <time>2019-07-14T07:02:14.000Z</time>
      </trkpt>
      <trkpt lat="43.23692" lon="2.3511">
        <ele>98.7</ele>
        <time>2019-07-14T07:02:15.000Z</time>
      </trkpt>
      <trkpt lat="43.23692" lon="2.35113">
        <ele>98.7</ele>
        <time>2019-07-14T07:02:16.000Z</time>
      </trkpt>
      <trkpt lat="43.23693" lon="2.35116">
        <ele>98.7</ele>
        <time>2019-07-14T07:02:17.000Z</time>
      </trkpt>
      <trkpt lat="43.23694" lon="2.3512">
        <ele>98.6</ele>
        <time>2019-07-14T07:02:18.000Z</time>
      </trkpt>
      <trkpt lat="43.23695" lon="2.35123">
        <ele>98.6</ele>
        <time>2019-07-14T07:02:19.000Z</time>
      </trkpt>
      <trkpt lat="43.23696" lon="2.35126">
        <ele>98.6</ele>
        <time>2019-07-14T07:02:20.000Z</time>
      </trkpt>
      <trkpt lat="43.23696" lon="2.35129">
        <ele>98.5</ele>
        <time>2019-07-14T07:02:21.000Z</time>
      </trkpt>
      <trkpt lat="43.23697" lon="2.35133">
        <ele>98.5</ele>
        <time>2019-07-14T07:02:22.000Z</time>
      </trkpt>
      <trkpt lat="43.23698" lon="2.35136">
        <ele>98.5</ele>
        <time>2019-07-14T07:02:23.000Z</time>
      </trkpt>
      <trkpt lat="43.23699" lon="2.35139">
        <ele>98.4</ele>
        <time>2019-07-14T07:02:24.000Z</time>
      </trkpt>
      <trkpt lat="43.237" lon="2.35142">
        <ele>98.4</ele>
        <time>2019-07-14T07:02:25.000Z</time>
      </trkpt>
      <trkpt lat="43.237" lon="2.35145">
        <ele>98.4</ele>
        <time>2019-07-14T07:02:26.000Z</time>
      </trkpt>
      <trkpt lat="43.23701" lon="2.35148">
        <ele>98.4</ele>
        <time>2019-07-14T07:02:27.000Z</time>
      </trkpt>
      <trkpt lat="43.23702" lon="2.35152">
        <ele>98.3</ele>
        <time>2019-07-14T07:02:28.000Z</time>
      </trkpt>
      <trkpt lat="43.23703" lon="2.35155">
        <ele>98.3</ele>
        <time>2019-07-14T07:02:29.000Z</time>
      </trkpt>
      <trkpt lat="43.23703" lon="2.35158">
        <ele>98.3</ele>
        <time>2019-07-14T07:02:30.000Z</time>
      </trkpt>
      <trkpt lat="43.23704" lon="2.35161">
        <ele>98.3</ele>
        <time>2019-07-14T07:02:31.000Z</time>
      </trkpt>
      <trkpt lat="43.23705" lon="2.35164">
        <ele>98.3</ele>
        <time>2019-07-14T07:02:32.000Z</time>
      </trkpt>
      <trkpt lat="43.23705" lon="2.35167">
        <ele>98.2</ele>
        <time>2019-07-14T07:02:33.000Z</time>
      </trkpt>
      <trkpt lat="43.23706" lon="2.3517">
        <ele>98.3</ele>
        <time>2019-07-14T07:02:34.000Z</time>
      </trkpt>
      <trkpt lat="43.23707" lon="2.35173">
        <ele>98.3</ele>
        <time>2019-07-14T07:02:35.000Z</time>
      </trkpt>
      <trkpt lat="43.23708" lon="2.35176">
        <ele>98.3</ele>
        <time>2019-07-14T07:02:36.000Z</time>
      </trkpt>
      <trkpt lat="43.23708" lon="2.35179">
        <ele>98.3</ele>
        <time>2019-07-14T07:02:37.000Z</time>
      </trkpt>
      <trkpt lat="43.23709" lon="2.35182">
        <ele>98.4</ele>
        <time>2019-07-14T07:02:38.000Z</time>
      </trkpt>
      <trkpt lat="43.2371" lon="2.35185">
        <ele>98.4</ele>
        <time>2019-07-14T07:02:39.000Z</time>
      </trkpt>
      <trkpt lat="43.23711" lon="2.35188">
        <ele>98.4</ele>
        <time>2019-07-14T07:02:40.000Z</time>
      </trkpt>
      <trkpt lat="43.23711" lon="2.35191">
        <ele>98.4</ele>
        <time>2019-07-14T07:02:41.000Z</time>
      </trkpt>
      <trkpt lat="43.23712" lon="2.35195">
        <ele>98.4</ele>
        <time>2019-07-14T07:02:42.000Z</time>
      </trkpt>
      <trkpt lat="43.23713" lon="2.35198">
        <ele>98.4</ele>
        <time>2019-07-14T07:02:43.000Z</time>
      </trkpt>
      <trkpt lat="43.23714" lon="2.35201">
        <ele>98.5</ele>
        <time>2019-07-14T07:02:44.000Z</time>
      </trkpt>
      <trkpt lat="43.23715" lon="2.35204">
        <ele>98.5</ele>
        <time>2019-07-14T07:02:45.000Z</time>
      </trkpt>
      <trkpt lat="43.23716" lon="2.35207">
        <ele>98.5</ele>
        <time>2019-07-14T07:02:46.000Z</time>
      </trkpt>
      <trkpt lat="43.23717" lon="2.3521">
        <ele>98.5</ele>
        <time>2019-07-14T07:02:47.000Z</time>
      </trkpt>
      <trkpt lat="43.23718" lon="2.35213">
        <ele>98.5</ele>
        <time>2019-07-14T07:02:48.000Z</time>
      </trkpt>
      <trkpt lat="43.23719" lon="2.35216">
        <ele>98.5</ele>
        <time>2019-07-14T07:02:49.000Z</time>
      </trkpt>
      <trkpt lat="43.2372" lon="2.3522">
        <ele>98.5</ele>
        <time>2019-07-14T07:02:50.000Z</time>
      </trkpt>
      <trkpt lat="43.23721" lon="2.35223">
        <ele>98.5</ele>
        <time>2019-07-14T07:02:51.000Z</time>
      </trkpt>
      <trkpt lat="43.23722" lon="2.35226">
        <ele>98.5</ele>
        <time>2019-07-14T07:02:52.000Z</time>
      </trkpt>
      <trkpt lat="43.23723" lon="2.35229">
        <ele>98.5</ele>
        <time>2019-07-14T07:02:53.000Z</time>
      </trkpt>
      <trkpt lat="43.23724" lon="2.35232">
        <ele>98.4</ele>
        <time>2019-07-14T07:02:54.000Z</time>
      </trkpt>
      <trkpt lat="43.23725" lon="2.35236">
        <ele>98.4</ele>
        <time>2019-07-14T07:02:55.000Z</time>
      </trkpt>
      <trkpt lat="43.23726" lon="2.35239">
        <ele>98.4</ele>
        <time>2019-07-14T07:02:56.000Z</time>
      </trkpt>
      <trkpt lat="43.23727" lon="2.35242">
        <ele>98.4</ele>
        <time>2019-07-14T07:02:57.000Z</time>
      </trkpt>
      <trkpt lat="43.23728" lon="2.35245">
        <ele>98.3</ele>
        <time>2019-07-14T07:02:58.000Z</time>
      </trkpt>
      <trkpt lat="43.23729" lon="2.35248">
        <ele>98.3</ele>
        <time>2019-07-14T07:02:59.000Z</time>
      </trkpt>
      <trkpt lat="43.2373" lon="2.35251">
        <ele>98.2</ele>
        <time>2019-07-14T07:03:00.000Z</time>
      </trkpt>
      <trkpt lat="43.23731" lon="2.35254">
        <ele>98.2</ele>
        <time>2019-07-14T07:03:01.000Z</time>
      </trkpt>
      <trkpt lat="43.23732" lon="2.35257">
        <ele>98.1</ele>
        <time>2019-07-14T07:03:02.000Z</time>
      </trkpt>
      <trkpt lat="43.23732" lon="2.3526">
        <ele>98</ele>
        <time>2019-07-14T07:03:03.000Z</time>
      </trkpt>
      <trkpt lat="43.23733" lon="2.35263">
        <ele>98</ele>
        <time>2019-07-14T07:03:04.000Z</time>
      </trkpt>
      <trkpt lat="43.23734" lon="2.35266">
        <ele>97.9</ele>
        <time>2019-07-14T07:03:05.000Z</time>
      </trkpt>
      <trkpt lat="43.23735" lon="2.35269">
        <ele>97.9</ele>
        <time>2019-07-14T07:03:06.000Z</time>
      </trkpt>
      <trkpt lat="43.23735" lon="2.35271">
        <ele>97.8</ele>
        <time>2019-07-14T07:03:07.000Z</time>
      </trkpt>
      <trkpt lat="43.23736" lon="2.35273">
        <ele>97.7</ele>
        <time>2019-07-14T07:03:08.000Z</time>
      </trkpt>
      <trkpt lat="43.23736" lon="2.35275">
        <ele>97.7</ele>
        <time>2019-07-14T07:03:09.000Z</time>
      </trkpt>
      <trkpt lat="43.23737" lon="2.35276">
        <ele>97.7</ele>
        <time>2019-07-14T07:03:10.000Z</time>
      </trkpt>
      <trkpt lat="43.23737" lon="2.35278">
        <ele>97.6</ele>
        <time>2019-07-14T07:03:11.000Z</time>
      </trkpt>
      <trkpt lat="43.23737" lon="2.35279">
        <ele>97.6</ele>
        <time>2019-07-14T07:03:12.000Z</time>
      </trkpt>
      <trkpt lat="43.23738" lon="2.3528">
        <ele>97.6</ele>
        <time>2019-07-14T07:03:13.000Z</time>
      </trkpt>
      <trkpt lat="43.23739" lon="2.35282">
        <ele>97.5</ele>
        <time>2019-07-14T07:03:14.000Z</time>
      </trkpt>
      <trkpt lat="43.2374" lon="2.35284">
        <ele>97.5</ele>
        <time>2019-07-14T07:03:15.000Z</time>
      </trkpt>
      <trkpt lat="43.23741" lon="2.35287">
        <ele>97.4</ele>
        <time>2019-07-14T07:03:16.000Z</time>
      </trkpt>
      <trkpt lat="43.23742" lon="2.3529">
        <ele>97.4</ele>
        <time>2019-07-14T07:03:17.000Z</time>
      </trkpt>
      <trkpt lat="43.23743" lon="2.35293">
        <ele>97.3</ele>
        <time>2019-07-14T07:03:18.000Z</time>
      </trkpt>
      <trkpt lat="43.23744" lon="2.35296">
        <ele>97.2</ele>
        <time>2019-07-14T07:03:19.000Z</time>
      </trkpt>
      <trkpt lat="43.23745" lon="2.35299">
        <ele>97.1</ele>
        <time>2019-07-14T07:03:20.000Z</time>
      </trkpt>
      <trkpt lat="43.23746" lon="2.35302">
        <ele>97</ele>
        <time>2019-07-14T07:03:21.000Z</time>
      </trkpt>
      <trkpt lat="43.23747" lon="2.35305">
        <ele>96.9</ele>
        <time>2019-07-14T07:03:22.000Z</time>
      </trkpt>
      <trkpt lat="43.23748" lon="2.35309">
        <ele>96.8</ele>
        <time>2019-07-14T07:03:23.000Z</time>
      </trkpt>
      <trkpt lat="43.23748" lon="2.35312">
        <ele>96.7</ele>
        <time>2019-07-14T07:03:24.000Z</time>
      </trkpt>
      <trkpt lat="43.23749" lon="2.35315">
        <ele>96.6</ele>
        <time>2019-07-14T07:03:25.000Z</time>
      </trkpt>
      <trkpt lat="43.2375" lon="2.35318">
        <ele>96.5</ele>
        <time>2019-07-14T07:03:26.000Z</time>
      </trkpt>
      <trkpt lat="43.23751" lon="2.35321">
        <ele>96.5</ele>
        <time>2019-07-14T07:03:27.000Z</time>
      </trkpt>
      <trkpt lat="43.23751" lon="2.35324">
        <ele>96.5</ele>
        <time>2019-07-14T07:03:28.000Z</time>
      </trkpt>
      <trkpt lat="43.23752" lon="2.35327">
        <ele>96.4</ele>
        <time>2019-07-14T07:03:29.000Z</time>
      </trkpt>
      <trkpt lat="43.23753" lon="2.3533">
        <ele>96.4</ele>
        <time>2019-07-14T07:03:30.000Z</time>
      </trkpt>
      <trkpt lat="43.23754" lon="2.35333">
        <ele>96.4</ele>
        <time>2019-07-14T07:03:31.000Z</time>
      </trkpt>
      <trkpt lat="43.23755" lon="2.35336">
        <ele>96.4</ele>
        <time>2019-07-14T07:03:32.000Z</time>
      </trkpt>
      <trkpt lat="43.23756" lon="2.35339">
        <ele>96.6</ele>
        <time>2019-07-14T07:03:33.000Z</time>
      </trkpt>
      <trkpt lat="43.23757" lon="2.35342">
        <ele>96.7</ele>
        <time>2019-07-14T07:03:34.000Z</time>
      </trkpt>
      <trkpt lat="43.23757" lon="2.35346">
        <ele>96.8</ele>
        <time>2019-07-14T07:03:35.000Z</time>
      </trkpt>
      <trkpt lat="43.23758" lon="2.35349">
        <ele>96.9</ele>
        <time>2019-07-14T07:03:36.000Z</time>
      </trkpt>
      <trkpt lat="43.23759" lon="2.35352">
        <ele>97</ele>
        <time>2019-07-14T07:03:37.000Z</time>
      </trkpt>
      <trkpt lat="43.2376" lon="2.35355">
        <ele>97.1</ele>
        <time>2019-07-14T07:03:38.000Z</time>
      </trkpt>
      <trkpt lat="43.23761" lon="2.35358">
        <ele>97.3</ele>
        <time>2019-07-14T07:03:39.000Z</time>
      </trkpt>
      <trkpt lat="43.23761" lon="2.35361">
        <ele>97.4</ele>
        <time>2019-07-14T07:03:40.000Z</time>
      </trkpt>
      <trkpt lat="43.23762" lon="2.35364">
        <ele>97.5</ele>
        <time>2019-07-14T07:03:41.000Z</time>
      </trkpt>
      <trkpt lat="43.23763" lon="2.35365">
        <ele>97.6</ele>
        <time>2019-07-14T07:03:42.000Z</time>
      </trkpt>
      <trkpt lat="43.23763" lon="2.35367">
        <ele>97.6</ele>
        <time>2019-07-14T07:03:43.000Z</time>
      </trkpt>
      <trkpt lat="43.23764" lon="2.35367">
        <ele>97.7</ele>
        <time>2019-07-14T07:03:44.000Z</time>
      </trkpt>
      <trkpt lat="43.23764" lon="2.35368">
        <ele>97.8</ele>
        <time>2019-07-14T07:03:45.000Z</time>
      </trkpt>
      <trkpt lat="43.23765" lon="2.35368">
        <ele>97.8</ele>
        <time>2019-07-14T07:03:46.000Z</time>
      </trkpt>
      <trkpt lat="43.23766" lon="2.35369">
        <ele>97.9</ele>
        <time>2019-07-14T07:03:47.000Z</time>
      </trkpt>
      <trkpt lat="43.23766" lon="2.35371">
        <ele>98</ele>
        <time>2019-07-14T07:03:48.000Z</time>
      </trkpt>
      <trkpt lat="43.23767" lon="2.35373">
        <ele>98.1</ele>
        <time>2019-07-14T07:03:49.000Z</time>
      </trkpt>
      <trkpt lat="43.23768" lon="2.35376">
        <ele>98.2</ele>
        <time>2019-07-14T07:03:50.000Z</time>
      </trkpt>
      <trkpt lat="43.23769" lon="2.35378">
        <ele>98.3</ele>
        <time>2019-07-14T07:03:51.000Z</time>
      </trkpt>
      <trkpt lat="43.23769" lon="2.35381">
        <ele>98.5</ele>
        <time>2019-07-14T07:03:52.000Z</time>
      </trkpt>
      <trkpt lat="43.2377" lon="2.35384">
        <ele>98.6</ele>
        <time>2019-07-14T07:03:53.000Z</time>
      </trkpt>
      <trkpt lat="43.23771" lon="2.35387">
        <ele>98.7</ele>
        <time>2019-07-14T07:03:54.000Z</time>
      </trkpt>
      <trkpt lat="43.23772" lon="2.3539">
        <ele>98.9</ele>
        <time>2019-07-14T07:03:55.000Z</time>
      </trkpt>
      <trkpt lat="43.23773" lon="2.35393">
        <ele>99</ele>
        <time>2019-07-14T07:03:56.000Z</time>
      </trkpt>
      <trkpt lat="43.23773" lon="2.35397">
        <ele>99.1</ele>
        <time>2019-07-14T07:03:57.000Z</time>
      </trkpt>
      <trkpt lat="43.23774" lon="2.354">
        <ele>99.3</ele>
        <time>2019-07-14T07:03:58.000Z</time>
      </trkpt>
      <trkpt lat="43.23775" lon="2.35403">
        <ele>99.4</ele>
        <time>2019-07-14T07:03:59.000Z</time>
      </trkpt>
      <trkpt lat="43.23776" lon="2.35406">
        <ele>99.6</ele>
        <time>2019-07-14T07:04:00.000Z</time>
      </trkpt>
      <trkpt lat="43.23776" lon="2.35409">
        <ele>99.7</ele>
        <time>2019-07-14T07:04:01.000Z</time>
      </trkpt>
      <trkpt lat="43.23777" lon="2.35412">
        <ele>99.9</ele>
        <time>2019-07-14T07:04:02.000Z</time>
      </trkpt>
      <trkpt lat="43.23778" lon="2.35416">
        <ele>100</ele>
        <time>2019-07-14T07:04:03.000Z</time>
      </trkpt>
      <trkpt lat="43.23779" lon="2.35419">
        <ele>100.1</ele>
        <time>2019-07-14T07:04:04.000Z</time>
      </trkpt>
      <trkpt lat="43.2378" lon="2.35422">
        <ele>100.2</ele>
        <time>2019-07-14T07:04:05.000Z</time>
      </trkpt>
      <trkpt lat="43.23781" lon="2.35425">
        <ele>100.3</ele>
        <time>2019-07-14T07:04:06.000Z</time>
      </trkpt>
      <trkpt lat="43.23782" lon="2.35428">
        <ele>100.4</ele>
        <time>2019-07-14T07:04:07.000Z</time>
      </trkpt>
      <trkpt lat="43.23783" lon="2.35431">
        <ele>100.5</ele>
        <time>2019-07-14T07:04:08.000Z</time>
      </trkpt>
      <trkpt lat="43.23783" lon="2.35434">
        <ele>100.6</ele>
        <time>2019-07-14T07:04:09.000Z</time>
      </trkpt>
      <trkpt lat="43.23784" lon="2.35438">
        <ele>100.7</ele>
        <time>2019-07-14T07:04:10.000Z</time>
      </trkpt>
      <trkpt lat="43.23785" lon="2.35441">
        <ele>100.8</ele>
        <time>2019-07-14T07:04:11.000Z</time>
      </trkpt>
      <trkpt lat="43.23787" lon="2.35444">
        <ele>100.9</ele>
        <time>2019-07-14T07:04:12.000Z</time>
      </trkpt>
      <trkpt lat="43.23788" lon="2.35447">
        <ele>101</ele>
        <time>2019-07-14T07:04:13.000Z</time>
      </trkpt>
      <trkpt lat="43.23789" lon="2.3545">
        <ele>101.1</ele>
        <time>2019-07-14T07:04:14.000Z</time>
      </trkpt>
      <trkpt lat="43.2379" lon="2.35453">
        <ele>101.2</ele>
        <time>2019-07-14T07:04:15.000Z</time>
      </trkpt>
      <trkpt lat="43.23791" lon="2.35457">
        <ele>101.4</ele>
        <time>2019-07-14T07:04:16.000Z</time>
      </trkpt>
      <trkpt lat="43.23791" lon="2.3546">
        <ele>101.5</ele>
        <time>2019-07-14T07:04:17.000Z</time>
      </trkpt>
      <trkpt lat="43.23792" lon="2.35463">
        <ele>101.6</ele>
        <time>2019-07-14T07:04:18.000Z</time>
      </trkpt>
      <trkpt lat="43.23793" lon="2.35466">
        <ele>101.7</ele>
        <time>2019-07-14T07:04:19.000Z</time>
      </trkpt>
      <trkpt lat="43.23794" lon="2.35469">
        <ele>101.8</ele>
        <time>2019-07-14T07:04:20.000Z</time>
      </trkpt>
      <trkpt lat="43.23794" lon="2.35472">
        <ele>101.8</ele>
        <time>2019-07-14T07:04:21.000Z</time>
      </trkpt>
      <trkpt lat="43.23795" lon="2.35475">
        <ele>101.9</ele>
        <time>2019-07-14T07:04:22.000Z</time>
      </trkpt>
      <trkpt lat="43.23796" lon="2.35478">
        <ele>102</ele>
        <time>2019-07-14T07:04:23.000Z</time>
      </trkpt>
      <trkpt lat="43.23796" lon="2.35481">
        <ele>102.1</ele>
        <time>2019-07-14T07:04:24.000Z</time>
      </trkpt>
      <trkpt lat="43.23797" lon="2.35484">
        <ele>102.1</ele>
        <time>2019-07-14T07:04:25.000Z</time>
      </trkpt>
      <trkpt lat="43.23797" lon="2.35487">
        <ele>102.2</ele>
        <time>2019-07-14T07:04:26.000Z</time>
      </trkpt>
      <trkpt lat="43.23797" lon="2.3549">
        <ele>102.2</ele>
        <time>2019-07-14T07:04:27.000Z</time>
      </trkpt>
      <trkpt lat="43.23798" lon="2.35493">
        <ele>102.3</ele>
        <time>2019-07-14T07:04:28.000Z</time>
      </trkpt>
      <trkpt lat="43.23798" lon="2.35497">
        <ele>102.3</ele>
        <time>2019-07-14T07:04:29.000Z</time>
      </trkpt>
      <trkpt lat="43.23798" lon="2.355">
        <ele>102.3</ele>
        <time>2019-07-14T07:04:30.000Z</time>
      </trkpt>
      <trkpt lat="43.23798" lon="2.35503">
        <ele>102.4</ele>
        <time>2019-07-14T07:04:31.000Z</time>
      </trkpt>
      <trkpt lat="43.23799" lon="2.35507">
        <ele>102.4</ele>
        <time>2019-07-14T07:04:32.000Z</time>
      </trkpt>
      <trkpt lat="43.23799" lon="2.3551">
        <ele>102.5</ele>
        <time>2019-07-14T07:04:33.000Z</time>
      </trkpt>
      <trkpt lat="43.238" lon="2.35514">
        <ele>102.6</ele>
        <time>2019-07-14T07:04:34.000Z</time>
      </trkpt>
      <trkpt lat="43.23801" lon="2.35517">
        <ele>102.6</ele>
        <time>2019-07-14T07:04:35.000Z</time>
      </trkpt>
      <trkpt lat="43.23801" lon="2.35521">
        <ele>102.7</ele>
        <time>2019-07-14T07:04:36.000Z</time>
      </trkpt>
      <trkpt lat="43.23802" lon="2.35524">
        <ele>102.8</ele>
        <time>2019-07-14T07:04:37.000Z</time>
      </trkpt>
      <trkpt lat="43.23803" lon="2.35527">
        <ele>102.9</ele>
        <time>2019-07-14T07:04:38.000Z</time>
      </trkpt>
      <trkpt lat="43.23804" lon="2.35531">
        <ele>103</ele>
        <time>2019-07-14T07:04:39.000Z</time>
      </trkpt>
      <trkpt lat="43.23805" lon="2.35534">
        <ele>103.1</ele>
        <time>2019-07-14T07:04:40.000Z</time>
      </trkpt>
      <trkpt lat="43.23806" lon="2.35538">
        <ele>103.2</ele>
        <time>2019-07-14T07:04:41.000Z</time>
      </trkpt>
      <trkpt lat="43.23807" lon="2.35541">
        <ele>103.3</ele>
        <time>2019-07-14T07:04:42.000Z</time>
      </trkpt>
      <trkpt lat="43.23808" lon="2.35545">
        <ele>103.4</ele>
        <time>2019-07-14T07:04:43.000Z</time>
      </trkpt>
      <trkpt lat="43.23809" lon="2.35548">
        <ele>103.5</ele>
        <time>2019-07-14T07:04:44.000Z</time>
      </trkpt>
      <trkpt lat="43.2381" lon="2.35552">
        <ele>103.6</ele>
        <time>2019-07-14T07:04:45.000Z</time>
      </trkpt>
      <trkpt lat="43.23811" lon="2.35555">
        <ele>103.7</ele>
        <time>2019-07-14T07:04:46.000Z</time>
      </trkpt>
      <trkpt lat="43.23811" lon="2.35559">
        <ele>103.8</ele>
        <time>2019-07-14T07:04:47.000Z</time>
      </trkpt>
      <trkpt lat="43.23812" lon="2.35562">
        <ele>103.8</ele>
        <time>2019-07-14T07:04:48.000Z</time>
      </trkpt>
      <trkpt lat="43.23813" lon="2.35566">
        <ele>103.9</ele>
        <time>2019-07-14T07:04:49.000Z</time>
      </trkpt>
      <trkpt lat="43.23813" lon="2.3557">
        <ele>103.9</ele>
        <time>2019-07-14T07:04:50.000Z</time>
      </trkpt>
      <trkpt lat="43.23814" lon="2.35573">
        <ele>103.9</ele>
        <time>2019-07-14T07:04:51.000Z</time>
      </trkpt>
      <trkpt lat="43.23814" lon="2.35577">
        <ele>104</ele>
        <time>2019-07-14T07:04:52.000Z</time>
      </trkpt>
      <trkpt lat="43.23815" lon="2.35581">
        <ele>104</ele>
        <time>2019-07-14T07:04:53.000Z</time>
      </trkpt>
      <trkpt lat="43.23815" lon="2.35584">
        <ele>104</ele>
        <time>2019-07-14T07:04:54.000Z</time>
      </trkpt>
      <trkpt lat="43.23816" lon="2.35588">
        <ele>104</ele>
        <time>2019-07-14T07:04:55.000Z</time>
      </trkpt>
      <trkpt lat="43.23816" lon="2.35591">
        <ele>104</ele>
        <time>2019-07-14T07:04:56.000Z</time>
      </trkpt>
      <trkpt lat="43.23817" lon="2.35595">
        <ele>104.1</ele>
        <time>2019-07-14T07:04:57.000Z</time>
      </trkpt>
      <trkpt lat="43.23817" lon="2.35598">
        <ele>104.1</ele>
        <time>2019-07-14T07:04:58.000Z</time>
      </trkpt>
      <trkpt lat="43.23818" lon="2.35602">
        <ele>104.1</ele>
        <time>2019-07-14T07:04:59.000Z</time>
      </trkpt>
      <trkpt lat="43.23819" lon="2.35605">
        <ele>104.1</ele>
        <time>2019-07-14T07:05:00.000Z</time>
      </trkpt>
      <trkpt lat="43.23819" lon="2.35609">
        <ele>104.2</ele>
        <time>2019-07-14T07:05:01.000Z</time>
      </trkpt>
      <trkpt lat="43.2382" lon="2.35612">
        <ele>104.2</ele>
        <time>2019-07-14T07:05:02.000Z</time>
      </trkpt>
      <trkpt lat="43.2382" lon="2.35615">
        <ele>104.2</ele>
        <time>2019-07-14T07:05:03.000Z</time>
      </trkpt>
      <trkpt lat="43.23821" lon="2.35619">
        <ele>104.2</ele>
        <time>2019-07-14T07:05:04.000Z</time>
      </trkpt>
      <trkpt lat="43.23821" lon="2.35622">
        <ele>104.2</ele>
        <time>2019-07-14T07:05:05.000Z</time>
      </trkpt>
      <trkpt lat="43.23822" lon="2.35625">
        <ele>104.2</ele>
        <time>2019-07-14T07:05:06.000Z</time>
      </trkpt>
      <trkpt lat="43.23822" lon="2.35628">
        <ele>104.2</ele>
        <time>2019-07-14T07:05:07.000Z</time>
      </trkpt>
      <trkpt lat="43.23822" lon="2.35631">
        <ele>104.2</ele>
        <time>2019-07-14T07:05:08.000Z</time>
      </trkpt>
      <trkpt lat="43.23823" lon="2.35633">
        <ele>104.2</ele>
        <time>2019-07-14T07:05:09.000Z</time>
      </trkpt>
      <trkpt lat="43.23823" lon="2.35636">
        <ele>104.2</ele>
        <time>2019-07-14T07:05:10.000Z</time>
      </trkpt>
      <trkpt lat="43.23823" lon="2.35639">
        <ele>104.3</ele>
        <time>2019-07-14T07:05:11.000Z</time>
      </trkpt>
      <trkpt lat="43.23824" lon="2.35642">
        <ele>104.3</ele>
        <time>2019-07-14T07:05:12.000Z</time>
      </trkpt>
      <trkpt lat="43.23825" lon="2.35645">
        <ele>104.3</ele>
        <time>2019-07-14T07:05:13.000Z</time>
      </trkpt>
      <trkpt lat="43.23825" lon="2.35647">
        <ele>104.4</ele>
        <time>2019-07-14T07:05:14.000Z</time>
      </trkpt>
      <trkpt lat="43.23826" lon="2.3565">
        <ele>104.4</ele>
        <time>2019-07-14T07:05:15.000Z</time>
      </trkpt>
      <trkpt lat="43.23826" lon="2.35652">
        <ele>104.4</ele>
        <time>2019-07-14T07:05:16.000Z</time>
      </trkpt>
      <trkpt lat="43.23826" lon="2.35653">
        <ele>104.4</ele>
        <time>2019-07-14T07:05:17.000Z</time>
      </trkpt>
      <trkpt lat="43.23826" lon="2.35654">
        <ele>104.4</ele>
        <time>2019-07-14T07:05:18.000Z</time>
      </trkpt>
      <trkpt lat="43.23826" lon="2.35655">
        <ele>104.3</ele>
        <time>2019-07-14T07:05:19.000Z</time>
      </trkpt>
      <trkpt lat="43.23826" lon="2.35655">
        <ele>104.3</ele>
        <time>2019-07-14T07:05:20.000Z</time>
      </trkpt>
      <trkpt lat="43.23825" lon="2.35656">
        <ele>104.3</ele>
        <time>2019-07-14T07:05:21.000Z</time>
      </trkpt>
      <trkpt lat="43.23825" lon="2.35657">
        <ele>104.2</ele>
        <time>2019-07-14T07:05:22.000Z</time>
      </trkpt>
      <trkpt lat="43.23825" lon="2.35657">
        <ele>104.2</ele>
        <time>2019-07-14T07:05:23.000Z</time>
      </trkpt>
      <trkpt lat="43.23825" lon="2.35658">
        <ele>104.2</ele>
        <time>2019-07-14T07:05:24.000Z</time>
      </trkpt>
      <trkpt lat="43.23825" lon="2.35658">
        <ele>104.2</ele>
        <time>2019-07-14T07:05:25.000Z</time>
      </trkpt>
      <trkpt lat="43.23825" lon="2.35658">
        <ele>104.1</ele>
        <time>2019-07-14T07:05:26.000Z</time>
      </trkpt>
      <trkpt lat="43.23825" lon="2.35659">
        <ele>104.1</ele>
        <time>2019-07-14T07:05:27.000Z</time>
      </trkpt>
      <trkpt lat="43.23824" lon="2.35659">
        <ele>104.1</ele>
        <time>2019-07-14T07:05:28.000Z</time>
      </trkpt>
      <trkpt lat="43.23824" lon="2.35659">
        <ele>104.1</ele>
        <time>2019-07-14T07:05:29.000Z</time>
      </trkpt>
      <trkpt lat="43.23824" lon="2.35659">
        <ele>104.1</ele>
        <time>2019-07-14T07:05:30.000Z</time>
      </trkpt>
      <trkpt lat="43.23824" lon="2.35659">
        <ele>104.1</ele>
        <time>2019-07-14T07:05:31.000Z</time>
      </trkpt>
      <trkpt lat="43.23824" lon="2.35659">
        <ele>104.1</ele>
        <time>2019-07-14T07:05:32.000Z</time>
      </trkpt>
      <trkpt lat="43.23824" lon="2.35659">
        <ele>104.1</ele>
        <time>2019-07-14T07:05:33.000Z</time>
      </trkpt>
      <trkpt lat="43.23824" lon="2.35659">
        <ele>104.1</ele>
        <time>2019-07-14T07:05:34.000Z</time>
      </trkpt>
      <trkpt lat="43.23824" lon="2.35659">
        <ele>104.1</ele>
        <time>2019-07-14T07:05:35.000Z</time>
      </trkpt>
      <trkpt lat="43.23824" lon="2.35659">
        <ele>104.1</ele>
        <time>2019-07-14T07:05:36.000Z</time>
      </trkpt>
      <trkpt lat="43.23824" lon="2.35659">
        <ele>104.1</ele>
        <time>2019-07-14T07:05:37.000Z</time>
      </trkpt>
      <trkpt lat="43.23824" lon="2.35659">
        <ele>104.1</ele>
        <time>2019-07-14T07:05:38.000Z</time>
      </trkpt>
      <trkpt lat="43.23824" lon="2.35659">
        <ele>104.1</ele>
        <time>2019-07-14T07:05:39.000Z</time>
      </trkpt>
      <trkpt lat="43.23824" lon="2.3566">
        <ele>104.1</ele>
        <time>2019-07-14T07:05:40.000Z</time>
      </trkpt>
      <trkpt lat="43.23824" lon="2.3566">
        <ele>104.1</ele>
        <time>2019-07-14T07:05:41.000Z</time>
      </trkpt>
      <trkpt lat="43.23824" lon="2.3566">
        <ele>104.1</ele>
        <time>2019-07-14T07:05:42.000Z</time>
      </trkpt>
      <trkpt lat="43.23824" lon="2.3566">
        <ele>104.1</ele>
        <time>2019-07-14T07:05:43.000Z</time>
      </trkpt>
      <trkpt lat="43.23824" lon="2.3566">
        <ele>104.1</ele>
        <time>2019-07-14T07:05:44.000Z</time>
      </trkpt>
      <trkpt lat="43.23824" lon="2.3566">
        <ele>104</ele>
        <time>2019-07-14T07:05:45.000Z</time>
      </trkpt>
      <trkpt lat="43.23824" lon="2.3566">
        <ele>104</ele>
        <time>2019-07-14T07:05:46.000Z</time>
      </trkpt>
      <trkpt lat="43.23824" lon="2.3566">
        <ele>104</ele>
        <time>2019-07-14T07:05:47.000Z</time>
      </trkpt>
      <trkpt lat="43.23824" lon="2.3566">
        <ele>104</ele>
        <time>2019-07-14T07:05:48.000Z</time>
      </trkpt>
      <trkpt lat="43.23824" lon="2.3566">
        <ele>104</ele>
        <time>2019-07-14T07:05:49.000Z</time>
      </trkpt>
      <trkpt lat="43.23824" lon="2.35661">
        <ele>104</ele>
        <time>2019-07-14T07:05:50.000Z</time>
      </trkpt>
      <trkpt lat="43.23824" lon="2.35661">
        <ele>104</ele>
        <time>2019-07-14T07:05:51.000Z</time>
      </trkpt>
      <trkpt lat="43.23824" lon="2.35661">
        <ele>104</ele>
        <time>2019-07-14T07:05:52.000Z</time>
      </trkpt>
      <trkpt lat="43.23824" lon="2.35661">
        <ele>104</ele>
        <time>2019-07-14T07:05:53.000Z</time>
      </trkpt>
      <trkpt lat="43.23824" lon="2.35661">
        <ele>104</ele>
        <time>2019-07-14T07:05:54.000Z</time>
      </trkpt>
      <trkpt lat="43.23824" lon="2.35661">
        <ele>104</ele>
        <time>2019-07-14T07:05:55.000Z</time>
      </trkpt>
      <trkpt lat="43.23824" lon="2.35662">
        <ele>104</ele>
        <time>2019-07-14T07:05:56.000Z</time>
      </trkpt>
      <trkpt lat="43.23823" lon="2.35662">
        <ele>104</ele>
        <time>2019-07-14T07:05:57.000Z</time>
      </trkpt>
      <trkpt lat="43.23823" lon="2.35663">
        <ele>103.9</ele>
        <time>2019-07-14T07:05:58.000Z</time>
      </trkpt>
      <trkpt lat="43.23823" lon="2.35663">
        <ele>103.9</ele>
        <time>2019-07-14T07:05:59.000Z</time>
      </trkpt>
      <trkpt lat="43.23823" lon="2.35664">
        <ele>103.9</ele>
        <time>2019-07-14T07:06:00.000Z</time>
      </trkpt>
      <trkpt lat="43.23822" lon="2.35665">
        <ele>103.8</ele>
        <time>2019-07-14T07:06:01.000Z</time>
      </trkpt>
      <trkpt lat="43.23822" lon="2.35666">
        <ele>103.7</ele>
        <time>2019-07-14T07:06:02.000Z</time>
      </trkpt>
      <trkpt lat="43.23821" lon="2.35668">
        <ele>103.7</ele>
        <time>2019-07-14T07:06:03.000Z</time>
      </trkpt>
      <trkpt lat="43.23821" lon="2.35669">
        <ele>103.6</ele>
        <time>2019-07-14T07:06:04.000Z</time>
      </trkpt>
      <trkpt lat="43.2382" lon="2.3567">
        <ele>103.6</ele>
        <time>2019-07-14T07:06:05.000Z</time>
      </trkpt>
      <trkpt lat="43.2382" lon="2.35672">
        <ele>103.6</ele>
        <time>2019-07-14T07:06:06.000Z</time>
      </trkpt>
      <trkpt lat="43.23819" lon="2.35673">
        <ele>103.5</ele>
        <time>2019-07-14T07:06:07.000Z</time>
      </trkpt>
      <trkpt lat="43.23819" lon="2.35675">
        <ele>103.5</ele>
        <time>2019-07-14T07:06:08.000Z</time>
      </trkpt>
      <trkpt lat="43.23818" lon="2.35676">
        <ele>103.5</ele>
        <time>2019-07-14T07:06:09.000Z</time>
      </trkpt>
      <trkpt lat="43.23818" lon="2.35677">
        <ele>103.5</ele>
        <time>2019-07-14T07:06:10.000Z</time>
      </trkpt>
      <trkpt lat="43.23818" lon="2.35679">
        <ele>103.5</ele>
        <time>2019-07-14T07:06:11.000Z</time>
      </trkpt>
      <trkpt lat="43.23818" lon="2.3568">
        <ele>103.5</ele>
        <time>2019-07-14T07:06:12.000Z</time>
      </trkpt>
      <trkpt lat="43.23818" lon="2.35681">
        <ele>103.5</ele>
        <time>2019-07-14T07:06:13.000Z</time>
      </trkpt>
      <trkpt lat="43.23818" lon="2.35682">
        <ele>103.5</ele>
        <time>2019-07-14T07:06:14.000Z</time>
      </trkpt>
      <trkpt lat="43.23818" lon="2.35683">
        <ele>103.4</ele>
        <time>2019-07-14T07:06:15.000Z</time>
      </trkpt>
      <trkpt lat="43.23817" lon="2.35683">
        <ele>103.4</ele>
        <time>2019-07-14T07:06:16.000Z</time>
      </trkpt>
      <trkpt lat="43.23817" lon="2.35684">
        <ele>103.4</ele>
        <time>2019-07-14T07:06:17.000Z</time>
      </trkpt>
      <trkpt lat="43.23817" lon="2.35684">
        <ele>103.4</ele>
        <time>2019-07-14T07:06:18.000Z</time>
      </trkpt>
      <trkpt lat="43.23817" lon="2.35684">
        <ele>103.4</ele>
        <time>2019-07-14T07:06:19.000Z</time>
      </trkpt>
      <trkpt lat="43.23817" lon="2.35684">
        <ele>103.4</ele>
        <time>2019-07-14T07:06:20.000Z</time>
      </trkpt>
      <trkpt lat="43.23817" lon="2.35684">
        <ele>103.4</ele>
        <time>2019-07-14T07:06:21.000Z</time>
      </trkpt>
      <trkpt lat="43.23817" lon="2.35684">
        <ele>103.4</ele>
        <time>2019-07-14T07:06:22.000Z</time>
      </trkpt>
      <trkpt lat="43.23817" lon="2.35684">
        <ele>103.4</ele>
        <time>2019-07-14T07:06:23.000Z</time>
      </trkpt>
      <trkpt lat="43.23817" lon="2.35684">
        <ele>103.4</ele>
        <time>2019-07-14T07:06:24.000Z</time>
      </trkpt>
      <trkpt lat="43.23817" lon="2.35684">
        <ele>103.4</ele>
        <time>2019-07-14T07:06:25.000Z</time>
      </trkpt>
      <trkpt lat="43.23817" lon="2.35685">
        <ele>103.4</ele>
        <time>2019-07-14T07:06:26.000Z</time>
      </trkpt>
      <trkpt lat="43.23817" lon="2.35686">
        <ele>103.4</ele>
        <time>2019-07-14T07:06:27.000Z</time>
      </trkpt>
      <trkpt lat="43.23817" lon="2.35687">
        <ele>103.4</ele>
        <time>2019-07-14T07:06:28.000Z</time>
      </trkpt>
      <trkpt lat="43.23816" lon="2.35689">
        <ele>103.4</ele>
        <time>2019-07-14T07:06:29.000Z</time>
      </trkpt>
      <trkpt lat="43.23816" lon="2.35691">
        <ele>103.4</ele>
        <time>2019-07-14T07:06:30.000Z</time>
      </trkpt>
      <trkpt lat="43.23816" lon="2.35693">
        <ele>103.4</ele>
        <time>2019-07-14T07:06:31.000Z</time>
      </trkpt>
      <trkpt lat="43.23816" lon="2.35696">
        <ele>103.4</ele>
        <time>2019-07-14T07:06:32.000Z</time>
      </trkpt>
      <trkpt lat="43.23816" lon="2.35699">
        <ele>103.4</ele>
        <time>2019-07-14T07:06:33.000Z</time>
      </trkpt>
      <trkpt lat="43.23816" lon="2.35702">
        <ele>103.4</ele>
        <time>2019-07-14T07:06:34.000Z</time>
      </trkpt>
      <trkpt lat="43.23816" lon="2.35705">
        <ele>103.5</ele>
        <time>2019-07-14T07:06:35.000Z</time>
      </trkpt>
      <trkpt lat="43.23816" lon="2.35709">
        <ele>103.5</ele>
        <time>2019-07-14T07:06:36.000Z</time>
      </trkpt>
      <trkpt lat="43.23816" lon="2.35712">
        <ele>103.5</ele>
        <time>2019-07-14T07:06:37.000Z</time>
      </trkpt>
      <trkpt lat="43.23816" lon="2.35716">
        <ele>103.6</ele>
        <time>2019-07-14T07:06:38.000Z</time>
      </trkpt>
      <trkpt lat="43.23816" lon="2.35719">
        <ele>103.6</ele>
        <time>2019-07-14T07:06:39.000Z</time>
      </trkpt>
      <trkpt lat="43.23816" lon="2.35723">
        <ele>103.6</ele>
        <time>2019-07-14T07:06:40.000Z</time>
      </trkpt>
      <trkpt lat="43.23815" lon="2.35726">
        <ele>103.6</ele>
        <time>2019-07-14T07:06:41.000Z</time>
      </trkpt>
      <trkpt lat="43.23815" lon="2.3573">
        <ele>103.6</ele>
        <time>2019-07-14T07:06:42.000Z</time>
      </trkpt>
      <trkpt lat="43.23815" lon="2.35734">
        <ele>103.6</ele>
        <time>2019-07-14T07:06:43.000Z</time>
      </trkpt>
      <trkpt lat="43.23815" lon="2.35737">
        <ele>103.6</ele>
        <time>2019-07-14T07:06:44.000Z</time>
      </trkpt>
      <trkpt lat="43.23814" lon="2.35741">
        <ele>103.6</ele>
        <time>2019-07-14T07:06:45.000Z</time>
      </trkpt>
      <trkpt lat="43.23814" lon="2.35745">
        <ele>103.6</ele>
        <time>2019-07-14T07:06:46.000Z</time>
      </trkpt>
      <trkpt lat="43.23814" lon="2.35749">
        <ele>103.6</ele>
        <time>2019-07-14T07:06:47.000Z</time>
      </trkpt>
      <trkpt lat="43.23814" lon="2.35753">
        <ele>103.6</ele>
        <time>2019-07-14T07:06:48.000Z</time>
      </trkpt>
      <trkpt lat="43.23813" lon="2.35757">
        <ele>103.6</ele>
        <time>2019-07-14T07:06:49.000Z</time>
      </trkpt>
      <trkpt lat="43.23813" lon="2.35761">
        <ele>103.6</ele>
        <time>2019-07-14T07:06:50.000Z</time>
      </trkpt>
      <trkpt lat="43.23813" lon="2.35765">
        <ele>103.6</ele>
        <time>2019-07-14T07:06:51.000Z</time>
      </trkpt>
      <trkpt lat="43.23813" lon="2.35769">
        <ele>103.6</ele>
        <time>2019-07-14T07:06:52.000Z</time>
      </trkpt>
      <trkpt lat="43.23813" lon="2.35773">
        <ele>103.6</ele>
        <time>2019-07-14T07:06:53.000Z</time>
      </trkpt>
      <trkpt lat="43.23813" lon="2.35776">
        <ele>103.6</ele>
        <time>2019-07-14T07:06:54.000Z</time>
      </trkpt>
      <trkpt lat="43.23813" lon="2.3578">
        <ele>103.7</ele>
        <time>2019-07-14T07:06:55.000Z</time>
      </trkpt>
      <trkpt lat="43.23814" lon="2.35784">
        <ele>103.7</ele>
        <time>2019-07-14T07:06:56.000Z</time>
      </trkpt>
      <trkpt lat="43.23814" lon="2.35787">
        <ele>103.8</ele>
        <time>2019-07-14T07:06:57.000Z</time>
      </trkpt>
      <trkpt lat="43.23815" lon="2.35791">
        <ele>103.9</ele>
        <time>2019-07-14T07:06:58.000Z</time>
      </trkpt>
      <trkpt lat="43.23815" lon="2.35795">
        <ele>103.9</ele>
        <time>2019-07-14T07:06:59.000Z</time>
      </trkpt>
      <trkpt lat="43.23815" lon="2.35798">
        <ele>103.9</ele>
        <time>2019-07-14T07:07:00.000Z</time>
      </trkpt>
      <trkpt lat="43.23816" lon="2.35802">
        <ele>104</ele>
        <time>2019-07-14T07:07:01.000Z</time>
      </trkpt>
      <trkpt lat="43.23816" lon="2.35805">
        <ele>104</ele>
        <time>2019-07-14T07:07:02.000Z</time>
      </trkpt>
      <trkpt lat="43.23816" lon="2.35808">
        <ele>104.1</ele>
        <time>2019-07-14T07:07:03.000Z</time>
      </trkpt>
      <trkpt lat="43.23816" lon="2.35812">
        <ele>104.1</ele>
        <time>2019-07-14T07:07:04.000Z</time>
      </trkpt>
      <trkpt lat="43.23816" lon="2.35815">
        <ele>104.1</ele>
        <time>2019-07-14T07:07:05.000Z</time>
      </trkpt>
      <trkpt lat="43.23816" lon="2.35819">
        <ele>104.1</ele>
        <time>2019-07-14T07:07:06.000Z</time>
      </trkpt>
      <trkpt lat="43.23816" lon="2.35822">
        <ele>104.1</ele>
        <time>2019-07-14T07:07:07.000Z</time>
      </trkpt>
      <trkpt lat="43.23816" lon="2.35826">
        <ele>104.1</ele>
        <time>2019-07-14T07:07:08.000Z</time>
      </trkpt>
      <trkpt lat="43.23816" lon="2.35829">
        <ele>104.1</ele>
        <time>2019-07-14T07:07:09.000Z</time>
      </trkpt>
      <trkpt lat="43.23816" lon="2.35833">
        <ele>104.2</ele>
        <time>2019-07-14T07:07:10.000Z</time>
      </trkpt>
      <trkpt lat="43.23817" lon="2.35836">
        <ele>104.1</ele>
        <time>2019-07-14T07:07:11.000Z</time>
      </trkpt>
      <trkpt lat="43.23817" lon="2.3584">
        <ele>104</ele>
        <time>2019-07-14T07:07:12.000Z</time>
      </trkpt>
      <trkpt lat="43.23817" lon="2.35843">
        <ele>103.9</ele>
        <time>2019-07-14T07:07:13.000Z</time>
      </trkpt>
      <trkpt lat="43.23817" lon="2.35847">
        <ele>103.8</ele>
        <time>2019-07-14T07:07:14.000Z</time>
      </trkpt>
      <trkpt lat="43.23817" lon="2.35851">
        <ele>103.7</ele>
        <time>2019-07-14T07:07:15.000Z</time>
      </trkpt>
      <trkpt lat="43.23818" lon="2.35854">
        <ele>103.6</ele>
        <time>2019-07-14T07:07:16.000Z</time>
      </trkpt>
      <trkpt lat="43.23818" lon="2.35858">
        <ele>103.5</ele>
        <time>2019-07-14T07:07:17.000Z</time>
      </trkpt>
      <trkpt lat="43.23819" lon="2.35862">
        <ele>103.4</ele>
        <time>2019-07-14T07:07:18.000Z</time>
      </trkpt>
      <trkpt lat="43.23819" lon="2.35865">
        <ele>103.4</ele>
        <time>2019-07-14T07:07:19.000Z</time>
      </trkpt>
      <trkpt lat="43.2382" lon="2.35869">
        <ele>103.3</ele>
        <time>2019-07-14T07:07:20.000Z</time>
      </trkpt>
      <trkpt lat="43.2382" lon="2.35873">
        <ele>103.2</ele>
        <time>2019-07-14T07:07:21.000Z</time>
      </trkpt>
      <trkpt lat="43.23821" lon="2.35876">
        <ele>103.2</ele>
        <time>2019-07-14T07:07:22.000Z</time>
      </trkpt>
      <trkpt lat="43.23821" lon="2.3588">
        <ele>103.1</ele>
        <time>2019-07-14T07:07:23.000Z</time>
      </trkpt>
      <trkpt lat="43.23822" lon="2.35883">
        <ele>103.1</ele>
        <time>2019-07-14T07:07:24.000Z</time>
      </trkpt>
      <trkpt lat="43.23823" lon="2.35886">
        <ele>103.1</ele>
        <time>2019-07-14T07:07:25.000Z</time>
      </trkpt>
      <trkpt lat="43.23824" lon="2.3589">
        <ele>103</ele>
        <time>2019-07-14T07:07:26.000Z</time>
      </trkpt>
      <trkpt lat="43.23825" lon="2.35893">
        <ele>103</ele>
        <time>2019-07-14T07:07:27.000Z</time>
      </trkpt>
      <trkpt lat="43.23826" lon="2.35896">
        <ele>103</ele>
        <time>2019-07-14T07:07:28.000Z</time>
      </trkpt>
      <trkpt lat="43.23827" lon="2.359">
        <ele>103</ele>
        <time>2019-07-14T07:07:29.000Z</time>
      </trkpt>
      <trkpt lat="43.23828" lon="2.35903">
        <ele>102.9</ele>
        <time>2019-07-14T07:07:30.000Z</time>
      </trkpt>
      <trkpt lat="43.23828" lon="2.35906">
        <ele>102.9</ele>
        <time>2019-07-14T07:07:31.000Z</time>
      </trkpt>
      <trkpt lat="43.23829" lon="2.35909">
        <ele>102.9</ele>
        <time>2019-07-14T07:07:32.000Z</time>
      </trkpt>
      <trkpt lat="43.2383" lon="2.35912">
        <ele>102.8</ele>
        <time>2019-07-14T07:07:33.000Z</time>
      </trkpt>
      <trkpt lat="43.23831" lon="2.35916">
        <ele>102.8</ele>
        <time>2019-07-14T07:07:34.000Z</time>
      </trkpt>
      <trkpt lat="43.23832" lon="2.35919">
        <ele>102.7</ele>
        <time>2019-07-14T07:07:35.000Z</time>
      </trkpt>
      <trkpt lat="43.23833" lon="2.35922">
        <ele>102.7</ele>
        <time>2019-07-14T07:07:36.000Z</time>
      </trkpt>
      <trkpt lat="43.23833" lon="2.35926">
        <ele>102.6</ele>
        <time>2019-07-14T07:07:37.000Z</time>
      </trkpt>
      <trkpt lat="43.23834" lon="2.35929">
        <ele>102.5</ele>
        <time>2019-07-14T07:07:38.000Z</time>
      </trkpt>
      <trkpt lat="43.23835" lon="2.35932">
        <ele>102.5</ele>
        <time>2019-07-14T07:07:39.000Z</time>
      </trkpt>
      <trkpt lat="43.23836" lon="2.35935">
        <ele>102.4</ele>
        <time>2019-07-14T07:07:40.000Z</time>
      </trkpt>
      <trkpt lat="43.23836" lon="2.35939">
        <ele>102.4</ele>
        <time>2019-07-14T07:07:41.000Z</time>
      </trkpt>
      <trkpt lat="43.23837" lon="2.35942">
        <ele>102.3</ele>
        <time>2019-07-14T07:07:42.000Z</time>
      </trkpt>
      <trkpt lat="43.23838" lon="2.35945">
        <ele>102.3</ele>
        <time>2019-07-14T07:07:43.000Z</time>
      </trkpt>
      <trkpt lat="43.23839" lon="2.35948">
        <ele>102.2</ele>
        <time>2019-07-14T07:07:44.000Z</time>
      </trkpt>
      <trkpt lat="43.2384" lon="2.35951">
        <ele>102.2</ele>
        <time>2019-07-14T07:07:45.000Z</time>
      </trkpt>
      <trkpt lat="43.23841" lon="2.35955">
        <ele>102.2</ele>
        <time>2019-07-14T07:07:46.000Z</time>
      </trkpt>
      <trkpt lat="43.23842" lon="2.35958">
        <ele>102.1</ele>
        <time>2019-07-14T07:07:47.000Z</time>
      </trkpt>
      <trkpt lat="43.23843" lon="2.35961">
        <ele>102.1</ele>
        <time>2019-07-14T07:07:48.000Z</time>
      </trkpt>
      <trkpt lat="43.23843" lon="2.35964">
        <ele>102.1</ele>
        <time>2019-07-14T07:07:49.000Z</time>
      </trkpt>
      <trkpt lat="43.23844" lon="2.35967">
        <ele>102</ele>
        <time>2019-07-14T07:07:50.000Z</time>
      </trkpt>
      <trkpt lat="43.23845" lon="2.35971">
        <ele>102</ele>
        <time>2019-07-14T07:07:51.000Z</time>
      </trkpt>
      <trkpt lat="43.23846" lon="2.35974">
        <ele>102</ele>
        <time>2019-07-14T07:07:52.000Z</time>
      </trkpt>
      <trkpt lat="43.23847" lon="2.35977">
        <ele>101.9</ele>
        <time>2019-07-14T07:07:53.000Z</time>
      </trkpt>
      <trkpt lat="43.23848" lon="2.3598">
        <ele>101.9</ele>
        <time>2019-07-14T07:07:54.000Z</time>
      </trkpt>
      <trkpt lat="43.23849" lon="2.35984">
        <ele>101.9</ele>
        <time>2019-07-14T07:07:55.000Z</time>
      </trkpt>
      <trkpt lat="43.2385" lon="2.35987">
        <ele>101.8</ele>
        <time>2019-07-14T07:07:56.000Z</time>
      </trkpt>
      <trkpt lat="43.23851" lon="2.35991">
        <ele>101.8</ele>
        <time>2019-07-14T07:07:57.000Z</time>
      </trkpt>
      <trkpt lat="43.23852" lon="2.35994">
        <ele>101.7</ele>
        <time>2019-07-14T07:07:58.000Z</time>
      </trkpt>
      <trkpt lat="43.23853" lon="2.35998">
        <ele>101.7</ele>
        <time>2019-07-14T07:07:59.000Z</time>
      </trkpt>
      <trkpt lat="43.23854" lon="2.36001">
        <ele>101.7</ele>
        <time>2019-07-14T07:08:00.000Z</time>
      </trkpt>
      <trkpt lat="43.23855" lon="2.36005">
        <ele>101.7</ele>
        <time>2019-07-14T07:08:01.000Z</time>
      </trkpt>
      <trkpt lat="43.23856" lon="2.36008">
        <ele>101.8</ele>
        <time>2019-07-14T07:08:02.000Z</time>
      </trkpt>
      <trkpt lat="43.23857" lon="2.36012">
        <ele>101.8</ele>
        <time>2019-07-14T07:08:03.000Z</time>
      </trkpt>
      <trkpt lat="43.23858" lon="2.36016">
        <ele>101.8</ele>
        <time>2019-07-14T07:08:04.000Z</time>
      </trkpt>
      <trkpt lat="43.23859" lon="2.36019">
        <ele>101.8</ele>
        <time>2019-07-14T07:08:05.000Z</time>
      </trkpt>
      <trkpt lat="43.2386" lon="2.36023">
        <ele>101.8</ele>
        <time>2019-07-14T07:08:06.000Z</time>
      </trkpt>
      <trkpt lat="43.2386" lon="2.36027">
        <ele>101.8</ele>
        <time>2019-07-14T07:08:07.000Z</time>
      </trkpt>
      <trkpt lat="43.23861" lon="2.3603">
        <ele>101.8</ele>
        <time>2019-07-14T07:08:08.000Z</time>
      </trkpt>
      <trkpt lat="43.23862" lon="2.36034">
        <ele>101.8</ele>
        <time>2019-07-14T07:08:09.000Z</time>
      </trkpt>
      <trkpt lat="43.23863" lon="2.36038">
        <ele>101.8</ele>
        <time>2019-07-14T07:08:10.000Z</time>
      </trkpt>
      <trkpt lat="43.23864" lon="2.36042">
        <ele>101.8</ele>
        <time>2019-07-14T07:08:11.000Z</time>
      </trkpt>
      <trkpt lat="43.23865" lon="2.36045">
        <ele>101.8</ele>
        <time>2019-07-14T07:08:12.000Z</time>
      </trkpt>
      <trkpt lat="43.23865" lon="2.36049">
        <ele>101.7</ele>
        <time>2019-07-14T07:08:13.000Z</time>
      </trkpt>
      <trkpt lat="43.23866" lon="2.36053">
        <ele>101.7</ele>
        <time>2019-07-14T07:08:14.000Z</time>
      </trkpt>
      <trkpt lat="43.23867" lon="2.36057">
        <ele>101.6</ele>
        <time>2019-07-14T07:08:15.000Z</time>
      </trkpt>
      <trkpt lat="43.23868" lon="2.3606">
        <ele>101.6</ele>
        <time>2019-07-14T07:08:16.000Z</time>
      </trkpt>
      <trkpt lat="43.23868" lon="2.36064">
        <ele>101.6</ele>
        <time>2019-07-14T07:08:17.000Z</time>
      </trkpt>
      <trkpt lat="43.23869" lon="2.36068">
        <ele>101.5</ele>
        <time>2019-07-14T07:08:18.000Z</time>
      </trkpt>
      <trkpt lat="43.2387" lon="2.36071">
        <ele>101.5</ele>
        <time>2019-07-14T07:08:19.000Z</time>
      </trkpt>
      <trkpt lat="43.23871" lon="2.36075">
        <ele>101.5</ele>
        <time>2019-07-14T07:08:20.000Z</time>
      </trkpt>
      <trkpt lat="43.23873" lon="2.36078">
        <ele>101.5</ele>
        <time>2019-07-14T07:08:21.000Z</time>
      </trkpt>
      <trkpt lat="43.23874" lon="2.36082">
        <ele>101.4</ele>
        <time>2019-07-14T07:08:22.000Z</time>
      </trkpt>
      <trkpt lat="43.23875" lon="2.36085">
        <ele>101.4</ele>
        <time>2019-07-14T07:08:23.000Z</time>
      </trkpt>
      <trkpt lat="43.23876" lon="2.36089">
        <ele>101.4</ele>
        <time>2019-07-14T07:08:24.000Z</time>
      </trkpt>
      <trkpt lat="43.23877" lon="2.36092">
        <ele>101.3</ele>
        <time>2019-07-14T07:08:25.000Z</time>
      </trkpt>
      <trkpt lat="43.23878" lon="2.36096">
        <ele>101.2</ele>
        <time>2019-07-14T07:08:26.000Z</time>
      </trkpt>
      <trkpt lat="43.23879" lon="2.36099">
        <ele>101.1</ele>
        <time>2019-07-14T07:08:27.000Z</time>
      </trkpt>
      <trkpt lat="43.23881" lon="2.36103">
        <ele>101.1</ele>
        <time>2019-07-14T07:08:28.000Z</time>
      </trkpt>
      <trkpt lat="43.23882" lon="2.36106">
        <ele>101</ele>
        <time>2019-07-14T07:08:29.000Z</time>
      </trkpt>
      <trkpt lat="43.23884" lon="2.36109">
        <ele>101</ele>
        <time>2019-07-14T07:08:30.000Z</time>
      </trkpt>
      <trkpt lat="43.23885" lon="2.36113">
        <ele>100.9</ele>
        <time>2019-07-14T07:08:31.000Z</time>
      </trkpt>
      <trkpt lat="43.23887" lon="2.36116">
        <ele>100.9</ele>
        <time>2019-07-14T07:08:32.000Z</time>
      </trkpt>
      <trkpt lat="43.23889" lon="2.36119">
        <ele>100.8</ele>
        <time>2019-07-14T07:08:33.000Z</time>
      </trkpt>
      <trkpt lat="43.23891" lon="2.36122">
        <ele>100.8</ele>
        <time>2019-07-14T07:08:34.000Z</time>
      </trkpt>
      <trkpt lat="43.23893" lon="2.36125">
        <ele>100.7</ele>
        <time>2019-07-14T07:08:35.000Z</time>
      </trkpt>
      <trkpt lat="43.23895" lon="2.36128">
        <ele>100.6</ele>
        <time>2019-07-14T07:08:36.000Z</time>
      </trkpt>
      <trkpt lat="43.23897" lon="2.36131">
        <ele>100.6</ele>
        <time>2019-07-14T07:08:37.000Z</time>
      </trkpt>
      <trkpt lat="43.23899" lon="2.36134">
        <ele>100.5</ele>
        <time>2019-07-14T07:08:38.000Z</time>
      </trkpt>
      <trkpt lat="43.23901" lon="2.36137">
        <ele>100.4</ele>
        <time>2019-07-14T07:08:39.000Z</time>
      </trkpt>
      <trkpt lat="43.23903" lon="2.3614">
        <ele>100.3</ele>
        <time>2019-07-14T07:08:40.000Z</time>
      </trkpt>
      <trkpt lat="43.23905" lon="2.36143">
        <ele>100.2</ele>
        <time>2019-07-14T07:08:41.000Z</time>
      </trkpt>
      <trkpt lat="43.23907" lon="2.36146">
        <ele>100.1</ele>
        <time>2019-07-14T07:08:42.000Z</time>
      </trkpt>
      <trkpt lat="43.23909" lon="2.36149">
        <ele>100</ele>
        <time>2019-07-14T07:08:43.000Z</time>
      </trkpt>
      <trkpt lat="43.23911" lon="2.36152">
        <ele>99.9</ele>
        <time>2019-07-14T07:08:44.000Z</time>
      </trkpt>
      <trkpt lat="43.23913" lon="2.36155">
        <ele>99.7</ele>
        <time>2019-07-14T07:08:45.000Z</time>
      </trkpt>
      <trkpt lat="43.23915" lon="2.36158">
        <ele>99.6</ele>
        <time>2019-07-14T07:08:46.000Z</time>
      </trkpt>
      <trkpt lat="43.23917" lon="2.36161">
        <ele>99.4</ele>
        <time>2019-07-14T07:08:47.000Z</time>
      </trkpt>
      <trkpt lat="43.23919" lon="2.36164">
        <ele>99.3</ele>
        <time>2019-07-14T07:08:48.000Z</time>
      </trkpt>
      <trkpt lat="43.23921" lon="2.36167">
        <ele>99.2</ele>
        <time>2019-07-14T07:08:49.000Z</time>
      </trkpt>
      <trkpt lat="43.23923" lon="2.3617">
        <ele>99.1</ele>
        <time>2019-07-14T07:08:50.000Z</time>
      </trkpt>
      <trkpt lat="43.23925" lon="2.36173">
        <ele>99.1</ele>
        <time>2019-07-14T07:08:51.000Z</time>
      </trkpt>
      <trkpt lat="43.23927" lon="2.36176">
        <ele>99.1</ele>
        <time>2019-07-14T07:08:52.000Z</time>
      </trkpt>
      <trkpt lat="43.23929" lon="2.36179">
        <ele>99.1</ele>
        <time>2019-07-14T07:08:53.000Z</time>
      </trkpt>
      <trkpt lat="43.23932" lon="2.36182">
        <ele>99.1</ele>
        <time>2019-07-14T07:08:54.000Z</time>
      </trkpt>
      <trkpt lat="43.23934" lon="2.36185">
        <ele>99.2</ele>
        <time>2019-07-14T07:08:55.000Z</time>
      </trkpt>
      <trkpt lat="43.23937" lon="2.36188">
        <ele>99.2</ele>
        <time>2019-07-14T07:08:56.000Z</time>
      </trkpt>
      <trkpt lat="43.23939" lon="2.36191">
        <ele>99.2</ele>
        <time>2019-07-14T07:08:57.000Z</time>
      </trkpt>
      <trkpt lat="43.23942" lon="2.36194">
        <ele>99.2</ele>
        <time>2019-07-14T07:08:58.000Z</time>
      </trkpt>
      <trkpt lat="43.23945" lon="2.36197">
        <ele>99.2</ele>
        <time>2019-07-14T07:08:59.000Z</time>
      </trkpt>
      <trkpt lat="43.23947" lon="2.362">
        <ele>99.3</ele>
        <time>2019-07-14T07:09:00.000Z</time>
      </trkpt>
      <trkpt lat="43.2395" lon="2.36203">
        <ele>99.3</ele>
        <time>2019-07-14T07:09:01.000Z</time>
      </trkpt>
      <trkpt lat="43.23953" lon="2.36206">
        <ele>99.3</ele>
        <time>2019-07-14T07:09:02.000Z</time>
      </trkpt>
      <trkpt lat="43.23956" lon="2.36209">
        <ele>99.3</ele>
        <time>2019-07-14T07:09:03.000Z</time>
      </trkpt>
      <trkpt lat="43.23958" lon="2.36212">
        <ele>99.4</ele>
        <time>2019-07-14T07:09:04.000Z</time>
      </trkpt>
      <trkpt lat="43.23961" lon="2.36215">
        <ele>99.4</ele>
        <time>2019-07-14T07:09:05.000Z</time>
      </trkpt>
      <trkpt lat="43.23964" lon="2.36218">
        <ele>99.4</ele>
        <time>2019-07-14T07:09:06.000Z</time>
      </trkpt>
      <trkpt lat="43.23967" lon="2.36221">
        <ele>99.4</ele>
        <time>2019-07-14T07:09:07.000Z</time>
      </trkpt>
      <trkpt lat="43.23969" lon="2.36224">
        <ele>99.4</ele>
        <time>2019-07-14T07:09:08.000Z</time>
      </trkpt>
      <trkpt lat="43.23972" lon="2.36228">
        <ele>99.5</ele>
        <time>2019-07-14T07:09:09.000Z</time>
      </trkpt>
      <trkpt lat="43.23974" lon="2.36231">
        <ele>99.5</ele>
        <time>2019-07-14T07:09:10.000Z</time>
      </trkpt>
      <trkpt lat="43.23977" lon="2.36234">
        <ele>99.5</ele>
        <time>2019-07-14T07:09:11.000Z</time>
      </trkpt>
      <trkpt lat="43.23979" lon="2.36238">
        <ele>99.5</ele>
        <time>2019-07-14T07:09:12.000Z</time>
      </trkpt>
      <trkpt lat="43.23982" lon="2.36241">
        <ele>99.4</ele>
        <time>2019-07-14T07:09:13.000Z</time>
      </trkpt>
      <trkpt lat="43.23984" lon="2.36245">
        <ele>99.4</ele>
        <time>2019-07-14T07:09:14.000Z</time>
      </trkpt>
      <trkpt lat="43.23986" lon="2.36249">
        <ele>99.4</ele>
        <time>2019-07-14T07:09:15.000Z</time>
      </trkpt>
      <trkpt lat="43.23988" lon="2.36253">
        <ele>99.3</ele>
        <time>2019-07-14T07:09:16.000Z</time>
      </trkpt>
      <trkpt lat="43.2399" lon="2.36257">
        <ele>99.3</ele>
        <time>2019-07-14T07:09:17.000Z</time>
      </trkpt>
      <trkpt lat="43.23992" lon="2.36261">
        <ele>99.3</ele>
        <time>2019-07-14T07:09:18.000Z</time>
      </trkpt>
      <trkpt lat="43.23994" lon="2.36265">
        <ele>99.2</ele>
        <time>2019-07-14T07:09:19.000Z</time>
      </trkpt>
      <trkpt lat="43.23996" lon="2.36269">
        <ele>99.1</ele>
        <time>2019-07-14T07:09:20.000Z</time>
      </trkpt>
      <trkpt lat="43.23998" lon="2.36273">
        <ele>99.1</ele>
        <time>2019-07-14T07:09:21.000Z</time>
      </trkpt>
      <trkpt lat="43.23999" lon="2.36278">
        <ele>99</ele>
        <time>2019-07-14T07:09:22.000Z</time>
      </trkpt>
      <trkpt lat="43.24001" lon="2.36282">
        <ele>98.9</ele>
        <time>2019-07-14T07:09:23.000Z</time>
      </trkpt>
      <trkpt lat="43.24002" lon="2.36286">
        <ele>98.8</ele>
        <time>2019-07-14T07:09:24.000Z</time>
      </trkpt>
      <trkpt lat="43.24004" lon="2.3629">
        <ele>98.8</ele>
        <time>2019-07-14T07:09:25.000Z</time>
      </trkpt>
      <trkpt lat="43.24005" lon="2.36294">
        <ele>98.7</ele>
        <time>2019-07-14T07:09:26.000Z</time>
      </trkpt>
      <trkpt lat="43.24007" lon="2.36298">
        <ele>98.7</ele>
        <time>2019-07-14T07:09:27.000Z</time>
      </trkpt>
      <trkpt lat="43.24008" lon="2.36301">
        <ele>98.6</ele>
        <time>2019-07-14T07:09:28.000Z</time>
      </trkpt>
      <trkpt lat="43.2401" lon="2.36305">
        <ele>98.6</ele>
        <time>2019-07-14T07:09:29.000Z</time>
      </trkpt>
      <trkpt lat="43.24011" lon="2.36308">
        <ele>98.6</ele>
        <time>2019-07-14T07:09:30.000Z</time>
      </trkpt>
      <trkpt lat="43.24013" lon="2.36312">
        <ele>98.5</ele>
        <time>2019-07-14T07:09:31.000Z</time>
      </trkpt>
      <trkpt lat="43.24014" lon="2.36315">
        <ele>98.5</ele>
        <time>2019-07-14T07:09:32.000Z</time>
      </trkpt>
      <trkpt lat="43.24016" lon="2.36318">
        <ele>98.5</ele>
        <time>2019-07-14T07:09:33.000Z</time>
      </trkpt>
      <trkpt lat="43.24017" lon="2.3632">
        <ele>98.5</ele>
        <time>2019-07-14T07:09:34.000Z</time>
      </trkpt>
      <trkpt lat="43.24019" lon="2.36322">
        <ele>98.5</ele>
        <time>2019-07-14T07:09:35.000Z</time>
      </trkpt>
      <trkpt lat="43.24021" lon="2.36324">
        <ele>98.6</ele>
        <time>2019-07-14T07:09:36.000Z</time>
      </trkpt>
      <trkpt lat="43.24023" lon="2.36325">
        <ele>98.7</ele>
        <time>2019-07-14T07:09:37.000Z</time>
      </trkpt>
      <trkpt lat="43.24025" lon="2.36325">
        <ele>98.8</ele>
        <time>2019-07-14T07:09:38.000Z</time>
      </trkpt>
      <trkpt lat="43.24028" lon="2.36326">
        <ele>98.9</ele>
        <time>2019-07-14T07:09:39.000Z</time>
      </trkpt>
      <trkpt lat="43.2403" lon="2.36326">
        <ele>99.1</ele>
        <time>2019-07-14T07:09:40.000Z</time>
      </trkpt>
      <trkpt lat="43.24033" lon="2.36326">
        <ele>99.2</ele>
        <time>2019-07-14T07:09:41.000Z</time>
      </trkpt>
      <trkpt lat="43.24036" lon="2.36325">
        <ele>99.4</ele>
        <time>2019-07-14T07:09:42.000Z</time>
      </trkpt>
      <trkpt lat="43.24038" lon="2.36325">
        <ele>99.6</ele>
        <time>2019-07-14T07:09:43.000Z</time>
      </trkpt>
      <trkpt lat="43.24041" lon="2.36325">
        <ele>99.8</ele>
        <time>2019-07-14T07:09:44.000Z</time>
      </trkpt>
      <trkpt lat="43.24044" lon="2.36325">
        <ele>99.9</ele>
        <time>2019-07-14T07:09:45.000Z</time>
      </trkpt>
      <trkpt lat="43.24048" lon="2.36325">
        <ele>100.2</ele>
        <time>2019-07-14T07:09:46.000Z</time>
      </trkpt>
      <trkpt lat="43.24051" lon="2.36325">
        <ele>100.4</ele>
        <time>2019-07-14T07:09:47.000Z</time>
      </trkpt>
      <trkpt lat="43.24055" lon="2.36325">
        <ele>100.6</ele>
        <time>2019-07-14T07:09:48.000Z</time>
      </trkpt>
      <trkpt lat="43.24058" lon="2.36324">
        <ele>100.8</ele>
        <time>2019-07-14T07:09:49.000Z</time>
      </trkpt>
      <trkpt lat="43.24062" lon="2.36324">
        <ele>101</ele>
        <time>2019-07-14T07:09:50.000Z</time>
      </trkpt>
      <trkpt lat="43.24065" lon="2.36324">
        <ele>101.3</ele>
        <time>2019-07-14T07:09:51.000Z</time>
      </trkpt>
      <trkpt lat="43.24069" lon="2.36323">
        <ele>101.5</ele>
        <time>2019-07-14T07:09:52.000Z</time>
      </trkpt>
      <trkpt lat="43.24072" lon="2.36323">
        <ele>101.7</ele>
        <time>2019-07-14T07:09:53.000Z</time>
      </trkpt>
      <trkpt lat="43.24075" lon="2.36322">
        <ele>101.9</ele>
        <time>2019-07-14T07:09:54.000Z</time>
      </trkpt>
      <trkpt lat="43.24077" lon="2.36322">
        <ele>102</ele>
        <time>2019-07-14T07:09:55.000Z</time>
      </trkpt>
      <trkpt lat="43.24079" lon="2.36321">
        <ele>102.2</ele>
        <time>2019-07-14T07:09:56.000Z</time>
      </trkpt>
      <trkpt lat="43.24081" lon="2.36321">
        <ele>102.3</ele>
        <time>2019-07-14T07:09:57.000Z</time>
      </trkpt>
      <trkpt lat="43.24083" lon="2.3632">
        <ele>102.5</ele>
        <time>2019-07-14T07:09:58.000Z</time>
      </trkpt>
      <trkpt lat="43.24085" lon="2.3632">
        <ele>102.5</ele>
        <time>2019-07-14T07:09:59.000Z</time>
      </trkpt>
      <trkpt lat="43.24087" lon="2.3632">
        <ele>102.6</ele>
        <time>2019-07-14T07:10:00.000Z</time>
      </trkpt>
      <trkpt lat="43.24088" lon="2.3632">
        <ele>102.6</ele>
        <time>2019-07-14T07:10:01.000Z</time>
      </trkpt>
      <trkpt lat="43.2409" lon="2.3632">
        <ele>102.7</ele>
        <time>2019-07-14T07:10:02.000Z</time>
      </trkpt>
      <trkpt lat="43.24091" lon="2.3632">
        <ele>102.7</ele>
        <time>2019-07-14T07:10:03.000Z</time>
      </trkpt>
      <trkpt lat="43.24092" lon="2.3632">
        <ele>102.7</ele>
        <time>2019-07-14T07:10:04.000Z</time>
      </trkpt>
      <trkpt lat="43.24093" lon="2.3632">
        <ele>102.7</ele>
        <time>2019-07-14T07:10:05.000Z</time>
      </trkpt>
      <trkpt lat="43.24093" lon="2.3632">
        <ele>102.7</ele>
        <time>2019-07-14T07:10:06.000Z</time>
      </trkpt>
      <trkpt lat="43.24094" lon="2.3632">
        <ele>102.7</ele>
        <time>2019-07-14T07:10:07.000Z</time>
      </trkpt>
      <trkpt lat="43.24094" lon="2.3632">
        <ele>102.7</ele>
        <time>2019-07-14T07:10:08.000Z</time>
      </trkpt>
      <trkpt lat="43.24094" lon="2.36321">
        <ele>102.7</ele>
        <time>2019-07-14T07:10:09.000Z</time>
      </trkpt>
      <trkpt lat="43.24094" lon="2.36321">
        <ele>102.7</ele>
        <time>2019-07-14T07:10:10.000Z</time>
      </trkpt>
      <trkpt lat="43.24094" lon="2.36321">
        <ele>102.7</ele>
        <time>2019-07-14T07:10:11.000Z</time>
      </trkpt>
      <trkpt lat="43.24095" lon="2.36321">
        <ele>102.7</ele>
        <time>2019-07-14T07:10:12.000Z</time>
      </trkpt>
      <trkpt lat="43.24095" lon="2.36321">
        <ele>102.7</ele>
        <time>2019-07-14T07:10:13.000Z</time>
      </trkpt>
      <trkpt lat="43.24095" lon="2.36322">
        <ele>102.7</ele>
        <time>2019-07-14T07:10:14.000Z</time>
      </trkpt>
      <trkpt lat="43.24095" lon="2.36322">
        <ele>102.7</ele>
        <time>2019-07-14T07:10:15.000Z</time>
      </trkpt>
      <trkpt lat="43.24095" lon="2.36322">
        <ele>102.7</ele>
        <time>2019-07-14T07:10:16.000Z</time>
      </trkpt>
      <trkpt lat="43.24095" lon="2.36322">
        <ele>102.7</ele>
        <time>2019-07-14T07:10:17.000Z</time>
      </trkpt>
      <trkpt lat="43.24095" lon="2.36322">
        <ele>102.7</ele>
        <time>2019-07-14T07:10:18.000Z</time>
      </trkpt>
      <trkpt lat="43.24095" lon="2.36322">
        <ele>102.7</ele>
        <time>2019-07-14T07:10:19.000Z</time>
      </trkpt>
      <trkpt lat="43.24095" lon="2.36322">
        <ele>102.7</ele>
        <time>2019-07-14T07:10:20.000Z</time>
      </trkpt>
      <trkpt lat="43.24095" lon="2.36322">
        <ele>102.7</ele>
        <time>2019-07-14T07:10:21.000Z</time>
      </trkpt>
      <trkpt lat="43.24095" lon="2.36322">
        <ele>102.7</ele>
        <time>2019-07-14T07:10:22.000Z</time>
      </trkpt>
      <trkpt lat="43.24095" lon="2.36322">
        <ele>102.7</ele>
        <time>2019-07-14T07:10:23.000Z</time>
      </trkpt>
      <trkpt lat="43.24095" lon="2.36322">
        <ele>102.7</ele>
        <time>2019-07-14T07:10:24.000Z</time>
      </trkpt>
      <trkpt lat="43.24095" lon="2.36322">
        <ele>102.7</ele>
        <time>2019-07-14T07:10:25.000Z</time>
      </trkpt>
      <trkpt lat="43.24095" lon="2.36322">
        <ele>102.7</ele>
        <time>2019-07-14T07:10:26.000Z</time>
      </trkpt>
      <trkpt lat="43.24095" lon="2.36322">
        <ele>102.7</ele>
        <time>2019-07-14T07:10:27.000Z</time>
      </trkpt>
      <trkpt lat="43.24095" lon="2.36322">
        <ele>102.7</ele>
        <time>2019-07-14T07:10:28.000Z</time>
      </trkpt>
      <trkpt lat="43.24095" lon="2.36322">
        <ele>102.7</ele>
        <time>2019-07-14T07:10:29.000Z</time>
      </trkpt>
      <trkpt lat="43.24095" lon="2.36322">
        <ele>102.7</ele>
        <time>2019-07-14T07:10:30.000Z</time>
      </trkpt>
      <trkpt lat="43.24095" lon="2.36322">
        <ele>102.7</ele>
        <time>2019-07-14T07:10:31.000Z</time>
      </trkpt>
      <trkpt lat="43.24095" lon="2.36322">
        <ele>102.7</ele>
        <time>2019-07-14T07:10:32.000Z</time>
      </trkpt>
      <trkpt lat="43.24095" lon="2.36322">
        <ele>102.7</ele>
        <time>2019-07-14T07:10:33.000Z</time>
      </trkpt>
      <trkpt lat="43.24095" lon="2.36322">
        <ele>102.7</ele>
        <time>2019-07-14T07:10:34.000Z</time>
      </trkpt>
      <trkpt lat="43.24095" lon="2.36322">
        <ele>102.7</ele>
        <time>2019-07-14T07:10:35.000Z</time>
      </trkpt>
      <trkpt lat="43.24095" lon="2.36322">
        <ele>102.7</ele>
        <time>2019-07-14T07:10:36.000Z</time>
      </trkpt>
      <trkpt lat="43.24096" lon="2.36323">
        <ele>102.7</ele>
        <time>2019-07-14T07:10:37.000Z</time>
      </trkpt>
      <trkpt lat="43.24096" lon="2.36323">
        <ele>102.7</ele>
        <time>2019-07-14T07:10:38.000Z</time>
      </trkpt>
      <trkpt lat="43.24096" lon="2.36324">
        <ele>102.7</ele>
        <time>2019-07-14T07:10:39.000Z</time>
      </trkpt>
      <trkpt lat="43.24096" lon="2.36324">
        <ele>102.7</ele>
        <time>2019-07-14T07:10:40.000Z</time>
      </trkpt>
      <trkpt lat="43.24097" lon="2.36325">
        <ele>102.6</ele>
        <time>2019-07-14T07:10:41.000Z</time>
      </trkpt>
      <trkpt lat="43.24097" lon="2.36325">
        <ele>102.6</ele>
        <time>2019-07-14T07:10:42.000Z</time>
      </trkpt>
      <trkpt lat="43.24097" lon="2.36325">
        <ele>102.6</ele>
        <time>2019-07-14T07:10:43.000Z</time>
      </trkpt>
      <trkpt lat="43.24097" lon="2.36325">
        <ele>102.6</ele>
        <time>2019-07-14T07:10:44.000Z</time>
      </trkpt>
      <trkpt lat="43.24097" lon="2.36326">
        <ele>102.6</ele>
        <time>2019-07-14T07:10:45.000Z</time>
      </trkpt>
      <trkpt lat="43.24097" lon="2.36326">
        <ele>102.6</ele>
        <time>2019-07-14T07:10:46.000Z</time>
      </trkpt>
      <trkpt lat="43.24097" lon="2.36326">
        <ele>102.6</ele>
        <time>2019-07-14T07:10:47.000Z</time>
      </trkpt>
      <trkpt lat="43.24097" lon="2.36327">
        <ele>102.6</ele>
        <time>2019-07-14T07:10:48.000Z</time>
      </trkpt>
      <trkpt lat="43.24097" lon="2.36328">
        <ele>102.6</ele>
        <time>2019-07-14T07:10:49.000Z</time>
      </trkpt>
      <trkpt lat="43.24098" lon="2.36328">
        <ele>102.5</ele>
        <time>2019-07-14T07:10:50.000Z</time>
      </trkpt>
      <trkpt lat="43.24098" lon="2.36329">
        <ele>102.5</ele>
        <time>2019-07-14T07:10:51.000Z</time>
      </trkpt>
      <trkpt lat="43.24098" lon="2.3633">
        <ele>102.5</ele>
        <time>2019-07-14T07:10:52.000Z</time>
      </trkpt>
      <trkpt lat="43.24099" lon="2.36331">
        <ele>102.5</ele>
        <time>2019-07-14T07:10:53.000Z</time>
      </trkpt>
      <trkpt lat="43.241" lon="2.36332">
        <ele>102.4</ele>
        <time>2019-07-14T07:10:54.000Z</time>
      </trkpt>
      <trkpt lat="43.241" lon="2.36333">
        <ele>102.4</ele>
        <time>2019-07-14T07:10:55.000Z</time>
      </trkpt>
      <trkpt lat="43.24101" lon="2.36334">
        <ele>102.4</ele>
        <time>2019-07-14T07:10:56.000Z</time>
      </trkpt>
      <trkpt lat="43.24102" lon="2.36335">
        <ele>102.4</ele>
        <time>2019-07-14T07:10:57.000Z</time>
      </trkpt>
      <trkpt lat="43.24103" lon="2.36336">
        <ele>102.4</ele>
        <time>2019-07-14T07:10:58.000Z</time>
      </trkpt>
      <trkpt lat="43.24105" lon="2.36336">
        <ele>102.4</ele>
        <time>2019-07-14T07:10:59.000Z</time>
      </trkpt>
      <trkpt lat="43.24106" lon="2.36337">
        <ele>102.4</ele>
        <time>2019-07-14T07:11:00.000Z</time>
      </trkpt>
      <trkpt lat="43.24107" lon="2.36338">
        <ele>102.4</ele>
        <time>2019-07-14T07:11:01.000Z</time>
      </trkpt>
      <trkpt lat="43.24109" lon="2.36339">
        <ele>102.4</ele>
        <time>2019-07-14T07:11:02.000Z</time>
      </trkpt>
      <trkpt lat="43.24111" lon="2.36339">
        <ele>102.4</ele>
        <time>2019-07-14T07:11:03.000Z</time>
      </trkpt>
      <trkpt lat="43.24113" lon="2.3634">
        <ele>102.5</ele>
        <time>2019-07-14T07:11:04.000Z</time>
      </trkpt>
      <trkpt lat="43.24115" lon="2.36341">
        <ele>102.5</ele>
        <time>2019-07-14T07:11:05.000Z</time>
      </trkpt>
      <trkpt lat="43.24117" lon="2.36342">
        <ele>102.5</ele>
        <time>2019-07-14T07:11:06.000Z</time>
      </trkpt>
      <trkpt lat="43.24119" lon="2.36342">
        <ele>102.5</ele>
        <time>2019-07-14T07:11:07.000Z</time>
      </trkpt>
      <trkpt lat="43.2412" lon="2.36343">
        <ele>102.5</ele>
        <time>2019-07-14T07:11:08.000Z</time>
      </trkpt>
      <trkpt lat="43.24122" lon="2.36343">
        <ele>102.6</ele>
        <time>2019-07-14T07:11:09.000Z</time>
      </trkpt>
      <trkpt lat="43.24124" lon="2.36344">
        <ele>102.6</ele>
        <time>2019-07-14T07:11:10.000Z</time>
      </trkpt>
      <trkpt lat="43.24127" lon="2.36344">
        <ele>102.6</ele>
        <time>2019-07-14T07:11:11.000Z</time>
      </trkpt>
      <trkpt lat="43.24129" lon="2.36345">
        <ele>102.7</ele>
        <time>2019-07-14T07:11:12.000Z</time>
      </trkpt>
      <trkpt lat="43.24131" lon="2.36346">
        <ele>102.7</ele>
        <time>2019-07-14T07:11:13.000Z</time>
      </trkpt>
      <trkpt lat="43.24134" lon="2.36346">
        <ele>102.7</ele>
        <time>2019-07-14T07:11:14.000Z</time>
      </trkpt>
      <trkpt lat="43.24136" lon="2.36347">
        <ele>102.8</ele>
        <time>2019-07-14T07:11:15.000Z</time>
      </trkpt>
      <trkpt lat="43.24138" lon="2.36348">
        <ele>102.8</ele>
        <time>2019-07-14T07:11:16.000Z</time>
      </trkpt>
      <trkpt lat="43.24141" lon="2.36349">
        <ele>102.8</ele>
        <time>2019-07-14T07:11:17.000Z</time>
      </trkpt>
      <trkpt lat="43.24143" lon="2.3635">
        <ele>102.8</ele>
        <time>2019-07-14T07:11:18.000Z</time>
      </trkpt>
      <trkpt lat="43.24145" lon="2.36351">
        <ele>102.8</ele>
        <time>2019-07-14T07:11:19.000Z</time>
      </trkpt>
      <trkpt lat="43.24147" lon="2.36352">
        <ele>102.8</ele>
        <time>2019-07-14T07:11:20.000Z</time>
      </trkpt>
      <trkpt lat="43.24149" lon="2.36354">
        <ele>102.8</ele>
        <time>2019-07-14T07:11:21.000Z</time>
      </trkpt>
      <trkpt lat="43.24151" lon="2.36356">
        <ele>102.8</ele>
        <time>2019-07-14T07:11:22.000Z</time>
      </trkpt>
      <trkpt lat="43.24152" lon="2.36358">
        <ele>102.8</ele>
        <time>2019-07-14T07:11:23.000Z</time>
      </trkpt>
      <trkpt lat="43.24153" lon="2.3636">
        <ele>102.7</ele>
        <time>2019-07-14T07:11:24.000Z</time>
      </trkpt>
      <trkpt lat="43.24155" lon="2.36363">
        <ele>102.6</ele>
        <time>2019-07-14T07:11:25.000Z</time>
      </trkpt>
      <trkpt lat="43.24156" lon="2.36366">
        <ele>102.6</ele>
        <time>2019-07-14T07:11:26.000Z</time>
      </trkpt>
      <trkpt lat="43.24158" lon="2.36368">
        <ele>102.5</ele>
        <time>2019-07-14T07:11:27.000Z</time>
      </trkpt>
      <trkpt lat="43.24159" lon="2.3637">
        <ele>102.5</ele>
        <time>2019-07-14T07:11:28.000Z</time>
      </trkpt>
      <trkpt lat="43.24161" lon="2.36372">
        <ele>102.5</ele>
        <time>2019-07-14T07:11:29.000Z</time>
      </trkpt>
      <trkpt lat="43.24163" lon="2.36374">
        <ele>102.4</ele>
        <time>2019-07-14T07:11:30.000Z</time>
      </trkpt>
      <trkpt lat="43.24165" lon="2.36376">
        <ele>102.4</ele>
        <time>2019-07-14T07:11:31.000Z</time>
      </trkpt>
      <trkpt lat="43.24167" lon="2.36378">
        <ele>102.4</ele>
        <time>2019-07-14T07:11:32.000Z</time>
      </trkpt>
      <trkpt lat="43.24169" lon="2.36379">
        <ele>102.3</ele>
        <time>2019-07-14T07:11:33.000Z</time>
      </trkpt>
      <trkpt lat="43.24171" lon="2.36381">
        <ele>102.2</ele>
        <time>2019-07-14T07:11:34.000Z</time>
      </trkpt>
      <trkpt lat="43.24173" lon="2.36382">
        <ele>102.1</ele>
        <time>2019-07-14T07:11:35.000Z</time>
      </trkpt>
      <trkpt lat="43.24175" lon="2.36384">
        <ele>102</ele>
        <time>2019-07-14T07:11:36.000Z</time>
      </trkpt>
      <trkpt lat="43.24176" lon="2.36385">
        <ele>101.9</ele>
        <time>2019-07-14T07:11:37.000Z</time>
      </trkpt>
      <trkpt lat="43.24177" lon="2.36388">
        <ele>101.8</ele>
        <time>2019-07-14T07:11:38.000Z</time>
      </trkpt>
      <trkpt lat="43.24177" lon="2.3639">
        <ele>101.7</ele>
        <time>2019-07-14T07:11:39.000Z</time>
      </trkpt>
      <trkpt lat="43.24177" lon="2.36393">
        <ele>101.6</ele>
        <time>2019-07-14T07:11:40.000Z</time>
      </trkpt>
      <trkpt lat="43.24176" lon="2.36395">
        <ele>101.6</ele>
        <time>2019-07-14T07:11:41.000Z</time>
      </trkpt>
      <trkpt lat="43.24175" lon="2.36398">
        <ele>101.5</ele>
        <time>2019-07-14T07:11:42.000Z</time>
      </trkpt>
      <trkpt lat="43.24173" lon="2.364">
        <ele>101.5</ele>
        <time>2019-07-14T07:11:43.000Z</time>
      </trkpt>
      <trkpt lat="43.24171" lon="2.36402">
        <ele>101.4</ele>
        <time>2019-07-14T07:11:44.000Z</time>
      </trkpt>
      <trkpt lat="43.24169" lon="2.36404">
        <ele>101.4</ele>
        <time>2019-07-14T07:11:45.000Z</time>
      </trkpt>
      <trkpt lat="43.24167" lon="2.36407">
        <ele>101.3</ele>
        <time>2019-07-14T07:11:46.000Z</time>
      </trkpt>
      <trkpt lat="43.24166" lon="2.3641">
        <ele>101.2</ele>
        <time>2019-07-14T07:11:47.000Z</time>
      </trkpt>
      <trkpt lat="43.24165" lon="2.36413">
        <ele>101.1</ele>
        <time>2019-07-14T07:11:48.000Z</time>
      </trkpt>
      <trkpt lat="43.24164" lon="2.36416">
        <ele>100.9</ele>
        <time>2019-07-14T07:11:49.000Z</time>
      </trkpt>
      <trkpt lat="43.24163" lon="2.3642">
        <ele>100.9</ele>
        <time>2019-07-14T07:11:50.000Z</time>
      </trkpt>
      <trkpt lat="43.24162" lon="2.36423">
        <ele>101</ele>
        <time>2019-07-14T07:11:51.000Z</time>
      </trkpt>
      <trkpt lat="43.24162" lon="2.36426">
        <ele>101</ele>
        <time>2019-07-14T07:11:52.000Z</time>
      </trkpt>
      <trkpt lat="43.24161" lon="2.3643">
        <ele>101</ele>
        <time>2019-07-14T07:11:53.000Z</time>
      </trkpt>
      <trkpt lat="43.24161" lon="2.36433">
        <ele>101.1</ele>
        <time>2019-07-14T07:11:54.000Z</time>
      </trkpt>
      <trkpt lat="43.24161" lon="2.36437">
        <ele>101.1</ele>
        <time>2019-07-14T07:11:55.000Z</time>
      </trkpt>
      <trkpt lat="43.24161" lon="2.3644">
        <ele>101.1</ele>
        <time>2019-07-14T07:11:56.000Z</time>
      </trkpt>
      <trkpt lat="43.24161" lon="2.36444">
        <ele>101.2</ele>
        <time>2019-07-14T07:11:57.000Z</time>
      </trkpt>
      <trkpt lat="43.24161" lon="2.36447">
        <ele>101.2</ele>
        <time>2019-07-14T07:11:58.000Z</time>
      </trkpt>
      <trkpt lat="43.24161" lon="2.36451">
        <ele>101.2</ele>
        <time>2019-07-14T07:11:59.000Z</time>
      </trkpt>
      <trkpt lat="43.24161" lon="2.36454">
        <ele>101.3</ele>
        <time>2019-07-14T07:12:00.000Z</time>
      </trkpt>
      <trkpt lat="43.24161" lon="2.36458">
        <ele>101.3</ele>
        <time>2019-07-14T07:12:01.000Z</time>
      </trkpt>
      <trkpt lat="43.24161" lon="2.36461">
        <ele>101.4</ele>
        <time>2019-07-14T07:12:02.000Z</time>
      </trkpt>
      <trkpt lat="43.24161" lon="2.36465">
        <ele>101.4</ele>
        <time>2019-07-14T07:12:03.000Z</time>
      </trkpt>
      <trkpt lat="43.24161" lon="2.36468">
        <ele>101.4</ele>
        <time>2019-07-14T07:12:04.000Z</time>
      </trkpt>
      <trkpt lat="43.24161" lon="2.36472">
        <ele>101.5</ele>
        <time>2019-07-14T07:12:05.000Z</time>
      </trkpt>
      <trkpt lat="43.24161" lon="2.36476">
        <ele>101.5</ele>
        <time>2019-07-14T07:12:06.000Z</time>
      </trkpt>
      <trkpt lat="43.24161" lon="2.3648">
        <ele>101.6</ele>
        <time>2019-07-14T07:12:07.000Z</time>
      </trkpt>
      <trkpt lat="43.24161" lon="2.36483">
        <ele>101.6</ele>
        <time>2019-07-14T07:12:08.000Z</time>
      </trkpt>
      <trkpt lat="43.24162" lon="2.36487">
        <ele>101.7</ele>
        <time>2019-07-14T07:12:09.000Z</time>
      </trkpt>
      <trkpt lat="43.24162" lon="2.36491">
        <ele>101.7</ele>
        <time>2019-07-14T07:12:10.000Z</time>
      </trkpt>
      <trkpt lat="43.24162" lon="2.36495">
        <ele>101.8</ele>
        <time>2019-07-14T07:12:11.000Z</time>
      </trkpt>
      <trkpt lat="43.24162" lon="2.36498">
        <ele>101.8</ele>
        <time>2019-07-14T07:12:12.000Z</time>
      </trkpt>
      <trkpt lat="43.24161" lon="2.36502">
        <ele>101.8</ele>
        <time>2019-07-14T07:12:13.000Z</time>
      </trkpt>
      <trkpt lat="43.24161" lon="2.36506">
        <ele>101.7</ele>
        <time>2019-07-14T07:12:14.000Z</time>
      </trkpt>
      <trkpt lat="43.24161" lon="2.36509">
        <ele>101.7</ele>
        <time>2019-07-14T07:12:15.000Z</time>
      </trkpt>
      <trkpt lat="43.24161" lon="2.36513">
        <ele>101.6</ele>
        <time>2019-07-14T07:12:16.000Z</time>
      </trkpt>
      <trkpt lat="43.24161" lon="2.36516">
        <ele>101.6</ele>
        <time>2019-07-14T07:12:17.000Z</time>
      </trkpt>
      <trkpt lat="43.24161" lon="2.3652">
        <ele>101.5</ele>
        <time>2019-07-14T07:12:18.000Z</time>
      </trkpt>
      <trkpt lat="43.24161" lon="2.36523">
        <ele>101.5</ele>
        <time>2019-07-14T07:12:19.000Z</time>
      </trkpt>
      <trkpt lat="43.24161" lon="2.36527">
        <ele>101.5</ele>
        <time>2019-07-14T07:12:20.000Z</time>
      </trkpt>
      <trkpt lat="43.24162" lon="2.36531">
        <ele>101.4</ele>
        <time>2019-07-14T07:12:21.000Z</time>
      </trkpt>
      <trkpt lat="43.24163" lon="2.36535">
        <ele>101.4</ele>
        <time>2019-07-14T07:12:22.000Z</time>
      </trkpt>
      <trkpt lat="43.24165" lon="2.36539">
        <ele>101.5</ele>
        <time>2019-07-14T07:12:23.000Z</time>
      </trkpt>
      <trkpt lat="43.24166" lon="2.36543">
        <ele>101.5</ele>
        <time>2019-07-14T07:12:24.000Z</time>
      </trkpt>
      <trkpt lat="43.24167" lon="2.36547">
        <ele>101.4</ele>
        <time>2019-07-14T07:12:25.000Z</time>
      </trkpt>
      <trkpt lat="43.24168" lon="2.36551">
        <ele>101.4</ele>
        <time>2019-07-14T07:12:26.000Z</time>
      </trkpt>
      <trkpt lat="43.24169" lon="2.36555">
        <ele>101.3</ele>
        <time>2019-07-14T07:12:27.000Z</time>
      </trkpt>
      <trkpt lat="43.24169" lon="2.36559">
        <ele>101.3</ele>
        <time>2019-07-14T07:12:28.000Z</time>
      </trkpt>
      <trkpt lat="43.2417" lon="2.36563">
        <ele>101.2</ele>
        <time>2019-07-14T07:12:29.000Z</time>
      </trkpt>
      <trkpt lat="43.2417" lon="2.36567">
        <ele>101.2</ele>
        <time>2019-07-14T07:12:30.000Z</time>
      </trkpt>
      <trkpt lat="43.24171" lon="2.3657">
        <ele>101.1</ele>
        <time>2019-07-14T07:12:31.000Z</time>
      </trkpt>
      <trkpt lat="43.24172" lon="2.36574">
        <ele>101.1</ele>
        <time>2019-07-14T07:12:32.000Z</time>
      </trkpt>
      <trkpt lat="43.24173" lon="2.36577">
        <ele>101</ele>
        <time>2019-07-14T07:12:33.000Z</time>
      </trkpt>
      <trkpt lat="43.24174" lon="2.36581">
        <ele>100.9</ele>
        <time>2019-07-14T07:12:34.000Z</time>
      </trkpt>
      <trkpt lat="43.24175" lon="2.36584">
        <ele>100.9</ele>
        <time>2019-07-14T07:12:35.000Z</time>
      </trkpt>
      <trkpt lat="43.24176" lon="2.36588">
        <ele>100.8</ele>
        <time>2019-07-14T07:12:36.000Z</time>
      </trkpt>
      <trkpt lat="43.24177" lon="2.36592">
        <ele>100.7</ele>
        <time>2019-07-14T07:12:37.000Z</time>
      </trkpt>
      <trkpt lat="43.24178" lon="2.36595">
        <ele>100.6</ele>
        <time>2019-07-14T07:12:38.000Z</time>
      </trkpt>
      <trkpt lat="43.24179" lon="2.36599">
        <ele>100.5</ele>
        <time>2019-07-14T07:12:39.000Z</time>
      </trkpt>
      <trkpt lat="43.2418" lon="2.36603">
        <ele>100.4</ele>
        <time>2019-07-14T07:12:40.000Z</time>
      </trkpt>
      <trkpt lat="43.2418" lon="2.36607">
        <ele>100.3</ele>
        <time>2019-07-14T07:12:41.000Z</time>
      </trkpt>
      <trkpt lat="43.24181" lon="2.36611">
        <ele>100.2</ele>
        <time>2019-07-14T07:12:42.000Z</time>
      </trkpt>
      <trkpt lat="43.24182" lon="2.36615">
        <ele>100.1</ele>
        <time>2019-07-14T07:12:43.000Z</time>
      </trkpt>
      <trkpt lat="43.24182" lon="2.36619">
        <ele>100</ele>
        <time>2019-07-14T07:12:44.000Z</time>
      </trkpt>
      <trkpt lat="43.24183" lon="2.36623">
        <ele>99.8</ele>
        <time>2019-07-14T07:12:45.000Z</time>
      </trkpt>
      <trkpt lat="43.24183" lon="2.36628">
        <ele>99.7</ele>
        <time>2019-07-14T07:12:46.000Z</time>
      </trkpt>
      <trkpt lat="43.24184" lon="2.36632">
        <ele>99.6</ele>
        <time>2019-07-14T07:12:47.000Z</time>
      </trkpt>
      <trkpt lat="43.24184" lon="2.36636">
        <ele>99.5</ele>
        <time>2019-07-14T07:12:48.000Z</time>
      </trkpt>
      <trkpt lat="43.24184" lon="2.3664">
        <ele>99.4</ele>
        <time>2019-07-14T07:12:49.000Z</time>
      </trkpt>
      <trkpt lat="43.24185" lon="2.36644">
        <ele>99.3</ele>
        <time>2019-07-14T07:12:50.000Z</time>
      </trkpt>
      <trkpt lat="43.24185" lon="2.36648">
        <ele>99.2</ele>
        <time>2019-07-14T07:12:51.000Z</time>
      </trkpt>
      <trkpt lat="43.24186" lon="2.36652">
        <ele>99.1</ele>
        <time>2019-07-14T07:12:52.000Z</time>
      </trkpt>
      <trkpt lat="43.24186" lon="2.36656">
        <ele>99</ele>
        <time>2019-07-14T07:12:53.000Z</time>
      </trkpt>
      <trkpt lat="43.24187" lon="2.3666">
        <ele>98.9</ele>
        <time>2019-07-14T07:12:54.000Z</time>
      </trkpt>
      <trkpt lat="43.24188" lon="2.36664">
        <ele>98.8</ele>
        <time>2019-07-14T07:12:55.000Z</time>
      </trkpt>
      <trkpt lat="43.24189" lon="2.36668">
        <ele>98.7</ele>
        <time>2019-07-14T07:12:56.000Z</time>
      </trkpt>
      <trkpt lat="43.2419" lon="2.36672">
        <ele>98.6</ele>
        <time>2019-07-14T07:12:57.000Z</time>
      </trkpt>
      <trkpt lat="43.24191" lon="2.36676">
        <ele>98.6</ele>
        <time>2019-07-14T07:12:58.000Z</time>
      </trkpt>
      <trkpt lat="43.24192" lon="2.3668">
        <ele>98.5</ele>
        <time>2019-07-14T07:12:59.000Z</time>
      </trkpt>
      <trkpt lat="43.24193" lon="2.36684">
        <ele>98.4</ele>
        <time>2019-07-14T07:13:00.000Z</time>
      </trkpt>
      <trkpt lat="43.24193" lon="2.36687">
        <ele>98.4</ele>
        <time>2019-07-14T07:13:01.000Z</time>
      </trkpt>
      <trkpt lat="43.24194" lon="2.36691">
        <ele>98.3</ele>
        <time>2019-07-14T07:13:02.000Z</time>
      </trkpt>
      <trkpt lat="43.24195" lon="2.36694">
        <ele>98.2</ele>
        <time>2019-07-14T07:13:03.000Z</time>
      </trkpt>
      <trkpt lat="43.24196" lon="2.36698">
        <ele>98.1</ele>
        <time>2019-07-14T07:13:04.000Z</time>
      </trkpt>
      <trkpt lat="43.24197" lon="2.36701">
        <ele>98.1</ele>
        <time>2019-07-14T07:13:05.000Z</time>
      </trkpt>
      <trkpt lat="43.24198" lon="2.36705">
        <ele>98</ele>
        <time>2019-07-14T07:13:06.000Z</time>
      </trkpt>
      <trkpt lat="43.24198" lon="2.36708">
        <ele>97.9</ele>
        <time>2019-07-14T07:13:07.000Z</time>
      </trkpt>
      <trkpt lat="43.24199" lon="2.36712">
        <ele>97.9</ele>
        <time>2019-07-14T07:13:08.000Z</time>
      </trkpt>
      <trkpt lat="43.24199" lon="2.36716">
        <ele>97.8</ele>
        <time>2019-07-14T07:13:09.000Z</time>
      </trkpt>
      <trkpt lat="43.242" lon="2.36719">
        <ele>97.7</ele>
        <time>2019-07-14T07:13:10.000Z</time>
      </trkpt>
      <trkpt lat="43.242" lon="2.36723">
        <ele>97.7</ele>
        <time>2019-07-14T07:13:11.000Z</time>
      </trkpt>
      <trkpt lat="43.24201" lon="2.36726">
        <ele>97.6</ele>
        <time>2019-07-14T07:13:12.000Z</time>
      </trkpt>
      <trkpt lat="43.24201" lon="2.3673">
        <ele>97.5</ele>
        <time>2019-07-14T07:13:13.000Z</time>
      </trkpt>
      <trkpt lat="43.24202" lon="2.36734">
        <ele>97.4</ele>
        <time>2019-07-14T07:13:14.000Z</time>
      </trkpt>
      <trkpt lat="43.24202" lon="2.36737">
        <ele>97.4</ele>
        <time>2019-07-14T07:13:15.000Z</time>
      </trkpt>
      <trkpt lat="43.24202" lon="2.36741">
        <ele>97.3</ele>
        <time>2019-07-14T07:13:16.000Z</time>
      </trkpt>
      <trkpt lat="43.24203" lon="2.36745">
        <ele>97.2</ele>
        <time>2019-07-14T07:13:17.000Z</time>
      </trkpt>
      <trkpt lat="43.24203" lon="2.36748">
        <ele>97.2</ele>
        <time>2019-07-14T07:13:18.000Z</time>
      </trkpt>
      <trkpt lat="43.24203" lon="2.36752">
        <ele>97.1</ele>
        <time>2019-07-14T07:13:19.000Z</time>
      </trkpt>
      <trkpt lat="43.24204" lon="2.36755">
        <ele>97.1</ele>
        <time>2019-07-14T07:13:20.000Z</time>
      </trkpt>
      <trkpt lat="43.24204" lon="2.36759">
        <ele>97.2</ele>
        <time>2019-07-14T07:13:21.000Z</time>
      </trkpt>
      <trkpt lat="43.24205" lon="2.36762">
        <ele>97.2</ele>
        <time>2019-07-14T07:13:22.000Z</time>
      </trkpt>
      <trkpt lat="43.24205" lon="2.36766">
        <ele>97.2</ele>
        <time>2019-07-14T07:13:23.000Z</time>
      </trkpt>
      <trkpt lat="43.24206" lon="2.36769">
        <ele>97.2</ele>
        <time>2019-07-14T07:13:24.000Z</time>
      </trkpt>
      <trkpt lat="43.24206" lon="2.36773">
        <ele>97.2</ele>
        <time>2019-07-14T07:13:25.000Z</time>
      </trkpt>
      <trkpt lat="43.24207" lon="2.36776">
        <ele>97.2</ele>
        <time>2019-07-14T07:13:26.000Z</time>
      </trkpt>
      <trkpt lat="43.24207" lon="2.3678">
        <ele>97.2</ele>
        <time>2019-07-14T07:13:27.000Z</time>
      </trkpt>
      <trkpt lat="43.24208" lon="2.36783">
        <ele>97.2</ele>
        <time>2019-07-14T07:13:28.000Z</time>
      </trkpt>
      <trkpt lat="43.24208" lon="2.36787">
        <ele>97.2</ele>
        <time>2019-07-14T07:13:29.000Z</time>
      </trkpt>
      <trkpt lat="43.24208" lon="2.3679">
        <ele>97.2</ele>
        <time>2019-07-14T07:13:30.000Z</time>
      </trkpt>
      <trkpt lat="43.24209" lon="2.36794">
        <ele>97.2</ele>
        <time>2019-07-14T07:13:31.000Z</time>
      </trkpt>
      <trkpt lat="43.24209" lon="2.36797">
        <ele>97.3</ele>
        <time>2019-07-14T07:13:32.000Z</time>
      </trkpt>
      <trkpt lat="43.24209" lon="2.36801">
        <ele>97.3</ele>
        <time>2019-07-14T07:13:33.000Z</time>
      </trkpt>
      <trkpt lat="43.24209" lon="2.36804">
        <ele>97.3</ele>
        <time>2019-07-14T07:13:34.000Z</time>
      </trkpt>
      <trkpt lat="43.24209" lon="2.36808">
        <ele>97.3</ele>
        <time>2019-07-14T07:13:35.000Z</time>
      </trkpt>
      <trkpt lat="43.24209" lon="2.36811">
        <ele>97.3</ele>
        <time>2019-07-14T07:13:36.000Z</time>
      </trkpt>
      <trkpt lat="43.2421" lon="2.36815">
        <ele>97.4</ele>
        <time>2019-07-14T07:13:37.000Z</time>
      </trkpt>
      <trkpt lat="43.2421" lon="2.36819">
        <ele>97.4</ele>
        <time>2019-07-14T07:13:38.000Z</time>
      </trkpt>
      <trkpt lat="43.2421" lon="2.36822">
        <ele>97.4</ele>
        <time>2019-07-14T07:13:39.000Z</time>
      </trkpt>
      <trkpt lat="43.24211" lon="2.36826">
        <ele>97.4</ele>
        <time>2019-07-14T07:13:40.000Z</time>
      </trkpt>
      <trkpt lat="43.24211" lon="2.3683">
        <ele>97.4</ele>
        <time>2019-07-14T07:13:41.000Z</time>
      </trkpt>
      <trkpt lat="43.24212" lon="2.36833">
        <ele>97.4</ele>
        <time>2019-07-14T07:13:42.000Z</time>
      </trkpt>
      <trkpt lat="43.24212" lon="2.36837">
        <ele>97.4</ele>
        <time>2019-07-14T07:13:43.000Z</time>
      </trkpt>
      <trkpt lat="43.24213" lon="2.3684">
        <ele>97.4</ele>
        <time>2019-07-14T07:13:44.000Z</time>
      </trkpt>
      <trkpt lat="43.24214" lon="2.36844">
        <ele>97.4</ele>
        <time>2019-07-14T07:13:45.000Z</time>
      </trkpt>
      <trkpt lat="43.24214" lon="2.36848">
        <ele>97.4</ele>
        <time>2019-07-14T07:13:46.000Z</time>
      </trkpt>
      <trkpt lat="43.24215" lon="2.36851">
        <ele>97.4</ele>
        <time>2019-07-14T07:13:47.000Z</time>
      </trkpt>
      <trkpt lat="43.24216" lon="2.36854">
        <ele>97.4</ele>
        <time>2019-07-14T07:13:48.000Z</time>
      </trkpt>
      <trkpt lat="43.24217" lon="2.36858">
        <ele>97.4</ele>
        <time>2019-07-14T07:13:49.000Z</time>
      </trkpt>
      <trkpt lat="43.24217" lon="2.36861">
        <ele>97.4</ele>
        <time>2019-07-14T07:13:50.000Z</time>
      </trkpt>
      <trkpt lat="43.24218" lon="2.36865">
        <ele>97.5</ele>
        <time>2019-07-14T07:13:51.000Z</time>
      </trkpt>
      <trkpt lat="43.24219" lon="2.36868">
        <ele>97.5</ele>
        <time>2019-07-14T07:13:52.000Z</time>
      </trkpt>
      <trkpt lat="43.2422" lon="2.36871">
        <ele>97.5</ele>
        <time>2019-07-14T07:13:53.000Z</time>
      </trkpt>
      <trkpt lat="43.24221" lon="2.36875">
        <ele>97.5</ele>
        <time>2019-07-14T07:13:54.000Z</time>
      </trkpt>
      <trkpt lat="43.24222" lon="2.36878">
        <ele>97.5</ele>
        <time>2019-07-14T07:13:55.000Z</time>
      </trkpt>
      <trkpt lat="43.24223" lon="2.36881">
        <ele>97.6</ele>
        <time>2019-07-14T07:13:56.000Z</time>
      </trkpt>
      <trkpt lat="43.24224" lon="2.36884">
        <ele>97.6</ele>
        <time>2019-07-14T07:13:57.000Z</time>
      </trkpt>
      <trkpt lat="43.24226" lon="2.36888">
        <ele>97.6</ele>
        <time>2019-07-14T07:13:58.000Z</time>
      </trkpt>
      <trkpt lat="43.24227" lon="2.36891">
        <ele>97.6</ele>
        <time>2019-07-14T07:13:59.000Z</time>
      </trkpt>
      <trkpt lat="43.24228" lon="2.36895">
        <ele>97.7</ele>
        <time>2019-07-14T07:14:00.000Z</time>
      </trkpt>
      <trkpt lat="43.24229" lon="2.36898">
        <ele>97.7</ele>
        <time>2019-07-14T07:14:01.000Z</time>
      </trkpt>
      <trkpt lat="43.2423" lon="2.36902">
        <ele>97.8</ele>
        <time>2019-07-14T07:14:02.000Z</time>
      </trkpt>
      <trkpt lat="43.24232" lon="2.36905">
        <ele>97.8</ele>
        <time>2019-07-14T07:14:03.000Z</time>
      </trkpt>
      <trkpt lat="43.24233" lon="2.36909">
        <ele>97.9</ele>
        <time>2019-07-14T07:14:04.000Z</time>
      </trkpt>
      <trkpt lat="43.24234" lon="2.36913">
        <ele>97.9</ele>
        <time>2019-07-14T07:14:05.000Z</time>
      </trkpt>
      <trkpt lat="43.24235" lon="2.36916">
        <ele>98</ele>
        <time>2019-07-14T07:14:06.000Z</time>
      </trkpt>
      <trkpt lat="43.24236" lon="2.3692">
        <ele>98</ele>
        <time>2019-07-14T07:14:07.000Z</time>
      </trkpt>
      <trkpt lat="43.24237" lon="2.36924">
        <ele>97.9</ele>
        <time>2019-07-14T07:14:08.000Z</time>
      </trkpt>
      <trkpt lat="43.24238" lon="2.36928">
        <ele>97.9</ele>
        <time>2019-07-14T07:14:09.000Z</time>
      </trkpt>
      <trkpt lat="43.24238" lon="2.36931">
        <ele>97.8</ele>
        <time>2019-07-14T07:14:10.000Z</time>
      </trkpt>
      <trkpt lat="43.24239" lon="2.36935">
        <ele>97.8</ele>
        <time>2019-07-14T07:14:11.000Z</time>
      </trkpt>
      <trkpt lat="43.2424" lon="2.36938">
        <ele>97.7</ele>
        <time>2019-07-14T07:14:12.000Z</time>
      </trkpt>
      <trkpt lat="43.24241" lon="2.36942">
        <ele>97.7</ele>
        <time>2019-07-14T07:14:13.000Z</time>
      </trkpt>
      <trkpt lat="43.24242" lon="2.36945">
        <ele>97.7</ele>
        <time>2019-07-14T07:14:14.000Z</time>
      </trkpt>
      <trkpt lat="43.24243" lon="2.36949">
        <ele>97.6</ele>
        <time>2019-07-14T07:14:15.000Z</time>
      </trkpt>
      <trkpt lat="43.24244" lon="2.36952">
        <ele>97.6</ele>
        <time>2019-07-14T07:14:16.000Z</time>
      </trkpt>
      <trkpt lat="43.24245" lon="2.36956">
        <ele>97.5</ele>
        <time>2019-07-14T07:14:17.000Z</time>
      </trkpt>
      <trkpt lat="43.24247" lon="2.36959">
        <ele>97.5</ele>
        <time>2019-07-14T07:14:18.000Z</time>
      </trkpt>
      <trkpt lat="43.24248" lon="2.36963">
        <ele>97.4</ele>
        <time>2019-07-14T07:14:19.000Z</time>
      </trkpt>
      <trkpt lat="43.2425" lon="2.36966">
        <ele>97.4</ele>
        <time>2019-07-14T07:14:20.000Z</time>
      </trkpt>
      <trkpt lat="43.24251" lon="2.36969">
        <ele>97.4</ele>
        <time>2019-07-14T07:14:21.000Z</time>
      </trkpt>
      <trkpt lat="43.24253" lon="2.36973">
        <ele>97.5</ele>
        <time>2019-07-14T07:14:22.000Z</time>
      </trkpt>
      <trkpt lat="43.24254" lon="2.36976">
        <ele>97.5</ele>
        <time>2019-07-14T07:14:23.000Z</time>
      </trkpt>
      <trkpt lat="43.24255" lon="2.36979">
        <ele>97.6</ele>
        <time>2019-07-14T07:14:24.000Z</time>
      </trkpt>
      <trkpt lat="43.24257" lon="2.36982">
        <ele>97.7</ele>
        <time>2019-07-14T07:14:25.000Z</time>
      </trkpt>
      <trkpt lat="43.24258" lon="2.36985">
        <ele>97.7</ele>
        <time>2019-07-14T07:14:26.000Z</time>
      </trkpt>
      <trkpt lat="43.24259" lon="2.36988">
        <ele>97.8</ele>
        <time>2019-07-14T07:14:27.000Z</time>
      </trkpt>
      <trkpt lat="43.2426" lon="2.36991">
        <ele>97.8</ele>
        <time>2019-07-14T07:14:28.000Z</time>
      </trkpt>
      <trkpt lat="43.24261" lon="2.36994">
        <ele>97.9</ele>
        <time>2019-07-14T07:14:29.000Z</time>
      </trkpt>
      <trkpt lat="43.24262" lon="2.36996">
        <ele>97.9</ele>
        <time>2019-07-14T07:14:30.000Z</time>
      </trkpt>
      <trkpt lat="43.24263" lon="2.36999">
        <ele>98</ele>
        <time>2019-07-14T07:14:31.000Z</time>
      </trkpt>
      <trkpt lat="43.24264" lon="2.37001">
        <ele>98.1</ele>
        <time>2019-07-14T07:14:32.000Z</time>
      </trkpt>
      <trkpt lat="43.24266" lon="2.37004">
        <ele>98.2</ele>
        <time>2019-07-14T07:14:33.000Z</time>
      </trkpt>
      <trkpt lat="43.24267" lon="2.37006">
        <ele>98.3</ele>
        <time>2019-07-14T07:14:34.000Z</time>
      </trkpt>
      <trkpt lat="43.24268" lon="2.37009">
        <ele>98.5</ele>
        <time>2019-07-14T07:14:35.000Z</time>
      </trkpt>
      <trkpt lat="43.2427" lon="2.37011">
        <ele>98.6</ele>
        <time>2019-07-14T07:14:36.000Z</time>
      </trkpt>
      <trkpt lat="43.24271" lon="2.37013">
        <ele>98.8</ele>
        <time>2019-07-14T07:14:37.000Z</time>
      </trkpt>
      <trkpt lat="43.24272" lon="2.37015">
        <ele>98.9</ele>
        <time>2019-07-14T07:14:38.000Z</time>
      </trkpt>
      <trkpt lat="43.24273" lon="2.37017">
        <ele>99</ele>
        <time>2019-07-14T07:14:39.000Z</time>
      </trkpt>
      <trkpt lat="43.24274" lon="2.37018">
        <ele>99</ele>
        <time>2019-07-14T07:14:40.000Z</time>
      </trkpt>
      <trkpt lat="43.24274" lon="2.3702">
        <ele>99.1</ele>
        <time>2019-07-14T07:14:41.000Z</time>
      </trkpt>
      <trkpt lat="43.24275" lon="2.37021">
        <ele>99.1</ele>
        <time>2019-07-14T07:14:42.000Z</time>
      </trkpt>
      <trkpt lat="43.24275" lon="2.37022">
        <ele>99.2</ele>
        <time>2019-07-14T07:14:43.000Z</time>
      </trkpt>
      <trkpt lat="43.24275" lon="2.37023">
        <ele>99.2</ele>
        <time>2019-07-14T07:14:44.000Z</time>
      </trkpt>
      <trkpt lat="43.24275" lon="2.37024">
        <ele>99.2</ele>
        <time>2019-07-14T07:14:45.000Z</time>
      </trkpt>
      <trkpt lat="43.24276" lon="2.37024">
        <ele>99.2</ele>
        <time>2019-07-14T07:14:46.000Z</time>
      </trkpt>
      <trkpt lat="43.24276" lon="2.37025">
        <ele>99.3</ele>
        <time>2019-07-14T07:14:47.000Z</time>
      </trkpt>
      <trkpt lat="43.24276" lon="2.37026">
        <ele>99.3</ele>
        <time>2019-07-14T07:14:48.000Z</time>
      </trkpt>
      <trkpt lat="43.24276" lon="2.37026">
        <ele>99.3</ele>
        <time>2019-07-14T07:14:49.000Z</time>
      </trkpt>
      <trkpt lat="43.24276" lon="2.37026">
        <ele>99.3</ele>
        <time>2019-07-14T07:14:50.000Z</time>
      </trkpt>
      <trkpt lat="43.24276" lon="2.37026">
        <ele>99.3</ele>
        <time>2019-07-14T07:14:51.000Z</time>
      </trkpt>
      <trkpt lat="43.24276" lon="2.37027">
        <ele>99.3</ele>
        <time>2019-07-14T07:14:52.000Z</time>
      </trkpt>
      <trkpt lat="43.24276" lon="2.37027">
        <ele>99.3</ele>
        <time>2019-07-14T07:14:53.000Z</time>
      </trkpt>
      <trkpt lat="43.24276" lon="2.37026">
        <ele>99.3</ele>
        <time>2019-07-14T07:14:54.000Z</time>
      </trkpt>
      <trkpt lat="43.24276" lon="2.37026">
        <ele>99.3</ele>
        <time>2019-07-14T07:14:55.000Z</time>
      </trkpt>
      <trkpt lat="43.24276" lon="2.37026">
        <ele>99.3</ele>
        <time>2019-07-14T07:14:56.000Z</time>
      </trkpt>
      <trkpt lat="43.24276" lon="2.37026">
        <ele>99.3</ele>
        <time>2019-07-14T07:14:57.000Z</time>
      </trkpt>
      <trkpt lat="43.24276" lon="2.37026">
        <ele>99.3</ele>
        <time>2019-07-14T07:14:58.000Z</time>
      </trkpt>
      <trkpt lat="43.24276" lon="2.37026">
        <ele>99.3</ele>
        <time>2019-07-14T07:14:59.000Z</time>
      </trkpt>
      <trkpt lat="43.24276" lon="2.37026">
        <ele>99.3</ele>
        <time>2019-07-14T07:15:00.000Z</time>
      </trkpt>
      <trkpt lat="43.24276" lon="2.37026">
        <ele>99.3</ele>
        <time>2019-07-14T07:15:01.000Z</time>
      </trkpt>
      <trkpt lat="43.24276" lon="2.37026">
        <ele>99.3</ele>
        <time>2019-07-14T07:15:02.000Z</time>
      </trkpt>
      <trkpt lat="43.24276" lon="2.37026">
        <ele>99.3</ele>
        <time>2019-07-14T07:15:03.000Z</time>
      </trkpt>
      <trkpt lat="43.24276" lon="2.37026">
        <ele>99.3</ele>
        <time>2019-07-14T07:15:04.000Z</time>
      </trkpt>
      <trkpt lat="43.24276" lon="2.37026">
        <ele>99.3</ele>
        <time>2019-07-14T07:15:05.000Z</time>
      </trkpt>
      <trkpt lat="43.24276" lon="2.37026">
        <ele>99.3</ele>
        <time>2019-07-14T07:15:06.000Z</time>
      </trkpt>
      <trkpt lat="43.24276" lon="2.37027">
        <ele>99.3</ele>
        <time>2019-07-14T07:15:07.000Z</time>
      </trkpt>
      <trkpt lat="43.24276" lon="2.37027">
        <ele>99.3</ele>
        <time>2019-07-14T07:15:08.000Z</time>
      </trkpt>
      <trkpt lat="43.24275" lon="2.37028">
        <ele>99.3</ele>
        <time>2019-07-14T07:15:09.000Z</time>
      </trkpt>
      <trkpt lat="43.24275" lon="2.37028">
        <ele>99.3</ele>
        <time>2019-07-14T07:15:10.000Z</time>
      </trkpt>
      <trkpt lat="43.24275" lon="2.37029">
        <ele>99.3</ele>
        <time>2019-07-14T07:15:11.000Z</time>
      </trkpt>
      <trkpt lat="43.24274" lon="2.3703">
        <ele>99.3</ele>
        <time>2019-07-14T07:15:12.000Z</time>
      </trkpt>
      <trkpt lat="43.24274" lon="2.37031">
        <ele>99.2</ele>
        <time>2019-07-14T07:15:13.000Z</time>
      </trkpt>
      <trkpt lat="43.24273" lon="2.37032">
        <ele>99.2</ele>
        <time>2019-07-14T07:15:14.000Z</time>
      </trkpt>
      <trkpt lat="43.24273" lon="2.37033">
        <ele>99.2</ele>
        <time>2019-07-14T07:15:15.000Z</time>
      </trkpt>
      <trkpt lat="43.24272" lon="2.37034">
        <ele>99.2</ele>
        <time>2019-07-14T07:15:16.000Z</time>
      </trkpt>
      <trkpt lat="43.24271" lon="2.37036">
        <ele>99.2</ele>
        <time>2019-07-14T07:15:17.000Z</time>
      </trkpt>
      <trkpt lat="43.24271" lon="2.37037">
        <ele>99.2</ele>
        <time>2019-07-14T07:15:18.000Z</time>
      </trkpt>
      <trkpt lat="43.2427" lon="2.37038">
        <ele>99.1</ele>
        <time>2019-07-14T07:15:19.000Z</time>
      </trkpt>
      <trkpt lat="43.2427" lon="2.3704">
        <ele>99.1</ele>
        <time>2019-07-14T07:15:20.000Z</time>
      </trkpt>
      <trkpt lat="43.24269" lon="2.37041">
        <ele>99.1</ele>
        <time>2019-07-14T07:15:21.000Z</time>
      </trkpt>
      <trkpt lat="43.24269" lon="2.37043">
        <ele>99.2</ele>
        <time>2019-07-14T07:15:22.000Z</time>
      </trkpt>
      <trkpt lat="43.24269" lon="2.37044">
        <ele>99.2</ele>
        <time>2019-07-14T07:15:23.000Z</time>
      </trkpt>
      <trkpt lat="43.24268" lon="2.37046">
        <ele>99.2</ele>
        <time>2019-07-14T07:15:24.000Z</time>
      </trkpt>
      <trkpt lat="43.24268" lon="2.37047">
        <ele>99.2</ele>
        <time>2019-07-14T07:15:25.000Z</time>
      </trkpt>
      <trkpt lat="43.24268" lon="2.37049">
        <ele>99.2</ele>
        <time>2019-07-14T07:15:26.000Z</time>
      </trkpt>
      <trkpt lat="43.24268" lon="2.37051">
        <ele>99.2</ele>
        <time>2019-07-14T07:15:27.000Z</time>
      </trkpt>
      <trkpt lat="43.24267" lon="2.37053">
        <ele>99.2</ele>
        <time>2019-07-14T07:15:28.000Z</time>
      </trkpt>
      <trkpt lat="43.24267" lon="2.37055">
        <ele>99.3</ele>
        <time>2019-07-14T07:15:29.000Z</time>
      </trkpt>
      <trkpt lat="43.24267" lon="2.37057">
        <ele>99.3</ele>
        <time>2019-07-14T07:15:30.000Z</time>
      </trkpt>
      <trkpt lat="43.24266" lon="2.3706">
        <ele>99.3</ele>
        <time>2019-07-14T07:15:31.000Z</time>
      </trkpt>
      <trkpt lat="43.24266" lon="2.37062">
        <ele>99.3</ele>
        <time>2019-07-14T07:15:32.000Z</time>
      </trkpt>
      <trkpt lat="43.24265" lon="2.37065">
        <ele>99.3</ele>
        <time>2019-07-14T07:15:33.000Z</time>
      </trkpt>
      <trkpt lat="43.24264" lon="2.37067">
        <ele>99.4</ele>
        <time>2019-07-14T07:15:34.000Z</time>
      </trkpt>
      <trkpt lat="43.24264" lon="2.3707">
        <ele>99.4</ele>
        <time>2019-07-14T07:15:35.000Z</time>
      </trkpt>
      <trkpt lat="43.24263" lon="2.37073">
        <ele>99.4</ele>
        <time>2019-07-14T07:15:36.000Z</time>
      </trkpt>
      <trkpt lat="43.24263" lon="2.37075">
        <ele>99.4</ele>
        <time>2019-07-14T07:15:37.000Z</time>
      </trkpt>
      <trkpt lat="43.24262" lon="2.37078">
        <ele>99.5</ele>
        <time>2019-07-14T07:15:38.000Z</time>
      </trkpt>
      <trkpt lat="43.24261" lon="2.37081">
        <ele>99.5</ele>
        <time>2019-07-14T07:15:39.000Z</time>
      </trkpt>
      <trkpt lat="43.24261" lon="2.37083">
        <ele>99.5</ele>
        <time>2019-07-14T07:15:40.000Z</time>
      </trkpt>
      <trkpt lat="43.2426" lon="2.37086">
        <ele>99.6</ele>
        <time>2019-07-14T07:15:41.000Z</time>
      </trkpt>
      <trkpt lat="43.2426" lon="2.37089">
        <ele>99.6</ele>
        <time>2019-07-14T07:15:42.000Z</time>
      </trkpt>
      <trkpt lat="43.24259" lon="2.37092">
        <ele>99.6</ele>
        <time>2019-07-14T07:15:43.000Z</time>
      </trkpt>
      <trkpt lat="43.24259" lon="2.37095">
        <ele>99.7</ele>
        <time>2019-07-14T07:15:44.000Z</time>
      </trkpt>
      <trkpt lat="43.24258" lon="2.37098">
        <ele>99.7</ele>
        <time>2019-07-14T07:15:45.000Z</time>
      </trkpt>
      <trkpt lat="43.24258" lon="2.37101">
        <ele>99.8</ele>
        <time>2019-07-14T07:15:46.000Z</time>
      </trkpt>
      <trkpt lat="43.24257" lon="2.37105">
        <ele>99.9</ele>
        <time>2019-07-14T07:15:47.000Z</time>
      </trkpt>
      <trkpt lat="43.24257" lon="2.37108">
        <ele>99.9</ele>
        <time>2019-07-14T07:15:48.000Z</time>
      </trkpt>
      <trkpt lat="43.24257" lon="2.37111">
        <ele>100</ele>
        <time>2019-07-14T07:15:49.000Z</time>
      </trkpt>
      <trkpt lat="43.24256" lon="2.37114">
        <ele>100</ele>
        <time>2019-07-14T07:15:50.000Z</time>
      </trkpt>
      <trkpt lat="43.24256" lon="2.37118">
        <ele>100.1</ele>
        <time>2019-07-14T07:15:51.000Z</time>
      </trkpt>
      <trkpt lat="43.24255" lon="2.37121">
        <ele>100.2</ele>
        <time>2019-07-14T07:15:52.000Z</time>
      </trkpt>
      <trkpt lat="43.24255" lon="2.37124">
        <ele>100.2</ele>
        <time>2019-07-14T07:15:53.000Z</time>
      </trkpt>
      <trkpt lat="43.24254" lon="2.37128">
        <ele>100.3</ele>
        <time>2019-07-14T07:15:54.000Z</time>
      </trkpt>
      <trkpt lat="43.24254" lon="2.37131">
        <ele>100.3</ele>
        <time>2019-07-14T07:15:55.000Z</time>
      </trkpt>
      <trkpt lat="43.24253" lon="2.37134">
        <ele>100.4</ele>
        <time>2019-07-14T07:15:56.000Z</time>
      </trkpt>
      <trkpt lat="43.24253" lon="2.37137">
        <ele>100.4</ele>
        <time>2019-07-14T07:15:57.000Z</time>
      </trkpt>
      <trkpt lat="43.24252" lon="2.37141">
        <ele>100.5</ele>
        <time>2019-07-14T07:15:58.000Z</time>
      </trkpt>
      <trkpt lat="43.24252" lon="2.37144">
        <ele>100.5</ele>
        <time>2019-07-14T07:15:59.000Z</time>
      </trkpt>
      <trkpt lat="43.24251" lon="2.37147">
        <ele>100.6</ele>
        <time>2019-07-14T07:16:00.000Z</time>
      </trkpt>
      <trkpt lat="43.2425" lon="2.37151">
        <ele>100.6</ele>
        <time>2019-07-14T07:16:01.000Z</time>
      </trkpt>
      <trkpt lat="43.24249" lon="2.37154">
        <ele>100.6</ele>
        <time>2019-07-14T07:16:02.000Z</time>
      </trkpt>
      <trkpt lat="43.24248" lon="2.37157">
        <ele>100.7</ele>
        <time>2019-07-14T07:16:03.000Z</time>
      </trkpt>
      <trkpt lat="43.24247" lon="2.3716">
        <ele>100.7</ele>
        <time>2019-07-14T07:16:04.000Z</time>
      </trkpt>
      <trkpt lat="43.24246" lon="2.37164">
        <ele>100.7</ele>
        <time>2019-07-14T07:16:05.000Z</time>
      </trkpt>
      <trkpt lat="43.24245" lon="2.37166">
        <ele>100.7</ele>
        <time>2019-07-14T07:16:06.000Z</time>
      </trkpt>
      <trkpt lat="43.24244" lon="2.37169">
        <ele>100.7</ele>
        <time>2019-07-14T07:16:07.000Z</time>
      </trkpt>
      <trkpt lat="43.24243" lon="2.37172">
        <ele>100.8</ele>
        <time>2019-07-14T07:16:08.000Z</time>
      </trkpt>
      <trkpt lat="43.24242" lon="2.37174">
        <ele>100.8</ele>
        <time>2019-07-14T07:16:09.000Z</time>
      </trkpt>
      <trkpt lat="43.24241" lon="2.37177">
        <ele>100.8</ele>
        <time>2019-07-14T07:16:10.000Z</time>
      </trkpt>
      <trkpt lat="43.2424" lon="2.37179">
        <ele>100.8</ele>
        <time>2019-07-14T07:16:11.000Z</time>
      </trkpt>
      <trkpt lat="43.24239" lon="2.37181">
        <ele>100.8</ele>
        <time>2019-07-14T07:16:12.000Z</time>
      </trkpt>
      <trkpt lat="43.24238" lon="2.37184">
        <ele>100.8</ele>
        <time>2019-07-14T07:16:13.000Z</time>
      </trkpt>
      <trkpt lat="43.24237" lon="2.37186">
        <ele>100.9</ele>
        <time>2019-07-14T07:16:14.000Z</time>
      </trkpt>
      <trkpt lat="43.24236" lon="2.37189">
        <ele>100.9</ele>
        <time>2019-07-14T07:16:15.000Z</time>
      </trkpt>
      <trkpt lat="43.24235" lon="2.37191">
        <ele>100.9</ele>
        <time>2019-07-14T07:16:16.000Z</time>
      </trkpt>
      <trkpt lat="43.24233" lon="2.37194">
        <ele>100.9</ele>
        <time>2019-07-14T07:16:17.000Z</time>
      </trkpt>
      <trkpt lat="43.24232" lon="2.37196">
        <ele>100.9</ele>
        <time>2019-07-14T07:16:18.000Z</time>
      </trkpt>
      <trkpt lat="43.24231" lon="2.37199">
        <ele>100.9</ele>
        <time>2019-07-14T07:16:19.000Z</time>
      </trkpt>
      <trkpt lat="43.2423" lon="2.37202">
        <ele>101</ele>
        <time>2019-07-14T07:16:20.000Z</time>
      </trkpt>
      <trkpt lat="43.24229" lon="2.37205">
        <ele>101</ele>
        <time>2019-07-14T07:16:21.000Z</time>
      </trkpt>
      <trkpt lat="43.24228" lon="2.37208">
        <ele>101</ele>
        <time>2019-07-14T07:16:22.000Z</time>
      </trkpt>
      <trkpt lat="43.24226" lon="2.37211">
        <ele>101</ele>
        <time>2019-07-14T07:16:23.000Z</time>
      </trkpt>
      <trkpt lat="43.24225" lon="2.37214">
        <ele>101</ele>
        <time>2019-07-14T07:16:24.000Z</time>
      </trkpt>
      <trkpt lat="43.24224" lon="2.37217">
        <ele>101</ele>
        <time>2019-07-14T07:16:25.000Z</time>
      </trkpt>
      <trkpt lat="43.24223" lon="2.3722">
        <ele>101.1</ele>
        <time>2019-07-14T07:16:26.000Z</time>
      </trkpt>
      <trkpt lat="43.24222" lon="2.37223">
        <ele>101.1</ele>
        <time>2019-07-14T07:16:27.000Z</time>
      </trkpt>
      <trkpt lat="43.24221" lon="2.37226">
        <ele>101.1</ele>
        <time>2019-07-14T07:16:28.000Z</time>
      </trkpt>
      <trkpt lat="43.24219" lon="2.37229">
        <ele>101.1</ele>
        <time>2019-07-14T07:16:29.000Z</time>
      </trkpt>
      <trkpt lat="43.24218" lon="2.37232">
        <ele>101.2</ele>
        <time>2019-07-14T07:16:30.000Z</time>
      </trkpt>
      <trkpt lat="43.24217" lon="2.37236">
        <ele>101.2</ele>
        <time>2019-07-14T07:16:31.000Z</time>
      </trkpt>
      <trkpt lat="43.24217" lon="2.37239">
        <ele>101.2</ele>
        <time>2019-07-14T07:16:32.000Z</time>
      </trkpt>
      <trkpt lat="43.24216" lon="2.37242">
        <ele>101.3</ele>
        <time>2019-07-14T07:16:33.000Z</time>
      </trkpt>
      <trkpt lat="43.24215" lon="2.37246">
        <ele>101.3</ele>
        <time>2019-07-14T07:16:34.000Z</time>
      </trkpt>
      <trkpt lat="43.24214" lon="2.37249">
        <ele>101.4</ele>
        <time>2019-07-14T07:16:35.000Z</time>
      </trkpt>
      <trkpt lat="43.24213" lon="2.37253">
        <ele>101.3</ele>
        <time>2019-07-14T07:16:36.000Z</time>
      </trkpt>
      <trkpt lat="43.24212" lon="2.37256">
        <ele>101.2</ele>
        <time>2019-07-14T07:16:37.000Z</time>
      </trkpt>
      <trkpt lat="43.24212" lon="2.3726">
        <ele>101.1</ele>
        <time>2019-07-14T07:16:38.000Z</time>
      </trkpt>
      <trkpt lat="43.24211" lon="2.37263">
        <ele>101</ele>
        <time>2019-07-14T07:16:39.000Z</time>
      </trkpt>
      <trkpt lat="43.2421" lon="2.37267">
        <ele>100.9</ele>
        <time>2019-07-14T07:16:40.000Z</time>
      </trkpt>
      <trkpt lat="43.2421" lon="2.3727">
        <ele>100.9</ele>
        <time>2019-07-14T07:16:41.000Z</time>
      </trkpt>
      <trkpt lat="43.24209" lon="2.37274">
        <ele>100.8</ele>
        <time>2019-07-14T07:16:42.000Z</time>
      </trkpt>
      <trkpt lat="43.24209" lon="2.37277">
        <ele>100.7</ele>
        <time>2019-07-14T07:16:43.000Z</time>
      </trkpt>
      <trkpt lat="43.24208" lon="2.37281">
        <ele>100.6</ele>
        <time>2019-07-14T07:16:44.000Z</time>
      </trkpt>
      <trkpt lat="43.24208" lon="2.37285">
        <ele>100.6</ele>
        <time>2019-07-14T07:16:45.000Z</time>
      </trkpt>
      <trkpt lat="43.24208" lon="2.37288">
        <ele>100.5</ele>
        <time>2019-07-14T07:16:46.000Z</time>
      </trkpt>
      <trkpt lat="43.24207" lon="2.37292">
        <ele>100.4</ele>
        <time>2019-07-14T07:16:47.000Z</time>
      </trkpt>
      <trkpt lat="43.24207" lon="2.37296">
        <ele>100.4</ele>
        <time>2019-07-14T07:16:48.000Z</time>
      </trkpt>
      <trkpt lat="43.24207" lon="2.37299">
        <ele>100.3</ele>
        <time>2019-07-14T07:16:49.000Z</time>
      </trkpt>
      <trkpt lat="43.24206" lon="2.37303">
        <ele>100.2</ele>
        <time>2019-07-14T07:16:50.000Z</time>
      </trkpt>
      <trkpt lat="43.24206" lon="2.37307">
        <ele>100.2</ele>
        <time>2019-07-14T07:16:51.000Z</time>
      </trkpt>
      <trkpt lat="43.24206" lon="2.3731">
        <ele>100.1</ele>
        <time>2019-07-14T07:16:52.000Z</time>
      </trkpt>
      <trkpt lat="43.24206" lon="2.37314">
        <ele>100.1</ele>
        <time>2019-07-14T07:16:53.000Z</time>
      </trkpt>
      <trkpt lat="43.24206" lon="2.37318">
        <ele>100</ele>
        <time>2019-07-14T07:16:54.000Z</time>
      </trkpt>
      <trkpt lat="43.24206" lon="2.37321">
        <ele>99.9</ele>
        <time>2019-07-14T07:16:55.000Z</time>
      </trkpt>
      <trkpt lat="43.24205" lon="2.37325">
        <ele>99.9</ele>
        <time>2019-07-14T07:16:56.000Z</time>
      </trkpt>
      <trkpt lat="43.24205" lon="2.37329">
        <ele>99.8</ele>
        <time>2019-07-14T07:16:57.000Z</time>
      </trkpt>
      <trkpt lat="43.24205" lon="2.37333">
        <ele>99.8</ele>
        <time>2019-07-14T07:16:58.000Z</time>
      </trkpt>
      <trkpt lat="43.24205" lon="2.37337">
        <ele>99.7</ele>
        <time>2019-07-14T07:16:59.000Z</time>
      </trkpt>
      <trkpt lat="43.24205" lon="2.37341">
        <ele>99.7</ele>
        <time>2019-07-14T07:17:00.000Z</time>
      </trkpt>
      <trkpt lat="43.24205" lon="2.37344">
        <ele>99.7</ele>
        <time>2019-07-14T07:17:01.000Z</time>
      </trkpt>
      <trkpt lat="43.24205" lon="2.37348">
        <ele>99.7</ele>
        <time>2019-07-14T07:17:02.000Z</time>
      </trkpt>
      <trkpt lat="43.24205" lon="2.37352">
        <ele>99.6</ele>
        <time>2019-07-14T07:17:03.000Z</time>
      </trkpt>
      <trkpt lat="43.24205" lon="2.37356">
        <ele>99.6</ele>
        <time>2019-07-14T07:17:04.000Z</time>
      </trkpt>
      <trkpt lat="43.24205" lon="2.3736">
        <ele>99.6</ele>
        <time>2019-07-14T07:17:05.000Z</time>
      </trkpt>
      <trkpt lat="43.24205" lon="2.37364">
        <ele>99.6</ele>
        <time>2019-07-14T07:17:06.000Z</time>
      </trkpt>
      <trkpt lat="43.24205" lon="2.37368">
        <ele>99.5</ele>
        <time>2019-07-14T07:17:07.000Z</time>
      </trkpt>
      <trkpt lat="43.24205" lon="2.37372">
        <ele>99.5</ele>
        <time>2019-07-14T07:17:08.000Z</time>
      </trkpt>
      <trkpt lat="43.24205" lon="2.37376">
        <ele>99.5</ele>
        <time>2019-07-14T07:17:09.000Z</time>
      </trkpt>
      <trkpt lat="43.24205" lon="2.3738">
        <ele>99.5</ele>
        <time>2019-07-14T07:17:10.000Z</time>
      </trkpt>
      <trkpt lat="43.24206" lon="2.37384">
        <ele>99.5</ele>
        <time>2019-07-14T07:17:11.000Z</time>
      </trkpt>
      <trkpt lat="43.24206" lon="2.37388">
        <ele>99.5</ele>
        <time>2019-07-14T07:17:12.000Z</time>
      </trkpt>
      <trkpt lat="43.24207" lon="2.37392">
        <ele>99.5</ele>
        <time>2019-07-14T07:17:13.000Z</time>
      </trkpt>
      <trkpt lat="43.24207" lon="2.37396">
        <ele>99.5</ele>
        <time>2019-07-14T07:17:14.000Z</time>
      </trkpt>
      <trkpt lat="43.24207" lon="2.374">
        <ele>99.5</ele>
        <time>2019-07-14T07:17:15.000Z</time>
      </trkpt>
      <trkpt lat="43.24208" lon="2.37404">
        <ele>99.5</ele>
        <time>2019-07-14T07:17:16.000Z</time>
      </trkpt>
      <trkpt lat="43.24209" lon="2.37408">
        <ele>99.6</ele>
        <time>2019-07-14T07:17:17.000Z</time>
      </trkpt>
      <trkpt lat="43.24209" lon="2.37412">
        <ele>99.6</ele>
        <time>2019-07-14T07:17:18.000Z</time>
      </trkpt>
      <trkpt lat="43.2421" lon="2.37416">
        <ele>99.6</ele>
        <time>2019-07-14T07:17:19.000Z</time>
      </trkpt>
      <trkpt lat="43.2421" lon="2.3742">
        <ele>99.6</ele>
        <time>2019-07-14T07:17:20.000Z</time>
      </trkpt>
      <trkpt lat="43.24211" lon="2.37424">
        <ele>99.7</ele>
        <time>2019-07-14T07:17:21.000Z</time>
      </trkpt>
      <trkpt lat="43.24211" lon="2.37428">
        <ele>99.7</ele>
        <time>2019-07-14T07:17:22.000Z</time>
      </trkpt>
      <trkpt lat="43.24212" lon="2.37433">
        <ele>99.8</ele>
        <time>2019-07-14T07:17:23.000Z</time>
      </trkpt>
      <trkpt lat="43.24213" lon="2.37437">
        <ele>99.8</ele>
        <time>2019-07-14T07:17:24.000Z</time>
      </trkpt>
      <trkpt lat="43.24213" lon="2.37441">
        <ele>99.9</ele>
        <time>2019-07-14T07:17:25.000Z</time>
      </trkpt>
      <trkpt lat="43.24214" lon="2.37445">
        <ele>99.9</ele>
        <time>2019-07-14T07:17:26.000Z</time>
      </trkpt>
      <trkpt lat="43.24215" lon="2.37449">
        <ele>100</ele>
        <time>2019-07-14T07:17:27.000Z</time>
      </trkpt>
      <trkpt lat="43.24216" lon="2.37453">
        <ele>100.1</ele>
        <time>2019-07-14T07:17:28.000Z</time>
      </trkpt>
      <trkpt lat="43.24217" lon="2.37457">
        <ele>100.1</ele>
        <time>2019-07-14T07:17:29.000Z</time>
      </trkpt>
      <trkpt lat="43.24218" lon="2.37461">
        <ele>100.2</ele>
        <time>2019-07-14T07:17:30.000Z</time>
      </trkpt>
      <trkpt lat="43.2422" lon="2.37465">
        <ele>100.3</ele>
        <time>2019-07-14T07:17:31.000Z</time>
      </trkpt>
      <trkpt lat="43.24221" lon="2.37469">
        <ele>100.4</ele>
        <time>2019-07-14T07:17:32.000Z</time>
      </trkpt>
      <trkpt lat="43.24222" lon="2.37473">
        <ele>100.4</ele>
        <time>2019-07-14T07:17:33.000Z</time>
      </trkpt>
      <trkpt lat="43.24224" lon="2.37477">
        <ele>100.5</ele>
        <time>2019-07-14T07:17:34.000Z</time>
      </trkpt>
      <trkpt lat="43.24225" lon="2.37481">
        <ele>100.6</ele>
        <time>2019-07-14T07:17:35.000Z</time>
      </trkpt>
      <trkpt lat="43.24227" lon="2.37485">
        <ele>100.7</ele>
        <time>2019-07-14T07:17:36.000Z</time>
      </trkpt>
      <trkpt lat="43.24228" lon="2.37489">
        <ele>100.8</ele>
        <time>2019-07-14T07:17:37.000Z</time>
      </trkpt>
      <trkpt lat="43.2423" lon="2.37492">
        <ele>100.8</ele>
        <time>2019-07-14T07:17:38.000Z</time>
      </trkpt>
      <trkpt lat="43.24232" lon="2.37496">
        <ele>100.9</ele>
        <time>2019-07-14T07:17:39.000Z</time>
      </trkpt>
      <trkpt lat="43.24233" lon="2.375">
        <ele>101</ele>
        <time>2019-07-14T07:17:40.000Z</time>
      </trkpt>
      <trkpt lat="43.24235" lon="2.37503">
        <ele>101.2</ele>
        <time>2019-07-14T07:17:41.000Z</time>
      </trkpt>
      <trkpt lat="43.24237" lon="2.37507">
        <ele>101.4</ele>
        <time>2019-07-14T07:17:42.000Z</time>
      </trkpt>
      <trkpt lat="43.24238" lon="2.3751">
        <ele>101.5</ele>
        <time>2019-07-14T07:17:43.000Z</time>
      </trkpt>
      <trkpt lat="43.2424" lon="2.37513">
        <ele>101.7</ele>
        <time>2019-07-14T07:17:44.000Z</time>
      </trkpt>
      <trkpt lat="43.24242" lon="2.37517">
        <ele>101.9</ele>
        <time>2019-07-14T07:17:45.000Z</time>
      </trkpt>
      <trkpt lat="43.24243" lon="2.3752">
        <ele>102.1</ele>
        <time>2019-07-14T07:17:46.000Z</time>
      </trkpt>
      <trkpt lat="43.24245" lon="2.37523">
        <ele>102.2</ele>
        <time>2019-07-14T07:17:47.000Z</time>
      </trkpt>
      <trkpt lat="43.24246" lon="2.37526">
        <ele>102.4</ele>
        <time>2019-07-14T07:17:48.000Z</time>
      </trkpt>
      <trkpt lat="43.24248" lon="2.37529">
        <ele>102.5</ele>
        <time>2019-07-14T07:17:49.000Z</time>
      </trkpt>
      <trkpt lat="43.24249" lon="2.37532">
        <ele>102.7</ele>
        <time>2019-07-14T07:17:50.000Z</time>
      </trkpt>
      <trkpt lat="43.2425" lon="2.37535">
        <ele>102.8</ele>
        <time>2019-07-14T07:17:51.000Z</time>
      </trkpt>
      <trkpt lat="43.24251" lon="2.37538">
        <ele>102.9</ele>
        <time>2019-07-14T07:17:52.000Z</time>
      </trkpt>
      <trkpt lat="43.24252" lon="2.37541">
        <ele>103</ele>
        <time>2019-07-14T07:17:53.000Z</time>
      </trkpt>
      <trkpt lat="43.24253" lon="2.37544">
        <ele>103.1</ele>
        <time>2019-07-14T07:17:54.000Z</time>
      </trkpt>
      <trkpt lat="43.24253" lon="2.37547">
        <ele>103.2</ele>
        <time>2019-07-14T07:17:55.000Z</time>
      </trkpt>
      <trkpt lat="43.24253" lon="2.3755">
        <ele>103.2</ele>
        <time>2019-07-14T07:17:56.000Z</time>
      </trkpt>
      <trkpt lat="43.24253" lon="2.37553">
        <ele>103.3</ele>
        <time>2019-07-14T07:17:57.000Z</time>
      </trkpt>
      <trkpt lat="43.24253" lon="2.37556">
        <ele>103.4</ele>
        <time>2019-07-14T07:17:58.000Z</time>
      </trkpt>
      <trkpt lat="43.24253" lon="2.3756">
        <ele>103.5</ele>
        <time>2019-07-14T07:17:59.000Z</time>
      </trkpt>
      <trkpt lat="43.24253" lon="2.37563">
        <ele>103.5</ele>
        <time>2019-07-14T07:18:00.000Z</time>
      </trkpt>
      <trkpt lat="43.24253" lon="2.37566">
        <ele>103.6</ele>
        <time>2019-07-14T07:18:01.000Z</time>
      </trkpt>
      <trkpt lat="43.24253" lon="2.37569">
        <ele>103.7</ele>
        <time>2019-07-14T07:18:02.000Z</time>
      </trkpt>
      <trkpt lat="43.24253" lon="2.37573">
        <ele>103.8</ele>
        <time>2019-07-14T07:18:03.000Z</time>
      </trkpt>
      <trkpt lat="43.24254" lon="2.37576">
        <ele>103.8</ele>
        <time>2019-07-14T07:18:04.000Z</time>
      </trkpt>
      <trkpt lat="43.24255" lon="2.37579">
        <ele>103.9</ele>
        <time>2019-07-14T07:18:05.000Z</time>
      </trkpt>
      <trkpt lat="43.24257" lon="2.37582">
        <ele>104</ele>
        <time>2019-07-14T07:18:06.000Z</time>
      </trkpt>
      <trkpt lat="43.24259" lon="2.37585">
        <ele>104</ele>
        <time>2019-07-14T07:18:07.000Z</time>
      </trkpt>
      <trkpt lat="43.24261" lon="2.37588">
        <ele>104.1</ele>
        <time>2019-07-14T07:18:08.000Z</time>
      </trkpt>
      <trkpt lat="43.24263" lon="2.37591">
        <ele>104.1</ele>
        <time>2019-07-14T07:18:09.000Z</time>
      </trkpt>
      <trkpt lat="43.24264" lon="2.37594">
        <ele>104.1</ele>
        <time>2019-07-14T07:18:10.000Z</time>
      </trkpt>
      <trkpt lat="43.24266" lon="2.37597">
        <ele>104.2</ele>
        <time>2019-07-14T07:18:11.000Z</time>
      </trkpt>
      <trkpt lat="43.24267" lon="2.37599">
        <ele>104.2</ele>
        <time>2019-07-14T07:18:12.000Z</time>
      </trkpt>
      <trkpt lat="43.24269" lon="2.37602">
        <ele>104.2</ele>
        <time>2019-07-14T07:18:13.000Z</time>
      </trkpt>
      <trkpt lat="43.2427" lon="2.37604">
        <ele>104.2</ele>
        <time>2019-07-14T07:18:14.000Z</time>
      </trkpt>
      <trkpt lat="43.24271" lon="2.37607">
        <ele>104.3</ele>
        <time>2019-07-14T07:18:15.000Z</time>
      </trkpt>
      <trkpt lat="43.24272" lon="2.37609">
        <ele>104.3</ele>
        <time>2019-07-14T07:18:16.000Z</time>
      </trkpt>
      <trkpt lat="43.24273" lon="2.37612">
        <ele>104.3</ele>
        <time>2019-07-14T07:18:17.000Z</time>
      </trkpt>
      <trkpt lat="43.24275" lon="2.37614">
        <ele>104.4</ele>
        <time>2019-07-14T07:18:18.000Z</time>
      </trkpt>
      <trkpt lat="43.24276" lon="2.37617">
        <ele>104.4</ele>
        <time>2019-07-14T07:18:19.000Z</time>
      </trkpt>
      <trkpt lat="43.24278" lon="2.3762">
        <ele>104.4</ele>
        <time>2019-07-14T07:18:20.000Z</time>
      </trkpt>
      <trkpt lat="43.24279" lon="2.37624">
        <ele>104.5</ele>
        <time>2019-07-14T07:18:21.000Z</time>
      </trkpt>
      <trkpt lat="43.24281" lon="2.37627">
        <ele>104.5</ele>
        <time>2019-07-14T07:18:22.000Z</time>
      </trkpt>
      <trkpt lat="43.24282" lon="2.37629">
        <ele>104.6</ele>
        <time>2019-07-14T07:18:23.000Z</time>
      </trkpt>
      <trkpt lat="43.24283" lon="2.37632">
        <ele>104.6</ele>
        <time>2019-07-14T07:18:24.000Z</time>
      </trkpt>
      <trkpt lat="43.24284" lon="2.37634">
        <ele>104.6</ele>
        <time>2019-07-14T07:18:25.000Z</time>
      </trkpt>
      <trkpt lat="43.24284" lon="2.37636">
        <ele>104.6</ele>
        <time>2019-07-14T07:18:26.000Z</time>
      </trkpt>
      <trkpt lat="43.24285" lon="2.37638">
        <ele>104.6</ele>
        <time>2019-07-14T07:18:27.000Z</time>
      </trkpt>
      <trkpt lat="43.24285" lon="2.37639">
        <ele>104.7</ele>
        <time>2019-07-14T07:18:28.000Z</time>
      </trkpt>
      <trkpt lat="43.24285" lon="2.3764">
        <ele>104.7</ele>
        <time>2019-07-14T07:18:29.000Z</time>
      </trkpt>
      <trkpt lat="43.24285" lon="2.37641">
        <ele>104.7</ele>
        <time>2019-07-14T07:18:30.000Z</time>
      </trkpt>
      <trkpt lat="43.24285" lon="2.37642">
        <ele>104.7</ele>
        <time>2019-07-14T07:18:31.000Z</time>
      </trkpt>
      <trkpt lat="43.24285" lon="2.37643">
        <ele>104.7</ele>
        <time>2019-07-14T07:18:32.000Z</time>
      </trkpt>
      <trkpt lat="43.24285" lon="2.37645">
        <ele>104.7</ele>
        <time>2019-07-14T07:18:33.000Z</time>
      </trkpt>
      <trkpt lat="43.24285" lon="2.37647">
        <ele>104.8</ele>
        <time>2019-07-14T07:18:34.000Z</time>
      </trkpt>
      <trkpt lat="43.24285" lon="2.37649">
        <ele>104.8</ele>
        <time>2019-07-14T07:18:35.000Z</time>
      </trkpt>
      <trkpt lat="43.24286" lon="2.37651">
        <ele>104.8</ele>
        <time>2019-07-14T07:18:36.000Z</time>
      </trkpt>
      <trkpt lat="43.24286" lon="2.37653">
        <ele>104.8</ele>
        <time>2019-07-14T07:18:37.000Z</time>
      </trkpt>
      <trkpt lat="43.24286" lon="2.37656">
        <ele>104.9</ele>
        <time>2019-07-14T07:18:38.000Z</time>
      </trkpt>
      <trkpt lat="43.24286" lon="2.37658">
        <ele>104.9</ele>
        <time>2019-07-14T07:18:39.000Z</time>
      </trkpt>
      <trkpt lat="43.24286" lon="2.37661">
        <ele>104.9</ele>
        <time>2019-07-14T07:18:40.000Z</time>
      </trkpt>
      <trkpt lat="43.24286" lon="2.37664">
        <ele>105</ele>
        <time>2019-07-14T07:18:41.000Z</time>
      </trkpt>
      <trkpt lat="43.24286" lon="2.37667">
        <ele>105</ele>
        <time>2019-07-14T07:18:42.000Z</time>
      </trkpt>
      <trkpt lat="43.24286" lon="2.37669">
        <ele>105</ele>
        <time>2019-07-14T07:18:43.000Z</time>
      </trkpt>
      <trkpt lat="43.24286" lon="2.37672">
        <ele>105</ele>
        <time>2019-07-14T07:18:44.000Z</time>
      </trkpt>
      <trkpt lat="43.24286" lon="2.37675">
        <ele>105</ele>
        <time>2019-07-14T07:18:45.000Z</time>
      </trkpt>
      <trkpt lat="43.24286" lon="2.37678">
        <ele>105</ele>
        <time>2019-07-14T07:18:46.000Z</time>
      </trkpt>
      <trkpt lat="43.24286" lon="2.37681">
        <ele>105</ele>
        <time>2019-07-14T07:18:47.000Z</time>
      </trkpt>
      <trkpt lat="43.24286" lon="2.37684">
        <ele>105</ele>
        <time>2019-07-14T07:18:48.000Z</time>
      </trkpt>
      <trkpt lat="43.24287" lon="2.37687">
        <ele>105</ele>
        <time>2019-07-14T07:18:49.000Z</time>
      </trkpt>
      <trkpt lat="43.24287" lon="2.37691">
        <ele>105</ele>
        <time>2019-07-14T07:18:50.000Z</time>
      </trkpt>
      <trkpt lat="43.24287" lon="2.37694">
        <ele>105</ele>
        <time>2019-07-14T07:18:51.000Z</time>
      </trkpt>
      <trkpt lat="43.24287" lon="2.37697">
        <ele>105</ele>
        <time>2019-07-14T07:18:52.000Z</time>
      </trkpt>
      <trkpt lat="43.24287" lon="2.377">
        <ele>105</ele>
        <time>2019-07-14T07:18:53.000Z</time>
      </trkpt>
      <trkpt lat="43.24287" lon="2.37703">
        <ele>105</ele>
        <time>2019-07-14T07:18:54.000Z</time>
      </trkpt>
      <trkpt lat="43.24287" lon="2.37706">
        <ele>105</ele>
        <time>2019-07-14T07:18:55.000Z</time>
      </trkpt>
      <trkpt lat="43.24288" lon="2.3771">
        <ele>105.1</ele>
        <time>2019-07-14T07:18:56.000Z</time>
      </trkpt>
      <trkpt lat="43.24288" lon="2.37713">
        <ele>105.1</ele>
        <time>2019-07-14T07:18:57.000Z</time>
      </trkpt>
      <trkpt lat="43.24288" lon="2.37716">
        <ele>105.1</ele>
        <time>2019-07-14T07:18:58.000Z</time>
      </trkpt>
      <trkpt lat="43.24288" lon="2.37719">
        <ele>105.1</ele>
        <time>2019-07-14T07:18:59.000Z</time>
      </trkpt>
      <trkpt lat="43.24289" lon="2.37723">
        <ele>105.1</ele>
        <time>2019-07-14T07:19:00.000Z</time>
      </trkpt>
      <trkpt lat="43.24289" lon="2.37726">
        <ele>105.1</ele>
        <time>2019-07-14T07:19:01.000Z</time>
      </trkpt>
      <trkpt lat="43.24289" lon="2.37729">
        <ele>105</ele>
        <time>2019-07-14T07:19:02.000Z</time>
      </trkpt>
      <trkpt lat="43.24289" lon="2.37732">
        <ele>105</ele>
        <time>2019-07-14T07:19:03.000Z</time>
      </trkpt>
      <trkpt lat="43.2429" lon="2.37736">
        <ele>105</ele>
        <time>2019-07-14T07:19:04.000Z</time>
      </trkpt>
      <trkpt lat="43.2429" lon="2.37739">
        <ele>105</ele>
        <time>2019-07-14T07:19:05.000Z</time>
      </trkpt>
      <trkpt lat="43.2429" lon="2.37742">
        <ele>105</ele>
        <time>2019-07-14T07:19:06.000Z</time>
      </trkpt>
      <trkpt lat="43.2429" lon="2.37746">
        <ele>105</ele>
        <time>2019-07-14T07:19:07.000Z</time>
      </trkpt>
      <trkpt lat="43.24291" lon="2.37749">
        <ele>105</ele>
        <time>2019-07-14T07:19:08.000Z</time>
      </trkpt>
      <trkpt lat="43.24291" lon="2.37753">
        <ele>105</ele>
        <time>2019-07-14T07:19:09.000Z</time>
      </trkpt>
      <trkpt lat="43.24291" lon="2.37756">
        <ele>105</ele>
        <time>2019-07-14T07:19:10.000Z</time>
      </trkpt>
      <trkpt lat="43.24291" lon="2.37759">
        <ele>105</ele>
        <time>2019-07-14T07:19:11.000Z</time>
      </trkpt>
      <trkpt lat="43.24292" lon="2.37763">
        <ele>104.9</ele>
        <time>2019-07-14T07:19:12.000Z</time>
      </trkpt>
      <trkpt lat="43.24292" lon="2.37766">
        <ele>104.9</ele>
        <time>2019-07-14T07:19:13.000Z</time>
      </trkpt>
      <trkpt lat="43.24292" lon="2.37769">
        <ele>104.9</ele>
        <time>2019-07-14T07:19:14.000Z</time>
      </trkpt>
      <trkpt lat="43.24293" lon="2.37773">
        <ele>104.8</ele>
        <time>2019-07-14T07:19:15.000Z</time>
      </trkpt>
      <trkpt lat="43.24293" lon="2.37776">
        <ele>104.8</ele>
        <time>2019-07-14T07:19:16.000Z</time>
      </trkpt>
      <trkpt lat="43.24294" lon="2.37779">
        <ele>104.8</ele>
        <time>2019-07-14T07:19:17.000Z</time>
      </trkpt>
      <trkpt lat="43.24295" lon="2.37782">
        <ele>104.7</ele>
        <time>2019-07-14T07:19:18.000Z</time>
      </trkpt>
      <trkpt lat="43.24296" lon="2.37785">
        <ele>104.7</ele>
        <time>2019-07-14T07:19:19.000Z</time>
      </trkpt>
      <trkpt lat="43.24296" lon="2.37789">
        <ele>104.6</ele>
        <time>2019-07-14T07:19:20.000Z</time>
      </trkpt>
      <trkpt lat="43.24297" lon="2.37792">
        <ele>104.6</ele>
        <time>2019-07-14T07:19:21.000Z</time>
      </trkpt>
      <trkpt lat="43.24298" lon="2.37795">
        <ele>104.5</ele>
        <time>2019-07-14T07:19:22.000Z</time>
      </trkpt>
      <trkpt lat="43.24299" lon="2.37799">
        <ele>104.5</ele>
        <time>2019-07-14T07:19:23.000Z</time>
      </trkpt>
      <trkpt lat="43.243" lon="2.37802">
        <ele>104.4</ele>
        <time>2019-07-14T07:19:24.000Z</time>
      </trkpt>
      <trkpt lat="43.243" lon="2.37805">
        <ele>104.4</ele>
        <time>2019-07-14T07:19:25.000Z</time>
      </trkpt>
      <trkpt lat="43.24301" lon="2.37807">
        <ele>104.4</ele>
        <time>2019-07-14T07:19:26.000Z</time>
      </trkpt>
      <trkpt lat="43.24301" lon="2.37809">
        <ele>104.4</ele>
        <time>2019-07-14T07:19:27.000Z</time>
      </trkpt>
      <trkpt lat="43.24301" lon="2.3781">
        <ele>104.3</ele>
        <time>2019-07-14T07:19:28.000Z</time>
      </trkpt>
      <trkpt lat="43.243" lon="2.3781">
        <ele>104.4</ele>
        <time>2019-07-14T07:19:29.000Z</time>
      </trkpt>
      <trkpt lat="43.243" lon="2.3781">
        <ele>104.4</ele>
        <time>2019-07-14T07:19:30.000Z</time>
      </trkpt>
      <trkpt lat="43.243" lon="2.37809">
        <ele>104.4</ele>
        <time>2019-07-14T07:19:31.000Z</time>
      </trkpt>
      <trkpt lat="43.24299" lon="2.37809">
        <ele>104.4</ele>
        <time>2019-07-14T07:19:32.000Z</time>
      </trkpt>
      <trkpt lat="43.24299" lon="2.37808">
        <ele>104.4</ele>
        <time>2019-07-14T07:19:33.000Z</time>
      </trkpt>
      <trkpt lat="43.24299" lon="2.37808">
        <ele>104.4</ele>
        <time>2019-07-14T07:19:34.000Z</time>
      </trkpt>
      <trkpt lat="43.24299" lon="2.37807">
        <ele>104.4</ele>
        <time>2019-07-14T07:19:35.000Z</time>
      </trkpt>
      <trkpt lat="43.24299" lon="2.37806">
        <ele>104.4</ele>
        <time>2019-07-14T07:19:36.000Z</time>
      </trkpt>
      <trkpt lat="43.24299" lon="2.37806">
        <ele>104.4</ele>
        <time>2019-07-14T07:19:37.000Z</time>
      </trkpt>
      <trkpt lat="43.24299" lon="2.37806">
        <ele>104.4</ele>
        <time>2019-07-14T07:19:38.000Z</time>
      </trkpt>
      <trkpt lat="43.24299" lon="2.37805">
        <ele>104.4</ele>
        <time>2019-07-14T07:19:39.000Z</time>
      </trkpt>
      <trkpt lat="43.24299" lon="2.37805">
        <ele>104.4</ele>
        <time>2019-07-14T07:19:40.000Z</time>
      </trkpt>
      <trkpt lat="43.24299" lon="2.37806">
        <ele>104.4</ele>
        <time>2019-07-14T07:19:41.000Z</time>
      </trkpt>
      <trkpt lat="43.24299" lon="2.37806">
        <ele>104.4</ele>
        <time>2019-07-14T07:19:42.000Z</time>
      </trkpt>
      <trkpt lat="43.24299" lon="2.37807">
        <ele>104.4</ele>
        <time>2019-07-14T07:19:43.000Z</time>
      </trkpt>
      <trkpt lat="43.243" lon="2.37807">
        <ele>104.4</ele>
        <time>2019-07-14T07:19:44.000Z</time>
      </trkpt>
      <trkpt lat="43.243" lon="2.37808">
        <ele>104.4</ele>
        <time>2019-07-14T07:19:45.000Z</time>
      </trkpt>
      <trkpt lat="43.243" lon="2.3781">
        <ele>104.4</ele>
        <time>2019-07-14T07:19:46.000Z</time>
      </trkpt>
      <trkpt lat="43.243" lon="2.37811">
        <ele>104.4</ele>
        <time>2019-07-14T07:19:47.000Z</time>
      </trkpt>
      <trkpt lat="43.243" lon="2.37812">
        <ele>104.4</ele>
        <time>2019-07-14T07:19:48.000Z</time>
      </trkpt>
      <trkpt lat="43.243" lon="2.37814">
        <ele>104.3</ele>
        <time>2019-07-14T07:19:49.000Z</time>
      </trkpt>
      <trkpt lat="43.243" lon="2.37815">
        <ele>104.3</ele>
        <time>2019-07-14T07:19:50.000Z</time>
      </trkpt>
      <trkpt lat="43.243" lon="2.37816">
        <ele>104.3</ele>
        <time>2019-07-14T07:19:51.000Z</time>
      </trkpt>
      <trkpt lat="43.243" lon="2.37817">
        <ele>104.3</ele>
        <time>2019-07-14T07:19:52.000Z</time>
      </trkpt>
      <trkpt lat="43.243" lon="2.37817">
        <ele>104.3</ele>
        <time>2019-07-14T07:19:53.000Z</time>
      </trkpt>
      <trkpt lat="43.243" lon="2.37818">
        <ele>104.3</ele>
        <time>2019-07-14T07:19:54.000Z</time>
      </trkpt>
      <trkpt lat="43.243" lon="2.37818">
        <ele>104.3</ele>
        <time>2019-07-14T07:19:55.000Z</time>
      </trkpt>
      <trkpt lat="43.243" lon="2.37818">
        <ele>104.3</ele>
        <time>2019-07-14T07:19:56.000Z</time>
      </trkpt>
      <trkpt lat="43.243" lon="2.37818">
        <ele>104.3</ele>
        <time>2019-07-14T07:19:57.000Z</time>
      </trkpt>
      <trkpt lat="43.243" lon="2.37819">
        <ele>104.3</ele>
        <time>2019-07-14T07:19:58.000Z</time>
      </trkpt>
      <trkpt lat="43.243" lon="2.3782">
        <ele>104.3</ele>
        <time>2019-07-14T07:19:59.000Z</time>
      </trkpt>
      <trkpt lat="43.243" lon="2.37822">
        <ele>104.3</ele>
        <time>2019-07-14T07:20:00.000Z</time>
      </trkpt>
      <trkpt lat="43.243" lon="2.37823">
        <ele>104.3</ele>
        <time>2019-07-14T07:20:01.000Z</time>
      </trkpt>
      <trkpt lat="43.243" lon="2.37825">
        <ele>104.2</ele>
        <time>2019-07-14T07:20:02.000Z</time>
      </trkpt>
      <trkpt lat="43.24301" lon="2.37826">
        <ele>104.2</ele>
        <time>2019-07-14T07:20:03.000Z</time>
      </trkpt>
      <trkpt lat="43.24301" lon="2.37828">
        <ele>104.2</ele>
        <time>2019-07-14T07:20:04.000Z</time>
      </trkpt>
      <trkpt lat="43.24301" lon="2.3783">
        <ele>104.2</ele>
        <time>2019-07-14T07:20:05.000Z</time>
      </trkpt>
      <trkpt lat="43.24301" lon="2.37831">
        <ele>104.2</ele>
        <time>2019-07-14T07:20:06.000Z</time>
      </trkpt>
      <trkpt lat="43.24301" lon="2.37833">
        <ele>104.2</ele>
        <time>2019-07-14T07:20:07.000Z</time>
      </trkpt>
      <trkpt lat="43.24301" lon="2.37834">
        <ele>104.2</ele>
        <time>2019-07-14T07:20:08.000Z</time>
      </trkpt>
      <trkpt lat="43.24302" lon="2.37836">
        <ele>104.2</ele>
        <time>2019-07-14T07:20:09.000Z</time>
      </trkpt>
      <trkpt lat="43.24302" lon="2.37838">
        <ele>104.2</ele>
        <time>2019-07-14T07:20:10.000Z</time>
      </trkpt>
      <trkpt lat="43.24302" lon="2.37839">
        <ele>104.2</ele>
        <time>2019-07-14T07:20:11.000Z</time>
      </trkpt>
      <trkpt lat="43.24302" lon="2.37841">
        <ele>104.2</ele>
        <time>2019-07-14T07:20:12.000Z</time>
      </trkpt>
      <trkpt lat="43.24302" lon="2.37843">
        <ele>104.3</ele>
        <time>2019-07-14T07:20:13.000Z</time>
      </trkpt>
      <trkpt lat="43.24303" lon="2.37845">
        <ele>104.3</ele>
        <time>2019-07-14T07:20:14.000Z</time>
      </trkpt>
      <trkpt lat="43.24303" lon="2.37847">
        <ele>104.3</ele>
        <time>2019-07-14T07:20:15.000Z</time>
      </trkpt>
      <trkpt lat="43.24303" lon="2.37848">
        <ele>104.3</ele>
        <time>2019-07-14T07:20:16.000Z</time>
      </trkpt>
      <trkpt lat="43.24303" lon="2.3785">
        <ele>104.3</ele>
        <time>2019-07-14T07:20:17.000Z</time>
      </trkpt>
      <trkpt lat="43.24303" lon="2.37852">
        <ele>104.4</ele>
        <time>2019-07-14T07:20:18.000Z</time>
      </trkpt>
      <trkpt lat="43.24304" lon="2.37854">
        <ele>104.4</ele>
        <time>2019-07-14T07:20:19.000Z</time>
      </trkpt>
      <trkpt lat="43.24304" lon="2.37856">
        <ele>104.4</ele>
        <time>2019-07-14T07:20:20.000Z</time>
      </trkpt>
      <trkpt lat="43.24304" lon="2.37857">
        <ele>104.4</ele>
        <time>2019-07-14T07:20:21.000Z</time>
      </trkpt>
      <trkpt lat="43.24304" lon="2.37859">
        <ele>104.4</ele>
        <time>2019-07-14T07:20:22.000Z</time>
      </trkpt>
      <trkpt lat="43.24305" lon="2.37861">
        <ele>104.5</ele>
        <time>2019-07-14T07:20:23.000Z</time>
      </trkpt>
      <trkpt lat="43.24305" lon="2.37862">
        <ele>104.5</ele>
        <time>2019-07-14T07:20:24.000Z</time>
      </trkpt>
      <trkpt lat="43.24305" lon="2.37864">
        <ele>104.5</ele>
        <time>2019-07-14T07:20:25.000Z</time>
      </trkpt>
      <trkpt lat="43.24305" lon="2.37865">
        <ele>104.5</ele>
        <time>2019-07-14T07:20:26.000Z</time>
      </trkpt>
      <trkpt lat="43.24306" lon="2.37867">
        <ele>104.5</ele>
        <time>2019-07-14T07:20:27.000Z</time>
      </trkpt>
      <trkpt lat="43.24306" lon="2.37868">
        <ele>104.6</ele>
        <time>2019-07-14T07:20:28.000Z</time>
      </trkpt>
      <trkpt lat="43.24306" lon="2.3787">
        <ele>104.6</ele>
        <time>2019-07-14T07:20:29.000Z</time>
      </trkpt>
      <trkpt lat="43.24306" lon="2.37871">
        <ele>104.6</ele>
        <time>2019-07-14T07:20:30.000Z</time>
      </trkpt>
      <trkpt lat="43.24307" lon="2.37873">
        <ele>104.6</ele>
        <time>2019-07-14T07:20:31.000Z</time>
      </trkpt>
      <trkpt lat="43.24307" lon="2.37874">
        <ele>104.6</ele>
        <time>2019-07-14T07:20:32.000Z</time>
      </trkpt>
      <trkpt lat="43.24307" lon="2.37876">
        <ele>104.6</ele>
        <time>2019-07-14T07:20:33.000Z</time>
      </trkpt>
      <trkpt lat="43.24307" lon="2.37877">
        <ele>104.7</ele>
        <time>2019-07-14T07:20:34.000Z</time>
      </trkpt>
      <trkpt lat="43.24308" lon="2.37879">
        <ele>104.7</ele>
        <time>2019-07-14T07:20:35.000Z</time>
      </trkpt>
      <trkpt lat="43.24308" lon="2.37881">
        <ele>104.7</ele>
        <time>2019-07-14T07:20:36.000Z</time>
      </trkpt>
      <trkpt lat="43.24308" lon="2.37883">
        <ele>104.7</ele>
        <time>2019-07-14T07:20:37.000Z</time>
      </trkpt>
      <trkpt lat="43.24308" lon="2.37884">
        <ele>104.8</ele>
        <time>2019-07-14T07:20:38.000Z</time>
      </trkpt>
      <trkpt lat="43.24309" lon="2.37886">
        <ele>104.8</ele>
        <time>2019-07-14T07:20:39.000Z</time>
      </trkpt>
      <trkpt lat="43.24309" lon="2.37888">
        <ele>104.8</ele>
        <time>2019-07-14T07:20:40.000Z</time>
      </trkpt>
      <trkpt lat="43.24309" lon="2.3789">
        <ele>104.8</ele>
        <time>2019-07-14T07:20:41.000Z</time>
      </trkpt>
      <trkpt lat="43.24309" lon="2.37892">
        <ele>104.9</ele>
        <time>2019-07-14T07:20:42.000Z</time>
      </trkpt>
      <trkpt lat="43.2431" lon="2.37893">
        <ele>104.9</ele>
        <time>2019-07-14T07:20:43.000Z</time>
      </trkpt>
      <trkpt lat="43.2431" lon="2.37895">
        <ele>104.9</ele>
        <time>2019-07-14T07:20:44.000Z</time>
      </trkpt>
      <trkpt lat="43.2431" lon="2.37897">
        <ele>104.9</ele>
        <time>2019-07-14T07:20:45.000Z</time>
      </trkpt>
      <trkpt lat="43.2431" lon="2.37899">
        <ele>105</ele>
        <time>2019-07-14T07:20:46.000Z</time>
      </trkpt>
      <trkpt lat="43.2431" lon="2.37901">
        <ele>105</ele>
        <time>2019-07-14T07:20:47.000Z</time>
      </trkpt>
      <trkpt lat="43.2431" lon="2.37902">
        <ele>105</ele>
        <time>2019-07-14T07:20:48.000Z</time>
      </trkpt>
      <trkpt lat="43.2431" lon="2.37904">
        <ele>105.1</ele>
        <time>2019-07-14T07:20:49.000Z</time>
      </trkpt>
      <trkpt lat="43.24311" lon="2.37906">
        <ele>105.1</ele>
        <time>2019-07-14T07:20:50.000Z</time>
      </trkpt>
      <trkpt lat="43.24311" lon="2.37908">
        <ele>105.1</ele>
        <time>2019-07-14T07:20:51.000Z</time>
      </trkpt>
      <trkpt lat="43.24311" lon="2.3791">
        <ele>105.2</ele>
        <time>2019-07-14T07:20:52.000Z</time>
      </trkpt>
      <trkpt lat="43.24311" lon="2.37912">
        <ele>105.2</ele>
        <time>2019-07-14T07:20:53.000Z</time>
      </trkpt>
      <trkpt lat="43.24311" lon="2.37914">
        <ele>105.2</ele>
        <time>2019-07-14T07:20:54.000Z</time>
      </trkpt>
      <trkpt lat="43.24312" lon="2.37916">
        <ele>105.3</ele>
        <time>2019-07-14T07:20:55.000Z</time>
      </trkpt>
      <trkpt lat="43.24312" lon="2.37918">
        <ele>105.3</ele>
        <time>2019-07-14T07:20:56.000Z</time>
      </trkpt>
      <trkpt lat="43.24312" lon="2.3792">
        <ele>105.2</ele>
        <time>2019-07-14T07:20:57.000Z</time>
      </trkpt>
      <trkpt lat="43.24313" lon="2.37923">
        <ele>105.2</ele>
        <time>2019-07-14T07:20:58.000Z</time>
      </trkpt>
      <trkpt lat="43.24313" lon="2.37925">
        <ele>105.2</ele>
        <time>2019-07-14T07:20:59.000Z</time>
      </trkpt>
      <trkpt lat="43.24313" lon="2.37927">
        <ele>105.2</ele>
        <time>2019-07-14T07:21:00.000Z</time>
      </trkpt>
      <trkpt lat="43.24314" lon="2.3793">
        <ele>105.2</ele>
        <time>2019-07-14T07:21:01.000Z</time>
      </trkpt>
      <trkpt lat="43.24314" lon="2.37932">
        <ele>105.2</ele>
        <time>2019-07-14T07:21:02.000Z</time>
      </trkpt>
      <trkpt lat="43.24315" lon="2.37935">
        <ele>105.2</ele>
        <time>2019-07-14T07:21:03.000Z</time>
      </trkpt>
      <trkpt lat="43.24316" lon="2.37938">
        <ele>105.2</ele>
        <time>2019-07-14T07:21:04.000Z</time>
      </trkpt>
      <trkpt lat="43.24317" lon="2.37941">
        <ele>105.1</ele>
        <time>2019-07-14T07:21:05.000Z</time>
      </trkpt>
      <trkpt lat="43.24317" lon="2.37944">
        <ele>105.1</ele>
        <time>2019-07-14T07:21:06.000Z</time>
      </trkpt>
      <trkpt lat="43.24318" lon="2.37947">
        <ele>105.1</ele>
        <time>2019-07-14T07:21:07.000Z</time>
      </trkpt>
      <trkpt lat="43.24319" lon="2.3795">
        <ele>105.1</ele>
        <time>2019-07-14T07:21:08.000Z</time>
      </trkpt>
      <trkpt lat="43.2432" lon="2.37953">
        <ele>105.1</ele>
        <time>2019-07-14T07:21:09.000Z</time>
      </trkpt>
      <trkpt lat="43.2432" lon="2.37956">
        <ele>105.1</ele>
        <time>2019-07-14T07:21:10.000Z</time>
      </trkpt>
      <trkpt lat="43.24321" lon="2.37959">
        <ele>105.1</ele>
        <time>2019-07-14T07:21:11.000Z</time>
      </trkpt>
      <trkpt lat="43.24321" lon="2.37962">
        <ele>105.1</ele>
        <time>2019-07-14T07:21:12.000Z</time>
      </trkpt>
      <trkpt lat="43.24322" lon="2.37965">
        <ele>105.1</ele>
        <time>2019-07-14T07:21:13.000Z</time>
      </trkpt>
      <trkpt lat="43.24322" lon="2.37968">
        <ele>105.1</ele>
        <time>2019-07-14T07:21:14.000Z</time>
      </trkpt>
      <trkpt lat="43.24323" lon="2.37971">
        <ele>105</ele>
        <time>2019-07-14T07:21:15.000Z</time>
      </trkpt>
      <trkpt lat="43.24324" lon="2.37975">
        <ele>105</ele>
        <time>2019-07-14T07:21:16.000Z</time>
      </trkpt>
      <trkpt lat="43.24324" lon="2.37978">
        <ele>105</ele>
        <time>2019-07-14T07:21:17.000Z</time>
      </trkpt>
      <trkpt lat="43.24325" lon="2.37981">
        <ele>105</ele>
        <time>2019-07-14T07:21:18.000Z</time>
      </trkpt>
      <trkpt lat="43.24325" lon="2.37985">
        <ele>105</ele>
        <time>2019-07-14T07:21:19.000Z</time>
      </trkpt>
      <trkpt lat="43.24326" lon="2.37988">
        <ele>105</ele>
        <time>2019-07-14T07:21:20.000Z</time>
      </trkpt>
      <trkpt lat="43.24327" lon="2.37991">
        <ele>105</ele>
        <time>2019-07-14T07:21:21.000Z</time>
      </trkpt>
      <trkpt lat="43.24327" lon="2.37995">
        <ele>105</ele>
        <time>2019-07-14T07:21:22.000Z</time>
      </trkpt>
      <trkpt lat="43.24328" lon="2.37998">
        <ele>105</ele>
        <time>2019-07-14T07:21:23.000Z</time>
      </trkpt>
      <trkpt lat="43.24328" lon="2.38001">
        <ele>105</ele>
        <time>2019-07-14T07:21:24.000Z</time>
      </trkpt>
      <trkpt lat="43.24329" lon="2.38005">
        <ele>104.9</ele>
        <time>2019-07-14T07:21:25.000Z</time>
      </trkpt>
      <trkpt lat="43.24329" lon="2.38008">
        <ele>104.9</ele>
        <time>2019-07-14T07:21:26.000Z</time>
      </trkpt>
      <trkpt lat="43.2433" lon="2.38012">
        <ele>104.8</ele>
        <time>2019-07-14T07:21:27.000Z</time>
      </trkpt>
      <trkpt lat="43.2433" lon="2.38015">
        <ele>104.8</ele>
        <time>2019-07-14T07:21:28.000Z</time>
      </trkpt>
      <trkpt lat="43.2433" lon="2.38018">
        <ele>104.8</ele>
        <time>2019-07-14T07:21:29.000Z</time>
      </trkpt>
      <trkpt lat="43.24331" lon="2.38022">
        <ele>104.7</ele>
        <time>2019-07-14T07:21:30.000Z</time>
      </trkpt>
      <trkpt lat="43.24331" lon="2.38025">
        <ele>104.7</ele>
        <time>2019-07-14T07:21:31.000Z</time>
      </trkpt>
      <trkpt lat="43.24331" lon="2.38028">
        <ele>104.6</ele>
        <time>2019-07-14T07:21:32.000Z</time>
      </trkpt>
      <trkpt lat="43.24332" lon="2.38032">
        <ele>104.6</ele>
        <time>2019-07-14T07:21:33.000Z</time>
      </trkpt>
      <trkpt lat="43.24332" lon="2.38035">
        <ele>104.6</ele>
        <time>2019-07-14T07:21:34.000Z</time>
      </trkpt>
      <trkpt lat="43.24332" lon="2.38038">
        <ele>104.5</ele>
        <time>2019-07-14T07:21:35.000Z</time>
      </trkpt>
      <trkpt lat="43.24332" lon="2.38041">
        <ele>104.5</ele>
        <time>2019-07-14T07:21:36.000Z</time>
      </trkpt>
      <trkpt lat="43.24333" lon="2.38045">
        <ele>104.5</ele>
        <time>2019-07-14T07:21:37.000Z</time>
      </trkpt>
      <trkpt lat="43.24333" lon="2.38048">
        <ele>104.4</ele>
        <time>2019-07-14T07:21:38.000Z</time>
      </trkpt>
      <trkpt lat="43.24333" lon="2.38051">
        <ele>104.4</ele>
        <time>2019-07-14T07:21:39.000Z</time>
      </trkpt>
      <trkpt lat="43.24334" lon="2.38054">
        <ele>104.4</ele>
        <time>2019-07-14T07:21:40.000Z</time>
      </trkpt>
      <trkpt lat="43.24334" lon="2.38057">
        <ele>104.3</ele>
        <time>2019-07-14T07:21:41.000Z</time>
      </trkpt>
      <trkpt lat="43.24334" lon="2.38061">
        <ele>104.3</ele>
        <time>2019-07-14T07:21:42.000Z</time>
      </trkpt>
      <trkpt lat="43.24335" lon="2.38064">
        <ele>104.3</ele>
        <time>2019-07-14T07:21:43.000Z</time>
      </trkpt>
      <trkpt lat="43.24335" lon="2.38067">
        <ele>104.2</ele>
        <time>2019-07-14T07:21:44.000Z</time>
      </trkpt>
      <trkpt lat="43.24336" lon="2.3807">
        <ele>104.2</ele>
        <time>2019-07-14T07:21:45.000Z</time>
      </trkpt>
      <trkpt lat="43.24336" lon="2.38073">
        <ele>104.2</ele>
        <time>2019-07-14T07:21:46.000Z</time>
      </trkpt>
      <trkpt lat="43.24337" lon="2.38076">
        <ele>104.2</ele>
        <time>2019-07-14T07:21:47.000Z</time>
      </trkpt>
      <trkpt lat="43.24337" lon="2.38079">
        <ele>104.1</ele>
        <time>2019-07-14T07:21:48.000Z</time>
      </trkpt>
      <trkpt lat="43.24337" lon="2.38082">
        <ele>104.1</ele>
        <time>2019-07-14T07:21:49.000Z</time>
      </trkpt>
      <trkpt lat="43.24338" lon="2.38085">
        <ele>104.1</ele>
        <time>2019-07-14T07:21:50.000Z</time>
      </trkpt>
      <trkpt lat="43.24338" lon="2.38087">
        <ele>104.1</ele>
        <time>2019-07-14T07:21:51.000Z</time>
      </trkpt>
      <trkpt lat="43.24338" lon="2.38089">
        <ele>104.1</ele>
        <time>2019-07-14T07:21:52.000Z</time>
      </trkpt>
      <trkpt lat="43.24337" lon="2.38091">
        <ele>104.1</ele>
        <time>2019-07-14T07:21:53.000Z</time>
      </trkpt>
      <trkpt lat="43.24336" lon="2.38093">
        <ele>104.1</ele>
        <time>2019-07-14T07:21:54.000Z</time>
      </trkpt>
      <trkpt lat="43.24335" lon="2.38094">
        <ele>104</ele>
        <time>2019-07-14T07:21:55.000Z</time>
      </trkpt>
      <trkpt lat="43.24333" lon="2.38095">
        <ele>104</ele>
        <time>2019-07-14T07:21:56.000Z</time>
      </trkpt>
      <trkpt lat="43.2433" lon="2.38096">
        <ele>103.9</ele>
        <time>2019-07-14T07:21:57.000Z</time>
      </trkpt>
      <trkpt lat="43.24327" lon="2.38096">
        <ele>103.8</ele>
        <time>2019-07-14T07:21:58.000Z</time>
      </trkpt>
      <trkpt lat="43.24325" lon="2.38095">
        <ele>103.7</ele>
        <time>2019-07-14T07:21:59.000Z</time>
      </trkpt>
      <trkpt lat="43.24322" lon="2.38095">
        <ele>103.6</ele>
        <time>2019-07-14T07:22:00.000Z</time>
      </trkpt>
      <trkpt lat="43.2432" lon="2.38095">
        <ele>103.5</ele>
        <time>2019-07-14T07:22:01.000Z</time>
      </trkpt>
      <trkpt lat="43.24317" lon="2.38095">
        <ele>103.4</ele>
        <time>2019-07-14T07:22:02.000Z</time>
      </trkpt>
      <trkpt lat="43.24314" lon="2.38096">
        <ele>103.3</ele>
        <time>2019-07-14T07:22:03.000Z</time>
      </trkpt>
      <trkpt lat="43.24311" lon="2.38098">
        <ele>103.2</ele>
        <time>2019-07-14T07:22:04.000Z</time>
      </trkpt>
      <trkpt lat="43.24308" lon="2.38099">
        <ele>103</ele>
        <time>2019-07-14T07:22:05.000Z</time>
      </trkpt>
      <trkpt lat="43.24305" lon="2.381">
        <ele>102.9</ele>
        <time>2019-07-14T07:22:06.000Z</time>
      </trkpt>
      <trkpt lat="43.24302" lon="2.381">
        <ele>102.8</ele>
        <time>2019-07-14T07:22:07.000Z</time>
      </trkpt>
      <trkpt lat="43.24299" lon="2.381">
        <ele>102.7</ele>
        <time>2019-07-14T07:22:08.000Z</time>
      </trkpt>
      <trkpt lat="43.24296" lon="2.381">
        <ele>102.6</ele>
        <time>2019-07-14T07:22:09.000Z</time>
      </trkpt>
      <trkpt lat="43.24293" lon="2.38099">
        <ele>102.5</ele>
        <time>2019-07-14T07:22:10.000Z</time>
      </trkpt>
      <trkpt lat="43.24291" lon="2.38098">
        <ele>102.4</ele>
        <time>2019-07-14T07:22:11.000Z</time>
      </trkpt>
      <trkpt lat="43.24288" lon="2.38097">
        <ele>102.3</ele>
        <time>2019-07-14T07:22:12.000Z</time>
      </trkpt>
      <trkpt lat="43.24286" lon="2.38096">
        <ele>102.2</ele>
        <time>2019-07-14T07:22:13.000Z</time>
      </trkpt>
      <trkpt lat="43.24283" lon="2.38095">
        <ele>102.1</ele>
        <time>2019-07-14T07:22:14.000Z</time>
      </trkpt>
      <trkpt lat="43.24281" lon="2.38093">
        <ele>102</ele>
        <time>2019-07-14T07:22:15.000Z</time>
      </trkpt>
      <trkpt lat="43.24279" lon="2.38092">
        <ele>102</ele>
        <time>2019-07-14T07:22:16.000Z</time>
      </trkpt>
      <trkpt lat="43.24276" lon="2.3809">
        <ele>101.9</ele>
        <time>2019-07-14T07:22:17.000Z</time>
      </trkpt>
      <trkpt lat="43.24274" lon="2.38088">
        <ele>101.8</ele>
        <time>2019-07-14T07:22:18.000Z</time>
      </trkpt>
      <trkpt lat="43.24271" lon="2.38087">
        <ele>101.7</ele>
        <time>2019-07-14T07:22:19.000Z</time>
      </trkpt>
      <trkpt lat="43.24269" lon="2.38085">
        <ele>101.7</ele>
        <time>2019-07-14T07:22:20.000Z</time>
      </trkpt>
      <trkpt lat="43.24267" lon="2.38084">
        <ele>101.6</ele>
        <time>2019-07-14T07:22:21.000Z</time>
      </trkpt>
      <trkpt lat="43.24264" lon="2.38083">
        <ele>101.5</ele>
        <time>2019-07-14T07:22:22.000Z</time>
      </trkpt>
      <trkpt lat="43.24262" lon="2.38082">
        <ele>101.5</ele>
        <time>2019-07-14T07:22:23.000Z</time>
      </trkpt>
      <trkpt lat="43.2426" lon="2.38081">
        <ele>101.5</ele>
        <time>2019-07-14T07:22:24.000Z</time>
      </trkpt>
      <trkpt lat="43.24258" lon="2.3808">
        <ele>101.4</ele>
        <time>2019-07-14T07:22:25.000Z</time>
      </trkpt>
      <trkpt lat="43.24256" lon="2.38079">
        <ele>101.4</ele>
        <time>2019-07-14T07:22:26.000Z</time>
      </trkpt>
      <trkpt lat="43.24254" lon="2.38079">
        <ele>101.3</ele>
        <time>2019-07-14T07:22:27.000Z</time>
      </trkpt>
      <trkpt lat="43.24251" lon="2.38078">
        <ele>101.3</ele>
        <time>2019-07-14T07:22:28.000Z</time>
      </trkpt>
      <trkpt lat="43.24249" lon="2.38077">
        <ele>101.3</ele>
        <time>2019-07-14T07:22:29.000Z</time>
      </trkpt>
      <trkpt lat="43.24247" lon="2.38077">
        <ele>101.3</ele>
        <time>2019-07-14T07:22:30.000Z</time>
      </trkpt>
      <trkpt lat="43.24245" lon="2.38076">
        <ele>101.4</ele>
        <time>2019-07-14T07:22:31.000Z</time>
      </trkpt>
      <trkpt lat="43.24243" lon="2.38075">
        <ele>101.4</ele>
        <time>2019-07-14T07:22:32.000Z</time>
      </trkpt>
      <trkpt lat="43.24241" lon="2.38074">
        <ele>101.4</ele>
        <time>2019-07-14T07:22:33.000Z</time>
      </trkpt>
      <trkpt lat="43.24239" lon="2.38073">
        <ele>101.5</ele>
        <time>2019-07-14T07:22:34.000Z</time>
      </trkpt>
      <trkpt lat="43.24237" lon="2.38072">
        <ele>101.5</ele>
        <time>2019-07-14T07:22:35.000Z</time>
      </trkpt>
      <trkpt lat="43.24235" lon="2.38071">
        <ele>101.6</ele>
        <time>2019-07-14T07:22:36.000Z</time>
      </trkpt>
      <trkpt lat="43.24233" lon="2.38069">
        <ele>101.6</ele>
        <time>2019-07-14T07:22:37.000Z</time>
      </trkpt>
      <trkpt lat="43.2423" lon="2.38068">
        <ele>101.7</ele>
        <time>2019-07-14T07:22:38.000Z</time>
      </trkpt>
      <trkpt lat="43.24228" lon="2.38066">
        <ele>101.8</ele>
        <time>2019-07-14T07:22:39.000Z</time>
      </trkpt>
      <trkpt lat="43.24226" lon="2.38065">
        <ele>101.8</ele>
        <time>2019-07-14T07:22:40.000Z</time>
      </trkpt>
      <trkpt lat="43.24223" lon="2.38064">
        <ele>101.9</ele>
        <time>2019-07-14T07:22:41.000Z</time>
      </trkpt>
      <trkpt lat="43.24221" lon="2.38062">
        <ele>101.9</ele>
        <time>2019-07-14T07:22:42.000Z</time>
      </trkpt>
      <trkpt lat="43.24218" lon="2.38061">
        <ele>102</ele>
        <time>2019-07-14T07:22:43.000Z</time>
      </trkpt>
      <trkpt lat="43.24216" lon="2.38059">
        <ele>102</ele>
        <time>2019-07-14T07:22:44.000Z</time>
      </trkpt>
      <trkpt lat="43.24213" lon="2.38058">
        <ele>102.1</ele>
        <time>2019-07-14T07:22:45.000Z</time>
      </trkpt>
      <trkpt lat="43.2421" lon="2.38056">
        <ele>102.1</ele>
        <time>2019-07-14T07:22:46.000Z</time>
      </trkpt>
      <trkpt lat="43.24207" lon="2.38055">
        <ele>102.2</ele>
        <time>2019-07-14T07:22:47.000Z</time>
      </trkpt>
      <trkpt lat="43.24204" lon="2.38053">
        <ele>102.2</ele>
        <time>2019-07-14T07:22:48.000Z</time>
      </trkpt>
      <trkpt lat="43.24201" lon="2.38052">
        <ele>102.3</ele>
        <time>2019-07-14T07:22:49.000Z</time>
      </trkpt>
      <trkpt lat="43.24198" lon="2.38051">
        <ele>102.3</ele>
        <time>2019-07-14T07:22:50.000Z</time>
      </trkpt>
      <trkpt lat="43.24195" lon="2.38049">
        <ele>102.4</ele>
        <time>2019-07-14T07:22:51.000Z</time>
      </trkpt>
      <trkpt lat="43.24192" lon="2.38048">
        <ele>102.4</ele>
        <time>2019-07-14T07:22:52.000Z</time>
      </trkpt>
      <trkpt lat="43.24189" lon="2.38046">
        <ele>102.5</ele>
        <time>2019-07-14T07:22:53.000Z</time>
      </trkpt>
      <trkpt lat="43.24186" lon="2.38044">
        <ele>102.5</ele>
        <time>2019-07-14T07:22:54.000Z</time>
      </trkpt>
      <trkpt lat="43.24183" lon="2.38043">
        <ele>102.6</ele>
        <time>2019-07-14T07:22:55.000Z</time>
      </trkpt>
      <trkpt lat="43.2418" lon="2.38041">
        <ele>102.6</ele>
        <time>2019-07-14T07:22:56.000Z</time>
      </trkpt>
      <trkpt lat="43.24178" lon="2.38039">
        <ele>102.7</ele>
        <time>2019-07-14T07:22:57.000Z</time>
      </trkpt>
      <trkpt lat="43.24175" lon="2.38037">
        <ele>102.7</ele>
        <time>2019-07-14T07:22:58.000Z</time>
      </trkpt>
      <trkpt lat="43.24173" lon="2.38035">
        <ele>102.8</ele>
        <time>2019-07-14T07:22:59.000Z</time>
      </trkpt>
      <trkpt lat="43.2417" lon="2.38033">
        <ele>102.8</ele>
        <time>2019-07-14T07:23:00.000Z</time>
      </trkpt>
      <trkpt lat="43.24167" lon="2.38032">
        <ele>102.9</ele>
        <time>2019-07-14T07:23:01.000Z</time>
      </trkpt>
      <trkpt lat="43.24165" lon="2.3803">
        <ele>102.8</ele>
        <time>2019-07-14T07:23:02.000Z</time>
      </trkpt>
      <trkpt lat="43.24162" lon="2.38028">
        <ele>102.7</ele>
        <time>2019-07-14T07:23:03.000Z</time>
      </trkpt>
      <trkpt lat="43.2416" lon="2.38026">
        <ele>102.6</ele>
        <time>2019-07-14T07:23:04.000Z</time>
      </trkpt>
      <trkpt lat="43.24157" lon="2.38024">
        <ele>102.5</ele>
        <time>2019-07-14T07:23:05.000Z</time>
      </trkpt>
      <trkpt lat="43.24155" lon="2.38023">
        <ele>102.4</ele>
        <time>2019-07-14T07:23:06.000Z</time>
      </trkpt>
      <trkpt lat="43.24152" lon="2.38021">
        <ele>102.3</ele>
        <time>2019-07-14T07:23:07.000Z</time>
      </trkpt>
      <trkpt lat="43.2415" lon="2.38019">
        <ele>102.2</ele>
        <time>2019-07-14T07:23:08.000Z</time>
      </trkpt>
      <trkpt lat="43.24147" lon="2.38018">
        <ele>102.1</ele>
        <time>2019-07-14T07:23:09.000Z</time>
      </trkpt>
      <trkpt lat="43.24145" lon="2.38016">
        <ele>101.9</ele>
        <time>2019-07-14T07:23:10.000Z</time>
      </trkpt>
      <trkpt lat="43.24143" lon="2.38015">
        <ele>101.8</ele>
        <time>2019-07-14T07:23:11.000Z</time>
      </trkpt>
      <trkpt lat="43.2414" lon="2.38014">
        <ele>101.7</ele>
        <time>2019-07-14T07:23:12.000Z</time>
      </trkpt>
      <trkpt lat="43.24138" lon="2.38013">
        <ele>101.6</ele>
        <time>2019-07-14T07:23:13.000Z</time>
      </trkpt>
      <trkpt lat="43.24136" lon="2.38011">
        <ele>101.5</ele>
        <time>2019-07-14T07:23:14.000Z</time>
      </trkpt>
      <trkpt lat="43.24133" lon="2.3801">
        <ele>101.3</ele>
        <time>2019-07-14T07:23:15.000Z</time>
      </trkpt>
      <trkpt lat="43.2413" lon="2.38009">
        <ele>101.2</ele>
        <time>2019-07-14T07:23:16.000Z</time>
      </trkpt>
      <trkpt lat="43.24127" lon="2.38007">
        <ele>101</ele>
        <time>2019-07-14T07:23:17.000Z</time>
      </trkpt>
      <trkpt lat="43.24124" lon="2.38006">
        <ele>100.8</ele>
        <time>2019-07-14T07:23:18.000Z</time>
      </trkpt>
      <trkpt lat="43.24121" lon="2.38004">
        <ele>100.6</ele>
        <time>2019-07-14T07:23:19.000Z</time>
      </trkpt>
      <trkpt lat="43.24117" lon="2.38002">
        <ele>100.4</ele>
        <time>2019-07-14T07:23:20.000Z</time>
      </trkpt>
      <trkpt lat="43.24114" lon="2.38001">
        <ele>100.2</ele>
        <time>2019-07-14T07:23:21.000Z</time>
      </trkpt>
      <trkpt lat="43.24112" lon="2.37999">
        <ele>100.1</ele>
        <time>2019-07-14T07:23:22.000Z</time>
      </trkpt>
      <trkpt lat="43.2411" lon="2.37997">
        <ele>99.9</ele>
        <time>2019-07-14T07:23:23.000Z</time>
      </trkpt>
      <trkpt lat="43.24108" lon="2.37995">
        <ele>99.8</ele>
        <time>2019-07-14T07:23:24.000Z</time>
      </trkpt>
      <trkpt lat="43.24106" lon="2.37993">
        <ele>99.6</ele>
        <time>2019-07-14T07:23:25.000Z</time>
      </trkpt>
      <trkpt lat="43.24103" lon="2.37992">
        <ele>99.5</ele>
        <time>2019-07-14T07:23:26.000Z</time>
      </trkpt>
      <trkpt lat="43.24101" lon="2.37991">
        <ele>99.3</ele>
        <time>2019-07-14T07:23:27.000Z</time>
      </trkpt>
      <trkpt lat="43.24098" lon="2.37991">
        <ele>99.1</ele>
        <time>2019-07-14T07:23:28.000Z</time>
      </trkpt>
      <trkpt lat="43.24095" lon="2.37991">
        <ele>98.9</ele>
        <time>2019-07-14T07:23:29.000Z</time>
      </trkpt>
      <trkpt lat="43.24093" lon="2.37992">
        <ele>98.7</ele>
        <time>2019-07-14T07:23:30.000Z</time>
      </trkpt>
      <trkpt lat="43.2409" lon="2.37994">
        <ele>98.5</ele>
        <time>2019-07-14T07:23:31.000Z</time>
      </trkpt>
      <trkpt lat="43.24088" lon="2.37996">
        <ele>98.4</ele>
        <time>2019-07-14T07:23:32.000Z</time>
      </trkpt>
      <trkpt lat="43.24086" lon="2.37998">
        <ele>98.2</ele>
        <time>2019-07-14T07:23:33.000Z</time>
      </trkpt>
      <trkpt lat="43.24084" lon="2.38">
        <ele>98</ele>
        <time>2019-07-14T07:23:34.000Z</time>
      </trkpt>
      <trkpt lat="43.24082" lon="2.38001">
        <ele>97.9</ele>
        <time>2019-07-14T07:23:35.000Z</time>
      </trkpt>
      <trkpt lat="43.2408" lon="2.38002">
        <ele>97.8</ele>
        <time>2019-07-14T07:23:36.000Z</time>
      </trkpt>
      <trkpt lat="43.24077" lon="2.38002">
        <ele>97.7</ele>
        <time>2019-07-14T07:23:37.000Z</time>
      </trkpt>
      <trkpt lat="43.24075" lon="2.38001">
        <ele>97.6</ele>
        <time>2019-07-14T07:23:38.000Z</time>
      </trkpt>
      <trkpt lat="43.24072" lon="2.37999">
        <ele>97.5</ele>
        <time>2019-07-14T07:23:39.000Z</time>
      </trkpt>
      <trkpt lat="43.2407" lon="2.37997">
        <ele>97.4</ele>
        <time>2019-07-14T07:23:40.000Z</time>
      </trkpt>
      <trkpt lat="43.24068" lon="2.37995">
        <ele>97.3</ele>
        <time>2019-07-14T07:23:41.000Z</time>
      </trkpt>
      <trkpt lat="43.24066" lon="2.37992">
        <ele>97.2</ele>
        <time>2019-07-14T07:23:42.000Z</time>
      </trkpt>
      <trkpt lat="43.24065" lon="2.37989">
        <ele>97.2</ele>
        <time>2019-07-14T07:23:43.000Z</time>
      </trkpt>
      <trkpt lat="43.24063" lon="2.37985">
        <ele>97.2</ele>
        <time>2019-07-14T07:23:44.000Z</time>
      </trkpt>
      <trkpt lat="43.24062" lon="2.37982">
        <ele>97.1</ele>
        <time>2019-07-14T07:23:45.000Z</time>
      </trkpt>
      <trkpt lat="43.24061" lon="2.37979">
        <ele>97.1</ele>
        <time>2019-07-14T07:23:46.000Z</time>
      </trkpt>
      <trkpt lat="43.2406" lon="2.37976">
        <ele>97.1</ele>
        <time>2019-07-14T07:23:47.000Z</time>
      </trkpt>
      <trkpt lat="43.24059" lon="2.37973">
        <ele>97.1</ele>
        <time>2019-07-14T07:23:48.000Z</time>
      </trkpt>
      <trkpt lat="43.24059" lon="2.3797">
        <ele>97.1</ele>
        <time>2019-07-14T07:23:49.000Z</time>
      </trkpt>
      <trkpt lat="43.24058" lon="2.37967">
        <ele>97.1</ele>
        <time>2019-07-14T07:23:50.000Z</time>
      </trkpt>
      <trkpt lat="43.24057" lon="2.37964">
        <ele>97.1</ele>
        <time>2019-07-14T07:23:51.000Z</time>
      </trkpt>
      <trkpt lat="43.24055" lon="2.37961">
        <ele>97.1</ele>
        <time>2019-07-14T07:23:52.000Z</time>
      </trkpt>
      <trkpt lat="43.24054" lon="2.37958">
        <ele>97.1</ele>
        <time>2019-07-14T07:23:53.000Z</time>
      </trkpt>
      <trkpt lat="43.24053" lon="2.37955">
        <ele>97.1</ele>
        <time>2019-07-14T07:23:54.000Z</time>
      </trkpt>
      <trkpt lat="43.24052" lon="2.37952">
        <ele>97.2</ele>
        <time>2019-07-14T07:23:55.000Z</time>
      </trkpt>
      <trkpt lat="43.24051" lon="2.37949">
        <ele>97.2</ele>
        <time>2019-07-14T07:23:56.000Z</time>
      </trkpt>
      <trkpt lat="43.2405" lon="2.37946">
        <ele>97.2</ele>
        <time>2019-07-14T07:23:57.000Z</time>
      </trkpt>
      <trkpt lat="43.24049" lon="2.37943">
        <ele>97.2</ele>
        <time>2019-07-14T07:23:58.000Z</time>
      </trkpt>
      <trkpt lat="43.24047" lon="2.3794">
        <ele>97.2</ele>
        <time>2019-07-14T07:23:59.000Z</time>
      </trkpt>
      <trkpt lat="43.24046" lon="2.37937">
        <ele>97.2</ele>
        <time>2019-07-14T07:24:00.000Z</time>
      </trkpt>
      <trkpt lat="43.24045" lon="2.37934">
        <ele>97.2</ele>
        <time>2019-07-14T07:24:01.000Z</time>
      </trkpt>
      <trkpt lat="43.24043" lon="2.37932">
        <ele>97.3</ele>
        <time>2019-07-14T07:24:02.000Z</time>
      </trkpt>
      <trkpt lat="43.24042" lon="2.37929">
        <ele>97.3</ele>
        <time>2019-07-14T07:24:03.000Z</time>
      </trkpt>
      <trkpt lat="43.24041" lon="2.37926">
        <ele>97.3</ele>
        <time>2019-07-14T07:24:04.000Z</time>
      </trkpt>
      <trkpt lat="43.24039" lon="2.37923">
        <ele>97.4</ele>
        <time>2019-07-14T07:24:05.000Z</time>
      </trkpt>
      <trkpt lat="43.24038" lon="2.3792">
        <ele>97.4</ele>
        <time>2019-07-14T07:24:06.000Z</time>
      </trkpt>
      <trkpt lat="43.24037" lon="2.37917">
        <ele>97.4</ele>
        <time>2019-07-14T07:24:07.000Z</time>
      </trkpt>
      <trkpt lat="43.24035" lon="2.37914">
        <ele>97.5</ele>
        <time>2019-07-14T07:24:08.000Z</time>
      </trkpt>
      <trkpt lat="43.24034" lon="2.37911">
        <ele>97.5</ele>
        <time>2019-07-14T07:24:09.000Z</time>
      </trkpt>
      <trkpt lat="43.24033" lon="2.37908">
        <ele>97.6</ele>
        <time>2019-07-14T07:24:10.000Z</time>
      </trkpt>
      <trkpt lat="43.24031" lon="2.37906">
        <ele>97.6</ele>
        <time>2019-07-14T07:24:11.000Z</time>
      </trkpt>
      <trkpt lat="43.2403" lon="2.37903">
        <ele>97.7</ele>
        <time>2019-07-14T07:24:12.000Z</time>
      </trkpt>
      <trkpt lat="43.24028" lon="2.379">
        <ele>97.7</ele>
        <time>2019-07-14T07:24:13.000Z</time>
      </trkpt>
      <trkpt lat="43.24027" lon="2.37897">
        <ele>97.8</ele>
        <time>2019-07-14T07:24:14.000Z</time>
      </trkpt>
      <trkpt lat="43.24026" lon="2.37894">
        <ele>97.9</ele>
        <time>2019-07-14T07:24:15.000Z</time>
      </trkpt>
      <trkpt lat="43.24024" lon="2.37891">
        <ele>97.9</ele>
        <time>2019-07-14T07:24:16.000Z</time>
      </trkpt>
      <trkpt lat="43.24023" lon="2.37888">
        <ele>98</ele>
        <time>2019-07-14T07:24:17.000Z</time>
      </trkpt>
      <trkpt lat="43.24022" lon="2.37885">
        <ele>98.1</ele>
        <time>2019-07-14T07:24:18.000Z</time>
      </trkpt>
      <trkpt lat="43.2402" lon="2.37882">
        <ele>98.2</ele>
        <time>2019-07-14T07:24:19.000Z</time>
      </trkpt>
      <trkpt lat="43.24019" lon="2.37879">
        <ele>98.3</ele>
        <time>2019-07-14T07:24:20.000Z</time>
      </trkpt>
      <trkpt lat="43.24017" lon="2.37876">
        <ele>98.4</ele>
        <time>2019-07-14T07:24:21.000Z</time>
      </trkpt>
      <trkpt lat="43.24016" lon="2.37874">
        <ele>98.4</ele>
        <time>2019-07-14T07:24:22.000Z</time>
      </trkpt>
      <trkpt lat="43.24015" lon="2.37871">
        <ele>98.5</ele>
        <time>2019-07-14T07:24:23.000Z</time>
      </trkpt>
      <trkpt lat="43.24013" lon="2.37868">
        <ele>98.6</ele>
        <time>2019-07-14T07:24:24.000Z</time>
      </trkpt>
      <trkpt lat="43.24012" lon="2.37865">
        <ele>98.7</ele>
        <time>2019-07-14T07:24:25.000Z</time>
      </trkpt>
      <trkpt lat="43.24011" lon="2.37862">
        <ele>98.9</ele>
        <time>2019-07-14T07:24:26.000Z</time>
      </trkpt>
      <trkpt lat="43.24009" lon="2.37859">
        <ele>99</ele>
        <time>2019-07-14T07:24:27.000Z</time>
      </trkpt>
      <trkpt lat="43.24008" lon="2.37856">
        <ele>99.1</ele>
        <time>2019-07-14T07:24:28.000Z</time>
      </trkpt>
      <trkpt lat="43.24007" lon="2.37853">
        <ele>99.2</ele>
        <time>2019-07-14T07:24:29.000Z</time>
      </trkpt>
      <trkpt lat="43.24005" lon="2.3785">
        <ele>99.3</ele>
        <time>2019-07-14T07:24:30.000Z</time>
      </trkpt>
      <trkpt lat="43.24004" lon="2.37847">
        <ele>99.4</ele>
        <time>2019-07-14T07:24:31.000Z</time>
      </trkpt>
      <trkpt lat="43.24002" lon="2.37844">
        <ele>99.6</ele>
        <time>2019-07-14T07:24:32.000Z</time>
      </trkpt>
      <trkpt lat="43.24001" lon="2.37841">
        <ele>99.7</ele>
        <time>2019-07-14T07:24:33.000Z</time>
      </trkpt>
      <trkpt lat="43.24" lon="2.37838">
        <ele>99.8</ele>
        <time>2019-07-14T07:24:34.000Z</time>
      </trkpt>
      <trkpt lat="43.23998" lon="2.37835">
        <ele>99.9</ele>
        <time>2019-07-14T07:24:35.000Z</time>
      </trkpt>
      <trkpt lat="43.23997" lon="2.37832">
        <ele>99.8</ele>
        <time>2019-07-14T07:24:36.000Z</time>
      </trkpt>
      <trkpt lat="43.23995" lon="2.37828">
        <ele>99.6</ele>
        <time>2019-07-14T07:24:37.000Z</time>
      </trkpt>
      <trkpt lat="43.23994" lon="2.37825">
        <ele>99.4</ele>
        <time>2019-07-14T07:24:38.000Z</time>
      </trkpt>
      <trkpt lat="43.23992" lon="2.37822">
        <ele>99.3</ele>
        <time>2019-07-14T07:24:39.000Z</time>
      </trkpt>
      <trkpt lat="43.23991" lon="2.37819">
        <ele>99.1</ele>
        <time>2019-07-14T07:24:40.000Z</time>
      </trkpt>
      <trkpt lat="43.23989" lon="2.37816">
        <ele>98.9</ele>
        <time>2019-07-14T07:24:41.000Z</time>
      </trkpt>
      <trkpt lat="43.23988" lon="2.37813">
        <ele>98.8</ele>
        <time>2019-07-14T07:24:42.000Z</time>
      </trkpt>
      <trkpt lat="43.23986" lon="2.3781">
        <ele>98.6</ele>
        <time>2019-07-14T07:24:43.000Z</time>
      </trkpt>
      <trkpt lat="43.23985" lon="2.37806">
        <ele>98.5</ele>
        <time>2019-07-14T07:24:44.000Z</time>
      </trkpt>
      <trkpt lat="43.23983" lon="2.37803">
        <ele>98.3</ele>
        <time>2019-07-14T07:24:45.000Z</time>
      </trkpt>
      <trkpt lat="43.23981" lon="2.378">
        <ele>98.2</ele>
        <time>2019-07-14T07:24:46.000Z</time>
      </trkpt>
      <trkpt lat="43.2398" lon="2.37797">
        <ele>98</ele>
        <time>2019-07-14T07:24:47.000Z</time>
      </trkpt>
      <trkpt lat="43.23978" lon="2.37794">
        <ele>97.9</ele>
        <time>2019-07-14T07:24:48.000Z</time>
      </trkpt>
      <trkpt lat="43.23977" lon="2.37791">
        <ele>97.8</ele>
        <time>2019-07-14T07:24:49.000Z</time>
      </trkpt>
      <trkpt lat="43.23975" lon="2.37788">
        <ele>97.7</ele>
        <time>2019-07-14T07:24:50.000Z</time>
      </trkpt>
      <trkpt lat="43.23974" lon="2.37784">
        <ele>97.5</ele>
        <time>2019-07-14T07:24:51.000Z</time>
      </trkpt>
      <trkpt lat="43.23972" lon="2.37781">
        <ele>97.4</ele>
        <time>2019-07-14T07:24:52.000Z</time>
      </trkpt>
      <trkpt lat="43.23971" lon="2.37778">
        <ele>97.3</ele>
        <time>2019-07-14T07:24:53.000Z</time>
      </trkpt>
      <trkpt lat="43.23969" lon="2.37775">
        <ele>97.2</ele>
        <time>2019-07-14T07:24:54.000Z</time>
      </trkpt>
      <trkpt lat="43.23968" lon="2.37772">
        <ele>97.1</ele>
        <time>2019-07-14T07:24:55.000Z</time>
      </trkpt>
      <trkpt lat="43.23966" lon="2.37769">
        <ele>97</ele>
        <time>2019-07-14T07:24:56.000Z</time>
      </trkpt>
      <trkpt lat="43.23965" lon="2.37766">
        <ele>96.9</ele>
        <time>2019-07-14T07:24:57.000Z</time>
      </trkpt>
      <trkpt lat="43.23963" lon="2.37763">
        <ele>96.8</ele>
        <time>2019-07-14T07:24:58.000Z</time>
      </trkpt>
      <trkpt lat="43.23962" lon="2.3776">
        <ele>96.7</ele>
        <time>2019-07-14T07:24:59.000Z</time>
      </trkpt>
      <trkpt lat="43.23961" lon="2.37757">
        <ele>96.6</ele>
        <time>2019-07-14T07:25:00.000Z</time>
      </trkpt>
      <trkpt lat="43.23959" lon="2.37753">
        <ele>96.6</ele>
        <time>2019-07-14T07:25:01.000Z</time>
      </trkpt>
      <trkpt lat="43.23958" lon="2.3775">
        <ele>96.5</ele>
        <time>2019-07-14T07:25:02.000Z</time>
      </trkpt>
      <trkpt lat="43.23956" lon="2.37747">
        <ele>96.4</ele>
        <time>2019-07-14T07:25:03.000Z</time>
      </trkpt>
      <trkpt lat="43.23955" lon="2.37744">
        <ele>96.4</ele>
        <time>2019-07-14T07:25:04.000Z</time>
      </trkpt>
      <trkpt lat="43.23953" lon="2.37741">
        <ele>96.4</ele>
        <time>2019-07-14T07:25:05.000Z</time>
      </trkpt>
      <trkpt lat="43.23952" lon="2.37738">
        <ele>96.3</ele>
        <time>2019-07-14T07:25:06.000Z</time>
      </trkpt>
      <trkpt lat="43.2395" lon="2.37735">
        <ele>96.3</ele>
        <time>2019-07-14T07:25:07.000Z</time>
      </trkpt>
      <trkpt lat="43.23949" lon="2.37732">
        <ele>96.3</ele>
        <time>2019-07-14T07:25:08.000Z</time>
      </trkpt>
      <trkpt lat="43.23947" lon="2.37729">
        <ele>96.3</ele>
        <time>2019-07-14T07:25:09.000Z</time>
      </trkpt>
      <trkpt lat="43.23946" lon="2.37726">
        <ele>96.3</ele>
        <time>2019-07-14T07:25:10.000Z</time>
      </trkpt>
      <trkpt lat="43.23944" lon="2.37723">
        <ele>96.3</ele>
        <time>2019-07-14T07:25:11.000Z</time>
      </trkpt>
      <trkpt lat="43.23943" lon="2.3772">
        <ele>96.4</ele>
        <time>2019-07-14T07:25:12.000Z</time>
      </trkpt>
      <trkpt lat="43.23941" lon="2.37716">
        <ele>96.4</ele>
        <time>2019-07-14T07:25:13.000Z</time>
      </trkpt>
      <trkpt lat="43.23939" lon="2.37713">
        <ele>96.4</ele>
        <time>2019-07-14T07:25:14.000Z</time>
      </trkpt>
      <trkpt lat="43.23938" lon="2.3771">
        <ele>96.5</ele>
        <time>2019-07-14T07:25:15.000Z</time>
      </trkpt>
      <trkpt lat="43.23936" lon="2.37707">
        <ele>96.5</ele>
        <time>2019-07-14T07:25:16.000Z</time>
      </trkpt>
      <trkpt lat="43.23935" lon="2.37704">
        <ele>96.6</ele>
        <time>2019-07-14T07:25:17.000Z</time>
      </trkpt>
      <trkpt lat="43.23933" lon="2.37701">
        <ele>96.7</ele>
        <time>2019-07-14T07:25:18.000Z</time>
      </trkpt>
      <trkpt lat="43.23931" lon="2.37697">
        <ele>96.8</ele>
        <time>2019-07-14T07:25:19.000Z</time>
      </trkpt>
      <trkpt lat="43.2393" lon="2.37694">
        <ele>96.9</ele>
        <time>2019-07-14T07:25:20.000Z</time>
      </trkpt>
      <trkpt lat="43.23928" lon="2.37691">
        <ele>97</ele>
        <time>2019-07-14T07:25:21.000Z</time>
      </trkpt>
      <trkpt lat="43.23927" lon="2.37688">
        <ele>97.1</ele>
        <time>2019-07-14T07:25:22.000Z</time>
      </trkpt>
      <trkpt lat="43.23925" lon="2.37684">
        <ele>97.2</ele>
        <time>2019-07-14T07:25:23.000Z</time>
      </trkpt>
      <trkpt lat="43.23923" lon="2.37681">
        <ele>97.3</ele>
        <time>2019-07-14T07:25:24.000Z</time>
      </trkpt>
      <trkpt lat="43.23922" lon="2.37678">
        <ele>97.5</ele>
        <time>2019-07-14T07:25:25.000Z</time>
      </trkpt>
      <trkpt lat="43.2392" lon="2.37674">
        <ele>97.6</ele>
        <time>2019-07-14T07:25:26.000Z</time>
      </trkpt>
      <trkpt lat="43.23919" lon="2.37671">
        <ele>97.8</ele>
        <time>2019-07-14T07:25:27.000Z</time>
      </trkpt>
      <trkpt lat="43.23917" lon="2.37668">
        <ele>98</ele>
        <time>2019-07-14T07:25:28.000Z</time>
      </trkpt>
      <trkpt lat="43.23915" lon="2.37664">
        <ele>97.9</ele>
        <time>2019-07-14T07:25:29.000Z</time>
      </trkpt>
      <trkpt lat="43.23914" lon="2.37661">
        <ele>97.7</ele>
        <time>2019-07-14T07:25:30.000Z</time>
      </trkpt>
      <trkpt lat="43.23912" lon="2.37658">
        <ele>97.6</ele>
        <time>2019-07-14T07:25:31.000Z</time>
      </trkpt>
      <trkpt lat="43.23911" lon="2.37654">
        <ele>97.4</ele>
        <time>2019-07-14T07:25:32.000Z</time>
      </trkpt>
      <trkpt lat="43.23909" lon="2.37651">
        <ele>97.3</ele>
        <time>2019-07-14T07:25:33.000Z</time>
      </trkpt>
      <trkpt lat="43.23908" lon="2.37648">
        <ele>97.2</ele>
        <time>2019-07-14T07:25:34.000Z</time>
      </trkpt>
      <trkpt lat="43.23906" lon="2.37644">
        <ele>97</ele>
        <time>2019-07-14T07:25:35.000Z</time>
      </trkpt>
      <trkpt lat="43.23904" lon="2.37641">
        <ele>96.9</ele>
        <time>2019-07-14T07:25:36.000Z</time>
      </trkpt>
      <trkpt lat="43.23903" lon="2.37638">
        <ele>96.8</ele>
        <time>2019-07-14T07:25:37.000Z</time>
      </trkpt>
      <trkpt lat="43.23901" lon="2.37634">
        <ele>96.7</ele>
        <time>2019-07-14T07:25:38.000Z</time>
      </trkpt>
      <trkpt lat="43.239" lon="2.37631">
        <ele>96.6</ele>
        <time>2019-07-14T07:25:39.000Z</time>
      </trkpt>
      <trkpt lat="43.23898" lon="2.37628">
        <ele>96.5</ele>
        <time>2019-07-14T07:25:40.000Z</time>
      </trkpt>
      <trkpt lat="43.23896" lon="2.37624">
        <ele>96.4</ele>
        <time>2019-07-14T07:25:41.000Z</time>
      </trkpt>
      <trkpt lat="43.23895" lon="2.37621">
        <ele>96.3</ele>
        <time>2019-07-14T07:25:42.000Z</time>
      </trkpt>
      <trkpt lat="43.23893" lon="2.37618">
        <ele>96.2</ele>
        <time>2019-07-14T07:25:43.000Z</time>
      </trkpt>
      <trkpt lat="43.23892" lon="2.37615">
        <ele>96.1</ele>
        <time>2019-07-14T07:25:44.000Z</time>
      </trkpt>
      <trkpt lat="43.2389" lon="2.37611">
        <ele>96</ele>
        <time>2019-07-14T07:25:45.000Z</time>
      </trkpt>
      <trkpt lat="43.23888" lon="2.37608">
        <ele>95.9</ele>
        <time>2019-07-14T07:25:46.000Z</time>
      </trkpt>
      <trkpt lat="43.23887" lon="2.37605">
        <ele>95.9</ele>
        <time>2019-07-14T07:25:47.000Z</time>
      </trkpt>
      <trkpt lat="43.23885" lon="2.37602">
        <ele>95.8</ele>
        <time>2019-07-14T07:25:48.000Z</time>
      </trkpt>
      <trkpt lat="43.23883" lon="2.37598">
        <ele>95.7</ele>
        <time>2019-07-14T07:25:49.000Z</time>
      </trkpt>
      <trkpt lat="43.23882" lon="2.37595">
        <ele>95.7</ele>
        <time>2019-07-14T07:25:50.000Z</time>
      </trkpt>
      <trkpt lat="43.2388" lon="2.37592">
        <ele>95.6</ele>
        <time>2019-07-14T07:25:51.000Z</time>
      </trkpt>
      <trkpt lat="43.23878" lon="2.37589">
        <ele>95.6</ele>
        <time>2019-07-14T07:25:52.000Z</time>
      </trkpt>
      <trkpt lat="43.23877" lon="2.37585">
        <ele>95.5</ele>
        <time>2019-07-14T07:25:53.000Z</time>
      </trkpt>
      <trkpt lat="43.23875" lon="2.37582">
        <ele>95.5</ele>
        <time>2019-07-14T07:25:54.000Z</time>
      </trkpt>
      <trkpt lat="43.23873" lon="2.37579">
        <ele>95.5</ele>
        <time>2019-07-14T07:25:55.000Z</time>
      </trkpt>
      <trkpt lat="43.23872" lon="2.37576">
        <ele>95.5</ele>
        <time>2019-07-14T07:25:56.000Z</time>
      </trkpt>
      <trkpt lat="43.2387" lon="2.37572">
        <ele>95.5</ele>
        <time>2019-07-14T07:25:57.000Z</time>
      </trkpt>
      <trkpt lat="43.23868" lon="2.37569">
        <ele>95.4</ele>
        <time>2019-07-14T07:25:58.000Z</time>
      </trkpt>
      <trkpt lat="43.23867" lon="2.37566">
        <ele>95.4</ele>
        <time>2019-07-14T07:25:59.000Z</time>
      </trkpt>
      <trkpt lat="43.23865" lon="2.37563">
        <ele>95.4</ele>
        <time>2019-07-14T07:26:00.000Z</time>
      </trkpt>
      <trkpt lat="43.23863" lon="2.37559">
        <ele>95.4</ele>
        <time>2019-07-14T07:26:01.000Z</time>
      </trkpt>
      <trkpt lat="43.23862" lon="2.37556">
        <ele>95.4</ele>
        <time>2019-07-14T07:26:02.000Z</time>
      </trkpt>
      <trkpt lat="43.2386" lon="2.37553">
        <ele>95.5</ele>
        <time>2019-07-14T07:26:03.000Z</time>
      </trkpt>
      <trkpt lat="43.23858" lon="2.3755">
        <ele>95.5</ele>
        <time>2019-07-14T07:26:04.000Z</time>
      </trkpt>
      <trkpt lat="43.23856" lon="2.37547">
        <ele>95.5</ele>
        <time>2019-07-14T07:26:05.000Z</time>
      </trkpt>
      <trkpt lat="43.23855" lon="2.37544">
        <ele>95.5</ele>
        <time>2019-07-14T07:26:06.000Z</time>
      </trkpt>
      <trkpt lat="43.23853" lon="2.37541">
        <ele>95.5</ele>
        <time>2019-07-14T07:26:07.000Z</time>
      </trkpt>
      <trkpt lat="43.23851" lon="2.37537">
        <ele>95.5</ele>
        <time>2019-07-14T07:26:08.000Z</time>
      </trkpt>
      <trkpt lat="43.2385" lon="2.37534">
        <ele>95.6</ele>
        <time>2019-07-14T07:26:09.000Z</time>
      </trkpt>
      <trkpt lat="43.23848" lon="2.37531">
        <ele>95.6</ele>
        <time>2019-07-14T07:26:10.000Z</time>
      </trkpt>
      <trkpt lat="43.23846" lon="2.37528">
        <ele>95.6</ele>
        <time>2019-07-14T07:26:11.000Z</time>
      </trkpt>
      <trkpt lat="43.23845" lon="2.37525">
        <ele>95.6</ele>
        <time>2019-07-14T07:26:12.000Z</time>
      </trkpt>
      <trkpt lat="43.23843" lon="2.37522">
        <ele>95.7</ele>
        <time>2019-07-14T07:26:13.000Z</time>
      </trkpt>
      <trkpt lat="43.23841" lon="2.37518">
        <ele>95.7</ele>
        <time>2019-07-14T07:26:14.000Z</time>
      </trkpt>
      <trkpt lat="43.2384" lon="2.37515">
        <ele>95.8</ele>
        <time>2019-07-14T07:26:15.000Z</time>
      </trkpt>
      <trkpt lat="43.23838" lon="2.37512">
        <ele>95.8</ele>
        <time>2019-07-14T07:26:16.000Z</time>
      </trkpt>
      <trkpt lat="43.23836" lon="2.37508">
        <ele>95.9</ele>
        <time>2019-07-14T07:26:17.000Z</time>
      </trkpt>
      <trkpt lat="43.23835" lon="2.37505">
        <ele>95.9</ele>
        <time>2019-07-14T07:26:18.000Z</time>
      </trkpt>
      <trkpt lat="43.23833" lon="2.37502">
        <ele>96</ele>
        <time>2019-07-14T07:26:19.000Z</time>
      </trkpt>
      <trkpt lat="43.23831" lon="2.37498">
        <ele>96</ele>
        <time>2019-07-14T07:26:20.000Z</time>
      </trkpt>
      <trkpt lat="43.2383" lon="2.37495">
        <ele>96.1</ele>
        <time>2019-07-14T07:26:21.000Z</time>
      </trkpt>
      <trkpt lat="43.23828" lon="2.37491">
        <ele>96.1</ele>
        <time>2019-07-14T07:26:22.000Z</time>
      </trkpt>
      <trkpt lat="43.23827" lon="2.37487">
        <ele>96.2</ele>
        <time>2019-07-14T07:26:23.000Z</time>
      </trkpt>
      <trkpt lat="43.23825" lon="2.37484">
        <ele>96.2</ele>
        <time>2019-07-14T07:26:24.000Z</time>
      </trkpt>
      <trkpt lat="43.23823" lon="2.3748">
        <ele>96.3</ele>
        <time>2019-07-14T07:26:25.000Z</time>
      </trkpt>
      <trkpt lat="43.23822" lon="2.37476">
        <ele>96.3</ele>
        <time>2019-07-14T07:26:26.000Z</time>
      </trkpt>
      <trkpt lat="43.2382" lon="2.37472">
        <ele>96.4</ele>
        <time>2019-07-14T07:26:27.000Z</time>
      </trkpt>
      <trkpt lat="43.23818" lon="2.37469">
        <ele>96.4</ele>
        <time>2019-07-14T07:26:28.000Z</time>
      </trkpt>
      <trkpt lat="43.23817" lon="2.37465">
        <ele>96.5</ele>
        <time>2019-07-14T07:26:29.000Z</time>
      </trkpt>
      <trkpt lat="43.23815" lon="2.37461">
        <ele>96.6</ele>
        <time>2019-07-14T07:26:30.000Z</time>
      </trkpt>
      <trkpt lat="43.23814" lon="2.37457">
        <ele>96.6</ele>
        <time>2019-07-14T07:26:31.000Z</time>
      </trkpt>
      <trkpt lat="43.23812" lon="2.37453">
        <ele>96.7</ele>
        <time>2019-07-14T07:26:32.000Z</time>
      </trkpt>
      <trkpt lat="43.23811" lon="2.37449">
        <ele>96.8</ele>
        <time>2019-07-14T07:26:33.000Z</time>
      </trkpt>
      <trkpt lat="43.23809" lon="2.37446">
        <ele>96.8</ele>
        <time>2019-07-14T07:26:34.000Z</time>
      </trkpt>
      <trkpt lat="43.23808" lon="2.37442">
        <ele>96.9</ele>
        <time>2019-07-14T07:26:35.000Z</time>
      </trkpt>
      <trkpt lat="43.23806" lon="2.37438">
        <ele>97</ele>
        <time>2019-07-14T07:26:36.000Z</time>
      </trkpt>
      <trkpt lat="43.23805" lon="2.37435">
        <ele>97.1</ele>
        <time>2019-07-14T07:26:37.000Z</time>
      </trkpt>
      <trkpt lat="43.23804" lon="2.37431">
        <ele>97.1</ele>
        <time>2019-07-14T07:26:38.000Z</time>
      </trkpt>
      <trkpt lat="43.23802" lon="2.37428">
        <ele>97.2</ele>
        <time>2019-07-14T07:26:39.000Z</time>
      </trkpt>
      <trkpt lat="43.23801" lon="2.37424">
        <ele>97.3</ele>
        <time>2019-07-14T07:26:40.000Z</time>
      </trkpt>
      <trkpt lat="43.238" lon="2.37421">
        <ele>97.3</ele>
        <time>2019-07-14T07:26:41.000Z</time>
      </trkpt>
      <trkpt lat="43.23799" lon="2.37418">
        <ele>97.4</ele>
        <time>2019-07-14T07:26:42.000Z</time>
      </trkpt>
      <trkpt lat="43.23798" lon="2.37415">
        <ele>97.5</ele>
        <time>2019-07-14T07:26:43.000Z</time>
      </trkpt>
      <trkpt lat="43.23797" lon="2.37412">
        <ele>97.5</ele>
        <time>2019-07-14T07:26:44.000Z</time>
      </trkpt>
      <trkpt lat="43.23796" lon="2.37409">
        <ele>97.6</ele>
        <time>2019-07-14T07:26:45.000Z</time>
      </trkpt>
      <trkpt lat="43.23795" lon="2.37406">
        <ele>97.6</ele>
        <time>2019-07-14T07:26:46.000Z</time>
      </trkpt>
      <trkpt lat="43.23795" lon="2.37404">
        <ele>97.7</ele>
        <time>2019-07-14T07:26:47.000Z</time>
      </trkpt>
      <trkpt lat="43.23794" lon="2.37401">
        <ele>97.7</ele>
        <time>2019-07-14T07:26:48.000Z</time>
      </trkpt>
      <trkpt lat="43.23794" lon="2.37399">
        <ele>97.8</ele>
        <time>2019-07-14T07:26:49.000Z</time>
      </trkpt>
      <trkpt lat="43.23793" lon="2.37397">
        <ele>97.8</ele>
        <time>2019-07-14T07:26:50.000Z</time>
      </trkpt>
      <trkpt lat="43.23793" lon="2.37395">
        <ele>97.9</ele>
        <time>2019-07-14T07:26:51.000Z</time>
      </trkpt>
      <trkpt lat="43.23793" lon="2.37394">
        <ele>97.9</ele>
        <time>2019-07-14T07:26:52.000Z</time>
      </trkpt>
      <trkpt lat="43.23792" lon="2.37393">
        <ele>97.9</ele>
        <time>2019-07-14T07:26:53.000Z</time>
      </trkpt>
      <trkpt lat="43.23792" lon="2.37392">
        <ele>97.9</ele>
        <time>2019-07-14T07:26:54.000Z</time>
      </trkpt>
      <trkpt lat="43.23791" lon="2.37392">
        <ele>98</ele>
        <time>2019-07-14T07:26:55.000Z</time>
      </trkpt>
      <trkpt lat="43.23791" lon="2.3739">
        <ele>98</ele>
        <time>2019-07-14T07:26:56.000Z</time>
      </trkpt>
      <trkpt lat="43.2379" lon="2.37389">
        <ele>98</ele>
        <time>2019-07-14T07:26:57.000Z</time>
      </trkpt>
      <trkpt lat="43.23789" lon="2.37388">
        <ele>98.1</ele>
        <time>2019-07-14T07:26:58.000Z</time>
      </trkpt>
      <trkpt lat="43.23789" lon="2.37386">
        <ele>98.1</ele>
        <time>2019-07-14T07:26:59.000Z</time>
      </trkpt>
      <trkpt lat="43.23788" lon="2.37385">
        <ele>98.2</ele>
        <time>2019-07-14T07:27:00.000Z</time>
      </trkpt>
      <trkpt lat="43.23787" lon="2.37383">
        <ele>98.2</ele>
        <time>2019-07-14T07:27:01.000Z</time>
      </trkpt>
      <trkpt lat="43.23786" lon="2.37381">
        <ele>98.3</ele>
        <time>2019-07-14T07:27:02.000Z</time>
      </trkpt>
      <trkpt lat="43.23786" lon="2.3738">
        <ele>98.3</ele>
        <time>2019-07-14T07:27:03.000Z</time>
      </trkpt>
      <trkpt lat="43.23785" lon="2.37378">
        <ele>98.4</ele>
        <time>2019-07-14T07:27:04.000Z</time>
      </trkpt>
      <trkpt lat="43.23784" lon="2.37376">
        <ele>98.5</ele>
        <time>2019-07-14T07:27:05.000Z</time>
      </trkpt>
      <trkpt lat="43.23783" lon="2.37375">
        <ele>98.5</ele>
        <time>2019-07-14T07:27:06.000Z</time>
      </trkpt>
      <trkpt lat="43.23783" lon="2.37374">
        <ele>98.6</ele>
        <time>2019-07-14T07:27:07.000Z</time>
      </trkpt>
      <trkpt lat="43.23782" lon="2.37372">
        <ele>98.6</ele>
        <time>2019-07-14T07:27:08.000Z</time>
      </trkpt>
      <trkpt lat="43.23781" lon="2.37371">
        <ele>98.7</ele>
        <time>2019-07-14T07:27:09.000Z</time>
      </trkpt>
      <trkpt lat="43.23781" lon="2.37369">
        <ele>98.7</ele>
        <time>2019-07-14T07:27:10.000Z</time>
      </trkpt>
      <trkpt lat="43.2378" lon="2.37368">
        <ele>98.8</ele>
        <time>2019-07-14T07:27:11.000Z</time>
      </trkpt>
      <trkpt lat="43.23779" lon="2.37366">
        <ele>98.8</ele>
        <time>2019-07-14T07:27:12.000Z</time>
      </trkpt>
      <trkpt lat="43.23779" lon="2.37365">
        <ele>98.9</ele>
        <time>2019-07-14T07:27:13.000Z</time>
      </trkpt>
      <trkpt lat="43.23778" lon="2.37363">
        <ele>98.9</ele>
        <time>2019-07-14T07:27:14.000Z</time>
      </trkpt>
      <trkpt lat="43.23778" lon="2.37362">
        <ele>99</ele>
        <time>2019-07-14T07:27:15.000Z</time>
      </trkpt>
      <trkpt lat="43.23777" lon="2.3736">
        <ele>99</ele>
        <time>2019-07-14T07:27:16.000Z</time>
      </trkpt>
      <trkpt lat="43.23776" lon="2.37359">
        <ele>99.1</ele>
        <time>2019-07-14T07:27:17.000Z</time>
      </trkpt>
      <trkpt lat="43.23776" lon="2.37358">
        <ele>99.2</ele>
        <time>2019-07-14T07:27:18.000Z</time>
      </trkpt>
      <trkpt lat="43.23775" lon="2.37356">
        <ele>99.2</ele>
        <time>2019-07-14T07:27:19.000Z</time>
      </trkpt>
      <trkpt lat="43.23775" lon="2.37355">
        <ele>99.3</ele>
        <time>2019-07-14T07:27:20.000Z</time>
      </trkpt>
      <trkpt lat="43.23774" lon="2.37354">
        <ele>99.3</ele>
        <time>2019-07-14T07:27:21.000Z</time>
      </trkpt>
      <trkpt lat="43.23774" lon="2.37352">
        <ele>99.4</ele>
        <time>2019-07-14T07:27:22.000Z</time>
      </trkpt>
      <trkpt lat="43.23773" lon="2.37351">
        <ele>99.4</ele>
        <time>2019-07-14T07:27:23.000Z</time>
      </trkpt>
      <trkpt lat="43.23773" lon="2.37351">
        <ele>99.5</ele>
        <time>2019-07-14T07:27:24.000Z</time>
      </trkpt>
      <trkpt lat="43.23773" lon="2.3735">
        <ele>99.5</ele>
        <time>2019-07-14T07:27:25.000Z</time>
      </trkpt>
      <trkpt lat="43.23773" lon="2.37349">
        <ele>99.5</ele>
        <time>2019-07-14T07:27:26.000Z</time>
      </trkpt>
      <trkpt lat="43.23772" lon="2.37349">
        <ele>99.5</ele>
        <time>2019-07-14T07:27:27.000Z</time>
      </trkpt>
      <trkpt lat="43.23772" lon="2.37349">
        <ele>99.5</ele>
        <time>2019-07-14T07:27:28.000Z</time>
      </trkpt>
      <trkpt lat="43.23772" lon="2.37349">
        <ele>99.5</ele>
        <time>2019-07-14T07:27:29.000Z</time>
      </trkpt>
      <trkpt lat="43.23773" lon="2.37349">
        <ele>99.5</ele>
        <time>2019-07-14T07:27:30.000Z</time>
      </trkpt>
      <trkpt lat="43.23773" lon="2.3735">
        <ele>99.5</ele>
        <time>2019-07-14T07:27:31.000Z</time>
      </trkpt>
      <trkpt lat="43.23773" lon="2.3735">
        <ele>99.5</ele>
        <time>2019-07-14T07:27:32.000Z</time>
      </trkpt>
      <trkpt lat="43.23773" lon="2.3735">
        <ele>99.4</ele>
        <time>2019-07-14T07:27:33.000Z</time>
      </trkpt>
      <trkpt lat="43.23774" lon="2.37351">
        <ele>99.4</ele>
        <time>2019-07-14T07:27:34.000Z</time>
      </trkpt>
      <trkpt lat="43.23774" lon="2.37351">
        <ele>99.4</ele>
        <time>2019-07-14T07:27:35.000Z</time>
      </trkpt>
      <trkpt lat="43.23774" lon="2.37352">
        <ele>99.4</ele>
        <time>2019-07-14T07:27:36.000Z</time>
      </trkpt>
      <trkpt lat="43.23774" lon="2.37352">
        <ele>99.4</ele>
        <time>2019-07-14T07:27:37.000Z</time>
      </trkpt>
      <trkpt lat="43.23775" lon="2.37353">
        <ele>99.3</ele>
        <time>2019-07-14T07:27:38.000Z</time>
      </trkpt>
      <trkpt lat="43.23775" lon="2.37353">
        <ele>99.3</ele>
        <time>2019-07-14T07:27:39.000Z</time>
      </trkpt>
      <trkpt lat="43.23775" lon="2.37353">
        <ele>99.3</ele>
        <time>2019-07-14T07:27:40.000Z</time>
      </trkpt>
      <trkpt lat="43.23775" lon="2.37353">
        <ele>99.3</ele>
        <time>2019-07-14T07:27:41.000Z</time>
      </trkpt>
      <trkpt lat="43.23775" lon="2.37353">
        <ele>99.3</ele>
        <time>2019-07-14T07:27:42.000Z</time>
      </trkpt>
      <trkpt lat="43.23775" lon="2.37353">
        <ele>99.3</ele>
        <time>2019-07-14T07:27:43.000Z</time>
      </trkpt>
      <trkpt lat="43.23775" lon="2.37353">
        <ele>99.3</ele>
        <time>2019-07-14T07:27:44.000Z</time>
      </trkpt>
      <trkpt lat="43.23775" lon="2.37352">
        <ele>99.3</ele>
        <time>2019-07-14T07:27:45.000Z</time>
      </trkpt>
      <trkpt lat="43.23775" lon="2.37352">
        <ele>99.3</ele>
        <time>2019-07-14T07:27:46.000Z</time>
      </trkpt>
      <trkpt lat="43.23775" lon="2.37351">
        <ele>99.4</ele>
        <time>2019-07-14T07:27:47.000Z</time>
      </trkpt>
      <trkpt lat="43.23775" lon="2.3735">
        <ele>99.4</ele>
        <time>2019-07-14T07:27:48.000Z</time>
      </trkpt>
      <trkpt lat="43.23774" lon="2.37349">
        <ele>99.4</ele>
        <time>2019-07-14T07:27:49.000Z</time>
      </trkpt>
      <trkpt lat="43.23774" lon="2.37348">
        <ele>99.5</ele>
        <time>2019-07-14T07:27:50.000Z</time>
      </trkpt>
      <trkpt lat="43.23774" lon="2.37347">
        <ele>99.5</ele>
        <time>2019-07-14T07:27:51.000Z</time>
      </trkpt>
      <trkpt lat="43.23773" lon="2.37346">
        <ele>99.6</ele>
        <time>2019-07-14T07:27:52.000Z</time>
      </trkpt>
      <trkpt lat="43.23773" lon="2.37345">
        <ele>99.6</ele>
        <time>2019-07-14T07:27:53.000Z</time>
      </trkpt>
      <trkpt lat="43.23772" lon="2.37344">
        <ele>99.7</ele>
        <time>2019-07-14T07:27:54.000Z</time>
      </trkpt>
      <trkpt lat="43.23771" lon="2.37343">
        <ele>99.7</ele>
        <time>2019-07-14T07:27:55.000Z</time>
      </trkpt>
      <trkpt lat="43.23771" lon="2.37341">
        <ele>99.8</ele>
        <time>2019-07-14T07:27:56.000Z</time>
      </trkpt>
      <trkpt lat="43.2377" lon="2.3734">
        <ele>99.9</ele>
        <time>2019-07-14T07:27:57.000Z</time>
      </trkpt>
      <trkpt lat="43.23769" lon="2.37338">
        <ele>99.9</ele>
        <time>2019-07-14T07:27:58.000Z</time>
      </trkpt>
      <trkpt lat="43.23769" lon="2.37337">
        <ele>100</ele>
        <time>2019-07-14T07:27:59.000Z</time>
      </trkpt>
      <trkpt lat="43.23768" lon="2.37335">
        <ele>100.1</ele>
        <time>2019-07-14T07:28:00.000Z</time>
      </trkpt>
      <trkpt lat="43.23767" lon="2.37334">
        <ele>100.2</ele>
        <time>2019-07-14T07:28:01.000Z</time>
      </trkpt>
      <trkpt lat="43.23766" lon="2.37332">
        <ele>100.2</ele>
        <time>2019-07-14T07:28:02.000Z</time>
      </trkpt>
      <trkpt lat="43.23766" lon="2.37331">
        <ele>100.3</ele>
        <time>2019-07-14T07:28:03.000Z</time>
      </trkpt>
      <trkpt lat="43.23765" lon="2.3733">
        <ele>100.3</ele>
        <time>2019-07-14T07:28:04.000Z</time>
      </trkpt>
      <trkpt lat="43.23765" lon="2.37329">
        <ele>100.3</ele>
        <time>2019-07-14T07:28:05.000Z</time>
      </trkpt>
      <trkpt lat="43.23765" lon="2.37329">
        <ele>100.4</ele>
        <time>2019-07-14T07:28:06.000Z</time>
      </trkpt>
      <trkpt lat="43.23764" lon="2.37328">
        <ele>100.4</ele>
        <time>2019-07-14T07:28:07.000Z</time>
      </trkpt>
      <trkpt lat="43.23764" lon="2.37328">
        <ele>100.4</ele>
        <time>2019-07-14T07:28:08.000Z</time>
      </trkpt>
      <trkpt lat="43.23764" lon="2.37328">
        <ele>100.4</ele>
        <time>2019-07-14T07:28:09.000Z</time>
      </trkpt>
      <trkpt lat="43.23765" lon="2.37328">
        <ele>100.4</ele>
        <time>2019-07-14T07:28:10.000Z</time>
      </trkpt>
      <trkpt lat="43.23765" lon="2.37328">
        <ele>100.4</ele>
        <time>2019-07-14T07:28:11.000Z</time>
      </trkpt>
      <trkpt lat="43.23765" lon="2.37328">
        <ele>100.4</ele>
        <time>2019-07-14T07:28:12.000Z</time>
      </trkpt>
      <trkpt lat="43.23765" lon="2.37328">
        <ele>100.4</ele>
        <time>2019-07-14T07:28:13.000Z</time>
      </trkpt>
      <trkpt lat="43.23765" lon="2.37328">
        <ele>100.4</ele>
        <time>2019-07-14T07:28:14.000Z</time>
      </trkpt>
      <trkpt lat="43.23765" lon="2.37328">
        <ele>100.4</ele>
        <time>2019-07-14T07:28:15.000Z</time>
      </trkpt>
      <trkpt lat="43.23765" lon="2.37328">
        <ele>100.4</ele>
        <time>2019-07-14T07:28:16.000Z</time>
      </trkpt>
      <trkpt lat="43.23765" lon="2.37328">
        <ele>100.4</ele>
        <time>2019-07-14T07:28:17.000Z</time>
      </trkpt>
      <trkpt lat="43.23765" lon="2.37328">
        <ele>100.4</ele>
        <time>2019-07-14T07:28:18.000Z</time>
      </trkpt>
      <trkpt lat="43.23764" lon="2.37328">
        <ele>100.4</ele>
        <time>2019-07-14T07:28:19.000Z</time>
      </trkpt>
      <trkpt lat="43.23764" lon="2.37327">
        <ele>100.4</ele>
        <time>2019-07-14T07:28:20.000Z</time>
      </trkpt>
      <trkpt lat="43.23764" lon="2.37327">
        <ele>100.4</ele>
        <time>2019-07-14T07:28:21.000Z</time>
      </trkpt>
      <trkpt lat="43.23764" lon="2.37326">
        <ele>100.4</ele>
        <time>2019-07-14T07:28:22.000Z</time>
      </trkpt>
      <trkpt lat="43.23763" lon="2.37325">
        <ele>100.5</ele>
        <time>2019-07-14T07:28:23.000Z</time>
      </trkpt>
      <trkpt lat="43.23763" lon="2.37325">
        <ele>100.5</ele>
        <time>2019-07-14T07:28:24.000Z</time>
      </trkpt>
      <trkpt lat="43.23762" lon="2.37324">
        <ele>100.5</ele>
        <time>2019-07-14T07:28:25.000Z</time>
      </trkpt>
      <trkpt lat="43.23762" lon="2.37323">
        <ele>100.6</ele>
        <time>2019-07-14T07:28:26.000Z</time>
      </trkpt>
      <trkpt lat="43.23761" lon="2.37322">
        <ele>100.6</ele>
        <time>2019-07-14T07:28:27.000Z</time>
      </trkpt>
      <trkpt lat="43.23761" lon="2.3732">
        <ele>100.7</ele>
        <time>2019-07-14T07:28:28.000Z</time>
      </trkpt>
      <trkpt lat="43.2376" lon="2.37319">
        <ele>100.7</ele>
        <time>2019-07-14T07:28:29.000Z</time>
      </trkpt>
      <trkpt lat="43.2376" lon="2.37318">
        <ele>100.7</ele>
        <time>2019-07-14T07:28:30.000Z</time>
      </trkpt>
      <trkpt lat="43.23759" lon="2.37316">
        <ele>100.8</ele>
        <time>2019-07-14T07:28:31.000Z</time>
      </trkpt>
      <trkpt lat="43.23758" lon="2.37315">
        <ele>100.9</ele>
        <time>2019-07-14T07:28:32.000Z</time>
      </trkpt>
      <trkpt lat="43.23757" lon="2.37313">
        <ele>100.9</ele>
        <time>2019-07-14T07:28:33.000Z</time>
      </trkpt>
      <trkpt lat="43.23757" lon="2.37311">
        <ele>101</ele>
        <time>2019-07-14T07:28:34.000Z</time>
      </trkpt>
      <trkpt lat="43.23756" lon="2.3731">
        <ele>101</ele>
        <time>2019-07-14T07:28:35.000Z</time>
      </trkpt>
      <trkpt lat="43.23755" lon="2.37308">
        <ele>101.1</ele>
        <time>2019-07-14T07:28:36.000Z</time>
      </trkpt>
      <trkpt lat="43.23754" lon="2.37307">
        <ele>101.1</ele>
        <time>2019-07-14T07:28:37.000Z</time>
      </trkpt>
      <trkpt lat="43.23753" lon="2.37305">
        <ele>101.2</ele>
        <time>2019-07-14T07:28:38.000Z</time>
      </trkpt>
      <trkpt lat="43.23753" lon="2.37304">
        <ele>101.2</ele>
        <time>2019-07-14T07:28:39.000Z</time>
      </trkpt>
      <trkpt lat="43.23752" lon="2.37303">
        <ele>101.3</ele>
        <time>2019-07-14T07:28:40.000Z</time>
      </trkpt>
      <trkpt lat="43.23751" lon="2.37302">
        <ele>101.3</ele>
        <time>2019-07-14T07:28:41.000Z</time>
      </trkpt>
      <trkpt lat="43.2375" lon="2.37301">
        <ele>101.4</ele>
        <time>2019-07-14T07:28:42.000Z</time>
      </trkpt>
      <trkpt lat="43.23749" lon="2.373">
        <ele>101.4</ele>
        <time>2019-07-14T07:28:43.000Z</time>
      </trkpt>
      <trkpt lat="43.23748" lon="2.37299">
        <ele>101.4</ele>
        <time>2019-07-14T07:28:44.000Z</time>
      </trkpt>
      <trkpt lat="43.23748" lon="2.37298">
        <ele>101.4</ele>
        <time>2019-07-14T07:28:45.000Z</time>
      </trkpt>
      <trkpt lat="43.23747" lon="2.37297">
        <ele>101.4</ele>
        <time>2019-07-14T07:28:46.000Z</time>
      </trkpt>
      <trkpt lat="43.23746" lon="2.37296">
        <ele>101.4</ele>
        <time>2019-07-14T07:28:47.000Z</time>
      </trkpt>
      <trkpt lat="43.23745" lon="2.37296">
        <ele>101.4</ele>
        <time>2019-07-14T07:28:48.000Z</time>
      </trkpt>
      <trkpt lat="43.23745" lon="2.37295">
        <ele>101.4</ele>
        <time>2019-07-14T07:28:49.000Z</time>
      </trkpt>
      <trkpt lat="43.23744" lon="2.37294">
        <ele>101.4</ele>
        <time>2019-07-14T07:28:50.000Z</time>
      </trkpt>
      <trkpt lat="43.23743" lon="2.37293">
        <ele>101.4</ele>
        <time>2019-07-14T07:28:51.000Z</time>
      </trkpt>
      <trkpt lat="43.23742" lon="2.37293">
        <ele>101.4</ele>
        <time>2019-07-14T07:28:52.000Z</time>
      </trkpt>
      <trkpt lat="43.23741" lon="2.37292">
        <ele>101.4</ele>
        <time>2019-07-14T07:28:53.000Z</time>
      </trkpt>
      <trkpt lat="43.2374" lon="2.37291">
        <ele>101.4</ele>
        <time>2019-07-14T07:28:54.000Z</time>
      </trkpt>
      <trkpt lat="43.23739" lon="2.3729">
        <ele>101.5</ele>
        <time>2019-07-14T07:28:55.000Z</time>
      </trkpt>
      <trkpt lat="43.23738" lon="2.3729">
        <ele>101.5</ele>
        <time>2019-07-14T07:28:56.000Z</time>
      </trkpt>
      <trkpt lat="43.23737" lon="2.37289">
        <ele>101.5</ele>
        <time>2019-07-14T07:28:57.000Z</time>
      </trkpt>
      <trkpt lat="43.23735" lon="2.37287">
        <ele>101.5</ele>
        <time>2019-07-14T07:28:58.000Z</time>
      </trkpt>
      <trkpt lat="43.23734" lon="2.37286">
        <ele>101.5</ele>
        <time>2019-07-14T07:28:59.000Z</time>
      </trkpt>
      <trkpt lat="43.23732" lon="2.37285">
        <ele>101.5</ele>
        <time>2019-07-14T07:29:00.000Z</time>
      </trkpt>
      <trkpt lat="43.23731" lon="2.37283">
        <ele>101.5</ele>
        <time>2019-07-14T07:29:01.000Z</time>
      </trkpt>
      <trkpt lat="43.23729" lon="2.37282">
        <ele>101.5</ele>
        <time>2019-07-14T07:29:02.000Z</time>
      </trkpt>
      <trkpt lat="43.23727" lon="2.3728">
        <ele>101.5</ele>
        <time>2019-07-14T07:29:03.000Z</time>
      </trkpt>
      <trkpt lat="43.23725" lon="2.37278">
        <ele>101.6</ele>
        <time>2019-07-14T07:29:04.000Z</time>
      </trkpt>
      <trkpt lat="43.23723" lon="2.37277">
        <ele>101.6</ele>
        <time>2019-07-14T07:29:05.000Z</time>
      </trkpt>
      <trkpt lat="43.23722" lon="2.37275">
        <ele>101.6</ele>
        <time>2019-07-14T07:29:06.000Z</time>
      </trkpt>
      <trkpt lat="43.2372" lon="2.37273">
        <ele>101.6</ele>
        <time>2019-07-14T07:29:07.000Z</time>
      </trkpt>
      <trkpt lat="43.23718" lon="2.37272">
        <ele>101.6</ele>
        <time>2019-07-14T07:29:08.000Z</time>
      </trkpt>
      <trkpt lat="43.23716" lon="2.3727">
        <ele>101.7</ele>
        <time>2019-07-14T07:29:09.000Z</time>
      </trkpt>
      <trkpt lat="43.23714" lon="2.37269">
        <ele>101.7</ele>
        <time>2019-07-14T07:29:10.000Z</time>
      </trkpt>
      <trkpt lat="43.23712" lon="2.37268">
        <ele>101.7</ele>
        <time>2019-07-14T07:29:11.000Z</time>
      </trkpt>
      <trkpt lat="43.2371" lon="2.37267">
        <ele>101.7</ele>
        <time>2019-07-14T07:29:12.000Z</time>
      </trkpt>
      <trkpt lat="43.23708" lon="2.37265">
        <ele>101.7</ele>
        <time>2019-07-14T07:29:13.000Z</time>
      </trkpt>
      <trkpt lat="43.23706" lon="2.37264">
        <ele>101.7</ele>
        <time>2019-07-14T07:29:14.000Z</time>
      </trkpt>
      <trkpt lat="43.23704" lon="2.37264">
        <ele>101.7</ele>
        <time>2019-07-14T07:29:15.000Z</time>
      </trkpt>
      <trkpt lat="43.23702" lon="2.37263">
        <ele>101.8</ele>
        <time>2019-07-14T07:29:16.000Z</time>
      </trkpt>
      <trkpt lat="43.23699" lon="2.37262">
        <ele>101.8</ele>
        <time>2019-07-14T07:29:17.000Z</time>
      </trkpt>
      <trkpt lat="43.23697" lon="2.37261">
        <ele>101.8</ele>
        <time>2019-07-14T07:29:18.000Z</time>
      </trkpt>
      <trkpt lat="43.23695" lon="2.3726">
        <ele>101.8</ele>
        <time>2019-07-14T07:29:19.000Z</time>
      </trkpt>
      <trkpt lat="43.23693" lon="2.3726">
        <ele>101.8</ele>
        <time>2019-07-14T07:29:20.000Z</time>
      </trkpt>
      <trkpt lat="43.2369" lon="2.37259">
        <ele>101.8</ele>
        <time>2019-07-14T07:29:21.000Z</time>
      </trkpt>
      <trkpt lat="43.23688" lon="2.37259">
        <ele>101.8</ele>
        <time>2019-07-14T07:29:22.000Z</time>
      </trkpt>
      <trkpt lat="43.23686" lon="2.37258">
        <ele>101.8</ele>
        <time>2019-07-14T07:29:23.000Z</time>
      </trkpt>
      <trkpt lat="43.23683" lon="2.37258">
        <ele>101.8</ele>
        <time>2019-07-14T07:29:24.000Z</time>
      </trkpt>
      <trkpt lat="43.23681" lon="2.37258">
        <ele>101.8</ele>
        <time>2019-07-14T07:29:25.000Z</time>
      </trkpt>
      <trkpt lat="43.23679" lon="2.37257">
        <ele>101.8</ele>
        <time>2019-07-14T07:29:26.000Z</time>
      </trkpt>
      <trkpt lat="43.23676" lon="2.37257">
        <ele>101.8</ele>
        <time>2019-07-14T07:29:27.000Z</time>
      </trkpt>
      <trkpt lat="43.23674" lon="2.37257">
        <ele>101.8</ele>
        <time>2019-07-14T07:29:28.000Z</time>
      </trkpt>
      <trkpt lat="43.23672" lon="2.37257">
        <ele>101.8</ele>
        <time>2019-07-14T07:29:29.000Z</time>
      </trkpt>
      <trkpt lat="43.23669" lon="2.37257">
        <ele>101.8</ele>
        <time>2019-07-14T07:29:30.000Z</time>
      </trkpt>
      <trkpt lat="43.23667" lon="2.37257">
        <ele>101.8</ele>
        <time>2019-07-14T07:29:31.000Z</time>
      </trkpt>
      <trkpt lat="43.23665" lon="2.37257">
        <ele>101.9</ele>
        <time>2019-07-14T07:29:32.000Z</time>
      </trkpt>
      <trkpt lat="43.23663" lon="2.37258">
        <ele>101.9</ele>
        <time>2019-07-14T07:29:33.000Z</time>
      </trkpt>
      <trkpt lat="43.23661" lon="2.37258">
        <ele>102</ele>
        <time>2019-07-14T07:29:34.000Z</time>
      </trkpt>
      <trkpt lat="43.23659" lon="2.37258">
        <ele>102.1</ele>
        <time>2019-07-14T07:29:35.000Z</time>
      </trkpt>
      <trkpt lat="43.23657" lon="2.37259">
        <ele>102.1</ele>
        <time>2019-07-14T07:29:36.000Z</time>
      </trkpt>
      <trkpt lat="43.23654" lon="2.3726">
        <ele>102.2</ele>
        <time>2019-07-14T07:29:37.000Z</time>
      </trkpt>
      <trkpt lat="43.23652" lon="2.3726">
        <ele>102.2</ele>
        <time>2019-07-14T07:29:38.000Z</time>
      </trkpt>
      <trkpt lat="43.23649" lon="2.37261">
        <ele>102.3</ele>
        <time>2019-07-14T07:29:39.000Z</time>
      </trkpt>
      <trkpt lat="43.23647" lon="2.37263">
        <ele>102.3</ele>
        <time>2019-07-14T07:29:40.000Z</time>
      </trkpt>
      <trkpt lat="43.23644" lon="2.37264">
        <ele>102.4</ele>
        <time>2019-07-14T07:29:41.000Z</time>
      </trkpt>
      <trkpt lat="43.23641" lon="2.37265">
        <ele>102.4</ele>
        <time>2019-07-14T07:29:42.000Z</time>
      </trkpt>
      <trkpt lat="43.23638" lon="2.37267">
        <ele>102.4</ele>
        <time>2019-07-14T07:29:43.000Z</time>
      </trkpt>
      <trkpt lat="43.23635" lon="2.37268">
        <ele>102.5</ele>
        <time>2019-07-14T07:29:44.000Z</time>
      </trkpt>
      <trkpt lat="43.23632" lon="2.37269">
        <ele>102.5</ele>
        <time>2019-07-14T07:29:45.000Z</time>
      </trkpt>
      <trkpt lat="43.2363" lon="2.37271">
        <ele>102.5</ele>
        <time>2019-07-14T07:29:46.000Z</time>
      </trkpt>
      <trkpt lat="43.23627" lon="2.37272">
        <ele>102.5</ele>
        <time>2019-07-14T07:29:47.000Z</time>
      </trkpt>
      <trkpt lat="43.23625" lon="2.37273">
        <ele>102.6</ele>
        <time>2019-07-14T07:29:48.000Z</time>
      </trkpt>
      <trkpt lat="43.23623" lon="2.37273">
        <ele>102.6</ele>
        <time>2019-07-14T07:29:49.000Z</time>
      </trkpt>
      <trkpt lat="43.23621" lon="2.37274">
        <ele>102.6</ele>
        <time>2019-07-14T07:29:50.000Z</time>
      </trkpt>
      <trkpt lat="43.23619" lon="2.37275">
        <ele>102.6</ele>
        <time>2019-07-14T07:29:51.000Z</time>
      </trkpt>
      <trkpt lat="43.23617" lon="2.37276">
        <ele>102.6</ele>
        <time>2019-07-14T07:29:52.000Z</time>
      </trkpt>
      <trkpt lat="43.23615" lon="2.37277">
        <ele>102.6</ele>
        <time>2019-07-14T07:29:53.000Z</time>
      </trkpt>
      <trkpt lat="43.23613" lon="2.37278">
        <ele>102.6</ele>
        <time>2019-07-14T07:29:54.000Z</time>
      </trkpt>
      <trkpt lat="43.2361" lon="2.37279">
        <ele>102.6</ele>
        <time>2019-07-14T07:29:55.000Z</time>
      </trkpt>
      <trkpt lat="43.23608" lon="2.3728">
        <ele>102.6</ele>
        <time>2019-07-14T07:29:56.000Z</time>
      </trkpt>
      <trkpt lat="43.23605" lon="2.37281">
        <ele>102.6</ele>
        <time>2019-07-14T07:29:57.000Z</time>
      </trkpt>
      <trkpt lat="43.23602" lon="2.37283">
        <ele>102.6</ele>
        <time>2019-07-14T07:29:58.000Z</time>
      </trkpt>
      <trkpt lat="43.236" lon="2.37284">
        <ele>102.6</ele>
        <time>2019-07-14T07:29:59.000Z</time>
      </trkpt>
      <trkpt lat="43.23597" lon="2.37285">
        <ele>102.6</ele>
        <time>2019-07-14T07:30:00.000Z</time>
      </trkpt>
      <trkpt lat="43.23594" lon="2.37287">
        <ele>102.6</ele>
        <time>2019-07-14T07:30:01.000Z</time>
      </trkpt>
      <trkpt lat="43.23592" lon="2.37288">
        <ele>102.6</ele>
        <time>2019-07-14T07:30:02.000Z</time>
      </trkpt>
      <trkpt lat="43.23589" lon="2.37289">
        <ele>102.5</ele>
        <time>2019-07-14T07:30:03.000Z</time>
      </trkpt>
      <trkpt lat="43.23587" lon="2.3729">
        <ele>102.5</ele>
        <time>2019-07-14T07:30:04.000Z</time>
      </trkpt>
      <trkpt lat="43.23585" lon="2.37291">
        <ele>102.5</ele>
        <time>2019-07-14T07:30:05.000Z</time>
      </trkpt>
      <trkpt lat="43.23583" lon="2.37293">
        <ele>102.5</ele>
        <time>2019-07-14T07:30:06.000Z</time>
      </trkpt>
      <trkpt lat="43.23581" lon="2.37294">
        <ele>102.5</ele>
        <time>2019-07-14T07:30:07.000Z</time>
      </trkpt>
      <trkpt lat="43.23578" lon="2.37295">
        <ele>102.4</ele>
        <time>2019-07-14T07:30:08.000Z</time>
      </trkpt>
      <trkpt lat="43.23576" lon="2.37296">
        <ele>102.4</ele>
        <time>2019-07-14T07:30:09.000Z</time>
      </trkpt>
      <trkpt lat="43.23574" lon="2.37297">
        <ele>102.4</ele>
        <time>2019-07-14T07:30:10.000Z</time>
      </trkpt>
      <trkpt lat="43.23572" lon="2.37298">
        <ele>102.4</ele>
        <time>2019-07-14T07:30:11.000Z</time>
      </trkpt>
      <trkpt lat="43.23569" lon="2.37299">
        <ele>102.4</ele>
        <time>2019-07-14T07:30:12.000Z</time>
      </trkpt>
      <trkpt lat="43.23567" lon="2.373">
        <ele>102.4</ele>
        <time>2019-07-14T07:30:13.000Z</time>
      </trkpt>
      <trkpt lat="43.23564" lon="2.37301">
        <ele>102.4</ele>
        <time>2019-07-14T07:30:14.000Z</time>
      </trkpt>
      <trkpt lat="43.23562" lon="2.37302">
        <ele>102.4</ele>
        <time>2019-07-14T07:30:15.000Z</time>
      </trkpt>
      <trkpt lat="43.23559" lon="2.37303">
        <ele>102.4</ele>
        <time>2019-07-14T07:30:16.000Z</time>
      </trkpt>
      <trkpt lat="43.23557" lon="2.37305">
        <ele>102.4</ele>
        <time>2019-07-14T07:30:17.000Z</time>
      </trkpt>
      <trkpt lat="43.23555" lon="2.37306">
        <ele>102.3</ele>
        <time>2019-07-14T07:30:18.000Z</time>
      </trkpt>
      <trkpt lat="43.23552" lon="2.37307">
        <ele>102.3</ele>
        <time>2019-07-14T07:30:19.000Z</time>
      </trkpt>
      <trkpt lat="43.2355" lon="2.37308">
        <ele>102.3</ele>
        <time>2019-07-14T07:30:20.000Z</time>
      </trkpt>
      <trkpt lat="43.23548" lon="2.37309">
        <ele>102.3</ele>
        <time>2019-07-14T07:30:21.000Z</time>
      </trkpt>
      <trkpt lat="43.23545" lon="2.37311">
        <ele>102.3</ele>
        <time>2019-07-14T07:30:22.000Z</time>
      </trkpt>
      <trkpt lat="43.23543" lon="2.37312">
        <ele>102.3</ele>
        <time>2019-07-14T07:30:23.000Z</time>
      </trkpt>
      <trkpt lat="43.23541" lon="2.37313">
        <ele>102.2</ele>
        <time>2019-07-14T07:30:24.000Z</time>
      </trkpt>
      <trkpt lat="43.23538" lon="2.37314">
        <ele>102.2</ele>
        <time>2019-07-14T07:30:25.000Z</time>
      </trkpt>
      <trkpt lat="43.23536" lon="2.37316">
        <ele>102.2</ele>
        <time>2019-07-14T07:30:26.000Z</time>
      </trkpt>
      <trkpt lat="43.23533" lon="2.37317">
        <ele>102.2</ele>
        <time>2019-07-14T07:30:27.000Z</time>
      </trkpt>
      <trkpt lat="43.23531" lon="2.37319">
        <ele>102.1</ele>
        <time>2019-07-14T07:30:28.000Z</time>
      </trkpt>
      <trkpt lat="43.23528" lon="2.3732">
        <ele>102.1</ele>
        <time>2019-07-14T07:30:29.000Z</time>
      </trkpt>
      <trkpt lat="43.23526" lon="2.37321">
        <ele>102.1</ele>
        <time>2019-07-14T07:30:30.000Z</time>
      </trkpt>
      <trkpt lat="43.23523" lon="2.37323">
        <ele>102.1</ele>
        <time>2019-07-14T07:30:31.000Z</time>
      </trkpt>
      <trkpt lat="43.23521" lon="2.37324">
        <ele>102.1</ele>
        <time>2019-07-14T07:30:32.000Z</time>
      </trkpt>
      <trkpt lat="43.23519" lon="2.37325">
        <ele>102.1</ele>
        <time>2019-07-14T07:30:33.000Z</time>
      </trkpt>
      <trkpt lat="43.23516" lon="2.37326">
        <ele>102.1</ele>
        <time>2019-07-14T07:30:34.000Z</time>
      </trkpt>
      <trkpt lat="43.23514" lon="2.37327">
        <ele>102.1</ele>
        <time>2019-07-14T07:30:35.000Z</time>
      </trkpt>
      <trkpt lat="43.23512" lon="2.37327">
        <ele>102.1</ele>
        <time>2019-07-14T07:30:36.000Z</time>
      </trkpt>
      <trkpt lat="43.2351" lon="2.37328">
        <ele>102.1</ele>
        <time>2019-07-14T07:30:37.000Z</time>
      </trkpt>
      <trkpt lat="43.23507" lon="2.37329">
        <ele>102.1</ele>
        <time>2019-07-14T07:30:38.000Z</time>
      </trkpt>
      <trkpt lat="43.23505" lon="2.3733">
        <ele>102.1</ele>
        <time>2019-07-14T07:30:39.000Z</time>
      </trkpt>
      <trkpt lat="43.23503" lon="2.3733">
        <ele>102.1</ele>
        <time>2019-07-14T07:30:40.000Z</time>
      </trkpt>
      <trkpt lat="43.23501" lon="2.37331">
        <ele>102.1</ele>
        <time>2019-07-14T07:30:41.000Z</time>
      </trkpt>
      <trkpt lat="43.23499" lon="2.37333">
        <ele>102.1</ele>
        <time>2019-07-14T07:30:42.000Z</time>
      </trkpt>
      <trkpt lat="43.23497" lon="2.37334">
        <ele>102.2</ele>
        <time>2019-07-14T07:30:43.000Z</time>
      </trkpt>
      <trkpt lat="43.23494" lon="2.37335">
        <ele>102.3</ele>
        <time>2019-07-14T07:30:44.000Z</time>
      </trkpt>
      <trkpt lat="43.23492" lon="2.37337">
        <ele>102.3</ele>
        <time>2019-07-14T07:30:45.000Z</time>
      </trkpt>
      <trkpt lat="43.2349" lon="2.37338">
        <ele>102.4</ele>
        <time>2019-07-14T07:30:46.000Z</time>
      </trkpt>
      <trkpt lat="43.23487" lon="2.3734">
        <ele>102.4</ele>
        <time>2019-07-14T07:30:47.000Z</time>
      </trkpt>
      <trkpt lat="43.23485" lon="2.37341">
        <ele>102.5</ele>
        <time>2019-07-14T07:30:48.000Z</time>
      </trkpt>
      <trkpt lat="43.23482" lon="2.37342">
        <ele>102.5</ele>
        <time>2019-07-14T07:30:49.000Z</time>
      </trkpt>
      <trkpt lat="43.2348" lon="2.37344">
        <ele>102.6</ele>
        <time>2019-07-14T07:30:50.000Z</time>
      </trkpt>
      <trkpt lat="43.23477" lon="2.37345">
        <ele>102.6</ele>
        <time>2019-07-14T07:30:51.000Z</time>
      </trkpt>
      <trkpt lat="43.23475" lon="2.37346">
        <ele>102.7</ele>
        <time>2019-07-14T07:30:52.000Z</time>
      </trkpt>
      <trkpt lat="43.23472" lon="2.37348">
        <ele>102.8</ele>
        <time>2019-07-14T07:30:53.000Z</time>
      </trkpt>
      <trkpt lat="43.23469" lon="2.37349">
        <ele>102.8</ele>
        <time>2019-07-14T07:30:54.000Z</time>
      </trkpt>
      <trkpt lat="43.23467" lon="2.3735">
        <ele>102.9</ele>
        <time>2019-07-14T07:30:55.000Z</time>
      </trkpt>
      <trkpt lat="43.23464" lon="2.37351">
        <ele>103</ele>
        <time>2019-07-14T07:30:56.000Z</time>
      </trkpt>
      <trkpt lat="43.23462" lon="2.37352">
        <ele>103</ele>
        <time>2019-07-14T07:30:57.000Z</time>
      </trkpt>
      <trkpt lat="43.23459" lon="2.37353">
        <ele>103</ele>
        <time>2019-07-14T07:30:58.000Z</time>
      </trkpt>
      <trkpt lat="43.23457" lon="2.37354">
        <ele>103.1</ele>
        <time>2019-07-14T07:30:59.000Z</time>
      </trkpt>
      <trkpt lat="43.23454" lon="2.37355">
        <ele>103.1</ele>
        <time>2019-07-14T07:31:00.000Z</time>
      </trkpt>
      <trkpt lat="43.23452" lon="2.37356">
        <ele>103.2</ele>
        <time>2019-07-14T07:31:01.000Z</time>
      </trkpt>
      <trkpt lat="43.2345" lon="2.37357">
        <ele>103.2</ele>
        <time>2019-07-14T07:31:02.000Z</time>
      </trkpt>
      <trkpt lat="43.23448" lon="2.37358">
        <ele>103.2</ele>
        <time>2019-07-14T07:31:03.000Z</time>
      </trkpt>
      <trkpt lat="43.23445" lon="2.37359">
        <ele>103.2</ele>
        <time>2019-07-14T07:31:04.000Z</time>
      </trkpt>
      <trkpt lat="43.23443" lon="2.3736">
        <ele>103.2</ele>
        <time>2019-07-14T07:31:05.000Z</time>
      </trkpt>
      <trkpt lat="43.23441" lon="2.37362">
        <ele>103.3</ele>
        <time>2019-07-14T07:31:06.000Z</time>
      </trkpt>
      <trkpt lat="43.23438" lon="2.37363">
        <ele>103.3</ele>
        <time>2019-07-14T07:31:07.000Z</time>
      </trkpt>
      <trkpt lat="43.23436" lon="2.37364">
        <ele>103.3</ele>
        <time>2019-07-14T07:31:08.000Z</time>
      </trkpt>
      <trkpt lat="43.23433" lon="2.37365">
        <ele>103.3</ele>
        <time>2019-07-14T07:31:09.000Z</time>
      </trkpt>
      <trkpt lat="43.23431" lon="2.37366">
        <ele>103.3</ele>
        <time>2019-07-14T07:31:10.000Z</time>
      </trkpt>
      <trkpt lat="43.23428" lon="2.37367">
        <ele>103.3</ele>
        <time>2019-07-14T07:31:11.000Z</time>
      </trkpt>
      <trkpt lat="43.23426" lon="2.37368">
        <ele>103.3</ele>
        <time>2019-07-14T07:31:12.000Z</time>
      </trkpt>
      <trkpt lat="43.23423" lon="2.37369">
        <ele>103.3</ele>
        <time>2019-07-14T07:31:13.000Z</time>
      </trkpt>
      <trkpt lat="43.23421" lon="2.3737">
        <ele>103.3</ele>
        <time>2019-07-14T07:31:14.000Z</time>
      </trkpt>
      <trkpt lat="43.23418" lon="2.37372">
        <ele>103.3</ele>
        <time>2019-07-14T07:31:15.000Z</time>
      </trkpt>
      <trkpt lat="43.23416" lon="2.37373">
        <ele>103.3</ele>
        <time>2019-07-14T07:31:16.000Z</time>
      </trkpt>
      <trkpt lat="43.23413" lon="2.37374">
        <ele>103.2</ele>
        <time>2019-07-14T07:31:17.000Z</time>
      </trkpt>
      <trkpt lat="43.23411" lon="2.37375">
        <ele>103.2</ele>
        <time>2019-07-14T07:31:18.000Z</time>
      </trkpt>
      <trkpt lat="43.23408" lon="2.37376">
        <ele>103.2</ele>
        <time>2019-07-14T07:31:19.000Z</time>
      </trkpt>
      <trkpt lat="43.23406" lon="2.37377">
        <ele>103.1</ele>
        <time>2019-07-14T07:31:20.000Z</time>
      </trkpt>
      <trkpt lat="43.23404" lon="2.37378">
        <ele>103.1</ele>
        <time>2019-07-14T07:31:21.000Z</time>
      </trkpt>
      <trkpt lat="43.23402" lon="2.37379">
        <ele>103.1</ele>
        <time>2019-07-14T07:31:22.000Z</time>
      </trkpt>
      <trkpt lat="43.234" lon="2.3738">
        <ele>103.1</ele>
        <time>2019-07-14T07:31:23.000Z</time>
      </trkpt>
      <trkpt lat="43.23397" lon="2.37381">
        <ele>103</ele>
        <time>2019-07-14T07:31:24.000Z</time>
      </trkpt>
      <trkpt lat="43.23395" lon="2.37382">
        <ele>103</ele>
        <time>2019-07-14T07:31:25.000Z</time>
      </trkpt>
      <trkpt lat="43.23393" lon="2.37383">
        <ele>103</ele>
        <time>2019-07-14T07:31:26.000Z</time>
      </trkpt>
      <trkpt lat="43.23391" lon="2.37384">
        <ele>103</ele>
        <time>2019-07-14T07:31:27.000Z</time>
      </trkpt>
      <trkpt lat="43.23388" lon="2.37385">
        <ele>102.9</ele>
        <time>2019-07-14T07:31:28.000Z</time>
      </trkpt>
      <trkpt lat="43.23386" lon="2.37386">
        <ele>102.9</ele>
        <time>2019-07-14T07:31:29.000Z</time>
      </trkpt>
      <trkpt lat="43.23383" lon="2.37388">
        <ele>102.8</ele>
        <time>2019-07-14T07:31:30.000Z</time>
      </trkpt>
      <trkpt lat="43.23381" lon="2.37389">
        <ele>102.8</ele>
        <time>2019-07-14T07:31:31.000Z</time>
      </trkpt>
      <trkpt lat="43.23378" lon="2.3739">
        <ele>102.8</ele>
        <time>2019-07-14T07:31:32.000Z</time>
      </trkpt>
      <trkpt lat="43.23375" lon="2.37392">
        <ele>102.7</ele>
        <time>2019-07-14T07:31:33.000Z</time>
      </trkpt>
      <trkpt lat="43.23373" lon="2.37393">
        <ele>102.7</ele>
        <time>2019-07-14T07:31:34.000Z</time>
      </trkpt>
      <trkpt lat="43.2337" lon="2.37395">
        <ele>102.7</ele>
        <time>2019-07-14T07:31:35.000Z</time>
      </trkpt>
      <trkpt lat="43.23367" lon="2.37396">
        <ele>102.6</ele>
        <time>2019-07-14T07:31:36.000Z</time>
      </trkpt>
      <trkpt lat="43.23365" lon="2.37397">
        <ele>102.6</ele>
        <time>2019-07-14T07:31:37.000Z</time>
      </trkpt>
      <trkpt lat="43.23362" lon="2.37399">
        <ele>102.5</ele>
        <time>2019-07-14T07:31:38.000Z</time>
      </trkpt>
      <trkpt lat="43.2336" lon="2.374">
        <ele>102.5</ele>
        <time>2019-07-14T07:31:39.000Z</time>
      </trkpt>
      <trkpt lat="43.23357" lon="2.37401">
        <ele>102.5</ele>
        <time>2019-07-14T07:31:40.000Z</time>
      </trkpt>
      <trkpt lat="43.23355" lon="2.37403">
        <ele>102.5</ele>
        <time>2019-07-14T07:31:41.000Z</time>
      </trkpt>
      <trkpt lat="43.23352" lon="2.37404">
        <ele>102.4</ele>
        <time>2019-07-14T07:31:42.000Z</time>
      </trkpt>
      <trkpt lat="43.2335" lon="2.37405">
        <ele>102.4</ele>
        <time>2019-07-14T07:31:43.000Z</time>
      </trkpt>
      <trkpt lat="43.23347" lon="2.37406">
        <ele>102.4</ele>
        <time>2019-07-14T07:31:44.000Z</time>
      </trkpt>
      <trkpt lat="43.23345" lon="2.37408">
        <ele>102.4</ele>
        <time>2019-07-14T07:31:45.000Z</time>
      </trkpt>
      <trkpt lat="43.23343" lon="2.37409">
        <ele>102.3</ele>
        <time>2019-07-14T07:31:46.000Z</time>
      </trkpt>
      <trkpt lat="43.2334" lon="2.3741">
        <ele>102.3</ele>
        <time>2019-07-14T07:31:47.000Z</time>
      </trkpt>
      <trkpt lat="43.23338" lon="2.37411">
        <ele>102.3</ele>
        <time>2019-07-14T07:31:48.000Z</time>
      </trkpt>
      <trkpt lat="43.23336" lon="2.37412">
        <ele>102.3</ele>
        <time>2019-07-14T07:31:49.000Z</time>
      </trkpt>
      <trkpt lat="43.23333" lon="2.37414">
        <ele>102.3</ele>
        <time>2019-07-14T07:31:50.000Z</time>
      </trkpt>
      <trkpt lat="43.23331" lon="2.37415">
        <ele>102.3</ele>
        <time>2019-07-14T07:31:51.000Z</time>
      </trkpt>
      <trkpt lat="43.23329" lon="2.37416">
        <ele>102.2</ele>
        <time>2019-07-14T07:31:52.000Z</time>
      </trkpt>
      <trkpt lat="43.23326" lon="2.37417">
        <ele>102.2</ele>
        <time>2019-07-14T07:31:53.000Z</time>
      </trkpt>
      <trkpt lat="43.23324" lon="2.37418">
        <ele>102.3</ele>
        <time>2019-07-14T07:31:54.000Z</time>
      </trkpt>
      <trkpt lat="43.23322" lon="2.37419">
        <ele>102.3</ele>
        <time>2019-07-14T07:31:55.000Z</time>
      </trkpt>
      <trkpt lat="43.23319" lon="2.3742">
        <ele>102.3</ele>
        <time>2019-07-14T07:31:56.000Z</time>
      </trkpt>
      <trkpt lat="43.23317" lon="2.37421">
        <ele>102.4</ele>
        <time>2019-07-14T07:31:57.000Z</time>
      </trkpt>
      <trkpt lat="43.23315" lon="2.37422">
        <ele>102.4</ele>
        <time>2019-07-14T07:31:58.000Z</time>
      </trkpt>
      <trkpt lat="43.23313" lon="2.37424">
        <ele>102.4</ele>
        <time>2019-07-14T07:31:59.000Z</time>
      </trkpt>
      <trkpt lat="43.2331" lon="2.37425">
        <ele>102.4</ele>
        <time>2019-07-14T07:32:00.000Z</time>
      </trkpt>
      <trkpt lat="43.23308" lon="2.37426">
        <ele>102.5</ele>
        <time>2019-07-14T07:32:01.000Z</time>
      </trkpt>
      <trkpt lat="43.23306" lon="2.37427">
        <ele>102.5</ele>
        <time>2019-07-14T07:32:02.000Z</time>
      </trkpt>
      <trkpt lat="43.23304" lon="2.37428">
        <ele>102.5</ele>
        <time>2019-07-14T07:32:03.000Z</time>
      </trkpt>
      <trkpt lat="43.23301" lon="2.37429">
        <ele>102.5</ele>
        <time>2019-07-14T07:32:04.000Z</time>
      </trkpt>
      <trkpt lat="43.23299" lon="2.37431">
        <ele>102.6</ele>
        <time>2019-07-14T07:32:05.000Z</time>
      </trkpt>
      <trkpt lat="43.23297" lon="2.37432">
        <ele>102.6</ele>
        <time>2019-07-14T07:32:06.000Z</time>
      </trkpt>
      <trkpt lat="43.23295" lon="2.37433">
        <ele>102.6</ele>
        <time>2019-07-14T07:32:07.000Z</time>
      </trkpt>
      <trkpt lat="43.23293" lon="2.37434">
        <ele>102.6</ele>
        <time>2019-07-14T07:32:08.000Z</time>
      </trkpt>
      <trkpt lat="43.2329" lon="2.37436">
        <ele>102.6</ele>
        <time>2019-07-14T07:32:09.000Z</time>
      </trkpt>
      <trkpt lat="43.23288" lon="2.37437">
        <ele>102.7</ele>
        <time>2019-07-14T07:32:10.000Z</time>
      </trkpt>
      <trkpt lat="43.23286" lon="2.37438">
        <ele>102.7</ele>
        <time>2019-07-14T07:32:11.000Z</time>
      </trkpt>
      <trkpt lat="43.23284" lon="2.3744">
        <ele>102.7</ele>
        <time>2019-07-14T07:32:12.000Z</time>
      </trkpt>
      <trkpt lat="43.23281" lon="2.37441">
        <ele>102.7</ele>
        <time>2019-07-14T07:32:13.000Z</time>
      </trkpt>
      <trkpt lat="43.23279" lon="2.37442">
        <ele>102.7</ele>
        <time>2019-07-14T07:32:14.000Z</time>
      </trkpt>
      <trkpt lat="43.23277" lon="2.37444">
        <ele>102.8</ele>
        <time>2019-07-14T07:32:15.000Z</time>
      </trkpt>
      <trkpt lat="43.23274" lon="2.37445">
        <ele>102.8</ele>
        <time>2019-07-14T07:32:16.000Z</time>
      </trkpt>
      <trkpt lat="43.23272" lon="2.37446">
        <ele>102.8</ele>
        <time>2019-07-14T07:32:17.000Z</time>
      </trkpt>
      <trkpt lat="43.2327" lon="2.37447">
        <ele>102.8</ele>
        <time>2019-07-14T07:32:18.000Z</time>
      </trkpt>
      <trkpt lat="43.23267" lon="2.37448">
        <ele>102.9</ele>
        <time>2019-07-14T07:32:19.000Z</time>
      </trkpt>
      <trkpt lat="43.23265" lon="2.37449">
        <ele>102.9</ele>
        <time>2019-07-14T07:32:20.000Z</time>
      </trkpt>
      <trkpt lat="43.23262" lon="2.3745">
        <ele>103</ele>
        <time>2019-07-14T07:32:21.000Z</time>
      </trkpt>
      <trkpt lat="43.23259" lon="2.37451">
        <ele>103</ele>
        <time>2019-07-14T07:32:22.000Z</time>
      </trkpt>
      <trkpt lat="43.23257" lon="2.37451">
        <ele>103.1</ele>
        <time>2019-07-14T07:32:23.000Z</time>
      </trkpt>
      <trkpt lat="43.23254" lon="2.37452">
        <ele>103.2</ele>
        <time>2019-07-14T07:32:24.000Z</time>
      </trkpt>
      <trkpt lat="43.23251" lon="2.37453">
        <ele>103.2</ele>
        <time>2019-07-14T07:32:25.000Z</time>
      </trkpt>
      <trkpt lat="43.23249" lon="2.37453">
        <ele>103.3</ele>
        <time>2019-07-14T07:32:26.000Z</time>
      </trkpt>
      <trkpt lat="43.23246" lon="2.37454">
        <ele>103.5</ele>
        <time>2019-07-14T07:32:27.000Z</time>
      </trkpt>
      <trkpt lat="43.23243" lon="2.37454">
        <ele>103.6</ele>
        <time>2019-07-14T07:32:28.000Z</time>
      </trkpt>
      <trkpt lat="43.23241" lon="2.37454">
        <ele>103.7</ele>
        <time>2019-07-14T07:32:29.000Z</time>
      </trkpt>
      <trkpt lat="43.23238" lon="2.37455">
        <ele>103.9</ele>
        <time>2019-07-14T07:32:30.000Z</time>
      </trkpt>
      <trkpt lat="43.23236" lon="2.37455">
        <ele>104</ele>
        <time>2019-07-14T07:32:31.000Z</time>
      </trkpt>
      <trkpt lat="43.23233" lon="2.37456">
        <ele>104.1</ele>
        <time>2019-07-14T07:32:32.000Z</time>
      </trkpt>
      <trkpt lat="43.23231" lon="2.37457">
        <ele>104.2</ele>
        <time>2019-07-14T07:32:33.000Z</time>
      </trkpt>
      <trkpt lat="43.23229" lon="2.37457">
        <ele>104.3</ele>
        <time>2019-07-14T07:32:34.000Z</time>
      </trkpt>
      <trkpt lat="43.23227" lon="2.37458">
        <ele>104.4</ele>
        <time>2019-07-14T07:32:35.000Z</time>
      </trkpt>
      <trkpt lat="43.23226" lon="2.37458">
        <ele>104.5</ele>
        <time>2019-07-14T07:32:36.000Z</time>
      </trkpt>
      <trkpt lat="43.23225" lon="2.37459">
        <ele>104.5</ele>
        <time>2019-07-14T07:32:37.000Z</time>
      </trkpt>
      <trkpt lat="43.23224" lon="2.37459">
        <ele>104.6</ele>
        <time>2019-07-14T07:32:38.000Z</time>
      </trkpt>
      <trkpt lat="43.23223" lon="2.37459">
        <ele>104.6</ele>
        <time>2019-07-14T07:32:39.000Z</time>
      </trkpt>
      <trkpt lat="43.23222" lon="2.37459">
        <ele>104.6</ele>
        <time>2019-07-14T07:32:40.000Z</time>
      </trkpt>
      <trkpt lat="43.23222" lon="2.37459">
        <ele>104.7</ele>
        <time>2019-07-14T07:32:41.000Z</time>
      </trkpt>
      <trkpt lat="43.23222" lon="2.37459">
        <ele>104.7</ele>
        <time>2019-07-14T07:32:42.000Z</time>
      </trkpt>
      <trkpt lat="43.23221" lon="2.37459">
        <ele>104.7</ele>
        <time>2019-07-14T07:32:43.000Z</time>
      </trkpt>
      <trkpt lat="43.23221" lon="2.37459">
        <ele>104.7</ele>
        <time>2019-07-14T07:32:44.000Z</time>
      </trkpt>
      <trkpt lat="43.23221" lon="2.37459">
        <ele>104.7</ele>
        <time>2019-07-14T07:32:45.000Z</time>
      </trkpt>
      <trkpt lat="43.2322" lon="2.3746">
        <ele>104.8</ele>
        <time>2019-07-14T07:32:46.000Z</time>
      </trkpt>
      <trkpt lat="43.23219" lon="2.3746">
        <ele>104.8</ele>
        <time>2019-07-14T07:32:47.000Z</time>
      </trkpt>
      <trkpt lat="43.23218" lon="2.3746">
        <ele>104.9</ele>
        <time>2019-07-14T07:32:48.000Z</time>
      </trkpt>
      <trkpt lat="43.23217" lon="2.3746">
        <ele>104.9</ele>
        <time>2019-07-14T07:32:49.000Z</time>
      </trkpt>
      <trkpt lat="43.23215" lon="2.37461">
        <ele>105</ele>
        <time>2019-07-14T07:32:50.000Z</time>
      </trkpt>
      <trkpt lat="43.23214" lon="2.37461">
        <ele>105.1</ele>
        <time>2019-07-14T07:32:51.000Z</time>
      </trkpt>
      <trkpt lat="43.23213" lon="2.37461">
        <ele>105.1</ele>
        <time>2019-07-14T07:32:52.000Z</time>
      </trkpt>
      <trkpt lat="43.23211" lon="2.37462">
        <ele>105.2</ele>
        <time>2019-07-14T07:32:53.000Z</time>
      </trkpt>
      <trkpt lat="43.2321" lon="2.37462">
        <ele>105.3</ele>
        <time>2019-07-14T07:32:54.000Z</time>
      </trkpt>
      <trkpt lat="43.23209" lon="2.37463">
        <ele>105.3</ele>
        <time>2019-07-14T07:32:55.000Z</time>
      </trkpt>
      <trkpt lat="43.23208" lon="2.37463">
        <ele>105.4</ele>
        <time>2019-07-14T07:32:56.000Z</time>
      </trkpt>
      <trkpt lat="43.23207" lon="2.37464">
        <ele>105.4</ele>
        <time>2019-07-14T07:32:57.000Z</time>
      </trkpt>
      <trkpt lat="43.23206" lon="2.37464">
        <ele>105.5</ele>
        <time>2019-07-14T07:32:58.000Z</time>
      </trkpt>
      <trkpt lat="43.23205" lon="2.37465">
        <ele>105.5</ele>
        <time>2019-07-14T07:32:59.000Z</time>
      </trkpt>
      <trkpt lat="43.23204" lon="2.37465">
        <ele>105.5</ele>
        <time>2019-07-14T07:33:00.000Z</time>
      </trkpt>
      <trkpt lat="43.23203" lon="2.37466">
        <ele>105.6</ele>
        <time>2019-07-14T07:33:01.000Z</time>
      </trkpt>
      <trkpt lat="43.23202" lon="2.37466">
        <ele>105.6</ele>
        <time>2019-07-14T07:33:02.000Z</time>
      </trkpt>
      <trkpt lat="43.23201" lon="2.37467">
        <ele>105.7</ele>
        <time>2019-07-14T07:33:03.000Z</time>
      </trkpt>
      <trkpt lat="43.232" lon="2.37467">
        <ele>105.7</ele>
        <time>2019-07-14T07:33:04.000Z</time>
      </trkpt>
      <trkpt lat="43.23199" lon="2.37468">
        <ele>105.8</ele>
        <time>2019-07-14T07:33:05.000Z</time>
      </trkpt>
      <trkpt lat="43.23198" lon="2.37468">
        <ele>105.8</ele>
        <time>2019-07-14T07:33:06.000Z</time>
      </trkpt>
      <trkpt lat="43.23197" lon="2.37469">
        <ele>105.9</ele>
        <time>2019-07-14T07:33:07.000Z</time>
      </trkpt>
      <trkpt lat="43.23196" lon="2.37469">
        <ele>105.9</ele>
        <time>2019-07-14T07:33:08.000Z</time>
      </trkpt>
      <trkpt lat="43.23194" lon="2.37469">
        <ele>106</ele>
        <time>2019-07-14T07:33:09.000Z</time>
      </trkpt>
      <trkpt lat="43.23193" lon="2.3747">
        <ele>106</ele>
        <time>2019-07-14T07:33:10.000Z</time>
      </trkpt>
      <trkpt lat="43.23192" lon="2.3747">
        <ele>106.1</ele>
        <time>2019-07-14T07:33:11.000Z</time>
      </trkpt>
      <trkpt lat="43.23191" lon="2.3747">
        <ele>106.1</ele>
        <time>2019-07-14T07:33:12.000Z</time>
      </trkpt>
      <trkpt lat="43.2319" lon="2.37471">
        <ele>106.2</ele>
        <time>2019-07-14T07:33:13.000Z</time>
      </trkpt>
      <trkpt lat="43.23189" lon="2.37471">
        <ele>106.2</ele>
        <time>2019-07-14T07:33:14.000Z</time>
      </trkpt>
      <trkpt lat="43.23188" lon="2.37472">
        <ele>106.3</ele>
        <time>2019-07-14T07:33:15.000Z</time>
      </trkpt>
      <trkpt lat="43.23187" lon="2.37472">
        <ele>106.4</ele>
        <time>2019-07-14T07:33:16.000Z</time>
      </trkpt>
      <trkpt lat="43.23186" lon="2.37473">
        <ele>106.4</ele>
        <time>2019-07-14T07:33:17.000Z</time>
      </trkpt>
      <trkpt lat="43.23184" lon="2.37474">
        <ele>106.5</ele>
        <time>2019-07-14T07:33:18.000Z</time>
      </trkpt>
      <trkpt lat="43.23183" lon="2.37475">
        <ele>106.6</ele>
        <time>2019-07-14T07:33:19.000Z</time>
      </trkpt>
      <trkpt lat="43.23181" lon="2.37476">
        <ele>106.7</ele>
        <time>2019-07-14T07:33:20.000Z</time>
      </trkpt>
      <trkpt lat="43.23179" lon="2.37477">
        <ele>106.7</ele>
        <time>2019-07-14T07:33:21.000Z</time>
      </trkpt>
      <trkpt lat="43.23177" lon="2.37478">
        <ele>106.8</ele>
        <time>2019-07-14T07:33:22.000Z</time>
      </trkpt>
      <trkpt lat="43.23175" lon="2.37479">
        <ele>106.9</ele>
        <time>2019-07-14T07:33:23.000Z</time>
      </trkpt>
      <trkpt lat="43.23173" lon="2.37481">
        <ele>107</ele>
        <time>2019-07-14T07:33:24.000Z</time>
      </trkpt>
      <trkpt lat="43.23171" lon="2.37482">
        <ele>107.1</ele>
        <time>2019-07-14T07:33:25.000Z</time>
      </trkpt>
      <trkpt lat="43.23169" lon="2.37483">
        <ele>107.3</ele>
        <time>2019-07-14T07:33:26.000Z</time>
      </trkpt>
      <trkpt lat="43.23167" lon="2.37484">
        <ele>107.4</ele>
        <time>2019-07-14T07:33:27.000Z</time>
      </trkpt>
      <trkpt lat="43.23165" lon="2.37485">
        <ele>107.4</ele>
        <time>2019-07-14T07:33:28.000Z</time>
      </trkpt>
      <trkpt lat="43.23163" lon="2.37486">
        <ele>107.4</ele>
        <time>2019-07-14T07:33:29.000Z</time>
      </trkpt>
      <trkpt lat="43.23161" lon="2.37487">
        <ele>107.4</ele>
        <time>2019-07-14T07:33:30.000Z</time>
      </trkpt>
      <trkpt lat="43.23159" lon="2.37488">
        <ele>107.4</ele>
        <time>2019-07-14T07:33:31.000Z</time>
      </trkpt>
      <trkpt lat="43.23157" lon="2.37489">
        <ele>107.5</ele>
        <time>2019-07-14T07:33:32.000Z</time>
      </trkpt>
      <trkpt lat="43.23155" lon="2.3749">
        <ele>107.5</ele>
        <time>2019-07-14T07:33:33.000Z</time>
      </trkpt>
      <trkpt lat="43.23153" lon="2.37492">
        <ele>107.5</ele>
        <time>2019-07-14T07:33:34.000Z</time>
      </trkpt>
      <trkpt lat="43.2315" lon="2.37494">
        <ele>107.5</ele>
        <time>2019-07-14T07:33:35.000Z</time>
      </trkpt>
      <trkpt lat="43.23148" lon="2.37495">
        <ele>107.5</ele>
        <time>2019-07-14T07:33:36.000Z</time>
      </trkpt>
      <trkpt lat="43.23145" lon="2.37497">
        <ele>107.6</ele>
        <time>2019-07-14T07:33:37.000Z</time>
      </trkpt>
      <trkpt lat="43.23142" lon="2.37498">
        <ele>107.6</ele>
        <time>2019-07-14T07:33:38.000Z</time>
      </trkpt>
      <trkpt lat="43.23139" lon="2.375">
        <ele>107.7</ele>
        <time>2019-07-14T07:33:39.000Z</time>
      </trkpt>
      <trkpt lat="43.23137" lon="2.37501">
        <ele>107.7</ele>
        <time>2019-07-14T07:33:40.000Z</time>
      </trkpt>
      <trkpt lat="43.23134" lon="2.37502">
        <ele>107.7</ele>
        <time>2019-07-14T07:33:41.000Z</time>
      </trkpt>
      <trkpt lat="43.23131" lon="2.37504">
        <ele>107.8</ele>
        <time>2019-07-14T07:33:42.000Z</time>
      </trkpt>
      <trkpt lat="43.23128" lon="2.37505">
        <ele>107.8</ele>
        <time>2019-07-14T07:33:43.000Z</time>
      </trkpt>
      <trkpt lat="43.23126" lon="2.37506">
        <ele>107.8</ele>
        <time>2019-07-14T07:33:44.000Z</time>
      </trkpt>
      <trkpt lat="43.23123" lon="2.37507">
        <ele>107.8</ele>
        <time>2019-07-14T07:33:45.000Z</time>
      </trkpt>
      <trkpt lat="43.23121" lon="2.37508">
        <ele>107.9</ele>
        <time>2019-07-14T07:33:46.000Z</time>
      </trkpt>
      <trkpt lat="43.23118" lon="2.37509">
        <ele>107.9</ele>
        <time>2019-07-14T07:33:47.000Z</time>
      </trkpt>
      <trkpt lat="43.23116" lon="2.3751">
        <ele>108</ele>
        <time>2019-07-14T07:33:48.000Z</time>
      </trkpt>
      <trkpt lat="43.23113" lon="2.3751">
        <ele>108</ele>
        <time>2019-07-14T07:33:49.000Z</time>
      </trkpt>
      <trkpt lat="43.23111" lon="2.37511">
        <ele>108</ele>
        <time>2019-07-14T07:33:50.000Z</time>
      </trkpt>
      <trkpt lat="43.23109" lon="2.37512">
        <ele>108.1</ele>
        <time>2019-07-14T07:33:51.000Z</time>
      </trkpt>
      <trkpt lat="43.23107" lon="2.37513">
        <ele>108.1</ele>
        <time>2019-07-14T07:33:52.000Z</time>
      </trkpt>
      <trkpt lat="43.23104" lon="2.37514">
        <ele>108.1</ele>
        <time>2019-07-14T07:33:53.000Z</time>
      </trkpt>
      <trkpt lat="43.23102" lon="2.37515">
        <ele>108.2</ele>
        <time>2019-07-14T07:33:54.000Z</time>
      </trkpt>
      <trkpt lat="43.231" lon="2.37516">
        <ele>108.2</ele>
        <time>2019-07-14T07:33:55.000Z</time>
      </trkpt>
      <trkpt lat="43.23098" lon="2.37517">
        <ele>108.2</ele>
        <time>2019-07-14T07:33:56.000Z</time>
      </trkpt>
      <trkpt lat="43.23095" lon="2.37518">
        <ele>108.3</ele>
        <time>2019-07-14T07:33:57.000Z</time>
      </trkpt>
      <trkpt lat="43.23093" lon="2.37519">
        <ele>108.3</ele>
        <time>2019-07-14T07:33:58.000Z</time>
      </trkpt>
      <trkpt lat="43.23091" lon="2.3752">
        <ele>108.3</ele>
        <time>2019-07-14T07:33:59.000Z</time>
      </trkpt>
      <trkpt lat="43.23088" lon="2.37521">
        <ele>108.4</ele>
        <time>2019-07-14T07:34:00.000Z</time>
      </trkpt>
      <trkpt lat="43.23086" lon="2.37522">
        <ele>108.4</ele>
        <time>2019-07-14T07:34:01.000Z</time>
      </trkpt>
      <trkpt lat="43.23084" lon="2.37523">
        <ele>108.4</ele>
        <time>2019-07-14T07:34:02.000Z</time>
      </trkpt>
      <trkpt lat="43.23081" lon="2.37524">
        <ele>108.4</ele>
        <time>2019-07-14T07:34:03.000Z</time>
      </trkpt>
      <trkpt lat="43.23079" lon="2.37525">
        <ele>108.3</ele>
        <time>2019-07-14T07:34:04.000Z</time>
      </trkpt>
      <trkpt lat="43.23077" lon="2.37526">
        <ele>108.2</ele>
        <time>2019-07-14T07:34:05.000Z</time>
      </trkpt>
      <trkpt lat="43.23074" lon="2.37527">
        <ele>108.1</ele>
        <time>2019-07-14T07:34:06.000Z</time>
      </trkpt>
      <trkpt lat="43.23072" lon="2.37528">
        <ele>108</ele>
        <time>2019-07-14T07:34:07.000Z</time>
      </trkpt>
      <trkpt lat="43.23069" lon="2.37528">
        <ele>107.9</ele>
        <time>2019-07-14T07:34:08.000Z</time>
      </trkpt>
      <trkpt lat="43.23067" lon="2.37529">
        <ele>107.8</ele>
        <time>2019-07-14T07:34:09.000Z</time>
      </trkpt>
      <trkpt lat="43.23064" lon="2.3753">
        <ele>107.6</ele>
        <time>2019-07-14T07:34:10.000Z</time>
      </trkpt>
      <trkpt lat="43.23062" lon="2.37531">
        <ele>107.5</ele>
        <time>2019-07-14T07:34:11.000Z</time>
      </trkpt>
      <trkpt lat="43.23059" lon="2.37532">
        <ele>107.4</ele>
        <time>2019-07-14T07:34:12.000Z</time>
      </trkpt>
      <trkpt lat="43.23057" lon="2.37532">
        <ele>107.3</ele>
        <time>2019-07-14T07:34:13.000Z</time>
      </trkpt>
      <trkpt lat="43.23054" lon="2.37533">
        <ele>107.2</ele>
        <time>2019-07-14T07:34:14.000Z</time>
      </trkpt>
      <trkpt lat="43.23051" lon="2.37534">
        <ele>107.1</ele>
        <time>2019-07-14T07:34:15.000Z</time>
      </trkpt>
      <trkpt lat="43.23049" lon="2.37534">
        <ele>107</ele>
        <time>2019-07-14T07:34:16.000Z</time>
      </trkpt>
      <trkpt lat="43.23046" lon="2.37535">
        <ele>106.9</ele>
        <time>2019-07-14T07:34:17.000Z</time>
      </trkpt>
      <trkpt lat="43.23044" lon="2.37535">
        <ele>106.8</ele>
        <time>2019-07-14T07:34:18.000Z</time>
      </trkpt>
      <trkpt lat="43.23041" lon="2.37536">
        <ele>106.7</ele>
        <time>2019-07-14T07:34:19.000Z</time>
      </trkpt>
      <trkpt lat="43.23038" lon="2.37536">
        <ele>106.6</ele>
        <time>2019-07-14T07:34:20.000Z</time>
      </trkpt>
      <trkpt lat="43.23036" lon="2.37536">
        <ele>106.5</ele>
        <time>2019-07-14T07:34:21.000Z</time>
      </trkpt>
      <trkpt lat="43.23033" lon="2.37536">
        <ele>106.4</ele>
        <time>2019-07-14T07:34:22.000Z</time>
      </trkpt>
      <trkpt lat="43.23031" lon="2.37537">
        <ele>106.3</ele>
        <time>2019-07-14T07:34:23.000Z</time>
      </trkpt>
      <trkpt lat="43.23028" lon="2.37537">
        <ele>106.2</ele>
        <time>2019-07-14T07:34:24.000Z</time>
      </trkpt>
      <trkpt lat="43.23026" lon="2.37537">
        <ele>106.1</ele>
        <time>2019-07-14T07:34:25.000Z</time>
      </trkpt>
      <trkpt lat="43.23023" lon="2.37537">
        <ele>106</ele>
        <time>2019-07-14T07:34:26.000Z</time>
      </trkpt>
      <trkpt lat="43.2302" lon="2.37537">
        <ele>105.9</ele>
        <time>2019-07-14T07:34:27.000Z</time>
      </trkpt>
      <trkpt lat="43.23018" lon="2.37537">
        <ele>105.8</ele>
        <time>2019-07-14T07:34:28.000Z</time>
      </trkpt>
      <trkpt lat="43.23015" lon="2.37537">
        <ele>105.8</ele>
        <time>2019-07-14T07:34:29.000Z</time>
      </trkpt>
      <trkpt lat="43.23013" lon="2.37537">
        <ele>105.7</ele>
        <time>2019-07-14T07:34:30.000Z</time>
      </trkpt>
      <trkpt lat="43.23011" lon="2.37537">
        <ele>105.6</ele>
        <time>2019-07-14T07:34:31.000Z</time>
      </trkpt>
      <trkpt lat="43.23008" lon="2.37536">
        <ele>105.5</ele>
        <time>2019-07-14T07:34:32.000Z</time>
      </trkpt>
      <trkpt lat="43.23006" lon="2.37536">
        <ele>105.5</ele>
        <time>2019-07-14T07:34:33.000Z</time>
      </trkpt>
      <trkpt lat="43.23003" lon="2.37536">
        <ele>105.4</ele>
        <time>2019-07-14T07:34:34.000Z</time>
      </trkpt>
      <trkpt lat="43.23001" lon="2.37535">
        <ele>105.3</ele>
        <time>2019-07-14T07:34:35.000Z</time>
      </trkpt>
      <trkpt lat="43.22998" lon="2.37535">
        <ele>105.3</ele>
        <time>2019-07-14T07:34:36.000Z</time>
      </trkpt>
      <trkpt lat="43.22996" lon="2.37535">
        <ele>105.3</ele>
        <time>2019-07-14T07:34:37.000Z</time>
      </trkpt>
      <trkpt lat="43.22993" lon="2.37534">
        <ele>105.4</ele>
        <time>2019-07-14T07:34:38.000Z</time>
      </trkpt>
      <trkpt lat="43.22991" lon="2.37533">
        <ele>105.4</ele>
        <time>2019-07-14T07:34:39.000Z</time>
      </trkpt>
      <trkpt lat="43.22989" lon="2.37533">
        <ele>105.4</ele>
        <time>2019-07-14T07:34:40.000Z</time>
      </trkpt>
      <trkpt lat="43.22986" lon="2.37532">
        <ele>105.4</ele>
        <time>2019-07-14T07:34:41.000Z</time>
      </trkpt>
      <trkpt lat="43.22984" lon="2.37532">
        <ele>105.4</ele>
        <time>2019-07-14T07:34:42.000Z</time>
      </trkpt>
      <trkpt lat="43.22981" lon="2.37531">
        <ele>105.5</ele>
        <time>2019-07-14T07:34:43.000Z</time>
      </trkpt>
      <trkpt lat="43.22979" lon="2.3753">
        <ele>105.5</ele>
        <time>2019-07-14T07:34:44.000Z</time>
      </trkpt>
      <trkpt lat="43.22976" lon="2.37529">
        <ele>105.5</ele>
        <time>2019-07-14T07:34:45.000Z</time>
      </trkpt>
      <trkpt lat="43.22974" lon="2.37529">
        <ele>105.5</ele>
        <time>2019-07-14T07:34:46.000Z</time>
      </trkpt>
      <trkpt lat="43.22971" lon="2.37528">
        <ele>105.6</ele>
        <time>2019-07-14T07:34:47.000Z</time>
      </trkpt>
      <trkpt lat="43.22969" lon="2.37527">
        <ele>105.6</ele>
        <time>2019-07-14T07:34:48.000Z</time>
      </trkpt>
      <trkpt lat="43.22966" lon="2.37526">
        <ele>105.6</ele>
        <time>2019-07-14T07:34:49.000Z</time>
      </trkpt>
      <trkpt lat="43.22964" lon="2.37526">
        <ele>105.6</ele>
        <time>2019-07-14T07:34:50.000Z</time>
      </trkpt>
      <trkpt lat="43.22961" lon="2.37525">
        <ele>105.6</ele>
        <time>2019-07-14T07:34:51.000Z</time>
      </trkpt>
      <trkpt lat="43.22959" lon="2.37524">
        <ele>105.6</ele>
        <time>2019-07-14T07:34:52.000Z</time>
      </trkpt>
      <trkpt lat="43.22957" lon="2.37523">
        <ele>105.7</ele>
        <time>2019-07-14T07:34:53.000Z</time>
      </trkpt>
      <trkpt lat="43.22954" lon="2.37523">
        <ele>105.7</ele>
        <time>2019-07-14T07:34:54.000Z</time>
      </trkpt>
      <trkpt lat="43.22952" lon="2.37522">
        <ele>105.7</ele>
        <time>2019-07-14T07:34:55.000Z</time>
      </trkpt>
      <trkpt lat="43.22949" lon="2.37521">
        <ele>105.7</ele>
        <time>2019-07-14T07:34:56.000Z</time>
      </trkpt>
      <trkpt lat="43.22947" lon="2.3752">
        <ele>105.7</ele>
        <time>2019-07-14T07:34:57.000Z</time>
      </trkpt>
      <trkpt lat="43.22945" lon="2.37519">
        <ele>105.7</ele>
        <time>2019-07-14T07:34:58.000Z</time>
      </trkpt>
      <trkpt lat="43.22943" lon="2.37518">
        <ele>105.8</ele>
        <time>2019-07-14T07:34:59.000Z</time>
      </trkpt>
      <trkpt lat="43.2294" lon="2.37516">
        <ele>105.8</ele>
        <time>2019-07-14T07:35:00.000Z</time>
      </trkpt>
      <trkpt lat="43.22938" lon="2.37515">
        <ele>105.8</ele>
        <time>2019-07-14T07:35:01.000Z</time>
      </trkpt>
      <trkpt lat="43.22936" lon="2.37513">
        <ele>105.8</ele>
        <time>2019-07-14T07:35:02.000Z</time>
      </trkpt>
      <trkpt lat="43.22933" lon="2.37511">
        <ele>105.9</ele>
        <time>2019-07-14T07:35:03.000Z</time>
      </trkpt>
      <trkpt lat="43.2293" lon="2.3751">
        <ele>105.9</ele>
        <time>2019-07-14T07:35:04.000Z</time>
      </trkpt>
      <trkpt lat="43.22927" lon="2.37508">
        <ele>105.9</ele>
        <time>2019-07-14T07:35:05.000Z</time>
      </trkpt>
      <trkpt lat="43.22924" lon="2.37507">
        <ele>105.9</ele>
        <time>2019-07-14T07:35:06.000Z</time>
      </trkpt>
      <trkpt lat="43.22921" lon="2.37505">
        <ele>105.9</ele>
        <time>2019-07-14T07:35:07.000Z</time>
      </trkpt>
      <trkpt lat="43.22919" lon="2.37503">
        <ele>105.9</ele>
        <time>2019-07-14T07:35:08.000Z</time>
      </trkpt>
      <trkpt lat="43.22917" lon="2.37501">
        <ele>106</ele>
        <time>2019-07-14T07:35:09.000Z</time>
      </trkpt>
      <trkpt lat="43.22914" lon="2.375">
        <ele>105.9</ele>
        <time>2019-07-14T07:35:10.000Z</time>
      </trkpt>
      <trkpt lat="43.22912" lon="2.37498">
        <ele>105.8</ele>
        <time>2019-07-14T07:35:11.000Z</time>
      </trkpt>
      <trkpt lat="43.2291" lon="2.37496">
        <ele>105.7</ele>
        <time>2019-07-14T07:35:12.000Z</time>
      </trkpt>
      <trkpt lat="43.22908" lon="2.37494">
        <ele>105.7</ele>
        <time>2019-07-14T07:35:13.000Z</time>
      </trkpt>
      <trkpt lat="43.22905" lon="2.37492">
        <ele>105.6</ele>
        <time>2019-07-14T07:35:14.000Z</time>
      </trkpt>
      <trkpt lat="43.22903" lon="2.3749">
        <ele>105.5</ele>
        <time>2019-07-14T07:35:15.000Z</time>
      </trkpt>
      <trkpt lat="43.22901" lon="2.37488">
        <ele>105.5</ele>
        <time>2019-07-14T07:35:16.000Z</time>
      </trkpt>
      <trkpt lat="43.22898" lon="2.37486">
        <ele>105.4</ele>
        <time>2019-07-14T07:35:17.000Z</time>
      </trkpt>
      <trkpt lat="43.22896" lon="2.37484">
        <ele>105.3</ele>
        <time>2019-07-14T07:35:18.000Z</time>
      </trkpt>
      <trkpt lat="43.22894" lon="2.37482">
        <ele>105.3</ele>
        <time>2019-07-14T07:35:19.000Z</time>
      </trkpt>
      <trkpt lat="43.22891" lon="2.3748">
        <ele>105.2</ele>
        <time>2019-07-14T07:35:20.000Z</time>
      </trkpt>
      <trkpt lat="43.22889" lon="2.37478">
        <ele>105.2</ele>
        <time>2019-07-14T07:35:21.000Z</time>
      </trkpt>
      <trkpt lat="43.22887" lon="2.37476">
        <ele>105.2</ele>
        <time>2019-07-14T07:35:22.000Z</time>
      </trkpt>
      <trkpt lat="43.22884" lon="2.37474">
        <ele>105.1</ele>
        <time>2019-07-14T07:35:23.000Z</time>
      </trkpt>
      <trkpt lat="43.22882" lon="2.37472">
        <ele>105.1</ele>
        <time>2019-07-14T07:35:24.000Z</time>
      </trkpt>
      <trkpt lat="43.2288" lon="2.3747">
        <ele>105.1</ele>
        <time>2019-07-14T07:35:25.000Z</time>
      </trkpt>
      <trkpt lat="43.22878" lon="2.37468">
        <ele>105.1</ele>
        <time>2019-07-14T07:35:26.000Z</time>
      </trkpt>
      <trkpt lat="43.22876" lon="2.37465">
        <ele>105.1</ele>
        <time>2019-07-14T07:35:27.000Z</time>
      </trkpt>
      <trkpt lat="43.22874" lon="2.37463">
        <ele>105.1</ele>
        <time>2019-07-14T07:35:28.000Z</time>
      </trkpt>
      <trkpt lat="43.22872" lon="2.37461">
        <ele>105.1</ele>
        <time>2019-07-14T07:35:29.000Z</time>
      </trkpt>
      <trkpt lat="43.22871" lon="2.37459">
        <ele>105.1</ele>
        <time>2019-07-14T07:35:30.000Z</time>
      </trkpt>
      <trkpt lat="43.22869" lon="2.37456">
        <ele>105.1</ele>
        <time>2019-07-14T07:35:31.000Z</time>
      </trkpt>
      <trkpt lat="43.22867" lon="2.37454">
        <ele>105.1</ele>
        <time>2019-07-14T07:35:32.000Z</time>
      </trkpt>
      <trkpt lat="43.22865" lon="2.37451">
        <ele>105.2</ele>
        <time>2019-07-14T07:35:33.000Z</time>
      </trkpt>
      <trkpt lat="43.22863" lon="2.37449">
        <ele>105.2</ele>
        <time>2019-07-14T07:35:34.000Z</time>
      </trkpt>
      <trkpt lat="43.22861" lon="2.37446">
        <ele>105.3</ele>
        <time>2019-07-14T07:35:35.000Z</time>
      </trkpt>
      <trkpt lat="43.22859" lon="2.37444">
        <ele>105.3</ele>
        <time>2019-07-14T07:35:36.000Z</time>
      </trkpt>
      <trkpt lat="43.22857" lon="2.37441">
        <ele>105.4</ele>
        <time>2019-07-14T07:35:37.000Z</time>
      </trkpt>
      <trkpt lat="43.22855" lon="2.37439">
        <ele>105.4</ele>
        <time>2019-07-14T07:35:38.000Z</time>
      </trkpt>
      <trkpt lat="43.22853" lon="2.37436">
        <ele>105.5</ele>
        <time>2019-07-14T07:35:39.000Z</time>
      </trkpt>
      <trkpt lat="43.22851" lon="2.37433">
        <ele>105.5</ele>
        <time>2019-07-14T07:35:40.000Z</time>
      </trkpt>
      <trkpt lat="43.22849" lon="2.37431">
        <ele>105.6</ele>
        <time>2019-07-14T07:35:41.000Z</time>
      </trkpt>
      <trkpt lat="43.22847" lon="2.37428">
        <ele>105.7</ele>
        <time>2019-07-14T07:35:42.000Z</time>
      </trkpt>
      <trkpt lat="43.22845" lon="2.37425">
        <ele>105.8</ele>
        <time>2019-07-14T07:35:43.000Z</time>
      </trkpt>
      <trkpt lat="43.22844" lon="2.37422">
        <ele>105.9</ele>
        <time>2019-07-14T07:35:44.000Z</time>
      </trkpt>
      <trkpt lat="43.22842" lon="2.37419">
        <ele>106</ele>
        <time>2019-07-14T07:35:45.000Z</time>
      </trkpt>
      <trkpt lat="43.2284" lon="2.37417">
        <ele>106.1</ele>
        <time>2019-07-14T07:35:46.000Z</time>
      </trkpt>
      <trkpt lat="43.22838" lon="2.37414">
        <ele>106.2</ele>
        <time>2019-07-14T07:35:47.000Z</time>
      </trkpt>
      <trkpt lat="43.22836" lon="2.37411">
        <ele>106.4</ele>
        <time>2019-07-14T07:35:48.000Z</time>
      </trkpt>
      <trkpt lat="43.22835" lon="2.37408">
        <ele>106.5</ele>
        <time>2019-07-14T07:35:49.000Z</time>
      </trkpt>
      <trkpt lat="43.22833" lon="2.37405">
        <ele>106.7</ele>
        <time>2019-07-14T07:35:50.000Z</time>
      </trkpt>
      <trkpt lat="43.22831" lon="2.37402">
        <ele>106.7</ele>
        <time>2019-07-14T07:35:51.000Z</time>
      </trkpt>
      <trkpt lat="43.2283" lon="2.37399">
        <ele>106.7</ele>
        <time>2019-07-14T07:35:52.000Z</time>
      </trkpt>
      <trkpt lat="43.22828" lon="2.37396">
        <ele>106.8</ele>
        <time>2019-07-14T07:35:53.000Z</time>
      </trkpt>
      <trkpt lat="43.22826" lon="2.37393">
        <ele>106.8</ele>
        <time>2019-07-14T07:35:54.000Z</time>
      </trkpt>
      <trkpt lat="43.22825" lon="2.3739">
        <ele>106.8</ele>
        <time>2019-07-14T07:35:55.000Z</time>
      </trkpt>
      <trkpt lat="43.22823" lon="2.37387">
        <ele>106.9</ele>
        <time>2019-07-14T07:35:56.000Z</time>
      </trkpt>
      <trkpt lat="43.22822" lon="2.37384">
        <ele>106.9</ele>
        <time>2019-07-14T07:35:57.000Z</time>
      </trkpt>
      <trkpt lat="43.2282" lon="2.37381">
        <ele>106.9</ele>
        <time>2019-07-14T07:35:58.000Z</time>
      </trkpt>
      <trkpt lat="43.22819" lon="2.37378">
        <ele>106.9</ele>
        <time>2019-07-14T07:35:59.000Z</time>
      </trkpt>
      <trkpt lat="43.22818" lon="2.37375">
        <ele>107</ele>
        <time>2019-07-14T07:36:00.000Z</time>
      </trkpt>
      <trkpt lat="43.22816" lon="2.37372">
        <ele>107</ele>
        <time>2019-07-14T07:36:01.000Z</time>
      </trkpt>
      <trkpt lat="43.22815" lon="2.37369">
        <ele>107</ele>
        <time>2019-07-14T07:36:02.000Z</time>
      </trkpt>
      <trkpt lat="43.22814" lon="2.37366">
        <ele>107</ele>
        <time>2019-07-14T07:36:03.000Z</time>
      </trkpt>
      <trkpt lat="43.22813" lon="2.37363">
        <ele>107.1</ele>
        <time>2019-07-14T07:36:04.000Z</time>
      </trkpt>
      <trkpt lat="43.22811" lon="2.3736">
        <ele>107.1</ele>
        <time>2019-07-14T07:36:05.000Z</time>
      </trkpt>
      <trkpt lat="43.2281" lon="2.37357">
        <ele>107.1</ele>
        <time>2019-07-14T07:36:06.000Z</time>
      </trkpt>
      <trkpt lat="43.22809" lon="2.37354">
        <ele>107.1</ele>
        <time>2019-07-14T07:36:07.000Z</time>
      </trkpt>
      <trkpt lat="43.22808" lon="2.3735">
        <ele>107.2</ele>
        <time>2019-07-14T07:36:08.000Z</time>
      </trkpt>
      <trkpt lat="43.22806" lon="2.37347">
        <ele>107.2</ele>
        <time>2019-07-14T07:36:09.000Z</time>
      </trkpt>
      <trkpt lat="43.22805" lon="2.37343">
        <ele>107.2</ele>
        <time>2019-07-14T07:36:10.000Z</time>
      </trkpt>
      <trkpt lat="43.22804" lon="2.37339">
        <ele>107.2</ele>
        <time>2019-07-14T07:36:11.000Z</time>
      </trkpt>
      <trkpt lat="43.22803" lon="2.37336">
        <ele>107.2</ele>
        <time>2019-07-14T07:36:12.000Z</time>
      </trkpt>
      <trkpt lat="43.22801" lon="2.37332">
        <ele>107.2</ele>
        <time>2019-07-14T07:36:13.000Z</time>
      </trkpt>
      <trkpt lat="43.228" lon="2.37328">
        <ele>107.1</ele>
        <time>2019-07-14T07:36:14.000Z</time>
      </trkpt>
      <trkpt lat="43.22799" lon="2.37324">
        <ele>107</ele>
        <time>2019-07-14T07:36:15.000Z</time>
      </trkpt>
      <trkpt lat="43.22798" lon="2.3732">
        <ele>106.9</ele>
        <time>2019-07-14T07:36:16.000Z</time>
      </trkpt>
      <trkpt lat="43.22797" lon="2.37316">
        <ele>106.8</ele>
        <time>2019-07-14T07:36:17.000Z</time>
      </trkpt>
      <trkpt lat="43.22796" lon="2.37312">
        <ele>106.8</ele>
        <time>2019-07-14T07:36:18.000Z</time>
      </trkpt>
      <trkpt lat="43.22796" lon="2.37309">
        <ele>106.7</ele>
        <time>2019-07-14T07:36:19.000Z</time>
      </trkpt>
      <trkpt lat="43.22795" lon="2.37305">
        <ele>106.7</ele>
        <time>2019-07-14T07:36:20.000Z</time>
      </trkpt>
      <trkpt lat="43.22794" lon="2.37301">
        <ele>106.7</ele>
        <time>2019-07-14T07:36:21.000Z</time>
      </trkpt>
      <trkpt lat="43.22794" lon="2.37297">
        <ele>106.6</ele>
        <time>2019-07-14T07:36:22.000Z</time>
      </trkpt>
      <trkpt lat="43.22793" lon="2.37293">
        <ele>106.6</ele>
        <time>2019-07-14T07:36:23.000Z</time>
      </trkpt>
      <trkpt lat="43.22793" lon="2.37289">
        <ele>106.6</ele>
        <time>2019-07-14T07:36:24.000Z</time>
      </trkpt>
      <trkpt lat="43.22792" lon="2.37286">
        <ele>106.6</ele>
        <time>2019-07-14T07:36:25.000Z</time>
      </trkpt>
      <trkpt lat="43.22792" lon="2.37282">
        <ele>106.6</ele>
        <time>2019-07-14T07:36:26.000Z</time>
      </trkpt>
      <trkpt lat="43.22791" lon="2.37278">
        <ele>106.6</ele>
        <time>2019-07-14T07:36:27.000Z</time>
      </trkpt>
      <trkpt lat="43.22791" lon="2.37274">
        <ele>106.6</ele>
        <time>2019-07-14T07:36:28.000Z</time>
      </trkpt>
      <trkpt lat="43.2279" lon="2.3727">
        <ele>106.6</ele>
        <time>2019-07-14T07:36:29.000Z</time>
      </trkpt>
      <trkpt lat="43.2279" lon="2.37266">
        <ele>106.6</ele>
        <time>2019-07-14T07:36:30.000Z</time>
      </trkpt>
      <trkpt lat="43.2279" lon="2.37262">
        <ele>106.6</ele>
        <time>2019-07-14T07:36:31.000Z</time>
      </trkpt>
      <trkpt lat="43.22789" lon="2.37258">
        <ele>106.6</ele>
        <time>2019-07-14T07:36:32.000Z</time>
      </trkpt>
      <trkpt lat="43.22789" lon="2.37254">
        <ele>106.6</ele>
        <time>2019-07-14T07:36:33.000Z</time>
      </trkpt>
      <trkpt lat="43.22788" lon="2.3725">
        <ele>106.7</ele>
        <time>2019-07-14T07:36:34.000Z</time>
      </trkpt>
      <trkpt lat="43.22788" lon="2.37246">
        <ele>106.7</ele>
        <time>2019-07-14T07:36:35.000Z</time>
      </trkpt>
      <trkpt lat="43.22787" lon="2.37242">
        <ele>106.8</ele>
        <time>2019-07-14T07:36:36.000Z</time>
      </trkpt>
      <trkpt lat="43.22787" lon="2.37238">
        <ele>106.9</ele>
        <time>2019-07-14T07:36:37.000Z</time>
      </trkpt>
      <trkpt lat="43.22786" lon="2.37235">
        <ele>106.9</ele>
        <time>2019-07-14T07:36:38.000Z</time>
      </trkpt>
      <trkpt lat="43.22786" lon="2.37231">
        <ele>107</ele>
        <time>2019-07-14T07:36:39.000Z</time>
      </trkpt>
      <trkpt lat="43.22786" lon="2.37227">
        <ele>107.1</ele>
        <time>2019-07-14T07:36:40.000Z</time>
      </trkpt>
      <trkpt lat="43.22786" lon="2.37224">
        <ele>107.2</ele>
        <time>2019-07-14T07:36:41.000Z</time>
      </trkpt>
      <trkpt lat="43.22785" lon="2.3722">
        <ele>107.2</ele>
        <time>2019-07-14T07:36:42.000Z</time>
      </trkpt>
      <trkpt lat="43.22785" lon="2.37217">
        <ele>107.3</ele>
        <time>2019-07-14T07:36:43.000Z</time>
      </trkpt>
      <trkpt lat="43.22785" lon="2.37214">
        <ele>107.4</ele>
        <time>2019-07-14T07:36:44.000Z</time>
      </trkpt>
      <trkpt lat="43.22785" lon="2.3721">
        <ele>107.5</ele>
        <time>2019-07-14T07:36:45.000Z</time>
      </trkpt>
      <trkpt lat="43.22784" lon="2.37207">
        <ele>107.5</ele>
        <time>2019-07-14T07:36:46.000Z</time>
      </trkpt>
      <trkpt lat="43.22784" lon="2.37203">
        <ele>107.6</ele>
        <time>2019-07-14T07:36:47.000Z</time>
      </trkpt>
      <trkpt lat="43.22784" lon="2.37199">
        <ele>107.7</ele>
        <time>2019-07-14T07:36:48.000Z</time>
      </trkpt>
      <trkpt lat="43.22783" lon="2.37195">
        <ele>107.8</ele>
        <time>2019-07-14T07:36:49.000Z</time>
      </trkpt>
      <trkpt lat="43.22783" lon="2.37191">
        <ele>107.8</ele>
        <time>2019-07-14T07:36:50.000Z</time>
      </trkpt>
      <trkpt lat="43.22782" lon="2.37187">
        <ele>107.9</ele>
        <time>2019-07-14T07:36:51.000Z</time>
      </trkpt>
      <trkpt lat="43.22782" lon="2.37183">
        <ele>107.9</ele>
        <time>2019-07-14T07:36:52.000Z</time>
      </trkpt>
      <trkpt lat="43.22781" lon="2.37179">
        <ele>108</ele>
        <time>2019-07-14T07:36:53.000Z</time>
      </trkpt>
      <trkpt lat="43.22781" lon="2.37175">
        <ele>108</ele>
        <time>2019-07-14T07:36:54.000Z</time>
      </trkpt>
      <trkpt lat="43.2278" lon="2.37171">
        <ele>108.1</ele>
        <time>2019-07-14T07:36:55.000Z</time>
      </trkpt>
      <trkpt lat="43.22779" lon="2.37168">
        <ele>108.1</ele>
        <time>2019-07-14T07:36:56.000Z</time>
      </trkpt>
      <trkpt lat="43.22779" lon="2.37164">
        <ele>108.1</ele>
        <time>2019-07-14T07:36:57.000Z</time>
      </trkpt>
      <trkpt lat="43.22778" lon="2.3716">
        <ele>108.1</ele>
        <time>2019-07-14T07:36:58.000Z</time>
      </trkpt>
      <trkpt lat="43.22778" lon="2.37157">
        <ele>108.1</ele>
        <time>2019-07-14T07:36:59.000Z</time>
      </trkpt>
      <trkpt lat="43.22777" lon="2.37153">
        <ele>108.1</ele>
        <time>2019-07-14T07:37:00.000Z</time>
      </trkpt>
      <trkpt lat="43.22777" lon="2.3715">
        <ele>108.1</ele>
        <time>2019-07-14T07:37:01.000Z</time>
      </trkpt>
      <trkpt lat="43.22776" lon="2.37146">
        <ele>108.1</ele>
        <time>2019-07-14T07:37:02.000Z</time>
      </trkpt>
      <trkpt lat="43.22776" lon="2.37143">
        <ele>108.1</ele>
        <time>2019-07-14T07:37:03.000Z</time>
      </trkpt>
      <trkpt lat="43.22775" lon="2.37139">
        <ele>108</ele>
        <time>2019-07-14T07:37:04.000Z</time>
      </trkpt>
      <trkpt lat="43.22775" lon="2.37135">
        <ele>108</ele>
        <time>2019-07-14T07:37:05.000Z</time>
      </trkpt>
      <trkpt lat="43.22775" lon="2.37132">
        <ele>108</ele>
        <time>2019-07-14T07:37:06.000Z</time>
      </trkpt>
      <trkpt lat="43.22774" lon="2.37128">
        <ele>108</ele>
        <time>2019-07-14T07:37:07.000Z</time>
      </trkpt>
      <trkpt lat="43.22774" lon="2.37125">
        <ele>108</ele>
        <time>2019-07-14T07:37:08.000Z</time>
      </trkpt>
      <trkpt lat="43.22773" lon="2.37121">
        <ele>108</ele>
        <time>2019-07-14T07:37:09.000Z</time>
      </trkpt>
      <trkpt lat="43.22773" lon="2.37117">
        <ele>108</ele>
        <time>2019-07-14T07:37:10.000Z</time>
      </trkpt>
      <trkpt lat="43.22772" lon="2.37113">
        <ele>107.9</ele>
        <time>2019-07-14T07:37:11.000Z</time>
      </trkpt>
      <trkpt lat="43.22772" lon="2.3711">
        <ele>107.9</ele>
        <time>2019-07-14T07:37:12.000Z</time>
      </trkpt>
      <trkpt lat="43.22772" lon="2.37106">
        <ele>107.9</ele>
        <time>2019-07-14T07:37:13.000Z</time>
      </trkpt>
      <trkpt lat="43.22771" lon="2.37102">
        <ele>107.9</ele>
        <time>2019-07-14T07:37:14.000Z</time>
      </trkpt>
      <trkpt lat="43.22771" lon="2.37098">
        <ele>107.9</ele>
        <time>2019-07-14T07:37:15.000Z</time>
      </trkpt>
      <trkpt lat="43.22771" lon="2.37094">
        <ele>107.9</ele>
        <time>2019-07-14T07:37:16.000Z</time>
      </trkpt>
      <trkpt lat="43.2277" lon="2.3709">
        <ele>107.8</ele>
        <time>2019-07-14T07:37:17.000Z</time>
      </trkpt>
      <trkpt lat="43.2277" lon="2.37087">
        <ele>107.8</ele>
        <time>2019-07-14T07:37:18.000Z</time>
      </trkpt>
      <trkpt lat="43.22769" lon="2.37083">
        <ele>107.8</ele>
        <time>2019-07-14T07:37:19.000Z</time>
      </trkpt>
      <trkpt lat="43.22769" lon="2.37079">
        <ele>107.8</ele>
        <time>2019-07-14T07:37:20.000Z</time>
      </trkpt>
      <trkpt lat="43.22769" lon="2.37075">
        <ele>107.8</ele>
        <time>2019-07-14T07:37:21.000Z</time>
      </trkpt>
      <trkpt lat="43.22768" lon="2.37071">
        <ele>107.8</ele>
        <time>2019-07-14T07:37:22.000Z</time>
      </trkpt>
      <trkpt lat="43.22768" lon="2.37067">
        <ele>107.9</ele>
        <time>2019-07-14T07:37:23.000Z</time>
      </trkpt>
      <trkpt lat="43.22767" lon="2.37063">
        <ele>107.9</ele>
        <time>2019-07-14T07:37:24.000Z</time>
      </trkpt>
      <trkpt lat="43.22767" lon="2.37059">
        <ele>107.9</ele>
        <time>2019-07-14T07:37:25.000Z</time>
      </trkpt>
      <trkpt lat="43.22766" lon="2.37055">
        <ele>107.9</ele>
        <time>2019-07-14T07:37:26.000Z</time>
      </trkpt>
      <trkpt lat="43.22766" lon="2.37051">
        <ele>107.9</ele>
        <time>2019-07-14T07:37:27.000Z</time>
      </trkpt>
      <trkpt lat="43.22765" lon="2.37047">
        <ele>107.9</ele>
        <time>2019-07-14T07:37:28.000Z</time>
      </trkpt>
      <trkpt lat="43.22765" lon="2.37044">
        <ele>107.9</ele>
        <time>2019-07-14T07:37:29.000Z</time>
      </trkpt>
      <trkpt lat="43.22764" lon="2.3704">
        <ele>107.9</ele>
        <time>2019-07-14T07:37:30.000Z</time>
      </trkpt>
      <trkpt lat="43.22764" lon="2.37036">
        <ele>107.9</ele>
        <time>2019-07-14T07:37:31.000Z</time>
      </trkpt>
      <trkpt lat="43.22763" lon="2.37032">
        <ele>107.9</ele>
        <time>2019-07-14T07:37:32.000Z</time>
      </trkpt>
      <trkpt lat="43.22763" lon="2.37029">
        <ele>107.9</ele>
        <time>2019-07-14T07:37:33.000Z</time>
      </trkpt>
      <trkpt lat="43.22762" lon="2.37025">
        <ele>107.9</ele>
        <time>2019-07-14T07:37:34.000Z</time>
      </trkpt>
      <trkpt lat="43.22761" lon="2.37021">
        <ele>107.9</ele>
        <time>2019-07-14T07:37:35.000Z</time>
      </trkpt>
      <trkpt lat="43.2276" lon="2.37018">
        <ele>107.9</ele>
        <time>2019-07-14T07:37:36.000Z</time>
      </trkpt>
      <trkpt lat="43.2276" lon="2.37014">
        <ele>107.9</ele>
        <time>2019-07-14T07:37:37.000Z</time>
      </trkpt>
      <trkpt lat="43.22759" lon="2.37011">
        <ele>107.8</ele>
        <time>2019-07-14T07:37:38.000Z</time>
      </trkpt>
      <trkpt lat="43.22758" lon="2.37007">
        <ele>107.8</ele>
        <time>2019-07-14T07:37:39.000Z</time>
      </trkpt>
      <trkpt lat="43.22757" lon="2.37004">
        <ele>107.8</ele>
        <time>2019-07-14T07:37:40.000Z</time>
      </trkpt>
      <trkpt lat="43.22756" lon="2.37001">
        <ele>107.7</ele>
        <time>2019-07-14T07:37:41.000Z</time>
      </trkpt>
      <trkpt lat="43.22755" lon="2.36997">
        <ele>107.6</ele>
        <time>2019-07-14T07:37:42.000Z</time>
      </trkpt>
      <trkpt lat="43.22754" lon="2.36994">
        <ele>107.5</ele>
        <time>2019-07-14T07:37:43.000Z</time>
      </trkpt>
      <trkpt lat="43.22753" lon="2.36991">
        <ele>107.5</ele>
        <time>2019-07-14T07:37:44.000Z</time>
      </trkpt>
      <trkpt lat="43.22752" lon="2.36988">
        <ele>107.4</ele>
        <time>2019-07-14T07:37:45.000Z</time>
      </trkpt>
      <trkpt lat="43.22751" lon="2.36984">
        <ele>107.3</ele>
        <time>2019-07-14T07:37:46.000Z</time>
      </trkpt>
      <trkpt lat="43.22749" lon="2.36981">
        <ele>107.2</ele>
        <time>2019-07-14T07:37:47.000Z</time>
      </trkpt>
      <trkpt lat="43.22748" lon="2.36978">
        <ele>107.1</ele>
        <time>2019-07-14T07:37:48.000Z</time>
      </trkpt>
      <trkpt lat="43.22747" lon="2.36975">
        <ele>107.1</ele>
        <time>2019-07-14T07:37:49.000Z</time>
      </trkpt>
      <trkpt lat="43.22746" lon="2.36972">
        <ele>107</ele>
        <time>2019-07-14T07:37:50.000Z</time>
      </trkpt>
      <trkpt lat="43.22744" lon="2.36969">
        <ele>107</ele>
        <time>2019-07-14T07:37:51.000Z</time>
      </trkpt>
      <trkpt lat="43.22743" lon="2.36966">
        <ele>107</ele>
        <time>2019-07-14T07:37:52.000Z</time>
      </trkpt>
      <trkpt lat="43.22741" lon="2.36963">
        <ele>106.9</ele>
        <time>2019-07-14T07:37:53.000Z</time>
      </trkpt>
      <trkpt lat="43.2274" lon="2.3696">
        <ele>106.8</ele>
        <time>2019-07-14T07:37:54.000Z</time>
      </trkpt>
      <trkpt lat="43.22738" lon="2.36957">
        <ele>106.8</ele>
        <time>2019-07-14T07:37:55.000Z</time>
      </trkpt>
      <trkpt lat="43.22736" lon="2.36954">
        <ele>106.7</ele>
        <time>2019-07-14T07:37:56.000Z</time>
      </trkpt>
      <trkpt lat="43.22735" lon="2.36951">
        <ele>106.7</ele>
        <time>2019-07-14T07:37:57.000Z</time>
      </trkpt>
      <trkpt lat="43.22733" lon="2.36948">
        <ele>106.6</ele>
        <time>2019-07-14T07:37:58.000Z</time>
      </trkpt>
      <trkpt lat="43.22731" lon="2.36945">
        <ele>106.6</ele>
        <time>2019-07-14T07:37:59.000Z</time>
      </trkpt>
      <trkpt lat="43.22729" lon="2.36942">
        <ele>106.5</ele>
        <time>2019-07-14T07:38:00.000Z</time>
      </trkpt>
      <trkpt lat="43.22727" lon="2.36939">
        <ele>106.5</ele>
        <time>2019-07-14T07:38:01.000Z</time>
      </trkpt>
      <trkpt lat="43.22725" lon="2.36937">
        <ele>106.4</ele>
        <time>2019-07-14T07:38:02.000Z</time>
      </trkpt>
      <trkpt lat="43.22723" lon="2.36934">
        <ele>106.4</ele>
        <time>2019-07-14T07:38:03.000Z</time>
      </trkpt>
      <trkpt lat="43.22721" lon="2.36931">
        <ele>106.3</ele>
        <time>2019-07-14T07:38:04.000Z</time>
      </trkpt>
      <trkpt lat="43.22719" lon="2.36928">
        <ele>106.3</ele>
        <time>2019-07-14T07:38:05.000Z</time>
      </trkpt>
      <trkpt lat="43.22717" lon="2.36926">
        <ele>106.2</ele>
        <time>2019-07-14T07:38:06.000Z</time>
      </trkpt>
      <trkpt lat="43.22714" lon="2.36923">
        <ele>106.1</ele>
        <time>2019-07-14T07:38:07.000Z</time>
      </trkpt>
      <trkpt lat="43.22712" lon="2.36921">
        <ele>106.1</ele>
        <time>2019-07-14T07:38:08.000Z</time>
      </trkpt>
      <trkpt lat="43.2271" lon="2.36918">
        <ele>106</ele>
        <time>2019-07-14T07:38:09.000Z</time>
      </trkpt>
      <trkpt lat="43.22707" lon="2.36916">
        <ele>106</ele>
        <time>2019-07-14T07:38:10.000Z</time>
      </trkpt>
      <trkpt lat="43.22705" lon="2.36913">
        <ele>106</ele>
        <time>2019-07-14T07:38:11.000Z</time>
      </trkpt>
      <trkpt lat="43.22703" lon="2.36911">
        <ele>106</ele>
        <time>2019-07-14T07:38:12.000Z</time>
      </trkpt>
      <trkpt lat="43.227" lon="2.36909">
        <ele>106</ele>
        <time>2019-07-14T07:38:13.000Z</time>
      </trkpt>
      <trkpt lat="43.22698" lon="2.36906">
        <ele>106</ele>
        <time>2019-07-14T07:38:14.000Z</time>
      </trkpt>
      <trkpt lat="43.22695" lon="2.36904">
        <ele>106</ele>
        <time>2019-07-14T07:38:15.000Z</time>
      </trkpt>
      <trkpt lat="43.22693" lon="2.36902">
        <ele>106</ele>
        <time>2019-07-14T07:38:16.000Z</time>
      </trkpt>
      <trkpt lat="43.2269" lon="2.369">
        <ele>106</ele>
        <time>2019-07-14T07:38:17.000Z</time>
      </trkpt>
      <trkpt lat="43.22687" lon="2.36898">
        <ele>106</ele>
        <time>2019-07-14T07:38:18.000Z</time>
      </trkpt>
      <trkpt lat="43.22685" lon="2.36896">
        <ele>106</ele>
        <time>2019-07-14T07:38:19.000Z</time>
      </trkpt>
      <trkpt lat="43.22682" lon="2.36894">
        <ele>106</ele>
        <time>2019-07-14T07:38:20.000Z</time>
      </trkpt>
      <trkpt lat="43.22679" lon="2.36892">
        <ele>106</ele>
        <time>2019-07-14T07:38:21.000Z</time>
      </trkpt>
      <trkpt lat="43.22677" lon="2.3689">
        <ele>106</ele>
        <time>2019-07-14T07:38:22.000Z</time>
      </trkpt>
      <trkpt lat="43.22674" lon="2.36889">
        <ele>106</ele>
        <time>2019-07-14T07:38:23.000Z</time>
      </trkpt>
      <trkpt lat="43.22671" lon="2.36887">
        <ele>106</ele>
        <time>2019-07-14T07:38:24.000Z</time>
      </trkpt>
      <trkpt lat="43.22668" lon="2.36885">
        <ele>105.9</ele>
        <time>2019-07-14T07:38:25.000Z</time>
      </trkpt>
      <trkpt lat="43.22666" lon="2.36884">
        <ele>106</ele>
        <time>2019-07-14T07:38:26.000Z</time>
      </trkpt>
      <trkpt lat="43.22663" lon="2.36882">
        <ele>106</ele>
        <time>2019-07-14T07:38:27.000Z</time>
      </trkpt>
      <trkpt lat="43.2266" lon="2.36881">
        <ele>106.1</ele>
        <time>2019-07-14T07:38:28.000Z</time>
      </trkpt>
      <trkpt lat="43.22657" lon="2.3688">
        <ele>106.2</ele>
        <time>2019-07-14T07:38:29.000Z</time>
      </trkpt>
      <trkpt lat="43.22654" lon="2.36879">
        <ele>106.3</ele>
        <time>2019-07-14T07:38:30.000Z</time>
      </trkpt>
      <trkpt lat="43.22651" lon="2.36878">
        <ele>106.3</ele>
        <time>2019-07-14T07:38:31.000Z</time>
      </trkpt>
      <trkpt lat="43.22648" lon="2.36876">
        <ele>106.4</ele>
        <time>2019-07-14T07:38:32.000Z</time>
      </trkpt>
      <trkpt lat="43.22645" lon="2.36876">
        <ele>106.5</ele>
        <time>2019-07-14T07:38:33.000Z</time>
      </trkpt>
      <trkpt lat="43.22642" lon="2.36875">
        <ele>106.5</ele>
        <time>2019-07-14T07:38:34.000Z</time>
      </trkpt>
      <trkpt lat="43.22639" lon="2.36874">
        <ele>106.6</ele>
        <time>2019-07-14T07:38:35.000Z</time>
      </trkpt>
      <trkpt lat="43.22636" lon="2.36873">
        <ele>106.6</ele>
        <time>2019-07-14T07:38:36.000Z</time>
      </trkpt>
      <trkpt lat="43.22633" lon="2.36873">
        <ele>106.7</ele>
        <time>2019-07-14T07:38:37.000Z</time>
      </trkpt>
      <trkpt lat="43.22629" lon="2.36872">
        <ele>106.7</ele>
        <time>2019-07-14T07:38:38.000Z</time>
      </trkpt>
      <trkpt lat="43.22626" lon="2.36872">
        <ele>106.8</ele>
        <time>2019-07-14T07:38:39.000Z</time>
      </trkpt>
      <trkpt lat="43.22623" lon="2.36871">
        <ele>106.8</ele>
        <time>2019-07-14T07:38:40.000Z</time>
      </trkpt>
      <trkpt lat="43.2262" lon="2.36871">
        <ele>106.9</ele>
        <time>2019-07-14T07:38:41.000Z</time>
      </trkpt>
      <trkpt lat="43.22616" lon="2.3687">
        <ele>106.9</ele>
        <time>2019-07-14T07:38:42.000Z</time>
      </trkpt>
      <trkpt lat="43.22613" lon="2.36869">
        <ele>107</ele>
        <time>2019-07-14T07:38:43.000Z</time>
      </trkpt>
      <trkpt lat="43.2261" lon="2.36869">
        <ele>107.1</ele>
        <time>2019-07-14T07:38:44.000Z</time>
      </trkpt>
      <trkpt lat="43.22607" lon="2.36868">
        <ele>107.2</ele>
        <time>2019-07-14T07:38:45.000Z</time>
      </trkpt>
      <trkpt lat="43.22604" lon="2.36867">
        <ele>107.3</ele>
        <time>2019-07-14T07:38:46.000Z</time>
      </trkpt>
      <trkpt lat="43.22601" lon="2.36866">
        <ele>107.4</ele>
        <time>2019-07-14T07:38:47.000Z</time>
      </trkpt>
      <trkpt lat="43.22597" lon="2.36865">
        <ele>107.5</ele>
        <time>2019-07-14T07:38:48.000Z</time>
      </trkpt>
      <trkpt lat="43.22594" lon="2.36864">
        <ele>107.6</ele>
        <time>2019-07-14T07:38:49.000Z</time>
      </trkpt>
      <trkpt lat="43.22591" lon="2.36863">
        <ele>107.7</ele>
        <time>2019-07-14T07:38:50.000Z</time>
      </trkpt>
      <trkpt lat="43.22588" lon="2.36862">
        <ele>107.8</ele>
        <time>2019-07-14T07:38:51.000Z</time>
      </trkpt>
      <trkpt lat="43.22585" lon="2.36862">
        <ele>107.9</ele>
        <time>2019-07-14T07:38:52.000Z</time>
      </trkpt>
      <trkpt lat="43.22582" lon="2.36861">
        <ele>108</ele>
        <time>2019-07-14T07:38:53.000Z</time>
      </trkpt>
      <trkpt lat="43.2258" lon="2.3686">
        <ele>107.9</ele>
        <time>2019-07-14T07:38:54.000Z</time>
      </trkpt>
      <trkpt lat="43.22577" lon="2.36859">
        <ele>107.8</ele>
        <time>2019-07-14T07:38:55.000Z</time>
      </trkpt>
      <trkpt lat="43.22574" lon="2.36858">
        <ele>107.7</ele>
        <time>2019-07-14T07:38:56.000Z</time>
      </trkpt>
      <trkpt lat="43.22571" lon="2.36857">
        <ele>107.6</ele>
        <time>2019-07-14T07:38:57.000Z</time>
      </trkpt>
      <trkpt lat="43.22568" lon="2.36857">
        <ele>107.5</ele>
        <time>2019-07-14T07:38:58.000Z</time>
      </trkpt>
      <trkpt lat="43.22564" lon="2.36856">
        <ele>107.3</ele>
        <time>2019-07-14T07:38:59.000Z</time>
      </trkpt>
      <trkpt lat="43.22561" lon="2.36855">
        <ele>107.2</ele>
        <time>2019-07-14T07:39:00.000Z</time>
      </trkpt>
      <trkpt lat="43.22558" lon="2.36855">
        <ele>107</ele>
        <time>2019-07-14T07:39:01.000Z</time>
      </trkpt>
      <trkpt lat="43.22555" lon="2.36854">
        <ele>106.9</ele>
        <time>2019-07-14T07:39:02.000Z</time>
      </trkpt>
      <trkpt lat="43.22552" lon="2.36853">
        <ele>106.7</ele>
        <time>2019-07-14T07:39:03.000Z</time>
      </trkpt>
      <trkpt lat="43.22548" lon="2.36853">
        <ele>106.5</ele>
        <time>2019-07-14T07:39:04.000Z</time>
      </trkpt>
      <trkpt lat="43.22545" lon="2.36852">
        <ele>106.4</ele>
        <time>2019-07-14T07:39:05.000Z</time>
      </trkpt>
      <trkpt lat="43.22542" lon="2.36851">
        <ele>106.2</ele>
        <time>2019-07-14T07:39:06.000Z</time>
      </trkpt>
      <trkpt lat="43.22538" lon="2.36851">
        <ele>106</ele>
        <time>2019-07-14T07:39:07.000Z</time>
      </trkpt>
      <trkpt lat="43.22535" lon="2.3685">
        <ele>105.9</ele>
        <time>2019-07-14T07:39:08.000Z</time>
      </trkpt>
      <trkpt lat="43.22532" lon="2.36849">
        <ele>105.7</ele>
        <time>2019-07-14T07:39:09.000Z</time>
      </trkpt>
      <trkpt lat="43.22529" lon="2.36848">
        <ele>105.5</ele>
        <time>2019-07-14T07:39:10.000Z</time>
      </trkpt>
      <trkpt lat="43.22526" lon="2.36847">
        <ele>105.4</ele>
        <time>2019-07-14T07:39:11.000Z</time>
      </trkpt>
      <trkpt lat="43.22523" lon="2.36845">
        <ele>105.2</ele>
        <time>2019-07-14T07:39:12.000Z</time>
      </trkpt>
      <trkpt lat="43.2252" lon="2.36844">
        <ele>105.1</ele>
        <time>2019-07-14T07:39:13.000Z</time>
      </trkpt>
      <trkpt lat="43.22517" lon="2.36843">
        <ele>104.9</ele>
        <time>2019-07-14T07:39:14.000Z</time>
      </trkpt>
      <trkpt lat="43.22514" lon="2.36841">
        <ele>104.8</ele>
        <time>2019-07-14T07:39:15.000Z</time>
      </trkpt>
      <trkpt lat="43.22511" lon="2.3684">
        <ele>104.6</ele>
        <time>2019-07-14T07:39:16.000Z</time>
      </trkpt>
      <trkpt lat="43.22508" lon="2.36838">
        <ele>104.5</ele>
        <time>2019-07-14T07:39:17.000Z</time>
      </trkpt>
      <trkpt lat="43.22505" lon="2.36837">
        <ele>104.3</ele>
        <time>2019-07-14T07:39:18.000Z</time>
      </trkpt>
      <trkpt lat="43.22502" lon="2.36835">
        <ele>104.1</ele>
        <time>2019-07-14T07:39:19.000Z</time>
      </trkpt>
      <trkpt lat="43.225" lon="2.36833">
        <ele>104</ele>
        <time>2019-07-14T07:39:20.000Z</time>
      </trkpt>
      <trkpt lat="43.22497" lon="2.36831">
        <ele>104</ele>
        <time>2019-07-14T07:39:21.000Z</time>
      </trkpt>
      <trkpt lat="43.22494" lon="2.36829">
        <ele>104.1</ele>
        <time>2019-07-14T07:39:22.000Z</time>
      </trkpt>
      <trkpt lat="43.22492" lon="2.36827">
        <ele>104.1</ele>
        <time>2019-07-14T07:39:23.000Z</time>
      </trkpt>
      <trkpt lat="43.22489" lon="2.36825">
        <ele>104.1</ele>
        <time>2019-07-14T07:39:24.000Z</time>
      </trkpt>
      <trkpt lat="43.22486" lon="2.36823">
        <ele>104.1</ele>
        <time>2019-07-14T07:39:25.000Z</time>
      </trkpt>
      <trkpt lat="43.22484" lon="2.36821">
        <ele>104.1</ele>
        <time>2019-07-14T07:39:26.000Z</time>
      </trkpt>
      <trkpt lat="43.22481" lon="2.36819">
        <ele>104.2</ele>
        <time>2019-07-14T07:39:27.000Z</time>
      </trkpt>
      <trkpt lat="43.22478" lon="2.36817">
        <ele>104.1</ele>
        <time>2019-07-14T07:39:28.000Z</time>
      </trkpt>
      <trkpt lat="43.22476" lon="2.36815">
        <ele>104.2</ele>
        <time>2019-07-14T07:39:29.000Z</time>
      </trkpt>
      <trkpt lat="43.22473" lon="2.36813">
        <ele>104.1</ele>
        <time>2019-07-14T07:39:30.000Z</time>
      </trkpt>
      <trkpt lat="43.2247" lon="2.3681">
        <ele>104.1</ele>
        <time>2019-07-14T07:39:31.000Z</time>
      </trkpt>
      <trkpt lat="43.22468" lon="2.36808">
        <ele>104.1</ele>
        <time>2019-07-14T07:39:32.000Z</time>
      </trkpt>
      <trkpt lat="43.22465" lon="2.36806">
        <ele>104.1</ele>
        <time>2019-07-14T07:39:33.000Z</time>
      </trkpt>
      <trkpt lat="43.22463" lon="2.36803">
        <ele>104.1</ele>
        <time>2019-07-14T07:39:34.000Z</time>
      </trkpt>
      <trkpt lat="43.2246" lon="2.368">
        <ele>104.1</ele>
        <time>2019-07-14T07:39:35.000Z</time>
      </trkpt>
      <trkpt lat="43.22458" lon="2.36798">
        <ele>104</ele>
        <time>2019-07-14T07:39:36.000Z</time>
      </trkpt>
      <trkpt lat="43.22455" lon="2.36795">
        <ele>104</ele>
        <time>2019-07-14T07:39:37.000Z</time>
      </trkpt>
      <trkpt lat="43.22453" lon="2.36792">
        <ele>104</ele>
        <time>2019-07-14T07:39:38.000Z</time>
      </trkpt>
      <trkpt lat="43.2245" lon="2.36789">
        <ele>103.9</ele>
        <time>2019-07-14T07:39:39.000Z</time>
      </trkpt>
      <trkpt lat="43.22448" lon="2.36786">
        <ele>103.9</ele>
        <time>2019-07-14T07:39:40.000Z</time>
      </trkpt>
      <trkpt lat="43.22445" lon="2.36783">
        <ele>103.9</ele>
        <time>2019-07-14T07:39:41.000Z</time>
      </trkpt>
      <trkpt lat="43.22443" lon="2.3678">
        <ele>103.8</ele>
        <time>2019-07-14T07:39:42.000Z</time>
      </trkpt>
      <trkpt lat="43.22441" lon="2.36777">
        <ele>103.8</ele>
        <time>2019-07-14T07:39:43.000Z</time>
      </trkpt>
      <trkpt lat="43.22438" lon="2.36773">
        <ele>103.8</ele>
        <time>2019-07-14T07:39:44.000Z</time>
      </trkpt>
      <trkpt lat="43.22436" lon="2.3677">
        <ele>103.7</ele>
        <time>2019-07-14T07:39:45.000Z</time>
      </trkpt>
      <trkpt lat="43.22434" lon="2.36766">
        <ele>103.7</ele>
        <time>2019-07-14T07:39:46.000Z</time>
      </trkpt>
      <trkpt lat="43.22432" lon="2.36763">
        <ele>103.6</ele>
        <time>2019-07-14T07:39:47.000Z</time>
      </trkpt>
      <trkpt lat="43.2243" lon="2.36759">
        <ele>103.5</ele>
        <time>2019-07-14T07:39:48.000Z</time>
      </trkpt>
      <trkpt lat="43.22428" lon="2.36756">
        <ele>103.5</ele>
        <time>2019-07-14T07:39:49.000Z</time>
      </trkpt>
      <trkpt lat="43.22426" lon="2.36752">
        <ele>103.4</ele>
        <time>2019-07-14T07:39:50.000Z</time>
      </trkpt>
      <trkpt lat="43.22424" lon="2.36749">
        <ele>103.3</ele>
        <time>2019-07-14T07:39:51.000Z</time>
      </trkpt>
      <trkpt lat="43.22422" lon="2.36745">
        <ele>103.2</ele>
        <time>2019-07-14T07:39:52.000Z</time>
      </trkpt>
      <trkpt lat="43.22421" lon="2.36742">
        <ele>103.1</ele>
        <time>2019-07-14T07:39:53.000Z</time>
      </trkpt>
      <trkpt lat="43.22419" lon="2.36738">
        <ele>103.1</ele>
        <time>2019-07-14T07:39:54.000Z</time>
      </trkpt>
      <trkpt lat="43.22418" lon="2.36735">
        <ele>103</ele>
        <time>2019-07-14T07:39:55.000Z</time>
      </trkpt>
      <trkpt lat="43.22416" lon="2.36732">
        <ele>103.1</ele>
        <time>2019-07-14T07:39:56.000Z</time>
      </trkpt>
      <trkpt lat="43.22415" lon="2.36728">
        <ele>103.2</ele>
        <time>2019-07-14T07:39:57.000Z</time>
      </trkpt>
      <trkpt lat="43.22413" lon="2.36725">
        <ele>103.3</ele>
        <time>2019-07-14T07:39:58.000Z</time>
      </trkpt>
      <trkpt lat="43.22412" lon="2.36722">
        <ele>103.4</ele>
        <time>2019-07-14T07:39:59.000Z</time>
      </trkpt>
      <trkpt lat="43.22411" lon="2.36719">
        <ele>103.5</ele>
        <time>2019-07-14T07:40:00.000Z</time>
      </trkpt>
      <trkpt lat="43.2241" lon="2.36715">
        <ele>103.6</ele>
        <time>2019-07-14T07:40:01.000Z</time>
      </trkpt>
      <trkpt lat="43.22409" lon="2.36712">
        <ele>103.7</ele>
        <time>2019-07-14T07:40:02.000Z</time>
      </trkpt>
      <trkpt lat="43.22408" lon="2.36709">
        <ele>103.8</ele>
        <time>2019-07-14T07:40:03.000Z</time>
      </trkpt>
      <trkpt lat="43.22407" lon="2.36706">
        <ele>103.9</ele>
        <time>2019-07-14T07:40:04.000Z</time>
      </trkpt>
      <trkpt lat="43.22406" lon="2.36702">
        <ele>104</ele>
        <time>2019-07-14T07:40:05.000Z</time>
      </trkpt>
      <trkpt lat="43.22405" lon="2.36699">
        <ele>104.1</ele>
        <time>2019-07-14T07:40:06.000Z</time>
      </trkpt>
      <trkpt lat="43.22404" lon="2.36696">
        <ele>104.2</ele>
        <time>2019-07-14T07:40:07.000Z</time>
      </trkpt>
      <trkpt lat="43.22404" lon="2.36692">
        <ele>104.3</ele>
        <time>2019-07-14T07:40:08.000Z</time>
      </trkpt>
      <trkpt lat="43.22403" lon="2.36689">
        <ele>104.5</ele>
        <time>2019-07-14T07:40:09.000Z</time>
      </trkpt>
      <trkpt lat="43.22402" lon="2.36685">
        <ele>104.6</ele>
        <time>2019-07-14T07:40:10.000Z</time>
      </trkpt>
      <trkpt lat="43.22401" lon="2.36682">
        <ele>104.7</ele>
        <time>2019-07-14T07:40:11.000Z</time>
      </trkpt>
      <trkpt lat="43.22401" lon="2.36678">
        <ele>104.8</ele>
        <time>2019-07-14T07:40:12.000Z</time>
      </trkpt>
      <trkpt lat="43.224" lon="2.36675">
        <ele>105</ele>
        <time>2019-07-14T07:40:13.000Z</time>
      </trkpt>
      <trkpt lat="43.22399" lon="2.36671">
        <ele>105.1</ele>
        <time>2019-07-14T07:40:14.000Z</time>
      </trkpt>
      <trkpt lat="43.22399" lon="2.36667">
        <ele>105.2</ele>
        <time>2019-07-14T07:40:15.000Z</time>
      </trkpt>
      <trkpt lat="43.22398" lon="2.36664">
        <ele>105.3</ele>
        <time>2019-07-14T07:40:16.000Z</time>
      </trkpt>
      <trkpt lat="43.22397" lon="2.3666">
        <ele>105.4</ele>
        <time>2019-07-14T07:40:17.000Z</time>
      </trkpt>
      <trkpt lat="43.22397" lon="2.36656">
        <ele>105.5</ele>
        <time>2019-07-14T07:40:18.000Z</time>
      </trkpt>
      <trkpt lat="43.22396" lon="2.36652">
        <ele>105.6</ele>
        <time>2019-07-14T07:40:19.000Z</time>
      </trkpt>
      <trkpt lat="43.22396" lon="2.36648">
        <ele>105.7</ele>
        <time>2019-07-14T07:40:20.000Z</time>
      </trkpt>
      <trkpt lat="43.22395" lon="2.36645">
        <ele>105.8</ele>
        <time>2019-07-14T07:40:21.000Z</time>
      </trkpt>
      <trkpt lat="43.22395" lon="2.36641">
        <ele>106</ele>
        <time>2019-07-14T07:40:22.000Z</time>
      </trkpt>
      <trkpt lat="43.22394" lon="2.36637">
        <ele>106.1</ele>
        <time>2019-07-14T07:40:23.000Z</time>
      </trkpt>
      <trkpt lat="43.22394" lon="2.36633">
        <ele>106.2</ele>
        <time>2019-07-14T07:40:24.000Z</time>
      </trkpt>
      <trkpt lat="43.22393" lon="2.36629">
        <ele>106.3</ele>
        <time>2019-07-14T07:40:25.000Z</time>
      </trkpt>
      <trkpt lat="43.22393" lon="2.36625">
        <ele>106.4</ele>
        <time>2019-07-14T07:40:26.000Z</time>
      </trkpt>
      <trkpt lat="43.22392" lon="2.36621">
        <ele>106.5</ele>
        <time>2019-07-14T07:40:27.000Z</time>
      </trkpt>
      <trkpt lat="43.22392" lon="2.36617">
        <ele>106.7</ele>
        <time>2019-07-14T07:40:28.000Z</time>
      </trkpt>
      <trkpt lat="43.22392" lon="2.36613">
        <ele>106.8</ele>
        <time>2019-07-14T07:40:29.000Z</time>
      </trkpt>
      <trkpt lat="43.22391" lon="2.36609">
        <ele>106.9</ele>
        <time>2019-07-14T07:40:30.000Z</time>
      </trkpt>
      <trkpt lat="43.22391" lon="2.36605">
        <ele>107</ele>
        <time>2019-07-14T07:40:31.000Z</time>
      </trkpt>
      <trkpt lat="43.22391" lon="2.36602">
        <ele>107.2</ele>
        <time>2019-07-14T07:40:32.000Z</time>
      </trkpt>
      <trkpt lat="43.22391" lon="2.36598">
        <ele>107.3</ele>
        <time>2019-07-14T07:40:33.000Z</time>
      </trkpt>
      <trkpt lat="43.22391" lon="2.36594">
        <ele>107.5</ele>
        <time>2019-07-14T07:40:34.000Z</time>
      </trkpt>
      <trkpt lat="43.22391" lon="2.3659">
        <ele>107.6</ele>
        <time>2019-07-14T07:40:35.000Z</time>
      </trkpt>
      <trkpt lat="43.22391" lon="2.36586">
        <ele>107.8</ele>
        <time>2019-07-14T07:40:36.000Z</time>
      </trkpt>
      <trkpt lat="43.22391" lon="2.36582">
        <ele>107.9</ele>
        <time>2019-07-14T07:40:37.000Z</time>
      </trkpt>
      <trkpt lat="43.22391" lon="2.36578">
        <ele>108</ele>
        <time>2019-07-14T07:40:38.000Z</time>
      </trkpt>
      <trkpt lat="43.22391" lon="2.36574">
        <ele>108.1</ele>
        <time>2019-07-14T07:40:39.000Z</time>
      </trkpt>
      <trkpt lat="43.22391" lon="2.3657">
        <ele>108.2</ele>
        <time>2019-07-14T07:40:40.000Z</time>
      </trkpt>
      <trkpt lat="43.22392" lon="2.36566">
        <ele>108.3</ele>
        <time>2019-07-14T07:40:41.000Z</time>
      </trkpt>
      <trkpt lat="43.22392" lon="2.36562">
        <ele>108.5</ele>
        <time>2019-07-14T07:40:42.000Z</time>
      </trkpt>
      <trkpt lat="43.22392" lon="2.36558">
        <ele>108.6</ele>
        <time>2019-07-14T07:40:43.000Z</time>
      </trkpt>
      <trkpt lat="43.22393" lon="2.36554">
        <ele>108.8</ele>
        <time>2019-07-14T07:40:44.000Z</time>
      </trkpt>
      <trkpt lat="43.22393" lon="2.3655">
        <ele>108.9</ele>
        <time>2019-07-14T07:40:45.000Z</time>
      </trkpt>
      <trkpt lat="43.22394" lon="2.36545">
        <ele>109</ele>
        <time>2019-07-14T07:40:46.000Z</time>
      </trkpt>
      <trkpt lat="43.22394" lon="2.36541">
        <ele>109.2</ele>
        <time>2019-07-14T07:40:47.000Z</time>
      </trkpt>
      <trkpt lat="43.22395" lon="2.36537">
        <ele>109.3</ele>
        <time>2019-07-14T07:40:48.000Z</time>
      </trkpt>
      <trkpt lat="43.22395" lon="2.36533">
        <ele>109.5</ele>
        <time>2019-07-14T07:40:49.000Z</time>
      </trkpt>
      <trkpt lat="43.22395" lon="2.36528">
        <ele>109.6</ele>
        <time>2019-07-14T07:40:50.000Z</time>
      </trkpt>
      <trkpt lat="43.22396" lon="2.36524">
        <ele>109.7</ele>
        <time>2019-07-14T07:40:51.000Z</time>
      </trkpt>
      <trkpt lat="43.22396" lon="2.36519">
        <ele>109.8</ele>
        <time>2019-07-14T07:40:52.000Z</time>
      </trkpt>
      <trkpt lat="43.22396" lon="2.36515">
        <ele>109.9</ele>
        <time>2019-07-14T07:40:53.000Z</time>
      </trkpt>
      <trkpt lat="43.22396" lon="2.3651">
        <ele>110</ele>
        <time>2019-07-14T07:40:54.000Z</time>
      </trkpt>
      <trkpt lat="43.22396" lon="2.36506">
        <ele>110.1</ele>
        <time>2019-07-14T07:40:55.000Z</time>
      </trkpt>
      <trkpt lat="43.22396" lon="2.36502">
        <ele>110.3</ele>
        <time>2019-07-14T07:40:56.000Z</time>
      </trkpt>
      <trkpt lat="43.22396" lon="2.36497">
        <ele>110.4</ele>
        <time>2019-07-14T07:40:57.000Z</time>
      </trkpt>
      <trkpt lat="43.22397" lon="2.36493">
        <ele>110.5</ele>
        <time>2019-07-14T07:40:58.000Z</time>
      </trkpt>
      <trkpt lat="43.22397" lon="2.36489">
        <ele>110.6</ele>
        <time>2019-07-14T07:40:59.000Z</time>
      </trkpt>
      <trkpt lat="43.22397" lon="2.36485">
        <ele>110.7</ele>
        <time>2019-07-14T07:41:00.000Z</time>
      </trkpt>
      <trkpt lat="43.22397" lon="2.36481">
        <ele>110.9</ele>
        <time>2019-07-14T07:41:01.000Z</time>
      </trkpt>
      <trkpt lat="43.22398" lon="2.36477">
        <ele>111</ele>
        <time>2019-07-14T07:41:02.000Z</time>
      </trkpt>
      <trkpt lat="43.22398" lon="2.36473">
        <ele>111.1</ele>
        <time>2019-07-14T07:41:03.000Z</time>
      </trkpt>
      <trkpt lat="43.22398" lon="2.36469">
        <ele>111.2</ele>
        <time>2019-07-14T07:41:04.000Z</time>
      </trkpt>
      <trkpt lat="43.22398" lon="2.36465">
        <ele>111.3</ele>
        <time>2019-07-14T07:41:05.000Z</time>
      </trkpt>
      <trkpt lat="43.22398" lon="2.36461">
        <ele>111.4</ele>
        <time>2019-07-14T07:41:06.000Z</time>
      </trkpt>
      <trkpt lat="43.22398" lon="2.36457">
        <ele>111.5</ele>
        <time>2019-07-14T07:41:07.000Z</time>
      </trkpt>
      <trkpt lat="43.22398" lon="2.36453">
        <ele>111.6</ele>
        <time>2019-07-14T07:41:08.000Z</time>
      </trkpt>
      <trkpt lat="43.22398" lon="2.36449">
        <ele>111.7</ele>
        <time>2019-07-14T07:41:09.000Z</time>
      </trkpt>
      <trkpt lat="43.22398" lon="2.36444">
        <ele>111.8</ele>
        <time>2019-07-14T07:41:10.000Z</time>
      </trkpt>
      <trkpt lat="43.22399" lon="2.3644">
        <ele>111.9</ele>
        <time>2019-07-14T07:41:11.000Z</time>
      </trkpt>
      <trkpt lat="43.22399" lon="2.36436">
        <ele>112</ele>
        <time>2019-07-14T07:41:12.000Z</time>
      </trkpt>
      <trkpt lat="43.22399" lon="2.36432">
        <ele>112.1</ele>
        <time>2019-07-14T07:41:13.000Z</time>
      </trkpt>
      <trkpt lat="43.22399" lon="2.36427">
        <ele>112.2</ele>
        <time>2019-07-14T07:41:14.000Z</time>
      </trkpt>
      <trkpt lat="43.22399" lon="2.36423">
        <ele>112.3</ele>
        <time>2019-07-14T07:41:15.000Z</time>
      </trkpt>
      <trkpt lat="43.22399" lon="2.36418">
        <ele>112.4</ele>
        <time>2019-07-14T07:41:16.000Z</time>
      </trkpt>
      <trkpt lat="43.22399" lon="2.36414">
        <ele>112.6</ele>
        <time>2019-07-14T07:41:17.000Z</time>
      </trkpt>
      <trkpt lat="43.22399" lon="2.3641">
        <ele>112.8</ele>
        <time>2019-07-14T07:41:18.000Z</time>
      </trkpt>
      <trkpt lat="43.224" lon="2.36405">
        <ele>113</ele>
        <time>2019-07-14T07:41:19.000Z</time>
      </trkpt>
      <trkpt lat="43.224" lon="2.36401">
        <ele>113.2</ele>
        <time>2019-07-14T07:41:20.000Z</time>
      </trkpt>
      <trkpt lat="43.224" lon="2.36396">
        <ele>113.4</ele>
        <time>2019-07-14T07:41:21.000Z</time>
      </trkpt>
      <trkpt lat="43.224" lon="2.36392">
        <ele>113.6</ele>
        <time>2019-07-14T07:41:22.000Z</time>
      </trkpt>
      <trkpt lat="43.224" lon="2.36387">
        <ele>113.8</ele>
        <time>2019-07-14T07:41:23.000Z</time>
      </trkpt>
      <trkpt lat="43.22401" lon="2.36383">
        <ele>114</ele>
        <time>2019-07-14T07:41:24.000Z</time>
      </trkpt>
      <trkpt lat="43.22401" lon="2.36379">
        <ele>114.2</ele>
        <time>2019-07-14T07:41:25.000Z</time>
      </trkpt>
      <trkpt lat="43.22401" lon="2.36375">
        <ele>114.4</ele>
        <time>2019-07-14T07:41:26.000Z</time>
      </trkpt>
      <trkpt lat="43.22401" lon="2.3637">
        <ele>114.6</ele>
        <time>2019-07-14T07:41:27.000Z</time>
      </trkpt>
      <trkpt lat="43.22401" lon="2.36366">
        <ele>114.7</ele>
        <time>2019-07-14T07:41:28.000Z</time>
      </trkpt>
      <trkpt lat="43.22401" lon="2.36362">
        <ele>114.9</ele>
        <time>2019-07-14T07:41:29.000Z</time>
      </trkpt>
      <trkpt lat="43.22401" lon="2.36358">
        <ele>115.1</ele>
        <time>2019-07-14T07:41:30.000Z</time>
      </trkpt>
      <trkpt lat="43.22401" lon="2.36354">
        <ele>115.2</ele>
        <time>2019-07-14T07:41:31.000Z</time>
      </trkpt>
      <trkpt lat="43.22401" lon="2.3635">
        <ele>115.4</ele>
        <time>2019-07-14T07:41:32.000Z</time>
      </trkpt>
      <trkpt lat="43.22401" lon="2.36346">
        <ele>115.5</ele>
        <time>2019-07-14T07:41:33.000Z</time>
      </trkpt>
      <trkpt lat="43.22401" lon="2.36342">
        <ele>115.6</ele>
        <time>2019-07-14T07:41:34.000Z</time>
      </trkpt>
      <trkpt lat="43.22401" lon="2.36338">
        <ele>115.8</ele>
        <time>2019-07-14T07:41:35.000Z</time>
      </trkpt>
      <trkpt lat="43.22401" lon="2.36334">
        <ele>115.9</ele>
        <time>2019-07-14T07:41:36.000Z</time>
      </trkpt>
      <trkpt lat="43.224" lon="2.3633">
        <ele>115.9</ele>
        <time>2019-07-14T07:41:37.000Z</time>
      </trkpt>
      <trkpt lat="43.224" lon="2.36326">
        <ele>115.8</ele>
        <time>2019-07-14T07:41:38.000Z</time>
      </trkpt>
      <trkpt lat="43.224" lon="2.36322">
        <ele>115.8</ele>
        <time>2019-07-14T07:41:39.000Z</time>
      </trkpt>
      <trkpt lat="43.224" lon="2.36318">
        <ele>115.8</ele>
        <time>2019-07-14T07:41:40.000Z</time>
      </trkpt>
      <trkpt lat="43.22399" lon="2.36314">
        <ele>115.7</ele>
        <time>2019-07-14T07:41:41.000Z</time>
      </trkpt>
      <trkpt lat="43.22399" lon="2.3631">
        <ele>115.7</ele>
        <time>2019-07-14T07:41:42.000Z</time>
      </trkpt>
      <trkpt lat="43.22399" lon="2.36306">
        <ele>115.6</ele>
        <time>2019-07-14T07:41:43.000Z</time>
      </trkpt>
      <trkpt lat="43.22399" lon="2.36302">
        <ele>115.6</ele>
        <time>2019-07-14T07:41:44.000Z</time>
      </trkpt>
      <trkpt lat="43.22398" lon="2.36298">
        <ele>115.6</ele>
        <time>2019-07-14T07:41:45.000Z</time>
      </trkpt>
      <trkpt lat="43.22398" lon="2.36294">
        <ele>115.6</ele>
        <time>2019-07-14T07:41:46.000Z</time>
      </trkpt>
      <trkpt lat="43.22398" lon="2.3629">
        <ele>115.5</ele>
        <time>2019-07-14T07:41:47.000Z</time>
      </trkpt>
      <trkpt lat="43.22398" lon="2.36286">
        <ele>115.5</ele>
        <time>2019-07-14T07:41:48.000Z</time>
      </trkpt>
      <trkpt lat="43.22398" lon="2.36282">
        <ele>115.5</ele>
        <time>2019-07-14T07:41:49.000Z</time>
      </trkpt>
      <trkpt lat="43.22397" lon="2.36278">
        <ele>115.4</ele>
        <time>2019-07-14T07:41:50.000Z</time>
      </trkpt>
      <trkpt lat="43.22397" lon="2.36274">
        <ele>115.4</ele>
        <time>2019-07-14T07:41:51.000Z</time>
      </trkpt>
      <trkpt lat="43.22396" lon="2.3627">
        <ele>115.3</ele>
        <time>2019-07-14T07:41:52.000Z</time>
      </trkpt>
      <trkpt lat="43.22396" lon="2.36266">
        <ele>115.2</ele>
        <time>2019-07-14T07:41:53.000Z</time>
      </trkpt>
      <trkpt lat="43.22395" lon="2.36262">
        <ele>115.1</ele>
        <time>2019-07-14T07:41:54.000Z</time>
      </trkpt>
      <trkpt lat="43.22395" lon="2.36258">
        <ele>115.1</ele>
        <time>2019-07-14T07:41:55.000Z</time>
      </trkpt>
      <trkpt lat="43.22394" lon="2.36254">
        <ele>114.9</ele>
        <time>2019-07-14T07:41:56.000Z</time>
      </trkpt>
      <trkpt lat="43.22394" lon="2.3625">
        <ele>114.8</ele>
        <time>2019-07-14T07:41:57.000Z</time>
      </trkpt>
      <trkpt lat="43.22393" lon="2.36246">
        <ele>114.7</ele>
        <time>2019-07-14T07:41:58.000Z</time>
      </trkpt>
      <trkpt lat="43.22392" lon="2.36242">
        <ele>114.5</ele>
        <time>2019-07-14T07:41:59.000Z</time>
      </trkpt>
      <trkpt lat="43.22391" lon="2.36238">
        <ele>114.3</ele>
        <time>2019-07-14T07:42:00.000Z</time>
      </trkpt>
      <trkpt lat="43.22391" lon="2.36234">
        <ele>114.1</ele>
        <time>2019-07-14T07:42:01.000Z</time>
      </trkpt>
      <trkpt lat="43.2239" lon="2.3623">
        <ele>113.9</ele>
        <time>2019-07-14T07:42:02.000Z</time>
      </trkpt>
      <trkpt lat="43.22389" lon="2.36226">
        <ele>113.7</ele>
        <time>2019-07-14T07:42:03.000Z</time>
      </trkpt>
      <trkpt lat="43.22388" lon="2.36222">
        <ele>113.5</ele>
        <time>2019-07-14T07:42:04.000Z</time>
      </trkpt>
      <trkpt lat="43.22387" lon="2.36218">
        <ele>113.3</ele>
        <time>2019-07-14T07:42:05.000Z</time>
      </trkpt>
      <trkpt lat="43.22386" lon="2.36214">
        <ele>113.1</ele>
        <time>2019-07-14T07:42:06.000Z</time>
      </trkpt>
      <trkpt lat="43.22385" lon="2.36211">
        <ele>112.9</ele>
        <time>2019-07-14T07:42:07.000Z</time>
      </trkpt>
      <trkpt lat="43.22384" lon="2.36207">
        <ele>112.6</ele>
        <time>2019-07-14T07:42:08.000Z</time>
      </trkpt>
      <trkpt lat="43.22383" lon="2.36203">
        <ele>112.4</ele>
        <time>2019-07-14T07:42:09.000Z</time>
      </trkpt>
      <trkpt lat="43.22382" lon="2.36199">
        <ele>112.2</ele>
        <time>2019-07-14T07:42:10.000Z</time>
      </trkpt>
      <trkpt lat="43.22381" lon="2.36195">
        <ele>111.9</ele>
        <time>2019-07-14T07:42:11.000Z</time>
      </trkpt>
      <trkpt lat="43.2238" lon="2.36191">
        <ele>111.7</ele>
        <time>2019-07-14T07:42:12.000Z</time>
      </trkpt>
      <trkpt lat="43.22379" lon="2.36187">
        <ele>111.4</ele>
        <time>2019-07-14T07:42:13.000Z</time>
      </trkpt>
      <trkpt lat="43.22378" lon="2.36183">
        <ele>111.2</ele>
        <time>2019-07-14T07:42:14.000Z</time>
      </trkpt>
      <trkpt lat="43.22377" lon="2.36179">
        <ele>110.9</ele>
        <time>2019-07-14T07:42:15.000Z</time>
      </trkpt>
      <trkpt lat="43.22375" lon="2.36175">
        <ele>110.7</ele>
        <time>2019-07-14T07:42:16.000Z</time>
      </trkpt>
      <trkpt lat="43.22374" lon="2.36171">
        <ele>110.4</ele>
        <time>2019-07-14T07:42:17.000Z</time>
      </trkpt>
      <trkpt lat="43.22373" lon="2.36167">
        <ele>110.1</ele>
        <time>2019-07-14T07:42:18.000Z</time>
      </trkpt>
      <trkpt lat="43.22372" lon="2.36163">
        <ele>110</ele>
        <time>2019-07-14T07:42:19.000Z</time>
      </trkpt>
      <trkpt lat="43.2237" lon="2.36159">
        <ele>109.8</ele>
        <time>2019-07-14T07:42:20.000Z</time>
      </trkpt>
      <trkpt lat="43.22369" lon="2.36155">
        <ele>109.7</ele>
        <time>2019-07-14T07:42:21.000Z</time>
      </trkpt>
      <trkpt lat="43.22368" lon="2.36151">
        <ele>109.6</ele>
        <time>2019-07-14T07:42:22.000Z</time>
      </trkpt>
      <trkpt lat="43.22367" lon="2.36147">
        <ele>109.5</ele>
        <time>2019-07-14T07:42:23.000Z</time>
      </trkpt>
      <trkpt lat="43.22366" lon="2.36144">
        <ele>109.4</ele>
        <time>2019-07-14T07:42:24.000Z</time>
      </trkpt>
      <trkpt lat="43.22365" lon="2.3614">
        <ele>109.4</ele>
        <time>2019-07-14T07:42:25.000Z</time>
      </trkpt>
      <trkpt lat="43.22364" lon="2.36136">
        <ele>109.3</ele>
        <time>2019-07-14T07:42:26.000Z</time>
      </trkpt>
      <trkpt lat="43.22363" lon="2.36132">
        <ele>109.2</ele>
        <time>2019-07-14T07:42:27.000Z</time>
      </trkpt>
      <trkpt lat="43.22362" lon="2.36129">
        <ele>109.2</ele>
        <time>2019-07-14T07:42:28.000Z</time>
      </trkpt>
      <trkpt lat="43.22361" lon="2.36126">
        <ele>109.1</ele>
        <time>2019-07-14T07:42:29.000Z</time>
      </trkpt>
      <trkpt lat="43.2236" lon="2.36123">
        <ele>109.1</ele>
        <time>2019-07-14T07:42:30.000Z</time>
      </trkpt>
      <trkpt lat="43.2236" lon="2.36121">
        <ele>109.1</ele>
        <time>2019-07-14T07:42:31.000Z</time>
      </trkpt>
      <trkpt lat="43.22359" lon="2.36119">
        <ele>109</ele>
        <time>2019-07-14T07:42:32.000Z</time>
      </trkpt>
      <trkpt lat="43.22359" lon="2.36117">
        <ele>109</ele>
        <time>2019-07-14T07:42:33.000Z</time>
      </trkpt>
      <trkpt lat="43.22358" lon="2.36116">
        <ele>109</ele>
        <time>2019-07-14T07:42:34.000Z</time>
      </trkpt>
      <trkpt lat="43.22358" lon="2.36115">
        <ele>108.9</ele>
        <time>2019-07-14T07:42:35.000Z</time>
      </trkpt>
      <trkpt lat="43.22358" lon="2.36114">
        <ele>108.9</ele>
        <time>2019-07-14T07:42:36.000Z</time>
      </trkpt>
      <trkpt lat="43.22357" lon="2.36113">
        <ele>108.9</ele>
        <time>2019-07-14T07:42:37.000Z</time>
      </trkpt>
      <trkpt lat="43.22357" lon="2.36112">
        <ele>108.8</ele>
        <time>2019-07-14T07:42:38.000Z</time>
      </trkpt>
      <trkpt lat="43.22357" lon="2.36111">
        <ele>108.8</ele>
        <time>2019-07-14T07:42:39.000Z</time>
      </trkpt>
      <trkpt lat="43.22356" lon="2.36109">
        <ele>108.8</ele>
        <time>2019-07-14T07:42:40.000Z</time>
      </trkpt>
      <trkpt lat="43.22356" lon="2.36108">
        <ele>108.7</ele>
        <time>2019-07-14T07:42:41.000Z</time>
      </trkpt>
      <trkpt lat="43.22355" lon="2.36106">
        <ele>108.7</ele>
        <time>2019-07-14T07:42:42.000Z</time>
      </trkpt>
      <trkpt lat="43.22355" lon="2.36105">
        <ele>108.7</ele>
        <time>2019-07-14T07:42:43.000Z</time>
      </trkpt>
      <trkpt lat="43.22354" lon="2.36103">
        <ele>108.7</ele>
        <time>2019-07-14T07:42:44.000Z</time>
      </trkpt>
      <trkpt lat="43.22354" lon="2.36101">
        <ele>108.6</ele>
        <time>2019-07-14T07:42:45.000Z</time>
      </trkpt>
      <trkpt lat="43.22353" lon="2.36099">
        <ele>108.6</ele>
        <time>2019-07-14T07:42:46.000Z</time>
      </trkpt>
      <trkpt lat="43.22353" lon="2.36097">
        <ele>108.6</ele>
        <time>2019-07-14T07:42:47.000Z</time>
      </trkpt>
      <trkpt lat="43.22352" lon="2.36095">
        <ele>108.5</ele>
        <time>2019-07-14T07:42:48.000Z</time>
      </trkpt>
      <trkpt lat="43.22352" lon="2.36094">
        <ele>108.5</ele>
        <time>2019-07-14T07:42:49.000Z</time>
      </trkpt>
      <trkpt lat="43.22351" lon="2.36092">
        <ele>108.5</ele>
        <time>2019-07-14T07:42:50.000Z</time>
      </trkpt>
      <trkpt lat="43.22351" lon="2.3609">
        <ele>108.5</ele>
        <time>2019-07-14T07:42:51.000Z</time>
      </trkpt>
      <trkpt lat="43.2235" lon="2.36089">
        <ele>108.5</ele>
        <time>2019-07-14T07:42:52.000Z</time>
      </trkpt>
      <trkpt lat="43.2235" lon="2.36087">
        <ele>108.4</ele>
        <time>2019-07-14T07:42:53.000Z</time>
      </trkpt>
      <trkpt lat="43.22349" lon="2.36086">
        <ele>108.4</ele>
        <time>2019-07-14T07:42:54.000Z</time>
      </trkpt>
      <trkpt lat="43.22349" lon="2.36084">
        <ele>108.4</ele>
        <time>2019-07-14T07:42:55.000Z</time>
      </trkpt>
      <trkpt lat="43.22348" lon="2.36083">
        <ele>108.4</ele>
        <time>2019-07-14T07:42:56.000Z</time>
      </trkpt>
      <trkpt lat="43.22348" lon="2.36081">
        <ele>108.4</ele>
        <time>2019-07-14T07:42:57.000Z</time>
      </trkpt>
      <trkpt lat="43.22347" lon="2.36079">
        <ele>108.4</ele>
        <time>2019-07-14T07:42:58.000Z</time>
      </trkpt>
      <trkpt lat="43.22347" lon="2.36078">
        <ele>108.4</ele>
        <time>2019-07-14T07:42:59.000Z</time>
      </trkpt>
      <trkpt lat="43.22347" lon="2.36076">
        <ele>108.5</ele>
        <time>2019-07-14T07:43:00.000Z</time>
      </trkpt>
      <trkpt lat="43.22346" lon="2.36075">
        <ele>108.5</ele>
        <time>2019-07-14T07:43:01.000Z</time>
      </trkpt>
      <trkpt lat="43.22346" lon="2.36073">
        <ele>108.5</ele>
        <time>2019-07-14T07:43:02.000Z</time>
      </trkpt>
      <trkpt lat="43.22345" lon="2.36071">
        <ele>108.5</ele>
        <time>2019-07-14T07:43:03.000Z</time>
      </trkpt>
      <trkpt lat="43.22345" lon="2.3607">
        <ele>108.5</ele>
        <time>2019-07-14T07:43:04.000Z</time>
      </trkpt>
      <trkpt lat="43.22344" lon="2.36068">
        <ele>108.5</ele>
        <time>2019-07-14T07:43:05.000Z</time>
      </trkpt>
      <trkpt lat="43.22343" lon="2.36066">
        <ele>108.5</ele>
        <time>2019-07-14T07:43:06.000Z</time>
      </trkpt>
      <trkpt lat="43.22343" lon="2.36065">
        <ele>108.5</ele>
        <time>2019-07-14T07:43:07.000Z</time>
      </trkpt>
      <trkpt lat="43.22342" lon="2.36063">
        <ele>108.5</ele>
        <time>2019-07-14T07:43:08.000Z</time>
      </trkpt>
      <trkpt lat="43.22342" lon="2.36061">
        <ele>108.5</ele>
        <time>2019-07-14T07:43:09.000Z</time>
      </trkpt>
      <trkpt lat="43.22342" lon="2.3606">
        <ele>108.5</ele>
        <time>2019-07-14T07:43:10.000Z</time>
      </trkpt>
      <trkpt lat="43.22341" lon="2.36058">
        <ele>108.5</ele>
        <time>2019-07-14T07:43:11.000Z</time>
      </trkpt>
      <trkpt lat="43.22341" lon="2.36057">
        <ele>108.5</ele>
        <time>2019-07-14T07:43:12.000Z</time>
      </trkpt>
      <trkpt lat="43.2234" lon="2.36056">
        <ele>108.5</ele>
        <time>2019-07-14T07:43:13.000Z</time>
      </trkpt>
      <trkpt lat="43.2234" lon="2.36054">
        <ele>108.5</ele>
        <time>2019-07-14T07:43:14.000Z</time>
      </trkpt>
      <trkpt lat="43.2234" lon="2.36053">
        <ele>108.5</ele>
        <time>2019-07-14T07:43:15.000Z</time>
      </trkpt>
      <trkpt lat="43.22339" lon="2.36052">
        <ele>108.5</ele>
        <time>2019-07-14T07:43:16.000Z</time>
      </trkpt>
      <trkpt lat="43.22339" lon="2.36051">
        <ele>108.6</ele>
        <time>2019-07-14T07:43:17.000Z</time>
      </trkpt>
      <trkpt lat="43.22339" lon="2.3605">
        <ele>108.6</ele>
        <time>2019-07-14T07:43:18.000Z</time>
      </trkpt>
      <trkpt lat="43.22339" lon="2.36049">
        <ele>108.6</ele>
        <time>2019-07-14T07:43:19.000Z</time>
      </trkpt>
      <trkpt lat="43.22339" lon="2.36049">
        <ele>108.6</ele>
        <time>2019-07-14T07:43:20.000Z</time>
      </trkpt>
      <trkpt lat="43.22339" lon="2.36048">
        <ele>108.6</ele>
        <time>2019-07-14T07:43:21.000Z</time>
      </trkpt>
      <trkpt lat="43.22338" lon="2.36048">
        <ele>108.6</ele>
        <time>2019-07-14T07:43:22.000Z</time>
      </trkpt>
      <trkpt lat="43.22338" lon="2.36047">
        <ele>108.6</ele>
        <time>2019-07-14T07:43:23.000Z</time>
      </trkpt>
      <trkpt lat="43.22338" lon="2.36047">
        <ele>108.5</ele>
        <time>2019-07-14T07:43:24.000Z</time>
      </trkpt>
      <trkpt lat="43.22337" lon="2.36046">
        <ele>108.5</ele>
        <time>2019-07-14T07:43:25.000Z</time>
      </trkpt>
      <trkpt lat="43.22337" lon="2.36045">
        <ele>108.5</ele>
        <time>2019-07-14T07:43:26.000Z</time>
      </trkpt>
      <trkpt lat="43.22337" lon="2.36044">
        <ele>108.5</ele>
        <time>2019-07-14T07:43:27.000Z</time>
      </trkpt>
      <trkpt lat="43.22336" lon="2.36043">
        <ele>108.5</ele>
        <time>2019-07-14T07:43:28.000Z</time>
      </trkpt>
      <trkpt lat="43.22336" lon="2.36041">
        <ele>108.5</ele>
        <time>2019-07-14T07:43:29.000Z</time>
      </trkpt>
      <trkpt lat="43.22336" lon="2.3604">
        <ele>108.5</ele>
        <time>2019-07-14T07:43:30.000Z</time>
      </trkpt>
      <trkpt lat="43.22335" lon="2.36038">
        <ele>108.5</ele>
        <time>2019-07-14T07:43:31.000Z</time>
      </trkpt>
      <trkpt lat="43.22335" lon="2.36037">
        <ele>108.5</ele>
        <time>2019-07-14T07:43:32.000Z</time>
      </trkpt>
      <trkpt lat="43.22334" lon="2.36035">
        <ele>108.5</ele>
        <time>2019-07-14T07:43:33.000Z</time>
      </trkpt>
      <trkpt lat="43.22334" lon="2.36033">
        <ele>108.5</ele>
        <time>2019-07-14T07:43:34.000Z</time>
      </trkpt>
      <trkpt lat="43.22334" lon="2.36032">
        <ele>108.5</ele>
        <time>2019-07-14T07:43:35.000Z</time>
      </trkpt>
      <trkpt lat="43.22333" lon="2.3603">
        <ele>108.6</ele>
        <time>2019-07-14T07:43:36.000Z</time>
      </trkpt>
      <trkpt lat="43.22333" lon="2.36029">
        <ele>108.6</ele>
        <time>2019-07-14T07:43:37.000Z</time>
      </trkpt>
      <trkpt lat="43.22333" lon="2.36027">
        <ele>108.6</ele>
        <time>2019-07-14T07:43:38.000Z</time>
      </trkpt>
      <trkpt lat="43.22332" lon="2.36026">
        <ele>108.7</ele>
        <time>2019-07-14T07:43:39.000Z</time>
      </trkpt>
      <trkpt lat="43.22332" lon="2.36025">
        <ele>108.7</ele>
        <time>2019-07-14T07:43:40.000Z</time>
      </trkpt>
      <trkpt lat="43.22332" lon="2.36023">
        <ele>108.7</ele>
        <time>2019-07-14T07:43:41.000Z</time>
      </trkpt>
      <trkpt lat="43.22331" lon="2.36022">
        <ele>108.8</ele>
        <time>2019-07-14T07:43:42.000Z</time>
      </trkpt>
      <trkpt lat="43.22331" lon="2.3602">
        <ele>108.8</ele>
        <time>2019-07-14T07:43:43.000Z</time>
      </trkpt>
      <trkpt lat="43.22331" lon="2.36019">
        <ele>108.8</ele>
        <time>2019-07-14T07:43:44.000Z</time>
      </trkpt>
      <trkpt lat="43.2233" lon="2.36018">
        <ele>108.8</ele>
        <time>2019-07-14T07:43:45.000Z</time>
      </trkpt>
      <trkpt lat="43.2233" lon="2.36016">
        <ele>108.8</ele>
        <time>2019-07-14T07:43:46.000Z</time>
      </trkpt>
      <trkpt lat="43.22329" lon="2.36015">
        <ele>108.9</ele>
        <time>2019-07-14T07:43:47.000Z</time>
      </trkpt>
      <trkpt lat="43.22329" lon="2.36014">
        <ele>108.9</ele>
        <time>2019-07-14T07:43:48.000Z</time>
      </trkpt>
      <trkpt lat="43.22328" lon="2.36012">
        <ele>108.9</ele>
        <time>2019-07-14T07:43:49.000Z</time>
      </trkpt>
      <trkpt lat="43.22328" lon="2.36011">
        <ele>108.9</ele>
        <time>2019-07-14T07:43:50.000Z</time>
      </trkpt>
      <trkpt lat="43.22327" lon="2.36009">
        <ele>108.9</ele>
        <time>2019-07-14T07:43:51.000Z</time>
      </trkpt>
      <trkpt lat="43.22327" lon="2.36008">
        <ele>109</ele>
        <time>2019-07-14T07:43:52.000Z</time>
      </trkpt>
      <trkpt lat="43.22327" lon="2.36007">
        <ele>109</ele>
        <time>2019-07-14T07:43:53.000Z</time>
      </trkpt>
      <trkpt lat="43.22326" lon="2.36005">
        <ele>109</ele>
        <time>2019-07-14T07:43:54.000Z</time>
      </trkpt>
      <trkpt lat="43.22326" lon="2.36004">
        <ele>109</ele>
        <time>2019-07-14T07:43:55.000Z</time>
      </trkpt>
      <trkpt lat="43.22325" lon="2.36002">
        <ele>109</ele>
        <time>2019-07-14T07:43:56.000Z</time>
      </trkpt>
      <trkpt lat="43.22325" lon="2.36">
        <ele>109.1</ele>
        <time>2019-07-14T07:43:57.000Z</time>
      </trkpt>
      <trkpt lat="43.22324" lon="2.35999">
        <ele>109.1</ele>
        <time>2019-07-14T07:43:58.000Z</time>
      </trkpt>
      <trkpt lat="43.22324" lon="2.35997">
        <ele>109.2</ele>
        <time>2019-07-14T07:43:59.000Z</time>
      </trkpt>
      <trkpt lat="43.22324" lon="2.35996">
        <ele>109.2</ele>
        <time>2019-07-14T07:44:00.000Z</time>
      </trkpt>
      <trkpt lat="43.22323" lon="2.35994">
        <ele>109.3</ele>
        <time>2019-07-14T07:44:01.000Z</time>
      </trkpt>
      <trkpt lat="43.22323" lon="2.35992">
        <ele>109.4</ele>
        <time>2019-07-14T07:44:02.000Z</time>
      </trkpt>
      <trkpt lat="43.22322" lon="2.35991">
        <ele>109.4</ele>
        <time>2019-07-14T07:44:03.000Z</time>
      </trkpt>
      <trkpt lat="43.22322" lon="2.35989">
        <ele>109.5</ele>
        <time>2019-07-14T07:44:04.000Z</time>
      </trkpt>
      <trkpt lat="43.22321" lon="2.35987">
        <ele>109.6</ele>
        <time>2019-07-14T07:44:05.000Z</time>
      </trkpt>
      <trkpt lat="43.22321" lon="2.35986">
        <ele>109.6</ele>
        <time>2019-07-14T07:44:06.000Z</time>
      </trkpt>
      <trkpt lat="43.22321" lon="2.35984">
        <ele>109.7</ele>
        <time>2019-07-14T07:44:07.000Z</time>
      </trkpt>
      <trkpt lat="43.2232" lon="2.35982">
        <ele>109.8</ele>
        <time>2019-07-14T07:44:08.000Z</time>
      </trkpt>
      <trkpt lat="43.2232" lon="2.35981">
        <ele>109.8</ele>
        <time>2019-07-14T07:44:09.000Z</time>
      </trkpt>
      <trkpt lat="43.22319" lon="2.35979">
        <ele>109.9</ele>
        <time>2019-07-14T07:44:10.000Z</time>
      </trkpt>
      <trkpt lat="43.22319" lon="2.35977">
        <ele>110</ele>
        <time>2019-07-14T07:44:11.000Z</time>
      </trkpt>
      <trkpt lat="43.22319" lon="2.35976">
        <ele>110</ele>
        <time>2019-07-14T07:44:12.000Z</time>
      </trkpt>
      <trkpt lat="43.22318" lon="2.35974">
        <ele>110.1</ele>
        <time>2019-07-14T07:44:13.000Z</time>
      </trkpt>
      <trkpt lat="43.22318" lon="2.35972">
        <ele>110.1</ele>
        <time>2019-07-14T07:44:14.000Z</time>
      </trkpt>
      <trkpt lat="43.22318" lon="2.35971">
        <ele>110.2</ele>
        <time>2019-07-14T07:44:15.000Z</time>
      </trkpt>
      <trkpt lat="43.22317" lon="2.3597">
        <ele>110.2</ele>
        <time>2019-07-14T07:44:16.000Z</time>
      </trkpt>
      <trkpt lat="43.22317" lon="2.35968">
        <ele>110.3</ele>
        <time>2019-07-14T07:44:17.000Z</time>
      </trkpt>
      <trkpt lat="43.22316" lon="2.35967">
        <ele>110.3</ele>
        <time>2019-07-14T07:44:18.000Z</time>
      </trkpt>
      <trkpt lat="43.22316" lon="2.35966">
        <ele>110.3</ele>
        <time>2019-07-14T07:44:19.000Z</time>
      </trkpt>
      <trkpt lat="43.22316" lon="2.35965">
        <ele>110.4</ele>
        <time>2019-07-14T07:44:20.000Z</time>
      </trkpt>
      <trkpt lat="43.22315" lon="2.35964">
        <ele>110.4</ele>
        <time>2019-07-14T07:44:21.000Z</time>
      </trkpt>
      <trkpt lat="43.22315" lon="2.35963">
        <ele>110.4</ele>
        <time>2019-07-14T07:44:22.000Z</time>
      </trkpt>
      <trkpt lat="43.22314" lon="2.35962">
        <ele>110.4</ele>
        <time>2019-07-14T07:44:23.000Z</time>
      </trkpt>
      <trkpt lat="43.22314" lon="2.35961">
        <ele>110.4</ele>
        <time>2019-07-14T07:44:24.000Z</time>
      </trkpt>
      <trkpt lat="43.22314" lon="2.3596">
        <ele>110.4</ele>
        <time>2019-07-14T07:44:25.000Z</time>
      </trkpt>
      <trkpt lat="43.22313" lon="2.3596">
        <ele>110.4</ele>
        <time>2019-07-14T07:44:26.000Z</time>
      </trkpt>
      <trkpt lat="43.22313" lon="2.3596">
        <ele>110.4</ele>
        <time>2019-07-14T07:44:27.000Z</time>
      </trkpt>
      <trkpt lat="43.22313" lon="2.35959">
        <ele>110.4</ele>
        <time>2019-07-14T07:44:28.000Z</time>
      </trkpt>
      <trkpt lat="43.22313" lon="2.35959">
        <ele>110.4</ele>
        <time>2019-07-14T07:44:29.000Z</time>
      </trkpt>
      <trkpt lat="43.22313" lon="2.35959">
        <ele>110.4</ele>
        <time>2019-07-14T07:44:30.000Z</time>
      </trkpt>
      <trkpt lat="43.22313" lon="2.35959">
        <ele>110.4</ele>
        <time>2019-07-14T07:44:31.000Z</time>
      </trkpt>
      <trkpt lat="43.22313" lon="2.35959">
        <ele>110.4</ele>
        <time>2019-07-14T07:44:32.000Z</time>
      </trkpt>
      <trkpt lat="43.22313" lon="2.35959">
        <ele>110.4</ele>
        <time>2019-07-14T07:44:33.000Z</time>
      </trkpt>
      <trkpt lat="43.22313" lon="2.35959">
        <ele>110.3</ele>
        <time>2019-07-14T07:44:34.000Z</time>
      </trkpt>
      <trkpt lat="43.22313" lon="2.35959">
        <ele>110.3</ele>
        <time>2019-07-14T07:44:35.000Z</time>
      </trkpt>
      <trkpt lat="43.22313" lon="2.35959">
        <ele>110.3</ele>
        <time>2019-07-14T07:44:36.000Z</time>
      </trkpt>
      <trkpt lat="43.22313" lon="2.35959">
        <ele>110.3</ele>
        <time>2019-07-14T07:44:37.000Z</time>
      </trkpt>
      <trkpt lat="43.22313" lon="2.35959">
        <ele>110.3</ele>
        <time>2019-07-14T07:44:38.000Z</time>
      </trkpt>
      <trkpt lat="43.22313" lon="2.35959">
        <ele>110.3</ele>
        <time>2019-07-14T07:44:39.000Z</time>
      </trkpt>
      <trkpt lat="43.22313" lon="2.35959">
        <ele>110.3</ele>
        <time>2019-07-14T07:44:40.000Z</time>
      </trkpt>
      <trkpt lat="43.22313" lon="2.35959">
        <ele>110.3</ele>
        <time>2019-07-14T07:44:41.000Z</time>
      </trkpt>
      <trkpt lat="43.22313" lon="2.35959">
        <ele>110.3</ele>
        <time>2019-07-14T07:44:42.000Z</time>
      </trkpt>
      <trkpt lat="43.22313" lon="2.35959">
        <ele>110.3</ele>
        <time>2019-07-14T07:44:43.000Z</time>
      </trkpt>
      <trkpt lat="43.22313" lon="2.35959">
        <ele>110.3</ele>
        <time>2019-07-14T07:44:44.000Z</time>
      </trkpt>
      <trkpt lat="43.22313" lon="2.35959">
        <ele>110.3</ele>
        <time>2019-07-14T07:44:45.000Z</time>
      </trkpt>
      <trkpt lat="43.22313" lon="2.35959">
        <ele>110.3</ele>
        <time>2019-07-14T07:44:46.000Z</time>
      </trkpt>
      <trkpt lat="43.22313" lon="2.35959">
        <ele>110.3</ele>
        <time>2019-07-14T07:44:47.000Z</time>
      </trkpt>
      <trkpt lat="43.22313" lon="2.35959">
        <ele>110.3</ele>
        <time>2019-07-14T07:44:48.000Z</time>
      </trkpt>
      <trkpt lat="43.22313" lon="2.35959">
        <ele>110.3</ele>
        <time>2019-07-14T07:44:49.000Z</time>
      </trkpt>
      <trkpt lat="43.22313" lon="2.35959">
        <ele>110.3</ele>
        <time>2019-07-14T07:44:50.000Z</time>
      </trkpt>
      <trkpt lat="43.22313" lon="2.35959">
        <ele>110.3</ele>
        <time>2019-07-14T07:44:51.000Z</time>
      </trkpt>
      <trkpt lat="43.22313" lon="2.35959">
        <ele>110.3</ele>
        <time>2019-07-14T07:44:52.000Z</time>
      </trkpt>
      <trkpt lat="43.22313" lon="2.35959">
        <ele>110.3</ele>
        <time>2019-07-14T07:44:53.000Z</time>
      </trkpt>
      <trkpt lat="43.22313" lon="2.35959">
        <ele>110.3</ele>
        <time>2019-07-14T07:44:54.000Z</time>
      </trkpt>
      <trkpt lat="43.22313" lon="2.35959">
        <ele>110.3</ele>
        <time>2019-07-14T07:44:55.000Z</time>
      </trkpt>
      <trkpt lat="43.22313" lon="2.35959">
        <ele>110.3</ele>
        <time>2019-07-14T07:44:56.000Z</time>
      </trkpt>
      <trkpt lat="43.22313" lon="2.35959">
        <ele>110.3</ele>
        <time>2019-07-14T07:44:57.000Z</time>
      </trkpt>
      <trkpt lat="43.22313" lon="2.35959">
        <ele>110.3</ele>
        <time>2019-07-14T07:44:58.000Z</time>
      </trkpt>
      <trkpt lat="43.22313" lon="2.35959">
        <ele>110.3</ele>
        <time>2019-07-14T07:44:59.000Z</time>
      </trkpt>
      <trkpt lat="43.22313" lon="2.35959">
        <ele>110.3</ele>
        <time>2019-07-14T07:45:00.000Z</time>
      </trkpt>
      <trkpt lat="43.22313" lon="2.35959">
        <ele>110.3</ele>
        <time>2019-07-14T07:45:01.000Z</time>
      </trkpt>
      <trkpt lat="43.22313" lon="2.35959">
        <ele>110.3</ele>
        <time>2019-07-14T07:45:02.000Z</time>
      </trkpt>
      <trkpt lat="43.22313" lon="2.35959">
        <ele>110.3</ele>
        <time>2019-07-14T07:45:03.000Z</time>
      </trkpt>
      <trkpt lat="43.22313" lon="2.35959">
        <ele>110.3</ele>
        <time>2019-07-14T07:45:04.000Z</time>
      </trkpt>
      <trkpt lat="43.22313" lon="2.35959">
        <ele>110.3</ele>
        <time>2019-07-14T07:45:05.000Z</time>
      </trkpt>
      <trkpt lat="43.22313" lon="2.35959">
        <ele>110.3</ele>
        <time>2019-07-14T07:45:06.000Z</time>
      </trkpt>
      <trkpt lat="43.22313" lon="2.35959">
        <ele>110.3</ele>
        <time>2019-07-14T07:45:07.000Z</time>
      </trkpt>
      <trkpt lat="43.22313" lon="2.35959">
        <ele>110.3</ele>
        <time>2019-07-14T07:45:08.000Z</time>
      </trkpt>
      <trkpt lat="43.22313" lon="2.35959">
        <ele>110.3</ele>
        <time>2019-07-14T07:45:09.000Z</time>
      </trkpt>
      <trkpt lat="43.22313" lon="2.35959">
        <ele>110.3</ele>
        <time>2019-07-14T07:45:10.000Z</time>
      </trkpt>
      <trkpt lat="43.22313" lon="2.35959">
        <ele>110.3</ele>
        <time>2019-07-14T07:45:11.000Z</time>
      </trkpt>
      <trkpt lat="43.22313" lon="2.35959">
        <ele>110.3</ele>
        <time>2019-07-14T07:45:12.000Z</time>
      </trkpt>
      <trkpt lat="43.22313" lon="2.35959">
        <ele>110.3</ele>
        <time>2019-07-14T07:45:13.000Z</time>
      </trkpt>
      <trkpt lat="43.22313" lon="2.35959">
        <ele>110.3</ele>
        <time>2019-07-14T07:45:14.000Z</time>
      </trkpt>
      <trkpt lat="43.22313" lon="2.35959">
        <ele>110.3</ele>
        <time>2019-07-14T07:45:15.000Z</time>
      </trkpt>
      <trkpt lat="43.22313" lon="2.35959">
        <ele>110.3</ele>
        <time>2019-07-14T07:45:16.000Z</time>
      </trkpt>
      <trkpt lat="43.22313" lon="2.35959">
        <ele>110.3</ele>
        <time>2019-07-14T07:45:17.000Z</time>
      </trkpt>
      <trkpt lat="43.22313" lon="2.35959">
        <ele>110.3</ele>
        <time>2019-07-14T07:45:18.000Z</time>
      </trkpt>
      <trkpt lat="43.22313" lon="2.35959">
        <ele>110.3</ele>
        <time>2019-07-14T07:45:19.000Z</time>
      </trkpt>
      <trkpt lat="43.22313" lon="2.35959">
        <ele>110.3</ele>
        <time>2019-07-14T07:45:20.000Z</time>
      </trkpt>
      <trkpt lat="43.22313" lon="2.35959">
        <ele>110.3</ele>
        <time>2019-07-14T07:45:21.000Z</time>
      </trkpt>
      <trkpt lat="43.22313" lon="2.35959">
        <ele>110.3</ele>
        <time>2019-07-14T07:45:22.000Z</time>
      </trkpt>
      <trkpt lat="43.22312" lon="2.35959">
        <ele>110.3</ele>
        <time>2019-07-14T07:45:23.000Z</time>
      </trkpt>
      <trkpt lat="43.22312" lon="2.3596">
        <ele>110.3</ele>
        <time>2019-07-14T07:45:24.000Z</time>
      </trkpt>
      <trkpt lat="43.22312" lon="2.35961">
        <ele>110.1</ele>
        <time>2019-07-14T07:45:25.000Z</time>
      </trkpt>
      <trkpt lat="43.22311" lon="2.35962">
        <ele>110</ele>
        <time>2019-07-14T07:45:26.000Z</time>
      </trkpt>
      <trkpt lat="43.22311" lon="2.35964">
        <ele>109.8</ele>
        <time>2019-07-14T07:45:27.000Z</time>
      </trkpt>
      <trkpt lat="43.2231" lon="2.35965">
        <ele>109.6</ele>
        <time>2019-07-14T07:45:28.000Z</time>
      </trkpt>
      <trkpt lat="43.22309" lon="2.35966">
        <ele>109.5</ele>
        <time>2019-07-14T07:45:29.000Z</time>
      </trkpt>
      <trkpt lat="43.22309" lon="2.35967">
        <ele>109.3</ele>
        <time>2019-07-14T07:45:30.000Z</time>
      </trkpt>
      <trkpt lat="43.22308" lon="2.35969">
        <ele>109.2</ele>
        <time>2019-07-14T07:45:31.000Z</time>
      </trkpt>
      <trkpt lat="43.22307" lon="2.3597">
        <ele>109</ele>
        <time>2019-07-14T07:45:32.000Z</time>
      </trkpt>
      <trkpt lat="43.22307" lon="2.35972">
        <ele>108.8</ele>
        <time>2019-07-14T07:45:33.000Z</time>
      </trkpt>
      <trkpt lat="43.22306" lon="2.35974">
        <ele>108.6</ele>
        <time>2019-07-14T07:45:34.000Z</time>
      </trkpt>
      <trkpt lat="43.22306" lon="2.35976">
        <ele>108.4</ele>
        <time>2019-07-14T07:45:35.000Z</time>
      </trkpt>
      <trkpt lat="43.22305" lon="2.35978">
        <ele>108.2</ele>
        <time>2019-07-14T07:45:36.000Z</time>
      </trkpt>
      <trkpt lat="43.22304" lon="2.3598">
        <ele>108</ele>
        <time>2019-07-14T07:45:37.000Z</time>
      </trkpt>
      <trkpt lat="43.22304" lon="2.35982">
        <ele>107.9</ele>
        <time>2019-07-14T07:45:38.000Z</time>
      </trkpt>
      <trkpt lat="43.22303" lon="2.35984">
        <ele>107.7</ele>
        <time>2019-07-14T07:45:39.000Z</time>
      </trkpt>
      <trkpt lat="43.22303" lon="2.35986">
        <ele>107.5</ele>
        <time>2019-07-14T07:45:40.000Z</time>
      </trkpt>
      <trkpt lat="43.22303" lon="2.35988">
        <ele>107.4</ele>
        <time>2019-07-14T07:45:41.000Z</time>
      </trkpt>
      <trkpt lat="43.22302" lon="2.35989">
        <ele>107.3</ele>
        <time>2019-07-14T07:45:42.000Z</time>
      </trkpt>
      <trkpt lat="43.22302" lon="2.35991">
        <ele>107.1</ele>
        <time>2019-07-14T07:45:43.000Z</time>
      </trkpt>
      <trkpt lat="43.22302" lon="2.35993">
        <ele>107</ele>
        <time>2019-07-14T07:45:44.000Z</time>
      </trkpt>
      <trkpt lat="43.22302" lon="2.35994">
        <ele>106.9</ele>
        <time>2019-07-14T07:45:45.000Z</time>
      </trkpt>
      <trkpt lat="43.22301" lon="2.35996">
        <ele>106.8</ele>
        <time>2019-07-14T07:45:46.000Z</time>
      </trkpt>
      <trkpt lat="43.22301" lon="2.35997">
        <ele>106.7</ele>
        <time>2019-07-14T07:45:47.000Z</time>
      </trkpt>
      <trkpt lat="43.22301" lon="2.35998">
        <ele>106.6</ele>
        <time>2019-07-14T07:45:48.000Z</time>
      </trkpt>
      <trkpt lat="43.22301" lon="2.36">
        <ele>106.6</ele>
        <time>2019-07-14T07:45:49.000Z</time>
      </trkpt>
      <trkpt lat="43.22301" lon="2.36001">
        <ele>106.5</ele>
        <time>2019-07-14T07:45:50.000Z</time>
      </trkpt>
      <trkpt lat="43.22301" lon="2.36002">
        <ele>106.5</ele>
        <time>2019-07-14T07:45:51.000Z</time>
      </trkpt>
      <trkpt lat="43.22301" lon="2.36003">
        <ele>106.5</ele>
        <time>2019-07-14T07:45:52.000Z</time>
      </trkpt>
      <trkpt lat="43.22301" lon="2.36003">
        <ele>106.4</ele>
        <time>2019-07-14T07:45:53.000Z</time>
      </trkpt>
      <trkpt lat="43.22301" lon="2.36004">
        <ele>106.4</ele>
        <time>2019-07-14T07:45:54.000Z</time>
      </trkpt>
      <trkpt lat="43.22301" lon="2.36004">
        <ele>106.4</ele>
        <time>2019-07-14T07:45:55.000Z</time>
      </trkpt>
      <trkpt lat="43.22301" lon="2.36005">
        <ele>106.4</ele>
        <time>2019-07-14T07:45:56.000Z</time>
      </trkpt>
      <trkpt lat="43.22301" lon="2.36005">
        <ele>106.4</ele>
        <time>2019-07-14T07:45:57.000Z</time>
      </trkpt>
      <trkpt lat="43.22301" lon="2.36005">
        <ele>106.4</ele>
        <time>2019-07-14T07:45:58.000Z</time>
      </trkpt>
      <trkpt lat="43.22301" lon="2.36006">
        <ele>106.4</ele>
        <time>2019-07-14T07:45:59.000Z</time>
      </trkpt>
      <trkpt lat="43.22301" lon="2.36006">
        <ele>106.4</ele>
        <time>2019-07-14T07:46:00.000Z</time>
      </trkpt>
      <trkpt lat="43.22301" lon="2.36006">
        <ele>106.4</ele>
        <time>2019-07-14T07:46:01.000Z</time>
      </trkpt>
      <trkpt lat="43.22301" lon="2.36006">
        <ele>106.4</ele>
        <time>2019-07-14T07:46:02.000Z</time>
      </trkpt>
      <trkpt lat="43.22301" lon="2.36006">
        <ele>106.4</ele>
        <time>2019-07-14T07:46:03.000Z</time>
      </trkpt>
      <trkpt lat="43.22301" lon="2.36006">
        <ele>106.4</ele>
        <time>2019-07-14T07:46:04.000Z</time>
      </trkpt>
      <trkpt lat="43.22301" lon="2.36005">
        <ele>106.4</ele>
        <time>2019-07-14T07:46:05.000Z</time>
      </trkpt>
      <trkpt lat="43.22301" lon="2.36005">
        <ele>106.4</ele>
        <time>2019-07-14T07:46:06.000Z</time>
      </trkpt>
      <trkpt lat="43.22301" lon="2.36005">
        <ele>106.4</ele>
        <time>2019-07-14T07:46:07.000Z</time>
      </trkpt>
      <trkpt lat="43.22301" lon="2.36005">
        <ele>106.4</ele>
        <time>2019-07-14T07:46:08.000Z</time>
      </trkpt>
      <trkpt lat="43.22301" lon="2.36005">
        <ele>106.4</ele>
        <time>2019-07-14T07:46:09.000Z</time>
      </trkpt>
      <trkpt lat="43.22301" lon="2.36005">
        <ele>106.4</ele>
        <time>2019-07-14T07:46:10.000Z</time>
      </trkpt>
      <trkpt lat="43.22301" lon="2.36005">
        <ele>106.4</ele>
        <time>2019-07-14T07:46:11.000Z</time>
      </trkpt>
      <trkpt lat="43.22301" lon="2.36006">
        <ele>106.3</ele>
        <time>2019-07-14T07:46:12.000Z</time>
      </trkpt>
      <trkpt lat="43.22301" lon="2.36006">
        <ele>106.3</ele>
        <time>2019-07-14T07:46:13.000Z</time>
      </trkpt>
      <trkpt lat="43.22301" lon="2.36007">
        <ele>106.3</ele>
        <time>2019-07-14T07:46:14.000Z</time>
      </trkpt>
      <trkpt lat="43.223" lon="2.36007">
        <ele>106.2</ele>
        <time>2019-07-14T07:46:15.000Z</time>
      </trkpt>
      <trkpt lat="43.223" lon="2.36008">
        <ele>106.1</ele>
        <time>2019-07-14T07:46:16.000Z</time>
      </trkpt>
      <trkpt lat="43.22299" lon="2.36008">
        <ele>106.1</ele>
        <time>2019-07-14T07:46:17.000Z</time>
      </trkpt>
      <trkpt lat="43.22299" lon="2.36008">
        <ele>106</ele>
        <time>2019-07-14T07:46:18.000Z</time>
      </trkpt>
      <trkpt lat="43.22299" lon="2.36009">
        <ele>106</ele>
        <time>2019-07-14T07:46:19.000Z</time>
      </trkpt>
      <trkpt lat="43.22299" lon="2.36009">
        <ele>106</ele>
        <time>2019-07-14T07:46:20.000Z</time>
      </trkpt>
      <trkpt lat="43.22299" lon="2.36009">
        <ele>106</ele>
        <time>2019-07-14T07:46:21.000Z</time>
      </trkpt>
      <trkpt lat="43.22298" lon="2.36009">
        <ele>106</ele>
        <time>2019-07-14T07:46:22.000Z</time>
      </trkpt>
      <trkpt lat="43.22298" lon="2.36009">
        <ele>105.9</ele>
        <time>2019-07-14T07:46:23.000Z</time>
      </trkpt>
      <trkpt lat="43.22298" lon="2.3601">
        <ele>105.9</ele>
        <time>2019-07-14T07:46:24.000Z</time>
      </trkpt>
      <trkpt lat="43.22297" lon="2.3601">
        <ele>105.8</ele>
        <time>2019-07-14T07:46:25.000Z</time>
      </trkpt>
      <trkpt lat="43.22296" lon="2.36011">
        <ele>105.7</ele>
        <time>2019-07-14T07:46:26.000Z</time>
      </trkpt>
      <trkpt lat="43.22295" lon="2.36012">
        <ele>105.6</ele>
        <time>2019-07-14T07:46:27.000Z</time>
      </trkpt>
      <trkpt lat="43.22295" lon="2.36013">
        <ele>105.5</ele>
        <time>2019-07-14T07:46:28.000Z</time>
      </trkpt>
      <trkpt lat="43.22294" lon="2.36014">
        <ele>105.4</ele>
        <time>2019-07-14T07:46:29.000Z</time>
      </trkpt>
      <trkpt lat="43.22293" lon="2.36015">
        <ele>105.2</ele>
        <time>2019-07-14T07:46:30.000Z</time>
      </trkpt>
      <trkpt lat="43.22292" lon="2.36016">
        <ele>105.1</ele>
        <time>2019-07-14T07:46:31.000Z</time>
      </trkpt>
      <trkpt lat="43.22291" lon="2.36017">
        <ele>105</ele>
        <time>2019-07-14T07:46:32.000Z</time>
      </trkpt>
      <trkpt lat="43.2229" lon="2.36018">
        <ele>104.9</ele>
        <time>2019-07-14T07:46:33.000Z</time>
      </trkpt>
      <trkpt lat="43.2229" lon="2.36018">
        <ele>104.9</ele>
        <time>2019-07-14T07:46:34.000Z</time>
      </trkpt>
      <trkpt lat="43.22289" lon="2.36019">
        <ele>104.8</ele>
        <time>2019-07-14T07:46:35.000Z</time>
      </trkpt>
      <trkpt lat="43.22288" lon="2.3602">
        <ele>104.7</ele>
        <time>2019-07-14T07:46:36.000Z</time>
      </trkpt>
      <trkpt lat="43.22288" lon="2.36021">
        <ele>104.6</ele>
        <time>2019-07-14T07:46:37.000Z</time>
      </trkpt>
      <trkpt lat="43.22286" lon="2.36023">
        <ele>104.4</ele>
        <time>2019-07-14T07:46:38.000Z</time>
      </trkpt>
      <trkpt lat="43.22285" lon="2.36025">
        <ele>104.3</ele>
        <time>2019-07-14T07:46:39.000Z</time>
      </trkpt>
      <trkpt lat="43.22284" lon="2.36027">
        <ele>104.1</ele>
        <time>2019-07-14T07:46:40.000Z</time>
      </trkpt>
      <trkpt lat="43.22282" lon="2.36029">
        <ele>103.9</ele>
        <time>2019-07-14T07:46:41.000Z</time>
      </trkpt>
      <trkpt lat="43.2228" lon="2.36031">
        <ele>103.7</ele>
        <time>2019-07-14T07:46:42.000Z</time>
      </trkpt>
      <trkpt lat="43.22278" lon="2.36033">
        <ele>103.5</ele>
        <time>2019-07-14T07:46:43.000Z</time>
      </trkpt>
      <trkpt lat="43.22276" lon="2.36035">
        <ele>103.3</ele>
        <time>2019-07-14T07:46:44.000Z</time>
      </trkpt>
      <trkpt lat="43.22274" lon="2.36037">
        <ele>103.1</ele>
        <time>2019-07-14T07:46:45.000Z</time>
      </trkpt>
      <trkpt lat="43.22272" lon="2.36039">
        <ele>102.9</ele>
        <time>2019-07-14T07:46:46.000Z</time>
      </trkpt>
      <trkpt lat="43.22269" lon="2.36041">
        <ele>102.6</ele>
        <time>2019-07-14T07:46:47.000Z</time>
      </trkpt>
      <trkpt lat="43.22267" lon="2.36042">
        <ele>102.4</ele>
        <time>2019-07-14T07:46:48.000Z</time>
      </trkpt>
      <trkpt lat="43.22265" lon="2.36044">
        <ele>102.2</ele>
        <time>2019-07-14T07:46:49.000Z</time>
      </trkpt>
      <trkpt lat="43.22262" lon="2.36046">
        <ele>102</ele>
        <time>2019-07-14T07:46:50.000Z</time>
      </trkpt>
      <trkpt lat="43.2226" lon="2.36047">
        <ele>101.8</ele>
        <time>2019-07-14T07:46:51.000Z</time>
      </trkpt>
      <trkpt lat="43.22258" lon="2.36049">
        <ele>101.6</ele>
        <time>2019-07-14T07:46:52.000Z</time>
      </trkpt>
      <trkpt lat="43.22255" lon="2.3605">
        <ele>101.4</ele>
        <time>2019-07-14T07:46:53.000Z</time>
      </trkpt>
      <trkpt lat="43.22253" lon="2.36052">
        <ele>101.2</ele>
        <time>2019-07-14T07:46:54.000Z</time>
      </trkpt>
      <trkpt lat="43.22251" lon="2.36053">
        <ele>101</ele>
        <time>2019-07-14T07:46:55.000Z</time>
      </trkpt>
      <trkpt lat="43.22248" lon="2.36054">
        <ele>101</ele>
        <time>2019-07-14T07:46:56.000Z</time>
      </trkpt>
      <trkpt lat="43.22246" lon="2.36056">
        <ele>101</ele>
        <time>2019-07-14T07:46:57.000Z</time>
      </trkpt>
      <trkpt lat="43.22243" lon="2.36057">
        <ele>100.9</ele>
        <time>2019-07-14T07:46:58.000Z</time>
      </trkpt>
      <trkpt lat="43.22241" lon="2.36058">
        <ele>100.9</ele>
        <time>2019-07-14T07:46:59.000Z</time>
      </trkpt>
      <trkpt lat="43.22239" lon="2.36059">
        <ele>100.9</ele>
        <time>2019-07-14T07:47:00.000Z</time>
      </trkpt>
      <trkpt lat="43.22236" lon="2.36061">
        <ele>100.9</ele>
        <time>2019-07-14T07:47:01.000Z</time>
      </trkpt>
      <trkpt lat="43.22234" lon="2.36062">
        <ele>100.9</ele>
        <time>2019-07-14T07:47:02.000Z</time>
      </trkpt>
      <trkpt lat="43.22232" lon="2.36064">
        <ele>100.8</ele>
        <time>2019-07-14T07:47:03.000Z</time>
      </trkpt>
      <trkpt lat="43.22229" lon="2.36066">
        <ele>100.8</ele>
        <time>2019-07-14T07:47:04.000Z</time>
      </trkpt>
      <trkpt lat="43.22227" lon="2.36068">
        <ele>100.8</ele>
        <time>2019-07-14T07:47:05.000Z</time>
      </trkpt>
      <trkpt lat="43.22225" lon="2.3607">
        <ele>100.7</ele>
        <time>2019-07-14T07:47:06.000Z</time>
      </trkpt>
      <trkpt lat="43.22223" lon="2.36072">
        <ele>100.7</ele>
        <time>2019-07-14T07:47:07.000Z</time>
      </trkpt>
      <trkpt lat="43.22221" lon="2.36074">
        <ele>100.7</ele>
        <time>2019-07-14T07:47:08.000Z</time>
      </trkpt>
      <trkpt lat="43.22218" lon="2.36076">
        <ele>100.7</ele>
        <time>2019-07-14T07:47:09.000Z</time>
      </trkpt>
      <trkpt lat="43.22216" lon="2.36078">
        <ele>100.6</ele>
        <time>2019-07-14T07:47:10.000Z</time>
      </trkpt>
      <trkpt lat="43.22214" lon="2.36079">
        <ele>100.6</ele>
        <time>2019-07-14T07:47:11.000Z</time>
      </trkpt>
      <trkpt lat="43.22212" lon="2.36081">
        <ele>100.6</ele>
        <time>2019-07-14T07:47:12.000Z</time>
      </trkpt>
      <trkpt lat="43.22209" lon="2.36082">
        <ele>100.5</ele>
        <time>2019-07-14T07:47:13.000Z</time>
      </trkpt>
      <trkpt lat="43.22207" lon="2.36083">
        <ele>100.5</ele>
        <time>2019-07-14T07:47:14.000Z</time>
      </trkpt>
      <trkpt lat="43.22204" lon="2.36083">
        <ele>100.5</ele>
        <time>2019-07-14T07:47:15.000Z</time>
      </trkpt>
      <trkpt lat="43.22202" lon="2.36084">
        <ele>100.4</ele>
        <time>2019-07-14T07:47:16.000Z</time>
      </trkpt>
      <trkpt lat="43.22199" lon="2.36084">
        <ele>100.4</ele>
        <time>2019-07-14T07:47:17.000Z</time>
      </trkpt>
      <trkpt lat="43.22197" lon="2.36085">
        <ele>100.4</ele>
        <time>2019-07-14T07:47:18.000Z</time>
      </trkpt>
      <trkpt lat="43.22194" lon="2.36085">
        <ele>100.3</ele>
        <time>2019-07-14T07:47:19.000Z</time>
      </trkpt>
      <trkpt lat="43.22192" lon="2.36085">
        <ele>100.3</ele>
        <time>2019-07-14T07:47:20.000Z</time>
      </trkpt>
      <trkpt lat="43.2219" lon="2.36085">
        <ele>100.3</ele>
        <time>2019-07-14T07:47:21.000Z</time>
      </trkpt>
      <trkpt lat="43.22187" lon="2.36085">
        <ele>100.2</ele>
        <time>2019-07-14T07:47:22.000Z</time>
      </trkpt>
      <trkpt lat="43.22185" lon="2.36085">
        <ele>100.2</ele>
        <time>2019-07-14T07:47:23.000Z</time>
      </trkpt>
      <trkpt lat="43.22182" lon="2.36085">
        <ele>100.2</ele>
        <time>2019-07-14T07:47:24.000Z</time>
      </trkpt>
      <trkpt lat="43.2218" lon="2.36085">
        <ele>100.2</ele>
        <time>2019-07-14T07:47:25.000Z</time>
      </trkpt>
      <trkpt lat="43.22178" lon="2.36085">
        <ele>100.1</ele>
        <time>2019-07-14T07:47:26.000Z</time>
      </trkpt>
      <trkpt lat="43.22175" lon="2.36085">
        <ele>100.1</ele>
        <time>2019-07-14T07:47:27.000Z</time>
      </trkpt>
      <trkpt lat="43.22173" lon="2.36085">
        <ele>100.1</ele>
        <time>2019-07-14T07:47:28.000Z</time>
      </trkpt>
      <trkpt lat="43.22171" lon="2.36086">
        <ele>100</ele>
        <time>2019-07-14T07:47:29.000Z</time>
      </trkpt>
      <trkpt lat="43.22169" lon="2.36086">
        <ele>100</ele>
        <time>2019-07-14T07:47:30.000Z</time>
      </trkpt>
      <trkpt lat="43.22166" lon="2.36086">
        <ele>100</ele>
        <time>2019-07-14T07:47:31.000Z</time>
      </trkpt>
      <trkpt lat="43.22164" lon="2.36086">
        <ele>100</ele>
        <time>2019-07-14T07:47:32.000Z</time>
      </trkpt>
      <trkpt lat="43.22162" lon="2.36086">
        <ele>100.1</ele>
        <time>2019-07-14T07:47:33.000Z</time>
      </trkpt>
      <trkpt lat="43.22159" lon="2.36086">
        <ele>100.1</ele>
        <time>2019-07-14T07:47:34.000Z</time>
      </trkpt>
      <trkpt lat="43.22157" lon="2.36086">
        <ele>100.1</ele>
        <time>2019-07-14T07:47:35.000Z</time>
      </trkpt>
      <trkpt lat="43.22155" lon="2.36086">
        <ele>100.1</ele>
        <time>2019-07-14T07:47:36.000Z</time>
      </trkpt>
      <trkpt lat="43.22152" lon="2.36086">
        <ele>100.2</ele>
        <time>2019-07-14T07:47:37.000Z</time>
      </trkpt>
      <trkpt lat="43.2215" lon="2.36087">
        <ele>100.2</ele>
        <time>2019-07-14T07:47:38.000Z</time>
      </trkpt>
      <trkpt lat="43.22148" lon="2.36087">
        <ele>100.2</ele>
        <time>2019-07-14T07:47:39.000Z</time>
      </trkpt>
      <trkpt lat="43.22146" lon="2.36088">
        <ele>100.2</ele>
        <time>2019-07-14T07:47:40.000Z</time>
      </trkpt>
      <trkpt lat="43.22144" lon="2.36089">
        <ele>100.3</ele>
        <time>2019-07-14T07:47:41.000Z</time>
      </trkpt>
      <trkpt lat="43.22142" lon="2.3609">
        <ele>100.3</ele>
        <time>2019-07-14T07:47:42.000Z</time>
      </trkpt>
      <trkpt lat="43.22141" lon="2.36092">
        <ele>100.3</ele>
        <time>2019-07-14T07:47:43.000Z</time>
      </trkpt>
      <trkpt lat="43.22139" lon="2.36094">
        <ele>100.3</ele>
        <time>2019-07-14T07:47:44.000Z</time>
      </trkpt>
      <trkpt lat="43.22138" lon="2.36096">
        <ele>100.3</ele>
        <time>2019-07-14T07:47:45.000Z</time>
      </trkpt>
      <trkpt lat="43.22137" lon="2.36099">
        <ele>100.4</ele>
        <time>2019-07-14T07:47:46.000Z</time>
      </trkpt>
      <trkpt lat="43.22136" lon="2.36102">
        <ele>100.4</ele>
        <time>2019-07-14T07:47:47.000Z</time>
      </trkpt>
      <trkpt lat="43.22135" lon="2.36105">
        <ele>100.4</ele>
        <time>2019-07-14T07:47:48.000Z</time>
      </trkpt>
      <trkpt lat="43.22134" lon="2.36108">
        <ele>100.4</ele>
        <time>2019-07-14T07:47:49.000Z</time>
      </trkpt>
      <trkpt lat="43.22133" lon="2.36111">
        <ele>100.4</ele>
        <time>2019-07-14T07:47:50.000Z</time>
      </trkpt>
      <trkpt lat="43.22131" lon="2.36114">
        <ele>100.4</ele>
        <time>2019-07-14T07:47:51.000Z</time>
      </trkpt>
      <trkpt lat="43.2213" lon="2.36117">
        <ele>100.4</ele>
        <time>2019-07-14T07:47:52.000Z</time>
      </trkpt>
      <trkpt lat="43.22128" lon="2.36119">
        <ele>100.5</ele>
        <time>2019-07-14T07:47:53.000Z</time>
      </trkpt>
      <trkpt lat="43.22126" lon="2.36122">
        <ele>100.5</ele>
        <time>2019-07-14T07:47:54.000Z</time>
      </trkpt>
      <trkpt lat="43.22123" lon="2.36124">
        <ele>100.5</ele>
        <time>2019-07-14T07:47:55.000Z</time>
      </trkpt>
      <trkpt lat="43.22121" lon="2.36125">
        <ele>100.5</ele>
        <time>2019-07-14T07:47:56.000Z</time>
      </trkpt>
      <trkpt lat="43.22119" lon="2.36127">
        <ele>100.6</ele>
        <time>2019-07-14T07:47:57.000Z</time>
      </trkpt>
      <trkpt lat="43.22116" lon="2.36128">
        <ele>100.6</ele>
        <time>2019-07-14T07:47:58.000Z</time>
      </trkpt>
      <trkpt lat="43.22114" lon="2.36129">
        <ele>100.6</ele>
        <time>2019-07-14T07:47:59.000Z</time>
      </trkpt>
      <trkpt lat="43.22111" lon="2.36129">
        <ele>100.7</ele>
        <time>2019-07-14T07:48:00.000Z</time>
      </trkpt>
      <trkpt lat="43.22109" lon="2.36129">
        <ele>100.7</ele>
        <time>2019-07-14T07:48:01.000Z</time>
      </trkpt>
      <trkpt lat="43.22106" lon="2.3613">
        <ele>100.7</ele>
        <time>2019-07-14T07:48:02.000Z</time>
      </trkpt>
      <trkpt lat="43.22104" lon="2.36129">
        <ele>100.8</ele>
        <time>2019-07-14T07:48:03.000Z</time>
      </trkpt>
      <trkpt lat="43.22101" lon="2.36129">
        <ele>100.8</ele>
        <time>2019-07-14T07:48:04.000Z</time>
      </trkpt>
      <trkpt lat="43.22098" lon="2.36129">
        <ele>100.8</ele>
        <time>2019-07-14T07:48:05.000Z</time>
      </trkpt>
      <trkpt lat="43.22096" lon="2.36128">
        <ele>100.8</ele>
        <time>2019-07-14T07:48:06.000Z</time>
      </trkpt>
      <trkpt lat="43.22093" lon="2.36127">
        <ele>100.9</ele>
        <time>2019-07-14T07:48:07.000Z</time>
      </trkpt>
      <trkpt lat="43.22091" lon="2.36127">
        <ele>100.9</ele>
        <time>2019-07-14T07:48:08.000Z</time>
      </trkpt>
      <trkpt lat="43.22089" lon="2.36126">
        <ele>100.9</ele>
        <time>2019-07-14T07:48:09.000Z</time>
      </trkpt>
      <trkpt lat="43.22086" lon="2.36125">
        <ele>101</ele>
        <time>2019-07-14T07:48:10.000Z</time>
      </trkpt>
      <trkpt lat="43.22084" lon="2.36124">
        <ele>101</ele>
        <time>2019-07-14T07:48:11.000Z</time>
      </trkpt>
      <trkpt lat="43.22082" lon="2.36123">
        <ele>101</ele>
        <time>2019-07-14T07:48:12.000Z</time>
      </trkpt>
      <trkpt lat="43.2208" lon="2.36123">
        <ele>101.1</ele>
        <time>2019-07-14T07:48:13.000Z</time>
      </trkpt>
      <trkpt lat="43.22078" lon="2.36122">
        <ele>101.1</ele>
        <time>2019-07-14T07:48:14.000Z</time>
      </trkpt>
      <trkpt lat="43.22076" lon="2.36121">
        <ele>101.1</ele>
        <time>2019-07-14T07:48:15.000Z</time>
      </trkpt>
      <trkpt lat="43.22074" lon="2.36121">
        <ele>101.2</ele>
        <time>2019-07-14T07:48:16.000Z</time>
      </trkpt>
      <trkpt lat="43.22072" lon="2.36121">
        <ele>101.2</ele>
        <time>2019-07-14T07:48:17.000Z</time>
      </trkpt>
      <trkpt lat="43.2207" lon="2.36121">
        <ele>101.2</ele>
        <time>2019-07-14T07:48:18.000Z</time>
      </trkpt>
      <trkpt lat="43.22069" lon="2.36122">
        <ele>101.3</ele>
        <time>2019-07-14T07:48:19.000Z</time>
      </trkpt>
      <trkpt lat="43.22067" lon="2.36123">
        <ele>101.3</ele>
        <time>2019-07-14T07:48:20.000Z</time>
      </trkpt>
      <trkpt lat="43.22065" lon="2.36124">
        <ele>101.3</ele>
        <time>2019-07-14T07:48:21.000Z</time>
      </trkpt>
      <trkpt lat="43.22063" lon="2.36126">
        <ele>101.4</ele>
        <time>2019-07-14T07:48:22.000Z</time>
      </trkpt>
      <trkpt lat="43.22061" lon="2.36129">
        <ele>101.4</ele>
        <time>2019-07-14T07:48:23.000Z</time>
      </trkpt>
      <trkpt lat="43.22059" lon="2.36132">
        <ele>101.4</ele>
        <time>2019-07-14T07:48:24.000Z</time>
      </trkpt>
      <trkpt lat="43.22057" lon="2.36135">
        <ele>101.4</ele>
        <time>2019-07-14T07:48:25.000Z</time>
      </trkpt>
      <trkpt lat="43.22055" lon="2.36139">
        <ele>101.5</ele>
        <time>2019-07-14T07:48:26.000Z</time>
      </trkpt>
      <trkpt lat="43.22053" lon="2.36142">
        <ele>101.5</ele>
        <time>2019-07-14T07:48:27.000Z</time>
      </trkpt>
      <trkpt lat="43.22052" lon="2.36144">
        <ele>101.5</ele>
        <time>2019-07-14T07:48:28.000Z</time>
      </trkpt>
      <trkpt lat="43.2205" lon="2.36147">
        <ele>101.5</ele>
        <time>2019-07-14T07:48:29.000Z</time>
      </trkpt>
      <trkpt lat="43.22049" lon="2.3615">
        <ele>101.5</ele>
        <time>2019-07-14T07:48:30.000Z</time>
      </trkpt>
      <trkpt lat="43.22047" lon="2.36153">
        <ele>101.5</ele>
        <time>2019-07-14T07:48:31.000Z</time>
      </trkpt>
      <trkpt lat="43.22046" lon="2.36156">
        <ele>101.5</ele>
        <time>2019-07-14T07:48:32.000Z</time>
      </trkpt>
      <trkpt lat="43.22044" lon="2.36159">
        <ele>101.5</ele>
        <time>2019-07-14T07:48:33.000Z</time>
      </trkpt>
      <trkpt lat="43.22043" lon="2.36162">
        <ele>101.5</ele>
        <time>2019-07-14T07:48:34.000Z</time>
      </trkpt>
      <trkpt lat="43.22041" lon="2.36165">
        <ele>101.5</ele>
        <time>2019-07-14T07:48:35.000Z</time>
      </trkpt>
      <trkpt lat="43.2204" lon="2.36168">
        <ele>101.5</ele>
        <time>2019-07-14T07:48:36.000Z</time>
      </trkpt>
      <trkpt lat="43.22039" lon="2.36171">
        <ele>101.5</ele>
        <time>2019-07-14T07:48:37.000Z</time>
      </trkpt>
      <trkpt lat="43.22038" lon="2.36174">
        <ele>101.5</ele>
        <time>2019-07-14T07:48:38.000Z</time>
      </trkpt>
      <trkpt lat="43.22037" lon="2.36177">
        <ele>101.5</ele>
        <time>2019-07-14T07:48:39.000Z</time>
      </trkpt>
      <trkpt lat="43.22036" lon="2.36181">
        <ele>101.5</ele>
        <time>2019-07-14T07:48:40.000Z</time>
      </trkpt>
      <trkpt lat="43.22035" lon="2.36184">
        <ele>101.5</ele>
        <time>2019-07-14T07:48:41.000Z</time>
      </trkpt>
      <trkpt lat="43.22034" lon="2.36188">
        <ele>101.4</ele>
        <time>2019-07-14T07:48:42.000Z</time>
      </trkpt>
      <trkpt lat="43.22033" lon="2.36191">
        <ele>101.4</ele>
        <time>2019-07-14T07:48:43.000Z</time>
      </trkpt>
      <trkpt lat="43.22032" lon="2.36195">
        <ele>101.4</ele>
        <time>2019-07-14T07:48:44.000Z</time>
      </trkpt>
      <trkpt lat="43.22031" lon="2.36199">
        <ele>101.4</ele>
        <time>2019-07-14T07:48:45.000Z</time>
      </trkpt>
      <trkpt lat="43.22031" lon="2.36202">
        <ele>101.4</ele>
        <time>2019-07-14T07:48:46.000Z</time>
      </trkpt>
      <trkpt lat="43.2203" lon="2.36206">
        <ele>101.3</ele>
        <time>2019-07-14T07:48:47.000Z</time>
      </trkpt>
      <trkpt lat="43.22029" lon="2.3621">
        <ele>101.3</ele>
        <time>2019-07-14T07:48:48.000Z</time>
      </trkpt>
      <trkpt lat="43.22028" lon="2.36214">
        <ele>101.3</ele>
        <time>2019-07-14T07:48:49.000Z</time>
      </trkpt>
      <trkpt lat="43.22027" lon="2.36217">
        <ele>101.3</ele>
        <time>2019-07-14T07:48:50.000Z</time>
      </trkpt>
      <trkpt lat="43.22026" lon="2.3622">
        <ele>101.2</ele>
        <time>2019-07-14T07:48:51.000Z</time>
      </trkpt>
      <trkpt lat="43.22025" lon="2.36223">
        <ele>101.2</ele>
        <time>2019-07-14T07:48:52.000Z</time>
      </trkpt>
      <trkpt lat="43.22023" lon="2.36226">
        <ele>101.2</ele>
        <time>2019-07-14T07:48:53.000Z</time>
      </trkpt>
      <trkpt lat="43.22021" lon="2.36228">
        <ele>101.2</ele>
        <time>2019-07-14T07:48:54.000Z</time>
      </trkpt>
      <trkpt lat="43.22019" lon="2.3623">
        <ele>101.2</ele>
        <time>2019-07-14T07:48:55.000Z</time>
      </trkpt>
      <trkpt lat="43.22017" lon="2.36231">
        <ele>101.2</ele>
        <time>2019-07-14T07:48:56.000Z</time>
      </trkpt>
      <trkpt lat="43.22014" lon="2.36232">
        <ele>101.2</ele>
        <time>2019-07-14T07:48:57.000Z</time>
      </trkpt>
      <trkpt lat="43.22011" lon="2.36233">
        <ele>101.2</ele>
        <time>2019-07-14T07:48:58.000Z</time>
      </trkpt>
      <trkpt lat="43.22009" lon="2.36234">
        <ele>101.2</ele>
        <time>2019-07-14T07:48:59.000Z</time>
      </trkpt>
      <trkpt lat="43.22006" lon="2.36234">
        <ele>101.2</ele>
        <time>2019-07-14T07:49:00.000Z</time>
      </trkpt>
      <trkpt lat="43.22003" lon="2.36234">
        <ele>101.2</ele>
        <time>2019-07-14T07:49:01.000Z</time>
      </trkpt>
      <trkpt lat="43.22001" lon="2.36235">
        <ele>101.2</ele>
        <time>2019-07-14T07:49:02.000Z</time>
      </trkpt>
      <trkpt lat="43.21999" lon="2.36235">
        <ele>101.1</ele>
        <time>2019-07-14T07:49:03.000Z</time>
      </trkpt>
      <trkpt lat="43.21997" lon="2.36237">
        <ele>101.1</ele>
        <time>2019-07-14T07:49:04.000Z</time>
      </trkpt>
      <trkpt lat="43.21996" lon="2.36239">
        <ele>101</ele>
        <time>2019-07-14T07:49:05.000Z</time>
      </trkpt>
      <trkpt lat="43.21995" lon="2.36242">
        <ele>100.9</ele>
        <time>2019-07-14T07:49:06.000Z</time>
      </trkpt>
      <trkpt lat="43.21994" lon="2.36246">
        <ele>100.8</ele>
        <time>2019-07-14T07:49:07.000Z</time>
      </trkpt>
      <trkpt lat="43.21993" lon="2.36249">
        <ele>100.8</ele>
        <time>2019-07-14T07:49:08.000Z</time>
      </trkpt>
      <trkpt lat="43.21992" lon="2.36252">
        <ele>100.7</ele>
        <time>2019-07-14T07:49:09.000Z</time>
      </trkpt>
      <trkpt lat="43.21991" lon="2.36255">
        <ele>100.6</ele>
        <time>2019-07-14T07:49:10.000Z</time>
      </trkpt>
      <trkpt lat="43.2199" lon="2.36258">
        <ele>100.5</ele>
        <time>2019-07-14T07:49:11.000Z</time>
      </trkpt>
      <trkpt lat="43.21989" lon="2.36261">
        <ele>100.5</ele>
        <time>2019-07-14T07:49:12.000Z</time>
      </trkpt>
      <trkpt lat="43.21988" lon="2.36263">
        <ele>100.4</ele>
        <time>2019-07-14T07:49:13.000Z</time>
      </trkpt>
      <trkpt lat="43.21987" lon="2.36265">
        <ele>100.4</ele>
        <time>2019-07-14T07:49:14.000Z</time>
      </trkpt>
      <trkpt lat="43.21985" lon="2.36266">
        <ele>100.3</ele>
        <time>2019-07-14T07:49:15.000Z</time>
      </trkpt>
      <trkpt lat="43.21984" lon="2.36268">
        <ele>100.3</ele>
        <time>2019-07-14T07:49:16.000Z</time>
      </trkpt>
      <trkpt lat="43.21982" lon="2.36269">
        <ele>100.2</ele>
        <time>2019-07-14T07:49:17.000Z</time>
      </trkpt>
      <trkpt lat="43.2198" lon="2.36269">
        <ele>100.2</ele>
        <time>2019-07-14T07:49:18.000Z</time>
      </trkpt>
      <trkpt lat="43.21978" lon="2.3627">
        <ele>100.2</ele>
        <time>2019-07-14T07:49:19.000Z</time>
      </trkpt>
      <trkpt lat="43.21976" lon="2.3627">
        <ele>100.1</ele>
        <time>2019-07-14T07:49:20.000Z</time>
      </trkpt>
      <trkpt lat="43.21974" lon="2.36269">
        <ele>100.1</ele>
        <time>2019-07-14T07:49:21.000Z</time>
      </trkpt>
      <trkpt lat="43.21972" lon="2.36269">
        <ele>100.1</ele>
        <time>2019-07-14T07:49:22.000Z</time>
      </trkpt>
      <trkpt lat="43.21969" lon="2.36269">
        <ele>100</ele>
        <time>2019-07-14T07:49:23.000Z</time>
      </trkpt>
      <trkpt lat="43.21967" lon="2.36268">
        <ele>100</ele>
        <time>2019-07-14T07:49:24.000Z</time>
      </trkpt>
      <trkpt lat="43.21965" lon="2.36267">
        <ele>99.9</ele>
        <time>2019-07-14T07:49:25.000Z</time>
      </trkpt>
      <trkpt lat="43.21962" lon="2.36266">
        <ele>99.9</ele>
        <time>2019-07-14T07:49:26.000Z</time>
      </trkpt>
      <trkpt lat="43.2196" lon="2.36265">
        <ele>99.8</ele>
        <time>2019-07-14T07:49:27.000Z</time>
      </trkpt>
      <trkpt lat="43.21958" lon="2.36264">
        <ele>99.7</ele>
        <time>2019-07-14T07:49:28.000Z</time>
      </trkpt>
      <trkpt lat="43.21956" lon="2.36263">
        <ele>99.7</ele>
        <time>2019-07-14T07:49:29.000Z</time>
      </trkpt>
      <trkpt lat="43.21953" lon="2.36262">
        <ele>99.6</ele>
        <time>2019-07-14T07:49:30.000Z</time>
      </trkpt>
      <trkpt lat="43.21951" lon="2.3626">
        <ele>99.5</ele>
        <time>2019-07-14T07:49:31.000Z</time>
      </trkpt>
      <trkpt lat="43.21949" lon="2.36259">
        <ele>99.4</ele>
        <time>2019-07-14T07:49:32.000Z</time>
      </trkpt>
      <trkpt lat="43.21947" lon="2.36257">
        <ele>99.3</ele>
        <time>2019-07-14T07:49:33.000Z</time>
      </trkpt>
      <trkpt lat="43.21944" lon="2.36256">
        <ele>99.2</ele>
        <time>2019-07-14T07:49:34.000Z</time>
      </trkpt>
      <trkpt lat="43.21942" lon="2.36254">
        <ele>99.1</ele>
        <time>2019-07-14T07:49:35.000Z</time>
      </trkpt>
      <trkpt lat="43.2194" lon="2.36253">
        <ele>98.9</ele>
        <time>2019-07-14T07:49:36.000Z</time>
      </trkpt>
      <trkpt lat="43.21938" lon="2.36251">
        <ele>98.8</ele>
        <time>2019-07-14T07:49:37.000Z</time>
      </trkpt>
      <trkpt lat="43.21936" lon="2.3625">
        <ele>98.7</ele>
        <time>2019-07-14T07:49:38.000Z</time>
      </trkpt>
      <trkpt lat="43.21933" lon="2.36248">
        <ele>98.6</ele>
        <time>2019-07-14T07:49:39.000Z</time>
      </trkpt>
      <trkpt lat="43.21931" lon="2.36246">
        <ele>98.6</ele>
        <time>2019-07-14T07:49:40.000Z</time>
      </trkpt>
      <trkpt lat="43.21929" lon="2.36245">
        <ele>98.6</ele>
        <time>2019-07-14T07:49:41.000Z</time>
      </trkpt>
      <trkpt lat="43.21927" lon="2.36243">
        <ele>98.5</ele>
        <time>2019-07-14T07:49:42.000Z</time>
      </trkpt>
      <trkpt lat="43.21925" lon="2.36241">
        <ele>98.5</ele>
        <time>2019-07-14T07:49:43.000Z</time>
      </trkpt>
      <trkpt lat="43.21923" lon="2.3624">
        <ele>98.5</ele>
        <time>2019-07-14T07:49:44.000Z</time>
      </trkpt>
      <trkpt lat="43.21921" lon="2.36238">
        <ele>98.4</ele>
        <time>2019-07-14T07:49:45.000Z</time>
      </trkpt>
      <trkpt lat="43.21919" lon="2.36236">
        <ele>98.4</ele>
        <time>2019-07-14T07:49:46.000Z</time>
      </trkpt>
      <trkpt lat="43.21917" lon="2.36235">
        <ele>98.4</ele>
        <time>2019-07-14T07:49:47.000Z</time>
      </trkpt>
      <trkpt lat="43.21915" lon="2.36233">
        <ele>98.4</ele>
        <time>2019-07-14T07:49:48.000Z</time>
      </trkpt>
      <trkpt lat="43.21913" lon="2.36231">
        <ele>98.4</ele>
        <time>2019-07-14T07:49:49.000Z</time>
      </trkpt>
      <trkpt lat="43.21911" lon="2.3623">
        <ele>98.5</ele>
        <time>2019-07-14T07:49:50.000Z</time>
      </trkpt>
      <trkpt lat="43.21909" lon="2.36228">
        <ele>98.5</ele>
        <time>2019-07-14T07:49:51.000Z</time>
      </trkpt>
      <trkpt lat="43.21907" lon="2.36226">
        <ele>98.6</ele>
        <time>2019-07-14T07:49:52.000Z</time>
      </trkpt>
      <trkpt lat="43.21905" lon="2.36225">
        <ele>98.6</ele>
        <time>2019-07-14T07:49:53.000Z</time>
      </trkpt>
      <trkpt lat="43.21903" lon="2.36223">
        <ele>98.6</ele>
        <time>2019-07-14T07:49:54.000Z</time>
      </trkpt>
      <trkpt lat="43.21901" lon="2.36222">
        <ele>98.7</ele>
        <time>2019-07-14T07:49:55.000Z</time>
      </trkpt>
      <trkpt lat="43.21898" lon="2.36221">
        <ele>98.7</ele>
        <time>2019-07-14T07:49:56.000Z</time>
      </trkpt>
      <trkpt lat="43.21896" lon="2.36219">
        <ele>98.7</ele>
        <time>2019-07-14T07:49:57.000Z</time>
      </trkpt>
      <trkpt lat="43.21893" lon="2.36218">
        <ele>98.8</ele>
        <time>2019-07-14T07:49:58.000Z</time>
      </trkpt>
      <trkpt lat="43.2189" lon="2.36217">
        <ele>98.8</ele>
        <time>2019-07-14T07:49:59.000Z</time>
      </trkpt>
      <trkpt lat="43.21887" lon="2.36215">
        <ele>98.8</ele>
        <time>2019-07-14T07:50:00.000Z</time>
      </trkpt>
      <trkpt lat="43.21884" lon="2.36214">
        <ele>98.9</ele>
        <time>2019-07-14T07:50:01.000Z</time>
      </trkpt>
      <trkpt lat="43.21881" lon="2.36213">
        <ele>98.9</ele>
        <time>2019-07-14T07:50:02.000Z</time>
      </trkpt>
      <trkpt lat="43.21878" lon="2.36212">
        <ele>98.9</ele>
        <time>2019-07-14T07:50:03.000Z</time>
      </trkpt>
      <trkpt lat="43.21875" lon="2.36211">
        <ele>98.9</ele>
        <time>2019-07-14T07:50:04.000Z</time>
      </trkpt>
      <trkpt lat="43.21872" lon="2.36209">
        <ele>99</ele>
        <time>2019-07-14T07:50:05.000Z</time>
      </trkpt>
      <trkpt lat="43.21869" lon="2.36208">
        <ele>99</ele>
        <time>2019-07-14T07:50:06.000Z</time>
      </trkpt>
      <trkpt lat="43.21866" lon="2.36207">
        <ele>99</ele>
        <time>2019-07-14T07:50:07.000Z</time>
      </trkpt>
      <trkpt lat="43.21863" lon="2.36206">
        <ele>99.1</ele>
        <time>2019-07-14T07:50:08.000Z</time>
      </trkpt>
      <trkpt lat="43.21861" lon="2.36205">
        <ele>99.1</ele>
        <time>2019-07-14T07:50:09.000Z</time>
      </trkpt>
      <trkpt lat="43.21858" lon="2.36203">
        <ele>99.1</ele>
        <time>2019-07-14T07:50:10.000Z</time>
      </trkpt>
      <trkpt lat="43.21855" lon="2.36202">
        <ele>99.2</ele>
        <time>2019-07-14T07:50:11.000Z</time>
      </trkpt>
      <trkpt lat="43.21853" lon="2.362">
        <ele>99.2</ele>
        <time>2019-07-14T07:50:12.000Z</time>
      </trkpt>
      <trkpt lat="43.2185" lon="2.36199">
        <ele>99.2</ele>
        <time>2019-07-14T07:50:13.000Z</time>
      </trkpt>
      <trkpt lat="43.21848" lon="2.36197">
        <ele>99.3</ele>
        <time>2019-07-14T07:50:14.000Z</time>
      </trkpt>
      <trkpt lat="43.21846" lon="2.36196">
        <ele>99.3</ele>
        <time>2019-07-14T07:50:15.000Z</time>
      </trkpt>
      <trkpt lat="43.21843" lon="2.36194">
        <ele>99.3</ele>
        <time>2019-07-14T07:50:16.000Z</time>
      </trkpt>
      <trkpt lat="43.21841" lon="2.36193">
        <ele>99.4</ele>
        <time>2019-07-14T07:50:17.000Z</time>
      </trkpt>
      <trkpt lat="43.21839" lon="2.36191">
        <ele>99.4</ele>
        <time>2019-07-14T07:50:18.000Z</time>
      </trkpt>
      <trkpt lat="43.21836" lon="2.3619">
        <ele>99.4</ele>
        <time>2019-07-14T07:50:19.000Z</time>
      </trkpt>
      <trkpt lat="43.21834" lon="2.36189">
        <ele>99.5</ele>
        <time>2019-07-14T07:50:20.000Z</time>
      </trkpt>
      <trkpt lat="43.21831" lon="2.36188">
        <ele>99.5</ele>
        <time>2019-07-14T07:50:21.000Z</time>
      </trkpt>
      <trkpt lat="43.21829" lon="2.36186">
        <ele>99.5</ele>
        <time>2019-07-14T07:50:22.000Z</time>
      </trkpt>
      <trkpt lat="43.21826" lon="2.36185">
        <ele>99.6</ele>
        <time>2019-07-14T07:50:23.000Z</time>
      </trkpt>
      <trkpt lat="43.21824" lon="2.36184">
        <ele>99.6</ele>
        <time>2019-07-14T07:50:24.000Z</time>
      </trkpt>
      <trkpt lat="43.21821" lon="2.36183">
        <ele>99.6</ele>
        <time>2019-07-14T07:50:25.000Z</time>
      </trkpt>
      <trkpt lat="43.21818" lon="2.36181">
        <ele>99.7</ele>
        <time>2019-07-14T07:50:26.000Z</time>
      </trkpt>
      <trkpt lat="43.21816" lon="2.3618">
        <ele>99.7</ele>
        <time>2019-07-14T07:50:27.000Z</time>
      </trkpt>
      <trkpt lat="43.21814" lon="2.36178">
        <ele>99.8</ele>
        <time>2019-07-14T07:50:28.000Z</time>
      </trkpt>
      <trkpt lat="43.21811" lon="2.36176">
        <ele>99.8</ele>
        <time>2019-07-14T07:50:29.000Z</time>
      </trkpt>
      <trkpt lat="43.21809" lon="2.36174">
        <ele>99.8</ele>
        <time>2019-07-14T07:50:30.000Z</time>
      </trkpt>
      <trkpt lat="43.21807" lon="2.36172">
        <ele>99.9</ele>
        <time>2019-07-14T07:50:31.000Z</time>
      </trkpt>
      <trkpt lat="43.21805" lon="2.3617">
        <ele>99.9</ele>
        <time>2019-07-14T07:50:32.000Z</time>
      </trkpt>
      <trkpt lat="43.21803" lon="2.36168">
        <ele>100</ele>
        <time>2019-07-14T07:50:33.000Z</time>
      </trkpt>
      <trkpt lat="43.21801" lon="2.36167">
        <ele>100</ele>
        <time>2019-07-14T07:50:34.000Z</time>
      </trkpt>
      <trkpt lat="43.21799" lon="2.36165">
        <ele>100.1</ele>
        <time>2019-07-14T07:50:35.000Z</time>
      </trkpt>
      <trkpt lat="43.21797" lon="2.36163">
        <ele>100.1</ele>
        <time>2019-07-14T07:50:36.000Z</time>
      </trkpt>
      <trkpt lat="43.21794" lon="2.36162">
        <ele>100.2</ele>
        <time>2019-07-14T07:50:37.000Z</time>
      </trkpt>
      <trkpt lat="43.21792" lon="2.36161">
        <ele>100.2</ele>
        <time>2019-07-14T07:50:38.000Z</time>
      </trkpt>
      <trkpt lat="43.2179" lon="2.36159">
        <ele>100.3</ele>
        <time>2019-07-14T07:50:39.000Z</time>
      </trkpt>
      <trkpt lat="43.21787" lon="2.36158">
        <ele>100.3</ele>
        <time>2019-07-14T07:50:40.000Z</time>
      </trkpt>
      <trkpt lat="43.21785" lon="2.36157">
        <ele>100.3</ele>
        <time>2019-07-14T07:50:41.000Z</time>
      </trkpt>
      <trkpt lat="43.21782" lon="2.36156">
        <ele>100.4</ele>
        <time>2019-07-14T07:50:42.000Z</time>
      </trkpt>
      <trkpt lat="43.21779" lon="2.36155">
        <ele>100.4</ele>
        <time>2019-07-14T07:50:43.000Z</time>
      </trkpt>
      <trkpt lat="43.21777" lon="2.36154">
        <ele>100.4</ele>
        <time>2019-07-14T07:50:44.000Z</time>
      </trkpt>
      <trkpt lat="43.21774" lon="2.36154">
        <ele>100.5</ele>
        <time>2019-07-14T07:50:45.000Z</time>
      </trkpt>
      <trkpt lat="43.21771" lon="2.36153">
        <ele>100.5</ele>
        <time>2019-07-14T07:50:46.000Z</time>
      </trkpt>
      <trkpt lat="43.21768" lon="2.36152">
        <ele>100.5</ele>
        <time>2019-07-14T07:50:47.000Z</time>
      </trkpt>
      <trkpt lat="43.21765" lon="2.36151">
        <ele>100.6</ele>
        <time>2019-07-14T07:50:48.000Z</time>
      </trkpt>
      <trkpt lat="43.21762" lon="2.36151">
        <ele>100.6</ele>
        <time>2019-07-14T07:50:49.000Z</time>
      </trkpt>
      <trkpt lat="43.2176" lon="2.3615">
        <ele>100.6</ele>
        <time>2019-07-14T07:50:50.000Z</time>
      </trkpt>
      <trkpt lat="43.21757" lon="2.36149">
        <ele>100.6</ele>
        <time>2019-07-14T07:50:51.000Z</time>
      </trkpt>
      <trkpt lat="43.21754" lon="2.36148">
        <ele>100.7</ele>
        <time>2019-07-14T07:50:52.000Z</time>
      </trkpt>
      <trkpt lat="43.21752" lon="2.36147">
        <ele>100.7</ele>
        <time>2019-07-14T07:50:53.000Z</time>
      </trkpt>
      <trkpt lat="43.21749" lon="2.36146">
        <ele>100.8</ele>
        <time>2019-07-14T07:50:54.000Z</time>
      </trkpt>
      <trkpt lat="43.21747" lon="2.36145">
        <ele>100.8</ele>
        <time>2019-07-14T07:50:55.000Z</time>
      </trkpt>
      <trkpt lat="43.21744" lon="2.36143">
        <ele>100.9</ele>
        <time>2019-07-14T07:50:56.000Z</time>
      </trkpt>
      <trkpt lat="43.21742" lon="2.36142">
        <ele>100.9</ele>
        <time>2019-07-14T07:50:57.000Z</time>
      </trkpt>
      <trkpt lat="43.2174" lon="2.36141">
        <ele>101</ele>
        <time>2019-07-14T07:50:58.000Z</time>
      </trkpt>
      <trkpt lat="43.21738" lon="2.36139">
        <ele>101</ele>
        <time>2019-07-14T07:50:59.000Z</time>
      </trkpt>
      <trkpt lat="43.21736" lon="2.36137">
        <ele>101.1</ele>
        <time>2019-07-14T07:51:00.000Z</time>
      </trkpt>
      <trkpt lat="43.21733" lon="2.36136">
        <ele>101.2</ele>
        <time>2019-07-14T07:51:01.000Z</time>
      </trkpt>
      <trkpt lat="43.21731" lon="2.36134">
        <ele>101.2</ele>
        <time>2019-07-14T07:51:02.000Z</time>
      </trkpt>
      <trkpt lat="43.21729" lon="2.36133">
        <ele>101.3</ele>
        <time>2019-07-14T07:51:03.000Z</time>
      </trkpt>
      <trkpt lat="43.21727" lon="2.36131">
        <ele>101.3</ele>
        <time>2019-07-14T07:51:04.000Z</time>
      </trkpt>
      <trkpt lat="43.21724" lon="2.3613">
        <ele>101.4</ele>
        <time>2019-07-14T07:51:05.000Z</time>
      </trkpt>
      <trkpt lat="43.21722" lon="2.36129">
        <ele>101.4</ele>
        <time>2019-07-14T07:51:06.000Z</time>
      </trkpt>
      <trkpt lat="43.21719" lon="2.36129">
        <ele>101.4</ele>
        <time>2019-07-14T07:51:07.000Z</time>
      </trkpt>
      <trkpt lat="43.21716" lon="2.36128">
        <ele>101.4</ele>
        <time>2019-07-14T07:51:08.000Z</time>
      </trkpt>
      <trkpt lat="43.21713" lon="2.36127">
        <ele>101.4</ele>
        <time>2019-07-14T07:51:09.000Z</time>
      </trkpt>
      <trkpt lat="43.21711" lon="2.36127">
        <ele>101.5</ele>
        <time>2019-07-14T07:51:10.000Z</time>
      </trkpt>
      <trkpt lat="43.21708" lon="2.36126">
        <ele>101.5</ele>
        <time>2019-07-14T07:51:11.000Z</time>
      </trkpt>
      <trkpt lat="43.21705" lon="2.36126">
        <ele>101.5</ele>
        <time>2019-07-14T07:51:12.000Z</time>
      </trkpt>
      <trkpt lat="43.21703" lon="2.36125">
        <ele>101.5</ele>
        <time>2019-07-14T07:51:13.000Z</time>
      </trkpt>
      <trkpt lat="43.217" lon="2.36125">
        <ele>101.5</ele>
        <time>2019-07-14T07:51:14.000Z</time>
      </trkpt>
      <trkpt lat="43.21698" lon="2.36124">
        <ele>101.5</ele>
        <time>2019-07-14T07:51:15.000Z</time>
      </trkpt>
      <trkpt lat="43.21696" lon="2.36123">
        <ele>101.5</ele>
        <time>2019-07-14T07:51:16.000Z</time>
      </trkpt>
      <trkpt lat="43.21693" lon="2.36122">
        <ele>101.6</ele>
        <time>2019-07-14T07:51:17.000Z</time>
      </trkpt>
      <trkpt lat="43.2169" lon="2.36122">
        <ele>101.6</ele>
        <time>2019-07-14T07:51:18.000Z</time>
      </trkpt>
      <trkpt lat="43.21686" lon="2.36121">
        <ele>101.6</ele>
        <time>2019-07-14T07:51:19.000Z</time>
      </trkpt>
      <trkpt lat="43.21682" lon="2.36121">
        <ele>101.6</ele>
        <time>2019-07-14T07:51:20.000Z</time>
      </trkpt>
      <trkpt lat="43.21678" lon="2.3612">
        <ele>101.6</ele>
        <time>2019-07-14T07:51:21.000Z</time>
      </trkpt>
      <trkpt lat="43.21675" lon="2.36119">
        <ele>101.6</ele>
        <time>2019-07-14T07:51:22.000Z</time>
      </trkpt>
      <trkpt lat="43.21672" lon="2.36119">
        <ele>101.6</ele>
        <time>2019-07-14T07:51:23.000Z</time>
      </trkpt>
      <trkpt lat="43.21668" lon="2.36118">
        <ele>101.6</ele>
        <time>2019-07-14T07:51:24.000Z</time>
      </trkpt>
      <trkpt lat="43.21665" lon="2.36117">
        <ele>101.6</ele>
        <time>2019-07-14T07:51:25.000Z</time>
      </trkpt>
      <trkpt lat="43.21662" lon="2.36116">
        <ele>101.6</ele>
        <time>2019-07-14T07:51:26.000Z</time>
      </trkpt>
      <trkpt lat="43.2166" lon="2.36115">
        <ele>101.5</ele>
        <time>2019-07-14T07:51:27.000Z</time>
      </trkpt>
      <trkpt lat="43.21657" lon="2.36115">
        <ele>101.5</ele>
        <time>2019-07-14T07:51:28.000Z</time>
      </trkpt>
      <trkpt lat="43.21654" lon="2.36114">
        <ele>101.5</ele>
        <time>2019-07-14T07:51:29.000Z</time>
      </trkpt>
      <trkpt lat="43.21652" lon="2.36113">
        <ele>101.5</ele>
        <time>2019-07-14T07:51:30.000Z</time>
      </trkpt>
      <trkpt lat="43.21649" lon="2.36112">
        <ele>101.5</ele>
        <time>2019-07-14T07:51:31.000Z</time>
      </trkpt>
      <trkpt lat="43.21646" lon="2.36111">
        <ele>101.4</ele>
        <time>2019-07-14T07:51:32.000Z</time>
      </trkpt>
      <trkpt lat="43.21644" lon="2.3611">
        <ele>101.4</ele>
        <time>2019-07-14T07:51:33.000Z</time>
      </trkpt>
      <trkpt lat="43.21641" lon="2.36109">
        <ele>101.4</ele>
        <time>2019-07-14T07:51:34.000Z</time>
      </trkpt>
      <trkpt lat="43.21638" lon="2.36109">
        <ele>101.3</ele>
        <time>2019-07-14T07:51:35.000Z</time>
      </trkpt>
      <trkpt lat="43.21635" lon="2.36108">
        <ele>101.3</ele>
        <time>2019-07-14T07:51:36.000Z</time>
      </trkpt>
      <trkpt lat="43.21632" lon="2.36107">
        <ele>101.2</ele>
        <time>2019-07-14T07:51:37.000Z</time>
      </trkpt>
      <trkpt lat="43.21629" lon="2.36107">
        <ele>101.2</ele>
        <time>2019-07-14T07:51:38.000Z</time>
      </trkpt>
      <trkpt lat="43.21626" lon="2.36106">
        <ele>101.2</ele>
        <time>2019-07-14T07:51:39.000Z</time>
      </trkpt>
      <trkpt lat="43.21623" lon="2.36105">
        <ele>101.1</ele>
        <time>2019-07-14T07:51:40.000Z</time>
      </trkpt>
      <trkpt lat="43.2162" lon="2.36105">
        <ele>101.1</ele>
        <time>2019-07-14T07:51:41.000Z</time>
      </trkpt>
      <trkpt lat="43.21616" lon="2.36104">
        <ele>101</ele>
        <time>2019-07-14T07:51:42.000Z</time>
      </trkpt>
      <trkpt lat="43.21613" lon="2.36104">
        <ele>100.9</ele>
        <time>2019-07-14T07:51:43.000Z</time>
      </trkpt>
      <trkpt lat="43.2161" lon="2.36103">
        <ele>100.9</ele>
        <time>2019-07-14T07:51:44.000Z</time>
      </trkpt>
      <trkpt lat="43.21607" lon="2.36102">
        <ele>100.8</ele>
        <time>2019-07-14T07:51:45.000Z</time>
      </trkpt>
      <trkpt lat="43.21605" lon="2.36102">
        <ele>100.8</ele>
        <time>2019-07-14T07:51:46.000Z</time>
      </trkpt>
      <trkpt lat="43.21602" lon="2.36101">
        <ele>100.7</ele>
        <time>2019-07-14T07:51:47.000Z</time>
      </trkpt>
      <trkpt lat="43.216" lon="2.361">
        <ele>100.7</ele>
        <time>2019-07-14T07:51:48.000Z</time>
      </trkpt>
      <trkpt lat="43.21597" lon="2.36099">
        <ele>100.6</ele>
        <time>2019-07-14T07:51:49.000Z</time>
      </trkpt>
      <trkpt lat="43.21595" lon="2.36098">
        <ele>100.6</ele>
        <time>2019-07-14T07:51:50.000Z</time>
      </trkpt>
      <trkpt lat="43.21593" lon="2.36097">
        <ele>100.5</ele>
        <time>2019-07-14T07:51:51.000Z</time>
      </trkpt>
      <trkpt lat="43.2159" lon="2.36096">
        <ele>100.4</ele>
        <time>2019-07-14T07:51:52.000Z</time>
      </trkpt>
      <trkpt lat="43.21588" lon="2.36095">
        <ele>100.4</ele>
        <time>2019-07-14T07:51:53.000Z</time>
      </trkpt>
      <trkpt lat="43.21585" lon="2.36094">
        <ele>100.3</ele>
        <time>2019-07-14T07:51:54.000Z</time>
      </trkpt>
      <trkpt lat="43.21583" lon="2.36093">
        <ele>100.2</ele>
        <time>2019-07-14T07:51:55.000Z</time>
      </trkpt>
      <trkpt lat="43.2158" lon="2.36092">
        <ele>100.2</ele>
        <time>2019-07-14T07:51:56.000Z</time>
      </trkpt>
      <trkpt lat="43.21577" lon="2.36091">
        <ele>100.3</ele>
        <time>2019-07-14T07:51:57.000Z</time>
      </trkpt>
      <trkpt lat="43.21574" lon="2.3609">
        <ele>100.3</ele>
        <time>2019-07-14T07:51:58.000Z</time>
      </trkpt>
      <trkpt lat="43.21571" lon="2.36089">
        <ele>100.3</ele>
        <time>2019-07-14T07:51:59.000Z</time>
      </trkpt>
      <trkpt lat="43.21567" lon="2.36089">
        <ele>100.3</ele>
        <time>2019-07-14T07:52:00.000Z</time>
      </trkpt>
      <trkpt lat="43.21564" lon="2.36088">
        <ele>100.3</ele>
        <time>2019-07-14T07:52:01.000Z</time>
      </trkpt>
      <trkpt lat="43.21561" lon="2.36087">
        <ele>100.3</ele>
        <time>2019-07-14T07:52:02.000Z</time>
      </trkpt>
      <trkpt lat="43.21558" lon="2.36086">
        <ele>100.4</ele>
        <time>2019-07-14T07:52:03.000Z</time>
      </trkpt>
      <trkpt lat="43.21554" lon="2.36085">
        <ele>100.4</ele>
        <time>2019-07-14T07:52:04.000Z</time>
      </trkpt>
      <trkpt lat="43.21551" lon="2.36085">
        <ele>100.4</ele>
        <time>2019-07-14T07:52:05.000Z</time>
      </trkpt>
      <trkpt lat="43.21548" lon="2.36084">
        <ele>100.4</ele>
        <time>2019-07-14T07:52:06.000Z</time>
      </trkpt>
      <trkpt lat="43.21545" lon="2.36083">
        <ele>100.5</ele>
        <time>2019-07-14T07:52:07.000Z</time>
      </trkpt>
      <trkpt lat="43.21542" lon="2.36082">
        <ele>100.5</ele>
        <time>2019-07-14T07:52:08.000Z</time>
      </trkpt>
      <trkpt lat="43.21539" lon="2.36081">
        <ele>100.6</ele>
        <time>2019-07-14T07:52:09.000Z</time>
      </trkpt>
      <trkpt lat="43.21536" lon="2.36081">
        <ele>100.7</ele>
        <time>2019-07-14T07:52:10.000Z</time>
      </trkpt>
      <trkpt lat="43.21533" lon="2.3608">
        <ele>100.8</ele>
        <time>2019-07-14T07:52:11.000Z</time>
      </trkpt>
      <trkpt lat="43.2153" lon="2.36079">
        <ele>100.8</ele>
        <time>2019-07-14T07:52:12.000Z</time>
      </trkpt>
      <trkpt lat="43.21527" lon="2.36078">
        <ele>100.9</ele>
        <time>2019-07-14T07:52:13.000Z</time>
      </trkpt>
      <trkpt lat="43.21524" lon="2.36077">
        <ele>101</ele>
        <time>2019-07-14T07:52:14.000Z</time>
      </trkpt>
      <trkpt lat="43.21522" lon="2.36077">
        <ele>101</ele>
        <time>2019-07-14T07:52:15.000Z</time>
      </trkpt>
      <trkpt lat="43.21519" lon="2.36076">
        <ele>101.1</ele>
        <time>2019-07-14T07:52:16.000Z</time>
      </trkpt>
      <trkpt lat="43.21516" lon="2.36075">
        <ele>101.2</ele>
        <time>2019-07-14T07:52:17.000Z</time>
      </trkpt>
      <trkpt lat="43.21513" lon="2.36074">
        <ele>101.3</ele>
        <time>2019-07-14T07:52:18.000Z</time>
      </trkpt>
      <trkpt lat="43.21511" lon="2.36073">
        <ele>101.4</ele>
        <time>2019-07-14T07:52:19.000Z</time>
      </trkpt>
      <trkpt lat="43.21508" lon="2.36072">
        <ele>101.4</ele>
        <time>2019-07-14T07:52:20.000Z</time>
      </trkpt>
      <trkpt lat="43.21505" lon="2.36071">
        <ele>101.5</ele>
        <time>2019-07-14T07:52:21.000Z</time>
      </trkpt>
      <trkpt lat="43.21502" lon="2.3607">
        <ele>101.6</ele>
        <time>2019-07-14T07:52:22.000Z</time>
      </trkpt>
      <trkpt lat="43.21499" lon="2.36069">
        <ele>101.7</ele>
        <time>2019-07-14T07:52:23.000Z</time>
      </trkpt>
      <trkpt lat="43.21496" lon="2.36068">
        <ele>101.7</ele>
        <time>2019-07-14T07:52:24.000Z</time>
      </trkpt>
      <trkpt lat="43.21493" lon="2.36067">
        <ele>101.7</ele>
        <time>2019-07-14T07:52:25.000Z</time>
      </trkpt>
      <trkpt lat="43.2149" lon="2.36066">
        <ele>101.7</ele>
        <time>2019-07-14T07:52:26.000Z</time>
      </trkpt>
      <trkpt lat="43.21487" lon="2.36065">
        <ele>101.7</ele>
        <time>2019-07-14T07:52:27.000Z</time>
      </trkpt>
      <trkpt lat="43.21484" lon="2.36064">
        <ele>101.7</ele>
        <time>2019-07-14T07:52:28.000Z</time>
      </trkpt>
      <trkpt lat="43.21481" lon="2.36063">
        <ele>101.8</ele>
        <time>2019-07-14T07:52:29.000Z</time>
      </trkpt>
      <trkpt lat="43.21478" lon="2.36062">
        <ele>101.8</ele>
        <time>2019-07-14T07:52:30.000Z</time>
      </trkpt>
      <trkpt lat="43.21475" lon="2.36061">
        <ele>101.8</ele>
        <time>2019-07-14T07:52:31.000Z</time>
      </trkpt>
      <trkpt lat="43.21472" lon="2.3606">
        <ele>101.8</ele>
        <time>2019-07-14T07:52:32.000Z</time>
      </trkpt>
      <trkpt lat="43.21469" lon="2.36059">
        <ele>101.8</ele>
        <time>2019-07-14T07:52:33.000Z</time>
      </trkpt>
      <trkpt lat="43.21466" lon="2.36057">
        <ele>101.8</ele>
        <time>2019-07-14T07:52:34.000Z</time>
      </trkpt>
      <trkpt lat="43.21464" lon="2.36056">
        <ele>101.9</ele>
        <time>2019-07-14T07:52:35.000Z</time>
      </trkpt>
      <trkpt lat="43.21461" lon="2.36055">
        <ele>101.9</ele>
        <time>2019-07-14T07:52:36.000Z</time>
      </trkpt>
      <trkpt lat="43.21459" lon="2.36054">
        <ele>101.9</ele>
        <time>2019-07-14T07:52:37.000Z</time>
      </trkpt>
      <trkpt lat="43.21456" lon="2.36053">
        <ele>102</ele>
        <time>2019-07-14T07:52:38.000Z</time>
      </trkpt>
      <trkpt lat="43.21454" lon="2.36051">
        <ele>102</ele>
        <time>2019-07-14T07:52:39.000Z</time>
      </trkpt>
      <trkpt lat="43.21452" lon="2.3605">
        <ele>102</ele>
        <time>2019-07-14T07:52:40.000Z</time>
      </trkpt>
      <trkpt lat="43.2145" lon="2.36049">
        <ele>102.1</ele>
        <time>2019-07-14T07:52:41.000Z</time>
      </trkpt>
      <trkpt lat="43.21448" lon="2.36048">
        <ele>102.1</ele>
        <time>2019-07-14T07:52:42.000Z</time>
      </trkpt>
      <trkpt lat="43.21447" lon="2.36046">
        <ele>102.1</ele>
        <time>2019-07-14T07:52:43.000Z</time>
      </trkpt>
      <trkpt lat="43.21445" lon="2.36045">
        <ele>102.2</ele>
        <time>2019-07-14T07:52:44.000Z</time>
      </trkpt>
      <trkpt lat="43.21444" lon="2.36044">
        <ele>102.2</ele>
        <time>2019-07-14T07:52:45.000Z</time>
      </trkpt>
      <trkpt lat="43.21442" lon="2.36043">
        <ele>102.2</ele>
        <time>2019-07-14T07:52:46.000Z</time>
      </trkpt>
      <trkpt lat="43.21441" lon="2.36043">
        <ele>102.2</ele>
        <time>2019-07-14T07:52:47.000Z</time>
      </trkpt>
      <trkpt lat="43.21439" lon="2.36042">
        <ele>102.3</ele>
        <time>2019-07-14T07:52:48.000Z</time>
      </trkpt>
      <trkpt lat="43.21438" lon="2.36041">
        <ele>102.3</ele>
        <time>2019-07-14T07:52:49.000Z</time>
      </trkpt>
      <trkpt lat="43.21436" lon="2.36041">
        <ele>102.3</ele>
        <time>2019-07-14T07:52:50.000Z</time>
      </trkpt>
      <trkpt lat="43.21435" lon="2.3604">
        <ele>102.3</ele>
        <time>2019-07-14T07:52:51.000Z</time>
      </trkpt>
      <trkpt lat="43.21434" lon="2.3604">
        <ele>102.3</ele>
        <time>2019-07-14T07:52:52.000Z</time>
      </trkpt>
      <trkpt lat="43.21432" lon="2.36039">
        <ele>102.3</ele>
        <time>2019-07-14T07:52:53.000Z</time>
      </trkpt>
      <trkpt lat="43.21431" lon="2.36039">
        <ele>102.3</ele>
        <time>2019-07-14T07:52:54.000Z</time>
      </trkpt>
      <trkpt lat="43.2143" lon="2.36039">
        <ele>102.3</ele>
        <time>2019-07-14T07:52:55.000Z</time>
      </trkpt>
      <trkpt lat="43.21428" lon="2.36038">
        <ele>102.3</ele>
        <time>2019-07-14T07:52:56.000Z</time>
      </trkpt>
      <trkpt lat="43.21427" lon="2.36037">
        <ele>102.3</ele>
        <time>2019-07-14T07:52:57.000Z</time>
      </trkpt>
      <trkpt lat="43.21426" lon="2.36037">
        <ele>102.3</ele>
        <time>2019-07-14T07:52:58.000Z</time>
      </trkpt>
      <trkpt lat="43.21425" lon="2.36036">
        <ele>102.4</ele>
        <time>2019-07-14T07:52:59.000Z</time>
      </trkpt>
      <trkpt lat="43.21424" lon="2.36036">
        <ele>102.4</ele>
        <time>2019-07-14T07:53:00.000Z</time>
      </trkpt>
      <trkpt lat="43.21422" lon="2.36035">
        <ele>102.4</ele>
        <time>2019-07-14T07:53:01.000Z</time>
      </trkpt>
      <trkpt lat="43.21421" lon="2.36034">
        <ele>102.4</ele>
        <time>2019-07-14T07:53:02.000Z</time>
      </trkpt>
      <trkpt lat="43.2142" lon="2.36034">
        <ele>102.4</ele>
        <time>2019-07-14T07:53:03.000Z</time>
      </trkpt>
      <trkpt lat="43.21419" lon="2.36033">
        <ele>102.4</ele>
        <time>2019-07-14T07:53:04.000Z</time>
      </trkpt>
      <trkpt lat="43.21418" lon="2.36033">
        <ele>102.5</ele>
        <time>2019-07-14T07:53:05.000Z</time>
      </trkpt>
      <trkpt lat="43.21417" lon="2.36032">
        <ele>102.5</ele>
        <time>2019-07-14T07:53:06.000Z</time>
      </trkpt>
      <trkpt lat="43.21415" lon="2.36031">
        <ele>102.5</ele>
        <time>2019-07-14T07:53:07.000Z</time>
      </trkpt>
      <trkpt lat="43.21414" lon="2.36031">
        <ele>102.6</ele>
        <time>2019-07-14T07:53:08.000Z</time>
      </trkpt>
      <trkpt lat="43.21413" lon="2.3603">
        <ele>102.6</ele>
        <time>2019-07-14T07:53:09.000Z</time>
      </trkpt>
      <trkpt lat="43.21412" lon="2.3603">
        <ele>102.6</ele>
        <time>2019-07-14T07:53:10.000Z</time>
      </trkpt>
      <trkpt lat="43.21411" lon="2.3603">
        <ele>102.7</ele>
        <time>2019-07-14T07:53:11.000Z</time>
      </trkpt>
      <trkpt lat="43.2141" lon="2.36029">
        <ele>102.7</ele>
        <time>2019-07-14T07:53:12.000Z</time>
      </trkpt>
      <trkpt lat="43.21409" lon="2.36029">
        <ele>102.7</ele>
        <time>2019-07-14T07:53:13.000Z</time>
      </trkpt>
      <trkpt lat="43.21408" lon="2.36029">
        <ele>102.8</ele>
        <time>2019-07-14T07:53:14.000Z</time>
      </trkpt>
      <trkpt lat="43.21407" lon="2.36029">
        <ele>102.8</ele>
        <time>2019-07-14T07:53:15.000Z</time>
      </trkpt>
      <trkpt lat="43.21407" lon="2.36029">
        <ele>102.8</ele>
        <time>2019-07-14T07:53:16.000Z</time>
      </trkpt>
      <trkpt lat="43.21407" lon="2.36029">
        <ele>102.8</ele>
        <time>2019-07-14T07:53:17.000Z</time>
      </trkpt>
      <trkpt lat="43.21407" lon="2.36029">
        <ele>102.8</ele>
        <time>2019-07-14T07:53:18.000Z</time>
      </trkpt>
      <trkpt lat="43.21407" lon="2.36028">
        <ele>102.8</ele>
        <time>2019-07-14T07:53:19.000Z</time>
      </trkpt>
      <trkpt lat="43.21408" lon="2.36028">
        <ele>102.8</ele>
        <time>2019-07-14T07:53:20.000Z</time>
      </trkpt>
      <trkpt lat="43.21408" lon="2.36028">
        <ele>102.8</ele>
        <time>2019-07-14T07:53:21.000Z</time>
      </trkpt>
      <trkpt lat="43.21409" lon="2.36028">
        <ele>102.8</ele>
        <time>2019-07-14T07:53:22.000Z</time>
      </trkpt>
      <trkpt lat="43.21409" lon="2.36028">
        <ele>102.8</ele>
        <time>2019-07-14T07:53:23.000Z</time>
      </trkpt>
      <trkpt lat="43.21409" lon="2.36028">
        <ele>102.8</ele>
        <time>2019-07-14T07:53:24.000Z</time>
      </trkpt>
      <trkpt lat="43.21409" lon="2.36028">
        <ele>102.8</ele>
        <time>2019-07-14T07:53:25.000Z</time>
      </trkpt>
      <trkpt lat="43.21409" lon="2.36027">
        <ele>102.8</ele>
        <time>2019-07-14T07:53:26.000Z</time>
      </trkpt>
      <trkpt lat="43.21409" lon="2.36027">
        <ele>102.8</ele>
        <time>2019-07-14T07:53:27.000Z</time>
      </trkpt>
      <trkpt lat="43.21408" lon="2.36027">
        <ele>102.8</ele>
        <time>2019-07-14T07:53:28.000Z</time>
      </trkpt>
      <trkpt lat="43.21407" lon="2.36027">
        <ele>102.9</ele>
        <time>2019-07-14T07:53:29.000Z</time>
      </trkpt>
      <trkpt lat="43.21407" lon="2.36026">
        <ele>102.9</ele>
        <time>2019-07-14T07:53:30.000Z</time>
      </trkpt>
      <trkpt lat="43.21406" lon="2.36026">
        <ele>102.9</ele>
        <time>2019-07-14T07:53:31.000Z</time>
      </trkpt>
      <trkpt lat="43.21405" lon="2.36026">
        <ele>102.9</ele>
        <time>2019-07-14T07:53:32.000Z</time>
      </trkpt>
      <trkpt lat="43.21404" lon="2.36025">
        <ele>103</ele>
        <time>2019-07-14T07:53:33.000Z</time>
      </trkpt>
      <trkpt lat="43.21402" lon="2.36025">
        <ele>103</ele>
        <time>2019-07-14T07:53:34.000Z</time>
      </trkpt>
      <trkpt lat="43.21401" lon="2.36024">
        <ele>103.1</ele>
        <time>2019-07-14T07:53:35.000Z</time>
      </trkpt>
      <trkpt lat="43.214" lon="2.36024">
        <ele>103.1</ele>
        <time>2019-07-14T07:53:36.000Z</time>
      </trkpt>
      <trkpt lat="43.21398" lon="2.36024">
        <ele>103.1</ele>
        <time>2019-07-14T07:53:37.000Z</time>
      </trkpt>
      <trkpt lat="43.21397" lon="2.36023">
        <ele>103.2</ele>
        <time>2019-07-14T07:53:38.000Z</time>
      </trkpt>
      <trkpt lat="43.21396" lon="2.36023">
        <ele>103.2</ele>
        <time>2019-07-14T07:53:39.000Z</time>
      </trkpt>
      <trkpt lat="43.21394" lon="2.36023">
        <ele>103.2</ele>
        <time>2019-07-14T07:53:40.000Z</time>
      </trkpt>
      <trkpt lat="43.21393" lon="2.36022">
        <ele>103.2</ele>
        <time>2019-07-14T07:53:41.000Z</time>
      </trkpt>
      <trkpt lat="43.21392" lon="2.36022">
        <ele>103.3</ele>
        <time>2019-07-14T07:53:42.000Z</time>
      </trkpt>
      <trkpt lat="43.2139" lon="2.36022">
        <ele>103.3</ele>
        <time>2019-07-14T07:53:43.000Z</time>
      </trkpt>
      <trkpt lat="43.21389" lon="2.36022">
        <ele>103.3</ele>
        <time>2019-07-14T07:53:44.000Z</time>
      </trkpt>
      <trkpt lat="43.21388" lon="2.36021">
        <ele>103.3</ele>
        <time>2019-07-14T07:53:45.000Z</time>
      </trkpt>
      <trkpt lat="43.21387" lon="2.36021">
        <ele>103.4</ele>
        <time>2019-07-14T07:53:46.000Z</time>
      </trkpt>
      <trkpt lat="43.21386" lon="2.36021">
        <ele>103.4</ele>
        <time>2019-07-14T07:53:47.000Z</time>
      </trkpt>
      <trkpt lat="43.21384" lon="2.36021">
        <ele>103.4</ele>
        <time>2019-07-14T07:53:48.000Z</time>
      </trkpt>
      <trkpt lat="43.21383" lon="2.36021">
        <ele>103.4</ele>
        <time>2019-07-14T07:53:49.000Z</time>
      </trkpt>
      <trkpt lat="43.21382" lon="2.3602">
        <ele>103.4</ele>
        <time>2019-07-14T07:53:50.000Z</time>
      </trkpt>
      <trkpt lat="43.21381" lon="2.3602">
        <ele>103.5</ele>
        <time>2019-07-14T07:53:51.000Z</time>
      </trkpt>
      <trkpt lat="43.2138" lon="2.3602">
        <ele>103.5</ele>
        <time>2019-07-14T07:53:52.000Z</time>
      </trkpt>
      <trkpt lat="43.21378" lon="2.3602">
        <ele>103.5</ele>
        <time>2019-07-14T07:53:53.000Z</time>
      </trkpt>
      <trkpt lat="43.21377" lon="2.36019">
        <ele>103.5</ele>
        <time>2019-07-14T07:53:54.000Z</time>
      </trkpt>
      <trkpt lat="43.21375" lon="2.36019">
        <ele>103.5</ele>
        <time>2019-07-14T07:53:55.000Z</time>
      </trkpt>
      <trkpt lat="43.21374" lon="2.36018">
        <ele>103.6</ele>
        <time>2019-07-14T07:53:56.000Z</time>
      </trkpt>
      <trkpt lat="43.21372" lon="2.36018">
        <ele>103.6</ele>
        <time>2019-07-14T07:53:57.000Z</time>
      </trkpt>
      <trkpt lat="43.2137" lon="2.36017">
        <ele>103.6</ele>
        <time>2019-07-14T07:53:58.000Z</time>
      </trkpt>
      <trkpt lat="43.21369" lon="2.36017">
        <ele>103.7</ele>
        <time>2019-07-14T07:53:59.000Z</time>
      </trkpt>
      <trkpt lat="43.21366" lon="2.36016">
        <ele>103.7</ele>
        <time>2019-07-14T07:54:00.000Z</time>
      </trkpt>
      <trkpt lat="43.21364" lon="2.36015">
        <ele>103.7</ele>
        <time>2019-07-14T07:54:01.000Z</time>
      </trkpt>
      <trkpt lat="43.21362" lon="2.36014">
        <ele>103.8</ele>
        <time>2019-07-14T07:54:02.000Z</time>
      </trkpt>
      <trkpt lat="43.2136" lon="2.36013">
        <ele>103.8</ele>
        <time>2019-07-14T07:54:03.000Z</time>
      </trkpt>
      <trkpt lat="43.21357" lon="2.36013">
        <ele>103.8</ele>
        <time>2019-07-14T07:54:04.000Z</time>
      </trkpt>
      <trkpt lat="43.21355" lon="2.36012">
        <ele>103.9</ele>
        <time>2019-07-14T07:54:05.000Z</time>
      </trkpt>
      <trkpt lat="43.21353" lon="2.36011">
        <ele>103.9</ele>
        <time>2019-07-14T07:54:06.000Z</time>
      </trkpt>
      <trkpt lat="43.2135" lon="2.3601">
        <ele>103.9</ele>
        <time>2019-07-14T07:54:07.000Z</time>
      </trkpt>
      <trkpt lat="43.21348" lon="2.36009">
        <ele>103.9</ele>
        <time>2019-07-14T07:54:08.000Z</time>
      </trkpt>
      <trkpt lat="43.21345" lon="2.36008">
        <ele>103.9</ele>
        <time>2019-07-14T07:54:09.000Z</time>
      </trkpt>
      <trkpt lat="43.21343" lon="2.36007">
        <ele>104</ele>
        <time>2019-07-14T07:54:10.000Z</time>
      </trkpt>
      <trkpt lat="43.2134" lon="2.36006">
        <ele>104</ele>
        <time>2019-07-14T07:54:11.000Z</time>
      </trkpt>
      <trkpt lat="43.21338" lon="2.36006">
        <ele>104</ele>
        <time>2019-07-14T07:54:12.000Z</time>
      </trkpt>
      <trkpt lat="43.21335" lon="2.36005">
        <ele>104</ele>
        <time>2019-07-14T07:54:13.000Z</time>
      </trkpt>
      <trkpt lat="43.21333" lon="2.36004">
        <ele>104</ele>
        <time>2019-07-14T07:54:14.000Z</time>
      </trkpt>
      <trkpt lat="43.2133" lon="2.36003">
        <ele>104</ele>
        <time>2019-07-14T07:54:15.000Z</time>
      </trkpt>
      <trkpt lat="43.21327" lon="2.36002">
        <ele>103.9</ele>
        <time>2019-07-14T07:54:16.000Z</time>
      </trkpt>
      <trkpt lat="43.21325" lon="2.36001">
        <ele>103.9</ele>
        <time>2019-07-14T07:54:17.000Z</time>
      </trkpt>
      <trkpt lat="43.21322" lon="2.36001">
        <ele>103.9</ele>
        <time>2019-07-14T07:54:18.000Z</time>
      </trkpt>
      <trkpt lat="43.2132" lon="2.36">
        <ele>103.8</ele>
        <time>2019-07-14T07:54:19.000Z</time>
      </trkpt>
      <trkpt lat="43.21317" lon="2.35999">
        <ele>103.8</ele>
        <time>2019-07-14T07:54:20.000Z</time>
      </trkpt>
      <trkpt lat="43.21314" lon="2.35998">
        <ele>103.8</ele>
        <time>2019-07-14T07:54:21.000Z</time>
      </trkpt>
      <trkpt lat="43.21312" lon="2.35997">
        <ele>103.8</ele>
        <time>2019-07-14T07:54:22.000Z</time>
      </trkpt>
      <trkpt lat="43.21309" lon="2.35997">
        <ele>103.8</ele>
        <time>2019-07-14T07:54:23.000Z</time>
      </trkpt>
      <trkpt lat="43.21307" lon="2.35996">
        <ele>103.7</ele>
        <time>2019-07-14T07:54:24.000Z</time>
      </trkpt>
      <trkpt lat="43.21304" lon="2.35995">
        <ele>103.7</ele>
        <time>2019-07-14T07:54:25.000Z</time>
      </trkpt>
      <trkpt lat="43.21301" lon="2.35994">
        <ele>103.7</ele>
        <time>2019-07-14T07:54:26.000Z</time>
      </trkpt>
      <trkpt lat="43.21299" lon="2.35993">
        <ele>103.7</ele>
        <time>2019-07-14T07:54:27.000Z</time>
      </trkpt>
      <trkpt lat="43.21296" lon="2.35993">
        <ele>103.7</ele>
        <time>2019-07-14T07:54:28.000Z</time>
      </trkpt>
      <trkpt lat="43.21294" lon="2.35992">
        <ele>103.7</ele>
        <time>2019-07-14T07:54:29.000Z</time>
      </trkpt>
      <trkpt lat="43.21291" lon="2.35991">
        <ele>103.7</ele>
        <time>2019-07-14T07:54:30.000Z</time>
      </trkpt>
      <trkpt lat="43.21288" lon="2.3599">
        <ele>103.6</ele>
        <time>2019-07-14T07:54:31.000Z</time>
      </trkpt>
      <trkpt lat="43.21286" lon="2.35989">
        <ele>103.6</ele>
        <time>2019-07-14T07:54:32.000Z</time>
      </trkpt>
      <trkpt lat="43.21283" lon="2.35988">
        <ele>103.6</ele>
        <time>2019-07-14T07:54:33.000Z</time>
      </trkpt>
      <trkpt lat="43.21281" lon="2.35987">
        <ele>103.6</ele>
        <time>2019-07-14T07:54:34.000Z</time>
      </trkpt>
      <trkpt lat="43.21278" lon="2.35986">
        <ele>103.6</ele>
        <time>2019-07-14T07:54:35.000Z</time>
      </trkpt>
      <trkpt lat="43.21275" lon="2.35985">
        <ele>103.6</ele>
        <time>2019-07-14T07:54:36.000Z</time>
      </trkpt>
      <trkpt lat="43.21273" lon="2.35984">
        <ele>103.6</ele>
        <time>2019-07-14T07:54:37.000Z</time>
      </trkpt>
      <trkpt lat="43.2127" lon="2.35983">
        <ele>103.6</ele>
        <time>2019-07-14T07:54:38.000Z</time>
      </trkpt>
      <trkpt lat="43.21268" lon="2.35982">
        <ele>103.6</ele>
        <time>2019-07-14T07:54:39.000Z</time>
      </trkpt>
      <trkpt lat="43.21265" lon="2.35981">
        <ele>103.6</ele>
        <time>2019-07-14T07:54:40.000Z</time>
      </trkpt>
      <trkpt lat="43.21263" lon="2.3598">
        <ele>103.6</ele>
        <time>2019-07-14T07:54:41.000Z</time>
      </trkpt>
      <trkpt lat="43.2126" lon="2.35979">
        <ele>103.6</ele>
        <time>2019-07-14T07:54:42.000Z</time>
      </trkpt>
      <trkpt lat="43.21258" lon="2.35977">
        <ele>103.6</ele>
        <time>2019-07-14T07:54:43.000Z</time>
      </trkpt>
      <trkpt lat="43.21256" lon="2.35976">
        <ele>103.6</ele>
        <time>2019-07-14T07:54:44.000Z</time>
      </trkpt>
      <trkpt lat="43.21253" lon="2.35975">
        <ele>103.6</ele>
        <time>2019-07-14T07:54:45.000Z</time>
      </trkpt>
      <trkpt lat="43.21251" lon="2.35974">
        <ele>103.6</ele>
        <time>2019-07-14T07:54:46.000Z</time>
      </trkpt>
      <trkpt lat="43.21249" lon="2.35973">
        <ele>103.7</ele>
        <time>2019-07-14T07:54:47.000Z</time>
      </trkpt>
      <trkpt lat="43.21246" lon="2.35971">
        <ele>103.7</ele>
        <time>2019-07-14T07:54:48.000Z</time>
      </trkpt>
      <trkpt lat="43.21244" lon="2.3597">
        <ele>103.8</ele>
        <time>2019-07-14T07:54:49.000Z</time>
      </trkpt>
      <trkpt lat="43.21242" lon="2.35969">
        <ele>103.8</ele>
        <time>2019-07-14T07:54:50.000Z</time>
      </trkpt>
      <trkpt lat="43.21239" lon="2.35967">
        <ele>103.9</ele>
        <time>2019-07-14T07:54:51.000Z</time>
      </trkpt>
      <trkpt lat="43.21237" lon="2.35966">
        <ele>103.9</ele>
        <time>2019-07-14T07:54:52.000Z</time>
      </trkpt>
      <trkpt lat="43.21235" lon="2.35964">
        <ele>104</ele>
        <time>2019-07-14T07:54:53.000Z</time>
      </trkpt>
      <trkpt lat="43.21232" lon="2.35962">
        <ele>104</ele>
        <time>2019-07-14T07:54:54.000Z</time>
      </trkpt>
      <trkpt lat="43.2123" lon="2.35961">
        <ele>104.1</ele>
        <time>2019-07-14T07:54:55.000Z</time>
      </trkpt>
      <trkpt lat="43.21228" lon="2.35959">
        <ele>104.1</ele>
        <time>2019-07-14T07:54:56.000Z</time>
      </trkpt>
      <trkpt lat="43.21225" lon="2.35957">
        <ele>104.2</ele>
        <time>2019-07-14T07:54:57.000Z</time>
      </trkpt>
      <trkpt lat="43.21223" lon="2.35955">
        <ele>104.2</ele>
        <time>2019-07-14T07:54:58.000Z</time>
      </trkpt>
      <trkpt lat="43.21221" lon="2.35953">
        <ele>104.3</ele>
        <time>2019-07-14T07:54:59.000Z</time>
      </trkpt>
      <trkpt lat="43.21219" lon="2.35952">
        <ele>104.3</ele>
        <time>2019-07-14T07:55:00.000Z</time>
      </trkpt>
      <trkpt lat="43.21217" lon="2.3595">
        <ele>104.4</ele>
        <time>2019-07-14T07:55:01.000Z</time>
      </trkpt>
      <trkpt lat="43.21216" lon="2.35948">
        <ele>104.4</ele>
        <time>2019-07-14T07:55:02.000Z</time>
      </trkpt>
      <trkpt lat="43.21214" lon="2.35947">
        <ele>104.4</ele>
        <time>2019-07-14T07:55:03.000Z</time>
      </trkpt>
      <trkpt lat="43.21213" lon="2.35945">
        <ele>104.5</ele>
        <time>2019-07-14T07:55:04.000Z</time>
      </trkpt>
      <trkpt lat="43.21211" lon="2.35944">
        <ele>104.5</ele>
        <time>2019-07-14T07:55:05.000Z</time>
      </trkpt>
      <trkpt lat="43.2121" lon="2.35943">
        <ele>104.5</ele>
        <time>2019-07-14T07:55:06.000Z</time>
      </trkpt>
      <trkpt lat="43.21209" lon="2.35941">
        <ele>104.6</ele>
        <time>2019-07-14T07:55:07.000Z</time>
      </trkpt>
      <trkpt lat="43.21208" lon="2.3594">
        <ele>104.6</ele>
        <time>2019-07-14T07:55:08.000Z</time>
      </trkpt>
      <trkpt lat="43.21207" lon="2.35939">
        <ele>104.6</ele>
        <time>2019-07-14T07:55:09.000Z</time>
      </trkpt>
      <trkpt lat="43.21207" lon="2.35937">
        <ele>104.6</ele>
        <time>2019-07-14T07:55:10.000Z</time>
      </trkpt>
      <trkpt lat="43.21206" lon="2.35936">
        <ele>104.7</ele>
        <time>2019-07-14T07:55:11.000Z</time>
      </trkpt>
      <trkpt lat="43.21205" lon="2.35935">
        <ele>104.7</ele>
        <time>2019-07-14T07:55:12.000Z</time>
      </trkpt>
      <trkpt lat="43.21204" lon="2.35934">
        <ele>104.7</ele>
        <time>2019-07-14T07:55:13.000Z</time>
      </trkpt>
      <trkpt lat="43.21204" lon="2.35933">
        <ele>104.7</ele>
        <time>2019-07-14T07:55:14.000Z</time>
      </trkpt>
      <trkpt lat="43.21203" lon="2.35932">
        <ele>104.7</ele>
        <time>2019-07-14T07:55:15.000Z</time>
      </trkpt>
      <trkpt lat="43.21202" lon="2.35931">
        <ele>104.8</ele>
        <time>2019-07-14T07:55:16.000Z</time>
      </trkpt>
      <trkpt lat="43.21202" lon="2.3593">
        <ele>104.8</ele>
        <time>2019-07-14T07:55:17.000Z</time>
      </trkpt>
      <trkpt lat="43.21201" lon="2.35929">
        <ele>104.8</ele>
        <time>2019-07-14T07:55:18.000Z</time>
      </trkpt>
      <trkpt lat="43.212" lon="2.35928">
        <ele>104.8</ele>
        <time>2019-07-14T07:55:19.000Z</time>
      </trkpt>
      <trkpt lat="43.212" lon="2.35927">
        <ele>104.8</ele>
        <time>2019-07-14T07:55:20.000Z</time>
      </trkpt>
      <trkpt lat="43.21199" lon="2.35926">
        <ele>104.8</ele>
        <time>2019-07-14T07:55:21.000Z</time>
      </trkpt>
      <trkpt lat="43.21198" lon="2.35925">
        <ele>104.9</ele>
        <time>2019-07-14T07:55:22.000Z</time>
      </trkpt>
      <trkpt lat="43.21197" lon="2.35925">
        <ele>104.9</ele>
        <time>2019-07-14T07:55:23.000Z</time>
      </trkpt>
      <trkpt lat="43.21196" lon="2.35924">
        <ele>104.9</ele>
        <time>2019-07-14T07:55:24.000Z</time>
      </trkpt>
      <trkpt lat="43.21195" lon="2.35923">
        <ele>104.9</ele>
        <time>2019-07-14T07:55:25.000Z</time>
      </trkpt>
      <trkpt lat="43.21194" lon="2.35923">
        <ele>104.9</ele>
        <time>2019-07-14T07:55:26.000Z</time>
      </trkpt>
      <trkpt lat="43.21193" lon="2.35922">
        <ele>104.9</ele>
        <time>2019-07-14T07:55:27.000Z</time>
      </trkpt>
      <trkpt lat="43.21192" lon="2.35922">
        <ele>104.9</ele>
        <time>2019-07-14T07:55:28.000Z</time>
      </trkpt>
      <trkpt lat="43.21191" lon="2.35921">
        <ele>104.9</ele>
        <time>2019-07-14T07:55:29.000Z</time>
      </trkpt>
      <trkpt lat="43.2119" lon="2.35921">
        <ele>104.9</ele>
        <time>2019-07-14T07:55:30.000Z</time>
      </trkpt>
      <trkpt lat="43.21189" lon="2.3592">
        <ele>104.9</ele>
        <time>2019-07-14T07:55:31.000Z</time>
      </trkpt>
      <trkpt lat="43.21188" lon="2.3592">
        <ele>104.9</ele>
        <time>2019-07-14T07:55:32.000Z</time>
      </trkpt>
      <trkpt lat="43.21187" lon="2.3592">
        <ele>105</ele>
        <time>2019-07-14T07:55:33.000Z</time>
      </trkpt>
      <trkpt lat="43.21186" lon="2.35919">
        <ele>105</ele>
        <time>2019-07-14T07:55:34.000Z</time>
      </trkpt>
      <trkpt lat="43.21186" lon="2.35918">
        <ele>105</ele>
        <time>2019-07-14T07:55:35.000Z</time>
      </trkpt>
      <trkpt lat="43.21185" lon="2.35917">
        <ele>105</ele>
        <time>2019-07-14T07:55:36.000Z</time>
      </trkpt>
      <trkpt lat="43.21184" lon="2.35916">
        <ele>105</ele>
        <time>2019-07-14T07:55:37.000Z</time>
      </trkpt>
      <trkpt lat="43.21183" lon="2.35915">
        <ele>105</ele>
        <time>2019-07-14T07:55:38.000Z</time>
      </trkpt>
      <trkpt lat="43.21183" lon="2.35913">
        <ele>105.1</ele>
        <time>2019-07-14T07:55:39.000Z</time>
      </trkpt>
      <trkpt lat="43.21182" lon="2.35911">
        <ele>105.1</ele>
        <time>2019-07-14T07:55:40.000Z</time>
      </trkpt>
      <trkpt lat="43.21181" lon="2.35909">
        <ele>105.2</ele>
        <time>2019-07-14T07:55:41.000Z</time>
      </trkpt>
      <trkpt lat="43.2118" lon="2.35906">
        <ele>105.2</ele>
        <time>2019-07-14T07:55:42.000Z</time>
      </trkpt>
      <trkpt lat="43.21179" lon="2.35904">
        <ele>105.3</ele>
        <time>2019-07-14T07:55:43.000Z</time>
      </trkpt>
      <trkpt lat="43.21178" lon="2.35902">
        <ele>105.3</ele>
        <time>2019-07-14T07:55:44.000Z</time>
      </trkpt>
      <trkpt lat="43.21176" lon="2.35899">
        <ele>105.4</ele>
        <time>2019-07-14T07:55:45.000Z</time>
      </trkpt>
      <trkpt lat="43.21175" lon="2.35898">
        <ele>105.4</ele>
        <time>2019-07-14T07:55:46.000Z</time>
      </trkpt>
      <trkpt lat="43.21172" lon="2.35897">
        <ele>105.5</ele>
        <time>2019-07-14T07:55:47.000Z</time>
      </trkpt>
      <trkpt lat="43.2117" lon="2.35896">
        <ele>105.5</ele>
        <time>2019-07-14T07:55:48.000Z</time>
      </trkpt>
      <trkpt lat="43.21167" lon="2.35896">
        <ele>105.5</ele>
        <time>2019-07-14T07:55:49.000Z</time>
      </trkpt>
      <trkpt lat="43.21164" lon="2.35896">
        <ele>105.4</ele>
        <time>2019-07-14T07:55:50.000Z</time>
      </trkpt>
      <trkpt lat="43.21161" lon="2.35895">
        <ele>105.3</ele>
        <time>2019-07-14T07:55:51.000Z</time>
      </trkpt>
      <trkpt lat="43.21158" lon="2.35895">
        <ele>105.2</ele>
        <time>2019-07-14T07:55:52.000Z</time>
      </trkpt>
      <trkpt lat="43.21156" lon="2.35893">
        <ele>105.1</ele>
        <time>2019-07-14T07:55:53.000Z</time>
      </trkpt>
      <trkpt lat="43.21154" lon="2.35892">
        <ele>105.1</ele>
        <time>2019-07-14T07:55:54.000Z</time>
      </trkpt>
      <trkpt lat="43.21152" lon="2.3589">
        <ele>105.1</ele>
        <time>2019-07-14T07:55:55.000Z</time>
      </trkpt>
      <trkpt lat="43.21151" lon="2.35888">
        <ele>105</ele>
        <time>2019-07-14T07:55:56.000Z</time>
      </trkpt>
      <trkpt lat="43.21149" lon="2.35887">
        <ele>105</ele>
        <time>2019-07-14T07:55:57.000Z</time>
      </trkpt>
      <trkpt lat="43.21148" lon="2.35885">
        <ele>105</ele>
        <time>2019-07-14T07:55:58.000Z</time>
      </trkpt>
      <trkpt lat="43.21146" lon="2.35884">
        <ele>105</ele>
        <time>2019-07-14T07:55:59.000Z</time>
      </trkpt>
      <trkpt lat="43.21145" lon="2.35883">
        <ele>105</ele>
        <time>2019-07-14T07:56:00.000Z</time>
      </trkpt>
      <trkpt lat="43.21143" lon="2.35882">
        <ele>104.9</ele>
        <time>2019-07-14T07:56:01.000Z</time>
      </trkpt>
      <trkpt lat="43.21141" lon="2.35881">
        <ele>104.9</ele>
        <time>2019-07-14T07:56:02.000Z</time>
      </trkpt>
      <trkpt lat="43.2114" lon="2.35879">
        <ele>104.9</ele>
        <time>2019-07-14T07:56:03.000Z</time>
      </trkpt>
      <trkpt lat="43.21138" lon="2.35876">
        <ele>105</ele>
        <time>2019-07-14T07:56:04.000Z</time>
      </trkpt>
      <trkpt lat="43.21137" lon="2.35872">
        <ele>105</ele>
        <time>2019-07-14T07:56:05.000Z</time>
      </trkpt>
      <trkpt lat="43.21136" lon="2.35868">
        <ele>105.1</ele>
        <time>2019-07-14T07:56:06.000Z</time>
      </trkpt>
      <trkpt lat="43.21136" lon="2.35864">
        <ele>105.3</ele>
        <time>2019-07-14T07:56:07.000Z</time>
      </trkpt>
      <trkpt lat="43.21136" lon="2.3586">
        <ele>105.4</ele>
        <time>2019-07-14T07:56:08.000Z</time>
      </trkpt>
      <trkpt lat="43.21136" lon="2.35855">
        <ele>105.5</ele>
        <time>2019-07-14T07:56:09.000Z</time>
      </trkpt>
      <trkpt lat="43.21137" lon="2.35851">
        <ele>105.7</ele>
        <time>2019-07-14T07:56:10.000Z</time>
      </trkpt>
      <trkpt lat="43.21137" lon="2.35847">
        <ele>105.8</ele>
        <time>2019-07-14T07:56:11.000Z</time>
      </trkpt>
      <trkpt lat="43.21137" lon="2.35844">
        <ele>106</ele>
        <time>2019-07-14T07:56:12.000Z</time>
      </trkpt>
      <trkpt lat="43.21137" lon="2.3584">
        <ele>106.1</ele>
        <time>2019-07-14T07:56:13.000Z</time>
      </trkpt>
      <trkpt lat="43.21137" lon="2.35837">
        <ele>106.2</ele>
        <time>2019-07-14T07:56:14.000Z</time>
      </trkpt>
      <trkpt lat="43.21136" lon="2.35834">
        <ele>106.2</ele>
        <time>2019-07-14T07:56:15.000Z</time>
      </trkpt>
      <trkpt lat="43.21136" lon="2.35831">
        <ele>106.3</ele>
        <time>2019-07-14T07:56:16.000Z</time>
      </trkpt>
      <trkpt lat="43.21135" lon="2.35828">
        <ele>106.3</ele>
        <time>2019-07-14T07:56:17.000Z</time>
      </trkpt>
      <trkpt lat="43.21134" lon="2.35825">
        <ele>106.3</ele>
        <time>2019-07-14T07:56:18.000Z</time>
      </trkpt>
      <trkpt lat="43.21134" lon="2.35822">
        <ele>106.3</ele>
        <time>2019-07-14T07:56:19.000Z</time>
      </trkpt>
      <trkpt lat="43.21134" lon="2.35819">
        <ele>106.3</ele>
        <time>2019-07-14T07:56:20.000Z</time>
      </trkpt>
      <trkpt lat="43.21133" lon="2.35815">
        <ele>106.3</ele>
        <time>2019-07-14T07:56:21.000Z</time>
      </trkpt>
      <trkpt lat="43.21133" lon="2.35812">
        <ele>106.3</ele>
        <time>2019-07-14T07:56:22.000Z</time>
      </trkpt>
      <trkpt lat="43.21133" lon="2.35809">
        <ele>106.3</ele>
        <time>2019-07-14T07:56:23.000Z</time>
      </trkpt>
      <trkpt lat="43.21133" lon="2.35805">
        <ele>106.3</ele>
        <time>2019-07-14T07:56:24.000Z</time>
      </trkpt>
      <trkpt lat="43.21134" lon="2.35802">
        <ele>106.4</ele>
        <time>2019-07-14T07:56:25.000Z</time>
      </trkpt>
      <trkpt lat="43.21134" lon="2.35799">
        <ele>106.4</ele>
        <time>2019-07-14T07:56:26.000Z</time>
      </trkpt>
      <trkpt lat="43.21134" lon="2.35796">
        <ele>106.4</ele>
        <time>2019-07-14T07:56:27.000Z</time>
      </trkpt>
      <trkpt lat="43.21135" lon="2.35793">
        <ele>106.4</ele>
        <time>2019-07-14T07:56:28.000Z</time>
      </trkpt>
      <trkpt lat="43.21135" lon="2.3579">
        <ele>106.4</ele>
        <time>2019-07-14T07:56:29.000Z</time>
      </trkpt>
      <trkpt lat="43.21136" lon="2.35787">
        <ele>106.5</ele>
        <time>2019-07-14T07:56:30.000Z</time>
      </trkpt>
      <trkpt lat="43.21136" lon="2.35785">
        <ele>106.5</ele>
        <time>2019-07-14T07:56:31.000Z</time>
      </trkpt>
      <trkpt lat="43.21137" lon="2.35782">
        <ele>106.5</ele>
        <time>2019-07-14T07:56:32.000Z</time>
      </trkpt>
      <trkpt lat="43.21139" lon="2.3578">
        <ele>106.5</ele>
        <time>2019-07-14T07:56:33.000Z</time>
      </trkpt>
      <trkpt lat="43.2114" lon="2.35779">
        <ele>106.6</ele>
        <time>2019-07-14T07:56:34.000Z</time>
      </trkpt>
      <trkpt lat="43.21142" lon="2.35777">
        <ele>106.6</ele>
        <time>2019-07-14T07:56:35.000Z</time>
      </trkpt>
      <trkpt lat="43.21144" lon="2.35776">
        <ele>106.6</ele>
        <time>2019-07-14T07:56:36.000Z</time>
      </trkpt>
      <trkpt lat="43.21146" lon="2.35774">
        <ele>106.7</ele>
        <time>2019-07-14T07:56:37.000Z</time>
      </trkpt>
      <trkpt lat="43.21148" lon="2.35773">
        <ele>106.7</ele>
        <time>2019-07-14T07:56:38.000Z</time>
      </trkpt>
      <trkpt lat="43.2115" lon="2.35773">
        <ele>106.7</ele>
        <time>2019-07-14T07:56:39.000Z</time>
      </trkpt>
      <trkpt lat="43.21152" lon="2.35772">
        <ele>106.8</ele>
        <time>2019-07-14T07:56:40.000Z</time>
      </trkpt>
      <trkpt lat="43.21154" lon="2.35771">
        <ele>106.8</ele>
        <time>2019-07-14T07:56:41.000Z</time>
      </trkpt>
      <trkpt lat="43.21155" lon="2.35771">
        <ele>106.8</ele>
        <time>2019-07-14T07:56:42.000Z</time>
      </trkpt>
      <trkpt lat="43.21156" lon="2.3577">
        <ele>106.8</ele>
        <time>2019-07-14T07:56:43.000Z</time>
      </trkpt>
      <trkpt lat="43.21157" lon="2.35769">
        <ele>106.9</ele>
        <time>2019-07-14T07:56:44.000Z</time>
      </trkpt>
      <trkpt lat="43.21158" lon="2.35769">
        <ele>106.9</ele>
        <time>2019-07-14T07:56:45.000Z</time>
      </trkpt>
      <trkpt lat="43.21159" lon="2.35769">
        <ele>106.9</ele>
        <time>2019-07-14T07:56:46.000Z</time>
      </trkpt>
      <trkpt lat="43.2116" lon="2.35768">
        <ele>106.9</ele>
        <time>2019-07-14T07:56:47.000Z</time>
      </trkpt>
      <trkpt lat="43.21161" lon="2.35768">
        <ele>106.9</ele>
        <time>2019-07-14T07:56:48.000Z</time>
      </trkpt>
      <trkpt lat="43.21161" lon="2.35768">
        <ele>106.9</ele>
        <time>2019-07-14T07:56:49.000Z</time>
      </trkpt>
      <trkpt lat="43.21162" lon="2.35767">
        <ele>106.9</ele>
        <time>2019-07-14T07:56:50.000Z</time>
      </trkpt>
      <trkpt lat="43.21163" lon="2.35767">
        <ele>106.9</ele>
        <time>2019-07-14T07:56:51.000Z</time>
      </trkpt>
      <trkpt lat="43.21164" lon="2.35767">
        <ele>107</ele>
        <time>2019-07-14T07:56:52.000Z</time>
      </trkpt>
      <trkpt lat="43.21165" lon="2.35766">
        <ele>107</ele>
        <time>2019-07-14T07:56:53.000Z</time>
      </trkpt>
      <trkpt lat="43.21166" lon="2.35765">
        <ele>107</ele>
        <time>2019-07-14T07:56:54.000Z</time>
      </trkpt>
      <trkpt lat="43.21167" lon="2.35764">
        <ele>107</ele>
        <time>2019-07-14T07:56:55.000Z</time>
      </trkpt>
      <trkpt lat="43.21169" lon="2.35763">
        <ele>107</ele>
        <time>2019-07-14T07:56:56.000Z</time>
      </trkpt>
      <trkpt lat="43.2117" lon="2.35762">
        <ele>107</ele>
        <time>2019-07-14T07:56:57.000Z</time>
      </trkpt>
      <trkpt lat="43.2117" lon="2.35761">
        <ele>107</ele>
        <time>2019-07-14T07:56:58.000Z</time>
      </trkpt>
      <trkpt lat="43.21171" lon="2.3576">
        <ele>107</ele>
        <time>2019-07-14T07:56:59.000Z</time>
      </trkpt>
      <trkpt lat="43.21172" lon="2.3576">
        <ele>107</ele>
        <time>2019-07-14T07:57:00.000Z</time>
      </trkpt>
      <trkpt lat="43.21172" lon="2.35759">
        <ele>107</ele>
        <time>2019-07-14T07:57:01.000Z</time>
      </trkpt>
      <trkpt lat="43.21172" lon="2.35759">
        <ele>107</ele>
        <time>2019-07-14T07:57:02.000Z</time>
      </trkpt>
      <trkpt lat="43.21172" lon="2.35759">
        <ele>107</ele>
        <time>2019-07-14T07:57:03.000Z</time>
      </trkpt>
      <trkpt lat="43.21172" lon="2.35758">
        <ele>107.1</ele>
        <time>2019-07-14T07:57:04.000Z</time>
      </trkpt>
      <trkpt lat="43.21172" lon="2.35758">
        <ele>107</ele>
        <time>2019-07-14T07:57:05.000Z</time>
      </trkpt>
      <trkpt lat="43.21172" lon="2.35758">
        <ele>107</ele>
        <time>2019-07-14T07:57:06.000Z</time>
      </trkpt>
      <trkpt lat="43.21172" lon="2.35758">
        <ele>107</ele>
        <time>2019-07-14T07:57:07.000Z</time>
      </trkpt>
      <trkpt lat="43.21172" lon="2.35758">
        <ele>107</ele>
        <time>2019-07-14T07:57:08.000Z</time>
      </trkpt>
      <trkpt lat="43.21172" lon="2.35758">
        <ele>107</ele>
        <time>2019-07-14T07:57:09.000Z</time>
      </trkpt>
      <trkpt lat="43.21172" lon="2.35758">
        <ele>107</ele>
        <time>2019-07-14T07:57:10.000Z</time>
      </trkpt>
      <trkpt lat="43.21172" lon="2.35757">
        <ele>107</ele>
        <time>2019-07-14T07:57:11.000Z</time>
      </trkpt>
      <trkpt lat="43.21172" lon="2.35757">
        <ele>107</ele>
        <time>2019-07-14T07:57:12.000Z</time>
      </trkpt>
      <trkpt lat="43.21172" lon="2.35757">
        <ele>107</ele>
        <time>2019-07-14T07:57:13.000Z</time>
      </trkpt>
      <trkpt lat="43.21172" lon="2.35757">
        <ele>107</ele>
        <time>2019-07-14T07:57:14.000Z</time>
      </trkpt>
      <trkpt lat="43.21172" lon="2.35757">
        <ele>107</ele>
        <time>2019-07-14T07:57:15.000Z</time>
      </trkpt>
      <trkpt lat="43.21172" lon="2.35757">
        <ele>107</ele>
        <time>2019-07-14T07:57:16.000Z</time>
      </trkpt>
      <trkpt lat="43.21172" lon="2.35758">
        <ele>107</ele>
        <time>2019-07-14T07:57:17.000Z</time>
      </trkpt>
      <trkpt lat="43.21172" lon="2.35758">
        <ele>107</ele>
        <time>2019-07-14T07:57:18.000Z</time>
      </trkpt>
      <trkpt lat="43.21172" lon="2.35758">
        <ele>107</ele>
        <time>2019-07-14T07:57:19.000Z</time>
      </trkpt>
      <trkpt lat="43.21172" lon="2.35758">
        <ele>107</ele>
        <time>2019-07-14T07:57:20.000Z</time>
      </trkpt>
      <trkpt lat="43.21172" lon="2.35759">
        <ele>107</ele>
        <time>2019-07-14T07:57:21.000Z</time>
      </trkpt>
      <trkpt lat="43.21172" lon="2.35759">
        <ele>107</ele>
        <time>2019-07-14T07:57:22.000Z</time>
      </trkpt>
      <trkpt lat="43.21171" lon="2.3576">
        <ele>107</ele>
        <time>2019-07-14T07:57:23.000Z</time>
      </trkpt>
      <trkpt lat="43.21171" lon="2.3576">
        <ele>107</ele>
        <time>2019-07-14T07:57:24.000Z</time>
      </trkpt>
      <trkpt lat="43.21171" lon="2.35761">
        <ele>107</ele>
        <time>2019-07-14T07:57:25.000Z</time>
      </trkpt>
      <trkpt lat="43.2117" lon="2.35762">
        <ele>107</ele>
        <time>2019-07-14T07:57:26.000Z</time>
      </trkpt>
      <trkpt lat="43.21169" lon="2.35762">
        <ele>107</ele>
        <time>2019-07-14T07:57:27.000Z</time>
      </trkpt>
      <trkpt lat="43.21168" lon="2.35763">
        <ele>107</ele>
        <time>2019-07-14T07:57:28.000Z</time>
      </trkpt>
      <trkpt lat="43.21167" lon="2.35764">
        <ele>107</ele>
        <time>2019-07-14T07:57:29.000Z</time>
      </trkpt>
      <trkpt lat="43.21165" lon="2.35765">
        <ele>107</ele>
        <time>2019-07-14T07:57:30.000Z</time>
      </trkpt>
      <trkpt lat="43.21163" lon="2.35766">
        <ele>106.9</ele>
        <time>2019-07-14T07:57:31.000Z</time>
      </trkpt>
      <trkpt lat="43.21161" lon="2.35767">
        <ele>106.9</ele>
        <time>2019-07-14T07:57:32.000Z</time>
      </trkpt>
      <trkpt lat="43.21158" lon="2.35768">
        <ele>106.9</ele>
        <time>2019-07-14T07:57:33.000Z</time>
      </trkpt>
      <trkpt lat="43.21155" lon="2.35769">
        <ele>106.8</ele>
        <time>2019-07-14T07:57:34.000Z</time>
      </trkpt>
      <trkpt lat="43.21152" lon="2.3577">
        <ele>106.8</ele>
        <time>2019-07-14T07:57:35.000Z</time>
      </trkpt>
      <trkpt lat="43.21149" lon="2.35772">
        <ele>106.7</ele>
        <time>2019-07-14T07:57:36.000Z</time>
      </trkpt>
      <trkpt lat="43.21145" lon="2.35774">
        <ele>106.7</ele>
        <time>2019-07-14T07:57:37.000Z</time>
      </trkpt>
      <trkpt lat="43.21141" lon="2.35775">
        <ele>106.6</ele>
        <time>2019-07-14T07:57:38.000Z</time>
      </trkpt>
      <trkpt lat="43.21137" lon="2.35777">
        <ele>106.5</ele>
        <time>2019-07-14T07:57:39.000Z</time>
      </trkpt>
      <trkpt lat="43.21134" lon="2.35779">
        <ele>106.5</ele>
        <time>2019-07-14T07:57:40.000Z</time>
      </trkpt>
      <trkpt lat="43.21131" lon="2.3578">
        <ele>106.4</ele>
        <time>2019-07-14T07:57:41.000Z</time>
      </trkpt>
      <trkpt lat="43.21129" lon="2.35781">
        <ele>106.4</ele>
        <time>2019-07-14T07:57:42.000Z</time>
      </trkpt>
      <trkpt lat="43.21126" lon="2.35782">
        <ele>106.3</ele>
        <time>2019-07-14T07:57:43.000Z</time>
      </trkpt>
      <trkpt lat="43.21125" lon="2.35783">
        <ele>106.3</ele>
        <time>2019-07-14T07:57:44.000Z</time>
      </trkpt>
      <trkpt lat="43.21123" lon="2.35784">
        <ele>106.3</ele>
        <time>2019-07-14T07:57:45.000Z</time>
      </trkpt>
      <trkpt lat="43.21121" lon="2.35786">
        <ele>106.2</ele>
        <time>2019-07-14T07:57:46.000Z</time>
      </trkpt>
      <trkpt lat="43.21119" lon="2.35787">
        <ele>106.2</ele>
        <time>2019-07-14T07:57:47.000Z</time>
      </trkpt>
      <trkpt lat="43.21118" lon="2.35788">
        <ele>106.1</ele>
        <time>2019-07-14T07:57:48.000Z</time>
      </trkpt>
      <trkpt lat="43.21116" lon="2.35789">
        <ele>106.1</ele>
        <time>2019-07-14T07:57:49.000Z</time>
      </trkpt>
      <trkpt lat="43.21114" lon="2.3579">
        <ele>106.1</ele>
        <time>2019-07-14T07:57:50.000Z</time>
      </trkpt>
      <trkpt lat="43.21112" lon="2.35791">
        <ele>106</ele>
        <time>2019-07-14T07:57:51.000Z</time>
      </trkpt>
      <trkpt lat="43.2111" lon="2.35792">
        <ele>106</ele>
        <time>2019-07-14T07:57:52.000Z</time>
      </trkpt>
      <trkpt lat="43.21108" lon="2.35793">
        <ele>105.9</ele>
        <time>2019-07-14T07:57:53.000Z</time>
      </trkpt>
      <trkpt lat="43.21105" lon="2.35793">
        <ele>105.9</ele>
        <time>2019-07-14T07:57:54.000Z</time>
      </trkpt>
      <trkpt lat="43.21103" lon="2.35794">
        <ele>105.8</ele>
        <time>2019-07-14T07:57:55.000Z</time>
      </trkpt>
      <trkpt lat="43.211" lon="2.35794">
        <ele>105.8</ele>
        <time>2019-07-14T07:57:56.000Z</time>
      </trkpt>
      <trkpt lat="43.21098" lon="2.35795">
        <ele>105.7</ele>
        <time>2019-07-14T07:57:57.000Z</time>
      </trkpt>
      <trkpt lat="43.21095" lon="2.35795">
        <ele>105.7</ele>
        <time>2019-07-14T07:57:58.000Z</time>
      </trkpt>
      <trkpt lat="43.21092" lon="2.35795">
        <ele>105.6</ele>
        <time>2019-07-14T07:57:59.000Z</time>
      </trkpt>
      <trkpt lat="43.21089" lon="2.35796">
        <ele>105.6</ele>
        <time>2019-07-14T07:58:00.000Z</time>
      </trkpt>
      <trkpt lat="43.21086" lon="2.35797">
        <ele>105.5</ele>
        <time>2019-07-14T07:58:01.000Z</time>
      </trkpt>
      <trkpt lat="43.21083" lon="2.35798">
        <ele>105.4</ele>
        <time>2019-07-14T07:58:02.000Z</time>
      </trkpt>
      <trkpt lat="43.2108" lon="2.35798">
        <ele>105.3</ele>
        <time>2019-07-14T07:58:03.000Z</time>
      </trkpt>
      <trkpt lat="43.21076" lon="2.35799">
        <ele>105.3</ele>
        <time>2019-07-14T07:58:04.000Z</time>
      </trkpt>
      <trkpt lat="43.21073" lon="2.35799">
        <ele>105.2</ele>
        <time>2019-07-14T07:58:05.000Z</time>
      </trkpt>
      <trkpt lat="43.2107" lon="2.35799">
        <ele>105.2</ele>
        <time>2019-07-14T07:58:06.000Z</time>
      </trkpt>
      <trkpt lat="43.21067" lon="2.35799">
        <ele>105.1</ele>
        <time>2019-07-14T07:58:07.000Z</time>
      </trkpt>
      <trkpt lat="43.21065" lon="2.35799">
        <ele>105.1</ele>
        <time>2019-07-14T07:58:08.000Z</time>
      </trkpt>
      <trkpt lat="43.21062" lon="2.35799">
        <ele>105</ele>
        <time>2019-07-14T07:58:09.000Z</time>
      </trkpt>
      <trkpt lat="43.2106" lon="2.358">
        <ele>104.9</ele>
        <time>2019-07-14T07:58:10.000Z</time>
      </trkpt>
      <trkpt lat="43.21057" lon="2.358">
        <ele>104.9</ele>
        <time>2019-07-14T07:58:11.000Z</time>
      </trkpt>
      <trkpt lat="43.21055" lon="2.35801">
        <ele>104.8</ele>
        <time>2019-07-14T07:58:12.000Z</time>
      </trkpt>
      <trkpt lat="43.21052" lon="2.35801">
        <ele>104.8</ele>
        <time>2019-07-14T07:58:13.000Z</time>
      </trkpt>
      <trkpt lat="43.2105" lon="2.35801">
        <ele>104.7</ele>
        <time>2019-07-14T07:58:14.000Z</time>
      </trkpt>
      <trkpt lat="43.21048" lon="2.358">
        <ele>104.7</ele>
        <time>2019-07-14T07:58:15.000Z</time>
      </trkpt>
      <trkpt lat="43.21045" lon="2.358">
        <ele>104.7</ele>
        <time>2019-07-14T07:58:16.000Z</time>
      </trkpt>
      <trkpt lat="43.21042" lon="2.35799">
        <ele>104.6</ele>
        <time>2019-07-14T07:58:17.000Z</time>
      </trkpt>
      <trkpt lat="43.2104" lon="2.35799">
        <ele>104.6</ele>
        <time>2019-07-14T07:58:18.000Z</time>
      </trkpt>
      <trkpt lat="43.21037" lon="2.35798">
        <ele>104.5</ele>
        <time>2019-07-14T07:58:19.000Z</time>
      </trkpt>
      <trkpt lat="43.21034" lon="2.35797">
        <ele>104.5</ele>
        <time>2019-07-14T07:58:20.000Z</time>
      </trkpt>
      <trkpt lat="43.21031" lon="2.35796">
        <ele>104.5</ele>
        <time>2019-07-14T07:58:21.000Z</time>
      </trkpt>
      <trkpt lat="43.21029" lon="2.35794">
        <ele>104.5</ele>
        <time>2019-07-14T07:58:22.000Z</time>
      </trkpt>
      <trkpt lat="43.21027" lon="2.35792">
        <ele>104.5</ele>
        <time>2019-07-14T07:58:23.000Z</time>
      </trkpt>
      <trkpt lat="43.21024" lon="2.3579">
        <ele>104.5</ele>
        <time>2019-07-14T07:58:24.000Z</time>
      </trkpt>
      <trkpt lat="43.21022" lon="2.35788">
        <ele>104.5</ele>
        <time>2019-07-14T07:58:25.000Z</time>
      </trkpt>
      <trkpt lat="43.2102" lon="2.35786">
        <ele>104.5</ele>
        <time>2019-07-14T07:58:26.000Z</time>
      </trkpt>
      <trkpt lat="43.21017" lon="2.35784">
        <ele>104.5</ele>
        <time>2019-07-14T07:58:27.000Z</time>
      </trkpt>
      <trkpt lat="43.21015" lon="2.35782">
        <ele>104.5</ele>
        <time>2019-07-14T07:58:28.000Z</time>
      </trkpt>
      <trkpt lat="43.21013" lon="2.3578">
        <ele>104.5</ele>
        <time>2019-07-14T07:58:29.000Z</time>
      </trkpt>
      <trkpt lat="43.21012" lon="2.35778">
        <ele>104.5</ele>
        <time>2019-07-14T07:58:30.000Z</time>
      </trkpt>
      <trkpt lat="43.2101" lon="2.35776">
        <ele>104.5</ele>
        <time>2019-07-14T07:58:31.000Z</time>
      </trkpt>
      <trkpt lat="43.21009" lon="2.35775">
        <ele>104.5</ele>
        <time>2019-07-14T07:58:32.000Z</time>
      </trkpt>
      <trkpt lat="43.21008" lon="2.35774">
        <ele>104.6</ele>
        <time>2019-07-14T07:58:33.000Z</time>
      </trkpt>
      <trkpt lat="43.21007" lon="2.35773">
        <ele>104.6</ele>
        <time>2019-07-14T07:58:34.000Z</time>
      </trkpt>
      <trkpt lat="43.21007" lon="2.35772">
        <ele>104.6</ele>
        <time>2019-07-14T07:58:35.000Z</time>
      </trkpt>
      <trkpt lat="43.21007" lon="2.35771">
        <ele>104.6</ele>
        <time>2019-07-14T07:58:36.000Z</time>
      </trkpt>
      <trkpt lat="43.21006" lon="2.3577">
        <ele>104.6</ele>
        <time>2019-07-14T07:58:37.000Z</time>
      </trkpt>
      <trkpt lat="43.21006" lon="2.3577">
        <ele>104.6</ele>
        <time>2019-07-14T07:58:38.000Z</time>
      </trkpt>
      <trkpt lat="43.21006" lon="2.35769">
        <ele>104.6</ele>
        <time>2019-07-14T07:58:39.000Z</time>
      </trkpt>
      <trkpt lat="43.21006" lon="2.35767">
        <ele>104.7</ele>
        <time>2019-07-14T07:58:40.000Z</time>
      </trkpt>
      <trkpt lat="43.21006" lon="2.35766">
        <ele>104.7</ele>
        <time>2019-07-14T07:58:41.000Z</time>
      </trkpt>
      <trkpt lat="43.21005" lon="2.35765">
        <ele>104.7</ele>
        <time>2019-07-14T07:58:42.000Z</time>
      </trkpt>
      <trkpt lat="43.21005" lon="2.35763">
        <ele>104.8</ele>
        <time>2019-07-14T07:58:43.000Z</time>
      </trkpt>
      <trkpt lat="43.21005" lon="2.35762">
        <ele>104.8</ele>
        <time>2019-07-14T07:58:44.000Z</time>
      </trkpt>
      <trkpt lat="43.21005" lon="2.35761">
        <ele>104.8</ele>
        <time>2019-07-14T07:58:45.000Z</time>
      </trkpt>
      <trkpt lat="43.21005" lon="2.3576">
        <ele>104.8</ele>
        <time>2019-07-14T07:58:46.000Z</time>
      </trkpt>
      <trkpt lat="43.21005" lon="2.35759">
        <ele>104.9</ele>
        <time>2019-07-14T07:58:47.000Z</time>
      </trkpt>
      <trkpt lat="43.21005" lon="2.35758">
        <ele>104.9</ele>
        <time>2019-07-14T07:58:48.000Z</time>
      </trkpt>
      <trkpt lat="43.21005" lon="2.35758">
        <ele>104.9</ele>
        <time>2019-07-14T07:58:49.000Z</time>
      </trkpt>
      <trkpt lat="43.21005" lon="2.35758">
        <ele>104.9</ele>
        <time>2019-07-14T07:58:50.000Z</time>
      </trkpt>
      <trkpt lat="43.21005" lon="2.35758">
        <ele>104.9</ele>
        <time>2019-07-14T07:58:51.000Z</time>
      </trkpt>
      <trkpt lat="43.21005" lon="2.35758">
        <ele>104.9</ele>
        <time>2019-07-14T07:58:52.000Z</time>
      </trkpt>
      <trkpt lat="43.21005" lon="2.35758">
        <ele>104.9</ele>
        <time>2019-07-14T07:58:53.000Z</time>
      </trkpt>
      <trkpt lat="43.21005" lon="2.35758">
        <ele>104.9</ele>
        <time>2019-07-14T07:58:54.000Z</time>
      </trkpt>
      <trkpt lat="43.21005" lon="2.35758">
        <ele>104.9</ele>
        <time>2019-07-14T07:58:55.000Z</time>
      </trkpt>
      <trkpt lat="43.21005" lon="2.35757">
        <ele>104.9</ele>
        <time>2019-07-14T07:58:56.000Z</time>
      </trkpt>
      <trkpt lat="43.21004" lon="2.35757">
        <ele>104.9</ele>
        <time>2019-07-14T07:58:57.000Z</time>
      </trkpt>
      <trkpt lat="43.21004" lon="2.35757">
        <ele>104.9</ele>
        <time>2019-07-14T07:58:58.000Z</time>
      </trkpt>
      <trkpt lat="43.21004" lon="2.35756">
        <ele>104.9</ele>
        <time>2019-07-14T07:58:59.000Z</time>
      </trkpt>
      <trkpt lat="43.21003" lon="2.35755">
        <ele>104.9</ele>
        <time>2019-07-14T07:59:00.000Z</time>
      </trkpt>
      <trkpt lat="43.21003" lon="2.35755">
        <ele>104.9</ele>
        <time>2019-07-14T07:59:01.000Z</time>
      </trkpt>
      <trkpt lat="43.21002" lon="2.35754">
        <ele>104.9</ele>
        <time>2019-07-14T07:59:02.000Z</time>
      </trkpt>
      <trkpt lat="43.21002" lon="2.35753">
        <ele>105</ele>
        <time>2019-07-14T07:59:03.000Z</time>
      </trkpt>
      <trkpt lat="43.21002" lon="2.35752">
        <ele>105</ele>
        <time>2019-07-14T07:59:04.000Z</time>
      </trkpt>
      <trkpt lat="43.21001" lon="2.35751">
        <ele>105</ele>
        <time>2019-07-14T07:59:05.000Z</time>
      </trkpt>
      <trkpt lat="43.21001" lon="2.3575">
        <ele>105</ele>
        <time>2019-07-14T07:59:06.000Z</time>
      </trkpt>
      <trkpt lat="43.21" lon="2.35749">
        <ele>105</ele>
        <time>2019-07-14T07:59:07.000Z</time>
      </trkpt>
      <trkpt lat="43.20999" lon="2.35748">
        <ele>105</ele>
        <time>2019-07-14T07:59:08.000Z</time>
      </trkpt>
      <trkpt lat="43.20999" lon="2.35747">
        <ele>105</ele>
        <time>2019-07-14T07:59:09.000Z</time>
      </trkpt>
      <trkpt lat="43.20998" lon="2.35747">
        <ele>105</ele>
        <time>2019-07-14T07:59:10.000Z</time>
      </trkpt>
      <trkpt lat="43.20997" lon="2.35746">
        <ele>105</ele>
        <time>2019-07-14T07:59:11.000Z</time>
      </trkpt>
      <trkpt lat="43.20997" lon="2.35745">
        <ele>104.9</ele>
        <time>2019-07-14T07:59:12.000Z</time>
      </trkpt>
      <trkpt lat="43.20996" lon="2.35745">
        <ele>104.9</ele>
        <time>2019-07-14T07:59:13.000Z</time>
      </trkpt>
      <trkpt lat="43.20995" lon="2.35744">
        <ele>104.9</ele>
        <time>2019-07-14T07:59:14.000Z</time>
      </trkpt>
      <trkpt lat="43.20994" lon="2.35744">
        <ele>104.9</ele>
        <time>2019-07-14T07:59:15.000Z</time>
      </trkpt>
      <trkpt lat="43.20993" lon="2.35743">
        <ele>104.8</ele>
        <time>2019-07-14T07:59:16.000Z</time>
      </trkpt>
      <trkpt lat="43.20992" lon="2.35742">
        <ele>104.8</ele>
        <time>2019-07-14T07:59:17.000Z</time>
      </trkpt>
      <trkpt lat="43.20991" lon="2.35742">
        <ele>104.8</ele>
        <time>2019-07-14T07:59:18.000Z</time>
      </trkpt>
      <trkpt lat="43.2099" lon="2.35741">
        <ele>104.8</ele>
        <time>2019-07-14T07:59:19.000Z</time>
      </trkpt>
      <trkpt lat="43.20989" lon="2.3574">
        <ele>104.7</ele>
        <time>2019-07-14T07:59:20.000Z</time>
      </trkpt>
      <trkpt lat="43.20988" lon="2.35739">
        <ele>104.7</ele>
        <time>2019-07-14T07:59:21.000Z</time>
      </trkpt>
      <trkpt lat="43.20987" lon="2.35739">
        <ele>104.7</ele>
        <time>2019-07-14T07:59:22.000Z</time>
      </trkpt>
      <trkpt lat="43.20986" lon="2.35738">
        <ele>104.6</ele>
        <time>2019-07-14T07:59:23.000Z</time>
      </trkpt>
      <trkpt lat="43.20985" lon="2.35738">
        <ele>104.6</ele>
        <time>2019-07-14T07:59:24.000Z</time>
      </trkpt>
      <trkpt lat="43.20984" lon="2.35737">
        <ele>104.6</ele>
        <time>2019-07-14T07:59:25.000Z</time>
      </trkpt>
      <trkpt lat="43.20983" lon="2.35737">
        <ele>104.5</ele>
        <time>2019-07-14T07:59:26.000Z</time>
      </trkpt>
      <trkpt lat="43.20982" lon="2.35737">
        <ele>104.5</ele>
        <time>2019-07-14T07:59:27.000Z</time>
      </trkpt>
      <trkpt lat="43.2098" lon="2.35737">
        <ele>104.5</ele>
        <time>2019-07-14T07:59:28.000Z</time>
      </trkpt>
      <trkpt lat="43.20979" lon="2.35737">
        <ele>104.4</ele>
        <time>2019-07-14T07:59:29.000Z</time>
      </trkpt>
      <trkpt lat="43.20978" lon="2.35737">
        <ele>104.4</ele>
        <time>2019-07-14T07:59:30.000Z</time>
      </trkpt>
      <trkpt lat="43.20977" lon="2.35737">
        <ele>104.3</ele>
        <time>2019-07-14T07:59:31.000Z</time>
      </trkpt>
      <trkpt lat="43.20976" lon="2.35737">
        <ele>104.3</ele>
        <time>2019-07-14T07:59:32.000Z</time>
      </trkpt>
      <trkpt lat="43.20974" lon="2.35737">
        <ele>104.2</ele>
        <time>2019-07-14T07:59:33.000Z</time>
      </trkpt>
      <trkpt lat="43.20973" lon="2.35737">
        <ele>104.2</ele>
        <time>2019-07-14T07:59:34.000Z</time>
      </trkpt>
      <trkpt lat="43.20972" lon="2.35737">
        <ele>104.1</ele>
        <time>2019-07-14T07:59:35.000Z</time>
      </trkpt>
      <trkpt lat="43.20971" lon="2.35737">
        <ele>104.1</ele>
        <time>2019-07-14T07:59:36.000Z</time>
      </trkpt>
      <trkpt lat="43.20969" lon="2.35737">
        <ele>104.1</ele>
        <time>2019-07-14T07:59:37.000Z</time>
      </trkpt>
      <trkpt lat="43.20968" lon="2.35737">
        <ele>104</ele>
        <time>2019-07-14T07:59:38.000Z</time>
      </trkpt>
      <trkpt lat="43.20967" lon="2.35737">
        <ele>104</ele>
        <time>2019-07-14T07:59:39.000Z</time>
      </trkpt>
      <trkpt lat="43.20966" lon="2.35737">
        <ele>103.9</ele>
        <time>2019-07-14T07:59:40.000Z</time>
      </trkpt>
      <trkpt lat="43.20965" lon="2.35737">
        <ele>103.9</ele>
        <time>2019-07-14T07:59:41.000Z</time>
      </trkpt>
      <trkpt lat="43.20963" lon="2.35736">
        <ele>103.8</ele>
        <time>2019-07-14T07:59:42.000Z</time>
      </trkpt>
      <trkpt lat="43.20962" lon="2.35736">
        <ele>103.8</ele>
        <time>2019-07-14T07:59:43.000Z</time>
      </trkpt>
      <trkpt lat="43.20961" lon="2.35735">
        <ele>103.8</ele>
        <time>2019-07-14T07:59:44.000Z</time>
      </trkpt>
      <trkpt lat="43.2096" lon="2.35735">
        <ele>103.7</ele>
        <time>2019-07-14T07:59:45.000Z</time>
      </trkpt>
      <trkpt lat="43.20959" lon="2.35734">
        <ele>103.7</ele>
        <time>2019-07-14T07:59:46.000Z</time>
      </trkpt>
      <trkpt lat="43.20958" lon="2.35733">
        <ele>103.7</ele>
        <time>2019-07-14T07:59:47.000Z</time>
      </trkpt>
      <trkpt lat="43.20956" lon="2.35733">
        <ele>103.6</ele>
        <time>2019-07-14T07:59:48.000Z</time>
      </trkpt>
      <trkpt lat="43.20955" lon="2.35732">
        <ele>103.6</ele>
        <time>2019-07-14T07:59:49.000Z</time>
      </trkpt>
      <trkpt lat="43.20954" lon="2.35731">
        <ele>103.6</ele>
        <time>2019-07-14T07:59:50.000Z</time>
      </trkpt>
      <trkpt lat="43.20953" lon="2.3573">
        <ele>103.5</ele>
        <time>2019-07-14T07:59:51.000Z</time>
      </trkpt>
      <trkpt lat="43.20952" lon="2.35729">
        <ele>103.5</ele>
        <time>2019-07-14T07:59:52.000Z</time>
      </trkpt>
      <trkpt lat="43.20951" lon="2.35729">
        <ele>103.5</ele>
        <time>2019-07-14T07:59:53.000Z</time>
      </trkpt>
      <trkpt lat="43.20949" lon="2.35728">
        <ele>103.4</ele>
        <time>2019-07-14T07:59:54.000Z</time>
      </trkpt>
      <trkpt lat="43.20948" lon="2.35727">
        <ele>103.4</ele>
        <time>2019-07-14T07:59:55.000Z</time>
      </trkpt>
      <trkpt lat="43.20947" lon="2.35727">
        <ele>103.4</ele>
        <time>2019-07-14T07:59:56.000Z</time>
      </trkpt>
      <trkpt lat="43.20946" lon="2.35726">
        <ele>103.3</ele>
        <time>2019-07-14T07:59:57.000Z</time>
      </trkpt>
      <trkpt lat="43.20944" lon="2.35726">
        <ele>103.3</ele>
        <time>2019-07-14T07:59:58.000Z</time>
      </trkpt>
      <trkpt lat="43.20943" lon="2.35725">
        <ele>103.2</ele>
        <time>2019-07-14T07:59:59.000Z</time>
      </trkpt>
      <trkpt lat="43.20942" lon="2.35725">
        <ele>103.2</ele>
        <time>2019-07-14T08:00:00.000Z</time>
      </trkpt>
      <trkpt lat="43.2094" lon="2.35724">
        <ele>103.2</ele>
        <time>2019-07-14T08:00:01.000Z</time>
      </trkpt>
      <trkpt lat="43.20939" lon="2.35724">
        <ele>103.1</ele>
        <time>2019-07-14T08:00:02.000Z</time>
      </trkpt>
      <trkpt lat="43.20937" lon="2.35723">
        <ele>103.1</ele>
        <time>2019-07-14T08:00:03.000Z</time>
      </trkpt>
      <trkpt lat="43.20936" lon="2.35722">
        <ele>103</ele>
        <time>2019-07-14T08:00:04.000Z</time>
      </trkpt>
      <trkpt lat="43.20935" lon="2.35722">
        <ele>103</ele>
        <time>2019-07-14T08:00:05.000Z</time>
      </trkpt>
      <trkpt lat="43.20933" lon="2.35721">
        <ele>103</ele>
        <time>2019-07-14T08:00:06.000Z</time>
      </trkpt>
      <trkpt lat="43.20932" lon="2.3572">
        <ele>102.9</ele>
        <time>2019-07-14T08:00:07.000Z</time>
      </trkpt>
      <trkpt lat="43.20931" lon="2.35719">
        <ele>102.9</ele>
        <time>2019-07-14T08:00:08.000Z</time>
      </trkpt>
      <trkpt lat="43.2093" lon="2.35718">
        <ele>102.9</ele>
        <time>2019-07-14T08:00:09.000Z</time>
      </trkpt>
      <trkpt lat="43.20929" lon="2.35717">
        <ele>102.8</ele>
        <time>2019-07-14T08:00:10.000Z</time>
      </trkpt>
      <trkpt lat="43.20928" lon="2.35717">
        <ele>102.8</ele>
        <time>2019-07-14T08:00:11.000Z</time>
      </trkpt>
      <trkpt lat="43.20927" lon="2.35716">
        <ele>102.8</ele>
        <time>2019-07-14T08:00:12.000Z</time>
      </trkpt>
      <trkpt lat="43.20927" lon="2.35716">
        <ele>102.8</ele>
        <time>2019-07-14T08:00:13.000Z</time>
      </trkpt>
      <trkpt lat="43.20927" lon="2.35716">
        <ele>102.8</ele>
        <time>2019-07-14T08:00:14.000Z</time>
      </trkpt>
      <trkpt lat="43.20927" lon="2.35716">
        <ele>102.8</ele>
        <time>2019-07-14T08:00:15.000Z</time>
      </trkpt>
      <trkpt lat="43.20927" lon="2.35716">
        <ele>102.8</ele>
        <time>2019-07-14T08:00:16.000Z</time>
      </trkpt>
      <trkpt lat="43.20927" lon="2.35716">
        <ele>102.8</ele>
        <time>2019-07-14T08:00:17.000Z</time>
      </trkpt>
      <trkpt lat="43.20927" lon="2.35716">
        <ele>102.8</ele>
        <time>2019-07-14T08:00:18.000Z</time>
      </trkpt>
      <trkpt lat="43.20927" lon="2.35716">
        <ele>102.8</ele>
        <time>2019-07-14T08:00:19.000Z</time>
      </trkpt>
      <trkpt lat="43.20926" lon="2.35715">
        <ele>102.8</ele>
        <time>2019-07-14T08:00:20.000Z</time>
      </trkpt>
      <trkpt lat="43.20926" lon="2.35715">
        <ele>102.8</ele>
        <time>2019-07-14T08:00:21.000Z</time>
      </trkpt>
      <trkpt lat="43.20925" lon="2.35714">
        <ele>102.7</ele>
        <time>2019-07-14T08:00:22.000Z</time>
      </trkpt>
      <trkpt lat="43.20925" lon="2.35713">
        <ele>102.7</ele>
        <time>2019-07-14T08:00:23.000Z</time>
      </trkpt>
      <trkpt lat="43.20924" lon="2.35711">
        <ele>102.7</ele>
        <time>2019-07-14T08:00:24.000Z</time>
      </trkpt>
      <trkpt lat="43.20923" lon="2.3571">
        <ele>102.7</ele>
        <time>2019-07-14T08:00:25.000Z</time>
      </trkpt>
      <trkpt lat="43.20921" lon="2.35709">
        <ele>102.7</ele>
        <time>2019-07-14T08:00:26.000Z</time>
      </trkpt>
      <trkpt lat="43.2092" lon="2.35707">
        <ele>102.6</ele>
        <time>2019-07-14T08:00:27.000Z</time>
      </trkpt>
      <trkpt lat="43.20918" lon="2.35706">
        <ele>102.6</ele>
        <time>2019-07-14T08:00:28.000Z</time>
      </trkpt>
      <trkpt lat="43.20916" lon="2.35704">
        <ele>102.5</ele>
        <time>2019-07-14T08:00:29.000Z</time>
      </trkpt>
      <trkpt lat="43.20914" lon="2.35702">
        <ele>102.6</ele>
        <time>2019-07-14T08:00:30.000Z</time>
      </trkpt>
      <trkpt lat="43.20912" lon="2.35701">
        <ele>102.6</ele>
        <time>2019-07-14T08:00:31.000Z</time>
      </trkpt>
      <trkpt lat="43.2091" lon="2.35699">
        <ele>102.5</ele>
        <time>2019-07-14T08:00:32.000Z</time>
      </trkpt>
      <trkpt lat="43.20908" lon="2.35697">
        <ele>102.5</ele>
        <time>2019-07-14T08:00:33.000Z</time>
      </trkpt>
      <trkpt lat="43.20906" lon="2.35695">
        <ele>102.5</ele>
        <time>2019-07-14T08:00:34.000Z</time>
      </trkpt>
      <trkpt lat="43.20904" lon="2.35694">
        <ele>102.5</ele>
        <time>2019-07-14T08:00:35.000Z</time>
      </trkpt>
      <trkpt lat="43.20902" lon="2.35692">
        <ele>102.5</ele>
        <time>2019-07-14T08:00:36.000Z</time>
      </trkpt>
      <trkpt lat="43.209" lon="2.3569">
        <ele>102.5</ele>
        <time>2019-07-14T08:00:37.000Z</time>
      </trkpt>
      <trkpt lat="43.20898" lon="2.35688">
        <ele>102.5</ele>
        <time>2019-07-14T08:00:38.000Z</time>
      </trkpt>
      <trkpt lat="43.20896" lon="2.35686">
        <ele>102.4</ele>
        <time>2019-07-14T08:00:39.000Z</time>
      </trkpt>
      <trkpt lat="43.20894" lon="2.35684">
        <ele>102.4</ele>
        <time>2019-07-14T08:00:40.000Z</time>
      </trkpt>
      <trkpt lat="43.20892" lon="2.35682">
        <ele>102.4</ele>
        <time>2019-07-14T08:00:41.000Z</time>
      </trkpt>
      <trkpt lat="43.20891" lon="2.35681">
        <ele>102.4</ele>
        <time>2019-07-14T08:00:42.000Z</time>
      </trkpt>
      <trkpt lat="43.20889" lon="2.35679">
        <ele>102.3</ele>
        <time>2019-07-14T08:00:43.000Z</time>
      </trkpt>
      <trkpt lat="43.20887" lon="2.35677">
        <ele>102.3</ele>
        <time>2019-07-14T08:00:44.000Z</time>
      </trkpt>
      <trkpt lat="43.20885" lon="2.35675">
        <ele>102.2</ele>
        <time>2019-07-14T08:00:45.000Z</time>
      </trkpt>
      <trkpt lat="43.20883" lon="2.35673">
        <ele>102.2</ele>
        <time>2019-07-14T08:00:46.000Z</time>
      </trkpt>
      <trkpt lat="43.20881" lon="2.35671">
        <ele>102.1</ele>
        <time>2019-07-14T08:00:47.000Z</time>
      </trkpt>
      <trkpt lat="43.20879" lon="2.35669">
        <ele>102.1</ele>
        <time>2019-07-14T08:00:48.000Z</time>
      </trkpt>
      <trkpt lat="43.20876" lon="2.35667">
        <ele>102</ele>
        <time>2019-07-14T08:00:49.000Z</time>
      </trkpt>
      <trkpt lat="43.20874" lon="2.35665">
        <ele>102</ele>
        <time>2019-07-14T08:00:50.000Z</time>
      </trkpt>
      <trkpt lat="43.20872" lon="2.35663">
        <ele>102</ele>
        <time>2019-07-14T08:00:51.000Z</time>
      </trkpt>
      <trkpt lat="43.2087" lon="2.35661">
        <ele>102</ele>
        <time>2019-07-14T08:00:52.000Z</time>
      </trkpt>
      <trkpt lat="43.20868" lon="2.35659">
        <ele>102</ele>
        <time>2019-07-14T08:00:53.000Z</time>
      </trkpt>
      <trkpt lat="43.20866" lon="2.35657">
        <ele>102</ele>
        <time>2019-07-14T08:00:54.000Z</time>
      </trkpt>
      <trkpt lat="43.20864" lon="2.35655">
        <ele>102</ele>
        <time>2019-07-14T08:00:55.000Z</time>
      </trkpt>
      <trkpt lat="43.20862" lon="2.35653">
        <ele>102</ele>
        <time>2019-07-14T08:00:56.000Z</time>
      </trkpt>
      <trkpt lat="43.20859" lon="2.35651">
        <ele>102</ele>
        <time>2019-07-14T08:00:57.000Z</time>
      </trkpt>
      <trkpt lat="43.20857" lon="2.35649">
        <ele>102</ele>
        <time>2019-07-14T08:00:58.000Z</time>
      </trkpt>
      <trkpt lat="43.20855" lon="2.35647">
        <ele>101.9</ele>
        <time>2019-07-14T08:00:59.000Z</time>
      </trkpt>
      <trkpt lat="43.20853" lon="2.35645">
        <ele>101.9</ele>
        <time>2019-07-14T08:01:00.000Z</time>
      </trkpt>
      <trkpt lat="43.20851" lon="2.35643">
        <ele>101.9</ele>
        <time>2019-07-14T08:01:01.000Z</time>
      </trkpt>
      <trkpt lat="43.20849" lon="2.35641">
        <ele>101.8</ele>
        <time>2019-07-14T08:01:02.000Z</time>
      </trkpt>
      <trkpt lat="43.20847" lon="2.35639">
        <ele>101.8</ele>
        <time>2019-07-14T08:01:03.000Z</time>
      </trkpt>
      <trkpt lat="43.20844" lon="2.35637">
        <ele>101.8</ele>
        <time>2019-07-14T08:01:04.000Z</time>
      </trkpt>
      <trkpt lat="43.20842" lon="2.35635">
        <ele>101.7</ele>
        <time>2019-07-14T08:01:05.000Z</time>
      </trkpt>
      <trkpt lat="43.2084" lon="2.35633">
        <ele>101.7</ele>
        <time>2019-07-14T08:01:06.000Z</time>
      </trkpt>
      <trkpt lat="43.20838" lon="2.35631">
        <ele>101.6</ele>
        <time>2019-07-14T08:01:07.000Z</time>
      </trkpt>
      <trkpt lat="43.20836" lon="2.35629">
        <ele>101.6</ele>
        <time>2019-07-14T08:01:08.000Z</time>
      </trkpt>
      <trkpt lat="43.20834" lon="2.35627">
        <ele>101.5</ele>
        <time>2019-07-14T08:01:09.000Z</time>
      </trkpt>
      <trkpt lat="43.20831" lon="2.35625">
        <ele>101.5</ele>
        <time>2019-07-14T08:01:10.000Z</time>
      </trkpt>
      <trkpt lat="43.20829" lon="2.35623">
        <ele>101.6</ele>
        <time>2019-07-14T08:01:11.000Z</time>
      </trkpt>
      <trkpt lat="43.20827" lon="2.35621">
        <ele>101.6</ele>
        <time>2019-07-14T08:01:12.000Z</time>
      </trkpt>
      <trkpt lat="43.20825" lon="2.35618">
        <ele>101.7</ele>
        <time>2019-07-14T08:01:13.000Z</time>
      </trkpt>
      <trkpt lat="43.20823" lon="2.35616">
        <ele>101.7</ele>
        <time>2019-07-14T08:01:14.000Z</time>
      </trkpt>
      <trkpt lat="43.20821" lon="2.35614">
        <ele>101.7</ele>
        <time>2019-07-14T08:01:15.000Z</time>
      </trkpt>
      <trkpt lat="43.20819" lon="2.35612">
        <ele>101.8</ele>
        <time>2019-07-14T08:01:16.000Z</time>
      </trkpt>
      <trkpt lat="43.20816" lon="2.3561">
        <ele>101.8</ele>
        <time>2019-07-14T08:01:17.000Z</time>
      </trkpt>
      <trkpt lat="43.20814" lon="2.35608">
        <ele>101.8</ele>
        <time>2019-07-14T08:01:18.000Z</time>
      </trkpt>
      <trkpt lat="43.20812" lon="2.35606">
        <ele>101.9</ele>
        <time>2019-07-14T08:01:19.000Z</time>
      </trkpt>
      <trkpt lat="43.2081" lon="2.35604">
        <ele>101.9</ele>
        <time>2019-07-14T08:01:20.000Z</time>
      </trkpt>
      <trkpt lat="43.20808" lon="2.35602">
        <ele>101.9</ele>
        <time>2019-07-14T08:01:21.000Z</time>
      </trkpt>
      <trkpt lat="43.20805" lon="2.356">
        <ele>101.9</ele>
        <time>2019-07-14T08:01:22.000Z</time>
      </trkpt>
      <trkpt lat="43.20803" lon="2.35598">
        <ele>102</ele>
        <time>2019-07-14T08:01:23.000Z</time>
      </trkpt>
      <trkpt lat="43.20801" lon="2.35596">
        <ele>102</ele>
        <time>2019-07-14T08:01:24.000Z</time>
      </trkpt>
      <trkpt lat="43.20799" lon="2.35594">
        <ele>102</ele>
        <time>2019-07-14T08:01:25.000Z</time>
      </trkpt>
      <trkpt lat="43.20797" lon="2.35592">
        <ele>102</ele>
        <time>2019-07-14T08:01:26.000Z</time>
      </trkpt>
      <trkpt lat="43.20794" lon="2.3559">
        <ele>102</ele>
        <time>2019-07-14T08:01:27.000Z</time>
      </trkpt>
      <trkpt lat="43.20792" lon="2.35588">
        <ele>102</ele>
        <time>2019-07-14T08:01:28.000Z</time>
      </trkpt>
      <trkpt lat="43.2079" lon="2.35586">
        <ele>102</ele>
        <time>2019-07-14T08:01:29.000Z</time>
      </trkpt>
      <trkpt lat="43.20788" lon="2.35584">
        <ele>102</ele>
        <time>2019-07-14T08:01:30.000Z</time>
      </trkpt>
      <trkpt lat="43.20786" lon="2.35582">
        <ele>102.1</ele>
        <time>2019-07-14T08:01:31.000Z</time>
      </trkpt>
      <trkpt lat="43.20783" lon="2.3558">
        <ele>102.1</ele>
        <time>2019-07-14T08:01:32.000Z</time>
      </trkpt>
      <trkpt lat="43.20781" lon="2.35578">
        <ele>102.2</ele>
        <time>2019-07-14T08:01:33.000Z</time>
      </trkpt>
      <trkpt lat="43.20779" lon="2.35576">
        <ele>102.2</ele>
        <time>2019-07-14T08:01:34.000Z</time>
      </trkpt>
      <trkpt lat="43.20777" lon="2.35574">
        <ele>102.3</ele>
        <time>2019-07-14T08:01:35.000Z</time>
      </trkpt>
      <trkpt lat="43.20775" lon="2.35572">
        <ele>102.3</ele>
        <time>2019-07-14T08:01:36.000Z</time>
      </trkpt>
      <trkpt lat="43.20773" lon="2.3557">
        <ele>102.4</ele>
        <time>2019-07-14T08:01:37.000Z</time>
      </trkpt>
      <trkpt lat="43.2077" lon="2.35568">
        <ele>102.4</ele>
        <time>2019-07-14T08:01:38.000Z</time>
      </trkpt>
      <trkpt lat="43.20768" lon="2.35566">
        <ele>102.5</ele>
        <time>2019-07-14T08:01:39.000Z</time>
      </trkpt>
      <trkpt lat="43.20766" lon="2.35564">
        <ele>102.5</ele>
        <time>2019-07-14T08:01:40.000Z</time>
      </trkpt>
      <trkpt lat="43.20764" lon="2.35562">
        <ele>102.6</ele>
        <time>2019-07-14T08:01:41.000Z</time>
      </trkpt>
      <trkpt lat="43.20762" lon="2.3556">
        <ele>102.6</ele>
        <time>2019-07-14T08:01:42.000Z</time>
      </trkpt>
      <trkpt lat="43.2076" lon="2.35558">
        <ele>102.6</ele>
        <time>2019-07-14T08:01:43.000Z</time>
      </trkpt>
      <trkpt lat="43.20757" lon="2.35556">
        <ele>102.7</ele>
        <time>2019-07-14T08:01:44.000Z</time>
      </trkpt>
      <trkpt lat="43.20755" lon="2.35554">
        <ele>102.7</ele>
        <time>2019-07-14T08:01:45.000Z</time>
      </trkpt>
      <trkpt lat="43.20753" lon="2.35552">
        <ele>102.8</ele>
        <time>2019-07-14T08:01:46.000Z</time>
      </trkpt>
      <trkpt lat="43.20751" lon="2.3555">
        <ele>102.8</ele>
        <time>2019-07-14T08:01:47.000Z</time>
      </trkpt>
      <trkpt lat="43.20749" lon="2.35548">
        <ele>102.9</ele>
        <time>2019-07-14T08:01:48.000Z</time>
      </trkpt>
      <trkpt lat="43.20747" lon="2.35546">
        <ele>103</ele>
        <time>2019-07-14T08:01:49.000Z</time>
      </trkpt>
      <trkpt lat="43.20745" lon="2.35544">
        <ele>103.1</ele>
        <time>2019-07-14T08:01:50.000Z</time>
      </trkpt>
      <trkpt lat="43.20743" lon="2.35542">
        <ele>103.2</ele>
        <time>2019-07-14T08:01:51.000Z</time>
      </trkpt>
      <trkpt lat="43.20741" lon="2.35539">
        <ele>103.3</ele>
        <time>2019-07-14T08:01:52.000Z</time>
      </trkpt>
      <trkpt lat="43.20739" lon="2.35537">
        <ele>103.4</ele>
        <time>2019-07-14T08:01:53.000Z</time>
      </trkpt>
      <trkpt lat="43.20737" lon="2.35535">
        <ele>103.5</ele>
        <time>2019-07-14T08:01:54.000Z</time>
      </trkpt>
      <trkpt lat="43.20735" lon="2.35533">
        <ele>103.5</ele>
        <time>2019-07-14T08:01:55.000Z</time>
      </trkpt>
      <trkpt lat="43.20732" lon="2.35531">
        <ele>103.6</ele>
        <time>2019-07-14T08:01:56.000Z</time>
      </trkpt>
      <trkpt lat="43.2073" lon="2.35529">
        <ele>103.7</ele>
        <time>2019-07-14T08:01:57.000Z</time>
      </trkpt>
      <trkpt lat="43.20728" lon="2.35526">
        <ele>103.8</ele>
        <time>2019-07-14T08:01:58.000Z</time>
      </trkpt>
      <trkpt lat="43.20726" lon="2.35524">
        <ele>103.9</ele>
        <time>2019-07-14T08:01:59.000Z</time>
      </trkpt>
      <trkpt lat="43.20724" lon="2.35522">
        <ele>104</ele>
        <time>2019-07-14T08:02:00.000Z</time>
      </trkpt>
      <trkpt lat="43.20722" lon="2.3552">
        <ele>104</ele>
        <time>2019-07-14T08:02:01.000Z</time>
      </trkpt>
      <trkpt lat="43.20719" lon="2.35518">
        <ele>104.1</ele>
        <time>2019-07-14T08:02:02.000Z</time>
      </trkpt>
      <trkpt lat="43.20717" lon="2.35516">
        <ele>104.2</ele>
        <time>2019-07-14T08:02:03.000Z</time>
      </trkpt>
      <trkpt lat="43.20715" lon="2.35514">
        <ele>104.2</ele>
        <time>2019-07-14T08:02:04.000Z</time>
      </trkpt>
      <trkpt lat="43.20712" lon="2.35512">
        <ele>104.3</ele>
        <time>2019-07-14T08:02:05.000Z</time>
      </trkpt>
      <trkpt lat="43.2071" lon="2.35509">
        <ele>104.4</ele>
        <time>2019-07-14T08:02:06.000Z</time>
      </trkpt>
      <trkpt lat="43.20708" lon="2.35507">
        <ele>104.4</ele>
        <time>2019-07-14T08:02:07.000Z</time>
      </trkpt>
      <trkpt lat="43.20705" lon="2.35505">
        <ele>104.5</ele>
        <time>2019-07-14T08:02:08.000Z</time>
      </trkpt>
      <trkpt lat="43.20703" lon="2.35503">
        <ele>104.5</ele>
        <time>2019-07-14T08:02:09.000Z</time>
      </trkpt>
      <trkpt lat="43.20701" lon="2.35501">
        <ele>104.6</ele>
        <time>2019-07-14T08:02:10.000Z</time>
      </trkpt>
      <trkpt lat="43.20698" lon="2.35499">
        <ele>104.7</ele>
        <time>2019-07-14T08:02:11.000Z</time>
      </trkpt>
      <trkpt lat="43.20696" lon="2.35497">
        <ele>104.7</ele>
        <time>2019-07-14T08:02:12.000Z</time>
      </trkpt>
      <trkpt lat="43.20694" lon="2.35495">
        <ele>104.8</ele>
        <time>2019-07-14T08:02:13.000Z</time>
      </trkpt>
      <trkpt lat="43.20691" lon="2.35492">
        <ele>104.9</ele>
        <time>2019-07-14T08:02:14.000Z</time>
      </trkpt>
      <trkpt lat="43.20689" lon="2.3549">
        <ele>105</ele>
        <time>2019-07-14T08:02:15.000Z</time>
      </trkpt>
      <trkpt lat="43.20686" lon="2.35488">
        <ele>105</ele>
        <time>2019-07-14T08:02:16.000Z</time>
      </trkpt>
      <trkpt lat="43.20684" lon="2.35486">
        <ele>105.1</ele>
        <time>2019-07-14T08:02:17.000Z</time>
      </trkpt>
      <trkpt lat="43.20682" lon="2.35484">
        <ele>105.2</ele>
        <time>2019-07-14T08:02:18.000Z</time>
      </trkpt>
      <trkpt lat="43.2068" lon="2.35481">
        <ele>105.2</ele>
        <time>2019-07-14T08:02:19.000Z</time>
      </trkpt>
      <trkpt lat="43.20677" lon="2.35479">
        <ele>105.2</ele>
        <time>2019-07-14T08:02:20.000Z</time>
      </trkpt>
      <trkpt lat="43.20675" lon="2.35477">
        <ele>105.3</ele>
        <time>2019-07-14T08:02:21.000Z</time>
      </trkpt>
      <trkpt lat="43.20673" lon="2.35475">
        <ele>105.3</ele>
        <time>2019-07-14T08:02:22.000Z</time>
      </trkpt>
      <trkpt lat="43.20671" lon="2.35472">
        <ele>105.3</ele>
        <time>2019-07-14T08:02:23.000Z</time>
      </trkpt>
      <trkpt lat="43.20668" lon="2.3547">
        <ele>105.4</ele>
        <time>2019-07-14T08:02:24.000Z</time>
      </trkpt>
      <trkpt lat="43.20666" lon="2.35468">
        <ele>105.4</ele>
        <time>2019-07-14T08:02:25.000Z</time>
      </trkpt>
      <trkpt lat="43.20664" lon="2.35466">
        <ele>105.4</ele>
        <time>2019-07-14T08:02:26.000Z</time>
      </trkpt>
      <trkpt lat="43.20662" lon="2.35463">
        <ele>105.4</ele>
        <time>2019-07-14T08:02:27.000Z</time>
      </trkpt>
      <trkpt lat="43.2066" lon="2.35461">
        <ele>105.5</ele>
        <time>2019-07-14T08:02:28.000Z</time>
      </trkpt>
      <trkpt lat="43.20658" lon="2.35459">
        <ele>105.5</ele>
        <time>2019-07-14T08:02:29.000Z</time>
      </trkpt>
      <trkpt lat="43.20655" lon="2.35457">
        <ele>105.5</ele>
        <time>2019-07-14T08:02:30.000Z</time>
      </trkpt>
      <trkpt lat="43.20653" lon="2.35454">
        <ele>105.5</ele>
        <time>2019-07-14T08:02:31.000Z</time>
      </trkpt>
      <trkpt lat="43.20651" lon="2.35452">
        <ele>105.5</ele>
        <time>2019-07-14T08:02:32.000Z</time>
      </trkpt>
      <trkpt lat="43.20649" lon="2.3545">
        <ele>105.6</ele>
        <time>2019-07-14T08:02:33.000Z</time>
      </trkpt>
      <trkpt lat="43.20647" lon="2.35448">
        <ele>105.6</ele>
        <time>2019-07-14T08:02:34.000Z</time>
      </trkpt>
      <trkpt lat="43.20645" lon="2.35446">
        <ele>105.6</ele>
        <time>2019-07-14T08:02:35.000Z</time>
      </trkpt>
      <trkpt lat="43.20643" lon="2.35443">
        <ele>105.6</ele>
        <time>2019-07-14T08:02:36.000Z</time>
      </trkpt>
      <trkpt lat="43.20641" lon="2.35441">
        <ele>105.6</ele>
        <time>2019-07-14T08:02:37.000Z</time>
      </trkpt>
      <trkpt lat="43.20638" lon="2.35439">
        <ele>105.6</ele>
        <time>2019-07-14T08:02:38.000Z</time>
      </trkpt>
      <trkpt lat="43.20636" lon="2.35437">
        <ele>105.6</ele>
        <time>2019-07-14T08:02:39.000Z</time>
      </trkpt>
      <trkpt lat="43.20634" lon="2.35435">
        <ele>105.6</ele>
        <time>2019-07-14T08:02:40.000Z</time>
      </trkpt>
      <trkpt lat="43.20632" lon="2.35433">
        <ele>105.5</ele>
        <time>2019-07-14T08:02:41.000Z</time>
      </trkpt>
      <trkpt lat="43.20629" lon="2.3543">
        <ele>105.5</ele>
        <time>2019-07-14T08:02:42.000Z</time>
      </trkpt>
      <trkpt lat="43.20627" lon="2.35428">
        <ele>105.5</ele>
        <time>2019-07-14T08:02:43.000Z</time>
      </trkpt>
      <trkpt lat="43.20625" lon="2.35426">
        <ele>105.5</ele>
        <time>2019-07-14T08:02:44.000Z</time>
      </trkpt>
      <trkpt lat="43.20622" lon="2.35423">
        <ele>105.5</ele>
        <time>2019-07-14T08:02:45.000Z</time>
      </trkpt>
      <trkpt lat="43.2062" lon="2.35421">
        <ele>105.4</ele>
        <time>2019-07-14T08:02:46.000Z</time>
      </trkpt>
      <trkpt lat="43.20617" lon="2.35419">
        <ele>105.4</ele>
        <time>2019-07-14T08:02:47.000Z</time>
      </trkpt>
      <trkpt lat="43.20615" lon="2.35416">
        <ele>105.4</ele>
        <time>2019-07-14T08:02:48.000Z</time>
      </trkpt>
      <trkpt lat="43.20613" lon="2.35414">
        <ele>105.4</ele>
        <time>2019-07-14T08:02:49.000Z</time>
      </trkpt>
      <trkpt lat="43.2061" lon="2.35411">
        <ele>105.4</ele>
        <time>2019-07-14T08:02:50.000Z</time>
      </trkpt>
      <trkpt lat="43.20608" lon="2.35409">
        <ele>105.4</ele>
        <time>2019-07-14T08:02:51.000Z</time>
      </trkpt>
      <trkpt lat="43.20606" lon="2.35406">
        <ele>105.4</ele>
        <time>2019-07-14T08:02:52.000Z</time>
      </trkpt>
      <trkpt lat="43.20604" lon="2.35404">
        <ele>105.4</ele>
        <time>2019-07-14T08:02:53.000Z</time>
      </trkpt>
      <trkpt lat="43.20601" lon="2.35401">
        <ele>105.4</ele>
        <time>2019-07-14T08:02:54.000Z</time>
      </trkpt>
      <trkpt lat="43.20599" lon="2.35399">
        <ele>105.3</ele>
        <time>2019-07-14T08:02:55.000Z</time>
      </trkpt>
      <trkpt lat="43.20597" lon="2.35396">
        <ele>105.3</ele>
        <time>2019-07-14T08:02:56.000Z</time>
      </trkpt>
      <trkpt lat="43.20594" lon="2.35394">
        <ele>105.3</ele>
        <time>2019-07-14T08:02:57.000Z</time>
      </trkpt>
      <trkpt lat="43.20592" lon="2.35392">
        <ele>105.2</ele>
        <time>2019-07-14T08:02:58.000Z</time>
      </trkpt>
      <trkpt lat="43.20589" lon="2.35389">
        <ele>105.2</ele>
        <time>2019-07-14T08:02:59.000Z</time>
      </trkpt>
      <trkpt lat="43.20587" lon="2.35387">
        <ele>105.1</ele>
        <time>2019-07-14T08:03:00.000Z</time>
      </trkpt>
      <trkpt lat="43.20585" lon="2.35384">
        <ele>105</ele>
        <time>2019-07-14T08:03:01.000Z</time>
      </trkpt>
      <trkpt lat="43.20583" lon="2.35382">
        <ele>105</ele>
        <time>2019-07-14T08:03:02.000Z</time>
      </trkpt>
      <trkpt lat="43.20581" lon="2.35379">
        <ele>105</ele>
        <time>2019-07-14T08:03:03.000Z</time>
      </trkpt>
      <trkpt lat="43.20579" lon="2.35377">
        <ele>105</ele>
        <time>2019-07-14T08:03:04.000Z</time>
      </trkpt>
      <trkpt lat="43.20577" lon="2.35374">
        <ele>105</ele>
        <time>2019-07-14T08:03:05.000Z</time>
      </trkpt>
      <trkpt lat="43.20575" lon="2.35371">
        <ele>105</ele>
        <time>2019-07-14T08:03:06.000Z</time>
      </trkpt>
      <trkpt lat="43.20573" lon="2.35368">
        <ele>105</ele>
        <time>2019-07-14T08:03:07.000Z</time>
      </trkpt>
      <trkpt lat="43.20572" lon="2.35365">
        <ele>105</ele>
        <time>2019-07-14T08:03:08.000Z</time>
      </trkpt>
      <trkpt lat="43.2057" lon="2.35362">
        <ele>105</ele>
        <time>2019-07-14T08:03:09.000Z</time>
      </trkpt>
      <trkpt lat="43.20569" lon="2.35359">
        <ele>105</ele>
        <time>2019-07-14T08:03:10.000Z</time>
      </trkpt>
      <trkpt lat="43.20567" lon="2.35355">
        <ele>105</ele>
        <time>2019-07-14T08:03:11.000Z</time>
      </trkpt>
      <trkpt lat="43.20566" lon="2.35352">
        <ele>105</ele>
        <time>2019-07-14T08:03:12.000Z</time>
      </trkpt>
      <trkpt lat="43.20564" lon="2.35348">
        <ele>105</ele>
        <time>2019-07-14T08:03:13.000Z</time>
      </trkpt>
      <trkpt lat="43.20563" lon="2.35345">
        <ele>105</ele>
        <time>2019-07-14T08:03:14.000Z</time>
      </trkpt>
      <trkpt lat="43.20561" lon="2.35341">
        <ele>105</ele>
        <time>2019-07-14T08:03:15.000Z</time>
      </trkpt>
      <trkpt lat="43.2056" lon="2.35338">
        <ele>105</ele>
        <time>2019-07-14T08:03:16.000Z</time>
      </trkpt>
      <trkpt lat="43.20558" lon="2.35334">
        <ele>105</ele>
        <time>2019-07-14T08:03:17.000Z</time>
      </trkpt>
      <trkpt lat="43.20557" lon="2.35331">
        <ele>105.1</ele>
        <time>2019-07-14T08:03:18.000Z</time>
      </trkpt>
      <trkpt lat="43.20556" lon="2.35327">
        <ele>105.1</ele>
        <time>2019-07-14T08:03:19.000Z</time>
      </trkpt>
      <trkpt lat="43.20554" lon="2.35323">
        <ele>105.2</ele>
        <time>2019-07-14T08:03:20.000Z</time>
      </trkpt>
      <trkpt lat="43.20553" lon="2.3532">
        <ele>105.2</ele>
        <time>2019-07-14T08:03:21.000Z</time>
      </trkpt>
      <trkpt lat="43.20552" lon="2.35316">
        <ele>105.3</ele>
        <time>2019-07-14T08:03:22.000Z</time>
      </trkpt>
      <trkpt lat="43.20551" lon="2.35313">
        <ele>105.3</ele>
        <time>2019-07-14T08:03:23.000Z</time>
      </trkpt>
      <trkpt lat="43.2055" lon="2.35309">
        <ele>105.3</ele>
        <time>2019-07-14T08:03:24.000Z</time>
      </trkpt>
      <trkpt lat="43.20549" lon="2.35305">
        <ele>105.4</ele>
        <time>2019-07-14T08:03:25.000Z</time>
      </trkpt>
      <trkpt lat="43.20548" lon="2.35302">
        <ele>105.4</ele>
        <time>2019-07-14T08:03:26.000Z</time>
      </trkpt>
      <trkpt lat="43.20547" lon="2.35298">
        <ele>105.4</ele>
        <time>2019-07-14T08:03:27.000Z</time>
      </trkpt>
      <trkpt lat="43.20547" lon="2.35295">
        <ele>105.4</ele>
        <time>2019-07-14T08:03:28.000Z</time>
      </trkpt>
      <trkpt lat="43.20546" lon="2.35291">
        <ele>105.5</ele>
        <time>2019-07-14T08:03:29.000Z</time>
      </trkpt>
      <trkpt lat="43.20546" lon="2.35287">
        <ele>105.5</ele>
        <time>2019-07-14T08:03:30.000Z</time>
      </trkpt>
      <trkpt lat="43.20546" lon="2.35284">
        <ele>105.5</ele>
        <time>2019-07-14T08:03:31.000Z</time>
      </trkpt>
      <trkpt lat="43.20546" lon="2.3528">
        <ele>105.5</ele>
        <time>2019-07-14T08:03:32.000Z</time>
      </trkpt>
      <trkpt lat="43.20546" lon="2.35277">
        <ele>105.6</ele>
        <time>2019-07-14T08:03:33.000Z</time>
      </trkpt>
      <trkpt lat="43.20546" lon="2.35273">
        <ele>105.6</ele>
        <time>2019-07-14T08:03:34.000Z</time>
      </trkpt>
      <trkpt lat="43.20546" lon="2.35269">
        <ele>105.7</ele>
        <time>2019-07-14T08:03:35.000Z</time>
      </trkpt>
      <trkpt lat="43.20546" lon="2.35265">
        <ele>105.7</ele>
        <time>2019-07-14T08:03:36.000Z</time>
      </trkpt>
      <trkpt lat="43.20547" lon="2.35262">
        <ele>105.8</ele>
        <time>2019-07-14T08:03:37.000Z</time>
      </trkpt>
      <trkpt lat="43.20547" lon="2.35258">
        <ele>105.9</ele>
        <time>2019-07-14T08:03:38.000Z</time>
      </trkpt>
      <trkpt lat="43.20548" lon="2.35254">
        <ele>105.9</ele>
        <time>2019-07-14T08:03:39.000Z</time>
      </trkpt>
      <trkpt lat="43.20548" lon="2.35251">
        <ele>106</ele>
        <time>2019-07-14T08:03:40.000Z</time>
      </trkpt>
      <trkpt lat="43.20548" lon="2.35247">
        <ele>106.1</ele>
        <time>2019-07-14T08:03:41.000Z</time>
      </trkpt>
      <trkpt lat="43.20548" lon="2.35243">
        <ele>106.2</ele>
        <time>2019-07-14T08:03:42.000Z</time>
      </trkpt>
      <trkpt lat="43.20547" lon="2.3524">
        <ele>106.3</ele>
        <time>2019-07-14T08:03:43.000Z</time>
      </trkpt>
      <trkpt lat="43.20547" lon="2.35236">
        <ele>106.4</ele>
        <time>2019-07-14T08:03:44.000Z</time>
      </trkpt>
      <trkpt lat="43.20546" lon="2.35233">
        <ele>106.4</ele>
        <time>2019-07-14T08:03:45.000Z</time>
      </trkpt>
      <trkpt lat="43.20545" lon="2.35229">
        <ele>106.5</ele>
        <time>2019-07-14T08:03:46.000Z</time>
      </trkpt>
      <trkpt lat="43.20544" lon="2.35226">
        <ele>106.5</ele>
        <time>2019-07-14T08:03:47.000Z</time>
      </trkpt>
      <trkpt lat="43.20543" lon="2.35223">
        <ele>106.5</ele>
        <time>2019-07-14T08:03:48.000Z</time>
      </trkpt>
      <trkpt lat="43.20542" lon="2.35219">
        <ele>106.5</ele>
        <time>2019-07-14T08:03:49.000Z</time>
      </trkpt>
      <trkpt lat="43.20541" lon="2.35216">
        <ele>106.5</ele>
        <time>2019-07-14T08:03:50.000Z</time>
      </trkpt>
      <trkpt lat="43.2054" lon="2.35213">
        <ele>106.5</ele>
        <time>2019-07-14T08:03:51.000Z</time>
      </trkpt>
      <trkpt lat="43.2054" lon="2.3521">
        <ele>106.5</ele>
        <time>2019-07-14T08:03:52.000Z</time>
      </trkpt>
      <trkpt lat="43.20539" lon="2.35206">
        <ele>106.5</ele>
        <time>2019-07-14T08:03:53.000Z</time>
      </trkpt>
      <trkpt lat="43.20538" lon="2.35203">
        <ele>106.5</ele>
        <time>2019-07-14T08:03:54.000Z</time>
      </trkpt>
      <trkpt lat="43.20537" lon="2.352">
        <ele>106.6</ele>
        <time>2019-07-14T08:03:55.000Z</time>
      </trkpt>
      <trkpt lat="43.20537" lon="2.35196">
        <ele>106.6</ele>
        <time>2019-07-14T08:03:56.000Z</time>
      </trkpt>
      <trkpt lat="43.20536" lon="2.35192">
        <ele>106.6</ele>
        <time>2019-07-14T08:03:57.000Z</time>
      </trkpt>
      <trkpt lat="43.20536" lon="2.35188">
        <ele>106.7</ele>
        <time>2019-07-14T08:03:58.000Z</time>
      </trkpt>
      <trkpt lat="43.20535" lon="2.35183">
        <ele>106.8</ele>
        <time>2019-07-14T08:03:59.000Z</time>
      </trkpt>
      <trkpt lat="43.20535" lon="2.35179">
        <ele>106.8</ele>
        <time>2019-07-14T08:04:00.000Z</time>
      </trkpt>
      <trkpt lat="43.20534" lon="2.35174">
        <ele>106.9</ele>
        <time>2019-07-14T08:04:01.000Z</time>
      </trkpt>
      <trkpt lat="43.20534" lon="2.35169">
        <ele>107</ele>
        <time>2019-07-14T08:04:02.000Z</time>
      </trkpt>
      <trkpt lat="43.20534" lon="2.35164">
        <ele>107</ele>
        <time>2019-07-14T08:04:03.000Z</time>
      </trkpt>
      <trkpt lat="43.20533" lon="2.35159">
        <ele>107</ele>
        <time>2019-07-14T08:04:04.000Z</time>
      </trkpt>
      <trkpt lat="43.20533" lon="2.35154">
        <ele>107</ele>
        <time>2019-07-14T08:04:05.000Z</time>
      </trkpt>
      <trkpt lat="43.20533" lon="2.3515">
        <ele>107.1</ele>
        <time>2019-07-14T08:04:06.000Z</time>
      </trkpt>
      <trkpt lat="43.20533" lon="2.35146">
        <ele>107.1</ele>
        <time>2019-07-14T08:04:07.000Z</time>
      </trkpt>
      <trkpt lat="43.20533" lon="2.35143">
        <ele>107.1</ele>
        <time>2019-07-14T08:04:08.000Z</time>
      </trkpt>
      <trkpt lat="43.20534" lon="2.35139">
        <ele>107.2</ele>
        <time>2019-07-14T08:04:09.000Z</time>
      </trkpt>
      <trkpt lat="43.20534" lon="2.35136">
        <ele>107.2</ele>
        <time>2019-07-14T08:04:10.000Z</time>
      </trkpt>
      <trkpt lat="43.20535" lon="2.35132">
        <ele>107.3</ele>
        <time>2019-07-14T08:04:11.000Z</time>
      </trkpt>
      <trkpt lat="43.20536" lon="2.35128">
        <ele>107.4</ele>
        <time>2019-07-14T08:04:12.000Z</time>
      </trkpt>
      <trkpt lat="43.20537" lon="2.35125">
        <ele>107.5</ele>
        <time>2019-07-14T08:04:13.000Z</time>
      </trkpt>
      <trkpt lat="43.20538" lon="2.35121">
        <ele>107.6</ele>
        <time>2019-07-14T08:04:14.000Z</time>
      </trkpt>
      <trkpt lat="43.20538" lon="2.35118">
        <ele>107.7</ele>
        <time>2019-07-14T08:04:15.000Z</time>
      </trkpt>
      <trkpt lat="43.20538" lon="2.35114">
        <ele>107.7</ele>
        <time>2019-07-14T08:04:16.000Z</time>
      </trkpt>
      <trkpt lat="43.20538" lon="2.35111">
        <ele>107.7</ele>
        <time>2019-07-14T08:04:17.000Z</time>
      </trkpt>
      <trkpt lat="43.20537" lon="2.35108">
        <ele>107.6</ele>
        <time>2019-07-14T08:04:18.000Z</time>
      </trkpt>
      <trkpt lat="43.20537" lon="2.35105">
        <ele>107.6</ele>
        <time>2019-07-14T08:04:19.000Z</time>
      </trkpt>
      <trkpt lat="43.20536" lon="2.35103">
        <ele>107.5</ele>
        <time>2019-07-14T08:04:20.000Z</time>
      </trkpt>
      <trkpt lat="43.20535" lon="2.351">
        <ele>107.5</ele>
        <time>2019-07-14T08:04:21.000Z</time>
      </trkpt>
      <trkpt lat="43.20534" lon="2.35098">
        <ele>107.4</ele>
        <time>2019-07-14T08:04:22.000Z</time>
      </trkpt>
      <trkpt lat="43.20533" lon="2.35096">
        <ele>107.3</ele>
        <time>2019-07-14T08:04:23.000Z</time>
      </trkpt>
      <trkpt lat="43.20533" lon="2.35095">
        <ele>107.3</ele>
        <time>2019-07-14T08:04:24.000Z</time>
      </trkpt>
      <trkpt lat="43.20532" lon="2.35093">
        <ele>107.2</ele>
        <time>2019-07-14T08:04:25.000Z</time>
      </trkpt>
      <trkpt lat="43.20531" lon="2.35092">
        <ele>107.2</ele>
        <time>2019-07-14T08:04:26.000Z</time>
      </trkpt>
      <trkpt lat="43.2053" lon="2.3509">
        <ele>107.1</ele>
        <time>2019-07-14T08:04:27.000Z</time>
      </trkpt>
      <trkpt lat="43.2053" lon="2.35089">
        <ele>107.1</ele>
        <time>2019-07-14T08:04:28.000Z</time>
      </trkpt>
      <trkpt lat="43.20529" lon="2.35088">
        <ele>107.1</ele>
        <time>2019-07-14T08:04:29.000Z</time>
      </trkpt>
      <trkpt lat="43.20528" lon="2.35086">
        <ele>107</ele>
        <time>2019-07-14T08:04:30.000Z</time>
      </trkpt>
      <trkpt lat="43.20528" lon="2.35085">
        <ele>107</ele>
        <time>2019-07-14T08:04:31.000Z</time>
      </trkpt>
      <trkpt lat="43.20528" lon="2.35083">
        <ele>107</ele>
        <time>2019-07-14T08:04:32.000Z</time>
      </trkpt>
      <trkpt lat="43.20527" lon="2.35082">
        <ele>107</ele>
        <time>2019-07-14T08:04:33.000Z</time>
      </trkpt>
      <trkpt lat="43.20527" lon="2.3508">
        <ele>107</ele>
        <time>2019-07-14T08:04:34.000Z</time>
      </trkpt>
      <trkpt lat="43.20526" lon="2.35079">
        <ele>107</ele>
        <time>2019-07-14T08:04:35.000Z</time>
      </trkpt>
      <trkpt lat="43.20526" lon="2.35078">
        <ele>106.9</ele>
        <time>2019-07-14T08:04:36.000Z</time>
      </trkpt>
      <trkpt lat="43.20525" lon="2.35077">
        <ele>106.9</ele>
        <time>2019-07-14T08:04:37.000Z</time>
      </trkpt>
      <trkpt lat="43.20524" lon="2.35077">
        <ele>106.8</ele>
        <time>2019-07-14T08:04:38.000Z</time>
      </trkpt>
      <trkpt lat="43.20523" lon="2.35078">
        <ele>106.8</ele>
        <time>2019-07-14T08:04:39.000Z</time>
      </trkpt>
      <trkpt lat="43.20522" lon="2.35078">
        <ele>106.7</ele>
        <time>2019-07-14T08:04:40.000Z</time>
      </trkpt>
      <trkpt lat="43.20521" lon="2.35079">
        <ele>106.6</ele>
        <time>2019-07-14T08:04:41.000Z</time>
      </trkpt>
      <trkpt lat="43.2052" lon="2.3508">
        <ele>106.5</ele>
        <time>2019-07-14T08:04:42.000Z</time>
      </trkpt>
      <trkpt lat="43.20519" lon="2.35081">
        <ele>106.4</ele>
        <time>2019-07-14T08:04:43.000Z</time>
      </trkpt>
      <trkpt lat="43.20518" lon="2.35082">
        <ele>106.3</ele>
        <time>2019-07-14T08:04:44.000Z</time>
      </trkpt>
      <trkpt lat="43.20517" lon="2.35083">
        <ele>106.2</ele>
        <time>2019-07-14T08:04:45.000Z</time>
      </trkpt>
      <trkpt lat="43.20516" lon="2.35084">
        <ele>106.2</ele>
        <time>2019-07-14T08:04:46.000Z</time>
      </trkpt>
      <trkpt lat="43.20516" lon="2.35084">
        <ele>106.1</ele>
        <time>2019-07-14T08:04:47.000Z</time>
      </trkpt>
      <trkpt lat="43.20515" lon="2.35085">
        <ele>106.1</ele>
        <time>2019-07-14T08:04:48.000Z</time>
      </trkpt>
      <trkpt lat="43.20515" lon="2.35085">
        <ele>106</ele>
        <time>2019-07-14T08:04:49.000Z</time>
      </trkpt>
      <trkpt lat="43.20515" lon="2.35085">
        <ele>106</ele>
        <time>2019-07-14T08:04:50.000Z</time>
      </trkpt>
      <trkpt lat="43.20514" lon="2.35086">
        <ele>106</ele>
        <time>2019-07-14T08:04:51.000Z</time>
      </trkpt>
      <trkpt lat="43.20514" lon="2.35086">
        <ele>106</ele>
        <time>2019-07-14T08:04:52.000Z</time>
      </trkpt>
      <trkpt lat="43.20514" lon="2.35086">
        <ele>106</ele>
        <time>2019-07-14T08:04:53.000Z</time>
      </trkpt>
      <trkpt lat="43.20514" lon="2.35086">
        <ele>106</ele>
        <time>2019-07-14T08:04:54.000Z</time>
      </trkpt>
      <trkpt lat="43.20514" lon="2.35086">
        <ele>106</ele>
        <time>2019-07-14T08:04:55.000Z</time>
      </trkpt>
      <trkpt lat="43.20514" lon="2.35086">
        <ele>106</ele>
        <time>2019-07-14T08:04:56.000Z</time>
      </trkpt>
      <trkpt lat="43.20514" lon="2.35086">
        <ele>106</ele>
        <time>2019-07-14T08:04:57.000Z</time>
      </trkpt>
      <trkpt lat="43.20514" lon="2.35086">
        <ele>106</ele>
        <time>2019-07-14T08:04:58.000Z</time>
      </trkpt>
      <trkpt lat="43.20514" lon="2.35087">
        <ele>106</ele>
        <time>2019-07-14T08:04:59.000Z</time>
      </trkpt>
      <trkpt lat="43.20514" lon="2.35088">
        <ele>105.9</ele>
        <time>2019-07-14T08:05:00.000Z</time>
      </trkpt>
      <trkpt lat="43.20514" lon="2.35089">
        <ele>105.9</ele>
        <time>2019-07-14T08:05:01.000Z</time>
      </trkpt>
      <trkpt lat="43.20514" lon="2.3509">
        <ele>105.9</ele>
        <time>2019-07-14T08:05:02.000Z</time>
      </trkpt>
      <trkpt lat="43.20513" lon="2.35092">
        <ele>105.8</ele>
        <time>2019-07-14T08:05:03.000Z</time>
      </trkpt>
      <trkpt lat="43.20513" lon="2.35093">
        <ele>105.8</ele>
        <time>2019-07-14T08:05:04.000Z</time>
      </trkpt>
      <trkpt lat="43.20513" lon="2.35095">
        <ele>105.7</ele>
        <time>2019-07-14T08:05:05.000Z</time>
      </trkpt>
      <trkpt lat="43.20513" lon="2.35096">
        <ele>105.7</ele>
        <time>2019-07-14T08:05:06.000Z</time>
      </trkpt>
      <trkpt lat="43.20512" lon="2.35098">
        <ele>105.7</ele>
        <time>2019-07-14T08:05:07.000Z</time>
      </trkpt>
      <trkpt lat="43.20513" lon="2.35099">
        <ele>105.6</ele>
        <time>2019-07-14T08:05:08.000Z</time>
      </trkpt>
      <trkpt lat="43.20513" lon="2.35099">
        <ele>105.7</ele>
        <time>2019-07-14T08:05:09.000Z</time>
      </trkpt>
      <trkpt lat="43.20513" lon="2.35099">
        <ele>105.7</ele>
        <time>2019-07-14T08:05:10.000Z</time>
      </trkpt>
      <trkpt lat="43.20513" lon="2.35098">
        <ele>105.7</ele>
        <time>2019-07-14T08:05:11.000Z</time>
      </trkpt>
      <trkpt lat="43.20514" lon="2.35096">
        <ele>105.8</ele>
        <time>2019-07-14T08:05:12.000Z</time>
      </trkpt>
      <trkpt lat="43.20514" lon="2.35094">
        <ele>105.8</ele>
        <time>2019-07-14T08:05:13.000Z</time>
      </trkpt>
      <trkpt lat="43.20514" lon="2.35091">
        <ele>105.9</ele>
        <time>2019-07-14T08:05:14.000Z</time>
      </trkpt>
      <trkpt lat="43.20514" lon="2.35088">
        <ele>105.9</ele>
        <time>2019-07-14T08:05:15.000Z</time>
      </trkpt>
      <trkpt lat="43.20514" lon="2.35085">
        <ele>106</ele>
        <time>2019-07-14T08:05:16.000Z</time>
      </trkpt>
      <trkpt lat="43.20514" lon="2.35081">
        <ele>106.1</ele>
        <time>2019-07-14T08:05:17.000Z</time>
      </trkpt>
      <trkpt lat="43.20514" lon="2.35077">
        <ele>106.2</ele>
        <time>2019-07-14T08:05:18.000Z</time>
      </trkpt>
      <trkpt lat="43.20514" lon="2.35074">
        <ele>106.3</ele>
        <time>2019-07-14T08:05:19.000Z</time>
      </trkpt>
      <trkpt lat="43.20514" lon="2.3507">
        <ele>106.4</ele>
        <time>2019-07-14T08:05:20.000Z</time>
      </trkpt>
      <trkpt lat="43.20515" lon="2.35067">
        <ele>106.5</ele>
        <time>2019-07-14T08:05:21.000Z</time>
      </trkpt>
      <trkpt lat="43.20516" lon="2.35064">
        <ele>106.6</ele>
        <time>2019-07-14T08:05:22.000Z</time>
      </trkpt>
      <trkpt lat="43.20516" lon="2.3506">
        <ele>106.7</ele>
        <time>2019-07-14T08:05:23.000Z</time>
      </trkpt>
      <trkpt lat="43.20517" lon="2.35057">
        <ele>106.9</ele>
        <time>2019-07-14T08:05:24.000Z</time>
      </trkpt>
      <trkpt lat="43.20519" lon="2.35054">
        <ele>107</ele>
        <time>2019-07-14T08:05:25.000Z</time>
      </trkpt>
      <trkpt lat="43.2052" lon="2.35051">
        <ele>107.1</ele>
        <time>2019-07-14T08:05:26.000Z</time>
      </trkpt>
      <trkpt lat="43.20521" lon="2.35047">
        <ele>107.3</ele>
        <time>2019-07-14T08:05:27.000Z</time>
      </trkpt>
      <trkpt lat="43.20522" lon="2.35044">
        <ele>107.4</ele>
        <time>2019-07-14T08:05:28.000Z</time>
      </trkpt>
      <trkpt lat="43.20524" lon="2.3504">
        <ele>107.5</ele>
        <time>2019-07-14T08:05:29.000Z</time>
      </trkpt>
      <trkpt lat="43.20525" lon="2.35037">
        <ele>107.6</ele>
        <time>2019-07-14T08:05:30.000Z</time>
      </trkpt>
      <trkpt lat="43.20526" lon="2.35033">
        <ele>107.7</ele>
        <time>2019-07-14T08:05:31.000Z</time>
      </trkpt>
      <trkpt lat="43.20527" lon="2.35029">
        <ele>107.8</ele>
        <time>2019-07-14T08:05:32.000Z</time>
      </trkpt>
      <trkpt lat="43.20527" lon="2.35025">
        <ele>107.9</ele>
        <time>2019-07-14T08:05:33.000Z</time>
      </trkpt>
      <trkpt lat="43.20528" lon="2.35021">
        <ele>108</ele>
        <time>2019-07-14T08:05:34.000Z</time>
      </trkpt>
      <trkpt lat="43.20528" lon="2.35017">
        <ele>108.1</ele>
        <time>2019-07-14T08:05:35.000Z</time>
      </trkpt>
      <trkpt lat="43.20528" lon="2.35013">
        <ele>108.1</ele>
        <time>2019-07-14T08:05:36.000Z</time>
      </trkpt>
      <trkpt lat="43.20528" lon="2.35009">
        <ele>108.2</ele>
        <time>2019-07-14T08:05:37.000Z</time>
      </trkpt>
      <trkpt lat="43.20528" lon="2.35005">
        <ele>108.3</ele>
        <time>2019-07-14T08:05:38.000Z</time>
      </trkpt>
      <trkpt lat="43.20528" lon="2.35001">
        <ele>108.3</ele>
        <time>2019-07-14T08:05:39.000Z</time>
      </trkpt>
      <trkpt lat="43.20528" lon="2.34997">
        <ele>108.3</ele>
        <time>2019-07-14T08:05:40.000Z</time>
      </trkpt>
      <trkpt lat="43.20528" lon="2.34993">
        <ele>108.3</ele>
        <time>2019-07-14T08:05:41.000Z</time>
      </trkpt>
      <trkpt lat="43.20528" lon="2.34989">
        <ele>108.2</ele>
        <time>2019-07-14T08:05:42.000Z</time>
      </trkpt>
      <trkpt lat="43.20528" lon="2.34986">
        <ele>108.2</ele>
        <time>2019-07-14T08:05:43.000Z</time>
      </trkpt>
      <trkpt lat="43.20528" lon="2.34982">
        <ele>108.2</ele>
        <time>2019-07-14T08:05:44.000Z</time>
      </trkpt>
      <trkpt lat="43.20528" lon="2.34978">
        <ele>108.2</ele>
        <time>2019-07-14T08:05:45.000Z</time>
      </trkpt>
      <trkpt lat="43.20528" lon="2.34974">
        <ele>108.1</ele>
        <time>2019-07-14T08:05:46.000Z</time>
      </trkpt>
      <trkpt lat="43.20528" lon="2.3497">
        <ele>108.1</ele>
        <time>2019-07-14T08:05:47.000Z</time>
      </trkpt>
      <trkpt lat="43.20529" lon="2.34966">
        <ele>108.1</ele>
        <time>2019-07-14T08:05:48.000Z</time>
      </trkpt>
      <trkpt lat="43.20529" lon="2.34962">
        <ele>108</ele>
        <time>2019-07-14T08:05:49.000Z</time>
      </trkpt>
      <trkpt lat="43.2053" lon="2.34957">
        <ele>108</ele>
        <time>2019-07-14T08:05:50.000Z</time>
      </trkpt>
      <trkpt lat="43.2053" lon="2.34953">
        <ele>108</ele>
        <time>2019-07-14T08:05:51.000Z</time>
      </trkpt>
      <trkpt lat="43.20531" lon="2.34949">
        <ele>107.9</ele>
        <time>2019-07-14T08:05:52.000Z</time>
      </trkpt>
      <trkpt lat="43.20532" lon="2.34945">
        <ele>107.9</ele>
        <time>2019-07-14T08:05:53.000Z</time>
      </trkpt>
      <trkpt lat="43.20533" lon="2.3494">
        <ele>107.8</ele>
        <time>2019-07-14T08:05:54.000Z</time>
      </trkpt>
      <trkpt lat="43.20533" lon="2.34936">
        <ele>107.8</ele>
        <time>2019-07-14T08:05:55.000Z</time>
      </trkpt>
      <trkpt lat="43.20534" lon="2.34932">
        <ele>107.7</ele>
        <time>2019-07-14T08:05:56.000Z</time>
      </trkpt>
      <trkpt lat="43.20535" lon="2.34928">
        <ele>107.7</ele>
        <time>2019-07-14T08:05:57.000Z</time>
      </trkpt>
      <trkpt lat="43.20535" lon="2.34923">
        <ele>107.6</ele>
        <time>2019-07-14T08:05:58.000Z</time>
      </trkpt>
      <trkpt lat="43.20536" lon="2.34919">
        <ele>107.6</ele>
        <time>2019-07-14T08:05:59.000Z</time>
      </trkpt>
      <trkpt lat="43.20536" lon="2.34915">
        <ele>107.6</ele>
        <time>2019-07-14T08:06:00.000Z</time>
      </trkpt>
      <trkpt lat="43.20537" lon="2.34911">
        <ele>107.5</ele>
        <time>2019-07-14T08:06:01.000Z</time>
      </trkpt>
      <trkpt lat="43.20538" lon="2.34907">
        <ele>107.5</ele>
        <time>2019-07-14T08:06:02.000Z</time>
      </trkpt>
      <trkpt lat="43.20538" lon="2.34903">
        <ele>107.5</ele>
        <time>2019-07-14T08:06:03.000Z</time>
      </trkpt>
      <trkpt lat="43.20539" lon="2.34899">
        <ele>107.4</ele>
        <time>2019-07-14T08:06:04.000Z</time>
      </trkpt>
      <trkpt lat="43.2054" lon="2.34895">
        <ele>107.4</ele>
        <time>2019-07-14T08:06:05.000Z</time>
      </trkpt>
      <trkpt lat="43.2054" lon="2.34891">
        <ele>107.4</ele>
        <time>2019-07-14T08:06:06.000Z</time>
      </trkpt>
      <trkpt lat="43.20541" lon="2.34887">
        <ele>107.3</ele>
        <time>2019-07-14T08:06:07.000Z</time>
      </trkpt>
      <trkpt lat="43.20542" lon="2.34883">
        <ele>107.3</ele>
        <time>2019-07-14T08:06:08.000Z</time>
      </trkpt>
      <trkpt lat="43.20543" lon="2.3488">
        <ele>107.3</ele>
        <time>2019-07-14T08:06:09.000Z</time>
      </trkpt>
      <trkpt lat="43.20544" lon="2.34876">
        <ele>107.2</ele>
        <time>2019-07-14T08:06:10.000Z</time>
      </trkpt>
      <trkpt lat="43.20545" lon="2.34873">
        <ele>107.2</ele>
        <time>2019-07-14T08:06:11.000Z</time>
      </trkpt>
      <trkpt lat="43.20546" lon="2.34869">
        <ele>107.1</ele>
        <time>2019-07-14T08:06:12.000Z</time>
      </trkpt>
      <trkpt lat="43.20547" lon="2.34866">
        <ele>107.1</ele>
        <time>2019-07-14T08:06:13.000Z</time>
      </trkpt>
      <trkpt lat="43.20549" lon="2.34863">
        <ele>107</ele>
        <time>2019-07-14T08:06:14.000Z</time>
      </trkpt>
      <trkpt lat="43.2055" lon="2.34859">
        <ele>107</ele>
        <time>2019-07-14T08:06:15.000Z</time>
      </trkpt>
      <trkpt lat="43.20551" lon="2.34856">
        <ele>106.9</ele>
        <time>2019-07-14T08:06:16.000Z</time>
      </trkpt>
      <trkpt lat="43.20553" lon="2.34853">
        <ele>106.9</ele>
        <time>2019-07-14T08:06:17.000Z</time>
      </trkpt>
      <trkpt lat="43.20554" lon="2.3485">
        <ele>106.8</ele>
        <time>2019-07-14T08:06:18.000Z</time>
      </trkpt>
      <trkpt lat="43.20555" lon="2.34847">
        <ele>106.8</ele>
        <time>2019-07-14T08:06:19.000Z</time>
      </trkpt>
      <trkpt lat="43.20556" lon="2.34843">
        <ele>106.7</ele>
        <time>2019-07-14T08:06:20.000Z</time>
      </trkpt>
      <trkpt lat="43.20558" lon="2.3484">
        <ele>106.7</ele>
        <time>2019-07-14T08:06:21.000Z</time>
      </trkpt>
      <trkpt lat="43.20559" lon="2.34837">
        <ele>106.6</ele>
        <time>2019-07-14T08:06:22.000Z</time>
      </trkpt>
      <trkpt lat="43.2056" lon="2.34834">
        <ele>106.6</ele>
        <time>2019-07-14T08:06:23.000Z</time>
      </trkpt>
      <trkpt lat="43.20562" lon="2.3483">
        <ele>106.6</ele>
        <time>2019-07-14T08:06:24.000Z</time>
      </trkpt>
      <trkpt lat="43.20563" lon="2.34827">
        <ele>106.6</ele>
        <time>2019-07-14T08:06:25.000Z</time>
      </trkpt>
      <trkpt lat="43.20564" lon="2.34823">
        <ele>106.7</ele>
        <time>2019-07-14T08:06:26.000Z</time>
      </trkpt>
      <trkpt lat="43.20565" lon="2.3482">
        <ele>106.7</ele>
        <time>2019-07-14T08:06:27.000Z</time>
      </trkpt>
      <trkpt lat="43.20567" lon="2.34816">
        <ele>106.8</ele>
        <time>2019-07-14T08:06:28.000Z</time>
      </trkpt>
      <trkpt lat="43.20568" lon="2.34813">
        <ele>106.8</ele>
        <time>2019-07-14T08:06:29.000Z</time>
      </trkpt>
      <trkpt lat="43.20569" lon="2.34809">
        <ele>106.9</ele>
        <time>2019-07-14T08:06:30.000Z</time>
      </trkpt>
      <trkpt lat="43.2057" lon="2.34806">
        <ele>106.9</ele>
        <time>2019-07-14T08:06:31.000Z</time>
      </trkpt>
      <trkpt lat="43.20572" lon="2.34803">
        <ele>107</ele>
        <time>2019-07-14T08:06:32.000Z</time>
      </trkpt>
      <trkpt lat="43.20573" lon="2.34799">
        <ele>107</ele>
        <time>2019-07-14T08:06:33.000Z</time>
      </trkpt>
      <trkpt lat="43.20574" lon="2.34796">
        <ele>107.1</ele>
        <time>2019-07-14T08:06:34.000Z</time>
      </trkpt>
      <trkpt lat="43.20575" lon="2.34793">
        <ele>107.1</ele>
        <time>2019-07-14T08:06:35.000Z</time>
      </trkpt>
      <trkpt lat="43.20576" lon="2.3479">
        <ele>107.2</ele>
        <time>2019-07-14T08:06:36.000Z</time>
      </trkpt>
      <trkpt lat="43.20577" lon="2.34787">
        <ele>107.2</ele>
        <time>2019-07-14T08:06:37.000Z</time>
      </trkpt>
      <trkpt lat="43.20578" lon="2.34785">
        <ele>107.3</ele>
        <time>2019-07-14T08:06:38.000Z</time>
      </trkpt>
      <trkpt lat="43.20579" lon="2.34782">
        <ele>107.3</ele>
        <time>2019-07-14T08:06:39.000Z</time>
      </trkpt>
      <trkpt lat="43.2058" lon="2.3478">
        <ele>107.3</ele>
        <time>2019-07-14T08:06:40.000Z</time>
      </trkpt>
      <trkpt lat="43.20581" lon="2.34777">
        <ele>107.4</ele>
        <time>2019-07-14T08:06:41.000Z</time>
      </trkpt>
      <trkpt lat="43.20582" lon="2.34775">
        <ele>107.4</ele>
        <time>2019-07-14T08:06:42.000Z</time>
      </trkpt>
      <trkpt lat="43.20583" lon="2.34772">
        <ele>107.5</ele>
        <time>2019-07-14T08:06:43.000Z</time>
      </trkpt>
      <trkpt lat="43.20584" lon="2.34769">
        <ele>107.5</ele>
        <time>2019-07-14T08:06:44.000Z</time>
      </trkpt>
      <trkpt lat="43.20585" lon="2.34767">
        <ele>107.6</ele>
        <time>2019-07-14T08:06:45.000Z</time>
      </trkpt>
      <trkpt lat="43.20586" lon="2.34764">
        <ele>107.7</ele>
        <time>2019-07-14T08:06:46.000Z</time>
      </trkpt>
      <trkpt lat="43.20587" lon="2.34761">
        <ele>107.7</ele>
        <time>2019-07-14T08:06:47.000Z</time>
      </trkpt>
      <trkpt lat="43.20588" lon="2.34758">
        <ele>107.8</ele>
        <time>2019-07-14T08:06:48.000Z</time>
      </trkpt>
      <trkpt lat="43.20589" lon="2.34754">
        <ele>107.8</ele>
        <time>2019-07-14T08:06:49.000Z</time>
      </trkpt>
      <trkpt lat="43.20589" lon="2.34751">
        <ele>107.9</ele>
        <time>2019-07-14T08:06:50.000Z</time>
      </trkpt>
      <trkpt lat="43.2059" lon="2.34747">
        <ele>107.9</ele>
        <time>2019-07-14T08:06:51.000Z</time>
      </trkpt>
      <trkpt lat="43.20591" lon="2.34743">
        <ele>107.9</ele>
        <time>2019-07-14T08:06:52.000Z</time>
      </trkpt>
      <trkpt lat="43.20592" lon="2.34739">
        <ele>107.9</ele>
        <time>2019-07-14T08:06:53.000Z</time>
      </trkpt>
      <trkpt lat="43.20593" lon="2.34735">
        <ele>107.9</ele>
        <time>2019-07-14T08:06:54.000Z</time>
      </trkpt>
      <trkpt lat="43.20593" lon="2.34732">
        <ele>107.9</ele>
        <time>2019-07-14T08:06:55.000Z</time>
      </trkpt>
      <trkpt lat="43.20594" lon="2.34728">
        <ele>107.9</ele>
        <time>2019-07-14T08:06:56.000Z</time>
      </trkpt>
      <trkpt lat="43.20595" lon="2.34724">
        <ele>107.9</ele>
        <time>2019-07-14T08:06:57.000Z</time>
      </trkpt>
      <trkpt lat="43.20596" lon="2.34721">
        <ele>107.9</ele>
        <time>2019-07-14T08:06:58.000Z</time>
      </trkpt>
      <trkpt lat="43.20596" lon="2.34718">
        <ele>107.8</ele>
        <time>2019-07-14T08:06:59.000Z</time>
      </trkpt>
      <trkpt lat="43.20597" lon="2.34715">
        <ele>107.8</ele>
        <time>2019-07-14T08:07:00.000Z</time>
      </trkpt>
      <trkpt lat="43.20598" lon="2.34712">
        <ele>107.8</ele>
        <time>2019-07-14T08:07:01.000Z</time>
      </trkpt>
      <trkpt lat="43.20599" lon="2.34709">
        <ele>107.8</ele>
        <time>2019-07-14T08:07:02.000Z</time>
      </trkpt>
      <trkpt lat="43.206" lon="2.34707">
        <ele>107.8</ele>
        <time>2019-07-14T08:07:03.000Z</time>
      </trkpt>
      <trkpt lat="43.20601" lon="2.34704">
        <ele>107.8</ele>
        <time>2019-07-14T08:07:04.000Z</time>
      </trkpt>
      <trkpt lat="43.20603" lon="2.34702">
        <ele>107.8</ele>
        <time>2019-07-14T08:07:05.000Z</time>
      </trkpt>
      <trkpt lat="43.20604" lon="2.34699">
        <ele>107.8</ele>
        <time>2019-07-14T08:07:06.000Z</time>
      </trkpt>
      <trkpt lat="43.20605" lon="2.34696">
        <ele>107.7</ele>
        <time>2019-07-14T08:07:07.000Z</time>
      </trkpt>
      <trkpt lat="43.20607" lon="2.34694">
        <ele>107.7</ele>
        <time>2019-07-14T08:07:08.000Z</time>
      </trkpt>
      <trkpt lat="43.20608" lon="2.34691">
        <ele>107.7</ele>
        <time>2019-07-14T08:07:09.000Z</time>
      </trkpt>
      <trkpt lat="43.20609" lon="2.34688">
        <ele>107.7</ele>
        <time>2019-07-14T08:07:10.000Z</time>
      </trkpt>
      <trkpt lat="43.20611" lon="2.34685">
        <ele>107.7</ele>
        <time>2019-07-14T08:07:11.000Z</time>
      </trkpt>
      <trkpt lat="43.20612" lon="2.34683">
        <ele>107.7</ele>
        <time>2019-07-14T08:07:12.000Z</time>
      </trkpt>
      <trkpt lat="43.20614" lon="2.3468">
        <ele>107.6</ele>
        <time>2019-07-14T08:07:13.000Z</time>
      </trkpt>
      <trkpt lat="43.20615" lon="2.34677">
        <ele>107.6</ele>
        <time>2019-07-14T08:07:14.000Z</time>
      </trkpt>
      <trkpt lat="43.20616" lon="2.34674">
        <ele>107.6</ele>
        <time>2019-07-14T08:07:15.000Z</time>
      </trkpt>
      <trkpt lat="43.20617" lon="2.34671">
        <ele>107.6</ele>
        <time>2019-07-14T08:07:16.000Z</time>
      </trkpt>
      <trkpt lat="43.20618" lon="2.34668">
        <ele>107.6</ele>
        <time>2019-07-14T08:07:17.000Z</time>
      </trkpt>
      <trkpt lat="43.20619" lon="2.34665">
        <ele>107.5</ele>
        <time>2019-07-14T08:07:18.000Z</time>
      </trkpt>
      <trkpt lat="43.2062" lon="2.34662">
        <ele>107.5</ele>
        <time>2019-07-14T08:07:19.000Z</time>
      </trkpt>
      <trkpt lat="43.20621" lon="2.34659">
        <ele>107.5</ele>
        <time>2019-07-14T08:07:20.000Z</time>
      </trkpt>
      <trkpt lat="43.20622" lon="2.34655">
        <ele>107.4</ele>
        <time>2019-07-14T08:07:21.000Z</time>
      </trkpt>
      <trkpt lat="43.20623" lon="2.34652">
        <ele>107.4</ele>
        <time>2019-07-14T08:07:22.000Z</time>
      </trkpt>
      <trkpt lat="43.20623" lon="2.34649">
        <ele>107.3</ele>
        <time>2019-07-14T08:07:23.000Z</time>
      </trkpt>
      <trkpt lat="43.20624" lon="2.34646">
        <ele>107.3</ele>
        <time>2019-07-14T08:07:24.000Z</time>
      </trkpt>
      <trkpt lat="43.20625" lon="2.34642">
        <ele>107.2</ele>
        <time>2019-07-14T08:07:25.000Z</time>
      </trkpt>
      <trkpt lat="43.20626" lon="2.34639">
        <ele>107.2</ele>
        <time>2019-07-14T08:07:26.000Z</time>
      </trkpt>
      <trkpt lat="43.20626" lon="2.34636">
        <ele>107.1</ele>
        <time>2019-07-14T08:07:27.000Z</time>
      </trkpt>
      <trkpt lat="43.20627" lon="2.34633">
        <ele>107.1</ele>
        <time>2019-07-14T08:07:28.000Z</time>
      </trkpt>
      <trkpt lat="43.20627" lon="2.34629">
        <ele>107</ele>
        <time>2019-07-14T08:07:29.000Z</time>
      </trkpt>
      <trkpt lat="43.20628" lon="2.34626">
        <ele>107</ele>
        <time>2019-07-14T08:07:30.000Z</time>
      </trkpt>
      <trkpt lat="43.20628" lon="2.34623">
        <ele>106.9</ele>
        <time>2019-07-14T08:07:31.000Z</time>
      </trkpt>
      <trkpt lat="43.20628" lon="2.3462">
        <ele>106.9</ele>
        <time>2019-07-14T08:07:32.000Z</time>
      </trkpt>
      <trkpt lat="43.20628" lon="2.34617">
        <ele>106.9</ele>
        <time>2019-07-14T08:07:33.000Z</time>
      </trkpt>
      <trkpt lat="43.20629" lon="2.34613">
        <ele>106.8</ele>
        <time>2019-07-14T08:07:34.000Z</time>
      </trkpt>
      <trkpt lat="43.20629" lon="2.3461">
        <ele>106.8</ele>
        <time>2019-07-14T08:07:35.000Z</time>
      </trkpt>
      <trkpt lat="43.20629" lon="2.34607">
        <ele>106.7</ele>
        <time>2019-07-14T08:07:36.000Z</time>
      </trkpt>
      <trkpt lat="43.2063" lon="2.34604">
        <ele>106.7</ele>
        <time>2019-07-14T08:07:37.000Z</time>
      </trkpt>
      <trkpt lat="43.2063" lon="2.346">
        <ele>106.6</ele>
        <time>2019-07-14T08:07:38.000Z</time>
      </trkpt>
      <trkpt lat="43.20631" lon="2.34597">
        <ele>106.6</ele>
        <time>2019-07-14T08:07:39.000Z</time>
      </trkpt>
      <trkpt lat="43.20632" lon="2.34593">
        <ele>106.5</ele>
        <time>2019-07-14T08:07:40.000Z</time>
      </trkpt>
      <trkpt lat="43.20633" lon="2.3459">
        <ele>106.5</ele>
        <time>2019-07-14T08:07:41.000Z</time>
      </trkpt>
      <trkpt lat="43.20634" lon="2.34586">
        <ele>106.4</ele>
        <time>2019-07-14T08:07:42.000Z</time>
      </trkpt>
      <trkpt lat="43.20635" lon="2.34583">
        <ele>106.4</ele>
        <time>2019-07-14T08:07:43.000Z</time>
      </trkpt>
      <trkpt lat="43.20636" lon="2.34579">
        <ele>106.4</ele>
        <time>2019-07-14T08:07:44.000Z</time>
      </trkpt>
      <trkpt lat="43.20637" lon="2.34576">
        <ele>106.4</ele>
        <time>2019-07-14T08:07:45.000Z</time>
      </trkpt>
      <trkpt lat="43.20638" lon="2.34573">
        <ele>106.5</ele>
        <time>2019-07-14T08:07:46.000Z</time>
      </trkpt>
      <trkpt lat="43.20639" lon="2.34569">
        <ele>106.5</ele>
        <time>2019-07-14T08:07:47.000Z</time>
      </trkpt>
      <trkpt lat="43.2064" lon="2.34566">
        <ele>106.5</ele>
        <time>2019-07-14T08:07:48.000Z</time>
      </trkpt>
      <trkpt lat="43.20641" lon="2.34563">
        <ele>106.6</ele>
        <time>2019-07-14T08:07:49.000Z</time>
      </trkpt>
      <trkpt lat="43.20642" lon="2.3456">
        <ele>106.6</ele>
        <time>2019-07-14T08:07:50.000Z</time>
      </trkpt>
      <trkpt lat="43.20643" lon="2.34556">
        <ele>106.6</ele>
        <time>2019-07-14T08:07:51.000Z</time>
      </trkpt>
      <trkpt lat="43.20644" lon="2.34553">
        <ele>106.6</ele>
        <time>2019-07-14T08:07:52.000Z</time>
      </trkpt>
      <trkpt lat="43.20645" lon="2.3455">
        <ele>106.7</ele>
        <time>2019-07-14T08:07:53.000Z</time>
      </trkpt>
      <trkpt lat="43.20646" lon="2.34547">
        <ele>106.7</ele>
        <time>2019-07-14T08:07:54.000Z</time>
      </trkpt>
      <trkpt lat="43.20647" lon="2.34544">
        <ele>106.7</ele>
        <time>2019-07-14T08:07:55.000Z</time>
      </trkpt>
      <trkpt lat="43.20648" lon="2.34541">
        <ele>106.7</ele>
        <time>2019-07-14T08:07:56.000Z</time>
      </trkpt>
      <trkpt lat="43.20649" lon="2.34538">
        <ele>106.8</ele>
        <time>2019-07-14T08:07:57.000Z</time>
      </trkpt>
      <trkpt lat="43.20651" lon="2.34535">
        <ele>106.8</ele>
        <time>2019-07-14T08:07:58.000Z</time>
      </trkpt>
      <trkpt lat="43.20652" lon="2.34532">
        <ele>106.8</ele>
        <time>2019-07-14T08:07:59.000Z</time>
      </trkpt>
      <trkpt lat="43.20653" lon="2.34529">
        <ele>106.8</ele>
        <time>2019-07-14T08:08:00.000Z</time>
      </trkpt>
      <trkpt lat="43.20654" lon="2.34526">
        <ele>106.8</ele>
        <time>2019-07-14T08:08:01.000Z</time>
      </trkpt>
      <trkpt lat="43.20655" lon="2.34523">
        <ele>106.9</ele>
        <time>2019-07-14T08:08:02.000Z</time>
      </trkpt>
      <trkpt lat="43.20656" lon="2.3452">
        <ele>106.9</ele>
        <time>2019-07-14T08:08:03.000Z</time>
      </trkpt>
      <trkpt lat="43.20657" lon="2.34517">
        <ele>106.9</ele>
        <time>2019-07-14T08:08:04.000Z</time>
      </trkpt>
      <trkpt lat="43.20659" lon="2.34514">
        <ele>106.9</ele>
        <time>2019-07-14T08:08:05.000Z</time>
      </trkpt>
      <trkpt lat="43.2066" lon="2.34511">
        <ele>107</ele>
        <time>2019-07-14T08:08:06.000Z</time>
      </trkpt>
      <trkpt lat="43.20661" lon="2.34508">
        <ele>107</ele>
        <time>2019-07-14T08:08:07.000Z</time>
      </trkpt>
      <trkpt lat="43.20662" lon="2.34505">
        <ele>107</ele>
        <time>2019-07-14T08:08:08.000Z</time>
      </trkpt>
      <trkpt lat="43.20663" lon="2.34502">
        <ele>107</ele>
        <time>2019-07-14T08:08:09.000Z</time>
      </trkpt>
      <trkpt lat="43.20664" lon="2.34499">
        <ele>107</ele>
        <time>2019-07-14T08:08:10.000Z</time>
      </trkpt>
      <trkpt lat="43.20666" lon="2.34496">
        <ele>107.1</ele>
        <time>2019-07-14T08:08:11.000Z</time>
      </trkpt>
      <trkpt lat="43.20667" lon="2.34493">
        <ele>107.1</ele>
        <time>2019-07-14T08:08:12.000Z</time>
      </trkpt>
      <trkpt lat="43.20668" lon="2.3449">
        <ele>107.2</ele>
        <time>2019-07-14T08:08:13.000Z</time>
      </trkpt>
      <trkpt lat="43.20669" lon="2.34487">
        <ele>107.3</ele>
        <time>2019-07-14T08:08:14.000Z</time>
      </trkpt>
      <trkpt lat="43.2067" lon="2.34483">
        <ele>107.4</ele>
        <time>2019-07-14T08:08:15.000Z</time>
      </trkpt>
      <trkpt lat="43.20671" lon="2.3448">
        <ele>107.5</ele>
        <time>2019-07-14T08:08:16.000Z</time>
      </trkpt>
      <trkpt lat="43.20672" lon="2.34477">
        <ele>107.6</ele>
        <time>2019-07-14T08:08:17.000Z</time>
      </trkpt>
      <trkpt lat="43.20673" lon="2.34474">
        <ele>107.7</ele>
        <time>2019-07-14T08:08:18.000Z</time>
      </trkpt>
      <trkpt lat="43.20674" lon="2.34471">
        <ele>107.8</ele>
        <time>2019-07-14T08:08:19.000Z</time>
      </trkpt>
      <trkpt lat="43.20675" lon="2.34468">
        <ele>107.9</ele>
        <time>2019-07-14T08:08:20.000Z</time>
      </trkpt>
      <trkpt lat="43.20676" lon="2.34465">
        <ele>108</ele>
        <time>2019-07-14T08:08:21.000Z</time>
      </trkpt>
      <trkpt lat="43.20677" lon="2.34461">
        <ele>108.1</ele>
        <time>2019-07-14T08:08:22.000Z</time>
      </trkpt>
      <trkpt lat="43.20678" lon="2.34458">
        <ele>108.2</ele>
        <time>2019-07-14T08:08:23.000Z</time>
      </trkpt>
      <trkpt lat="43.20679" lon="2.34455">
        <ele>108.3</ele>
        <time>2019-07-14T08:08:24.000Z</time>
      </trkpt>
      <trkpt lat="43.2068" lon="2.34452">
        <ele>108.4</ele>
        <time>2019-07-14T08:08:25.000Z</time>
      </trkpt>
      <trkpt lat="43.2068" lon="2.34449">
        <ele>108.5</ele>
        <time>2019-07-14T08:08:26.000Z</time>
      </trkpt>
      <trkpt lat="43.20681" lon="2.34446">
        <ele>108.6</ele>
        <time>2019-07-14T08:08:27.000Z</time>
      </trkpt>
      <trkpt lat="43.20682" lon="2.34442">
        <ele>108.7</ele>
        <time>2019-07-14T08:08:28.000Z</time>
      </trkpt>
      <trkpt lat="43.20683" lon="2.34439">
        <ele>108.8</ele>
        <time>2019-07-14T08:08:29.000Z</time>
      </trkpt>
      <trkpt lat="43.20684" lon="2.34436">
        <ele>108.9</ele>
        <time>2019-07-14T08:08:30.000Z</time>
      </trkpt>
      <trkpt lat="43.20685" lon="2.34433">
        <ele>109</ele>
        <time>2019-07-14T08:08:31.000Z</time>
      </trkpt>
      <trkpt lat="43.20686" lon="2.3443">
        <ele>109.1</ele>
        <time>2019-07-14T08:08:32.000Z</time>
      </trkpt>
      <trkpt lat="43.20687" lon="2.34427">
        <ele>109.3</ele>
        <time>2019-07-14T08:08:33.000Z</time>
      </trkpt>
      <trkpt lat="43.20688" lon="2.34424">
        <ele>109.4</ele>
        <time>2019-07-14T08:08:34.000Z</time>
      </trkpt>
      <trkpt lat="43.20688" lon="2.34421">
        <ele>109.5</ele>
        <time>2019-07-14T08:08:35.000Z</time>
      </trkpt>
      <trkpt lat="43.20689" lon="2.34418">
        <ele>109.6</ele>
        <time>2019-07-14T08:08:36.000Z</time>
      </trkpt>
      <trkpt lat="43.2069" lon="2.34415">
        <ele>109.6</ele>
        <time>2019-07-14T08:08:37.000Z</time>
      </trkpt>
      <trkpt lat="43.20691" lon="2.34412">
        <ele>109.7</ele>
        <time>2019-07-14T08:08:38.000Z</time>
      </trkpt>
      <trkpt lat="43.20692" lon="2.34408">
        <ele>109.7</ele>
        <time>2019-07-14T08:08:39.000Z</time>
      </trkpt>
      <trkpt lat="43.20693" lon="2.34406">
        <ele>109.7</ele>
        <time>2019-07-14T08:08:40.000Z</time>
      </trkpt>
      <trkpt lat="43.20694" lon="2.34403">
        <ele>109.7</ele>
        <time>2019-07-14T08:08:41.000Z</time>
      </trkpt>
      <trkpt lat="43.20694" lon="2.344">
        <ele>109.7</ele>
        <time>2019-07-14T08:08:42.000Z</time>
      </trkpt>
      <trkpt lat="43.20695" lon="2.34397">
        <ele>109.6</ele>
        <time>2019-07-14T08:08:43.000Z</time>
      </trkpt>
      <trkpt lat="43.20696" lon="2.34394">
        <ele>109.6</ele>
        <time>2019-07-14T08:08:44.000Z</time>
      </trkpt>
      <trkpt lat="43.20697" lon="2.34391">
        <ele>109.6</ele>
        <time>2019-07-14T08:08:45.000Z</time>
      </trkpt>
      <trkpt lat="43.20698" lon="2.34388">
        <ele>109.6</ele>
        <time>2019-07-14T08:08:46.000Z</time>
      </trkpt>
      <trkpt lat="43.20698" lon="2.34385">
        <ele>109.6</ele>
        <time>2019-07-14T08:08:47.000Z</time>
      </trkpt>
      <trkpt lat="43.20699" lon="2.34382">
        <ele>109.6</ele>
        <time>2019-07-14T08:08:48.000Z</time>
      </trkpt>
      <trkpt lat="43.207" lon="2.34379">
        <ele>109.6</ele>
        <time>2019-07-14T08:08:49.000Z</time>
      </trkpt>
      <trkpt lat="43.207" lon="2.34377">
        <ele>109.6</ele>
        <time>2019-07-14T08:08:50.000Z</time>
      </trkpt>
      <trkpt lat="43.20701" lon="2.34374">
        <ele>109.5</ele>
        <time>2019-07-14T08:08:51.000Z</time>
      </trkpt>
      <trkpt lat="43.20702" lon="2.34371">
        <ele>109.5</ele>
        <time>2019-07-14T08:08:52.000Z</time>
      </trkpt>
      <trkpt lat="43.20703" lon="2.34368">
        <ele>109.5</ele>
        <time>2019-07-14T08:08:53.000Z</time>
      </trkpt>
      <trkpt lat="43.20703" lon="2.34366">
        <ele>109.5</ele>
        <time>2019-07-14T08:08:54.000Z</time>
      </trkpt>
      <trkpt lat="43.20704" lon="2.34363">
        <ele>109.5</ele>
        <time>2019-07-14T08:08:55.000Z</time>
      </trkpt>
      <trkpt lat="43.20705" lon="2.3436">
        <ele>109.5</ele>
        <time>2019-07-14T08:08:56.000Z</time>
      </trkpt>
      <trkpt lat="43.20706" lon="2.34358">
        <ele>109.4</ele>
        <time>2019-07-14T08:08:57.000Z</time>
      </trkpt>
      <trkpt lat="43.20707" lon="2.34355">
        <ele>109.4</ele>
        <time>2019-07-14T08:08:58.000Z</time>
      </trkpt>
      <trkpt lat="43.20707" lon="2.34352">
        <ele>109.4</ele>
        <time>2019-07-14T08:08:59.000Z</time>
      </trkpt>
      <trkpt lat="43.20708" lon="2.3435">
        <ele>109.4</ele>
        <time>2019-07-14T08:09:00.000Z</time>
      </trkpt>
      <trkpt lat="43.20709" lon="2.34347">
        <ele>109.4</ele>
        <time>2019-07-14T08:09:01.000Z</time>
      </trkpt>
      <trkpt lat="43.2071" lon="2.34344">
        <ele>109.3</ele>
        <time>2019-07-14T08:09:02.000Z</time>
      </trkpt>
      <trkpt lat="43.20711" lon="2.34341">
        <ele>109.3</ele>
        <time>2019-07-14T08:09:03.000Z</time>
      </trkpt>
      <trkpt lat="43.20712" lon="2.34338">
        <ele>109.3</ele>
        <time>2019-07-14T08:09:04.000Z</time>
      </trkpt>
      <trkpt lat="43.20712" lon="2.34335">
        <ele>109.2</ele>
        <time>2019-07-14T08:09:05.000Z</time>
      </trkpt>
      <trkpt lat="43.20713" lon="2.34332">
        <ele>109.2</ele>
        <time>2019-07-14T08:09:06.000Z</time>
      </trkpt>
      <trkpt lat="43.20714" lon="2.34329">
        <ele>109.2</ele>
        <time>2019-07-14T08:09:07.000Z</time>
      </trkpt>
      <trkpt lat="43.20715" lon="2.34326">
        <ele>109.3</ele>
        <time>2019-07-14T08:09:08.000Z</time>
      </trkpt>
      <trkpt lat="43.20715" lon="2.34323">
        <ele>109.3</ele>
        <time>2019-07-14T08:09:09.000Z</time>
      </trkpt>
      <trkpt lat="43.20716" lon="2.3432">
        <ele>109.3</ele>
        <time>2019-07-14T08:09:10.000Z</time>
      </trkpt>
      <trkpt lat="43.20717" lon="2.34316">
        <ele>109.3</ele>
        <time>2019-07-14T08:09:11.000Z</time>
      </trkpt>
      <trkpt lat="43.20718" lon="2.34313">
        <ele>109.3</ele>
        <time>2019-07-14T08:09:12.000Z</time>
      </trkpt>
      <trkpt lat="43.20718" lon="2.3431">
        <ele>109.3</ele>
        <time>2019-07-14T08:09:13.000Z</time>
      </trkpt>
      <trkpt lat="43.20719" lon="2.34307">
        <ele>109.3</ele>
        <time>2019-07-14T08:09:14.000Z</time>
      </trkpt>
      <trkpt lat="43.2072" lon="2.34303">
        <ele>109.3</ele>
        <time>2019-07-14T08:09:15.000Z</time>
      </trkpt>
      <trkpt lat="43.2072" lon="2.343">
        <ele>109.3</ele>
        <time>2019-07-14T08:09:16.000Z</time>
      </trkpt>
      <trkpt lat="43.20721" lon="2.34297">
        <ele>109.3</ele>
        <time>2019-07-14T08:09:17.000Z</time>
      </trkpt>
      <trkpt lat="43.20721" lon="2.34293">
        <ele>109.3</ele>
        <time>2019-07-14T08:09:18.000Z</time>
      </trkpt>
      <trkpt lat="43.20722" lon="2.3429">
        <ele>109.3</ele>
        <time>2019-07-14T08:09:19.000Z</time>
      </trkpt>
      <trkpt lat="43.20723" lon="2.34287">
        <ele>109.3</ele>
        <time>2019-07-14T08:09:20.000Z</time>
      </trkpt>
      <trkpt lat="43.20723" lon="2.34284">
        <ele>109.3</ele>
        <time>2019-07-14T08:09:21.000Z</time>
      </trkpt>
      <trkpt lat="43.20724" lon="2.3428">
        <ele>109.3</ele>
        <time>2019-07-14T08:09:22.000Z</time>
      </trkpt>
      <trkpt lat="43.20724" lon="2.34277">
        <ele>109.3</ele>
        <time>2019-07-14T08:09:23.000Z</time>
      </trkpt>
      <trkpt lat="43.20725" lon="2.34274">
        <ele>109.3</ele>
        <time>2019-07-14T08:09:24.000Z</time>
      </trkpt>
      <trkpt lat="43.20725" lon="2.3427">
        <ele>109.3</ele>
        <time>2019-07-14T08:09:25.000Z</time>
      </trkpt>
      <trkpt lat="43.20726" lon="2.34267">
        <ele>109.3</ele>
        <time>2019-07-14T08:09:26.000Z</time>
      </trkpt>
      <trkpt lat="43.20726" lon="2.34263">
        <ele>109.3</ele>
        <time>2019-07-14T08:09:27.000Z</time>
      </trkpt>
      <trkpt lat="43.20727" lon="2.3426">
        <ele>109.2</ele>
        <time>2019-07-14T08:09:28.000Z</time>
      </trkpt>
      <trkpt lat="43.20727" lon="2.34256">
        <ele>109.2</ele>
        <time>2019-07-14T08:09:29.000Z</time>
      </trkpt>
      <trkpt lat="43.20728" lon="2.34253">
        <ele>109.2</ele>
        <time>2019-07-14T08:09:30.000Z</time>
      </trkpt>
      <trkpt lat="43.20728" lon="2.34249">
        <ele>109.2</ele>
        <time>2019-07-14T08:09:31.000Z</time>
      </trkpt>
      <trkpt lat="43.20729" lon="2.34246">
        <ele>109.2</ele>
        <time>2019-07-14T08:09:32.000Z</time>
      </trkpt>
      <trkpt lat="43.2073" lon="2.34242">
        <ele>109.2</ele>
        <time>2019-07-14T08:09:33.000Z</time>
      </trkpt>
      <trkpt lat="43.2073" lon="2.34238">
        <ele>109.2</ele>
        <time>2019-07-14T08:09:34.000Z</time>
      </trkpt>
      <trkpt lat="43.20731" lon="2.34235">
        <ele>109.1</ele>
        <time>2019-07-14T08:09:35.000Z</time>
      </trkpt>
      <trkpt lat="43.20732" lon="2.34231">
        <ele>109.1</ele>
        <time>2019-07-14T08:09:36.000Z</time>
      </trkpt>
      <trkpt lat="43.20732" lon="2.34227">
        <ele>109.1</ele>
        <time>2019-07-14T08:09:37.000Z</time>
      </trkpt>
      <trkpt lat="43.20733" lon="2.34224">
        <ele>109.1</ele>
        <time>2019-07-14T08:09:38.000Z</time>
      </trkpt>
      <trkpt lat="43.20734" lon="2.3422">
        <ele>109.1</ele>
        <time>2019-07-14T08:09:39.000Z</time>
      </trkpt>
      <trkpt lat="43.20735" lon="2.34217">
        <ele>109.1</ele>
        <time>2019-07-14T08:09:40.000Z</time>
      </trkpt>
      <trkpt lat="43.20736" lon="2.34214">
        <ele>109.1</ele>
        <time>2019-07-14T08:09:41.000Z</time>
      </trkpt>
      <trkpt lat="43.20737" lon="2.34211">
        <ele>109</ele>
        <time>2019-07-14T08:09:42.000Z</time>
      </trkpt>
      <trkpt lat="43.20738" lon="2.34208">
        <ele>109</ele>
        <time>2019-07-14T08:09:43.000Z</time>
      </trkpt>
      <trkpt lat="43.20739" lon="2.34205">
        <ele>109</ele>
        <time>2019-07-14T08:09:44.000Z</time>
      </trkpt>
      <trkpt lat="43.2074" lon="2.34202">
        <ele>109</ele>
        <time>2019-07-14T08:09:45.000Z</time>
      </trkpt>
      <trkpt lat="43.20741" lon="2.34199">
        <ele>109</ele>
        <time>2019-07-14T08:09:46.000Z</time>
      </trkpt>
      <trkpt lat="43.20742" lon="2.34196">
        <ele>109</ele>
        <time>2019-07-14T08:09:47.000Z</time>
      </trkpt>
      <trkpt lat="43.20742" lon="2.34193">
        <ele>109</ele>
        <time>2019-07-14T08:09:48.000Z</time>
      </trkpt>
      <trkpt lat="43.20743" lon="2.3419">
        <ele>109</ele>
        <time>2019-07-14T08:09:49.000Z</time>
      </trkpt>
      <trkpt lat="43.20744" lon="2.34187">
        <ele>109</ele>
        <time>2019-07-14T08:09:50.000Z</time>
      </trkpt>
      <trkpt lat="43.20745" lon="2.34183">
        <ele>109</ele>
        <time>2019-07-14T08:09:51.000Z</time>
      </trkpt>
      <trkpt lat="43.20746" lon="2.3418">
        <ele>109</ele>
        <time>2019-07-14T08:09:52.000Z</time>
      </trkpt>
      <trkpt lat="43.20746" lon="2.34177">
        <ele>109</ele>
        <time>2019-07-14T08:09:53.000Z</time>
      </trkpt>
      <trkpt lat="43.20747" lon="2.34173">
        <ele>109</ele>
        <time>2019-07-14T08:09:54.000Z</time>
      </trkpt>
      <trkpt lat="43.20748" lon="2.34169">
        <ele>109</ele>
        <time>2019-07-14T08:09:55.000Z</time>
      </trkpt>
      <trkpt lat="43.20749" lon="2.34166">
        <ele>108.9</ele>
        <time>2019-07-14T08:09:56.000Z</time>
      </trkpt>
      <trkpt lat="43.20749" lon="2.34162">
        <ele>108.9</ele>
        <time>2019-07-14T08:09:57.000Z</time>
      </trkpt>
      <trkpt lat="43.2075" lon="2.34158">
        <ele>108.9</ele>
        <time>2019-07-14T08:09:58.000Z</time>
      </trkpt>
      <trkpt lat="43.2075" lon="2.34155">
        <ele>108.9</ele>
        <time>2019-07-14T08:09:59.000Z</time>
      </trkpt>
      <trkpt lat="43.20751" lon="2.34151">
        <ele>108.8</ele>
        <time>2019-07-14T08:10:00.000Z</time>
      </trkpt>
      <trkpt lat="43.20752" lon="2.34148">
        <ele>108.8</ele>
        <time>2019-07-14T08:10:01.000Z</time>
      </trkpt>
      <trkpt lat="43.20752" lon="2.34144">
        <ele>108.8</ele>
        <time>2019-07-14T08:10:02.000Z</time>
      </trkpt>
      <trkpt lat="43.20753" lon="2.34141">
        <ele>108.7</ele>
        <time>2019-07-14T08:10:03.000Z</time>
      </trkpt>
      <trkpt lat="43.20754" lon="2.34137">
        <ele>108.7</ele>
        <time>2019-07-14T08:10:04.000Z</time>
      </trkpt>
      <trkpt lat="43.20755" lon="2.34134">
        <ele>108.7</ele>
        <time>2019-07-14T08:10:05.000Z</time>
      </trkpt>
      <trkpt lat="43.20755" lon="2.34131">
        <ele>108.7</ele>
        <time>2019-07-14T08:10:06.000Z</time>
      </trkpt>
      <trkpt lat="43.20756" lon="2.34128">
        <ele>108.6</ele>
        <time>2019-07-14T08:10:07.000Z</time>
      </trkpt>
      <trkpt lat="43.20757" lon="2.34124">
        <ele>108.6</ele>
        <time>2019-07-14T08:10:08.000Z</time>
      </trkpt>
      <trkpt lat="43.20758" lon="2.34121">
        <ele>108.6</ele>
        <time>2019-07-14T08:10:09.000Z</time>
      </trkpt>
      <trkpt lat="43.20758" lon="2.34118">
        <ele>108.6</ele>
        <time>2019-07-14T08:10:10.000Z</time>
      </trkpt>
      <trkpt lat="43.20759" lon="2.34115">
        <ele>108.5</ele>
        <time>2019-07-14T08:10:11.000Z</time>
      </trkpt>
      <trkpt lat="43.20759" lon="2.34111">
        <ele>108.5</ele>
        <time>2019-07-14T08:10:12.000Z</time>
      </trkpt>
      <trkpt lat="43.20759" lon="2.34108">
        <ele>108.5</ele>
        <time>2019-07-14T08:10:13.000Z</time>
      </trkpt>
      <trkpt lat="43.2076" lon="2.34104">
        <ele>108.4</ele>
        <time>2019-07-14T08:10:14.000Z</time>
      </trkpt>
      <trkpt lat="43.2076" lon="2.341">
        <ele>108.4</ele>
        <time>2019-07-14T08:10:15.000Z</time>
      </trkpt>
      <trkpt lat="43.2076" lon="2.34096">
        <ele>108.4</ele>
        <time>2019-07-14T08:10:16.000Z</time>
      </trkpt>
      <trkpt lat="43.2076" lon="2.34093">
        <ele>108.3</ele>
        <time>2019-07-14T08:10:17.000Z</time>
      </trkpt>
      <trkpt lat="43.2076" lon="2.34089">
        <ele>108.3</ele>
        <time>2019-07-14T08:10:18.000Z</time>
      </trkpt>
      <trkpt lat="43.2076" lon="2.34085">
        <ele>108.3</ele>
        <time>2019-07-14T08:10:19.000Z</time>
      </trkpt>
      <trkpt lat="43.20761" lon="2.34082">
        <ele>108.3</ele>
        <time>2019-07-14T08:10:20.000Z</time>
      </trkpt>
      <trkpt lat="43.20761" lon="2.34078">
        <ele>108.3</ele>
        <time>2019-07-14T08:10:21.000Z</time>
      </trkpt>
      <trkpt lat="43.20762" lon="2.34075">
        <ele>108.4</ele>
        <time>2019-07-14T08:10:22.000Z</time>
      </trkpt>
      <trkpt lat="43.20762" lon="2.34072">
        <ele>108.4</ele>
        <time>2019-07-14T08:10:23.000Z</time>
      </trkpt>
      <trkpt lat="43.20763" lon="2.34069">
        <ele>108.5</ele>
        <time>2019-07-14T08:10:24.000Z</time>
      </trkpt>
      <trkpt lat="43.20764" lon="2.34066">
        <ele>108.5</ele>
        <time>2019-07-14T08:10:25.000Z</time>
      </trkpt>
      <trkpt lat="43.20764" lon="2.34063">
        <ele>108.6</ele>
        <time>2019-07-14T08:10:26.000Z</time>
      </trkpt>
      <trkpt lat="43.20765" lon="2.3406">
        <ele>108.6</ele>
        <time>2019-07-14T08:10:27.000Z</time>
      </trkpt>
      <trkpt lat="43.20766" lon="2.34058">
        <ele>108.7</ele>
        <time>2019-07-14T08:10:28.000Z</time>
      </trkpt>
      <trkpt lat="43.20767" lon="2.34055">
        <ele>108.8</ele>
        <time>2019-07-14T08:10:29.000Z</time>
      </trkpt>
      <trkpt lat="43.20768" lon="2.34052">
        <ele>108.8</ele>
        <time>2019-07-14T08:10:30.000Z</time>
      </trkpt>
      <trkpt lat="43.20769" lon="2.3405">
        <ele>108.9</ele>
        <time>2019-07-14T08:10:31.000Z</time>
      </trkpt>
      <trkpt lat="43.2077" lon="2.34047">
        <ele>108.9</ele>
        <time>2019-07-14T08:10:32.000Z</time>
      </trkpt>
      <trkpt lat="43.20771" lon="2.34044">
        <ele>109</ele>
        <time>2019-07-14T08:10:33.000Z</time>
      </trkpt>
      <trkpt lat="43.20772" lon="2.34042">
        <ele>109</ele>
        <time>2019-07-14T08:10:34.000Z</time>
      </trkpt>
      <trkpt lat="43.20772" lon="2.34039">
        <ele>109.1</ele>
        <time>2019-07-14T08:10:35.000Z</time>
      </trkpt>
      <trkpt lat="43.20773" lon="2.34038">
        <ele>109.1</ele>
        <time>2019-07-14T08:10:36.000Z</time>
      </trkpt>
      <trkpt lat="43.20773" lon="2.34037">
        <ele>109.1</ele>
        <time>2019-07-14T08:10:37.000Z</time>
      </trkpt>
      <trkpt lat="43.20773" lon="2.34036">
        <ele>109.1</ele>
        <time>2019-07-14T08:10:38.000Z</time>
      </trkpt>
      <trkpt lat="43.20773" lon="2.34036">
        <ele>109.1</ele>
        <time>2019-07-14T08:10:39.000Z</time>
      </trkpt>
      <trkpt lat="43.20773" lon="2.34037">
        <ele>109.1</ele>
        <time>2019-07-14T08:10:40.000Z</time>
      </trkpt>
      <trkpt lat="43.20772" lon="2.34038">
        <ele>109.1</ele>
        <time>2019-07-14T08:10:41.000Z</time>
      </trkpt>
      <trkpt lat="43.20772" lon="2.34039">
        <ele>109.1</ele>
        <time>2019-07-14T08:10:42.000Z</time>
      </trkpt>
      <trkpt lat="43.20772" lon="2.34039">
        <ele>109.1</ele>
        <time>2019-07-14T08:10:43.000Z</time>
      </trkpt>
      <trkpt lat="43.20772" lon="2.3404">
        <ele>109</ele>
        <time>2019-07-14T08:10:44.000Z</time>
      </trkpt>
      <trkpt lat="43.20772" lon="2.34041">
        <ele>109</ele>
        <time>2019-07-14T08:10:45.000Z</time>
      </trkpt>
      <trkpt lat="43.20771" lon="2.34041">
        <ele>109</ele>
        <time>2019-07-14T08:10:46.000Z</time>
      </trkpt>
      <trkpt lat="43.20771" lon="2.34041">
        <ele>109</ele>
        <time>2019-07-14T08:10:47.000Z</time>
      </trkpt>
      <trkpt lat="43.20771" lon="2.34042">
        <ele>109</ele>
        <time>2019-07-14T08:10:48.000Z</time>
      </trkpt>
      <trkpt lat="43.20771" lon="2.34042">
        <ele>109</ele>
        <time>2019-07-14T08:10:49.000Z</time>
      </trkpt>
      <trkpt lat="43.20771" lon="2.34042">
        <ele>109</ele>
        <time>2019-07-14T08:10:50.000Z</time>
      </trkpt>
      <trkpt lat="43.20771" lon="2.34042">
        <ele>109</ele>
        <time>2019-07-14T08:10:51.000Z</time>
      </trkpt>
      <trkpt lat="43.20771" lon="2.34042">
        <ele>109</ele>
        <time>2019-07-14T08:10:52.000Z</time>
      </trkpt>
      <trkpt lat="43.20771" lon="2.34042">
        <ele>109</ele>
        <time>2019-07-14T08:10:53.000Z</time>
      </trkpt>
      <trkpt lat="43.20771" lon="2.34042">
        <ele>109</ele>
        <time>2019-07-14T08:10:54.000Z</time>
      </trkpt>
      <trkpt lat="43.20771" lon="2.34042">
        <ele>109</ele>
        <time>2019-07-14T08:10:55.000Z</time>
      </trkpt>
      <trkpt lat="43.20771" lon="2.34042">
        <ele>109</ele>
        <time>2019-07-14T08:10:56.000Z</time>
      </trkpt>
      <trkpt lat="43.20771" lon="2.34041">
        <ele>109</ele>
        <time>2019-07-14T08:10:57.000Z</time>
      </trkpt>
      <trkpt lat="43.20771" lon="2.34041">
        <ele>109</ele>
        <time>2019-07-14T08:10:58.000Z</time>
      </trkpt>
      <trkpt lat="43.20771" lon="2.34041">
        <ele>109</ele>
        <time>2019-07-14T08:10:59.000Z</time>
      </trkpt>
      <trkpt lat="43.20771" lon="2.3404">
        <ele>109</ele>
        <time>2019-07-14T08:11:00.000Z</time>
      </trkpt>
      <trkpt lat="43.20771" lon="2.34039">
        <ele>109</ele>
        <time>2019-07-14T08:11:01.000Z</time>
      </trkpt>
      <trkpt lat="43.2077" lon="2.34038">
        <ele>109</ele>
        <time>2019-07-14T08:11:02.000Z</time>
      </trkpt>
      <trkpt lat="43.2077" lon="2.34037">
        <ele>109</ele>
        <time>2019-07-14T08:11:03.000Z</time>
      </trkpt>
      <trkpt lat="43.2077" lon="2.34036">
        <ele>109</ele>
        <time>2019-07-14T08:11:04.000Z</time>
      </trkpt>
      <trkpt lat="43.2077" lon="2.34035">
        <ele>109.1</ele>
        <time>2019-07-14T08:11:05.000Z</time>
      </trkpt>
      <trkpt lat="43.2077" lon="2.34034">
        <ele>109.1</ele>
        <time>2019-07-14T08:11:06.000Z</time>
      </trkpt>
      <trkpt lat="43.2077" lon="2.34033">
        <ele>109.1</ele>
        <time>2019-07-14T08:11:07.000Z</time>
      </trkpt>
      <trkpt lat="43.2077" lon="2.34031">
        <ele>109.1</ele>
        <time>2019-07-14T08:11:08.000Z</time>
      </trkpt>
      <trkpt lat="43.2077" lon="2.3403">
        <ele>109.1</ele>
        <time>2019-07-14T08:11:09.000Z</time>
      </trkpt>
      <trkpt lat="43.2077" lon="2.34029">
        <ele>109.1</ele>
        <time>2019-07-14T08:11:10.000Z</time>
      </trkpt>
      <trkpt lat="43.20769" lon="2.34027">
        <ele>109.1</ele>
        <time>2019-07-14T08:11:11.000Z</time>
      </trkpt>
      <trkpt lat="43.20769" lon="2.34026">
        <ele>109.2</ele>
        <time>2019-07-14T08:11:12.000Z</time>
      </trkpt>
      <trkpt lat="43.20769" lon="2.34025">
        <ele>109.2</ele>
        <time>2019-07-14T08:11:13.000Z</time>
      </trkpt>
      <trkpt lat="43.20769" lon="2.34023">
        <ele>109.2</ele>
        <time>2019-07-14T08:11:14.000Z</time>
      </trkpt>
      <trkpt lat="43.20769" lon="2.34022">
        <ele>109.2</ele>
        <time>2019-07-14T08:11:15.000Z</time>
      </trkpt>
      <trkpt lat="43.20769" lon="2.3402">
        <ele>109.2</ele>
        <time>2019-07-14T08:11:16.000Z</time>
      </trkpt>
      <trkpt lat="43.20769" lon="2.34019">
        <ele>109.2</ele>
        <time>2019-07-14T08:11:17.000Z</time>
      </trkpt>
      <trkpt lat="43.20769" lon="2.34018">
        <ele>109.3</ele>
        <time>2019-07-14T08:11:18.000Z</time>
      </trkpt>
      <trkpt lat="43.20769" lon="2.34016">
        <ele>109.3</ele>
        <time>2019-07-14T08:11:19.000Z</time>
      </trkpt>
      <trkpt lat="43.20769" lon="2.34015">
        <ele>109.3</ele>
        <time>2019-07-14T08:11:20.000Z</time>
      </trkpt>
      <trkpt lat="43.20769" lon="2.34013">
        <ele>109.3</ele>
        <time>2019-07-14T08:11:21.000Z</time>
      </trkpt>
      <trkpt lat="43.20769" lon="2.34011">
        <ele>109.3</ele>
        <time>2019-07-14T08:11:22.000Z</time>
      </trkpt>
      <trkpt lat="43.20769" lon="2.3401">
        <ele>109.3</ele>
        <time>2019-07-14T08:11:23.000Z</time>
      </trkpt>
      <trkpt lat="43.20768" lon="2.34008">
        <ele>109.3</ele>
        <time>2019-07-14T08:11:24.000Z</time>
      </trkpt>
      <trkpt lat="43.20768" lon="2.34007">
        <ele>109.4</ele>
        <time>2019-07-14T08:11:25.000Z</time>
      </trkpt>
      <trkpt lat="43.20768" lon="2.34005">
        <ele>109.4</ele>
        <time>2019-07-14T08:11:26.000Z</time>
      </trkpt>
      <trkpt lat="43.20768" lon="2.34003">
        <ele>109.4</ele>
        <time>2019-07-14T08:11:27.000Z</time>
      </trkpt>
      <trkpt lat="43.20767" lon="2.34002">
        <ele>109.4</ele>
        <time>2019-07-14T08:11:28.000Z</time>
      </trkpt>
      <trkpt lat="43.20767" lon="2.34">
        <ele>109.4</ele>
        <time>2019-07-14T08:11:29.000Z</time>
      </trkpt>
      <trkpt lat="43.20767" lon="2.33998">
        <ele>109.4</ele>
        <time>2019-07-14T08:11:30.000Z</time>
      </trkpt>
      <trkpt lat="43.20767" lon="2.33997">
        <ele>109.4</ele>
        <time>2019-07-14T08:11:31.000Z</time>
      </trkpt>
      <trkpt lat="43.20766" lon="2.33995">
        <ele>109.4</ele>
        <time>2019-07-14T08:11:32.000Z</time>
      </trkpt>
      <trkpt lat="43.20766" lon="2.33993">
        <ele>109.4</ele>
        <time>2019-07-14T08:11:33.000Z</time>
      </trkpt>
      <trkpt lat="43.20766" lon="2.33991">
        <ele>109.4</ele>
        <time>2019-07-14T08:11:34.000Z</time>
      </trkpt>
      <trkpt lat="43.20765" lon="2.33989">
        <ele>109.5</ele>
        <time>2019-07-14T08:11:35.000Z</time>
      </trkpt>
      <trkpt lat="43.20765" lon="2.33987">
        <ele>109.5</ele>
        <time>2019-07-14T08:11:36.000Z</time>
      </trkpt>
      <trkpt lat="43.20765" lon="2.33985">
        <ele>109.5</ele>
        <time>2019-07-14T08:11:37.000Z</time>
      </trkpt>
      <trkpt lat="43.20765" lon="2.33984">
        <ele>109.5</ele>
        <time>2019-07-14T08:11:38.000Z</time>
      </trkpt>
      <trkpt lat="43.20764" lon="2.33982">
        <ele>109.5</ele>
        <time>2019-07-14T08:11:39.000Z</time>
      </trkpt>
      <trkpt lat="43.20764" lon="2.3398">
        <ele>109.5</ele>
        <time>2019-07-14T08:11:40.000Z</time>
      </trkpt>
      <trkpt lat="43.20764" lon="2.33978">
        <ele>109.5</ele>
        <time>2019-07-14T08:11:41.000Z</time>
      </trkpt>
      <trkpt lat="43.20764" lon="2.33976">
        <ele>109.5</ele>
        <time>2019-07-14T08:11:42.000Z</time>
      </trkpt>
      <trkpt lat="43.20764" lon="2.33974">
        <ele>109.5</ele>
        <time>2019-07-14T08:11:43.000Z</time>
      </trkpt>
      <trkpt lat="43.20764" lon="2.33972">
        <ele>109.6</ele>
        <time>2019-07-14T08:11:44.000Z</time>
      </trkpt>
      <trkpt lat="43.20764" lon="2.3397">
        <ele>109.6</ele>
        <time>2019-07-14T08:11:45.000Z</time>
      </trkpt>
      <trkpt lat="43.20764" lon="2.33968">
        <ele>109.6</ele>
        <time>2019-07-14T08:11:46.000Z</time>
      </trkpt>
      <trkpt lat="43.20763" lon="2.33966">
        <ele>109.6</ele>
        <time>2019-07-14T08:11:47.000Z</time>
      </trkpt>
      <trkpt lat="43.20763" lon="2.33964">
        <ele>109.6</ele>
        <time>2019-07-14T08:11:48.000Z</time>
      </trkpt>
      <trkpt lat="43.20763" lon="2.33962">
        <ele>109.6</ele>
        <time>2019-07-14T08:11:49.000Z</time>
      </trkpt>
      <trkpt lat="43.20763" lon="2.3396">
        <ele>109.6</ele>
        <time>2019-07-14T08:11:50.000Z</time>
      </trkpt>
      <trkpt lat="43.20763" lon="2.33958">
        <ele>109.7</ele>
        <time>2019-07-14T08:11:51.000Z</time>
      </trkpt>
      <trkpt lat="43.20763" lon="2.33956">
        <ele>109.7</ele>
        <time>2019-07-14T08:11:52.000Z</time>
      </trkpt>
      <trkpt lat="43.20763" lon="2.33955">
        <ele>109.7</ele>
        <time>2019-07-14T08:11:53.000Z</time>
      </trkpt>
      <trkpt lat="43.20763" lon="2.33953">
        <ele>109.7</ele>
        <time>2019-07-14T08:11:54.000Z</time>
      </trkpt>
      <trkpt lat="43.20763" lon="2.33951">
        <ele>109.7</ele>
        <time>2019-07-14T08:11:55.000Z</time>
      </trkpt>
      <trkpt lat="43.20763" lon="2.3395">
        <ele>109.7</ele>
        <time>2019-07-14T08:11:56.000Z</time>
      </trkpt>
      <trkpt lat="43.20762" lon="2.33948">
        <ele>109.7</ele>
        <time>2019-07-14T08:11:57.000Z</time>
      </trkpt>
      <trkpt lat="43.20762" lon="2.33947">
        <ele>109.7</ele>
        <time>2019-07-14T08:11:58.000Z</time>
      </trkpt>
      <trkpt lat="43.20762" lon="2.33945">
        <ele>109.8</ele>
        <time>2019-07-14T08:11:59.000Z</time>
      </trkpt>
      <trkpt lat="43.20762" lon="2.33944">
        <ele>109.8</ele>
        <time>2019-07-14T08:12:00.000Z</time>
      </trkpt>
      <trkpt lat="43.20762" lon="2.33942">
        <ele>109.8</ele>
        <time>2019-07-14T08:12:01.000Z</time>
      </trkpt>
      <trkpt lat="43.20762" lon="2.33941">
        <ele>109.8</ele>
        <time>2019-07-14T08:12:02.000Z</time>
      </trkpt>
      <trkpt lat="43.20762" lon="2.3394">
        <ele>109.8</ele>
        <time>2019-07-14T08:12:03.000Z</time>
      </trkpt>
      <trkpt lat="43.20762" lon="2.33938">
        <ele>109.8</ele>
        <time>2019-07-14T08:12:04.000Z</time>
      </trkpt>
      <trkpt lat="43.20762" lon="2.33937">
        <ele>109.8</ele>
        <time>2019-07-14T08:12:05.000Z</time>
      </trkpt>
      <trkpt lat="43.20762" lon="2.33936">
        <ele>109.8</ele>
        <time>2019-07-14T08:12:06.000Z</time>
      </trkpt>
      <trkpt lat="43.20762" lon="2.33934">
        <ele>109.8</ele>
        <time>2019-07-14T08:12:07.000Z</time>
      </trkpt>
      <trkpt lat="43.20762" lon="2.33933">
        <ele>109.9</ele>
        <time>2019-07-14T08:12:08.000Z</time>
      </trkpt>
      <trkpt lat="43.20762" lon="2.33931">
        <ele>109.9</ele>
        <time>2019-07-14T08:12:09.000Z</time>
      </trkpt>
      <trkpt lat="43.20762" lon="2.3393">
        <ele>109.9</ele>
        <time>2019-07-14T08:12:10.000Z</time>
      </trkpt>
      <trkpt lat="43.20762" lon="2.33928">
        <ele>109.9</ele>
        <time>2019-07-14T08:12:11.000Z</time>
      </trkpt>
      <trkpt lat="43.20762" lon="2.33926">
        <ele>109.9</ele>
        <time>2019-07-14T08:12:12.000Z</time>
      </trkpt>
      <trkpt lat="43.20762" lon="2.33924">
        <ele>109.9</ele>
        <time>2019-07-14T08:12:13.000Z</time>
      </trkpt>
      <trkpt lat="43.20762" lon="2.33922">
        <ele>110</ele>
        <time>2019-07-14T08:12:14.000Z</time>
      </trkpt>
      <trkpt lat="43.20762" lon="2.3392">
        <ele>110</ele>
        <time>2019-07-14T08:12:15.000Z</time>
      </trkpt>
      <trkpt lat="43.20762" lon="2.33918">
        <ele>110</ele>
        <time>2019-07-14T08:12:16.000Z</time>
      </trkpt>
      <trkpt lat="43.20761" lon="2.33916">
        <ele>110</ele>
        <time>2019-07-14T08:12:17.000Z</time>
      </trkpt>
      <trkpt lat="43.20761" lon="2.33914">
        <ele>110</ele>
        <time>2019-07-14T08:12:18.000Z</time>
      </trkpt>
      <trkpt lat="43.20761" lon="2.33912">
        <ele>110</ele>
        <time>2019-07-14T08:12:19.000Z</time>
      </trkpt>
      <trkpt lat="43.20761" lon="2.33911">
        <ele>110</ele>
        <time>2019-07-14T08:12:20.000Z</time>
      </trkpt>
      <trkpt lat="43.2076" lon="2.33909">
        <ele>110</ele>
        <time>2019-07-14T08:12:21.000Z</time>
      </trkpt>
      <trkpt lat="43.2076" lon="2.33907">
        <ele>110</ele>
        <time>2019-07-14T08:12:22.000Z</time>
      </trkpt>
      <trkpt lat="43.2076" lon="2.33905">
        <ele>110</ele>
        <time>2019-07-14T08:12:23.000Z</time>
      </trkpt>
      <trkpt lat="43.20759" lon="2.33904">
        <ele>110</ele>
        <time>2019-07-14T08:12:24.000Z</time>
      </trkpt>
      <trkpt lat="43.20759" lon="2.33902">
        <ele>110</ele>
        <time>2019-07-14T08:12:25.000Z</time>
      </trkpt>
      <trkpt lat="43.20759" lon="2.339">
        <ele>110</ele>
        <time>2019-07-14T08:12:26.000Z</time>
      </trkpt>
      <trkpt lat="43.20759" lon="2.33898">
        <ele>110</ele>
        <time>2019-07-14T08:12:27.000Z</time>
      </trkpt>
      <trkpt lat="43.20758" lon="2.33896">
        <ele>110</ele>
        <time>2019-07-14T08:12:28.000Z</time>
      </trkpt>
      <trkpt lat="43.20758" lon="2.33895">
        <ele>110</ele>
        <time>2019-07-14T08:12:29.000Z</time>
      </trkpt>
      <trkpt lat="43.20758" lon="2.33893">
        <ele>110</ele>
        <time>2019-07-14T08:12:30.000Z</time>
      </trkpt>
      <trkpt lat="43.20758" lon="2.33891">
        <ele>110</ele>
        <time>2019-07-14T08:12:31.000Z</time>
      </trkpt>
      <trkpt lat="43.20757" lon="2.33889">
        <ele>110</ele>
        <time>2019-07-14T08:12:32.000Z</time>
      </trkpt>
      <trkpt lat="43.20757" lon="2.33887">
        <ele>110</ele>
        <time>2019-07-14T08:12:33.000Z</time>
      </trkpt>
      <trkpt lat="43.20756" lon="2.33885">
        <ele>110</ele>
        <time>2019-07-14T08:12:34.000Z</time>
      </trkpt>
      <trkpt lat="43.20756" lon="2.33883">
        <ele>110</ele>
        <time>2019-07-14T08:12:35.000Z</time>
      </trkpt>
      <trkpt lat="43.20756" lon="2.33882">
        <ele>110</ele>
        <time>2019-07-14T08:12:36.000Z</time>
      </trkpt>
      <trkpt lat="43.20755" lon="2.3388">
        <ele>110</ele>
        <time>2019-07-14T08:12:37.000Z</time>
      </trkpt>
      <trkpt lat="43.20755" lon="2.33878">
        <ele>110</ele>
        <time>2019-07-14T08:12:38.000Z</time>
      </trkpt>
      <trkpt lat="43.20754" lon="2.33876">
        <ele>110</ele>
        <time>2019-07-14T08:12:39.000Z</time>
      </trkpt>
      <trkpt lat="43.20754" lon="2.33873">
        <ele>110</ele>
        <time>2019-07-14T08:12:40.000Z</time>
      </trkpt>
      <trkpt lat="43.20753" lon="2.33871">
        <ele>110</ele>
        <time>2019-07-14T08:12:41.000Z</time>
      </trkpt>
      <trkpt lat="43.20753" lon="2.33868">
        <ele>110</ele>
        <time>2019-07-14T08:12:42.000Z</time>
      </trkpt>
      <trkpt lat="43.20752" lon="2.33866">
        <ele>110</ele>
        <time>2019-07-14T08:12:43.000Z</time>
      </trkpt>
      <trkpt lat="43.20752" lon="2.33863">
        <ele>110</ele>
        <time>2019-07-14T08:12:44.000Z</time>
      </trkpt>
      <trkpt lat="43.20751" lon="2.3386">
        <ele>110</ele>
        <time>2019-07-14T08:12:45.000Z</time>
      </trkpt>
      <trkpt lat="43.20751" lon="2.33857">
        <ele>110</ele>
        <time>2019-07-14T08:12:46.000Z</time>
      </trkpt>
      <trkpt lat="43.2075" lon="2.33854">
        <ele>110</ele>
        <time>2019-07-14T08:12:47.000Z</time>
      </trkpt>
      <trkpt lat="43.20749" lon="2.33851">
        <ele>110</ele>
        <time>2019-07-14T08:12:48.000Z</time>
      </trkpt>
      <trkpt lat="43.20749" lon="2.33848">
        <ele>110</ele>
        <time>2019-07-14T08:12:49.000Z</time>
      </trkpt>
      <trkpt lat="43.20748" lon="2.33844">
        <ele>110</ele>
        <time>2019-07-14T08:12:50.000Z</time>
      </trkpt>
      <trkpt lat="43.20748" lon="2.33841">
        <ele>110.1</ele>
        <time>2019-07-14T08:12:51.000Z</time>
      </trkpt>
      <trkpt lat="43.20747" lon="2.33838">
        <ele>110.1</ele>
        <time>2019-07-14T08:12:52.000Z</time>
      </trkpt>
      <trkpt lat="43.20746" lon="2.33835">
        <ele>110.1</ele>
        <time>2019-07-14T08:12:53.000Z</time>
      </trkpt>
      <trkpt lat="43.20746" lon="2.33831">
        <ele>110.1</ele>
        <time>2019-07-14T08:12:54.000Z</time>
      </trkpt>
      <trkpt lat="43.20745" lon="2.33828">
        <ele>110.1</ele>
        <time>2019-07-14T08:12:55.000Z</time>
      </trkpt>
      <trkpt lat="43.20744" lon="2.33825">
        <ele>110.1</ele>
        <time>2019-07-14T08:12:56.000Z</time>
      </trkpt>
      <trkpt lat="43.20743" lon="2.33822">
        <ele>110.2</ele>
        <time>2019-07-14T08:12:57.000Z</time>
      </trkpt>
      <trkpt lat="43.20742" lon="2.33819">
        <ele>110.2</ele>
        <time>2019-07-14T08:12:58.000Z</time>
      </trkpt>
      <trkpt lat="43.20741" lon="2.33817">
        <ele>110.2</ele>
        <time>2019-07-14T08:12:59.000Z</time>
      </trkpt>
      <trkpt lat="43.2074" lon="2.33814">
        <ele>110.2</ele>
        <time>2019-07-14T08:13:00.000Z</time>
      </trkpt>
      <trkpt lat="43.20739" lon="2.33811">
        <ele>110.3</ele>
        <time>2019-07-14T08:13:01.000Z</time>
      </trkpt>
      <trkpt lat="43.20738" lon="2.33809">
        <ele>110.3</ele>
        <time>2019-07-14T08:13:02.000Z</time>
      </trkpt>
      <trkpt lat="43.20737" lon="2.33806">
        <ele>110.3</ele>
        <time>2019-07-14T08:13:03.000Z</time>
      </trkpt>
      <trkpt lat="43.20736" lon="2.33804">
        <ele>110.3</ele>
        <time>2019-07-14T08:13:04.000Z</time>
      </trkpt>
      <trkpt lat="43.20734" lon="2.33801">
        <ele>110.4</ele>
        <time>2019-07-14T08:13:05.000Z</time>
      </trkpt>
      <trkpt lat="43.20733" lon="2.33799">
        <ele>110.4</ele>
        <time>2019-07-14T08:13:06.000Z</time>
      </trkpt>
      <trkpt lat="43.20732" lon="2.33797">
        <ele>110.4</ele>
        <time>2019-07-14T08:13:07.000Z</time>
      </trkpt>
      <trkpt lat="43.20731" lon="2.33794">
        <ele>110.5</ele>
        <time>2019-07-14T08:13:08.000Z</time>
      </trkpt>
      <trkpt lat="43.20729" lon="2.33792">
        <ele>110.5</ele>
        <time>2019-07-14T08:13:09.000Z</time>
      </trkpt>
      <trkpt lat="43.20728" lon="2.33789">
        <ele>110.5</ele>
        <time>2019-07-14T08:13:10.000Z</time>
      </trkpt>
      <trkpt lat="43.20727" lon="2.33787">
        <ele>110.6</ele>
        <time>2019-07-14T08:13:11.000Z</time>
      </trkpt>
      <trkpt lat="43.20725" lon="2.33784">
        <ele>110.6</ele>
        <time>2019-07-14T08:13:12.000Z</time>
      </trkpt>
      <trkpt lat="43.20724" lon="2.33781">
        <ele>110.6</ele>
        <time>2019-07-14T08:13:13.000Z</time>
      </trkpt>
      <trkpt lat="43.20722" lon="2.33779">
        <ele>110.7</ele>
        <time>2019-07-14T08:13:14.000Z</time>
      </trkpt>
      <trkpt lat="43.20721" lon="2.33776">
        <ele>110.7</ele>
        <time>2019-07-14T08:13:15.000Z</time>
      </trkpt>
      <trkpt lat="43.20719" lon="2.33773">
        <ele>110.7</ele>
        <time>2019-07-14T08:13:16.000Z</time>
      </trkpt>
      <trkpt lat="43.20718" lon="2.3377">
        <ele>110.8</ele>
        <time>2019-07-14T08:13:17.000Z</time>
      </trkpt>
      <trkpt lat="43.20716" lon="2.33766">
        <ele>110.8</ele>
        <time>2019-07-14T08:13:18.000Z</time>
      </trkpt>
      <trkpt lat="43.20715" lon="2.33763">
        <ele>110.8</ele>
        <time>2019-07-14T08:13:19.000Z</time>
      </trkpt>
      <trkpt lat="43.20714" lon="2.3376">
        <ele>110.9</ele>
        <time>2019-07-14T08:13:20.000Z</time>
      </trkpt>
      <trkpt lat="43.20712" lon="2.33757">
        <ele>110.9</ele>
        <time>2019-07-14T08:13:21.000Z</time>
      </trkpt>
      <trkpt lat="43.20711" lon="2.33754">
        <ele>110.9</ele>
        <time>2019-07-14T08:13:22.000Z</time>
      </trkpt>
      <trkpt lat="43.20709" lon="2.33751">
        <ele>111</ele>
        <time>2019-07-14T08:13:23.000Z</time>
      </trkpt>
      <trkpt lat="43.20708" lon="2.33748">
        <ele>111</ele>
        <time>2019-07-14T08:13:24.000Z</time>
      </trkpt>
      <trkpt lat="43.20707" lon="2.33745">
        <ele>111</ele>
        <time>2019-07-14T08:13:25.000Z</time>
      </trkpt>
      <trkpt lat="43.20705" lon="2.33742">
        <ele>111</ele>
        <time>2019-07-14T08:13:26.000Z</time>
      </trkpt>
      <trkpt lat="43.20704" lon="2.33739">
        <ele>111</ele>
        <time>2019-07-14T08:13:27.000Z</time>
      </trkpt>
      <trkpt lat="43.20703" lon="2.33736">
        <ele>111</ele>
        <time>2019-07-14T08:13:28.000Z</time>
      </trkpt>
      <trkpt lat="43.20701" lon="2.33734">
        <ele>110.9</ele>
        <time>2019-07-14T08:13:29.000Z</time>
      </trkpt>
      <trkpt lat="43.207" lon="2.33731">
        <ele>110.9</ele>
        <time>2019-07-14T08:13:30.000Z</time>
      </trkpt>
      <trkpt lat="43.20699" lon="2.33729">
        <ele>110.9</ele>
        <time>2019-07-14T08:13:31.000Z</time>
      </trkpt>
      <trkpt lat="43.20697" lon="2.33726">
        <ele>110.9</ele>
        <time>2019-07-14T08:13:32.000Z</time>
      </trkpt>
      <trkpt lat="43.20696" lon="2.33724">
        <ele>110.9</ele>
        <time>2019-07-14T08:13:33.000Z</time>
      </trkpt>
      <trkpt lat="43.20695" lon="2.33722">
        <ele>110.9</ele>
        <time>2019-07-14T08:13:34.000Z</time>
      </trkpt>
      <trkpt lat="43.20693" lon="2.33719">
        <ele>110.9</ele>
        <time>2019-07-14T08:13:35.000Z</time>
      </trkpt>
      <trkpt lat="43.20692" lon="2.33717">
        <ele>110.8</ele>
        <time>2019-07-14T08:13:36.000Z</time>
      </trkpt>
      <trkpt lat="43.2069" lon="2.33715">
        <ele>110.8</ele>
        <time>2019-07-14T08:13:37.000Z</time>
      </trkpt>
      <trkpt lat="43.20688" lon="2.33712">
        <ele>110.8</ele>
        <time>2019-07-14T08:13:38.000Z</time>
      </trkpt>
      <trkpt lat="43.20687" lon="2.3371">
        <ele>110.8</ele>
        <time>2019-07-14T08:13:39.000Z</time>
      </trkpt>
      <trkpt lat="43.20685" lon="2.33708">
        <ele>110.8</ele>
        <time>2019-07-14T08:13:40.000Z</time>
      </trkpt>
      <trkpt lat="43.20683" lon="2.33705">
        <ele>110.7</ele>
        <time>2019-07-14T08:13:41.000Z</time>
      </trkpt>
      <trkpt lat="43.20681" lon="2.33703">
        <ele>110.7</ele>
        <time>2019-07-14T08:13:42.000Z</time>
      </trkpt>
      <trkpt lat="43.2068" lon="2.337">
        <ele>110.7</ele>
        <time>2019-07-14T08:13:43.000Z</time>
      </trkpt>
      <trkpt lat="43.20678" lon="2.33698">
        <ele>110.6</ele>
        <time>2019-07-14T08:13:44.000Z</time>
      </trkpt>
      <trkpt lat="43.20677" lon="2.33696">
        <ele>110.6</ele>
        <time>2019-07-14T08:13:45.000Z</time>
      </trkpt>
      <trkpt lat="43.20675" lon="2.33693">
        <ele>110.6</ele>
        <time>2019-07-14T08:13:46.000Z</time>
      </trkpt>
      <trkpt lat="43.20674" lon="2.3369">
        <ele>110.5</ele>
        <time>2019-07-14T08:13:47.000Z</time>
      </trkpt>
      <trkpt lat="43.20672" lon="2.33688">
        <ele>110.5</ele>
        <time>2019-07-14T08:13:48.000Z</time>
      </trkpt>
      <trkpt lat="43.20671" lon="2.33685">
        <ele>110.4</ele>
        <time>2019-07-14T08:13:49.000Z</time>
      </trkpt>
      <trkpt lat="43.20669" lon="2.33683">
        <ele>110.4</ele>
        <time>2019-07-14T08:13:50.000Z</time>
      </trkpt>
      <trkpt lat="43.20668" lon="2.3368">
        <ele>110.3</ele>
        <time>2019-07-14T08:13:51.000Z</time>
      </trkpt>
      <trkpt lat="43.20666" lon="2.33677">
        <ele>110.3</ele>
        <time>2019-07-14T08:13:52.000Z</time>
      </trkpt>
      <trkpt lat="43.20665" lon="2.33674">
        <ele>110.3</ele>
        <time>2019-07-14T08:13:53.000Z</time>
      </trkpt>
      <trkpt lat="43.20664" lon="2.33672">
        <ele>110.3</ele>
        <time>2019-07-14T08:13:54.000Z</time>
      </trkpt>
      <trkpt lat="43.20662" lon="2.33669">
        <ele>110.3</ele>
        <time>2019-07-14T08:13:55.000Z</time>
      </trkpt>
      <trkpt lat="43.20661" lon="2.33666">
        <ele>110.3</ele>
        <time>2019-07-14T08:13:56.000Z</time>
      </trkpt>
      <trkpt lat="43.20659" lon="2.33663">
        <ele>110.3</ele>
        <time>2019-07-14T08:13:57.000Z</time>
      </trkpt>
      <trkpt lat="43.20658" lon="2.33661">
        <ele>110.4</ele>
        <time>2019-07-14T08:13:58.000Z</time>
      </trkpt>
      <trkpt lat="43.20657" lon="2.33658">
        <ele>110.4</ele>
        <time>2019-07-14T08:13:59.000Z</time>
      </trkpt>
      <trkpt lat="43.20655" lon="2.33655">
        <ele>110.5</ele>
        <time>2019-07-14T08:14:00.000Z</time>
      </trkpt>
      <trkpt lat="43.20654" lon="2.33652">
        <ele>110.5</ele>
        <time>2019-07-14T08:14:01.000Z</time>
      </trkpt>
      <trkpt lat="43.20652" lon="2.33649">
        <ele>110.6</ele>
        <time>2019-07-14T08:14:02.000Z</time>
      </trkpt>
      <trkpt lat="43.2065" lon="2.33646">
        <ele>110.6</ele>
        <time>2019-07-14T08:14:03.000Z</time>
      </trkpt>
      <trkpt lat="43.20649" lon="2.33643">
        <ele>110.6</ele>
        <time>2019-07-14T08:14:04.000Z</time>
      </trkpt>
      <trkpt lat="43.20647" lon="2.3364">
        <ele>110.6</ele>
        <time>2019-07-14T08:14:05.000Z</time>
      </trkpt>
      <trkpt lat="43.20645" lon="2.33638">
        <ele>110.7</ele>
        <time>2019-07-14T08:14:06.000Z</time>
      </trkpt>
      <trkpt lat="43.20644" lon="2.33635">
        <ele>110.7</ele>
        <time>2019-07-14T08:14:07.000Z</time>
      </trkpt>
      <trkpt lat="43.20642" lon="2.33632">
        <ele>110.7</ele>
        <time>2019-07-14T08:14:08.000Z</time>
      </trkpt>
      <trkpt lat="43.2064" lon="2.33629">
        <ele>110.7</ele>
        <time>2019-07-14T08:14:09.000Z</time>
      </trkpt>
      <trkpt lat="43.20638" lon="2.33627">
        <ele>110.7</ele>
        <time>2019-07-14T08:14:10.000Z</time>
      </trkpt>
      <trkpt lat="43.20636" lon="2.33624">
        <ele>110.7</ele>
        <time>2019-07-14T08:14:11.000Z</time>
      </trkpt>
      <trkpt lat="43.20635" lon="2.33621">
        <ele>110.7</ele>
        <time>2019-07-14T08:14:12.000Z</time>
      </trkpt>
      <trkpt lat="43.20633" lon="2.33619">
        <ele>110.7</ele>
        <time>2019-07-14T08:14:13.000Z</time>
      </trkpt>
      <trkpt lat="43.20631" lon="2.33617">
        <ele>110.7</ele>
        <time>2019-07-14T08:14:14.000Z</time>
      </trkpt>
      <trkpt lat="43.20629" lon="2.33614">
        <ele>110.7</ele>
        <time>2019-07-14T08:14:15.000Z</time>
      </trkpt>
      <trkpt lat="43.20627" lon="2.33612">
        <ele>110.7</ele>
        <time>2019-07-14T08:14:16.000Z</time>
      </trkpt>
      <trkpt lat="43.20625" lon="2.3361">
        <ele>110.6</ele>
        <time>2019-07-14T08:14:17.000Z</time>
      </trkpt>
      <trkpt lat="43.20623" lon="2.33607">
        <ele>110.6</ele>
        <time>2019-07-14T08:14:18.000Z</time>
      </trkpt>
      <trkpt lat="43.20621" lon="2.33605">
        <ele>110.6</ele>
        <time>2019-07-14T08:14:19.000Z</time>
      </trkpt>
      <trkpt lat="43.20618" lon="2.33603">
        <ele>110.5</ele>
        <time>2019-07-14T08:14:20.000Z</time>
      </trkpt>
      <trkpt lat="43.20616" lon="2.33601">
        <ele>110.5</ele>
        <time>2019-07-14T08:14:21.000Z</time>
      </trkpt>
      <trkpt lat="43.20614" lon="2.33599">
        <ele>110.5</ele>
        <time>2019-07-14T08:14:22.000Z</time>
      </trkpt>
      <trkpt lat="43.20612" lon="2.33597">
        <ele>110.4</ele>
        <time>2019-07-14T08:14:23.000Z</time>
      </trkpt>
      <trkpt lat="43.2061" lon="2.33594">
        <ele>110.4</ele>
        <time>2019-07-14T08:14:24.000Z</time>
      </trkpt>
      <trkpt lat="43.20608" lon="2.33592">
        <ele>110.3</ele>
        <time>2019-07-14T08:14:25.000Z</time>
      </trkpt>
      <trkpt lat="43.20605" lon="2.3359">
        <ele>110.2</ele>
        <time>2019-07-14T08:14:26.000Z</time>
      </trkpt>
      <trkpt lat="43.20603" lon="2.33588">
        <ele>110.2</ele>
        <time>2019-07-14T08:14:27.000Z</time>
      </trkpt>
      <trkpt lat="43.20601" lon="2.33586">
        <ele>110.1</ele>
        <time>2019-07-14T08:14:28.000Z</time>
      </trkpt>
      <trkpt lat="43.20599" lon="2.33583">
        <ele>110</ele>
        <time>2019-07-14T08:14:29.000Z</time>
      </trkpt>
      <trkpt lat="43.20597" lon="2.33581">
        <ele>110</ele>
        <time>2019-07-14T08:14:30.000Z</time>
      </trkpt>
      <trkpt lat="43.20595" lon="2.33578">
        <ele>110</ele>
        <time>2019-07-14T08:14:31.000Z</time>
      </trkpt>
      <trkpt lat="43.20593" lon="2.33576">
        <ele>110</ele>
        <time>2019-07-14T08:14:32.000Z</time>
      </trkpt>
      <trkpt lat="43.20591" lon="2.33573">
        <ele>110</ele>
        <time>2019-07-14T08:14:33.000Z</time>
      </trkpt>
      <trkpt lat="43.20589" lon="2.3357">
        <ele>110</ele>
        <time>2019-07-14T08:14:34.000Z</time>
      </trkpt>
      <trkpt lat="43.20588" lon="2.33567">
        <ele>110</ele>
        <time>2019-07-14T08:14:35.000Z</time>
      </trkpt>
      <trkpt lat="43.20586" lon="2.33563">
        <ele>110</ele>
        <time>2019-07-14T08:14:36.000Z</time>
      </trkpt>
      <trkpt lat="43.20585" lon="2.3356">
        <ele>110</ele>
        <time>2019-07-14T08:14:37.000Z</time>
      </trkpt>
      <trkpt lat="43.20584" lon="2.33557">
        <ele>110</ele>
        <time>2019-07-14T08:14:38.000Z</time>
      </trkpt>
      <trkpt lat="43.20582" lon="2.33554">
        <ele>110</ele>
        <time>2019-07-14T08:14:39.000Z</time>
      </trkpt>
      <trkpt lat="43.20581" lon="2.33551">
        <ele>110</ele>
        <time>2019-07-14T08:14:40.000Z</time>
      </trkpt>
      <trkpt lat="43.20579" lon="2.33548">
        <ele>110</ele>
        <time>2019-07-14T08:14:41.000Z</time>
      </trkpt>
      <trkpt lat="43.20577" lon="2.33545">
        <ele>109.9</ele>
        <time>2019-07-14T08:14:42.000Z</time>
      </trkpt>
      <trkpt lat="43.20576" lon="2.33542">
        <ele>109.9</ele>
        <time>2019-07-14T08:14:43.000Z</time>
      </trkpt>
      <trkpt lat="43.20574" lon="2.3354">
        <ele>109.9</ele>
        <time>2019-07-14T08:14:44.000Z</time>
      </trkpt>
      <trkpt lat="43.20572" lon="2.33537">
        <ele>109.8</ele>
        <time>2019-07-14T08:14:45.000Z</time>
      </trkpt>
      <trkpt lat="43.20569" lon="2.33535">
        <ele>109.8</ele>
        <time>2019-07-14T08:14:46.000Z</time>
      </trkpt>
      <trkpt lat="43.20567" lon="2.33532">
        <ele>109.8</ele>
        <time>2019-07-14T08:14:47.000Z</time>
      </trkpt>
      <trkpt lat="43.20565" lon="2.3353">
        <ele>109.7</ele>
        <time>2019-07-14T08:14:48.000Z</time>
      </trkpt>
      <trkpt lat="43.20563" lon="2.33527">
        <ele>109.7</ele>
        <time>2019-07-14T08:14:49.000Z</time>
      </trkpt>
      <trkpt lat="43.2056" lon="2.33525">
        <ele>109.6</ele>
        <time>2019-07-14T08:14:50.000Z</time>
      </trkpt>
      <trkpt lat="43.20558" lon="2.33522">
        <ele>109.6</ele>
        <time>2019-07-14T08:14:51.000Z</time>
      </trkpt>
      <trkpt lat="43.20556" lon="2.3352">
        <ele>109.5</ele>
        <time>2019-07-14T08:14:52.000Z</time>
      </trkpt>
      <trkpt lat="43.20553" lon="2.33517">
        <ele>109.4</ele>
        <time>2019-07-14T08:14:53.000Z</time>
      </trkpt>
      <trkpt lat="43.20551" lon="2.33515">
        <ele>109.4</ele>
        <time>2019-07-14T08:14:54.000Z</time>
      </trkpt>
      <trkpt lat="43.20548" lon="2.33513">
        <ele>109.3</ele>
        <time>2019-07-14T08:14:55.000Z</time>
      </trkpt>
      <trkpt lat="43.20546" lon="2.3351">
        <ele>109.2</ele>
        <time>2019-07-14T08:14:56.000Z</time>
      </trkpt>
      <trkpt lat="43.20543" lon="2.33508">
        <ele>109.1</ele>
        <time>2019-07-14T08:14:57.000Z</time>
      </trkpt>
      <trkpt lat="43.2054" lon="2.33506">
        <ele>109</ele>
        <time>2019-07-14T08:14:58.000Z</time>
      </trkpt>
      <trkpt lat="43.20538" lon="2.33504">
        <ele>109</ele>
        <time>2019-07-14T08:14:59.000Z</time>
      </trkpt>
      <trkpt lat="43.20535" lon="2.33501">
        <ele>108.9</ele>
        <time>2019-07-14T08:15:00.000Z</time>
      </trkpt>
      <trkpt lat="43.20532" lon="2.33499">
        <ele>108.8</ele>
        <time>2019-07-14T08:15:01.000Z</time>
      </trkpt>
      <trkpt lat="43.2053" lon="2.33497">
        <ele>108.7</ele>
        <time>2019-07-14T08:15:02.000Z</time>
      </trkpt>
      <trkpt lat="43.20527" lon="2.33496">
        <ele>108.7</ele>
        <time>2019-07-14T08:15:03.000Z</time>
      </trkpt>
      <trkpt lat="43.20525" lon="2.33494">
        <ele>108.7</ele>
        <time>2019-07-14T08:15:04.000Z</time>
      </trkpt>
      <trkpt lat="43.20522" lon="2.33492">
        <ele>108.6</ele>
        <time>2019-07-14T08:15:05.000Z</time>
      </trkpt>
      <trkpt lat="43.20519" lon="2.3349">
        <ele>108.5</ele>
        <time>2019-07-14T08:15:06.000Z</time>
      </trkpt>
      <trkpt lat="43.20517" lon="2.33489">
        <ele>108.5</ele>
        <time>2019-07-14T08:15:07.000Z</time>
      </trkpt>
      <trkpt lat="43.20514" lon="2.33487">
        <ele>108.4</ele>
        <time>2019-07-14T08:15:08.000Z</time>
      </trkpt>
      <trkpt lat="43.20512" lon="2.33486">
        <ele>108.4</ele>
        <time>2019-07-14T08:15:09.000Z</time>
      </trkpt>
      <trkpt lat="43.20509" lon="2.33485">
        <ele>108.3</ele>
        <time>2019-07-14T08:15:10.000Z</time>
      </trkpt>
      <trkpt lat="43.20507" lon="2.33484">
        <ele>108.2</ele>
        <time>2019-07-14T08:15:11.000Z</time>
      </trkpt>
      <trkpt lat="43.20504" lon="2.33483">
        <ele>108.1</ele>
        <time>2019-07-14T08:15:12.000Z</time>
      </trkpt>
      <trkpt lat="43.20502" lon="2.33482">
        <ele>108.1</ele>
        <time>2019-07-14T08:15:13.000Z</time>
      </trkpt>
      <trkpt lat="43.20499" lon="2.33481">
        <ele>108</ele>
        <time>2019-07-14T08:15:14.000Z</time>
      </trkpt>
      <trkpt lat="43.20497" lon="2.3348">
        <ele>108</ele>
        <time>2019-07-14T08:15:15.000Z</time>
      </trkpt>
      <trkpt lat="43.20494" lon="2.33479">
        <ele>108.1</ele>
        <time>2019-07-14T08:15:16.000Z</time>
      </trkpt>
      <trkpt lat="43.20492" lon="2.33478">
        <ele>108.1</ele>
        <time>2019-07-14T08:15:17.000Z</time>
      </trkpt>
      <trkpt lat="43.20489" lon="2.33476">
        <ele>108.1</ele>
        <time>2019-07-14T08:15:18.000Z</time>
      </trkpt>
      <trkpt lat="43.20486" lon="2.33474">
        <ele>108.1</ele>
        <time>2019-07-14T08:15:19.000Z</time>
      </trkpt>
      <trkpt lat="43.20484" lon="2.33472">
        <ele>108.1</ele>
        <time>2019-07-14T08:15:20.000Z</time>
      </trkpt>
      <trkpt lat="43.20481" lon="2.3347">
        <ele>108.1</ele>
        <time>2019-07-14T08:15:21.000Z</time>
      </trkpt>
      <trkpt lat="43.20478" lon="2.33468">
        <ele>108.2</ele>
        <time>2019-07-14T08:15:22.000Z</time>
      </trkpt>
      <trkpt lat="43.20475" lon="2.33466">
        <ele>108.2</ele>
        <time>2019-07-14T08:15:23.000Z</time>
      </trkpt>
      <trkpt lat="43.20472" lon="2.33464">
        <ele>108.2</ele>
        <time>2019-07-14T08:15:24.000Z</time>
      </trkpt>
      <trkpt lat="43.20469" lon="2.33463">
        <ele>108.2</ele>
        <time>2019-07-14T08:15:25.000Z</time>
      </trkpt>
      <trkpt lat="43.20466" lon="2.33461">
        <ele>108.2</ele>
        <time>2019-07-14T08:15:26.000Z</time>
      </trkpt>
      <trkpt lat="43.20463" lon="2.33459">
        <ele>108.2</ele>
        <time>2019-07-14T08:15:27.000Z</time>
      </trkpt>
      <trkpt lat="43.2046" lon="2.33457">
        <ele>108.2</ele>
        <time>2019-07-14T08:15:28.000Z</time>
      </trkpt>
      <trkpt lat="43.20457" lon="2.33456">
        <ele>108.2</ele>
        <time>2019-07-14T08:15:29.000Z</time>
      </trkpt>
      <trkpt lat="43.20455" lon="2.33454">
        <ele>108.2</ele>
        <time>2019-07-14T08:15:30.000Z</time>
      </trkpt>
      <trkpt lat="43.20452" lon="2.33453">
        <ele>108.3</ele>
        <time>2019-07-14T08:15:31.000Z</time>
      </trkpt>
      <trkpt lat="43.20449" lon="2.33451">
        <ele>108.3</ele>
        <time>2019-07-14T08:15:32.000Z</time>
      </trkpt>
      <trkpt lat="43.20446" lon="2.3345">
        <ele>108.3</ele>
        <time>2019-07-14T08:15:33.000Z</time>
      </trkpt>
      <trkpt lat="43.20444" lon="2.33448">
        <ele>108.3</ele>
        <time>2019-07-14T08:15:34.000Z</time>
      </trkpt>
      <trkpt lat="43.20441" lon="2.33447">
        <ele>108.3</ele>
        <time>2019-07-14T08:15:35.000Z</time>
      </trkpt>
      <trkpt lat="43.20439" lon="2.33445">
        <ele>108.3</ele>
        <time>2019-07-14T08:15:36.000Z</time>
      </trkpt>
      <trkpt lat="43.20436" lon="2.33444">
        <ele>108.2</ele>
        <time>2019-07-14T08:15:37.000Z</time>
      </trkpt>
      <trkpt lat="43.20434" lon="2.33442">
        <ele>108.2</ele>
        <time>2019-07-14T08:15:38.000Z</time>
      </trkpt>
      <trkpt lat="43.20431" lon="2.33441">
        <ele>108.2</ele>
        <time>2019-07-14T08:15:39.000Z</time>
      </trkpt>
      <trkpt lat="43.20429" lon="2.33439">
        <ele>108.2</ele>
        <time>2019-07-14T08:15:40.000Z</time>
      </trkpt>
      <trkpt lat="43.20426" lon="2.33437">
        <ele>108.2</ele>
        <time>2019-07-14T08:15:41.000Z</time>
      </trkpt>
      <trkpt lat="43.20424" lon="2.33436">
        <ele>108.2</ele>
        <time>2019-07-14T08:15:42.000Z</time>
      </trkpt>
      <trkpt lat="43.20421" lon="2.33434">
        <ele>108.2</ele>
        <time>2019-07-14T08:15:43.000Z</time>
      </trkpt>
      <trkpt lat="43.20418" lon="2.33432">
        <ele>108.2</ele>
        <time>2019-07-14T08:15:44.000Z</time>
      </trkpt>
      <trkpt lat="43.20416" lon="2.3343">
        <ele>108.2</ele>
        <time>2019-07-14T08:15:45.000Z</time>
      </trkpt>
      <trkpt lat="43.20414" lon="2.33428">
        <ele>108.2</ele>
        <time>2019-07-14T08:15:46.000Z</time>
      </trkpt>
      <trkpt lat="43.20412" lon="2.33425">
        <ele>108.2</ele>
        <time>2019-07-14T08:15:47.000Z</time>
      </trkpt>
      <trkpt lat="43.2041" lon="2.33423">
        <ele>108.1</ele>
        <time>2019-07-14T08:15:48.000Z</time>
      </trkpt>
      <trkpt lat="43.20408" lon="2.3342">
        <ele>108.1</ele>
        <time>2019-07-14T08:15:49.000Z</time>
      </trkpt>
      <trkpt lat="43.20407" lon="2.33416">
        <ele>108.1</ele>
        <time>2019-07-14T08:15:50.000Z</time>
      </trkpt>
      <trkpt lat="43.20406" lon="2.33413">
        <ele>108.1</ele>
        <time>2019-07-14T08:15:51.000Z</time>
      </trkpt>
      <trkpt lat="43.20405" lon="2.3341">
        <ele>108.1</ele>
        <time>2019-07-14T08:15:52.000Z</time>
      </trkpt>
      <trkpt lat="43.20405" lon="2.33406">
        <ele>108.1</ele>
        <time>2019-07-14T08:15:53.000Z</time>
      </trkpt>
      <trkpt lat="43.20405" lon="2.33403">
        <ele>108</ele>
        <time>2019-07-14T08:15:54.000Z</time>
      </trkpt>
      <trkpt lat="43.20405" lon="2.33399">
        <ele>108</ele>
        <time>2019-07-14T08:15:55.000Z</time>
      </trkpt>
      <trkpt lat="43.20406" lon="2.33396">
        <ele>108</ele>
        <time>2019-07-14T08:15:56.000Z</time>
      </trkpt>
      <trkpt lat="43.20407" lon="2.33393">
        <ele>108</ele>
        <time>2019-07-14T08:15:57.000Z</time>
      </trkpt>
      <trkpt lat="43.20408" lon="2.3339">
        <ele>108</ele>
        <time>2019-07-14T08:15:58.000Z</time>
      </trkpt>
      <trkpt lat="43.2041" lon="2.33387">
        <ele>108</ele>
        <time>2019-07-14T08:15:59.000Z</time>
      </trkpt>
      <trkpt lat="43.20412" lon="2.33384">
        <ele>108</ele>
        <time>2019-07-14T08:16:00.000Z</time>
      </trkpt>
      <trkpt lat="43.20414" lon="2.33381">
        <ele>108</ele>
        <time>2019-07-14T08:16:01.000Z</time>
      </trkpt>
      <trkpt lat="43.20416" lon="2.33379">
        <ele>108</ele>
        <time>2019-07-14T08:16:02.000Z</time>
      </trkpt>
      <trkpt lat="43.20419" lon="2.33376">
        <ele>108</ele>
        <time>2019-07-14T08:16:03.000Z</time>
      </trkpt>
      <trkpt lat="43.20421" lon="2.33373">
        <ele>108.1</ele>
        <time>2019-07-14T08:16:04.000Z</time>
      </trkpt>
      <trkpt lat="43.20423" lon="2.33371">
        <ele>108.1</ele>
        <time>2019-07-14T08:16:05.000Z</time>
      </trkpt>
      <trkpt lat="43.20426" lon="2.33368">
        <ele>108.1</ele>
        <time>2019-07-14T08:16:06.000Z</time>
      </trkpt>
      <trkpt lat="43.20428" lon="2.33365">
        <ele>108.2</ele>
        <time>2019-07-14T08:16:07.000Z</time>
      </trkpt>
      <trkpt lat="43.20431" lon="2.33363">
        <ele>108.2</ele>
        <time>2019-07-14T08:16:08.000Z</time>
      </trkpt>
      <trkpt lat="43.20433" lon="2.3336">
        <ele>108.3</ele>
        <time>2019-07-14T08:16:09.000Z</time>
      </trkpt>
      <trkpt lat="43.20435" lon="2.33358">
        <ele>108.3</ele>
        <time>2019-07-14T08:16:10.000Z</time>
      </trkpt>
      <trkpt lat="43.20438" lon="2.33356">
        <ele>108.4</ele>
        <time>2019-07-14T08:16:11.000Z</time>
      </trkpt>
      <trkpt lat="43.2044" lon="2.33353">
        <ele>108.4</ele>
        <time>2019-07-14T08:16:12.000Z</time>
      </trkpt>
      <trkpt lat="43.20443" lon="2.33351">
        <ele>108.5</ele>
        <time>2019-07-14T08:16:13.000Z</time>
      </trkpt>
      <trkpt lat="43.20445" lon="2.33349">
        <ele>108.6</ele>
        <time>2019-07-14T08:16:14.000Z</time>
      </trkpt>
      <trkpt lat="43.20448" lon="2.33347">
        <ele>108.6</ele>
        <time>2019-07-14T08:16:15.000Z</time>
      </trkpt>
      <trkpt lat="43.2045" lon="2.33345">
        <ele>108.7</ele>
        <time>2019-07-14T08:16:16.000Z</time>
      </trkpt>
      <trkpt lat="43.20452" lon="2.33343">
        <ele>108.8</ele>
        <time>2019-07-14T08:16:17.000Z</time>
      </trkpt>
      <trkpt lat="43.20455" lon="2.33342">
        <ele>108.8</ele>
        <time>2019-07-14T08:16:18.000Z</time>
      </trkpt>
      <trkpt lat="43.20457" lon="2.3334">
        <ele>108.9</ele>
        <time>2019-07-14T08:16:19.000Z</time>
      </trkpt>
      <trkpt lat="43.2046" lon="2.33339">
        <ele>109</ele>
        <time>2019-07-14T08:16:20.000Z</time>
      </trkpt>
      <trkpt lat="43.20462" lon="2.33338">
        <ele>109</ele>
        <time>2019-07-14T08:16:21.000Z</time>
      </trkpt>
      <trkpt lat="43.20465" lon="2.33337">
        <ele>109.1</ele>
        <time>2019-07-14T08:16:22.000Z</time>
      </trkpt>
      <trkpt lat="43.20467" lon="2.33336">
        <ele>109.2</ele>
        <time>2019-07-14T08:16:23.000Z</time>
      </trkpt>
      <trkpt lat="43.2047" lon="2.33335">
        <ele>109.2</ele>
        <time>2019-07-14T08:16:24.000Z</time>
      </trkpt>
      <trkpt lat="43.20472" lon="2.33335">
        <ele>109.3</ele>
        <time>2019-07-14T08:16:25.000Z</time>
      </trkpt>
      <trkpt lat="43.20475" lon="2.33335">
        <ele>109.4</ele>
        <time>2019-07-14T08:16:26.000Z</time>
      </trkpt>
      <trkpt lat="43.20477" lon="2.33335">
        <ele>109.4</ele>
        <time>2019-07-14T08:16:27.000Z</time>
      </trkpt>
      <trkpt lat="43.2048" lon="2.33336">
        <ele>109.5</ele>
        <time>2019-07-14T08:16:28.000Z</time>
      </trkpt>
      <trkpt lat="43.20482" lon="2.33336">
        <ele>109.5</ele>
        <time>2019-07-14T08:16:29.000Z</time>
      </trkpt>
      <trkpt lat="43.20484" lon="2.33336">
        <ele>109.6</ele>
        <time>2019-07-14T08:16:30.000Z</time>
      </trkpt>
      <trkpt lat="43.20485" lon="2.33335">
        <ele>109.6</ele>
        <time>2019-07-14T08:16:31.000Z</time>
      </trkpt>
      <trkpt lat="43.20485" lon="2.33334">
        <ele>109.6</ele>
        <time>2019-07-14T08:16:32.000Z</time>
      </trkpt>
      <trkpt lat="43.20484" lon="2.33332">
        <ele>109.7</ele>
        <time>2019-07-14T08:16:33.000Z</time>
      </trkpt>
      <trkpt lat="43.20483" lon="2.33331">
        <ele>109.7</ele>
        <time>2019-07-14T08:16:34.000Z</time>
      </trkpt>
      <trkpt lat="43.20481" lon="2.3333">
        <ele>109.7</ele>
        <time>2019-07-14T08:16:35.000Z</time>
      </trkpt>
      <trkpt lat="43.20478" lon="2.33329">
        <ele>109.7</ele>
        <time>2019-07-14T08:16:36.000Z</time>
      </trkpt>
      <trkpt lat="43.20475" lon="2.3333">
        <ele>109.6</ele>
        <time>2019-07-14T08:16:37.000Z</time>
      </trkpt>
      <trkpt lat="43.20472" lon="2.3333">
        <ele>109.5</ele>
        <time>2019-07-14T08:16:38.000Z</time>
      </trkpt>
      <trkpt lat="43.20469" lon="2.33329">
        <ele>109.5</ele>
        <time>2019-07-14T08:16:39.000Z</time>
      </trkpt>
      <trkpt lat="43.20466" lon="2.33329">
        <ele>109.4</ele>
        <time>2019-07-14T08:16:40.000Z</time>
      </trkpt>
      <trkpt lat="43.20463" lon="2.33329">
        <ele>109.4</ele>
        <time>2019-07-14T08:16:41.000Z</time>
      </trkpt>
      <trkpt lat="43.2046" lon="2.33329">
        <ele>109.3</ele>
        <time>2019-07-14T08:16:42.000Z</time>
      </trkpt>
      <trkpt lat="43.20457" lon="2.33329">
        <ele>109.2</ele>
        <time>2019-07-14T08:16:43.000Z</time>
      </trkpt>
      <trkpt lat="43.20454" lon="2.33329">
        <ele>109.1</ele>
        <time>2019-07-14T08:16:44.000Z</time>
      </trkpt>
      <trkpt lat="43.20451" lon="2.3333">
        <ele>109</ele>
        <time>2019-07-14T08:16:45.000Z</time>
      </trkpt>
      <trkpt lat="43.20448" lon="2.33332">
        <ele>108.9</ele>
        <time>2019-07-14T08:16:46.000Z</time>
      </trkpt>
      <trkpt lat="43.20446" lon="2.33333">
        <ele>108.7</ele>
        <time>2019-07-14T08:16:47.000Z</time>
      </trkpt>
      <trkpt lat="43.20443" lon="2.33335">
        <ele>108.6</ele>
        <time>2019-07-14T08:16:48.000Z</time>
      </trkpt>
      <trkpt lat="43.2044" lon="2.33337">
        <ele>108.5</ele>
        <time>2019-07-14T08:16:49.000Z</time>
      </trkpt>
      <trkpt lat="43.20437" lon="2.33339">
        <ele>108.5</ele>
        <time>2019-07-14T08:16:50.000Z</time>
      </trkpt>
      <trkpt lat="43.20434" lon="2.33341">
        <ele>108.4</ele>
        <time>2019-07-14T08:16:51.000Z</time>
      </trkpt>
      <trkpt lat="43.20432" lon="2.33344">
        <ele>108.3</ele>
        <time>2019-07-14T08:16:52.000Z</time>
      </trkpt>
      <trkpt lat="43.20429" lon="2.33346">
        <ele>108.3</ele>
        <time>2019-07-14T08:16:53.000Z</time>
      </trkpt>
      <trkpt lat="43.20427" lon="2.33349">
        <ele>108.2</ele>
        <time>2019-07-14T08:16:54.000Z</time>
      </trkpt>
      <trkpt lat="43.20424" lon="2.33352">
        <ele>108.1</ele>
        <time>2019-07-14T08:16:55.000Z</time>
      </trkpt>
      <trkpt lat="43.20422" lon="2.33354">
        <ele>108.1</ele>
        <time>2019-07-14T08:16:56.000Z</time>
      </trkpt>
      <trkpt lat="43.2042" lon="2.33357">
        <ele>108.1</ele>
        <time>2019-07-14T08:16:57.000Z</time>
      </trkpt>
      <trkpt lat="43.20417" lon="2.33359">
        <ele>108</ele>
        <time>2019-07-14T08:16:58.000Z</time>
      </trkpt>
      <trkpt lat="43.20415" lon="2.33361">
        <ele>108</ele>
        <time>2019-07-14T08:16:59.000Z</time>
      </trkpt>
      <trkpt lat="43.20413" lon="2.33364">
        <ele>107.9</ele>
        <time>2019-07-14T08:17:00.000Z</time>
      </trkpt>
      <trkpt lat="43.20411" lon="2.33366">
        <ele>107.9</ele>
        <time>2019-07-14T08:17:01.000Z</time>
      </trkpt>
      <trkpt lat="43.20408" lon="2.33368">
        <ele>107.9</ele>
        <time>2019-07-14T08:17:02.000Z</time>
      </trkpt>
      <trkpt lat="43.20406" lon="2.3337">
        <ele>107.8</ele>
        <time>2019-07-14T08:17:03.000Z</time>
      </trkpt>
      <trkpt lat="43.20404" lon="2.33372">
        <ele>107.8</ele>
        <time>2019-07-14T08:17:04.000Z</time>
      </trkpt>
      <trkpt lat="43.20401" lon="2.33375">
        <ele>107.8</ele>
        <time>2019-07-14T08:17:05.000Z</time>
      </trkpt>
      <trkpt lat="43.20399" lon="2.33377">
        <ele>107.8</ele>
        <time>2019-07-14T08:17:06.000Z</time>
      </trkpt>
      <trkpt lat="43.20397" lon="2.3338">
        <ele>107.8</ele>
        <time>2019-07-14T08:17:07.000Z</time>
      </trkpt>
      <trkpt lat="43.20394" lon="2.33382">
        <ele>107.8</ele>
        <time>2019-07-14T08:17:08.000Z</time>
      </trkpt>
      <trkpt lat="43.20392" lon="2.33385">
        <ele>107.8</ele>
        <time>2019-07-14T08:17:09.000Z</time>
      </trkpt>
      <trkpt lat="43.20389" lon="2.33388">
        <ele>107.9</ele>
        <time>2019-07-14T08:17:10.000Z</time>
      </trkpt>
      <trkpt lat="43.20386" lon="2.33391">
        <ele>107.9</ele>
        <time>2019-07-14T08:17:11.000Z</time>
      </trkpt>
      <trkpt lat="43.20384" lon="2.33394">
        <ele>108</ele>
        <time>2019-07-14T08:17:12.000Z</time>
      </trkpt>
      <trkpt lat="43.20381" lon="2.33396">
        <ele>108</ele>
        <time>2019-07-14T08:17:13.000Z</time>
      </trkpt>
      <trkpt lat="43.20378" lon="2.33399">
        <ele>108.1</ele>
        <time>2019-07-14T08:17:14.000Z</time>
      </trkpt>
      <trkpt lat="43.20376" lon="2.33402">
        <ele>108.1</ele>
        <time>2019-07-14T08:17:15.000Z</time>
      </trkpt>
      <trkpt lat="43.20373" lon="2.33405">
        <ele>108.2</ele>
        <time>2019-07-14T08:17:16.000Z</time>
      </trkpt>
      <trkpt lat="43.2037" lon="2.33408">
        <ele>108.3</ele>
        <time>2019-07-14T08:17:17.000Z</time>
      </trkpt>
      <trkpt lat="43.20368" lon="2.33411">
        <ele>108.4</ele>
        <time>2019-07-14T08:17:18.000Z</time>
      </trkpt>
      <trkpt lat="43.20365" lon="2.33413">
        <ele>108.5</ele>
        <time>2019-07-14T08:17:19.000Z</time>
      </trkpt>
      <trkpt lat="43.20362" lon="2.33416">
        <ele>108.6</ele>
        <time>2019-07-14T08:17:20.000Z</time>
      </trkpt>
      <trkpt lat="43.2036" lon="2.33419">
        <ele>108.7</ele>
        <time>2019-07-14T08:17:21.000Z</time>
      </trkpt>
      <trkpt lat="43.20357" lon="2.33421">
        <ele>108.7</ele>
        <time>2019-07-14T08:17:22.000Z</time>
      </trkpt>
      <trkpt lat="43.20355" lon="2.33423">
        <ele>108.7</ele>
        <time>2019-07-14T08:17:23.000Z</time>
      </trkpt>
      <trkpt lat="43.20352" lon="2.33426">
        <ele>108.7</ele>
        <time>2019-07-14T08:17:24.000Z</time>
      </trkpt>
      <trkpt lat="43.20349" lon="2.33428">
        <ele>108.7</ele>
        <time>2019-07-14T08:17:25.000Z</time>
      </trkpt>
      <trkpt lat="43.20347" lon="2.3343">
        <ele>108.7</ele>
        <time>2019-07-14T08:17:26.000Z</time>
      </trkpt>
      <trkpt lat="43.20344" lon="2.33432">
        <ele>108.7</ele>
        <time>2019-07-14T08:17:27.000Z</time>
      </trkpt>
      <trkpt lat="43.20342" lon="2.33434">
        <ele>108.7</ele>
        <time>2019-07-14T08:17:28.000Z</time>
      </trkpt>
      <trkpt lat="43.20339" lon="2.33437">
        <ele>108.7</ele>
        <time>2019-07-14T08:17:29.000Z</time>
      </trkpt>
      <trkpt lat="43.20337" lon="2.33439">
        <ele>108.7</ele>
        <time>2019-07-14T08:17:30.000Z</time>
      </trkpt>
      <trkpt lat="43.20335" lon="2.33441">
        <ele>108.7</ele>
        <time>2019-07-14T08:17:31.000Z</time>
      </trkpt>
      <trkpt lat="43.20332" lon="2.33443">
        <ele>108.7</ele>
        <time>2019-07-14T08:17:32.000Z</time>
      </trkpt>
      <trkpt lat="43.2033" lon="2.33445">
        <ele>108.6</ele>
        <time>2019-07-14T08:17:33.000Z</time>
      </trkpt>
      <trkpt lat="43.20327" lon="2.33447">
        <ele>108.6</ele>
        <time>2019-07-14T08:17:34.000Z</time>
      </trkpt>
      <trkpt lat="43.20325" lon="2.33449">
        <ele>108.6</ele>
        <time>2019-07-14T08:17:35.000Z</time>
      </trkpt>
      <trkpt lat="43.20323" lon="2.33452">
        <ele>108.6</ele>
        <time>2019-07-14T08:17:36.000Z</time>
      </trkpt>
      <trkpt lat="43.20321" lon="2.33454">
        <ele>108.5</ele>
        <time>2019-07-14T08:17:37.000Z</time>
      </trkpt>
      <trkpt lat="43.20319" lon="2.33457">
        <ele>108.5</ele>
        <time>2019-07-14T08:17:38.000Z</time>
      </trkpt>
      <trkpt lat="43.20317" lon="2.33459">
        <ele>108.5</ele>
        <time>2019-07-14T08:17:39.000Z</time>
      </trkpt>
      <trkpt lat="43.20315" lon="2.33461">
        <ele>108.5</ele>
        <time>2019-07-14T08:17:40.000Z</time>
      </trkpt>
      <trkpt lat="43.20314" lon="2.33463">
        <ele>108.5</ele>
        <time>2019-07-14T08:17:41.000Z</time>
      </trkpt>
      <trkpt lat="43.20313" lon="2.33465">
        <ele>108.5</ele>
        <time>2019-07-14T08:17:42.000Z</time>
      </trkpt>
      <trkpt lat="43.20312" lon="2.33466">
        <ele>108.5</ele>
        <time>2019-07-14T08:17:43.000Z</time>
      </trkpt>
      <trkpt lat="43.20312" lon="2.33467">
        <ele>108.4</ele>
        <time>2019-07-14T08:17:44.000Z</time>
      </trkpt>
      <trkpt lat="43.20312" lon="2.33467">
        <ele>108.4</ele>
        <time>2019-07-14T08:17:45.000Z</time>
      </trkpt>
      <trkpt lat="43.20312" lon="2.33467">
        <ele>108.4</ele>
        <time>2019-07-14T08:17:46.000Z</time>
      </trkpt>
      <trkpt lat="43.20313" lon="2.33466">
        <ele>108.5</ele>
        <time>2019-07-14T08:17:47.000Z</time>
      </trkpt>
      <trkpt lat="43.20313" lon="2.33466">
        <ele>108.5</ele>
        <time>2019-07-14T08:17:48.000Z</time>
      </trkpt>
      <trkpt lat="43.20313" lon="2.33465">
        <ele>108.5</ele>
        <time>2019-07-14T08:17:49.000Z</time>
      </trkpt>
      <trkpt lat="43.20313" lon="2.33463">
        <ele>108.5</ele>
        <time>2019-07-14T08:17:50.000Z</time>
      </trkpt>
      <trkpt lat="43.20313" lon="2.33462">
        <ele>108.5</ele>
        <time>2019-07-14T08:17:51.000Z</time>
      </trkpt>
      <trkpt lat="43.20312" lon="2.33461">
        <ele>108.5</ele>
        <time>2019-07-14T08:17:52.000Z</time>
      </trkpt>
      <trkpt lat="43.20312" lon="2.33459">
        <ele>108.5</ele>
        <time>2019-07-14T08:17:53.000Z</time>
      </trkpt>
      <trkpt lat="43.20311" lon="2.33458">
        <ele>108.5</ele>
        <time>2019-07-14T08:17:54.000Z</time>
      </trkpt>
      <trkpt lat="43.2031" lon="2.33456">
        <ele>108.5</ele>
        <time>2019-07-14T08:17:55.000Z</time>
      </trkpt>
      <trkpt lat="43.20309" lon="2.33454">
        <ele>108.5</ele>
        <time>2019-07-14T08:17:56.000Z</time>
      </trkpt>
      <trkpt lat="43.20308" lon="2.33452">
        <ele>108.5</ele>
        <time>2019-07-14T08:17:57.000Z</time>
      </trkpt>
      <trkpt lat="43.20307" lon="2.3345">
        <ele>108.5</ele>
        <time>2019-07-14T08:17:58.000Z</time>
      </trkpt>
      <trkpt lat="43.20306" lon="2.33448">
        <ele>108.5</ele>
        <time>2019-07-14T08:17:59.000Z</time>
      </trkpt>
      <trkpt lat="43.20304" lon="2.33446">
        <ele>108.5</ele>
        <time>2019-07-14T08:18:00.000Z</time>
      </trkpt>
      <trkpt lat="43.20303" lon="2.33444">
        <ele>108.5</ele>
        <time>2019-07-14T08:18:01.000Z</time>
      </trkpt>
      <trkpt lat="43.20302" lon="2.33442">
        <ele>108.6</ele>
        <time>2019-07-14T08:18:02.000Z</time>
      </trkpt>
      <trkpt lat="43.20302" lon="2.3344">
        <ele>108.6</ele>
        <time>2019-07-14T08:18:03.000Z</time>
      </trkpt>
      <trkpt lat="43.20301" lon="2.33438">
        <ele>108.6</ele>
        <time>2019-07-14T08:18:04.000Z</time>
      </trkpt>
      <trkpt lat="43.203" lon="2.33435">
        <ele>108.6</ele>
        <time>2019-07-14T08:18:05.000Z</time>
      </trkpt>
      <trkpt lat="43.203" lon="2.33433">
        <ele>108.6</ele>
        <time>2019-07-14T08:18:06.000Z</time>
      </trkpt>
      <trkpt lat="43.203" lon="2.33431">
        <ele>108.6</ele>
        <time>2019-07-14T08:18:07.000Z</time>
      </trkpt>
    </trkseg>
  </trk>
</gpx>